<?xml version="1.0" encoding="UTF-8" standalone="no" ?>
<gpx xmlns="http://www.topografix.com/GPX/1/1" xmlns:xsi="http://www.w3.org/2001/XMLSchema-instance" xsi:schemaLocation="http://www.topografix.com/GPX/1/1 http://www.topografix.com/GPX/1/1/gpx.xsd" version="1.1" creator="VisuGPX - https://www.visugpx.com">
  <metadata>
    <name>Xavier-Gourin 2021-07-08</name>
  </metadata>
  <trk>
    <name><![CDATA[Xavier-Gourin 2021-07-08_1]]></name>
    <extensions>
      <line xmlns="http://www.topografix.com/GPX/gpx_style/0/2">
        <color>0000FF</color>
        <width>4</width>
      </line>
    </extensions>
    <trkseg>
      <trkpt lat="48.64213" lon="-3.84331">
        <ele>151</ele>
        <time>2021-07-08T07:38:30Z</time>
      </trkpt>
      <trkpt lat="48.64212" lon="-3.84333">
        <ele>150</ele>
        <time>2021-07-08T07:38:34Z</time>
      </trkpt>
      <trkpt lat="48.64202" lon="-3.84335">
        <ele>151</ele>
        <time>2021-07-08T07:38:50Z</time>
      </trkpt>
      <trkpt lat="48.64195" lon="-3.84329">
        <ele>151</ele>
        <time>2021-07-08T07:38:52Z</time>
      </trkpt>
      <trkpt lat="48.64193" lon="-3.84327">
        <ele>151</ele>
        <time>2021-07-08T07:38:53Z</time>
      </trkpt>
      <trkpt lat="48.6419" lon="-3.84323">
        <ele>151</ele>
        <time>2021-07-08T07:38:54Z</time>
      </trkpt>
      <trkpt lat="48.64182" lon="-3.84312">
        <ele>152</ele>
        <time>2021-07-08T07:38:59Z</time>
      </trkpt>
      <trkpt lat="48.64175" lon="-3.84301">
        <ele>153</ele>
        <time>2021-07-08T07:39:03Z</time>
      </trkpt>
      <trkpt lat="48.64166" lon="-3.84292">
        <ele>153</ele>
        <time>2021-07-08T07:39:08Z</time>
      </trkpt>
      <trkpt lat="48.64158" lon="-3.84284">
        <ele>156</ele>
        <time>2021-07-08T07:39:13Z</time>
      </trkpt>
      <trkpt lat="48.64152" lon="-3.84273">
        <ele>156</ele>
        <time>2021-07-08T07:39:17Z</time>
      </trkpt>
      <trkpt lat="48.6418" lon="-3.84205">
        <ele>157</ele>
        <time>2021-07-08T07:39:25Z</time>
      </trkpt>
      <trkpt lat="48.64174" lon="-3.84193">
        <ele>158</ele>
        <time>2021-07-08T07:39:29Z</time>
      </trkpt>
      <trkpt lat="48.64167" lon="-3.84184">
        <ele>158</ele>
        <time>2021-07-08T07:39:33Z</time>
      </trkpt>
      <trkpt lat="48.64165" lon="-3.84181">
        <ele>158</ele>
        <time>2021-07-08T07:39:34Z</time>
      </trkpt>
      <trkpt lat="48.64163" lon="-3.84179">
        <ele>159</ele>
        <time>2021-07-08T07:39:35Z</time>
      </trkpt>
      <trkpt lat="48.64162" lon="-3.84177">
        <ele>159</ele>
        <time>2021-07-08T07:39:36Z</time>
      </trkpt>
      <trkpt lat="48.6416" lon="-3.84174">
        <ele>160</ele>
        <time>2021-07-08T07:39:37Z</time>
      </trkpt>
      <trkpt lat="48.64159" lon="-3.84172">
        <ele>160</ele>
        <time>2021-07-08T07:39:38Z</time>
      </trkpt>
      <trkpt lat="48.64157" lon="-3.8417">
        <ele>160</ele>
        <time>2021-07-08T07:39:39Z</time>
      </trkpt>
      <trkpt lat="48.64155" lon="-3.84168">
        <ele>160</ele>
        <time>2021-07-08T07:39:41Z</time>
      </trkpt>
      <trkpt lat="48.64153" lon="-3.84166">
        <ele>160</ele>
        <time>2021-07-08T07:39:41Z</time>
      </trkpt>
      <trkpt lat="48.64152" lon="-3.84164">
        <ele>160</ele>
        <time>2021-07-08T07:39:42Z</time>
      </trkpt>
      <trkpt lat="48.6415" lon="-3.84162">
        <ele>160</ele>
        <time>2021-07-08T07:39:43Z</time>
      </trkpt>
      <trkpt lat="48.64149" lon="-3.84159">
        <ele>160</ele>
        <time>2021-07-08T07:39:44Z</time>
      </trkpt>
      <trkpt lat="48.64147" lon="-3.84157">
        <ele>161</ele>
        <time>2021-07-08T07:39:45Z</time>
      </trkpt>
      <trkpt lat="48.64145" lon="-3.84155">
        <ele>161</ele>
        <time>2021-07-08T07:39:46Z</time>
      </trkpt>
      <trkpt lat="48.64143" lon="-3.84153">
        <ele>161</ele>
        <time>2021-07-08T07:39:47Z</time>
      </trkpt>
      <trkpt lat="48.64141" lon="-3.84152">
        <ele>161</ele>
        <time>2021-07-08T07:39:48Z</time>
      </trkpt>
      <trkpt lat="48.64139" lon="-3.8415">
        <ele>161</ele>
        <time>2021-07-08T07:39:49Z</time>
      </trkpt>
      <trkpt lat="48.64136" lon="-3.84148">
        <ele>161</ele>
        <time>2021-07-08T07:39:50Z</time>
      </trkpt>
      <trkpt lat="48.64134" lon="-3.84146">
        <ele>161</ele>
        <time>2021-07-08T07:39:51Z</time>
      </trkpt>
      <trkpt lat="48.64132" lon="-3.84145">
        <ele>161</ele>
        <time>2021-07-08T07:39:53Z</time>
      </trkpt>
      <trkpt lat="48.64129" lon="-3.84143">
        <ele>162</ele>
        <time>2021-07-08T07:39:53Z</time>
      </trkpt>
      <trkpt lat="48.64127" lon="-3.84141">
        <ele>162</ele>
        <time>2021-07-08T07:39:54Z</time>
      </trkpt>
      <trkpt lat="48.64125" lon="-3.8414">
        <ele>162</ele>
        <time>2021-07-08T07:39:55Z</time>
      </trkpt>
      <trkpt lat="48.64122" lon="-3.84139">
        <ele>162</ele>
        <time>2021-07-08T07:39:56Z</time>
      </trkpt>
      <trkpt lat="48.64119" lon="-3.84138">
        <ele>162</ele>
        <time>2021-07-08T07:39:57Z</time>
      </trkpt>
      <trkpt lat="48.64117" lon="-3.84137">
        <ele>162</ele>
        <time>2021-07-08T07:39:59Z</time>
      </trkpt>
      <trkpt lat="48.64114" lon="-3.84136">
        <ele>162</ele>
        <time>2021-07-08T07:39:59Z</time>
      </trkpt>
      <trkpt lat="48.64111" lon="-3.84136">
        <ele>162</ele>
        <time>2021-07-08T07:40:00Z</time>
      </trkpt>
      <trkpt lat="48.64108" lon="-3.84136">
        <ele>162</ele>
        <time>2021-07-08T07:40:01Z</time>
      </trkpt>
      <trkpt lat="48.64104" lon="-3.84135">
        <ele>162</ele>
        <time>2021-07-08T07:40:03Z</time>
      </trkpt>
      <trkpt lat="48.64101" lon="-3.84135">
        <ele>162</ele>
        <time>2021-07-08T07:40:03Z</time>
      </trkpt>
      <trkpt lat="48.64097" lon="-3.84135">
        <ele>162</ele>
        <time>2021-07-08T07:40:04Z</time>
      </trkpt>
      <trkpt lat="48.64093" lon="-3.84135">
        <ele>162</ele>
        <time>2021-07-08T07:40:05Z</time>
      </trkpt>
      <trkpt lat="48.64089" lon="-3.84135">
        <ele>162</ele>
        <time>2021-07-08T07:40:06Z</time>
      </trkpt>
      <trkpt lat="48.64085" lon="-3.84136">
        <ele>162</ele>
        <time>2021-07-08T07:40:07Z</time>
      </trkpt>
      <trkpt lat="48.64081" lon="-3.84138">
        <ele>161</ele>
        <time>2021-07-08T07:40:08Z</time>
      </trkpt>
      <trkpt lat="48.64076" lon="-3.8414">
        <ele>161</ele>
        <time>2021-07-08T07:40:10Z</time>
      </trkpt>
      <trkpt lat="48.64071" lon="-3.84142">
        <ele>161</ele>
        <time>2021-07-08T07:40:10Z</time>
      </trkpt>
      <trkpt lat="48.64067" lon="-3.84145">
        <ele>161</ele>
        <time>2021-07-08T07:40:11Z</time>
      </trkpt>
      <trkpt lat="48.64062" lon="-3.84149">
        <ele>161</ele>
        <time>2021-07-08T07:40:12Z</time>
      </trkpt>
      <trkpt lat="48.64058" lon="-3.84153">
        <ele>161</ele>
        <time>2021-07-08T07:40:14Z</time>
      </trkpt>
      <trkpt lat="48.64053" lon="-3.84158">
        <ele>161</ele>
        <time>2021-07-08T07:40:14Z</time>
      </trkpt>
      <trkpt lat="48.64048" lon="-3.84162">
        <ele>161</ele>
        <time>2021-07-08T07:40:16Z</time>
      </trkpt>
      <trkpt lat="48.64044" lon="-3.84167">
        <ele>161</ele>
        <time>2021-07-08T07:40:17Z</time>
      </trkpt>
      <trkpt lat="48.64039" lon="-3.84172">
        <ele>161</ele>
        <time>2021-07-08T07:40:17Z</time>
      </trkpt>
      <trkpt lat="48.64035" lon="-3.84177">
        <ele>160</ele>
        <time>2021-07-08T07:40:19Z</time>
      </trkpt>
      <trkpt lat="48.64031" lon="-3.84182">
        <ele>160</ele>
        <time>2021-07-08T07:40:19Z</time>
      </trkpt>
      <trkpt lat="48.64026" lon="-3.84187">
        <ele>160</ele>
        <time>2021-07-08T07:40:20Z</time>
      </trkpt>
      <trkpt lat="48.64022" lon="-3.84192">
        <ele>160</ele>
        <time>2021-07-08T07:40:22Z</time>
      </trkpt>
      <trkpt lat="48.64018" lon="-3.84197">
        <ele>160</ele>
        <time>2021-07-08T07:40:23Z</time>
      </trkpt>
      <trkpt lat="48.64014" lon="-3.84202">
        <ele>160</ele>
        <time>2021-07-08T07:40:23Z</time>
      </trkpt>
      <trkpt lat="48.6401" lon="-3.84206">
        <ele>160</ele>
        <time>2021-07-08T07:40:24Z</time>
      </trkpt>
      <trkpt lat="48.64006" lon="-3.84211">
        <ele>159</ele>
        <time>2021-07-08T07:40:25Z</time>
      </trkpt>
      <trkpt lat="48.64002" lon="-3.84215">
        <ele>159</ele>
        <time>2021-07-08T07:40:26Z</time>
      </trkpt>
      <trkpt lat="48.63998" lon="-3.84219">
        <ele>159</ele>
        <time>2021-07-08T07:40:27Z</time>
      </trkpt>
      <trkpt lat="48.63994" lon="-3.84224">
        <ele>159</ele>
        <time>2021-07-08T07:40:29Z</time>
      </trkpt>
      <trkpt lat="48.6399" lon="-3.84228">
        <ele>159</ele>
        <time>2021-07-08T07:40:30Z</time>
      </trkpt>
      <trkpt lat="48.63986" lon="-3.84231">
        <ele>159</ele>
        <time>2021-07-08T07:40:30Z</time>
      </trkpt>
      <trkpt lat="48.63982" lon="-3.84235">
        <ele>158</ele>
        <time>2021-07-08T07:40:31Z</time>
      </trkpt>
      <trkpt lat="48.63978" lon="-3.84237">
        <ele>158</ele>
        <time>2021-07-08T07:40:33Z</time>
      </trkpt>
      <trkpt lat="48.63973" lon="-3.8424">
        <ele>158</ele>
        <time>2021-07-08T07:40:33Z</time>
      </trkpt>
      <trkpt lat="48.63969" lon="-3.84241">
        <ele>158</ele>
        <time>2021-07-08T07:40:35Z</time>
      </trkpt>
      <trkpt lat="48.63965" lon="-3.84242">
        <ele>158</ele>
        <time>2021-07-08T07:40:35Z</time>
      </trkpt>
      <trkpt lat="48.6396" lon="-3.84242">
        <ele>158</ele>
        <time>2021-07-08T07:40:36Z</time>
      </trkpt>
      <trkpt lat="48.63956" lon="-3.84242">
        <ele>158</ele>
        <time>2021-07-08T07:40:37Z</time>
      </trkpt>
      <trkpt lat="48.63951" lon="-3.84242">
        <ele>159</ele>
        <time>2021-07-08T07:40:38Z</time>
      </trkpt>
      <trkpt lat="48.63947" lon="-3.84241">
        <ele>159</ele>
        <time>2021-07-08T07:40:39Z</time>
      </trkpt>
      <trkpt lat="48.63943" lon="-3.84239">
        <ele>159</ele>
        <time>2021-07-08T07:40:40Z</time>
      </trkpt>
      <trkpt lat="48.63939" lon="-3.84237">
        <ele>159</ele>
        <time>2021-07-08T07:40:41Z</time>
      </trkpt>
      <trkpt lat="48.63935" lon="-3.84234">
        <ele>159</ele>
        <time>2021-07-08T07:40:42Z</time>
      </trkpt>
      <trkpt lat="48.63931" lon="-3.8423">
        <ele>158</ele>
        <time>2021-07-08T07:40:43Z</time>
      </trkpt>
      <trkpt lat="48.63927" lon="-3.84227">
        <ele>158</ele>
        <time>2021-07-08T07:40:44Z</time>
      </trkpt>
      <trkpt lat="48.63924" lon="-3.84222">
        <ele>158</ele>
        <time>2021-07-08T07:40:46Z</time>
      </trkpt>
      <trkpt lat="48.6392" lon="-3.84218">
        <ele>158</ele>
        <time>2021-07-08T07:40:47Z</time>
      </trkpt>
      <trkpt lat="48.63917" lon="-3.84212">
        <ele>158</ele>
        <time>2021-07-08T07:40:47Z</time>
      </trkpt>
      <trkpt lat="48.63914" lon="-3.84207">
        <ele>158</ele>
        <time>2021-07-08T07:40:48Z</time>
      </trkpt>
      <trkpt lat="48.63911" lon="-3.842">
        <ele>158</ele>
        <time>2021-07-08T07:40:49Z</time>
      </trkpt>
      <trkpt lat="48.63909" lon="-3.84194">
        <ele>158</ele>
        <time>2021-07-08T07:40:50Z</time>
      </trkpt>
      <trkpt lat="48.63906" lon="-3.84187">
        <ele>157</ele>
        <time>2021-07-08T07:40:52Z</time>
      </trkpt>
      <trkpt lat="48.63903" lon="-3.8418">
        <ele>157</ele>
        <time>2021-07-08T07:40:53Z</time>
      </trkpt>
      <trkpt lat="48.63901" lon="-3.84172">
        <ele>157</ele>
        <time>2021-07-08T07:40:53Z</time>
      </trkpt>
      <trkpt lat="48.63898" lon="-3.84165">
        <ele>157</ele>
        <time>2021-07-08T07:40:54Z</time>
      </trkpt>
      <trkpt lat="48.63896" lon="-3.84157">
        <ele>157</ele>
        <time>2021-07-08T07:40:55Z</time>
      </trkpt>
      <trkpt lat="48.63893" lon="-3.84149">
        <ele>157</ele>
        <time>2021-07-08T07:40:56Z</time>
      </trkpt>
      <trkpt lat="48.63891" lon="-3.84141">
        <ele>157</ele>
        <time>2021-07-08T07:40:57Z</time>
      </trkpt>
      <trkpt lat="48.63888" lon="-3.84132">
        <ele>157</ele>
        <time>2021-07-08T07:40:58Z</time>
      </trkpt>
      <trkpt lat="48.63885" lon="-3.84124">
        <ele>157</ele>
        <time>2021-07-08T07:40:59Z</time>
      </trkpt>
      <trkpt lat="48.63882" lon="-3.84115">
        <ele>156</ele>
        <time>2021-07-08T07:41:00Z</time>
      </trkpt>
      <trkpt lat="48.63879" lon="-3.84107">
        <ele>156</ele>
        <time>2021-07-08T07:41:01Z</time>
      </trkpt>
      <trkpt lat="48.63876" lon="-3.841">
        <ele>155</ele>
        <time>2021-07-08T07:41:02Z</time>
      </trkpt>
      <trkpt lat="48.63873" lon="-3.84093">
        <ele>155</ele>
        <time>2021-07-08T07:41:03Z</time>
      </trkpt>
      <trkpt lat="48.63871" lon="-3.84087">
        <ele>155</ele>
        <time>2021-07-08T07:41:05Z</time>
      </trkpt>
      <trkpt lat="48.63868" lon="-3.84081">
        <ele>155</ele>
        <time>2021-07-08T07:41:05Z</time>
      </trkpt>
      <trkpt lat="48.63866" lon="-3.84075">
        <ele>154</ele>
        <time>2021-07-08T07:41:06Z</time>
      </trkpt>
      <trkpt lat="48.63864" lon="-3.84069">
        <ele>154</ele>
        <time>2021-07-08T07:41:07Z</time>
      </trkpt>
      <trkpt lat="48.63863" lon="-3.84065">
        <ele>153</ele>
        <time>2021-07-08T07:41:08Z</time>
      </trkpt>
      <trkpt lat="48.63862" lon="-3.84061">
        <ele>153</ele>
        <time>2021-07-08T07:41:09Z</time>
      </trkpt>
      <trkpt lat="48.6386" lon="-3.84059">
        <ele>152</ele>
        <time>2021-07-08T07:41:11Z</time>
      </trkpt>
      <trkpt lat="48.63858" lon="-3.84058">
        <ele>152</ele>
        <time>2021-07-08T07:41:12Z</time>
      </trkpt>
      <trkpt lat="48.63855" lon="-3.84058">
        <ele>152</ele>
        <time>2021-07-08T07:41:12Z</time>
      </trkpt>
      <trkpt lat="48.63853" lon="-3.84058">
        <ele>153</ele>
        <time>2021-07-08T07:41:13Z</time>
      </trkpt>
      <trkpt lat="48.63851" lon="-3.8406">
        <ele>153</ele>
        <time>2021-07-08T07:41:14Z</time>
      </trkpt>
      <trkpt lat="48.63849" lon="-3.84062">
        <ele>153</ele>
        <time>2021-07-08T07:41:15Z</time>
      </trkpt>
      <trkpt lat="48.63846" lon="-3.84063">
        <ele>153</ele>
        <time>2021-07-08T07:41:17Z</time>
      </trkpt>
      <trkpt lat="48.63844" lon="-3.84065">
        <ele>153</ele>
        <time>2021-07-08T07:41:18Z</time>
      </trkpt>
      <trkpt lat="48.63842" lon="-3.84066">
        <ele>153</ele>
        <time>2021-07-08T07:41:18Z</time>
      </trkpt>
      <trkpt lat="48.6384" lon="-3.84067">
        <ele>153</ele>
        <time>2021-07-08T07:41:19Z</time>
      </trkpt>
      <trkpt lat="48.63838" lon="-3.84068">
        <ele>153</ele>
        <time>2021-07-08T07:41:20Z</time>
      </trkpt>
      <trkpt lat="48.63836" lon="-3.84068">
        <ele>153</ele>
        <time>2021-07-08T07:41:21Z</time>
      </trkpt>
      <trkpt lat="48.63834" lon="-3.84068">
        <ele>153</ele>
        <time>2021-07-08T07:41:22Z</time>
      </trkpt>
      <trkpt lat="48.63832" lon="-3.84069">
        <ele>153</ele>
        <time>2021-07-08T07:41:24Z</time>
      </trkpt>
      <trkpt lat="48.63829" lon="-3.8407">
        <ele>153</ele>
        <time>2021-07-08T07:41:24Z</time>
      </trkpt>
      <trkpt lat="48.63827" lon="-3.8407">
        <ele>152</ele>
        <time>2021-07-08T07:41:25Z</time>
      </trkpt>
      <trkpt lat="48.63825" lon="-3.84071">
        <ele>152</ele>
        <time>2021-07-08T07:41:26Z</time>
      </trkpt>
      <trkpt lat="48.63823" lon="-3.84072">
        <ele>152</ele>
        <time>2021-07-08T07:41:27Z</time>
      </trkpt>
      <trkpt lat="48.6382" lon="-3.84073">
        <ele>152</ele>
        <time>2021-07-08T07:41:28Z</time>
      </trkpt>
      <trkpt lat="48.63817" lon="-3.84074">
        <ele>152</ele>
        <time>2021-07-08T07:41:29Z</time>
      </trkpt>
      <trkpt lat="48.63814" lon="-3.84075">
        <ele>152</ele>
        <time>2021-07-08T07:41:30Z</time>
      </trkpt>
      <trkpt lat="48.6381" lon="-3.84077">
        <ele>152</ele>
        <time>2021-07-08T07:41:31Z</time>
      </trkpt>
      <trkpt lat="48.63806" lon="-3.84079">
        <ele>152</ele>
        <time>2021-07-08T07:41:32Z</time>
      </trkpt>
      <trkpt lat="48.63803" lon="-3.8408">
        <ele>152</ele>
        <time>2021-07-08T07:41:33Z</time>
      </trkpt>
      <trkpt lat="48.63799" lon="-3.84081">
        <ele>152</ele>
        <time>2021-07-08T07:41:35Z</time>
      </trkpt>
      <trkpt lat="48.63796" lon="-3.84083">
        <ele>152</ele>
        <time>2021-07-08T07:41:36Z</time>
      </trkpt>
      <trkpt lat="48.63793" lon="-3.84085">
        <ele>152</ele>
        <time>2021-07-08T07:41:36Z</time>
      </trkpt>
      <trkpt lat="48.6379" lon="-3.84087">
        <ele>151</ele>
        <time>2021-07-08T07:41:37Z</time>
      </trkpt>
      <trkpt lat="48.63786" lon="-3.84089">
        <ele>151</ele>
        <time>2021-07-08T07:41:38Z</time>
      </trkpt>
      <trkpt lat="48.63784" lon="-3.84092">
        <ele>151</ele>
        <time>2021-07-08T07:41:39Z</time>
      </trkpt>
      <trkpt lat="48.63781" lon="-3.84095">
        <ele>151</ele>
        <time>2021-07-08T07:41:40Z</time>
      </trkpt>
      <trkpt lat="48.63776" lon="-3.84103">
        <ele>150</ele>
        <time>2021-07-08T07:41:43Z</time>
      </trkpt>
      <trkpt lat="48.63774" lon="-3.84106">
        <ele>150</ele>
        <time>2021-07-08T07:41:43Z</time>
      </trkpt>
      <trkpt lat="48.63771" lon="-3.8411">
        <ele>149</ele>
        <time>2021-07-08T07:41:44Z</time>
      </trkpt>
      <trkpt lat="48.63767" lon="-3.84113">
        <ele>149</ele>
        <time>2021-07-08T07:41:45Z</time>
      </trkpt>
      <trkpt lat="48.63764" lon="-3.84117">
        <ele>148</ele>
        <time>2021-07-08T07:41:46Z</time>
      </trkpt>
      <trkpt lat="48.63761" lon="-3.84121">
        <ele>148</ele>
        <time>2021-07-08T07:41:48Z</time>
      </trkpt>
      <trkpt lat="48.63758" lon="-3.84124">
        <ele>147</ele>
        <time>2021-07-08T07:41:49Z</time>
      </trkpt>
      <trkpt lat="48.63754" lon="-3.84129">
        <ele>147</ele>
        <time>2021-07-08T07:41:49Z</time>
      </trkpt>
      <trkpt lat="48.6375" lon="-3.84133">
        <ele>147</ele>
        <time>2021-07-08T07:41:50Z</time>
      </trkpt>
      <trkpt lat="48.63746" lon="-3.84136">
        <ele>146</ele>
        <time>2021-07-08T07:41:51Z</time>
      </trkpt>
      <trkpt lat="48.63743" lon="-3.8414">
        <ele>146</ele>
        <time>2021-07-08T07:41:52Z</time>
      </trkpt>
      <trkpt lat="48.63739" lon="-3.84145">
        <ele>145</ele>
        <time>2021-07-08T07:41:53Z</time>
      </trkpt>
      <trkpt lat="48.63736" lon="-3.84149">
        <ele>145</ele>
        <time>2021-07-08T07:41:54Z</time>
      </trkpt>
      <trkpt lat="48.63734" lon="-3.84154">
        <ele>145</ele>
        <time>2021-07-08T07:41:56Z</time>
      </trkpt>
      <trkpt lat="48.63731" lon="-3.8416">
        <ele>144</ele>
        <time>2021-07-08T07:41:56Z</time>
      </trkpt>
      <trkpt lat="48.63728" lon="-3.84166">
        <ele>144</ele>
        <time>2021-07-08T07:41:57Z</time>
      </trkpt>
      <trkpt lat="48.63725" lon="-3.84172">
        <ele>144</ele>
        <time>2021-07-08T07:41:58Z</time>
      </trkpt>
      <trkpt lat="48.63722" lon="-3.84177">
        <ele>144</ele>
        <time>2021-07-08T07:41:59Z</time>
      </trkpt>
      <trkpt lat="48.6372" lon="-3.84182">
        <ele>144</ele>
        <time>2021-07-08T07:42:01Z</time>
      </trkpt>
      <trkpt lat="48.63717" lon="-3.84187">
        <ele>144</ele>
        <time>2021-07-08T07:42:01Z</time>
      </trkpt>
      <trkpt lat="48.63714" lon="-3.84191">
        <ele>144</ele>
        <time>2021-07-08T07:42:02Z</time>
      </trkpt>
      <trkpt lat="48.63711" lon="-3.84196">
        <ele>144</ele>
        <time>2021-07-08T07:42:03Z</time>
      </trkpt>
      <trkpt lat="48.63708" lon="-3.842">
        <ele>144</ele>
        <time>2021-07-08T07:42:04Z</time>
      </trkpt>
      <trkpt lat="48.63706" lon="-3.84204">
        <ele>144</ele>
        <time>2021-07-08T07:42:05Z</time>
      </trkpt>
      <trkpt lat="48.63701" lon="-3.84218">
        <ele>144</ele>
        <time>2021-07-08T07:42:08Z</time>
      </trkpt>
      <trkpt lat="48.63698" lon="-3.84233">
        <ele>143</ele>
        <time>2021-07-08T07:42:11Z</time>
      </trkpt>
      <trkpt lat="48.63697" lon="-3.84249">
        <ele>143</ele>
        <time>2021-07-08T07:42:14Z</time>
      </trkpt>
      <trkpt lat="48.63696" lon="-3.84254">
        <ele>143</ele>
        <time>2021-07-08T07:42:15Z</time>
      </trkpt>
      <trkpt lat="48.63697" lon="-3.84259">
        <ele>143</ele>
        <time>2021-07-08T07:42:16Z</time>
      </trkpt>
      <trkpt lat="48.63698" lon="-3.84269">
        <ele>142</ele>
        <time>2021-07-08T07:42:18Z</time>
      </trkpt>
      <trkpt lat="48.63699" lon="-3.84274">
        <ele>140</ele>
        <time>2021-07-08T07:42:19Z</time>
      </trkpt>
      <trkpt lat="48.63701" lon="-3.84284">
        <ele>140</ele>
        <time>2021-07-08T07:42:21Z</time>
      </trkpt>
      <trkpt lat="48.63703" lon="-3.84293">
        <ele>139</ele>
        <time>2021-07-08T07:42:23Z</time>
      </trkpt>
      <trkpt lat="48.63706" lon="-3.84306">
        <ele>138</ele>
        <time>2021-07-08T07:42:27Z</time>
      </trkpt>
      <trkpt lat="48.63707" lon="-3.84323">
        <ele>138</ele>
        <time>2021-07-08T07:42:29Z</time>
      </trkpt>
      <trkpt lat="48.63706" lon="-3.84342">
        <ele>137</ele>
        <time>2021-07-08T07:42:33Z</time>
      </trkpt>
      <trkpt lat="48.63704" lon="-3.84361">
        <ele>136</ele>
        <time>2021-07-08T07:42:35Z</time>
      </trkpt>
      <trkpt lat="48.63703" lon="-3.8438">
        <ele>136</ele>
        <time>2021-07-08T07:42:39Z</time>
      </trkpt>
      <trkpt lat="48.63702" lon="-3.84394">
        <ele>135</ele>
        <time>2021-07-08T07:42:41Z</time>
      </trkpt>
      <trkpt lat="48.637" lon="-3.84408">
        <ele>134</ele>
        <time>2021-07-08T07:42:42Z</time>
      </trkpt>
      <trkpt lat="48.637" lon="-3.84427">
        <ele>133</ele>
        <time>2021-07-08T07:42:45Z</time>
      </trkpt>
      <trkpt lat="48.63702" lon="-3.84442">
        <ele>132</ele>
        <time>2021-07-08T07:42:48Z</time>
      </trkpt>
      <trkpt lat="48.63703" lon="-3.84458">
        <ele>132</ele>
        <time>2021-07-08T07:42:52Z</time>
      </trkpt>
      <trkpt lat="48.63705" lon="-3.84472">
        <ele>131</ele>
        <time>2021-07-08T07:42:54Z</time>
      </trkpt>
      <trkpt lat="48.63708" lon="-3.84486">
        <ele>130</ele>
        <time>2021-07-08T07:42:58Z</time>
      </trkpt>
      <trkpt lat="48.63709" lon="-3.84502">
        <ele>129</ele>
        <time>2021-07-08T07:43:00Z</time>
      </trkpt>
      <trkpt lat="48.63708" lon="-3.84516">
        <ele>128</ele>
        <time>2021-07-08T07:43:02Z</time>
      </trkpt>
      <trkpt lat="48.63708" lon="-3.84537">
        <ele>127</ele>
        <time>2021-07-08T07:43:05Z</time>
      </trkpt>
      <trkpt lat="48.63705" lon="-3.84554">
        <ele>127</ele>
        <time>2021-07-08T07:43:08Z</time>
      </trkpt>
      <trkpt lat="48.63704" lon="-3.84568">
        <ele>127</ele>
        <time>2021-07-08T07:43:11Z</time>
      </trkpt>
      <trkpt lat="48.63703" lon="-3.84583">
        <ele>126</ele>
        <time>2021-07-08T07:43:14Z</time>
      </trkpt>
      <trkpt lat="48.63699" lon="-3.84597">
        <ele>126</ele>
        <time>2021-07-08T07:43:17Z</time>
      </trkpt>
      <trkpt lat="48.63696" lon="-3.84611">
        <ele>125</ele>
        <time>2021-07-08T07:43:20Z</time>
      </trkpt>
      <trkpt lat="48.63693" lon="-3.84625">
        <ele>125</ele>
        <time>2021-07-08T07:43:23Z</time>
      </trkpt>
      <trkpt lat="48.63691" lon="-3.8464">
        <ele>124</ele>
        <time>2021-07-08T07:43:27Z</time>
      </trkpt>
      <trkpt lat="48.63688" lon="-3.84653">
        <ele>122</ele>
        <time>2021-07-08T07:43:31Z</time>
      </trkpt>
      <trkpt lat="48.63688" lon="-3.84657">
        <ele>121</ele>
        <time>2021-07-08T07:43:33Z</time>
      </trkpt>
      <trkpt lat="48.63687" lon="-3.84661">
        <ele>121</ele>
        <time>2021-07-08T07:43:33Z</time>
      </trkpt>
      <trkpt lat="48.63687" lon="-3.84665">
        <ele>121</ele>
        <time>2021-07-08T07:43:34Z</time>
      </trkpt>
      <trkpt lat="48.63687" lon="-3.84672">
        <ele>121</ele>
        <time>2021-07-08T07:43:36Z</time>
      </trkpt>
      <trkpt lat="48.63687" lon="-3.84676">
        <ele>121</ele>
        <time>2021-07-08T07:43:37Z</time>
      </trkpt>
      <trkpt lat="48.63687" lon="-3.8468">
        <ele>121</ele>
        <time>2021-07-08T07:43:39Z</time>
      </trkpt>
      <trkpt lat="48.63686" lon="-3.84684">
        <ele>121</ele>
        <time>2021-07-08T07:43:39Z</time>
      </trkpt>
      <trkpt lat="48.63685" lon="-3.84689">
        <ele>121</ele>
        <time>2021-07-08T07:43:40Z</time>
      </trkpt>
      <trkpt lat="48.63685" lon="-3.84692">
        <ele>121</ele>
        <time>2021-07-08T07:43:41Z</time>
      </trkpt>
      <trkpt lat="48.63684" lon="-3.84696">
        <ele>120</ele>
        <time>2021-07-08T07:43:42Z</time>
      </trkpt>
      <trkpt lat="48.63683" lon="-3.847">
        <ele>120</ele>
        <time>2021-07-08T07:43:43Z</time>
      </trkpt>
      <trkpt lat="48.63678" lon="-3.84717">
        <ele>119</ele>
        <time>2021-07-08T07:43:47Z</time>
      </trkpt>
      <trkpt lat="48.63676" lon="-3.84727">
        <ele>119</ele>
        <time>2021-07-08T07:43:49Z</time>
      </trkpt>
      <trkpt lat="48.63676" lon="-3.84731">
        <ele>119</ele>
        <time>2021-07-08T07:43:50Z</time>
      </trkpt>
      <trkpt lat="48.63675" lon="-3.84734">
        <ele>119</ele>
        <time>2021-07-08T07:43:51Z</time>
      </trkpt>
      <trkpt lat="48.63675" lon="-3.84737">
        <ele>119</ele>
        <time>2021-07-08T07:43:52Z</time>
      </trkpt>
      <trkpt lat="48.63674" lon="-3.84742">
        <ele>118</ele>
        <time>2021-07-08T07:43:54Z</time>
      </trkpt>
      <trkpt lat="48.63674" lon="-3.8474">
        <ele>118</ele>
        <time>2021-07-08T07:44:04Z</time>
      </trkpt>
      <trkpt lat="48.63668" lon="-3.84763">
        <ele>116</ele>
        <time>2021-07-08T07:45:17Z</time>
      </trkpt>
      <trkpt lat="48.63667" lon="-3.84769">
        <ele>116</ele>
        <time>2021-07-08T07:45:18Z</time>
      </trkpt>
      <trkpt lat="48.63666" lon="-3.84776">
        <ele>116</ele>
        <time>2021-07-08T07:45:19Z</time>
      </trkpt>
      <trkpt lat="48.63665" lon="-3.84782">
        <ele>116</ele>
        <time>2021-07-08T07:45:21Z</time>
      </trkpt>
      <trkpt lat="48.63664" lon="-3.84789">
        <ele>116</ele>
        <time>2021-07-08T07:45:22Z</time>
      </trkpt>
      <trkpt lat="48.63663" lon="-3.84795">
        <ele>115</ele>
        <time>2021-07-08T07:45:23Z</time>
      </trkpt>
      <trkpt lat="48.63661" lon="-3.84809">
        <ele>115</ele>
        <time>2021-07-08T07:45:24Z</time>
      </trkpt>
      <trkpt lat="48.63658" lon="-3.84823">
        <ele>113</ele>
        <time>2021-07-08T07:45:26Z</time>
      </trkpt>
      <trkpt lat="48.63655" lon="-3.8484">
        <ele>113</ele>
        <time>2021-07-08T07:45:29Z</time>
      </trkpt>
      <trkpt lat="48.63649" lon="-3.84853">
        <ele>112</ele>
        <time>2021-07-08T07:45:31Z</time>
      </trkpt>
      <trkpt lat="48.63646" lon="-3.84859">
        <ele>112</ele>
        <time>2021-07-08T07:45:32Z</time>
      </trkpt>
      <trkpt lat="48.63644" lon="-3.84863">
        <ele>112</ele>
        <time>2021-07-08T07:45:33Z</time>
      </trkpt>
      <trkpt lat="48.63642" lon="-3.84866">
        <ele>112</ele>
        <time>2021-07-08T07:45:35Z</time>
      </trkpt>
      <trkpt lat="48.6364" lon="-3.84869">
        <ele>112</ele>
        <time>2021-07-08T07:45:36Z</time>
      </trkpt>
      <trkpt lat="48.63638" lon="-3.84871">
        <ele>112</ele>
        <time>2021-07-08T07:45:36Z</time>
      </trkpt>
      <trkpt lat="48.63636" lon="-3.84873">
        <ele>112</ele>
        <time>2021-07-08T07:45:37Z</time>
      </trkpt>
      <trkpt lat="48.63633" lon="-3.84874">
        <ele>112</ele>
        <time>2021-07-08T07:45:38Z</time>
      </trkpt>
      <trkpt lat="48.63629" lon="-3.84875">
        <ele>112</ele>
        <time>2021-07-08T07:45:39Z</time>
      </trkpt>
      <trkpt lat="48.63625" lon="-3.84876">
        <ele>112</ele>
        <time>2021-07-08T07:45:40Z</time>
      </trkpt>
      <trkpt lat="48.63621" lon="-3.84878">
        <ele>112</ele>
        <time>2021-07-08T07:45:42Z</time>
      </trkpt>
      <trkpt lat="48.63617" lon="-3.84879">
        <ele>112</ele>
        <time>2021-07-08T07:45:43Z</time>
      </trkpt>
      <trkpt lat="48.63612" lon="-3.84881">
        <ele>112</ele>
        <time>2021-07-08T07:45:43Z</time>
      </trkpt>
      <trkpt lat="48.63608" lon="-3.84883">
        <ele>112</ele>
        <time>2021-07-08T07:45:45Z</time>
      </trkpt>
      <trkpt lat="48.63604" lon="-3.84885">
        <ele>111</ele>
        <time>2021-07-08T07:45:45Z</time>
      </trkpt>
      <trkpt lat="48.63601" lon="-3.84886">
        <ele>111</ele>
        <time>2021-07-08T07:45:46Z</time>
      </trkpt>
      <trkpt lat="48.63597" lon="-3.84888">
        <ele>111</ele>
        <time>2021-07-08T07:45:47Z</time>
      </trkpt>
      <trkpt lat="48.63593" lon="-3.84889">
        <ele>111</ele>
        <time>2021-07-08T07:45:48Z</time>
      </trkpt>
      <trkpt lat="48.63589" lon="-3.8489">
        <ele>111</ele>
        <time>2021-07-08T07:45:49Z</time>
      </trkpt>
      <trkpt lat="48.63586" lon="-3.8489">
        <ele>111</ele>
        <time>2021-07-08T07:45:50Z</time>
      </trkpt>
      <trkpt lat="48.63582" lon="-3.84891">
        <ele>111</ele>
        <time>2021-07-08T07:45:51Z</time>
      </trkpt>
      <trkpt lat="48.63579" lon="-3.84892">
        <ele>111</ele>
        <time>2021-07-08T07:45:52Z</time>
      </trkpt>
      <trkpt lat="48.63575" lon="-3.84892">
        <ele>111</ele>
        <time>2021-07-08T07:45:54Z</time>
      </trkpt>
      <trkpt lat="48.63572" lon="-3.84893">
        <ele>111</ele>
        <time>2021-07-08T07:45:55Z</time>
      </trkpt>
      <trkpt lat="48.63568" lon="-3.84893">
        <ele>107</ele>
        <time>2021-07-08T07:45:55Z</time>
      </trkpt>
      <trkpt lat="48.63565" lon="-3.84893">
        <ele>107</ele>
        <time>2021-07-08T07:45:56Z</time>
      </trkpt>
      <trkpt lat="48.63561" lon="-3.84893">
        <ele>107</ele>
        <time>2021-07-08T07:45:57Z</time>
      </trkpt>
      <trkpt lat="48.63558" lon="-3.84893">
        <ele>107</ele>
        <time>2021-07-08T07:45:58Z</time>
      </trkpt>
      <trkpt lat="48.63554" lon="-3.84893">
        <ele>107</ele>
        <time>2021-07-08T07:45:59Z</time>
      </trkpt>
      <trkpt lat="48.6355" lon="-3.84893">
        <ele>107</ele>
        <time>2021-07-08T07:46:01Z</time>
      </trkpt>
      <trkpt lat="48.63547" lon="-3.84892">
        <ele>107</ele>
        <time>2021-07-08T07:46:01Z</time>
      </trkpt>
      <trkpt lat="48.63543" lon="-3.84892">
        <ele>107</ele>
        <time>2021-07-08T07:46:02Z</time>
      </trkpt>
      <trkpt lat="48.63539" lon="-3.84891">
        <ele>107</ele>
        <time>2021-07-08T07:46:03Z</time>
      </trkpt>
      <trkpt lat="48.63536" lon="-3.84891">
        <ele>107</ele>
        <time>2021-07-08T07:46:04Z</time>
      </trkpt>
      <trkpt lat="48.63532" lon="-3.8489">
        <ele>107</ele>
        <time>2021-07-08T07:46:05Z</time>
      </trkpt>
      <trkpt lat="48.63528" lon="-3.84889">
        <ele>107</ele>
        <time>2021-07-08T07:46:07Z</time>
      </trkpt>
      <trkpt lat="48.63525" lon="-3.84889">
        <ele>107</ele>
        <time>2021-07-08T07:46:07Z</time>
      </trkpt>
      <trkpt lat="48.63521" lon="-3.84888">
        <ele>107</ele>
        <time>2021-07-08T07:46:08Z</time>
      </trkpt>
      <trkpt lat="48.63517" lon="-3.84887">
        <ele>107</ele>
        <time>2021-07-08T07:46:09Z</time>
      </trkpt>
      <trkpt lat="48.63513" lon="-3.84886">
        <ele>107</ele>
        <time>2021-07-08T07:46:10Z</time>
      </trkpt>
      <trkpt lat="48.6351" lon="-3.84886">
        <ele>107</ele>
        <time>2021-07-08T07:46:11Z</time>
      </trkpt>
      <trkpt lat="48.63506" lon="-3.84885">
        <ele>107</ele>
        <time>2021-07-08T07:46:13Z</time>
      </trkpt>
      <trkpt lat="48.63502" lon="-3.84884">
        <ele>107</ele>
        <time>2021-07-08T07:46:13Z</time>
      </trkpt>
      <trkpt lat="48.63499" lon="-3.84883">
        <ele>107</ele>
        <time>2021-07-08T07:46:14Z</time>
      </trkpt>
      <trkpt lat="48.63495" lon="-3.84882">
        <ele>107</ele>
        <time>2021-07-08T07:46:15Z</time>
      </trkpt>
      <trkpt lat="48.63492" lon="-3.84881">
        <ele>107</ele>
        <time>2021-07-08T07:46:16Z</time>
      </trkpt>
      <trkpt lat="48.63488" lon="-3.84881">
        <ele>107</ele>
        <time>2021-07-08T07:46:17Z</time>
      </trkpt>
      <trkpt lat="48.63485" lon="-3.84879">
        <ele>107</ele>
        <time>2021-07-08T07:46:19Z</time>
      </trkpt>
      <trkpt lat="48.63482" lon="-3.84878">
        <ele>111</ele>
        <time>2021-07-08T07:46:19Z</time>
      </trkpt>
      <trkpt lat="48.63479" lon="-3.84876">
        <ele>111</ele>
        <time>2021-07-08T07:46:20Z</time>
      </trkpt>
      <trkpt lat="48.63476" lon="-3.84875">
        <ele>111</ele>
        <time>2021-07-08T07:46:21Z</time>
      </trkpt>
      <trkpt lat="48.63472" lon="-3.84874">
        <ele>111</ele>
        <time>2021-07-08T07:46:22Z</time>
      </trkpt>
      <trkpt lat="48.63469" lon="-3.84873">
        <ele>111</ele>
        <time>2021-07-08T07:46:24Z</time>
      </trkpt>
      <trkpt lat="48.63466" lon="-3.84873">
        <ele>111</ele>
        <time>2021-07-08T07:46:25Z</time>
      </trkpt>
      <trkpt lat="48.63463" lon="-3.84871">
        <ele>111</ele>
        <time>2021-07-08T07:46:25Z</time>
      </trkpt>
      <trkpt lat="48.6346" lon="-3.84869">
        <ele>111</ele>
        <time>2021-07-08T07:46:26Z</time>
      </trkpt>
      <trkpt lat="48.63458" lon="-3.84866">
        <ele>111</ele>
        <time>2021-07-08T07:46:27Z</time>
      </trkpt>
      <trkpt lat="48.63456" lon="-3.84864">
        <ele>111</ele>
        <time>2021-07-08T07:46:28Z</time>
      </trkpt>
      <trkpt lat="48.63454" lon="-3.84861">
        <ele>111</ele>
        <time>2021-07-08T07:46:30Z</time>
      </trkpt>
      <trkpt lat="48.63452" lon="-3.8486">
        <ele>111</ele>
        <time>2021-07-08T07:46:31Z</time>
      </trkpt>
      <trkpt lat="48.6345" lon="-3.84859">
        <ele>111</ele>
        <time>2021-07-08T07:46:31Z</time>
      </trkpt>
      <trkpt lat="48.63448" lon="-3.84857">
        <ele>107</ele>
        <time>2021-07-08T07:46:32Z</time>
      </trkpt>
      <trkpt lat="48.63445" lon="-3.84856">
        <ele>107</ele>
        <time>2021-07-08T07:46:33Z</time>
      </trkpt>
      <trkpt lat="48.63443" lon="-3.84855">
        <ele>107</ele>
        <time>2021-07-08T07:46:34Z</time>
      </trkpt>
      <trkpt lat="48.63441" lon="-3.84855">
        <ele>107</ele>
        <time>2021-07-08T07:46:35Z</time>
      </trkpt>
      <trkpt lat="48.63438" lon="-3.84854">
        <ele>107</ele>
        <time>2021-07-08T07:46:36Z</time>
      </trkpt>
      <trkpt lat="48.63436" lon="-3.84853">
        <ele>111</ele>
        <time>2021-07-08T07:46:37Z</time>
      </trkpt>
      <trkpt lat="48.63433" lon="-3.84852">
        <ele>111</ele>
        <time>2021-07-08T07:46:38Z</time>
      </trkpt>
      <trkpt lat="48.63431" lon="-3.84851">
        <ele>111</ele>
        <time>2021-07-08T07:46:39Z</time>
      </trkpt>
      <trkpt lat="48.63428" lon="-3.8485">
        <ele>111</ele>
        <time>2021-07-08T07:46:40Z</time>
      </trkpt>
      <trkpt lat="48.63426" lon="-3.84849">
        <ele>111</ele>
        <time>2021-07-08T07:46:41Z</time>
      </trkpt>
      <trkpt lat="48.63425" lon="-3.84849">
        <ele>107</ele>
        <time>2021-07-08T07:46:51Z</time>
      </trkpt>
      <trkpt lat="48.63419" lon="-3.84843">
        <ele>107</ele>
        <time>2021-07-08T07:47:15Z</time>
      </trkpt>
      <trkpt lat="48.63417" lon="-3.84841">
        <ele>107</ele>
        <time>2021-07-08T07:47:16Z</time>
      </trkpt>
      <trkpt lat="48.63414" lon="-3.8484">
        <ele>107</ele>
        <time>2021-07-08T07:47:16Z</time>
      </trkpt>
      <trkpt lat="48.63411" lon="-3.84839">
        <ele>107</ele>
        <time>2021-07-08T07:47:17Z</time>
      </trkpt>
      <trkpt lat="48.63407" lon="-3.84838">
        <ele>107</ele>
        <time>2021-07-08T07:47:18Z</time>
      </trkpt>
      <trkpt lat="48.63404" lon="-3.84837">
        <ele>107</ele>
        <time>2021-07-08T07:47:19Z</time>
      </trkpt>
      <trkpt lat="48.63401" lon="-3.84836">
        <ele>107</ele>
        <time>2021-07-08T07:47:20Z</time>
      </trkpt>
      <trkpt lat="48.63398" lon="-3.84835">
        <ele>107</ele>
        <time>2021-07-08T07:47:21Z</time>
      </trkpt>
      <trkpt lat="48.63394" lon="-3.84834">
        <ele>107</ele>
        <time>2021-07-08T07:47:22Z</time>
      </trkpt>
      <trkpt lat="48.63391" lon="-3.84833">
        <ele>107</ele>
        <time>2021-07-08T07:47:23Z</time>
      </trkpt>
      <trkpt lat="48.63388" lon="-3.84832">
        <ele>107</ele>
        <time>2021-07-08T07:47:24Z</time>
      </trkpt>
      <trkpt lat="48.63384" lon="-3.84831">
        <ele>107</ele>
        <time>2021-07-08T07:47:25Z</time>
      </trkpt>
      <trkpt lat="48.63381" lon="-3.8483">
        <ele>107</ele>
        <time>2021-07-08T07:47:26Z</time>
      </trkpt>
      <trkpt lat="48.63378" lon="-3.84828">
        <ele>107</ele>
        <time>2021-07-08T07:47:27Z</time>
      </trkpt>
      <trkpt lat="48.63375" lon="-3.84827">
        <ele>106</ele>
        <time>2021-07-08T07:47:28Z</time>
      </trkpt>
      <trkpt lat="48.63371" lon="-3.84826">
        <ele>106</ele>
        <time>2021-07-08T07:47:29Z</time>
      </trkpt>
      <trkpt lat="48.63368" lon="-3.84825">
        <ele>106</ele>
        <time>2021-07-08T07:47:30Z</time>
      </trkpt>
      <trkpt lat="48.63364" lon="-3.84824">
        <ele>106</ele>
        <time>2021-07-08T07:47:31Z</time>
      </trkpt>
      <trkpt lat="48.63361" lon="-3.84822">
        <ele>106</ele>
        <time>2021-07-08T07:47:32Z</time>
      </trkpt>
      <trkpt lat="48.63357" lon="-3.8482">
        <ele>106</ele>
        <time>2021-07-08T07:47:33Z</time>
      </trkpt>
      <trkpt lat="48.63354" lon="-3.84819">
        <ele>106</ele>
        <time>2021-07-08T07:47:34Z</time>
      </trkpt>
      <trkpt lat="48.6335" lon="-3.84817">
        <ele>106</ele>
        <time>2021-07-08T07:47:35Z</time>
      </trkpt>
      <trkpt lat="48.63347" lon="-3.84816">
        <ele>106</ele>
        <time>2021-07-08T07:47:36Z</time>
      </trkpt>
      <trkpt lat="48.63343" lon="-3.84815">
        <ele>106</ele>
        <time>2021-07-08T07:47:37Z</time>
      </trkpt>
      <trkpt lat="48.63339" lon="-3.84813">
        <ele>106</ele>
        <time>2021-07-08T07:47:39Z</time>
      </trkpt>
      <trkpt lat="48.63336" lon="-3.84812">
        <ele>106</ele>
        <time>2021-07-08T07:47:39Z</time>
      </trkpt>
      <trkpt lat="48.63332" lon="-3.84811">
        <ele>106</ele>
        <time>2021-07-08T07:47:40Z</time>
      </trkpt>
      <trkpt lat="48.63328" lon="-3.8481">
        <ele>106</ele>
        <time>2021-07-08T07:47:41Z</time>
      </trkpt>
      <trkpt lat="48.63325" lon="-3.84808">
        <ele>106</ele>
        <time>2021-07-08T07:47:42Z</time>
      </trkpt>
      <trkpt lat="48.63321" lon="-3.84807">
        <ele>106</ele>
        <time>2021-07-08T07:47:43Z</time>
      </trkpt>
      <trkpt lat="48.63317" lon="-3.84806">
        <ele>106</ele>
        <time>2021-07-08T07:47:44Z</time>
      </trkpt>
      <trkpt lat="48.63314" lon="-3.84805">
        <ele>106</ele>
        <time>2021-07-08T07:47:46Z</time>
      </trkpt>
      <trkpt lat="48.6331" lon="-3.84804">
        <ele>106</ele>
        <time>2021-07-08T07:47:46Z</time>
      </trkpt>
      <trkpt lat="48.63307" lon="-3.84803">
        <ele>106</ele>
        <time>2021-07-08T07:47:48Z</time>
      </trkpt>
      <trkpt lat="48.63303" lon="-3.84802">
        <ele>107</ele>
        <time>2021-07-08T07:47:48Z</time>
      </trkpt>
      <trkpt lat="48.63299" lon="-3.84801">
        <ele>107</ele>
        <time>2021-07-08T07:47:50Z</time>
      </trkpt>
      <trkpt lat="48.63296" lon="-3.848">
        <ele>107</ele>
        <time>2021-07-08T07:47:50Z</time>
      </trkpt>
      <trkpt lat="48.63292" lon="-3.84799">
        <ele>107</ele>
        <time>2021-07-08T07:47:51Z</time>
      </trkpt>
      <trkpt lat="48.63288" lon="-3.84797">
        <ele>107</ele>
        <time>2021-07-08T07:47:52Z</time>
      </trkpt>
      <trkpt lat="48.63284" lon="-3.84796">
        <ele>107</ele>
        <time>2021-07-08T07:47:53Z</time>
      </trkpt>
      <trkpt lat="48.63281" lon="-3.84795">
        <ele>107</ele>
        <time>2021-07-08T07:47:54Z</time>
      </trkpt>
      <trkpt lat="48.63277" lon="-3.84793">
        <ele>107</ele>
        <time>2021-07-08T07:47:55Z</time>
      </trkpt>
      <trkpt lat="48.63273" lon="-3.84792">
        <ele>107</ele>
        <time>2021-07-08T07:47:57Z</time>
      </trkpt>
      <trkpt lat="48.63269" lon="-3.84791">
        <ele>107</ele>
        <time>2021-07-08T07:47:57Z</time>
      </trkpt>
      <trkpt lat="48.63265" lon="-3.8479">
        <ele>107</ele>
        <time>2021-07-08T07:47:58Z</time>
      </trkpt>
      <trkpt lat="48.63262" lon="-3.84789">
        <ele>107</ele>
        <time>2021-07-08T07:47:59Z</time>
      </trkpt>
      <trkpt lat="48.63258" lon="-3.84788">
        <ele>107</ele>
        <time>2021-07-08T07:48:00Z</time>
      </trkpt>
      <trkpt lat="48.63254" lon="-3.84787">
        <ele>107</ele>
        <time>2021-07-08T07:48:02Z</time>
      </trkpt>
      <trkpt lat="48.6325" lon="-3.84786">
        <ele>107</ele>
        <time>2021-07-08T07:48:03Z</time>
      </trkpt>
      <trkpt lat="48.63246" lon="-3.84784">
        <ele>107</ele>
        <time>2021-07-08T07:48:03Z</time>
      </trkpt>
      <trkpt lat="48.63242" lon="-3.84783">
        <ele>107</ele>
        <time>2021-07-08T07:48:04Z</time>
      </trkpt>
      <trkpt lat="48.63238" lon="-3.84782">
        <ele>107</ele>
        <time>2021-07-08T07:48:05Z</time>
      </trkpt>
      <trkpt lat="48.63234" lon="-3.8478">
        <ele>107</ele>
        <time>2021-07-08T07:48:06Z</time>
      </trkpt>
      <trkpt lat="48.6323" lon="-3.84779">
        <ele>107</ele>
        <time>2021-07-08T07:48:07Z</time>
      </trkpt>
      <trkpt lat="48.63226" lon="-3.84778">
        <ele>107</ele>
        <time>2021-07-08T07:48:08Z</time>
      </trkpt>
      <trkpt lat="48.63222" lon="-3.84776">
        <ele>107</ele>
        <time>2021-07-08T07:48:09Z</time>
      </trkpt>
      <trkpt lat="48.63219" lon="-3.84774">
        <ele>107</ele>
        <time>2021-07-08T07:48:11Z</time>
      </trkpt>
      <trkpt lat="48.63215" lon="-3.84773">
        <ele>106</ele>
        <time>2021-07-08T07:48:11Z</time>
      </trkpt>
      <trkpt lat="48.63211" lon="-3.84771">
        <ele>106</ele>
        <time>2021-07-08T07:48:13Z</time>
      </trkpt>
      <trkpt lat="48.63207" lon="-3.84769">
        <ele>106</ele>
        <time>2021-07-08T07:48:13Z</time>
      </trkpt>
      <trkpt lat="48.63203" lon="-3.84768">
        <ele>106</ele>
        <time>2021-07-08T07:48:14Z</time>
      </trkpt>
      <trkpt lat="48.63198" lon="-3.84766">
        <ele>106</ele>
        <time>2021-07-08T07:48:15Z</time>
      </trkpt>
      <trkpt lat="48.63194" lon="-3.84765">
        <ele>107</ele>
        <time>2021-07-08T07:48:16Z</time>
      </trkpt>
      <trkpt lat="48.6319" lon="-3.84764">
        <ele>107</ele>
        <time>2021-07-08T07:48:17Z</time>
      </trkpt>
      <trkpt lat="48.63186" lon="-3.84762">
        <ele>107</ele>
        <time>2021-07-08T07:48:19Z</time>
      </trkpt>
      <trkpt lat="48.63182" lon="-3.84761">
        <ele>107</ele>
        <time>2021-07-08T07:48:19Z</time>
      </trkpt>
      <trkpt lat="48.63178" lon="-3.84761">
        <ele>107</ele>
        <time>2021-07-08T07:48:20Z</time>
      </trkpt>
      <trkpt lat="48.63173" lon="-3.8476">
        <ele>107</ele>
        <time>2021-07-08T07:48:21Z</time>
      </trkpt>
      <trkpt lat="48.63169" lon="-3.8476">
        <ele>107</ele>
        <time>2021-07-08T07:48:22Z</time>
      </trkpt>
      <trkpt lat="48.63165" lon="-3.8476">
        <ele>107</ele>
        <time>2021-07-08T07:48:23Z</time>
      </trkpt>
      <trkpt lat="48.63157" lon="-3.84759">
        <ele>107</ele>
        <time>2021-07-08T07:48:25Z</time>
      </trkpt>
      <trkpt lat="48.63152" lon="-3.84759">
        <ele>107</ele>
        <time>2021-07-08T07:48:26Z</time>
      </trkpt>
      <trkpt lat="48.63148" lon="-3.84759">
        <ele>107</ele>
        <time>2021-07-08T07:48:27Z</time>
      </trkpt>
      <trkpt lat="48.63144" lon="-3.8476">
        <ele>107</ele>
        <time>2021-07-08T07:48:28Z</time>
      </trkpt>
      <trkpt lat="48.6314" lon="-3.84761">
        <ele>107</ele>
        <time>2021-07-08T07:48:30Z</time>
      </trkpt>
      <trkpt lat="48.63136" lon="-3.84763">
        <ele>107</ele>
        <time>2021-07-08T07:48:31Z</time>
      </trkpt>
      <trkpt lat="48.63132" lon="-3.84765">
        <ele>107</ele>
        <time>2021-07-08T07:48:31Z</time>
      </trkpt>
      <trkpt lat="48.63128" lon="-3.84766">
        <ele>107</ele>
        <time>2021-07-08T07:48:32Z</time>
      </trkpt>
      <trkpt lat="48.63125" lon="-3.84768">
        <ele>107</ele>
        <time>2021-07-08T07:48:34Z</time>
      </trkpt>
      <trkpt lat="48.63121" lon="-3.8477">
        <ele>107</ele>
        <time>2021-07-08T07:48:34Z</time>
      </trkpt>
      <trkpt lat="48.63117" lon="-3.84771">
        <ele>107</ele>
        <time>2021-07-08T07:48:36Z</time>
      </trkpt>
      <trkpt lat="48.63114" lon="-3.84772">
        <ele>107</ele>
        <time>2021-07-08T07:48:36Z</time>
      </trkpt>
      <trkpt lat="48.6311" lon="-3.8477">
        <ele>107</ele>
        <time>2021-07-08T07:48:37Z</time>
      </trkpt>
      <trkpt lat="48.63107" lon="-3.84768">
        <ele>107</ele>
        <time>2021-07-08T07:48:39Z</time>
      </trkpt>
      <trkpt lat="48.63104" lon="-3.84765">
        <ele>107</ele>
        <time>2021-07-08T07:48:39Z</time>
      </trkpt>
      <trkpt lat="48.63102" lon="-3.84761">
        <ele>107</ele>
        <time>2021-07-08T07:48:40Z</time>
      </trkpt>
      <trkpt lat="48.63099" lon="-3.84757">
        <ele>107</ele>
        <time>2021-07-08T07:48:42Z</time>
      </trkpt>
      <trkpt lat="48.63097" lon="-3.84753">
        <ele>107</ele>
        <time>2021-07-08T07:48:43Z</time>
      </trkpt>
      <trkpt lat="48.63094" lon="-3.84749">
        <ele>107</ele>
        <time>2021-07-08T07:48:43Z</time>
      </trkpt>
      <trkpt lat="48.63092" lon="-3.84745">
        <ele>111</ele>
        <time>2021-07-08T07:48:44Z</time>
      </trkpt>
      <trkpt lat="48.6309" lon="-3.8474">
        <ele>111</ele>
        <time>2021-07-08T07:48:45Z</time>
      </trkpt>
      <trkpt lat="48.63088" lon="-3.84736">
        <ele>111</ele>
        <time>2021-07-08T07:48:47Z</time>
      </trkpt>
      <trkpt lat="48.63085" lon="-3.84732">
        <ele>111</ele>
        <time>2021-07-08T07:48:48Z</time>
      </trkpt>
      <trkpt lat="48.63083" lon="-3.84728">
        <ele>111</ele>
        <time>2021-07-08T07:48:49Z</time>
      </trkpt>
      <trkpt lat="48.63081" lon="-3.84723">
        <ele>111</ele>
        <time>2021-07-08T07:48:50Z</time>
      </trkpt>
      <trkpt lat="48.63078" lon="-3.84719">
        <ele>111</ele>
        <time>2021-07-08T07:48:51Z</time>
      </trkpt>
      <trkpt lat="48.63076" lon="-3.84715">
        <ele>111</ele>
        <time>2021-07-08T07:48:51Z</time>
      </trkpt>
      <trkpt lat="48.63074" lon="-3.84711">
        <ele>111</ele>
        <time>2021-07-08T07:48:52Z</time>
      </trkpt>
      <trkpt lat="48.63071" lon="-3.84707">
        <ele>111</ele>
        <time>2021-07-08T07:48:53Z</time>
      </trkpt>
      <trkpt lat="48.63068" lon="-3.84702">
        <ele>111</ele>
        <time>2021-07-08T07:48:55Z</time>
      </trkpt>
      <trkpt lat="48.63066" lon="-3.84698">
        <ele>111</ele>
        <time>2021-07-08T07:48:55Z</time>
      </trkpt>
      <trkpt lat="48.63063" lon="-3.84694">
        <ele>111</ele>
        <time>2021-07-08T07:48:56Z</time>
      </trkpt>
      <trkpt lat="48.6306" lon="-3.84689">
        <ele>111</ele>
        <time>2021-07-08T07:48:57Z</time>
      </trkpt>
      <trkpt lat="48.63058" lon="-3.84685">
        <ele>111</ele>
        <time>2021-07-08T07:48:58Z</time>
      </trkpt>
      <trkpt lat="48.63055" lon="-3.8468">
        <ele>111</ele>
        <time>2021-07-08T07:48:59Z</time>
      </trkpt>
      <trkpt lat="48.63052" lon="-3.84676">
        <ele>111</ele>
        <time>2021-07-08T07:49:00Z</time>
      </trkpt>
      <trkpt lat="48.63049" lon="-3.84672">
        <ele>111</ele>
        <time>2021-07-08T07:49:01Z</time>
      </trkpt>
      <trkpt lat="48.63046" lon="-3.84667">
        <ele>111</ele>
        <time>2021-07-08T07:49:03Z</time>
      </trkpt>
      <trkpt lat="48.63042" lon="-3.84663">
        <ele>111</ele>
        <time>2021-07-08T07:49:04Z</time>
      </trkpt>
      <trkpt lat="48.63039" lon="-3.84659">
        <ele>111</ele>
        <time>2021-07-08T07:49:04Z</time>
      </trkpt>
      <trkpt lat="48.63036" lon="-3.84654">
        <ele>111</ele>
        <time>2021-07-08T07:49:05Z</time>
      </trkpt>
      <trkpt lat="48.63032" lon="-3.84651">
        <ele>111</ele>
        <time>2021-07-08T07:49:07Z</time>
      </trkpt>
      <trkpt lat="48.63029" lon="-3.84647">
        <ele>111</ele>
        <time>2021-07-08T07:49:07Z</time>
      </trkpt>
      <trkpt lat="48.63025" lon="-3.84644">
        <ele>111</ele>
        <time>2021-07-08T07:49:08Z</time>
      </trkpt>
      <trkpt lat="48.63021" lon="-3.8464">
        <ele>111</ele>
        <time>2021-07-08T07:49:09Z</time>
      </trkpt>
      <trkpt lat="48.63018" lon="-3.84637">
        <ele>107</ele>
        <time>2021-07-08T07:49:10Z</time>
      </trkpt>
      <trkpt lat="48.63015" lon="-3.84633">
        <ele>107</ele>
        <time>2021-07-08T07:49:12Z</time>
      </trkpt>
      <trkpt lat="48.63012" lon="-3.8463">
        <ele>107</ele>
        <time>2021-07-08T07:49:12Z</time>
      </trkpt>
      <trkpt lat="48.63008" lon="-3.84627">
        <ele>107</ele>
        <time>2021-07-08T07:49:13Z</time>
      </trkpt>
      <trkpt lat="48.63005" lon="-3.84624">
        <ele>107</ele>
        <time>2021-07-08T07:49:15Z</time>
      </trkpt>
      <trkpt lat="48.63002" lon="-3.84621">
        <ele>107</ele>
        <time>2021-07-08T07:49:15Z</time>
      </trkpt>
      <trkpt lat="48.63" lon="-3.84618">
        <ele>107</ele>
        <time>2021-07-08T07:49:16Z</time>
      </trkpt>
      <trkpt lat="48.62997" lon="-3.84614">
        <ele>107</ele>
        <time>2021-07-08T07:49:17Z</time>
      </trkpt>
      <trkpt lat="48.62995" lon="-3.8461">
        <ele>107</ele>
        <time>2021-07-08T07:49:18Z</time>
      </trkpt>
      <trkpt lat="48.62993" lon="-3.84606">
        <ele>107</ele>
        <time>2021-07-08T07:49:20Z</time>
      </trkpt>
      <trkpt lat="48.62992" lon="-3.84602">
        <ele>111</ele>
        <time>2021-07-08T07:49:21Z</time>
      </trkpt>
      <trkpt lat="48.6299" lon="-3.84597">
        <ele>111</ele>
        <time>2021-07-08T07:49:21Z</time>
      </trkpt>
      <trkpt lat="48.62988" lon="-3.84593">
        <ele>111</ele>
        <time>2021-07-08T07:49:22Z</time>
      </trkpt>
      <trkpt lat="48.62986" lon="-3.84589">
        <ele>111</ele>
        <time>2021-07-08T07:49:23Z</time>
      </trkpt>
      <trkpt lat="48.62984" lon="-3.84585">
        <ele>111</ele>
        <time>2021-07-08T07:49:24Z</time>
      </trkpt>
      <trkpt lat="48.62981" lon="-3.84581">
        <ele>111</ele>
        <time>2021-07-08T07:49:25Z</time>
      </trkpt>
      <trkpt lat="48.62979" lon="-3.84577">
        <ele>111</ele>
        <time>2021-07-08T07:49:26Z</time>
      </trkpt>
      <trkpt lat="48.62977" lon="-3.84573">
        <ele>111</ele>
        <time>2021-07-08T07:49:27Z</time>
      </trkpt>
      <trkpt lat="48.62975" lon="-3.84569">
        <ele>111</ele>
        <time>2021-07-08T07:49:28Z</time>
      </trkpt>
      <trkpt lat="48.62972" lon="-3.84565">
        <ele>111</ele>
        <time>2021-07-08T07:49:29Z</time>
      </trkpt>
      <trkpt lat="48.6297" lon="-3.84562">
        <ele>111</ele>
        <time>2021-07-08T07:49:30Z</time>
      </trkpt>
      <trkpt lat="48.62967" lon="-3.84558">
        <ele>111</ele>
        <time>2021-07-08T07:49:32Z</time>
      </trkpt>
      <trkpt lat="48.62965" lon="-3.84554">
        <ele>107</ele>
        <time>2021-07-08T07:49:32Z</time>
      </trkpt>
      <trkpt lat="48.6296" lon="-3.84546">
        <ele>107</ele>
        <time>2021-07-08T07:49:34Z</time>
      </trkpt>
      <trkpt lat="48.62957" lon="-3.84542">
        <ele>107</ele>
        <time>2021-07-08T07:49:35Z</time>
      </trkpt>
      <trkpt lat="48.62954" lon="-3.84539">
        <ele>107</ele>
        <time>2021-07-08T07:49:36Z</time>
      </trkpt>
      <trkpt lat="48.62951" lon="-3.84535">
        <ele>107</ele>
        <time>2021-07-08T07:49:37Z</time>
      </trkpt>
      <trkpt lat="48.62948" lon="-3.84532">
        <ele>107</ele>
        <time>2021-07-08T07:49:38Z</time>
      </trkpt>
      <trkpt lat="48.62945" lon="-3.84528">
        <ele>107</ele>
        <time>2021-07-08T07:49:40Z</time>
      </trkpt>
      <trkpt lat="48.62942" lon="-3.84524">
        <ele>107</ele>
        <time>2021-07-08T07:49:41Z</time>
      </trkpt>
      <trkpt lat="48.62939" lon="-3.84521">
        <ele>107</ele>
        <time>2021-07-08T07:49:41Z</time>
      </trkpt>
      <trkpt lat="48.62936" lon="-3.84517">
        <ele>107</ele>
        <time>2021-07-08T07:49:42Z</time>
      </trkpt>
      <trkpt lat="48.62933" lon="-3.84513">
        <ele>107</ele>
        <time>2021-07-08T07:49:43Z</time>
      </trkpt>
      <trkpt lat="48.6293" lon="-3.84509">
        <ele>107</ele>
        <time>2021-07-08T07:49:44Z</time>
      </trkpt>
      <trkpt lat="48.62927" lon="-3.84506">
        <ele>107</ele>
        <time>2021-07-08T07:49:45Z</time>
      </trkpt>
      <trkpt lat="48.62924" lon="-3.84502">
        <ele>111</ele>
        <time>2021-07-08T07:49:46Z</time>
      </trkpt>
      <trkpt lat="48.62921" lon="-3.84498">
        <ele>111</ele>
        <time>2021-07-08T07:49:47Z</time>
      </trkpt>
      <trkpt lat="48.6292" lon="-3.84493">
        <ele>111</ele>
        <time>2021-07-08T07:49:48Z</time>
      </trkpt>
      <trkpt lat="48.62918" lon="-3.84488">
        <ele>111</ele>
        <time>2021-07-08T07:49:49Z</time>
      </trkpt>
      <trkpt lat="48.62917" lon="-3.84482">
        <ele>111</ele>
        <time>2021-07-08T07:49:50Z</time>
      </trkpt>
      <trkpt lat="48.62917" lon="-3.84477">
        <ele>111</ele>
        <time>2021-07-08T07:49:51Z</time>
      </trkpt>
      <trkpt lat="48.62916" lon="-3.84472">
        <ele>111</ele>
        <time>2021-07-08T07:49:52Z</time>
      </trkpt>
      <trkpt lat="48.62915" lon="-3.84466">
        <ele>111</ele>
        <time>2021-07-08T07:49:53Z</time>
      </trkpt>
      <trkpt lat="48.62914" lon="-3.84461">
        <ele>111</ele>
        <time>2021-07-08T07:49:54Z</time>
      </trkpt>
      <trkpt lat="48.62912" lon="-3.84456">
        <ele>111</ele>
        <time>2021-07-08T07:49:55Z</time>
      </trkpt>
      <trkpt lat="48.6291" lon="-3.8445">
        <ele>107</ele>
        <time>2021-07-08T07:49:56Z</time>
      </trkpt>
      <trkpt lat="48.62909" lon="-3.84445">
        <ele>107</ele>
        <time>2021-07-08T07:49:58Z</time>
      </trkpt>
      <trkpt lat="48.62907" lon="-3.8444">
        <ele>107</ele>
        <time>2021-07-08T07:49:58Z</time>
      </trkpt>
      <trkpt lat="48.62905" lon="-3.84435">
        <ele>107</ele>
        <time>2021-07-08T07:49:59Z</time>
      </trkpt>
      <trkpt lat="48.62903" lon="-3.8443">
        <ele>107</ele>
        <time>2021-07-08T07:50:00Z</time>
      </trkpt>
      <trkpt lat="48.62901" lon="-3.84425">
        <ele>107</ele>
        <time>2021-07-08T07:50:01Z</time>
      </trkpt>
      <trkpt lat="48.62898" lon="-3.8442">
        <ele>107</ele>
        <time>2021-07-08T07:50:02Z</time>
      </trkpt>
      <trkpt lat="48.62896" lon="-3.84416">
        <ele>107</ele>
        <time>2021-07-08T07:50:04Z</time>
      </trkpt>
      <trkpt lat="48.62893" lon="-3.84412">
        <ele>107</ele>
        <time>2021-07-08T07:50:04Z</time>
      </trkpt>
      <trkpt lat="48.62891" lon="-3.84408">
        <ele>111</ele>
        <time>2021-07-08T07:50:05Z</time>
      </trkpt>
      <trkpt lat="48.62888" lon="-3.84404">
        <ele>111</ele>
        <time>2021-07-08T07:50:06Z</time>
      </trkpt>
      <trkpt lat="48.62885" lon="-3.84401">
        <ele>111</ele>
        <time>2021-07-08T07:50:07Z</time>
      </trkpt>
      <trkpt lat="48.62882" lon="-3.84397">
        <ele>111</ele>
        <time>2021-07-08T07:50:08Z</time>
      </trkpt>
      <trkpt lat="48.62879" lon="-3.84394">
        <ele>111</ele>
        <time>2021-07-08T07:50:09Z</time>
      </trkpt>
      <trkpt lat="48.62876" lon="-3.8439">
        <ele>111</ele>
        <time>2021-07-08T07:50:11Z</time>
      </trkpt>
      <trkpt lat="48.62874" lon="-3.84387">
        <ele>111</ele>
        <time>2021-07-08T07:50:11Z</time>
      </trkpt>
      <trkpt lat="48.62871" lon="-3.84383">
        <ele>111</ele>
        <time>2021-07-08T07:50:12Z</time>
      </trkpt>
      <trkpt lat="48.6287" lon="-3.84378">
        <ele>111</ele>
        <time>2021-07-08T07:50:13Z</time>
      </trkpt>
      <trkpt lat="48.62868" lon="-3.84373">
        <ele>111</ele>
        <time>2021-07-08T07:50:14Z</time>
      </trkpt>
      <trkpt lat="48.62867" lon="-3.84368">
        <ele>111</ele>
        <time>2021-07-08T07:50:16Z</time>
      </trkpt>
      <trkpt lat="48.62866" lon="-3.84362">
        <ele>111</ele>
        <time>2021-07-08T07:50:16Z</time>
      </trkpt>
      <trkpt lat="48.62865" lon="-3.84356">
        <ele>111</ele>
        <time>2021-07-08T07:50:17Z</time>
      </trkpt>
      <trkpt lat="48.62864" lon="-3.84351">
        <ele>111</ele>
        <time>2021-07-08T07:50:18Z</time>
      </trkpt>
      <trkpt lat="48.62863" lon="-3.84345">
        <ele>112</ele>
        <time>2021-07-08T07:50:19Z</time>
      </trkpt>
      <trkpt lat="48.62862" lon="-3.8434">
        <ele>112</ele>
        <time>2021-07-08T07:50:20Z</time>
      </trkpt>
      <trkpt lat="48.6286" lon="-3.84335">
        <ele>113</ele>
        <time>2021-07-08T07:50:22Z</time>
      </trkpt>
      <trkpt lat="48.62857" lon="-3.84332">
        <ele>113</ele>
        <time>2021-07-08T07:50:22Z</time>
      </trkpt>
      <trkpt lat="48.62854" lon="-3.8433">
        <ele>113</ele>
        <time>2021-07-08T07:50:23Z</time>
      </trkpt>
      <trkpt lat="48.62851" lon="-3.84329">
        <ele>113</ele>
        <time>2021-07-08T07:50:24Z</time>
      </trkpt>
      <trkpt lat="48.62849" lon="-3.8433">
        <ele>113</ele>
        <time>2021-07-08T07:50:25Z</time>
      </trkpt>
      <trkpt lat="48.62847" lon="-3.8433">
        <ele>114</ele>
        <time>2021-07-08T07:50:26Z</time>
      </trkpt>
      <trkpt lat="48.62845" lon="-3.84332">
        <ele>114</ele>
        <time>2021-07-08T07:50:28Z</time>
      </trkpt>
      <trkpt lat="48.62843" lon="-3.84335">
        <ele>114</ele>
        <time>2021-07-08T07:50:29Z</time>
      </trkpt>
      <trkpt lat="48.62841" lon="-3.84338">
        <ele>114</ele>
        <time>2021-07-08T07:50:29Z</time>
      </trkpt>
      <trkpt lat="48.62839" lon="-3.84341">
        <ele>114</ele>
        <time>2021-07-08T07:50:30Z</time>
      </trkpt>
      <trkpt lat="48.62838" lon="-3.84344">
        <ele>114</ele>
        <time>2021-07-08T07:50:31Z</time>
      </trkpt>
      <trkpt lat="48.62836" lon="-3.84348">
        <ele>114</ele>
        <time>2021-07-08T07:50:32Z</time>
      </trkpt>
      <trkpt lat="48.62834" lon="-3.84352">
        <ele>114</ele>
        <time>2021-07-08T07:50:34Z</time>
      </trkpt>
      <trkpt lat="48.62831" lon="-3.84355">
        <ele>114</ele>
        <time>2021-07-08T07:50:35Z</time>
      </trkpt>
      <trkpt lat="48.62829" lon="-3.84359">
        <ele>114</ele>
        <time>2021-07-08T07:50:35Z</time>
      </trkpt>
      <trkpt lat="48.62827" lon="-3.84363">
        <ele>114</ele>
        <time>2021-07-08T07:50:36Z</time>
      </trkpt>
      <trkpt lat="48.62825" lon="-3.84367">
        <ele>114</ele>
        <time>2021-07-08T07:50:38Z</time>
      </trkpt>
      <trkpt lat="48.62823" lon="-3.84371">
        <ele>114</ele>
        <time>2021-07-08T07:50:38Z</time>
      </trkpt>
      <trkpt lat="48.6282" lon="-3.84375">
        <ele>114</ele>
        <time>2021-07-08T07:50:40Z</time>
      </trkpt>
      <trkpt lat="48.62818" lon="-3.84379">
        <ele>114</ele>
        <time>2021-07-08T07:50:41Z</time>
      </trkpt>
      <trkpt lat="48.62816" lon="-3.84383">
        <ele>114</ele>
        <time>2021-07-08T07:50:41Z</time>
      </trkpt>
      <trkpt lat="48.62814" lon="-3.84387">
        <ele>114</ele>
        <time>2021-07-08T07:50:42Z</time>
      </trkpt>
      <trkpt lat="48.62812" lon="-3.84391">
        <ele>114</ele>
        <time>2021-07-08T07:50:43Z</time>
      </trkpt>
      <trkpt lat="48.62809" lon="-3.84395">
        <ele>114</ele>
        <time>2021-07-08T07:50:44Z</time>
      </trkpt>
      <trkpt lat="48.62807" lon="-3.84399">
        <ele>114</ele>
        <time>2021-07-08T07:50:46Z</time>
      </trkpt>
      <trkpt lat="48.62805" lon="-3.84403">
        <ele>114</ele>
        <time>2021-07-08T07:50:47Z</time>
      </trkpt>
      <trkpt lat="48.62803" lon="-3.84407">
        <ele>114</ele>
        <time>2021-07-08T07:50:47Z</time>
      </trkpt>
      <trkpt lat="48.628" lon="-3.84411">
        <ele>114</ele>
        <time>2021-07-08T07:50:48Z</time>
      </trkpt>
      <trkpt lat="48.62798" lon="-3.84416">
        <ele>114</ele>
        <time>2021-07-08T07:50:49Z</time>
      </trkpt>
      <trkpt lat="48.62796" lon="-3.8442">
        <ele>114</ele>
        <time>2021-07-08T07:50:50Z</time>
      </trkpt>
      <trkpt lat="48.62793" lon="-3.84424">
        <ele>114</ele>
        <time>2021-07-08T07:50:51Z</time>
      </trkpt>
      <trkpt lat="48.62791" lon="-3.84428">
        <ele>114</ele>
        <time>2021-07-08T07:50:52Z</time>
      </trkpt>
      <trkpt lat="48.62788" lon="-3.84433">
        <ele>114</ele>
        <time>2021-07-08T07:50:53Z</time>
      </trkpt>
      <trkpt lat="48.62786" lon="-3.84437">
        <ele>114</ele>
        <time>2021-07-08T07:50:55Z</time>
      </trkpt>
      <trkpt lat="48.62784" lon="-3.84441">
        <ele>114</ele>
        <time>2021-07-08T07:50:55Z</time>
      </trkpt>
      <trkpt lat="48.62781" lon="-3.84446">
        <ele>114</ele>
        <time>2021-07-08T07:50:57Z</time>
      </trkpt>
      <trkpt lat="48.62779" lon="-3.8445">
        <ele>114</ele>
        <time>2021-07-08T07:50:58Z</time>
      </trkpt>
      <trkpt lat="48.62776" lon="-3.84455">
        <ele>114</ele>
        <time>2021-07-08T07:50:58Z</time>
      </trkpt>
      <trkpt lat="48.62774" lon="-3.84459">
        <ele>114</ele>
        <time>2021-07-08T07:51:00Z</time>
      </trkpt>
      <trkpt lat="48.62771" lon="-3.84463">
        <ele>114</ele>
        <time>2021-07-08T07:51:00Z</time>
      </trkpt>
      <trkpt lat="48.62769" lon="-3.84468">
        <ele>114</ele>
        <time>2021-07-08T07:51:01Z</time>
      </trkpt>
      <trkpt lat="48.62766" lon="-3.84472">
        <ele>113</ele>
        <time>2021-07-08T07:51:02Z</time>
      </trkpt>
      <trkpt lat="48.62763" lon="-3.84477">
        <ele>113</ele>
        <time>2021-07-08T07:51:03Z</time>
      </trkpt>
      <trkpt lat="48.6276" lon="-3.84482">
        <ele>113</ele>
        <time>2021-07-08T07:51:05Z</time>
      </trkpt>
      <trkpt lat="48.62758" lon="-3.84487">
        <ele>113</ele>
        <time>2021-07-08T07:51:05Z</time>
      </trkpt>
      <trkpt lat="48.62755" lon="-3.84492">
        <ele>113</ele>
        <time>2021-07-08T07:51:06Z</time>
      </trkpt>
      <trkpt lat="48.62752" lon="-3.84496">
        <ele>113</ele>
        <time>2021-07-08T07:51:07Z</time>
      </trkpt>
      <trkpt lat="48.62749" lon="-3.84501">
        <ele>113</ele>
        <time>2021-07-08T07:51:08Z</time>
      </trkpt>
      <trkpt lat="48.62747" lon="-3.84506">
        <ele>113</ele>
        <time>2021-07-08T07:51:09Z</time>
      </trkpt>
      <trkpt lat="48.62744" lon="-3.84511">
        <ele>114</ele>
        <time>2021-07-08T07:51:10Z</time>
      </trkpt>
      <trkpt lat="48.62741" lon="-3.84516">
        <ele>114</ele>
        <time>2021-07-08T07:51:12Z</time>
      </trkpt>
      <trkpt lat="48.62738" lon="-3.84521">
        <ele>114</ele>
        <time>2021-07-08T07:51:12Z</time>
      </trkpt>
      <trkpt lat="48.62736" lon="-3.84525">
        <ele>114</ele>
        <time>2021-07-08T07:51:13Z</time>
      </trkpt>
      <trkpt lat="48.62733" lon="-3.8453">
        <ele>113</ele>
        <time>2021-07-08T07:51:14Z</time>
      </trkpt>
      <trkpt lat="48.6273" lon="-3.84535">
        <ele>113</ele>
        <time>2021-07-08T07:51:15Z</time>
      </trkpt>
      <trkpt lat="48.62727" lon="-3.8454">
        <ele>114</ele>
        <time>2021-07-08T07:51:16Z</time>
      </trkpt>
      <trkpt lat="48.62722" lon="-3.84549">
        <ele>114</ele>
        <time>2021-07-08T07:51:18Z</time>
      </trkpt>
      <trkpt lat="48.6272" lon="-3.84553">
        <ele>113</ele>
        <time>2021-07-08T07:51:20Z</time>
      </trkpt>
      <trkpt lat="48.62717" lon="-3.84558">
        <ele>113</ele>
        <time>2021-07-08T07:51:20Z</time>
      </trkpt>
      <trkpt lat="48.62715" lon="-3.84563">
        <ele>113</ele>
        <time>2021-07-08T07:51:21Z</time>
      </trkpt>
      <trkpt lat="48.62712" lon="-3.84567">
        <ele>113</ele>
        <time>2021-07-08T07:51:23Z</time>
      </trkpt>
      <trkpt lat="48.62709" lon="-3.84572">
        <ele>113</ele>
        <time>2021-07-08T07:51:23Z</time>
      </trkpt>
      <trkpt lat="48.62707" lon="-3.84577">
        <ele>113</ele>
        <time>2021-07-08T07:51:24Z</time>
      </trkpt>
      <trkpt lat="48.62704" lon="-3.84581">
        <ele>113</ele>
        <time>2021-07-08T07:51:25Z</time>
      </trkpt>
      <trkpt lat="48.62701" lon="-3.84586">
        <ele>113</ele>
        <time>2021-07-08T07:51:27Z</time>
      </trkpt>
      <trkpt lat="48.62699" lon="-3.84591">
        <ele>113</ele>
        <time>2021-07-08T07:51:28Z</time>
      </trkpt>
      <trkpt lat="48.62696" lon="-3.84595">
        <ele>113</ele>
        <time>2021-07-08T07:51:28Z</time>
      </trkpt>
      <trkpt lat="48.62693" lon="-3.846">
        <ele>112</ele>
        <time>2021-07-08T07:51:30Z</time>
      </trkpt>
      <trkpt lat="48.62691" lon="-3.84605">
        <ele>112</ele>
        <time>2021-07-08T07:51:31Z</time>
      </trkpt>
      <trkpt lat="48.62688" lon="-3.84609">
        <ele>112</ele>
        <time>2021-07-08T07:51:32Z</time>
      </trkpt>
      <trkpt lat="48.62685" lon="-3.84614">
        <ele>112</ele>
        <time>2021-07-08T07:51:32Z</time>
      </trkpt>
      <trkpt lat="48.62682" lon="-3.84618">
        <ele>112</ele>
        <time>2021-07-08T07:51:33Z</time>
      </trkpt>
      <trkpt lat="48.62679" lon="-3.84623">
        <ele>112</ele>
        <time>2021-07-08T07:51:34Z</time>
      </trkpt>
      <trkpt lat="48.62676" lon="-3.84627">
        <ele>112</ele>
        <time>2021-07-08T07:51:36Z</time>
      </trkpt>
      <trkpt lat="48.62673" lon="-3.84631">
        <ele>112</ele>
        <time>2021-07-08T07:51:37Z</time>
      </trkpt>
      <trkpt lat="48.6267" lon="-3.84636">
        <ele>112</ele>
        <time>2021-07-08T07:51:37Z</time>
      </trkpt>
      <trkpt lat="48.62667" lon="-3.8464">
        <ele>111</ele>
        <time>2021-07-08T07:51:38Z</time>
      </trkpt>
      <trkpt lat="48.62664" lon="-3.84644">
        <ele>111</ele>
        <time>2021-07-08T07:51:39Z</time>
      </trkpt>
      <trkpt lat="48.62662" lon="-3.84648">
        <ele>111</ele>
        <time>2021-07-08T07:51:41Z</time>
      </trkpt>
      <trkpt lat="48.62659" lon="-3.84652">
        <ele>111</ele>
        <time>2021-07-08T07:51:41Z</time>
      </trkpt>
      <trkpt lat="48.62656" lon="-3.84655">
        <ele>112</ele>
        <time>2021-07-08T07:51:42Z</time>
      </trkpt>
      <trkpt lat="48.62653" lon="-3.84659">
        <ele>112</ele>
        <time>2021-07-08T07:51:43Z</time>
      </trkpt>
      <trkpt lat="48.6265" lon="-3.84663">
        <ele>112</ele>
        <time>2021-07-08T07:51:45Z</time>
      </trkpt>
      <trkpt lat="48.62647" lon="-3.84667">
        <ele>112</ele>
        <time>2021-07-08T07:51:45Z</time>
      </trkpt>
      <trkpt lat="48.62644" lon="-3.84671">
        <ele>112</ele>
        <time>2021-07-08T07:51:46Z</time>
      </trkpt>
      <trkpt lat="48.6264" lon="-3.84674">
        <ele>112</ele>
        <time>2021-07-08T07:51:47Z</time>
      </trkpt>
      <trkpt lat="48.62637" lon="-3.84678">
        <ele>112</ele>
        <time>2021-07-08T07:51:49Z</time>
      </trkpt>
      <trkpt lat="48.62634" lon="-3.84682">
        <ele>112</ele>
        <time>2021-07-08T07:51:49Z</time>
      </trkpt>
      <trkpt lat="48.62631" lon="-3.84685">
        <ele>112</ele>
        <time>2021-07-08T07:51:50Z</time>
      </trkpt>
      <trkpt lat="48.62628" lon="-3.84689">
        <ele>112</ele>
        <time>2021-07-08T07:51:51Z</time>
      </trkpt>
      <trkpt lat="48.62625" lon="-3.84692">
        <ele>112</ele>
        <time>2021-07-08T07:51:52Z</time>
      </trkpt>
      <trkpt lat="48.62622" lon="-3.84696">
        <ele>112</ele>
        <time>2021-07-08T07:51:53Z</time>
      </trkpt>
      <trkpt lat="48.62619" lon="-3.84699">
        <ele>112</ele>
        <time>2021-07-08T07:51:54Z</time>
      </trkpt>
      <trkpt lat="48.62616" lon="-3.84703">
        <ele>112</ele>
        <time>2021-07-08T07:51:55Z</time>
      </trkpt>
      <trkpt lat="48.62614" lon="-3.84707">
        <ele>112</ele>
        <time>2021-07-08T07:51:56Z</time>
      </trkpt>
      <trkpt lat="48.62611" lon="-3.8471">
        <ele>112</ele>
        <time>2021-07-08T07:51:57Z</time>
      </trkpt>
      <trkpt lat="48.62608" lon="-3.84714">
        <ele>112</ele>
        <time>2021-07-08T07:51:59Z</time>
      </trkpt>
      <trkpt lat="48.62605" lon="-3.84718">
        <ele>112</ele>
        <time>2021-07-08T07:52:00Z</time>
      </trkpt>
      <trkpt lat="48.62602" lon="-3.84721">
        <ele>112</ele>
        <time>2021-07-08T07:52:01Z</time>
      </trkpt>
      <trkpt lat="48.62599" lon="-3.84725">
        <ele>112</ele>
        <time>2021-07-08T07:52:01Z</time>
      </trkpt>
      <trkpt lat="48.62596" lon="-3.84729">
        <ele>112</ele>
        <time>2021-07-08T07:52:02Z</time>
      </trkpt>
      <trkpt lat="48.62594" lon="-3.84733">
        <ele>112</ele>
        <time>2021-07-08T07:52:03Z</time>
      </trkpt>
      <trkpt lat="48.62591" lon="-3.84737">
        <ele>112</ele>
        <time>2021-07-08T07:52:04Z</time>
      </trkpt>
      <trkpt lat="48.62588" lon="-3.84741">
        <ele>112</ele>
        <time>2021-07-08T07:52:05Z</time>
      </trkpt>
      <trkpt lat="48.62586" lon="-3.84745">
        <ele>112</ele>
        <time>2021-07-08T07:52:06Z</time>
      </trkpt>
      <trkpt lat="48.62583" lon="-3.84749">
        <ele>112</ele>
        <time>2021-07-08T07:52:07Z</time>
      </trkpt>
      <trkpt lat="48.6258" lon="-3.84753">
        <ele>112</ele>
        <time>2021-07-08T07:52:08Z</time>
      </trkpt>
      <trkpt lat="48.62578" lon="-3.84757">
        <ele>112</ele>
        <time>2021-07-08T07:52:09Z</time>
      </trkpt>
      <trkpt lat="48.62575" lon="-3.84761">
        <ele>112</ele>
        <time>2021-07-08T07:52:10Z</time>
      </trkpt>
      <trkpt lat="48.62573" lon="-3.84766">
        <ele>112</ele>
        <time>2021-07-08T07:52:11Z</time>
      </trkpt>
      <trkpt lat="48.62571" lon="-3.8477">
        <ele>112</ele>
        <time>2021-07-08T07:52:13Z</time>
      </trkpt>
      <trkpt lat="48.62568" lon="-3.84774">
        <ele>112</ele>
        <time>2021-07-08T07:52:13Z</time>
      </trkpt>
      <trkpt lat="48.62566" lon="-3.84777">
        <ele>112</ele>
        <time>2021-07-08T07:52:14Z</time>
      </trkpt>
      <trkpt lat="48.62563" lon="-3.84781">
        <ele>112</ele>
        <time>2021-07-08T07:52:15Z</time>
      </trkpt>
      <trkpt lat="48.62561" lon="-3.84785">
        <ele>112</ele>
        <time>2021-07-08T07:52:16Z</time>
      </trkpt>
      <trkpt lat="48.62559" lon="-3.84789">
        <ele>112</ele>
        <time>2021-07-08T07:52:18Z</time>
      </trkpt>
      <trkpt lat="48.62556" lon="-3.84793">
        <ele>112</ele>
        <time>2021-07-08T07:52:19Z</time>
      </trkpt>
      <trkpt lat="48.62554" lon="-3.84797">
        <ele>112</ele>
        <time>2021-07-08T07:52:19Z</time>
      </trkpt>
      <trkpt lat="48.62551" lon="-3.84801">
        <ele>112</ele>
        <time>2021-07-08T07:52:20Z</time>
      </trkpt>
      <trkpt lat="48.62549" lon="-3.84805">
        <ele>112</ele>
        <time>2021-07-08T07:52:21Z</time>
      </trkpt>
      <trkpt lat="48.62546" lon="-3.84809">
        <ele>112</ele>
        <time>2021-07-08T07:52:23Z</time>
      </trkpt>
      <trkpt lat="48.62544" lon="-3.84813">
        <ele>112</ele>
        <time>2021-07-08T07:52:24Z</time>
      </trkpt>
      <trkpt lat="48.62541" lon="-3.84817">
        <ele>112</ele>
        <time>2021-07-08T07:52:24Z</time>
      </trkpt>
      <trkpt lat="48.62539" lon="-3.8482">
        <ele>112</ele>
        <time>2021-07-08T07:52:25Z</time>
      </trkpt>
      <trkpt lat="48.62536" lon="-3.84824">
        <ele>112</ele>
        <time>2021-07-08T07:52:26Z</time>
      </trkpt>
      <trkpt lat="48.62533" lon="-3.84828">
        <ele>112</ele>
        <time>2021-07-08T07:52:27Z</time>
      </trkpt>
      <trkpt lat="48.62531" lon="-3.84832">
        <ele>112</ele>
        <time>2021-07-08T07:52:28Z</time>
      </trkpt>
      <trkpt lat="48.62528" lon="-3.84836">
        <ele>112</ele>
        <time>2021-07-08T07:52:29Z</time>
      </trkpt>
      <trkpt lat="48.62526" lon="-3.8484">
        <ele>112</ele>
        <time>2021-07-08T07:52:30Z</time>
      </trkpt>
      <trkpt lat="48.62523" lon="-3.84844">
        <ele>112</ele>
        <time>2021-07-08T07:52:32Z</time>
      </trkpt>
      <trkpt lat="48.62521" lon="-3.84848">
        <ele>112</ele>
        <time>2021-07-08T07:52:32Z</time>
      </trkpt>
      <trkpt lat="48.62518" lon="-3.84852">
        <ele>112</ele>
        <time>2021-07-08T07:52:33Z</time>
      </trkpt>
      <trkpt lat="48.62516" lon="-3.84855">
        <ele>112</ele>
        <time>2021-07-08T07:52:34Z</time>
      </trkpt>
      <trkpt lat="48.62513" lon="-3.84859">
        <ele>112</ele>
        <time>2021-07-08T07:52:35Z</time>
      </trkpt>
      <trkpt lat="48.6251" lon="-3.84863">
        <ele>112</ele>
        <time>2021-07-08T07:52:36Z</time>
      </trkpt>
      <trkpt lat="48.62507" lon="-3.84867">
        <ele>112</ele>
        <time>2021-07-08T07:52:37Z</time>
      </trkpt>
      <trkpt lat="48.62505" lon="-3.84871">
        <ele>112</ele>
        <time>2021-07-08T07:52:38Z</time>
      </trkpt>
      <trkpt lat="48.62502" lon="-3.84875">
        <ele>112</ele>
        <time>2021-07-08T07:52:39Z</time>
      </trkpt>
      <trkpt lat="48.62499" lon="-3.84879">
        <ele>112</ele>
        <time>2021-07-08T07:52:40Z</time>
      </trkpt>
      <trkpt lat="48.62496" lon="-3.84883">
        <ele>112</ele>
        <time>2021-07-08T07:52:41Z</time>
      </trkpt>
      <trkpt lat="48.62493" lon="-3.84886">
        <ele>112</ele>
        <time>2021-07-08T07:52:42Z</time>
      </trkpt>
      <trkpt lat="48.62491" lon="-3.8489">
        <ele>112</ele>
        <time>2021-07-08T07:52:43Z</time>
      </trkpt>
      <trkpt lat="48.62488" lon="-3.84894">
        <ele>112</ele>
        <time>2021-07-08T07:52:44Z</time>
      </trkpt>
      <trkpt lat="48.62485" lon="-3.84897">
        <ele>112</ele>
        <time>2021-07-08T07:52:45Z</time>
      </trkpt>
      <trkpt lat="48.62482" lon="-3.84901">
        <ele>112</ele>
        <time>2021-07-08T07:52:46Z</time>
      </trkpt>
      <trkpt lat="48.62479" lon="-3.84905">
        <ele>112</ele>
        <time>2021-07-08T07:52:48Z</time>
      </trkpt>
      <trkpt lat="48.62476" lon="-3.84908">
        <ele>112</ele>
        <time>2021-07-08T07:52:49Z</time>
      </trkpt>
      <trkpt lat="48.62473" lon="-3.84912">
        <ele>112</ele>
        <time>2021-07-08T07:52:50Z</time>
      </trkpt>
      <trkpt lat="48.62471" lon="-3.84916">
        <ele>112</ele>
        <time>2021-07-08T07:52:51Z</time>
      </trkpt>
      <trkpt lat="48.62468" lon="-3.84919">
        <ele>112</ele>
        <time>2021-07-08T07:52:52Z</time>
      </trkpt>
      <trkpt lat="48.62465" lon="-3.84923">
        <ele>112</ele>
        <time>2021-07-08T07:52:52Z</time>
      </trkpt>
      <trkpt lat="48.62462" lon="-3.84926">
        <ele>112</ele>
        <time>2021-07-08T07:52:53Z</time>
      </trkpt>
      <trkpt lat="48.62459" lon="-3.8493">
        <ele>112</ele>
        <time>2021-07-08T07:52:54Z</time>
      </trkpt>
      <trkpt lat="48.62457" lon="-3.84934">
        <ele>112</ele>
        <time>2021-07-08T07:52:55Z</time>
      </trkpt>
      <trkpt lat="48.62454" lon="-3.84938">
        <ele>113</ele>
        <time>2021-07-08T07:52:56Z</time>
      </trkpt>
      <trkpt lat="48.62451" lon="-3.84941">
        <ele>113</ele>
        <time>2021-07-08T07:52:58Z</time>
      </trkpt>
      <trkpt lat="48.62448" lon="-3.84945">
        <ele>113</ele>
        <time>2021-07-08T07:52:58Z</time>
      </trkpt>
      <trkpt lat="48.62446" lon="-3.84949">
        <ele>113</ele>
        <time>2021-07-08T07:52:59Z</time>
      </trkpt>
      <trkpt lat="48.62443" lon="-3.84953">
        <ele>113</ele>
        <time>2021-07-08T07:53:00Z</time>
      </trkpt>
      <trkpt lat="48.6244" lon="-3.84957">
        <ele>113</ele>
        <time>2021-07-08T07:53:01Z</time>
      </trkpt>
      <trkpt lat="48.62437" lon="-3.84961">
        <ele>113</ele>
        <time>2021-07-08T07:53:03Z</time>
      </trkpt>
      <trkpt lat="48.62434" lon="-3.84965">
        <ele>113</ele>
        <time>2021-07-08T07:53:04Z</time>
      </trkpt>
      <trkpt lat="48.62431" lon="-3.8497">
        <ele>113</ele>
        <time>2021-07-08T07:53:05Z</time>
      </trkpt>
      <trkpt lat="48.62428" lon="-3.84974">
        <ele>113</ele>
        <time>2021-07-08T07:53:06Z</time>
      </trkpt>
      <trkpt lat="48.62425" lon="-3.84979">
        <ele>113</ele>
        <time>2021-07-08T07:53:06Z</time>
      </trkpt>
      <trkpt lat="48.62422" lon="-3.84984">
        <ele>113</ele>
        <time>2021-07-08T07:53:07Z</time>
      </trkpt>
      <trkpt lat="48.62419" lon="-3.84988">
        <ele>113</ele>
        <time>2021-07-08T07:53:08Z</time>
      </trkpt>
      <trkpt lat="48.62416" lon="-3.84993">
        <ele>113</ele>
        <time>2021-07-08T07:53:09Z</time>
      </trkpt>
      <trkpt lat="48.62413" lon="-3.84998">
        <ele>113</ele>
        <time>2021-07-08T07:53:11Z</time>
      </trkpt>
      <trkpt lat="48.6241" lon="-3.85003">
        <ele>113</ele>
        <time>2021-07-08T07:53:11Z</time>
      </trkpt>
      <trkpt lat="48.62407" lon="-3.85008">
        <ele>113</ele>
        <time>2021-07-08T07:53:12Z</time>
      </trkpt>
      <trkpt lat="48.62404" lon="-3.85012">
        <ele>113</ele>
        <time>2021-07-08T07:53:13Z</time>
      </trkpt>
      <trkpt lat="48.62401" lon="-3.85017">
        <ele>113</ele>
        <time>2021-07-08T07:53:15Z</time>
      </trkpt>
      <trkpt lat="48.62398" lon="-3.85022">
        <ele>113</ele>
        <time>2021-07-08T07:53:16Z</time>
      </trkpt>
      <trkpt lat="48.62395" lon="-3.85026">
        <ele>113</ele>
        <time>2021-07-08T07:53:16Z</time>
      </trkpt>
      <trkpt lat="48.62392" lon="-3.85031">
        <ele>113</ele>
        <time>2021-07-08T07:53:17Z</time>
      </trkpt>
      <trkpt lat="48.62389" lon="-3.85035">
        <ele>113</ele>
        <time>2021-07-08T07:53:18Z</time>
      </trkpt>
      <trkpt lat="48.62386" lon="-3.8504">
        <ele>113</ele>
        <time>2021-07-08T07:53:19Z</time>
      </trkpt>
      <trkpt lat="48.62383" lon="-3.85044">
        <ele>113</ele>
        <time>2021-07-08T07:53:20Z</time>
      </trkpt>
      <trkpt lat="48.6238" lon="-3.85049">
        <ele>113</ele>
        <time>2021-07-08T07:53:22Z</time>
      </trkpt>
      <trkpt lat="48.62377" lon="-3.85053">
        <ele>113</ele>
        <time>2021-07-08T07:53:22Z</time>
      </trkpt>
      <trkpt lat="48.62373" lon="-3.85058">
        <ele>113</ele>
        <time>2021-07-08T07:53:23Z</time>
      </trkpt>
      <trkpt lat="48.6237" lon="-3.85062">
        <ele>113</ele>
        <time>2021-07-08T07:53:24Z</time>
      </trkpt>
      <trkpt lat="48.62367" lon="-3.85066">
        <ele>113</ele>
        <time>2021-07-08T07:53:25Z</time>
      </trkpt>
      <trkpt lat="48.62363" lon="-3.8507">
        <ele>112</ele>
        <time>2021-07-08T07:53:26Z</time>
      </trkpt>
      <trkpt lat="48.6236" lon="-3.85075">
        <ele>112</ele>
        <time>2021-07-08T07:53:28Z</time>
      </trkpt>
      <trkpt lat="48.62356" lon="-3.85078">
        <ele>112</ele>
        <time>2021-07-08T07:53:29Z</time>
      </trkpt>
      <trkpt lat="48.62353" lon="-3.85082">
        <ele>112</ele>
        <time>2021-07-08T07:53:29Z</time>
      </trkpt>
      <trkpt lat="48.6235" lon="-3.85086">
        <ele>112</ele>
        <time>2021-07-08T07:53:30Z</time>
      </trkpt>
      <trkpt lat="48.62346" lon="-3.8509">
        <ele>112</ele>
        <time>2021-07-08T07:53:31Z</time>
      </trkpt>
      <trkpt lat="48.62343" lon="-3.85093">
        <ele>112</ele>
        <time>2021-07-08T07:53:33Z</time>
      </trkpt>
      <trkpt lat="48.6234" lon="-3.85096">
        <ele>112</ele>
        <time>2021-07-08T07:53:34Z</time>
      </trkpt>
      <trkpt lat="48.62336" lon="-3.851">
        <ele>111</ele>
        <time>2021-07-08T07:53:34Z</time>
      </trkpt>
      <trkpt lat="48.62333" lon="-3.85103">
        <ele>111</ele>
        <time>2021-07-08T07:53:35Z</time>
      </trkpt>
      <trkpt lat="48.62329" lon="-3.85107">
        <ele>111</ele>
        <time>2021-07-08T07:53:37Z</time>
      </trkpt>
      <trkpt lat="48.62326" lon="-3.8511">
        <ele>111</ele>
        <time>2021-07-08T07:53:37Z</time>
      </trkpt>
      <trkpt lat="48.62322" lon="-3.85113">
        <ele>111</ele>
        <time>2021-07-08T07:53:39Z</time>
      </trkpt>
      <trkpt lat="48.62318" lon="-3.85116">
        <ele>113</ele>
        <time>2021-07-08T07:53:40Z</time>
      </trkpt>
      <trkpt lat="48.62315" lon="-3.85119">
        <ele>113</ele>
        <time>2021-07-08T07:53:40Z</time>
      </trkpt>
      <trkpt lat="48.62311" lon="-3.85123">
        <ele>113</ele>
        <time>2021-07-08T07:53:41Z</time>
      </trkpt>
      <trkpt lat="48.62307" lon="-3.85126">
        <ele>113</ele>
        <time>2021-07-08T07:53:42Z</time>
      </trkpt>
      <trkpt lat="48.62303" lon="-3.85129">
        <ele>113</ele>
        <time>2021-07-08T07:53:43Z</time>
      </trkpt>
      <trkpt lat="48.62299" lon="-3.85132">
        <ele>113</ele>
        <time>2021-07-08T07:53:44Z</time>
      </trkpt>
      <trkpt lat="48.62294" lon="-3.85136">
        <ele>113</ele>
        <time>2021-07-08T07:53:45Z</time>
      </trkpt>
      <trkpt lat="48.6229" lon="-3.85139">
        <ele>113</ele>
        <time>2021-07-08T07:53:46Z</time>
      </trkpt>
      <trkpt lat="48.62286" lon="-3.85142">
        <ele>113</ele>
        <time>2021-07-08T07:53:47Z</time>
      </trkpt>
      <trkpt lat="48.62281" lon="-3.85144">
        <ele>113</ele>
        <time>2021-07-08T07:53:48Z</time>
      </trkpt>
      <trkpt lat="48.62277" lon="-3.85147">
        <ele>112</ele>
        <time>2021-07-08T07:53:49Z</time>
      </trkpt>
      <trkpt lat="48.62273" lon="-3.8515">
        <ele>112</ele>
        <time>2021-07-08T07:53:51Z</time>
      </trkpt>
      <trkpt lat="48.62268" lon="-3.85152">
        <ele>112</ele>
        <time>2021-07-08T07:53:52Z</time>
      </trkpt>
      <trkpt lat="48.62264" lon="-3.85155">
        <ele>112</ele>
        <time>2021-07-08T07:53:53Z</time>
      </trkpt>
      <trkpt lat="48.6226" lon="-3.85157">
        <ele>112</ele>
        <time>2021-07-08T07:53:53Z</time>
      </trkpt>
      <trkpt lat="48.62255" lon="-3.85159">
        <ele>112</ele>
        <time>2021-07-08T07:53:54Z</time>
      </trkpt>
      <trkpt lat="48.62251" lon="-3.85161">
        <ele>112</ele>
        <time>2021-07-08T07:53:55Z</time>
      </trkpt>
      <trkpt lat="48.62242" lon="-3.85165">
        <ele>112</ele>
        <time>2021-07-08T07:53:57Z</time>
      </trkpt>
      <trkpt lat="48.62237" lon="-3.85166">
        <ele>112</ele>
        <time>2021-07-08T07:53:58Z</time>
      </trkpt>
      <trkpt lat="48.62233" lon="-3.85168">
        <ele>111</ele>
        <time>2021-07-08T07:53:59Z</time>
      </trkpt>
      <trkpt lat="48.62228" lon="-3.85169">
        <ele>111</ele>
        <time>2021-07-08T07:54:00Z</time>
      </trkpt>
      <trkpt lat="48.62224" lon="-3.85171">
        <ele>111</ele>
        <time>2021-07-08T07:54:01Z</time>
      </trkpt>
      <trkpt lat="48.62219" lon="-3.85172">
        <ele>111</ele>
        <time>2021-07-08T07:54:03Z</time>
      </trkpt>
      <trkpt lat="48.62215" lon="-3.85173">
        <ele>111</ele>
        <time>2021-07-08T07:54:04Z</time>
      </trkpt>
      <trkpt lat="48.6221" lon="-3.85174">
        <ele>111</ele>
        <time>2021-07-08T07:54:04Z</time>
      </trkpt>
      <trkpt lat="48.62206" lon="-3.85175">
        <ele>111</ele>
        <time>2021-07-08T07:54:06Z</time>
      </trkpt>
      <trkpt lat="48.62202" lon="-3.85176">
        <ele>111</ele>
        <time>2021-07-08T07:54:06Z</time>
      </trkpt>
      <trkpt lat="48.62197" lon="-3.85177">
        <ele>111</ele>
        <time>2021-07-08T07:54:07Z</time>
      </trkpt>
      <trkpt lat="48.62193" lon="-3.85177">
        <ele>111</ele>
        <time>2021-07-08T07:54:09Z</time>
      </trkpt>
      <trkpt lat="48.62189" lon="-3.85178">
        <ele>111</ele>
        <time>2021-07-08T07:54:10Z</time>
      </trkpt>
      <trkpt lat="48.62184" lon="-3.85178">
        <ele>112</ele>
        <time>2021-07-08T07:54:10Z</time>
      </trkpt>
      <trkpt lat="48.6218" lon="-3.85178">
        <ele>112</ele>
        <time>2021-07-08T07:54:11Z</time>
      </trkpt>
      <trkpt lat="48.62176" lon="-3.85178">
        <ele>112</ele>
        <time>2021-07-08T07:54:13Z</time>
      </trkpt>
      <trkpt lat="48.62171" lon="-3.85178">
        <ele>112</ele>
        <time>2021-07-08T07:54:14Z</time>
      </trkpt>
      <trkpt lat="48.62167" lon="-3.85179">
        <ele>112</ele>
        <time>2021-07-08T07:54:15Z</time>
      </trkpt>
      <trkpt lat="48.62163" lon="-3.85179">
        <ele>112</ele>
        <time>2021-07-08T07:54:15Z</time>
      </trkpt>
      <trkpt lat="48.62158" lon="-3.85179">
        <ele>112</ele>
        <time>2021-07-08T07:54:16Z</time>
      </trkpt>
      <trkpt lat="48.62154" lon="-3.85179">
        <ele>112</ele>
        <time>2021-07-08T07:54:18Z</time>
      </trkpt>
      <trkpt lat="48.6215" lon="-3.8518">
        <ele>112</ele>
        <time>2021-07-08T07:54:18Z</time>
      </trkpt>
      <trkpt lat="48.62146" lon="-3.8518">
        <ele>112</ele>
        <time>2021-07-08T07:54:19Z</time>
      </trkpt>
      <trkpt lat="48.62141" lon="-3.85181">
        <ele>112</ele>
        <time>2021-07-08T07:54:21Z</time>
      </trkpt>
      <trkpt lat="48.62137" lon="-3.85182">
        <ele>112</ele>
        <time>2021-07-08T07:54:21Z</time>
      </trkpt>
      <trkpt lat="48.62132" lon="-3.85183">
        <ele>112</ele>
        <time>2021-07-08T07:54:22Z</time>
      </trkpt>
      <trkpt lat="48.62128" lon="-3.85183">
        <ele>112</ele>
        <time>2021-07-08T07:54:23Z</time>
      </trkpt>
      <trkpt lat="48.62124" lon="-3.85184">
        <ele>112</ele>
        <time>2021-07-08T07:54:24Z</time>
      </trkpt>
      <trkpt lat="48.62119" lon="-3.85186">
        <ele>112</ele>
        <time>2021-07-08T07:54:25Z</time>
      </trkpt>
      <trkpt lat="48.62115" lon="-3.85187">
        <ele>112</ele>
        <time>2021-07-08T07:54:26Z</time>
      </trkpt>
      <trkpt lat="48.62111" lon="-3.85189">
        <ele>112</ele>
        <time>2021-07-08T07:54:28Z</time>
      </trkpt>
      <trkpt lat="48.62106" lon="-3.8519">
        <ele>112</ele>
        <time>2021-07-08T07:54:29Z</time>
      </trkpt>
      <trkpt lat="48.62102" lon="-3.85192">
        <ele>111</ele>
        <time>2021-07-08T07:54:30Z</time>
      </trkpt>
      <trkpt lat="48.62098" lon="-3.85195">
        <ele>111</ele>
        <time>2021-07-08T07:54:31Z</time>
      </trkpt>
      <trkpt lat="48.62094" lon="-3.85197">
        <ele>111</ele>
        <time>2021-07-08T07:54:32Z</time>
      </trkpt>
      <trkpt lat="48.6209" lon="-3.852">
        <ele>111</ele>
        <time>2021-07-08T07:54:33Z</time>
      </trkpt>
      <trkpt lat="48.62086" lon="-3.85203">
        <ele>111</ele>
        <time>2021-07-08T07:54:34Z</time>
      </trkpt>
      <trkpt lat="48.62082" lon="-3.85207">
        <ele>111</ele>
        <time>2021-07-08T07:54:34Z</time>
      </trkpt>
      <trkpt lat="48.62078" lon="-3.85211">
        <ele>111</ele>
        <time>2021-07-08T07:54:35Z</time>
      </trkpt>
      <trkpt lat="48.62075" lon="-3.85215">
        <ele>111</ele>
        <time>2021-07-08T07:54:36Z</time>
      </trkpt>
      <trkpt lat="48.62071" lon="-3.85219">
        <ele>111</ele>
        <time>2021-07-08T07:54:37Z</time>
      </trkpt>
      <trkpt lat="48.62068" lon="-3.85224">
        <ele>111</ele>
        <time>2021-07-08T07:54:38Z</time>
      </trkpt>
      <trkpt lat="48.62064" lon="-3.85229">
        <ele>111</ele>
        <time>2021-07-08T07:54:39Z</time>
      </trkpt>
      <trkpt lat="48.62061" lon="-3.85234">
        <ele>111</ele>
        <time>2021-07-08T07:54:41Z</time>
      </trkpt>
      <trkpt lat="48.62059" lon="-3.85239">
        <ele>111</ele>
        <time>2021-07-08T07:54:41Z</time>
      </trkpt>
      <trkpt lat="48.62056" lon="-3.85245">
        <ele>111</ele>
        <time>2021-07-08T07:54:42Z</time>
      </trkpt>
      <trkpt lat="48.62053" lon="-3.8525">
        <ele>111</ele>
        <time>2021-07-08T07:54:43Z</time>
      </trkpt>
      <trkpt lat="48.62051" lon="-3.85256">
        <ele>111</ele>
        <time>2021-07-08T07:54:45Z</time>
      </trkpt>
      <trkpt lat="48.62048" lon="-3.85262">
        <ele>111</ele>
        <time>2021-07-08T07:54:45Z</time>
      </trkpt>
      <trkpt lat="48.62046" lon="-3.85268">
        <ele>112</ele>
        <time>2021-07-08T07:54:47Z</time>
      </trkpt>
      <trkpt lat="48.62044" lon="-3.85274">
        <ele>112</ele>
        <time>2021-07-08T07:54:48Z</time>
      </trkpt>
      <trkpt lat="48.62041" lon="-3.8528">
        <ele>112</ele>
        <time>2021-07-08T07:54:48Z</time>
      </trkpt>
      <trkpt lat="48.62039" lon="-3.85286">
        <ele>112</ele>
        <time>2021-07-08T07:54:49Z</time>
      </trkpt>
      <trkpt lat="48.62037" lon="-3.85292">
        <ele>112</ele>
        <time>2021-07-08T07:54:51Z</time>
      </trkpt>
      <trkpt lat="48.62036" lon="-3.85298">
        <ele>112</ele>
        <time>2021-07-08T07:54:51Z</time>
      </trkpt>
      <trkpt lat="48.62034" lon="-3.85304">
        <ele>112</ele>
        <time>2021-07-08T07:54:52Z</time>
      </trkpt>
      <trkpt lat="48.62032" lon="-3.8531">
        <ele>111</ele>
        <time>2021-07-08T07:54:54Z</time>
      </trkpt>
      <trkpt lat="48.6203" lon="-3.85315">
        <ele>111</ele>
        <time>2021-07-08T07:54:55Z</time>
      </trkpt>
      <trkpt lat="48.62028" lon="-3.85321">
        <ele>111</ele>
        <time>2021-07-08T07:54:55Z</time>
      </trkpt>
      <trkpt lat="48.62026" lon="-3.85327">
        <ele>111</ele>
        <time>2021-07-08T07:54:57Z</time>
      </trkpt>
      <trkpt lat="48.62024" lon="-3.85332">
        <ele>111</ele>
        <time>2021-07-08T07:54:58Z</time>
      </trkpt>
      <trkpt lat="48.62022" lon="-3.85338">
        <ele>111</ele>
        <time>2021-07-08T07:54:58Z</time>
      </trkpt>
      <trkpt lat="48.6202" lon="-3.85343">
        <ele>112</ele>
        <time>2021-07-08T07:55:00Z</time>
      </trkpt>
      <trkpt lat="48.62018" lon="-3.85348">
        <ele>112</ele>
        <time>2021-07-08T07:55:00Z</time>
      </trkpt>
      <trkpt lat="48.62016" lon="-3.85353">
        <ele>112</ele>
        <time>2021-07-08T07:55:02Z</time>
      </trkpt>
      <trkpt lat="48.62014" lon="-3.85358">
        <ele>112</ele>
        <time>2021-07-08T07:55:03Z</time>
      </trkpt>
      <trkpt lat="48.62011" lon="-3.85363">
        <ele>112</ele>
        <time>2021-07-08T07:55:03Z</time>
      </trkpt>
      <trkpt lat="48.62009" lon="-3.85367">
        <ele>112</ele>
        <time>2021-07-08T07:55:04Z</time>
      </trkpt>
      <trkpt lat="48.62006" lon="-3.85372">
        <ele>112</ele>
        <time>2021-07-08T07:55:06Z</time>
      </trkpt>
      <trkpt lat="48.62003" lon="-3.85376">
        <ele>112</ele>
        <time>2021-07-08T07:55:06Z</time>
      </trkpt>
      <trkpt lat="48.62001" lon="-3.85381">
        <ele>112</ele>
        <time>2021-07-08T07:55:07Z</time>
      </trkpt>
      <trkpt lat="48.61998" lon="-3.85385">
        <ele>112</ele>
        <time>2021-07-08T07:55:08Z</time>
      </trkpt>
      <trkpt lat="48.61995" lon="-3.85389">
        <ele>112</ele>
        <time>2021-07-08T07:55:09Z</time>
      </trkpt>
      <trkpt lat="48.61992" lon="-3.85393">
        <ele>112</ele>
        <time>2021-07-08T07:55:10Z</time>
      </trkpt>
      <trkpt lat="48.61989" lon="-3.85396">
        <ele>112</ele>
        <time>2021-07-08T07:55:12Z</time>
      </trkpt>
      <trkpt lat="48.61985" lon="-3.854">
        <ele>112</ele>
        <time>2021-07-08T07:55:12Z</time>
      </trkpt>
      <trkpt lat="48.61982" lon="-3.85404">
        <ele>112</ele>
        <time>2021-07-08T07:55:14Z</time>
      </trkpt>
      <trkpt lat="48.61978" lon="-3.85407">
        <ele>112</ele>
        <time>2021-07-08T07:55:15Z</time>
      </trkpt>
      <trkpt lat="48.61974" lon="-3.85411">
        <ele>112</ele>
        <time>2021-07-08T07:55:15Z</time>
      </trkpt>
      <trkpt lat="48.6197" lon="-3.85414">
        <ele>112</ele>
        <time>2021-07-08T07:55:17Z</time>
      </trkpt>
      <trkpt lat="48.61967" lon="-3.85418">
        <ele>112</ele>
        <time>2021-07-08T07:55:17Z</time>
      </trkpt>
      <trkpt lat="48.61963" lon="-3.85421">
        <ele>112</ele>
        <time>2021-07-08T07:55:19Z</time>
      </trkpt>
      <trkpt lat="48.61959" lon="-3.85424">
        <ele>111</ele>
        <time>2021-07-08T07:55:19Z</time>
      </trkpt>
      <trkpt lat="48.61955" lon="-3.85427">
        <ele>111</ele>
        <time>2021-07-08T07:55:21Z</time>
      </trkpt>
      <trkpt lat="48.61951" lon="-3.8543">
        <ele>111</ele>
        <time>2021-07-08T07:55:21Z</time>
      </trkpt>
      <trkpt lat="48.61947" lon="-3.85433">
        <ele>111</ele>
        <time>2021-07-08T07:55:22Z</time>
      </trkpt>
      <trkpt lat="48.61944" lon="-3.85435">
        <ele>111</ele>
        <time>2021-07-08T07:55:23Z</time>
      </trkpt>
      <trkpt lat="48.6194" lon="-3.85438">
        <ele>111</ele>
        <time>2021-07-08T07:55:24Z</time>
      </trkpt>
      <trkpt lat="48.61936" lon="-3.85441">
        <ele>111</ele>
        <time>2021-07-08T07:55:25Z</time>
      </trkpt>
      <trkpt lat="48.61933" lon="-3.85444">
        <ele>111</ele>
        <time>2021-07-08T07:55:26Z</time>
      </trkpt>
      <trkpt lat="48.61929" lon="-3.85447">
        <ele>111</ele>
        <time>2021-07-08T07:55:27Z</time>
      </trkpt>
      <trkpt lat="48.61925" lon="-3.8545">
        <ele>111</ele>
        <time>2021-07-08T07:55:29Z</time>
      </trkpt>
      <trkpt lat="48.61921" lon="-3.85452">
        <ele>111</ele>
        <time>2021-07-08T07:55:30Z</time>
      </trkpt>
      <trkpt lat="48.61918" lon="-3.85455">
        <ele>111</ele>
        <time>2021-07-08T07:55:30Z</time>
      </trkpt>
      <trkpt lat="48.61914" lon="-3.85457">
        <ele>111</ele>
        <time>2021-07-08T07:55:31Z</time>
      </trkpt>
      <trkpt lat="48.6191" lon="-3.8546">
        <ele>111</ele>
        <time>2021-07-08T07:55:33Z</time>
      </trkpt>
      <trkpt lat="48.61907" lon="-3.85462">
        <ele>111</ele>
        <time>2021-07-08T07:55:33Z</time>
      </trkpt>
      <trkpt lat="48.61903" lon="-3.85464">
        <ele>111</ele>
        <time>2021-07-08T07:55:35Z</time>
      </trkpt>
      <trkpt lat="48.619" lon="-3.85466">
        <ele>111</ele>
        <time>2021-07-08T07:55:36Z</time>
      </trkpt>
      <trkpt lat="48.61896" lon="-3.85468">
        <ele>111</ele>
        <time>2021-07-08T07:55:37Z</time>
      </trkpt>
      <trkpt lat="48.61893" lon="-3.8547">
        <ele>107</ele>
        <time>2021-07-08T07:55:37Z</time>
      </trkpt>
      <trkpt lat="48.61889" lon="-3.85472">
        <ele>107</ele>
        <time>2021-07-08T07:55:39Z</time>
      </trkpt>
      <trkpt lat="48.61885" lon="-3.85474">
        <ele>107</ele>
        <time>2021-07-08T07:55:40Z</time>
      </trkpt>
      <trkpt lat="48.61882" lon="-3.85476">
        <ele>107</ele>
        <time>2021-07-08T07:55:40Z</time>
      </trkpt>
      <trkpt lat="48.61878" lon="-3.85478">
        <ele>107</ele>
        <time>2021-07-08T07:55:42Z</time>
      </trkpt>
      <trkpt lat="48.61874" lon="-3.8548">
        <ele>111</ele>
        <time>2021-07-08T07:55:42Z</time>
      </trkpt>
      <trkpt lat="48.61871" lon="-3.85482">
        <ele>111</ele>
        <time>2021-07-08T07:55:44Z</time>
      </trkpt>
      <trkpt lat="48.61867" lon="-3.85485">
        <ele>111</ele>
        <time>2021-07-08T07:55:45Z</time>
      </trkpt>
      <trkpt lat="48.61863" lon="-3.85487">
        <ele>111</ele>
        <time>2021-07-08T07:55:45Z</time>
      </trkpt>
      <trkpt lat="48.6186" lon="-3.85489">
        <ele>111</ele>
        <time>2021-07-08T07:55:46Z</time>
      </trkpt>
      <trkpt lat="48.61856" lon="-3.85491">
        <ele>111</ele>
        <time>2021-07-08T07:55:48Z</time>
      </trkpt>
      <trkpt lat="48.61853" lon="-3.85493">
        <ele>111</ele>
        <time>2021-07-08T07:55:49Z</time>
      </trkpt>
      <trkpt lat="48.61849" lon="-3.85494">
        <ele>111</ele>
        <time>2021-07-08T07:55:49Z</time>
      </trkpt>
      <trkpt lat="48.61845" lon="-3.85496">
        <ele>111</ele>
        <time>2021-07-08T07:55:50Z</time>
      </trkpt>
      <trkpt lat="48.61842" lon="-3.85498">
        <ele>111</ele>
        <time>2021-07-08T07:55:52Z</time>
      </trkpt>
      <trkpt lat="48.61838" lon="-3.85499">
        <ele>111</ele>
        <time>2021-07-08T07:55:52Z</time>
      </trkpt>
      <trkpt lat="48.61834" lon="-3.855">
        <ele>111</ele>
        <time>2021-07-08T07:55:54Z</time>
      </trkpt>
      <trkpt lat="48.61831" lon="-3.85501">
        <ele>111</ele>
        <time>2021-07-08T07:55:55Z</time>
      </trkpt>
      <trkpt lat="48.61827" lon="-3.85502">
        <ele>111</ele>
        <time>2021-07-08T07:55:56Z</time>
      </trkpt>
      <trkpt lat="48.61823" lon="-3.85503">
        <ele>111</ele>
        <time>2021-07-08T07:55:57Z</time>
      </trkpt>
      <trkpt lat="48.61819" lon="-3.85504">
        <ele>111</ele>
        <time>2021-07-08T07:55:57Z</time>
      </trkpt>
      <trkpt lat="48.61815" lon="-3.85505">
        <ele>111</ele>
        <time>2021-07-08T07:55:59Z</time>
      </trkpt>
      <trkpt lat="48.61812" lon="-3.85506">
        <ele>111</ele>
        <time>2021-07-08T07:56:00Z</time>
      </trkpt>
      <trkpt lat="48.61808" lon="-3.85507">
        <ele>111</ele>
        <time>2021-07-08T07:56:00Z</time>
      </trkpt>
      <trkpt lat="48.61804" lon="-3.85508">
        <ele>111</ele>
        <time>2021-07-08T07:56:02Z</time>
      </trkpt>
      <trkpt lat="48.618" lon="-3.85508">
        <ele>111</ele>
        <time>2021-07-08T07:56:03Z</time>
      </trkpt>
      <trkpt lat="48.61796" lon="-3.85509">
        <ele>111</ele>
        <time>2021-07-08T07:56:03Z</time>
      </trkpt>
      <trkpt lat="48.61792" lon="-3.85509">
        <ele>111</ele>
        <time>2021-07-08T07:56:05Z</time>
      </trkpt>
      <trkpt lat="48.61789" lon="-3.8551">
        <ele>112</ele>
        <time>2021-07-08T07:56:06Z</time>
      </trkpt>
      <trkpt lat="48.61785" lon="-3.8551">
        <ele>112</ele>
        <time>2021-07-08T07:56:06Z</time>
      </trkpt>
      <trkpt lat="48.61781" lon="-3.85511">
        <ele>112</ele>
        <time>2021-07-08T07:56:08Z</time>
      </trkpt>
      <trkpt lat="48.61778" lon="-3.85512">
        <ele>112</ele>
        <time>2021-07-08T07:56:09Z</time>
      </trkpt>
      <trkpt lat="48.61774" lon="-3.85513">
        <ele>112</ele>
        <time>2021-07-08T07:56:10Z</time>
      </trkpt>
      <trkpt lat="48.6177" lon="-3.85515">
        <ele>112</ele>
        <time>2021-07-08T07:56:11Z</time>
      </trkpt>
      <trkpt lat="48.61766" lon="-3.85516">
        <ele>112</ele>
        <time>2021-07-08T07:56:12Z</time>
      </trkpt>
      <trkpt lat="48.61762" lon="-3.85517">
        <ele>111</ele>
        <time>2021-07-08T07:56:12Z</time>
      </trkpt>
      <trkpt lat="48.61759" lon="-3.85519">
        <ele>111</ele>
        <time>2021-07-08T07:56:14Z</time>
      </trkpt>
      <trkpt lat="48.61755" lon="-3.85521">
        <ele>111</ele>
        <time>2021-07-08T07:56:15Z</time>
      </trkpt>
      <trkpt lat="48.61751" lon="-3.85523">
        <ele>111</ele>
        <time>2021-07-08T07:56:16Z</time>
      </trkpt>
      <trkpt lat="48.61747" lon="-3.85526">
        <ele>111</ele>
        <time>2021-07-08T07:56:17Z</time>
      </trkpt>
      <trkpt lat="48.61744" lon="-3.85528">
        <ele>111</ele>
        <time>2021-07-08T07:56:18Z</time>
      </trkpt>
      <trkpt lat="48.6174" lon="-3.85531">
        <ele>111</ele>
        <time>2021-07-08T07:56:18Z</time>
      </trkpt>
      <trkpt lat="48.61737" lon="-3.85534">
        <ele>111</ele>
        <time>2021-07-08T07:56:20Z</time>
      </trkpt>
      <trkpt lat="48.61733" lon="-3.85537">
        <ele>111</ele>
        <time>2021-07-08T07:56:21Z</time>
      </trkpt>
      <trkpt lat="48.6173" lon="-3.8554">
        <ele>111</ele>
        <time>2021-07-08T07:56:21Z</time>
      </trkpt>
      <trkpt lat="48.61727" lon="-3.85543">
        <ele>112</ele>
        <time>2021-07-08T07:56:23Z</time>
      </trkpt>
      <trkpt lat="48.61724" lon="-3.85547">
        <ele>112</ele>
        <time>2021-07-08T07:56:24Z</time>
      </trkpt>
      <trkpt lat="48.6172" lon="-3.8555">
        <ele>112</ele>
        <time>2021-07-08T07:56:24Z</time>
      </trkpt>
      <trkpt lat="48.61717" lon="-3.85554">
        <ele>112</ele>
        <time>2021-07-08T07:56:25Z</time>
      </trkpt>
      <trkpt lat="48.61714" lon="-3.85558">
        <ele>112</ele>
        <time>2021-07-08T07:56:27Z</time>
      </trkpt>
      <trkpt lat="48.61711" lon="-3.85562">
        <ele>112</ele>
        <time>2021-07-08T07:56:27Z</time>
      </trkpt>
      <trkpt lat="48.61708" lon="-3.85566">
        <ele>113</ele>
        <time>2021-07-08T07:56:28Z</time>
      </trkpt>
      <trkpt lat="48.61705" lon="-3.8557">
        <ele>113</ele>
        <time>2021-07-08T07:56:30Z</time>
      </trkpt>
      <trkpt lat="48.61702" lon="-3.85575">
        <ele>113</ele>
        <time>2021-07-08T07:56:30Z</time>
      </trkpt>
      <trkpt lat="48.61699" lon="-3.85579">
        <ele>113</ele>
        <time>2021-07-08T07:56:32Z</time>
      </trkpt>
      <trkpt lat="48.61697" lon="-3.85584">
        <ele>113</ele>
        <time>2021-07-08T07:56:33Z</time>
      </trkpt>
      <trkpt lat="48.61694" lon="-3.85588">
        <ele>113</ele>
        <time>2021-07-08T07:56:33Z</time>
      </trkpt>
      <trkpt lat="48.61691" lon="-3.85593">
        <ele>113</ele>
        <time>2021-07-08T07:56:35Z</time>
      </trkpt>
      <trkpt lat="48.61689" lon="-3.85598">
        <ele>113</ele>
        <time>2021-07-08T07:56:36Z</time>
      </trkpt>
      <trkpt lat="48.61686" lon="-3.85602">
        <ele>113</ele>
        <time>2021-07-08T07:56:36Z</time>
      </trkpt>
      <trkpt lat="48.61684" lon="-3.85607">
        <ele>113</ele>
        <time>2021-07-08T07:56:38Z</time>
      </trkpt>
      <trkpt lat="48.61681" lon="-3.85611">
        <ele>113</ele>
        <time>2021-07-08T07:56:39Z</time>
      </trkpt>
      <trkpt lat="48.61679" lon="-3.85616">
        <ele>113</ele>
        <time>2021-07-08T07:56:39Z</time>
      </trkpt>
      <trkpt lat="48.61676" lon="-3.85621">
        <ele>113</ele>
        <time>2021-07-08T07:56:41Z</time>
      </trkpt>
      <trkpt lat="48.61674" lon="-3.85625">
        <ele>113</ele>
        <time>2021-07-08T07:56:42Z</time>
      </trkpt>
      <trkpt lat="48.61672" lon="-3.8563">
        <ele>113</ele>
        <time>2021-07-08T07:56:42Z</time>
      </trkpt>
      <trkpt lat="48.6167" lon="-3.85635">
        <ele>113</ele>
        <time>2021-07-08T07:56:44Z</time>
      </trkpt>
      <trkpt lat="48.61667" lon="-3.85639">
        <ele>113</ele>
        <time>2021-07-08T07:56:45Z</time>
      </trkpt>
      <trkpt lat="48.61664" lon="-3.85644">
        <ele>113</ele>
        <time>2021-07-08T07:56:45Z</time>
      </trkpt>
      <trkpt lat="48.61662" lon="-3.85648">
        <ele>113</ele>
        <time>2021-07-08T07:56:47Z</time>
      </trkpt>
      <trkpt lat="48.61659" lon="-3.85652">
        <ele>113</ele>
        <time>2021-07-08T07:56:48Z</time>
      </trkpt>
      <trkpt lat="48.61656" lon="-3.85657">
        <ele>113</ele>
        <time>2021-07-08T07:56:48Z</time>
      </trkpt>
      <trkpt lat="48.61653" lon="-3.85661">
        <ele>113</ele>
        <time>2021-07-08T07:56:50Z</time>
      </trkpt>
      <trkpt lat="48.61651" lon="-3.85665">
        <ele>113</ele>
        <time>2021-07-08T07:56:51Z</time>
      </trkpt>
      <trkpt lat="48.61648" lon="-3.85669">
        <ele>113</ele>
        <time>2021-07-08T07:56:52Z</time>
      </trkpt>
      <trkpt lat="48.61645" lon="-3.85673">
        <ele>113</ele>
        <time>2021-07-08T07:56:53Z</time>
      </trkpt>
      <trkpt lat="48.61642" lon="-3.85677">
        <ele>113</ele>
        <time>2021-07-08T07:56:54Z</time>
      </trkpt>
      <trkpt lat="48.61639" lon="-3.8568">
        <ele>113</ele>
        <time>2021-07-08T07:56:54Z</time>
      </trkpt>
      <trkpt lat="48.61636" lon="-3.85684">
        <ele>113</ele>
        <time>2021-07-08T07:56:56Z</time>
      </trkpt>
      <trkpt lat="48.61634" lon="-3.85688">
        <ele>113</ele>
        <time>2021-07-08T07:56:57Z</time>
      </trkpt>
      <trkpt lat="48.61631" lon="-3.85692">
        <ele>113</ele>
        <time>2021-07-08T07:56:57Z</time>
      </trkpt>
      <trkpt lat="48.61628" lon="-3.85695">
        <ele>113</ele>
        <time>2021-07-08T07:56:58Z</time>
      </trkpt>
      <trkpt lat="48.61625" lon="-3.85699">
        <ele>113</ele>
        <time>2021-07-08T07:57:00Z</time>
      </trkpt>
      <trkpt lat="48.61622" lon="-3.85703">
        <ele>113</ele>
        <time>2021-07-08T07:57:00Z</time>
      </trkpt>
      <trkpt lat="48.61619" lon="-3.85706">
        <ele>113</ele>
        <time>2021-07-08T07:57:02Z</time>
      </trkpt>
      <trkpt lat="48.61616" lon="-3.8571">
        <ele>113</ele>
        <time>2021-07-08T07:57:03Z</time>
      </trkpt>
      <trkpt lat="48.61613" lon="-3.85713">
        <ele>113</ele>
        <time>2021-07-08T07:57:03Z</time>
      </trkpt>
      <trkpt lat="48.6161" lon="-3.85717">
        <ele>113</ele>
        <time>2021-07-08T07:57:05Z</time>
      </trkpt>
      <trkpt lat="48.61601" lon="-3.85729">
        <ele>113</ele>
        <time>2021-07-08T07:57:07Z</time>
      </trkpt>
      <trkpt lat="48.61598" lon="-3.85733">
        <ele>113</ele>
        <time>2021-07-08T07:57:09Z</time>
      </trkpt>
      <trkpt lat="48.61594" lon="-3.85737">
        <ele>113</ele>
        <time>2021-07-08T07:57:10Z</time>
      </trkpt>
      <trkpt lat="48.61591" lon="-3.85741">
        <ele>113</ele>
        <time>2021-07-08T07:57:10Z</time>
      </trkpt>
      <trkpt lat="48.61588" lon="-3.85746">
        <ele>113</ele>
        <time>2021-07-08T07:57:12Z</time>
      </trkpt>
      <trkpt lat="48.61584" lon="-3.8575">
        <ele>113</ele>
        <time>2021-07-08T07:57:13Z</time>
      </trkpt>
      <trkpt lat="48.61581" lon="-3.85754">
        <ele>113</ele>
        <time>2021-07-08T07:57:14Z</time>
      </trkpt>
      <trkpt lat="48.61578" lon="-3.85758">
        <ele>113</ele>
        <time>2021-07-08T07:57:14Z</time>
      </trkpt>
      <trkpt lat="48.61575" lon="-3.85762">
        <ele>113</ele>
        <time>2021-07-08T07:57:15Z</time>
      </trkpt>
      <trkpt lat="48.61571" lon="-3.85767">
        <ele>113</ele>
        <time>2021-07-08T07:57:17Z</time>
      </trkpt>
      <trkpt lat="48.61568" lon="-3.85771">
        <ele>113</ele>
        <time>2021-07-08T07:57:18Z</time>
      </trkpt>
      <trkpt lat="48.61565" lon="-3.85775">
        <ele>113</ele>
        <time>2021-07-08T07:57:18Z</time>
      </trkpt>
      <trkpt lat="48.61561" lon="-3.85779">
        <ele>113</ele>
        <time>2021-07-08T07:57:20Z</time>
      </trkpt>
      <trkpt lat="48.61558" lon="-3.85783">
        <ele>113</ele>
        <time>2021-07-08T07:57:21Z</time>
      </trkpt>
      <trkpt lat="48.61555" lon="-3.85788">
        <ele>113</ele>
        <time>2021-07-08T07:57:22Z</time>
      </trkpt>
      <trkpt lat="48.61551" lon="-3.85791">
        <ele>113</ele>
        <time>2021-07-08T07:57:22Z</time>
      </trkpt>
      <trkpt lat="48.61548" lon="-3.85796">
        <ele>113</ele>
        <time>2021-07-08T07:57:24Z</time>
      </trkpt>
      <trkpt lat="48.61545" lon="-3.858">
        <ele>113</ele>
        <time>2021-07-08T07:57:25Z</time>
      </trkpt>
      <trkpt lat="48.61541" lon="-3.85804">
        <ele>113</ele>
        <time>2021-07-08T07:57:25Z</time>
      </trkpt>
      <trkpt lat="48.61538" lon="-3.85808">
        <ele>113</ele>
        <time>2021-07-08T07:57:26Z</time>
      </trkpt>
      <trkpt lat="48.61535" lon="-3.85812">
        <ele>113</ele>
        <time>2021-07-08T07:57:27Z</time>
      </trkpt>
      <trkpt lat="48.61531" lon="-3.85816">
        <ele>114</ele>
        <time>2021-07-08T07:57:29Z</time>
      </trkpt>
      <trkpt lat="48.61528" lon="-3.8582">
        <ele>114</ele>
        <time>2021-07-08T07:57:30Z</time>
      </trkpt>
      <trkpt lat="48.61524" lon="-3.85824">
        <ele>114</ele>
        <time>2021-07-08T07:57:31Z</time>
      </trkpt>
      <trkpt lat="48.61521" lon="-3.85828">
        <ele>114</ele>
        <time>2021-07-08T07:57:31Z</time>
      </trkpt>
      <trkpt lat="48.61517" lon="-3.85832">
        <ele>114</ele>
        <time>2021-07-08T07:57:33Z</time>
      </trkpt>
      <trkpt lat="48.61513" lon="-3.85836">
        <ele>114</ele>
        <time>2021-07-08T07:57:34Z</time>
      </trkpt>
      <trkpt lat="48.61509" lon="-3.8584">
        <ele>113</ele>
        <time>2021-07-08T07:57:34Z</time>
      </trkpt>
      <trkpt lat="48.61505" lon="-3.85844">
        <ele>113</ele>
        <time>2021-07-08T07:57:35Z</time>
      </trkpt>
      <trkpt lat="48.61502" lon="-3.85848">
        <ele>113</ele>
        <time>2021-07-08T07:57:37Z</time>
      </trkpt>
      <trkpt lat="48.61498" lon="-3.85852">
        <ele>113</ele>
        <time>2021-07-08T07:57:37Z</time>
      </trkpt>
      <trkpt lat="48.61494" lon="-3.85856">
        <ele>113</ele>
        <time>2021-07-08T07:57:38Z</time>
      </trkpt>
      <trkpt lat="48.6149" lon="-3.8586">
        <ele>113</ele>
        <time>2021-07-08T07:57:40Z</time>
      </trkpt>
      <trkpt lat="48.61486" lon="-3.85864">
        <ele>114</ele>
        <time>2021-07-08T07:57:41Z</time>
      </trkpt>
      <trkpt lat="48.61482" lon="-3.85867">
        <ele>114</ele>
        <time>2021-07-08T07:57:41Z</time>
      </trkpt>
      <trkpt lat="48.61477" lon="-3.8587">
        <ele>114</ele>
        <time>2021-07-08T07:57:43Z</time>
      </trkpt>
      <trkpt lat="48.61473" lon="-3.85873">
        <ele>114</ele>
        <time>2021-07-08T07:57:44Z</time>
      </trkpt>
      <trkpt lat="48.61468" lon="-3.85875">
        <ele>114</ele>
        <time>2021-07-08T07:57:44Z</time>
      </trkpt>
      <trkpt lat="48.61464" lon="-3.85877">
        <ele>114</ele>
        <time>2021-07-08T07:57:45Z</time>
      </trkpt>
      <trkpt lat="48.61459" lon="-3.85879">
        <ele>114</ele>
        <time>2021-07-08T07:57:46Z</time>
      </trkpt>
      <trkpt lat="48.61454" lon="-3.85881">
        <ele>113</ele>
        <time>2021-07-08T07:57:48Z</time>
      </trkpt>
      <trkpt lat="48.61445" lon="-3.85887">
        <ele>113</ele>
        <time>2021-07-08T07:57:49Z</time>
      </trkpt>
      <trkpt lat="48.61433" lon="-3.85893">
        <ele>113</ele>
        <time>2021-07-08T07:57:53Z</time>
      </trkpt>
      <trkpt lat="48.61424" lon="-3.85897">
        <ele>113</ele>
        <time>2021-07-08T07:57:55Z</time>
      </trkpt>
      <trkpt lat="48.61413" lon="-3.85899">
        <ele>113</ele>
        <time>2021-07-08T07:57:57Z</time>
      </trkpt>
      <trkpt lat="48.61408" lon="-3.85901">
        <ele>113</ele>
        <time>2021-07-08T07:57:58Z</time>
      </trkpt>
      <trkpt lat="48.61402" lon="-3.85903">
        <ele>113</ele>
        <time>2021-07-08T07:57:59Z</time>
      </trkpt>
      <trkpt lat="48.61397" lon="-3.85905">
        <ele>113</ele>
        <time>2021-07-08T07:57:59Z</time>
      </trkpt>
      <trkpt lat="48.61392" lon="-3.85906">
        <ele>113</ele>
        <time>2021-07-08T07:58:00Z</time>
      </trkpt>
      <trkpt lat="48.61387" lon="-3.85908">
        <ele>113</ele>
        <time>2021-07-08T07:58:02Z</time>
      </trkpt>
      <trkpt lat="48.61381" lon="-3.8591">
        <ele>113</ele>
        <time>2021-07-08T07:58:03Z</time>
      </trkpt>
      <trkpt lat="48.61376" lon="-3.85911">
        <ele>113</ele>
        <time>2021-07-08T07:58:03Z</time>
      </trkpt>
      <trkpt lat="48.61371" lon="-3.85912">
        <ele>113</ele>
        <time>2021-07-08T07:58:04Z</time>
      </trkpt>
      <trkpt lat="48.61365" lon="-3.85912">
        <ele>113</ele>
        <time>2021-07-08T07:58:05Z</time>
      </trkpt>
      <trkpt lat="48.6136" lon="-3.85913">
        <ele>113</ele>
        <time>2021-07-08T07:58:07Z</time>
      </trkpt>
      <trkpt lat="48.61355" lon="-3.85913">
        <ele>113</ele>
        <time>2021-07-08T07:58:08Z</time>
      </trkpt>
      <trkpt lat="48.61349" lon="-3.85913">
        <ele>113</ele>
        <time>2021-07-08T07:58:08Z</time>
      </trkpt>
      <trkpt lat="48.61344" lon="-3.85913">
        <ele>113</ele>
        <time>2021-07-08T07:58:09Z</time>
      </trkpt>
      <trkpt lat="48.61339" lon="-3.85913">
        <ele>113</ele>
        <time>2021-07-08T07:58:11Z</time>
      </trkpt>
      <trkpt lat="48.61333" lon="-3.85912">
        <ele>113</ele>
        <time>2021-07-08T07:58:12Z</time>
      </trkpt>
      <trkpt lat="48.61328" lon="-3.85912">
        <ele>113</ele>
        <time>2021-07-08T07:58:12Z</time>
      </trkpt>
      <trkpt lat="48.61323" lon="-3.85912">
        <ele>113</ele>
        <time>2021-07-08T07:58:14Z</time>
      </trkpt>
      <trkpt lat="48.61318" lon="-3.85911">
        <ele>113</ele>
        <time>2021-07-08T07:58:15Z</time>
      </trkpt>
      <trkpt lat="48.61313" lon="-3.85911">
        <ele>113</ele>
        <time>2021-07-08T07:58:15Z</time>
      </trkpt>
      <trkpt lat="48.61309" lon="-3.8591">
        <ele>113</ele>
        <time>2021-07-08T07:58:17Z</time>
      </trkpt>
      <trkpt lat="48.61304" lon="-3.85909">
        <ele>113</ele>
        <time>2021-07-08T07:58:18Z</time>
      </trkpt>
      <trkpt lat="48.61299" lon="-3.85909">
        <ele>112</ele>
        <time>2021-07-08T07:58:19Z</time>
      </trkpt>
      <trkpt lat="48.61295" lon="-3.85908">
        <ele>112</ele>
        <time>2021-07-08T07:58:19Z</time>
      </trkpt>
      <trkpt lat="48.61291" lon="-3.85907">
        <ele>112</ele>
        <time>2021-07-08T07:58:21Z</time>
      </trkpt>
      <trkpt lat="48.61287" lon="-3.85907">
        <ele>112</ele>
        <time>2021-07-08T07:58:22Z</time>
      </trkpt>
      <trkpt lat="48.61282" lon="-3.85906">
        <ele>112</ele>
        <time>2021-07-08T07:58:22Z</time>
      </trkpt>
      <trkpt lat="48.61277" lon="-3.85905">
        <ele>112</ele>
        <time>2021-07-08T07:58:24Z</time>
      </trkpt>
      <trkpt lat="48.61272" lon="-3.85904">
        <ele>112</ele>
        <time>2021-07-08T07:58:25Z</time>
      </trkpt>
      <trkpt lat="48.61267" lon="-3.85903">
        <ele>112</ele>
        <time>2021-07-08T07:58:25Z</time>
      </trkpt>
      <trkpt lat="48.61262" lon="-3.85901">
        <ele>112</ele>
        <time>2021-07-08T07:58:27Z</time>
      </trkpt>
      <trkpt lat="48.61257" lon="-3.85899">
        <ele>112</ele>
        <time>2021-07-08T07:58:28Z</time>
      </trkpt>
      <trkpt lat="48.61252" lon="-3.85898">
        <ele>112</ele>
        <time>2021-07-08T07:58:28Z</time>
      </trkpt>
      <trkpt lat="48.61247" lon="-3.85896">
        <ele>112</ele>
        <time>2021-07-08T07:58:30Z</time>
      </trkpt>
      <trkpt lat="48.61243" lon="-3.85895">
        <ele>112</ele>
        <time>2021-07-08T07:58:31Z</time>
      </trkpt>
      <trkpt lat="48.61238" lon="-3.85894">
        <ele>111</ele>
        <time>2021-07-08T07:58:31Z</time>
      </trkpt>
      <trkpt lat="48.61234" lon="-3.85892">
        <ele>111</ele>
        <time>2021-07-08T07:58:33Z</time>
      </trkpt>
      <trkpt lat="48.6123" lon="-3.8589">
        <ele>112</ele>
        <time>2021-07-08T07:58:34Z</time>
      </trkpt>
      <trkpt lat="48.61225" lon="-3.85888">
        <ele>112</ele>
        <time>2021-07-08T07:58:34Z</time>
      </trkpt>
      <trkpt lat="48.61221" lon="-3.85886">
        <ele>112</ele>
        <time>2021-07-08T07:58:36Z</time>
      </trkpt>
      <trkpt lat="48.61216" lon="-3.85884">
        <ele>112</ele>
        <time>2021-07-08T07:58:37Z</time>
      </trkpt>
      <trkpt lat="48.61212" lon="-3.85882">
        <ele>112</ele>
        <time>2021-07-08T07:58:37Z</time>
      </trkpt>
      <trkpt lat="48.61208" lon="-3.8588">
        <ele>112</ele>
        <time>2021-07-08T07:58:39Z</time>
      </trkpt>
      <trkpt lat="48.61204" lon="-3.85877">
        <ele>112</ele>
        <time>2021-07-08T07:58:40Z</time>
      </trkpt>
      <trkpt lat="48.612" lon="-3.85874">
        <ele>112</ele>
        <time>2021-07-08T07:58:41Z</time>
      </trkpt>
      <trkpt lat="48.61195" lon="-3.85872">
        <ele>112</ele>
        <time>2021-07-08T07:58:41Z</time>
      </trkpt>
      <trkpt lat="48.61191" lon="-3.85868">
        <ele>112</ele>
        <time>2021-07-08T07:58:43Z</time>
      </trkpt>
      <trkpt lat="48.61186" lon="-3.85866">
        <ele>112</ele>
        <time>2021-07-08T07:58:43Z</time>
      </trkpt>
      <trkpt lat="48.61182" lon="-3.85863">
        <ele>112</ele>
        <time>2021-07-08T07:58:45Z</time>
      </trkpt>
      <trkpt lat="48.61178" lon="-3.8586">
        <ele>112</ele>
        <time>2021-07-08T07:58:46Z</time>
      </trkpt>
      <trkpt lat="48.61174" lon="-3.85858">
        <ele>112</ele>
        <time>2021-07-08T07:58:46Z</time>
      </trkpt>
      <trkpt lat="48.6117" lon="-3.85855">
        <ele>112</ele>
        <time>2021-07-08T07:58:48Z</time>
      </trkpt>
      <trkpt lat="48.61166" lon="-3.85853">
        <ele>112</ele>
        <time>2021-07-08T07:58:48Z</time>
      </trkpt>
      <trkpt lat="48.61163" lon="-3.8585">
        <ele>112</ele>
        <time>2021-07-08T07:58:49Z</time>
      </trkpt>
      <trkpt lat="48.61159" lon="-3.85848">
        <ele>112</ele>
        <time>2021-07-08T07:58:50Z</time>
      </trkpt>
      <trkpt lat="48.61155" lon="-3.85845">
        <ele>112</ele>
        <time>2021-07-08T07:58:52Z</time>
      </trkpt>
      <trkpt lat="48.61151" lon="-3.85843">
        <ele>112</ele>
        <time>2021-07-08T07:58:52Z</time>
      </trkpt>
      <trkpt lat="48.61147" lon="-3.8584">
        <ele>112</ele>
        <time>2021-07-08T07:58:54Z</time>
      </trkpt>
      <trkpt lat="48.61144" lon="-3.85837">
        <ele>112</ele>
        <time>2021-07-08T07:58:55Z</time>
      </trkpt>
      <trkpt lat="48.6114" lon="-3.85835">
        <ele>112</ele>
        <time>2021-07-08T07:58:56Z</time>
      </trkpt>
      <trkpt lat="48.61136" lon="-3.85832">
        <ele>112</ele>
        <time>2021-07-08T07:58:56Z</time>
      </trkpt>
      <trkpt lat="48.61132" lon="-3.8583">
        <ele>112</ele>
        <time>2021-07-08T07:58:58Z</time>
      </trkpt>
      <trkpt lat="48.61128" lon="-3.85827">
        <ele>112</ele>
        <time>2021-07-08T07:58:59Z</time>
      </trkpt>
      <trkpt lat="48.61125" lon="-3.85824">
        <ele>112</ele>
        <time>2021-07-08T07:58:59Z</time>
      </trkpt>
      <trkpt lat="48.61121" lon="-3.85822">
        <ele>112</ele>
        <time>2021-07-08T07:59:01Z</time>
      </trkpt>
      <trkpt lat="48.61118" lon="-3.85819">
        <ele>112</ele>
        <time>2021-07-08T07:59:02Z</time>
      </trkpt>
      <trkpt lat="48.61114" lon="-3.85817">
        <ele>112</ele>
        <time>2021-07-08T07:59:02Z</time>
      </trkpt>
      <trkpt lat="48.61111" lon="-3.85815">
        <ele>112</ele>
        <time>2021-07-08T07:59:03Z</time>
      </trkpt>
      <trkpt lat="48.61108" lon="-3.85812">
        <ele>112</ele>
        <time>2021-07-08T07:59:05Z</time>
      </trkpt>
      <trkpt lat="48.61105" lon="-3.8581">
        <ele>112</ele>
        <time>2021-07-08T07:59:05Z</time>
      </trkpt>
      <trkpt lat="48.61101" lon="-3.85808">
        <ele>112</ele>
        <time>2021-07-08T07:59:07Z</time>
      </trkpt>
      <trkpt lat="48.61098" lon="-3.85805">
        <ele>113</ele>
        <time>2021-07-08T07:59:08Z</time>
      </trkpt>
      <trkpt lat="48.61095" lon="-3.85803">
        <ele>113</ele>
        <time>2021-07-08T07:59:08Z</time>
      </trkpt>
      <trkpt lat="48.61092" lon="-3.85801">
        <ele>113</ele>
        <time>2021-07-08T07:59:10Z</time>
      </trkpt>
      <trkpt lat="48.61089" lon="-3.85798">
        <ele>113</ele>
        <time>2021-07-08T07:59:11Z</time>
      </trkpt>
      <trkpt lat="48.61086" lon="-3.85796">
        <ele>113</ele>
        <time>2021-07-08T07:59:11Z</time>
      </trkpt>
      <trkpt lat="48.61083" lon="-3.85793">
        <ele>113</ele>
        <time>2021-07-08T07:59:13Z</time>
      </trkpt>
      <trkpt lat="48.6108" lon="-3.85791">
        <ele>113</ele>
        <time>2021-07-08T07:59:14Z</time>
      </trkpt>
      <trkpt lat="48.61077" lon="-3.85789">
        <ele>113</ele>
        <time>2021-07-08T07:59:15Z</time>
      </trkpt>
      <trkpt lat="48.61074" lon="-3.85786">
        <ele>113</ele>
        <time>2021-07-08T07:59:16Z</time>
      </trkpt>
      <trkpt lat="48.61071" lon="-3.85783">
        <ele>113</ele>
        <time>2021-07-08T07:59:17Z</time>
      </trkpt>
      <trkpt lat="48.61068" lon="-3.8578">
        <ele>113</ele>
        <time>2021-07-08T07:59:17Z</time>
      </trkpt>
      <trkpt lat="48.61065" lon="-3.85777">
        <ele>113</ele>
        <time>2021-07-08T07:59:18Z</time>
      </trkpt>
      <trkpt lat="48.61061" lon="-3.85774">
        <ele>113</ele>
        <time>2021-07-08T07:59:19Z</time>
      </trkpt>
      <trkpt lat="48.61058" lon="-3.85771">
        <ele>113</ele>
        <time>2021-07-08T07:59:20Z</time>
      </trkpt>
      <trkpt lat="48.61055" lon="-3.85768">
        <ele>113</ele>
        <time>2021-07-08T07:59:22Z</time>
      </trkpt>
      <trkpt lat="48.61051" lon="-3.85764">
        <ele>113</ele>
        <time>2021-07-08T07:59:23Z</time>
      </trkpt>
      <trkpt lat="48.61048" lon="-3.8576">
        <ele>113</ele>
        <time>2021-07-08T07:59:23Z</time>
      </trkpt>
      <trkpt lat="48.61044" lon="-3.85756">
        <ele>113</ele>
        <time>2021-07-08T07:59:25Z</time>
      </trkpt>
      <trkpt lat="48.61041" lon="-3.85752">
        <ele>113</ele>
        <time>2021-07-08T07:59:25Z</time>
      </trkpt>
      <trkpt lat="48.61038" lon="-3.85747">
        <ele>113</ele>
        <time>2021-07-08T07:59:26Z</time>
      </trkpt>
      <trkpt lat="48.61034" lon="-3.85743">
        <ele>113</ele>
        <time>2021-07-08T07:59:28Z</time>
      </trkpt>
      <trkpt lat="48.61031" lon="-3.85738">
        <ele>113</ele>
        <time>2021-07-08T07:59:29Z</time>
      </trkpt>
      <trkpt lat="48.61028" lon="-3.85733">
        <ele>113</ele>
        <time>2021-07-08T07:59:30Z</time>
      </trkpt>
      <trkpt lat="48.61025" lon="-3.85728">
        <ele>113</ele>
        <time>2021-07-08T07:59:31Z</time>
      </trkpt>
      <trkpt lat="48.61021" lon="-3.85723">
        <ele>113</ele>
        <time>2021-07-08T07:59:31Z</time>
      </trkpt>
      <trkpt lat="48.61018" lon="-3.85718">
        <ele>113</ele>
        <time>2021-07-08T07:59:32Z</time>
      </trkpt>
      <trkpt lat="48.61015" lon="-3.85713">
        <ele>113</ele>
        <time>2021-07-08T07:59:34Z</time>
      </trkpt>
      <trkpt lat="48.61012" lon="-3.85708">
        <ele>113</ele>
        <time>2021-07-08T07:59:35Z</time>
      </trkpt>
      <trkpt lat="48.61009" lon="-3.85703">
        <ele>113</ele>
        <time>2021-07-08T07:59:36Z</time>
      </trkpt>
      <trkpt lat="48.61006" lon="-3.85698">
        <ele>113</ele>
        <time>2021-07-08T07:59:37Z</time>
      </trkpt>
      <trkpt lat="48.61003" lon="-3.85693">
        <ele>113</ele>
        <time>2021-07-08T07:59:38Z</time>
      </trkpt>
      <trkpt lat="48.61" lon="-3.85688">
        <ele>113</ele>
        <time>2021-07-08T07:59:38Z</time>
      </trkpt>
      <trkpt lat="48.60997" lon="-3.85682">
        <ele>113</ele>
        <time>2021-07-08T07:59:40Z</time>
      </trkpt>
      <trkpt lat="48.60994" lon="-3.85677">
        <ele>113</ele>
        <time>2021-07-08T07:59:40Z</time>
      </trkpt>
      <trkpt lat="48.60991" lon="-3.85672">
        <ele>113</ele>
        <time>2021-07-08T07:59:42Z</time>
      </trkpt>
      <trkpt lat="48.60988" lon="-3.85667">
        <ele>113</ele>
        <time>2021-07-08T07:59:43Z</time>
      </trkpt>
      <trkpt lat="48.60985" lon="-3.85661">
        <ele>113</ele>
        <time>2021-07-08T07:59:43Z</time>
      </trkpt>
      <trkpt lat="48.60982" lon="-3.85655">
        <ele>113</ele>
        <time>2021-07-08T07:59:45Z</time>
      </trkpt>
      <trkpt lat="48.6098" lon="-3.8565">
        <ele>113</ele>
        <time>2021-07-08T07:59:46Z</time>
      </trkpt>
      <trkpt lat="48.60977" lon="-3.85644">
        <ele>113</ele>
        <time>2021-07-08T07:59:46Z</time>
      </trkpt>
      <trkpt lat="48.60974" lon="-3.85638">
        <ele>113</ele>
        <time>2021-07-08T07:59:48Z</time>
      </trkpt>
      <trkpt lat="48.60971" lon="-3.85633">
        <ele>113</ele>
        <time>2021-07-08T07:59:49Z</time>
      </trkpt>
      <trkpt lat="48.60969" lon="-3.85627">
        <ele>113</ele>
        <time>2021-07-08T07:59:49Z</time>
      </trkpt>
      <trkpt lat="48.60967" lon="-3.85621">
        <ele>113</ele>
        <time>2021-07-08T07:59:51Z</time>
      </trkpt>
      <trkpt lat="48.60964" lon="-3.85615">
        <ele>113</ele>
        <time>2021-07-08T07:59:52Z</time>
      </trkpt>
      <trkpt lat="48.60962" lon="-3.85609">
        <ele>113</ele>
        <time>2021-07-08T07:59:52Z</time>
      </trkpt>
      <trkpt lat="48.6096" lon="-3.85603">
        <ele>113</ele>
        <time>2021-07-08T07:59:54Z</time>
      </trkpt>
      <trkpt lat="48.60957" lon="-3.85596">
        <ele>113</ele>
        <time>2021-07-08T07:59:55Z</time>
      </trkpt>
      <trkpt lat="48.60955" lon="-3.8559">
        <ele>113</ele>
        <time>2021-07-08T07:59:55Z</time>
      </trkpt>
      <trkpt lat="48.60952" lon="-3.85583">
        <ele>113</ele>
        <time>2021-07-08T07:59:57Z</time>
      </trkpt>
      <trkpt lat="48.60945" lon="-3.85561">
        <ele>113</ele>
        <time>2021-07-08T07:59:59Z</time>
      </trkpt>
      <trkpt lat="48.60942" lon="-3.85554">
        <ele>113</ele>
        <time>2021-07-08T08:00:01Z</time>
      </trkpt>
      <trkpt lat="48.60939" lon="-3.85547">
        <ele>113</ele>
        <time>2021-07-08T08:00:02Z</time>
      </trkpt>
      <trkpt lat="48.60937" lon="-3.8554">
        <ele>113</ele>
        <time>2021-07-08T08:00:03Z</time>
      </trkpt>
      <trkpt lat="48.60934" lon="-3.85533">
        <ele>112</ele>
        <time>2021-07-08T08:00:03Z</time>
      </trkpt>
      <trkpt lat="48.60931" lon="-3.85526">
        <ele>112</ele>
        <time>2021-07-08T08:00:05Z</time>
      </trkpt>
      <trkpt lat="48.60929" lon="-3.8552">
        <ele>111</ele>
        <time>2021-07-08T08:00:06Z</time>
      </trkpt>
      <trkpt lat="48.60926" lon="-3.85513">
        <ele>111</ele>
        <time>2021-07-08T08:00:06Z</time>
      </trkpt>
      <trkpt lat="48.60923" lon="-3.85507">
        <ele>111</ele>
        <time>2021-07-08T08:00:08Z</time>
      </trkpt>
      <trkpt lat="48.6092" lon="-3.85501">
        <ele>111</ele>
        <time>2021-07-08T08:00:09Z</time>
      </trkpt>
      <trkpt lat="48.60917" lon="-3.85495">
        <ele>111</ele>
        <time>2021-07-08T08:00:09Z</time>
      </trkpt>
      <trkpt lat="48.60913" lon="-3.85488">
        <ele>111</ele>
        <time>2021-07-08T08:00:10Z</time>
      </trkpt>
      <trkpt lat="48.6091" lon="-3.85482">
        <ele>111</ele>
        <time>2021-07-08T08:00:11Z</time>
      </trkpt>
      <trkpt lat="48.60906" lon="-3.85476">
        <ele>112</ele>
        <time>2021-07-08T08:00:12Z</time>
      </trkpt>
      <trkpt lat="48.60903" lon="-3.8547">
        <ele>112</ele>
        <time>2021-07-08T08:00:14Z</time>
      </trkpt>
      <trkpt lat="48.60899" lon="-3.85464">
        <ele>112</ele>
        <time>2021-07-08T08:00:14Z</time>
      </trkpt>
      <trkpt lat="48.60895" lon="-3.85458">
        <ele>112</ele>
        <time>2021-07-08T08:00:16Z</time>
      </trkpt>
      <trkpt lat="48.60891" lon="-3.85452">
        <ele>112</ele>
        <time>2021-07-08T08:00:16Z</time>
      </trkpt>
      <trkpt lat="48.60887" lon="-3.85445">
        <ele>111</ele>
        <time>2021-07-08T08:00:17Z</time>
      </trkpt>
      <trkpt lat="48.60883" lon="-3.85439">
        <ele>111</ele>
        <time>2021-07-08T08:00:19Z</time>
      </trkpt>
      <trkpt lat="48.60879" lon="-3.85433">
        <ele>111</ele>
        <time>2021-07-08T08:00:19Z</time>
      </trkpt>
      <trkpt lat="48.60875" lon="-3.85427">
        <ele>111</ele>
        <time>2021-07-08T08:00:20Z</time>
      </trkpt>
      <trkpt lat="48.60871" lon="-3.85421">
        <ele>111</ele>
        <time>2021-07-08T08:00:22Z</time>
      </trkpt>
      <trkpt lat="48.60867" lon="-3.85415">
        <ele>107</ele>
        <time>2021-07-08T08:00:22Z</time>
      </trkpt>
      <trkpt lat="48.60863" lon="-3.85409">
        <ele>107</ele>
        <time>2021-07-08T08:00:24Z</time>
      </trkpt>
      <trkpt lat="48.6086" lon="-3.85404">
        <ele>107</ele>
        <time>2021-07-08T08:00:25Z</time>
      </trkpt>
      <trkpt lat="48.60856" lon="-3.85398">
        <ele>107</ele>
        <time>2021-07-08T08:00:25Z</time>
      </trkpt>
      <trkpt lat="48.60852" lon="-3.85392">
        <ele>107</ele>
        <time>2021-07-08T08:00:27Z</time>
      </trkpt>
      <trkpt lat="48.60848" lon="-3.85386">
        <ele>107</ele>
        <time>2021-07-08T08:00:28Z</time>
      </trkpt>
      <trkpt lat="48.60844" lon="-3.8538">
        <ele>107</ele>
        <time>2021-07-08T08:00:29Z</time>
      </trkpt>
      <trkpt lat="48.6084" lon="-3.85374">
        <ele>107</ele>
        <time>2021-07-08T08:00:30Z</time>
      </trkpt>
      <trkpt lat="48.60837" lon="-3.85368">
        <ele>107</ele>
        <time>2021-07-08T08:00:31Z</time>
      </trkpt>
      <trkpt lat="48.60833" lon="-3.85362">
        <ele>107</ele>
        <time>2021-07-08T08:00:31Z</time>
      </trkpt>
      <trkpt lat="48.60829" lon="-3.85356">
        <ele>107</ele>
        <time>2021-07-08T08:00:33Z</time>
      </trkpt>
      <trkpt lat="48.60825" lon="-3.85351">
        <ele>107</ele>
        <time>2021-07-08T08:00:33Z</time>
      </trkpt>
      <trkpt lat="48.60821" lon="-3.85345">
        <ele>107</ele>
        <time>2021-07-08T08:00:35Z</time>
      </trkpt>
      <trkpt lat="48.60818" lon="-3.85339">
        <ele>107</ele>
        <time>2021-07-08T08:00:36Z</time>
      </trkpt>
      <trkpt lat="48.60814" lon="-3.85333">
        <ele>107</ele>
        <time>2021-07-08T08:00:36Z</time>
      </trkpt>
      <trkpt lat="48.6081" lon="-3.85327">
        <ele>107</ele>
        <time>2021-07-08T08:00:38Z</time>
      </trkpt>
      <trkpt lat="48.60806" lon="-3.85321">
        <ele>107</ele>
        <time>2021-07-08T08:00:39Z</time>
      </trkpt>
      <trkpt lat="48.60803" lon="-3.85315">
        <ele>107</ele>
        <time>2021-07-08T08:00:39Z</time>
      </trkpt>
      <trkpt lat="48.60799" lon="-3.8531">
        <ele>107</ele>
        <time>2021-07-08T08:00:41Z</time>
      </trkpt>
      <trkpt lat="48.60796" lon="-3.85304">
        <ele>107</ele>
        <time>2021-07-08T08:00:41Z</time>
      </trkpt>
      <trkpt lat="48.60792" lon="-3.85298">
        <ele>107</ele>
        <time>2021-07-08T08:00:43Z</time>
      </trkpt>
      <trkpt lat="48.60789" lon="-3.85293">
        <ele>107</ele>
        <time>2021-07-08T08:00:44Z</time>
      </trkpt>
      <trkpt lat="48.60785" lon="-3.85287">
        <ele>111</ele>
        <time>2021-07-08T08:00:45Z</time>
      </trkpt>
      <trkpt lat="48.60782" lon="-3.85281">
        <ele>111</ele>
        <time>2021-07-08T08:00:45Z</time>
      </trkpt>
      <trkpt lat="48.60778" lon="-3.85276">
        <ele>111</ele>
        <time>2021-07-08T08:00:47Z</time>
      </trkpt>
      <trkpt lat="48.60775" lon="-3.85269">
        <ele>111</ele>
        <time>2021-07-08T08:00:47Z</time>
      </trkpt>
      <trkpt lat="48.60771" lon="-3.85263">
        <ele>111</ele>
        <time>2021-07-08T08:00:48Z</time>
      </trkpt>
      <trkpt lat="48.60768" lon="-3.85257">
        <ele>111</ele>
        <time>2021-07-08T08:00:50Z</time>
      </trkpt>
      <trkpt lat="48.60764" lon="-3.8525">
        <ele>111</ele>
        <time>2021-07-08T08:00:51Z</time>
      </trkpt>
      <trkpt lat="48.60761" lon="-3.85244">
        <ele>111</ele>
        <time>2021-07-08T08:00:51Z</time>
      </trkpt>
      <trkpt lat="48.60758" lon="-3.85237">
        <ele>111</ele>
        <time>2021-07-08T08:00:53Z</time>
      </trkpt>
      <trkpt lat="48.60754" lon="-3.85231">
        <ele>107</ele>
        <time>2021-07-08T08:00:54Z</time>
      </trkpt>
      <trkpt lat="48.60751" lon="-3.85224">
        <ele>107</ele>
        <time>2021-07-08T08:00:54Z</time>
      </trkpt>
      <trkpt lat="48.60748" lon="-3.85217">
        <ele>107</ele>
        <time>2021-07-08T08:00:55Z</time>
      </trkpt>
      <trkpt lat="48.60744" lon="-3.8521">
        <ele>107</ele>
        <time>2021-07-08T08:00:57Z</time>
      </trkpt>
      <trkpt lat="48.60741" lon="-3.85203">
        <ele>107</ele>
        <time>2021-07-08T08:00:58Z</time>
      </trkpt>
      <trkpt lat="48.60738" lon="-3.85196">
        <ele>107</ele>
        <time>2021-07-08T08:00:58Z</time>
      </trkpt>
      <trkpt lat="48.60734" lon="-3.85189">
        <ele>107</ele>
        <time>2021-07-08T08:01:00Z</time>
      </trkpt>
      <trkpt lat="48.60731" lon="-3.85182">
        <ele>107</ele>
        <time>2021-07-08T08:01:01Z</time>
      </trkpt>
      <trkpt lat="48.60727" lon="-3.85176">
        <ele>107</ele>
        <time>2021-07-08T08:01:01Z</time>
      </trkpt>
      <trkpt lat="48.60723" lon="-3.85169">
        <ele>107</ele>
        <time>2021-07-08T08:01:03Z</time>
      </trkpt>
      <trkpt lat="48.6072" lon="-3.85162">
        <ele>107</ele>
        <time>2021-07-08T08:01:04Z</time>
      </trkpt>
      <trkpt lat="48.60716" lon="-3.85156">
        <ele>107</ele>
        <time>2021-07-08T08:01:04Z</time>
      </trkpt>
      <trkpt lat="48.60713" lon="-3.8515">
        <ele>111</ele>
        <time>2021-07-08T08:01:05Z</time>
      </trkpt>
      <trkpt lat="48.60709" lon="-3.85145">
        <ele>111</ele>
        <time>2021-07-08T08:01:07Z</time>
      </trkpt>
      <trkpt lat="48.60705" lon="-3.85139">
        <ele>111</ele>
        <time>2021-07-08T08:01:08Z</time>
      </trkpt>
      <trkpt lat="48.60702" lon="-3.85134">
        <ele>111</ele>
        <time>2021-07-08T08:01:08Z</time>
      </trkpt>
      <trkpt lat="48.60698" lon="-3.85129">
        <ele>107</ele>
        <time>2021-07-08T08:01:10Z</time>
      </trkpt>
      <trkpt lat="48.60694" lon="-3.85124">
        <ele>107</ele>
        <time>2021-07-08T08:01:11Z</time>
      </trkpt>
      <trkpt lat="48.60691" lon="-3.8512">
        <ele>107</ele>
        <time>2021-07-08T08:01:11Z</time>
      </trkpt>
      <trkpt lat="48.60687" lon="-3.85115">
        <ele>111</ele>
        <time>2021-07-08T08:01:13Z</time>
      </trkpt>
      <trkpt lat="48.60684" lon="-3.85111">
        <ele>111</ele>
        <time>2021-07-08T08:01:14Z</time>
      </trkpt>
      <trkpt lat="48.6068" lon="-3.85107">
        <ele>112</ele>
        <time>2021-07-08T08:01:14Z</time>
      </trkpt>
      <trkpt lat="48.60677" lon="-3.85103">
        <ele>112</ele>
        <time>2021-07-08T08:01:16Z</time>
      </trkpt>
      <trkpt lat="48.60673" lon="-3.851">
        <ele>112</ele>
        <time>2021-07-08T08:01:17Z</time>
      </trkpt>
      <trkpt lat="48.60669" lon="-3.85096">
        <ele>112</ele>
        <time>2021-07-08T08:01:18Z</time>
      </trkpt>
      <trkpt lat="48.60666" lon="-3.85092">
        <ele>112</ele>
        <time>2021-07-08T08:01:18Z</time>
      </trkpt>
      <trkpt lat="48.60662" lon="-3.85089">
        <ele>112</ele>
        <time>2021-07-08T08:01:20Z</time>
      </trkpt>
      <trkpt lat="48.60658" lon="-3.85085">
        <ele>112</ele>
        <time>2021-07-08T08:01:21Z</time>
      </trkpt>
      <trkpt lat="48.60654" lon="-3.85082">
        <ele>112</ele>
        <time>2021-07-08T08:01:21Z</time>
      </trkpt>
      <trkpt lat="48.6065" lon="-3.85078">
        <ele>112</ele>
        <time>2021-07-08T08:01:23Z</time>
      </trkpt>
      <trkpt lat="48.60646" lon="-3.85075">
        <ele>112</ele>
        <time>2021-07-08T08:01:24Z</time>
      </trkpt>
      <trkpt lat="48.60641" lon="-3.85071">
        <ele>112</ele>
        <time>2021-07-08T08:01:24Z</time>
      </trkpt>
      <trkpt lat="48.60637" lon="-3.85068">
        <ele>112</ele>
        <time>2021-07-08T08:01:26Z</time>
      </trkpt>
      <trkpt lat="48.60633" lon="-3.85065">
        <ele>112</ele>
        <time>2021-07-08T08:01:27Z</time>
      </trkpt>
      <trkpt lat="48.60628" lon="-3.85062">
        <ele>112</ele>
        <time>2021-07-08T08:01:27Z</time>
      </trkpt>
      <trkpt lat="48.60624" lon="-3.85058">
        <ele>112</ele>
        <time>2021-07-08T08:01:29Z</time>
      </trkpt>
      <trkpt lat="48.60619" lon="-3.85055">
        <ele>112</ele>
        <time>2021-07-08T08:01:29Z</time>
      </trkpt>
      <trkpt lat="48.60614" lon="-3.85052">
        <ele>111</ele>
        <time>2021-07-08T08:01:30Z</time>
      </trkpt>
      <trkpt lat="48.6061" lon="-3.85048">
        <ele>111</ele>
        <time>2021-07-08T08:01:32Z</time>
      </trkpt>
      <trkpt lat="48.606" lon="-3.85042">
        <ele>111</ele>
        <time>2021-07-08T08:01:33Z</time>
      </trkpt>
      <trkpt lat="48.60596" lon="-3.85038">
        <ele>111</ele>
        <time>2021-07-08T08:01:35Z</time>
      </trkpt>
      <trkpt lat="48.60591" lon="-3.85035">
        <ele>111</ele>
        <time>2021-07-08T08:01:36Z</time>
      </trkpt>
      <trkpt lat="48.60586" lon="-3.85032">
        <ele>112</ele>
        <time>2021-07-08T08:01:36Z</time>
      </trkpt>
      <trkpt lat="48.60581" lon="-3.85028">
        <ele>112</ele>
        <time>2021-07-08T08:01:38Z</time>
      </trkpt>
      <trkpt lat="48.60577" lon="-3.85025">
        <ele>112</ele>
        <time>2021-07-08T08:01:39Z</time>
      </trkpt>
      <trkpt lat="48.60572" lon="-3.85022">
        <ele>112</ele>
        <time>2021-07-08T08:01:40Z</time>
      </trkpt>
      <trkpt lat="48.60567" lon="-3.85018">
        <ele>112</ele>
        <time>2021-07-08T08:01:41Z</time>
      </trkpt>
      <trkpt lat="48.60562" lon="-3.85015">
        <ele>112</ele>
        <time>2021-07-08T08:01:42Z</time>
      </trkpt>
      <trkpt lat="48.60557" lon="-3.85012">
        <ele>111</ele>
        <time>2021-07-08T08:01:42Z</time>
      </trkpt>
      <trkpt lat="48.60553" lon="-3.85009">
        <ele>111</ele>
        <time>2021-07-08T08:01:44Z</time>
      </trkpt>
      <trkpt lat="48.60548" lon="-3.85006">
        <ele>111</ele>
        <time>2021-07-08T08:01:45Z</time>
      </trkpt>
      <trkpt lat="48.60544" lon="-3.85003">
        <ele>111</ele>
        <time>2021-07-08T08:01:45Z</time>
      </trkpt>
      <trkpt lat="48.6054" lon="-3.84999">
        <ele>111</ele>
        <time>2021-07-08T08:01:47Z</time>
      </trkpt>
      <trkpt lat="48.60535" lon="-3.84996">
        <ele>111</ele>
        <time>2021-07-08T08:01:48Z</time>
      </trkpt>
      <trkpt lat="48.60531" lon="-3.84994">
        <ele>111</ele>
        <time>2021-07-08T08:01:49Z</time>
      </trkpt>
      <trkpt lat="48.60527" lon="-3.84991">
        <ele>111</ele>
        <time>2021-07-08T08:01:49Z</time>
      </trkpt>
      <trkpt lat="48.60522" lon="-3.84988">
        <ele>111</ele>
        <time>2021-07-08T08:01:51Z</time>
      </trkpt>
      <trkpt lat="48.60518" lon="-3.84985">
        <ele>111</ele>
        <time>2021-07-08T08:01:52Z</time>
      </trkpt>
      <trkpt lat="48.60513" lon="-3.84982">
        <ele>111</ele>
        <time>2021-07-08T08:01:52Z</time>
      </trkpt>
      <trkpt lat="48.60509" lon="-3.84979">
        <ele>111</ele>
        <time>2021-07-08T08:01:54Z</time>
      </trkpt>
      <trkpt lat="48.60504" lon="-3.84976">
        <ele>111</ele>
        <time>2021-07-08T08:01:55Z</time>
      </trkpt>
      <trkpt lat="48.605" lon="-3.84973">
        <ele>111</ele>
        <time>2021-07-08T08:01:55Z</time>
      </trkpt>
      <trkpt lat="48.60495" lon="-3.8497">
        <ele>111</ele>
        <time>2021-07-08T08:01:57Z</time>
      </trkpt>
      <trkpt lat="48.6049" lon="-3.84967">
        <ele>111</ele>
        <time>2021-07-08T08:01:58Z</time>
      </trkpt>
      <trkpt lat="48.60485" lon="-3.84964">
        <ele>111</ele>
        <time>2021-07-08T08:01:58Z</time>
      </trkpt>
      <trkpt lat="48.60481" lon="-3.84961">
        <ele>111</ele>
        <time>2021-07-08T08:02:00Z</time>
      </trkpt>
      <trkpt lat="48.60476" lon="-3.84957">
        <ele>107</ele>
        <time>2021-07-08T08:02:01Z</time>
      </trkpt>
      <trkpt lat="48.60471" lon="-3.84954">
        <ele>107</ele>
        <time>2021-07-08T08:02:01Z</time>
      </trkpt>
      <trkpt lat="48.60467" lon="-3.84951">
        <ele>107</ele>
        <time>2021-07-08T08:02:03Z</time>
      </trkpt>
      <trkpt lat="48.60462" lon="-3.84948">
        <ele>107</ele>
        <time>2021-07-08T08:02:04Z</time>
      </trkpt>
      <trkpt lat="48.60458" lon="-3.84944">
        <ele>111</ele>
        <time>2021-07-08T08:02:04Z</time>
      </trkpt>
      <trkpt lat="48.60454" lon="-3.84941">
        <ele>111</ele>
        <time>2021-07-08T08:02:06Z</time>
      </trkpt>
      <trkpt lat="48.60449" lon="-3.84938">
        <ele>111</ele>
        <time>2021-07-08T08:02:06Z</time>
      </trkpt>
      <trkpt lat="48.60445" lon="-3.84935">
        <ele>111</ele>
        <time>2021-07-08T08:02:07Z</time>
      </trkpt>
      <trkpt lat="48.60441" lon="-3.84931">
        <ele>111</ele>
        <time>2021-07-08T08:02:09Z</time>
      </trkpt>
      <trkpt lat="48.60436" lon="-3.84928">
        <ele>111</ele>
        <time>2021-07-08T08:02:10Z</time>
      </trkpt>
      <trkpt lat="48.60432" lon="-3.84924">
        <ele>111</ele>
        <time>2021-07-08T08:02:10Z</time>
      </trkpt>
      <trkpt lat="48.60428" lon="-3.8492">
        <ele>111</ele>
        <time>2021-07-08T08:02:11Z</time>
      </trkpt>
      <trkpt lat="48.60423" lon="-3.84917">
        <ele>111</ele>
        <time>2021-07-08T08:02:12Z</time>
      </trkpt>
      <trkpt lat="48.60419" lon="-3.84913">
        <ele>111</ele>
        <time>2021-07-08T08:02:13Z</time>
      </trkpt>
      <trkpt lat="48.60415" lon="-3.84909">
        <ele>111</ele>
        <time>2021-07-08T08:02:15Z</time>
      </trkpt>
      <trkpt lat="48.6041" lon="-3.84905">
        <ele>111</ele>
        <time>2021-07-08T08:02:15Z</time>
      </trkpt>
      <trkpt lat="48.60406" lon="-3.84901">
        <ele>111</ele>
        <time>2021-07-08T08:02:16Z</time>
      </trkpt>
      <trkpt lat="48.60401" lon="-3.84897">
        <ele>111</ele>
        <time>2021-07-08T08:02:18Z</time>
      </trkpt>
      <trkpt lat="48.60397" lon="-3.84893">
        <ele>107</ele>
        <time>2021-07-08T08:02:18Z</time>
      </trkpt>
      <trkpt lat="48.60393" lon="-3.84888">
        <ele>106</ele>
        <time>2021-07-08T08:02:19Z</time>
      </trkpt>
      <trkpt lat="48.60389" lon="-3.84884">
        <ele>106</ele>
        <time>2021-07-08T08:02:21Z</time>
      </trkpt>
      <trkpt lat="48.60385" lon="-3.8488">
        <ele>107</ele>
        <time>2021-07-08T08:02:22Z</time>
      </trkpt>
      <trkpt lat="48.60381" lon="-3.84876">
        <ele>107</ele>
        <time>2021-07-08T08:02:22Z</time>
      </trkpt>
      <trkpt lat="48.60378" lon="-3.84872">
        <ele>107</ele>
        <time>2021-07-08T08:02:24Z</time>
      </trkpt>
      <trkpt lat="48.60374" lon="-3.84868">
        <ele>107</ele>
        <time>2021-07-08T08:02:24Z</time>
      </trkpt>
      <trkpt lat="48.6037" lon="-3.84865">
        <ele>107</ele>
        <time>2021-07-08T08:02:25Z</time>
      </trkpt>
      <trkpt lat="48.60366" lon="-3.8486">
        <ele>107</ele>
        <time>2021-07-08T08:02:27Z</time>
      </trkpt>
      <trkpt lat="48.60362" lon="-3.84856">
        <ele>107</ele>
        <time>2021-07-08T08:02:27Z</time>
      </trkpt>
      <trkpt lat="48.60358" lon="-3.84852">
        <ele>107</ele>
        <time>2021-07-08T08:02:29Z</time>
      </trkpt>
      <trkpt lat="48.60355" lon="-3.84848">
        <ele>107</ele>
        <time>2021-07-08T08:02:30Z</time>
      </trkpt>
      <trkpt lat="48.60351" lon="-3.84844">
        <ele>107</ele>
        <time>2021-07-08T08:02:31Z</time>
      </trkpt>
      <trkpt lat="48.60348" lon="-3.8484">
        <ele>107</ele>
        <time>2021-07-08T08:02:31Z</time>
      </trkpt>
      <trkpt lat="48.60344" lon="-3.84836">
        <ele>106</ele>
        <time>2021-07-08T08:02:33Z</time>
      </trkpt>
      <trkpt lat="48.6034" lon="-3.84832">
        <ele>106</ele>
        <time>2021-07-08T08:02:33Z</time>
      </trkpt>
      <trkpt lat="48.60337" lon="-3.84828">
        <ele>107</ele>
        <time>2021-07-08T08:02:35Z</time>
      </trkpt>
      <trkpt lat="48.60333" lon="-3.84824">
        <ele>107</ele>
        <time>2021-07-08T08:02:36Z</time>
      </trkpt>
      <trkpt lat="48.6033" lon="-3.8482">
        <ele>107</ele>
        <time>2021-07-08T08:02:36Z</time>
      </trkpt>
      <trkpt lat="48.60326" lon="-3.84816">
        <ele>107</ele>
        <time>2021-07-08T08:02:38Z</time>
      </trkpt>
      <trkpt lat="48.60323" lon="-3.84812">
        <ele>107</ele>
        <time>2021-07-08T08:02:38Z</time>
      </trkpt>
      <trkpt lat="48.60319" lon="-3.84807">
        <ele>107</ele>
        <time>2021-07-08T08:02:39Z</time>
      </trkpt>
      <trkpt lat="48.60316" lon="-3.84803">
        <ele>107</ele>
        <time>2021-07-08T08:02:40Z</time>
      </trkpt>
      <trkpt lat="48.60313" lon="-3.84799">
        <ele>107</ele>
        <time>2021-07-08T08:02:42Z</time>
      </trkpt>
      <trkpt lat="48.60309" lon="-3.84795">
        <ele>107</ele>
        <time>2021-07-08T08:02:42Z</time>
      </trkpt>
      <trkpt lat="48.60306" lon="-3.8479">
        <ele>107</ele>
        <time>2021-07-08T08:02:43Z</time>
      </trkpt>
      <trkpt lat="48.60303" lon="-3.84786">
        <ele>107</ele>
        <time>2021-07-08T08:02:44Z</time>
      </trkpt>
      <trkpt lat="48.60299" lon="-3.84781">
        <ele>107</ele>
        <time>2021-07-08T08:02:45Z</time>
      </trkpt>
      <trkpt lat="48.60296" lon="-3.84777">
        <ele>107</ele>
        <time>2021-07-08T08:02:47Z</time>
      </trkpt>
      <trkpt lat="48.60293" lon="-3.84772">
        <ele>107</ele>
        <time>2021-07-08T08:02:48Z</time>
      </trkpt>
      <trkpt lat="48.60289" lon="-3.84767">
        <ele>107</ele>
        <time>2021-07-08T08:02:48Z</time>
      </trkpt>
      <trkpt lat="48.60286" lon="-3.84762">
        <ele>107</ele>
        <time>2021-07-08T08:02:49Z</time>
      </trkpt>
      <trkpt lat="48.60282" lon="-3.84757">
        <ele>107</ele>
        <time>2021-07-08T08:02:50Z</time>
      </trkpt>
      <trkpt lat="48.60279" lon="-3.84752">
        <ele>107</ele>
        <time>2021-07-08T08:02:51Z</time>
      </trkpt>
      <trkpt lat="48.60275" lon="-3.84747">
        <ele>107</ele>
        <time>2021-07-08T08:02:53Z</time>
      </trkpt>
      <trkpt lat="48.60271" lon="-3.84742">
        <ele>107</ele>
        <time>2021-07-08T08:02:54Z</time>
      </trkpt>
      <trkpt lat="48.60268" lon="-3.84737">
        <ele>107</ele>
        <time>2021-07-08T08:02:55Z</time>
      </trkpt>
      <trkpt lat="48.60264" lon="-3.84732">
        <ele>107</ele>
        <time>2021-07-08T08:02:56Z</time>
      </trkpt>
      <trkpt lat="48.6026" lon="-3.84727">
        <ele>107</ele>
        <time>2021-07-08T08:02:57Z</time>
      </trkpt>
      <trkpt lat="48.60257" lon="-3.84722">
        <ele>107</ele>
        <time>2021-07-08T08:02:58Z</time>
      </trkpt>
      <trkpt lat="48.60253" lon="-3.84716">
        <ele>107</ele>
        <time>2021-07-08T08:02:59Z</time>
      </trkpt>
      <trkpt lat="48.60249" lon="-3.84711">
        <ele>107</ele>
        <time>2021-07-08T08:03:00Z</time>
      </trkpt>
      <trkpt lat="48.60245" lon="-3.84705">
        <ele>107</ele>
        <time>2021-07-08T08:03:00Z</time>
      </trkpt>
      <trkpt lat="48.60241" lon="-3.847">
        <ele>107</ele>
        <time>2021-07-08T08:03:01Z</time>
      </trkpt>
      <trkpt lat="48.60237" lon="-3.84694">
        <ele>107</ele>
        <time>2021-07-08T08:03:02Z</time>
      </trkpt>
      <trkpt lat="48.60233" lon="-3.84689">
        <ele>107</ele>
        <time>2021-07-08T08:03:03Z</time>
      </trkpt>
      <trkpt lat="48.60229" lon="-3.84683">
        <ele>107</ele>
        <time>2021-07-08T08:03:04Z</time>
      </trkpt>
      <trkpt lat="48.60225" lon="-3.84678">
        <ele>107</ele>
        <time>2021-07-08T08:03:05Z</time>
      </trkpt>
      <trkpt lat="48.60221" lon="-3.84673">
        <ele>107</ele>
        <time>2021-07-08T08:03:06Z</time>
      </trkpt>
      <trkpt lat="48.60217" lon="-3.84667">
        <ele>107</ele>
        <time>2021-07-08T08:03:07Z</time>
      </trkpt>
      <trkpt lat="48.60213" lon="-3.84661">
        <ele>107</ele>
        <time>2021-07-08T08:03:09Z</time>
      </trkpt>
      <trkpt lat="48.60209" lon="-3.84655">
        <ele>107</ele>
        <time>2021-07-08T08:03:09Z</time>
      </trkpt>
      <trkpt lat="48.60205" lon="-3.84649">
        <ele>107</ele>
        <time>2021-07-08T08:03:10Z</time>
      </trkpt>
      <trkpt lat="48.60201" lon="-3.84642">
        <ele>107</ele>
        <time>2021-07-08T08:03:12Z</time>
      </trkpt>
      <trkpt lat="48.60197" lon="-3.84636">
        <ele>107</ele>
        <time>2021-07-08T08:03:12Z</time>
      </trkpt>
      <trkpt lat="48.60193" lon="-3.84629">
        <ele>107</ele>
        <time>2021-07-08T08:03:13Z</time>
      </trkpt>
      <trkpt lat="48.60189" lon="-3.84623">
        <ele>107</ele>
        <time>2021-07-08T08:03:14Z</time>
      </trkpt>
      <trkpt lat="48.60185" lon="-3.84616">
        <ele>107</ele>
        <time>2021-07-08T08:03:15Z</time>
      </trkpt>
      <trkpt lat="48.60181" lon="-3.8461">
        <ele>107</ele>
        <time>2021-07-08T08:03:16Z</time>
      </trkpt>
      <trkpt lat="48.60177" lon="-3.84603">
        <ele>107</ele>
        <time>2021-07-08T08:03:17Z</time>
      </trkpt>
      <trkpt lat="48.60173" lon="-3.84596">
        <ele>107</ele>
        <time>2021-07-08T08:03:18Z</time>
      </trkpt>
      <trkpt lat="48.60169" lon="-3.84589">
        <ele>107</ele>
        <time>2021-07-08T08:03:19Z</time>
      </trkpt>
      <trkpt lat="48.60166" lon="-3.84583">
        <ele>107</ele>
        <time>2021-07-08T08:03:20Z</time>
      </trkpt>
      <trkpt lat="48.60162" lon="-3.84576">
        <ele>107</ele>
        <time>2021-07-08T08:03:22Z</time>
      </trkpt>
      <trkpt lat="48.60159" lon="-3.84569">
        <ele>107</ele>
        <time>2021-07-08T08:03:22Z</time>
      </trkpt>
      <trkpt lat="48.60156" lon="-3.84562">
        <ele>107</ele>
        <time>2021-07-08T08:03:23Z</time>
      </trkpt>
      <trkpt lat="48.60152" lon="-3.84555">
        <ele>111</ele>
        <time>2021-07-08T08:03:25Z</time>
      </trkpt>
      <trkpt lat="48.60149" lon="-3.84548">
        <ele>111</ele>
        <time>2021-07-08T08:03:25Z</time>
      </trkpt>
      <trkpt lat="48.60146" lon="-3.84542">
        <ele>111</ele>
        <time>2021-07-08T08:03:26Z</time>
      </trkpt>
      <trkpt lat="48.60143" lon="-3.84535">
        <ele>111</ele>
        <time>2021-07-08T08:03:28Z</time>
      </trkpt>
      <trkpt lat="48.6014" lon="-3.84528">
        <ele>111</ele>
        <time>2021-07-08T08:03:28Z</time>
      </trkpt>
      <trkpt lat="48.60137" lon="-3.84521">
        <ele>111</ele>
        <time>2021-07-08T08:03:30Z</time>
      </trkpt>
      <trkpt lat="48.60134" lon="-3.84514">
        <ele>111</ele>
        <time>2021-07-08T08:03:30Z</time>
      </trkpt>
      <trkpt lat="48.60131" lon="-3.84507">
        <ele>111</ele>
        <time>2021-07-08T08:03:32Z</time>
      </trkpt>
      <trkpt lat="48.60128" lon="-3.845">
        <ele>111</ele>
        <time>2021-07-08T08:03:33Z</time>
      </trkpt>
      <trkpt lat="48.60125" lon="-3.84493">
        <ele>111</ele>
        <time>2021-07-08T08:03:33Z</time>
      </trkpt>
      <trkpt lat="48.60122" lon="-3.84486">
        <ele>111</ele>
        <time>2021-07-08T08:03:34Z</time>
      </trkpt>
      <trkpt lat="48.60119" lon="-3.84478">
        <ele>107</ele>
        <time>2021-07-08T08:03:36Z</time>
      </trkpt>
      <trkpt lat="48.60116" lon="-3.84471">
        <ele>107</ele>
        <time>2021-07-08T08:03:36Z</time>
      </trkpt>
      <trkpt lat="48.60113" lon="-3.84464">
        <ele>111</ele>
        <time>2021-07-08T08:03:37Z</time>
      </trkpt>
      <trkpt lat="48.60109" lon="-3.84458">
        <ele>111</ele>
        <time>2021-07-08T08:03:38Z</time>
      </trkpt>
      <trkpt lat="48.60106" lon="-3.84451">
        <ele>111</ele>
        <time>2021-07-08T08:03:39Z</time>
      </trkpt>
      <trkpt lat="48.60102" lon="-3.84444">
        <ele>111</ele>
        <time>2021-07-08T08:03:40Z</time>
      </trkpt>
      <trkpt lat="48.60099" lon="-3.84437">
        <ele>111</ele>
        <time>2021-07-08T08:03:41Z</time>
      </trkpt>
      <trkpt lat="48.60095" lon="-3.84431">
        <ele>107</ele>
        <time>2021-07-08T08:03:42Z</time>
      </trkpt>
      <trkpt lat="48.60091" lon="-3.84425">
        <ele>107</ele>
        <time>2021-07-08T08:03:44Z</time>
      </trkpt>
      <trkpt lat="48.60087" lon="-3.84419">
        <ele>107</ele>
        <time>2021-07-08T08:03:44Z</time>
      </trkpt>
      <trkpt lat="48.60083" lon="-3.84413">
        <ele>107</ele>
        <time>2021-07-08T08:03:45Z</time>
      </trkpt>
      <trkpt lat="48.6008" lon="-3.84407">
        <ele>107</ele>
        <time>2021-07-08T08:03:46Z</time>
      </trkpt>
      <trkpt lat="48.60076" lon="-3.84401">
        <ele>107</ele>
        <time>2021-07-08T08:03:48Z</time>
      </trkpt>
      <trkpt lat="48.60072" lon="-3.84395">
        <ele>107</ele>
        <time>2021-07-08T08:03:48Z</time>
      </trkpt>
      <trkpt lat="48.60068" lon="-3.8439">
        <ele>107</ele>
        <time>2021-07-08T08:03:49Z</time>
      </trkpt>
      <trkpt lat="48.60064" lon="-3.84384">
        <ele>107</ele>
        <time>2021-07-08T08:03:50Z</time>
      </trkpt>
      <trkpt lat="48.6006" lon="-3.84379">
        <ele>107</ele>
        <time>2021-07-08T08:03:51Z</time>
      </trkpt>
      <trkpt lat="48.60056" lon="-3.84374">
        <ele>107</ele>
        <time>2021-07-08T08:03:53Z</time>
      </trkpt>
      <trkpt lat="48.60052" lon="-3.84368">
        <ele>107</ele>
        <time>2021-07-08T08:03:53Z</time>
      </trkpt>
      <trkpt lat="48.60049" lon="-3.84363">
        <ele>107</ele>
        <time>2021-07-08T08:03:54Z</time>
      </trkpt>
      <trkpt lat="48.60045" lon="-3.84357">
        <ele>107</ele>
        <time>2021-07-08T08:03:55Z</time>
      </trkpt>
      <trkpt lat="48.60041" lon="-3.84352">
        <ele>107</ele>
        <time>2021-07-08T08:03:56Z</time>
      </trkpt>
      <trkpt lat="48.60037" lon="-3.84346">
        <ele>107</ele>
        <time>2021-07-08T08:03:58Z</time>
      </trkpt>
      <trkpt lat="48.60033" lon="-3.84341">
        <ele>107</ele>
        <time>2021-07-08T08:03:58Z</time>
      </trkpt>
      <trkpt lat="48.60028" lon="-3.84335">
        <ele>107</ele>
        <time>2021-07-08T08:03:59Z</time>
      </trkpt>
      <trkpt lat="48.60024" lon="-3.8433">
        <ele>107</ele>
        <time>2021-07-08T08:04:00Z</time>
      </trkpt>
      <trkpt lat="48.6002" lon="-3.84324">
        <ele>107</ele>
        <time>2021-07-08T08:04:01Z</time>
      </trkpt>
      <trkpt lat="48.60017" lon="-3.84319">
        <ele>107</ele>
        <time>2021-07-08T08:04:03Z</time>
      </trkpt>
      <trkpt lat="48.60013" lon="-3.84314">
        <ele>107</ele>
        <time>2021-07-08T08:04:03Z</time>
      </trkpt>
      <trkpt lat="48.60009" lon="-3.84309">
        <ele>107</ele>
        <time>2021-07-08T08:04:04Z</time>
      </trkpt>
      <trkpt lat="48.60005" lon="-3.84303">
        <ele>107</ele>
        <time>2021-07-08T08:04:05Z</time>
      </trkpt>
      <trkpt lat="48.60001" lon="-3.84298">
        <ele>107</ele>
        <time>2021-07-08T08:04:06Z</time>
      </trkpt>
      <trkpt lat="48.59998" lon="-3.84293">
        <ele>107</ele>
        <time>2021-07-08T08:04:07Z</time>
      </trkpt>
      <trkpt lat="48.59994" lon="-3.84288">
        <ele>107</ele>
        <time>2021-07-08T08:04:08Z</time>
      </trkpt>
      <trkpt lat="48.5999" lon="-3.84283">
        <ele>107</ele>
        <time>2021-07-08T08:04:10Z</time>
      </trkpt>
      <trkpt lat="48.59987" lon="-3.84278">
        <ele>107</ele>
        <time>2021-07-08T08:04:10Z</time>
      </trkpt>
      <trkpt lat="48.59984" lon="-3.84273">
        <ele>107</ele>
        <time>2021-07-08T08:04:12Z</time>
      </trkpt>
      <trkpt lat="48.5998" lon="-3.84268">
        <ele>107</ele>
        <time>2021-07-08T08:04:12Z</time>
      </trkpt>
      <trkpt lat="48.59977" lon="-3.84264">
        <ele>107</ele>
        <time>2021-07-08T08:04:14Z</time>
      </trkpt>
      <trkpt lat="48.59973" lon="-3.84259">
        <ele>107</ele>
        <time>2021-07-08T08:04:15Z</time>
      </trkpt>
      <trkpt lat="48.5997" lon="-3.84254">
        <ele>107</ele>
        <time>2021-07-08T08:04:15Z</time>
      </trkpt>
      <trkpt lat="48.59966" lon="-3.84249">
        <ele>107</ele>
        <time>2021-07-08T08:04:16Z</time>
      </trkpt>
      <trkpt lat="48.59963" lon="-3.84244">
        <ele>107</ele>
        <time>2021-07-08T08:04:17Z</time>
      </trkpt>
      <trkpt lat="48.59959" lon="-3.84239">
        <ele>107</ele>
        <time>2021-07-08T08:04:19Z</time>
      </trkpt>
      <trkpt lat="48.59955" lon="-3.84234">
        <ele>107</ele>
        <time>2021-07-08T08:04:19Z</time>
      </trkpt>
      <trkpt lat="48.59952" lon="-3.84229">
        <ele>107</ele>
        <time>2021-07-08T08:04:21Z</time>
      </trkpt>
      <trkpt lat="48.59948" lon="-3.84224">
        <ele>107</ele>
        <time>2021-07-08T08:04:21Z</time>
      </trkpt>
      <trkpt lat="48.59944" lon="-3.84219">
        <ele>107</ele>
        <time>2021-07-08T08:04:22Z</time>
      </trkpt>
      <trkpt lat="48.5994" lon="-3.84214">
        <ele>107</ele>
        <time>2021-07-08T08:04:23Z</time>
      </trkpt>
      <trkpt lat="48.59936" lon="-3.84209">
        <ele>107</ele>
        <time>2021-07-08T08:04:24Z</time>
      </trkpt>
      <trkpt lat="48.59932" lon="-3.84204">
        <ele>107</ele>
        <time>2021-07-08T08:04:26Z</time>
      </trkpt>
      <trkpt lat="48.59928" lon="-3.84199">
        <ele>107</ele>
        <time>2021-07-08T08:04:27Z</time>
      </trkpt>
      <trkpt lat="48.59924" lon="-3.84195">
        <ele>107</ele>
        <time>2021-07-08T08:04:28Z</time>
      </trkpt>
      <trkpt lat="48.59919" lon="-3.8419">
        <ele>107</ele>
        <time>2021-07-08T08:04:28Z</time>
      </trkpt>
      <trkpt lat="48.59915" lon="-3.84186">
        <ele>107</ele>
        <time>2021-07-08T08:04:30Z</time>
      </trkpt>
      <trkpt lat="48.59911" lon="-3.84182">
        <ele>107</ele>
        <time>2021-07-08T08:04:30Z</time>
      </trkpt>
      <trkpt lat="48.59906" lon="-3.84178">
        <ele>107</ele>
        <time>2021-07-08T08:04:32Z</time>
      </trkpt>
      <trkpt lat="48.59901" lon="-3.84174">
        <ele>107</ele>
        <time>2021-07-08T08:04:33Z</time>
      </trkpt>
      <trkpt lat="48.59897" lon="-3.84171">
        <ele>107</ele>
        <time>2021-07-08T08:04:33Z</time>
      </trkpt>
      <trkpt lat="48.59892" lon="-3.84167">
        <ele>107</ele>
        <time>2021-07-08T08:04:35Z</time>
      </trkpt>
      <trkpt lat="48.59887" lon="-3.84164">
        <ele>107</ele>
        <time>2021-07-08T08:04:35Z</time>
      </trkpt>
      <trkpt lat="48.59882" lon="-3.84161">
        <ele>107</ele>
        <time>2021-07-08T08:04:36Z</time>
      </trkpt>
      <trkpt lat="48.59877" lon="-3.84158">
        <ele>107</ele>
        <time>2021-07-08T08:04:37Z</time>
      </trkpt>
      <trkpt lat="48.59872" lon="-3.84154">
        <ele>107</ele>
        <time>2021-07-08T08:04:38Z</time>
      </trkpt>
      <trkpt lat="48.59868" lon="-3.84151">
        <ele>107</ele>
        <time>2021-07-08T08:04:40Z</time>
      </trkpt>
      <trkpt lat="48.59863" lon="-3.84148">
        <ele>107</ele>
        <time>2021-07-08T08:04:40Z</time>
      </trkpt>
      <trkpt lat="48.59858" lon="-3.84145">
        <ele>107</ele>
        <time>2021-07-08T08:04:41Z</time>
      </trkpt>
      <trkpt lat="48.59853" lon="-3.84142">
        <ele>107</ele>
        <time>2021-07-08T08:04:43Z</time>
      </trkpt>
      <trkpt lat="48.59848" lon="-3.84139">
        <ele>107</ele>
        <time>2021-07-08T08:04:43Z</time>
      </trkpt>
      <trkpt lat="48.59843" lon="-3.84136">
        <ele>107</ele>
        <time>2021-07-08T08:04:45Z</time>
      </trkpt>
      <trkpt lat="48.59839" lon="-3.84134">
        <ele>107</ele>
        <time>2021-07-08T08:04:45Z</time>
      </trkpt>
      <trkpt lat="48.59834" lon="-3.84131">
        <ele>107</ele>
        <time>2021-07-08T08:04:46Z</time>
      </trkpt>
      <trkpt lat="48.59829" lon="-3.84128">
        <ele>107</ele>
        <time>2021-07-08T08:04:47Z</time>
      </trkpt>
      <trkpt lat="48.59824" lon="-3.84125">
        <ele>107</ele>
        <time>2021-07-08T08:04:48Z</time>
      </trkpt>
      <trkpt lat="48.59819" lon="-3.84122">
        <ele>107</ele>
        <time>2021-07-08T08:04:49Z</time>
      </trkpt>
      <trkpt lat="48.59814" lon="-3.84119">
        <ele>107</ele>
        <time>2021-07-08T08:04:51Z</time>
      </trkpt>
      <trkpt lat="48.5981" lon="-3.84116">
        <ele>107</ele>
        <time>2021-07-08T08:04:52Z</time>
      </trkpt>
      <trkpt lat="48.59805" lon="-3.84112">
        <ele>106</ele>
        <time>2021-07-08T08:04:53Z</time>
      </trkpt>
      <trkpt lat="48.598" lon="-3.84109">
        <ele>106</ele>
        <time>2021-07-08T08:04:54Z</time>
      </trkpt>
      <trkpt lat="48.59796" lon="-3.84107">
        <ele>106</ele>
        <time>2021-07-08T08:04:54Z</time>
      </trkpt>
      <trkpt lat="48.59791" lon="-3.84104">
        <ele>106</ele>
        <time>2021-07-08T08:04:55Z</time>
      </trkpt>
      <trkpt lat="48.59787" lon="-3.84101">
        <ele>106</ele>
        <time>2021-07-08T08:04:57Z</time>
      </trkpt>
      <trkpt lat="48.59783" lon="-3.84099">
        <ele>106</ele>
        <time>2021-07-08T08:04:58Z</time>
      </trkpt>
      <trkpt lat="48.59778" lon="-3.84096">
        <ele>106</ele>
        <time>2021-07-08T08:04:58Z</time>
      </trkpt>
      <trkpt lat="48.59774" lon="-3.84093">
        <ele>107</ele>
        <time>2021-07-08T08:05:00Z</time>
      </trkpt>
      <trkpt lat="48.5977" lon="-3.8409">
        <ele>107</ele>
        <time>2021-07-08T08:05:00Z</time>
      </trkpt>
      <trkpt lat="48.59765" lon="-3.84087">
        <ele>107</ele>
        <time>2021-07-08T08:05:02Z</time>
      </trkpt>
      <trkpt lat="48.59761" lon="-3.84085">
        <ele>107</ele>
        <time>2021-07-08T08:05:02Z</time>
      </trkpt>
      <trkpt lat="48.59757" lon="-3.84082">
        <ele>107</ele>
        <time>2021-07-08T08:05:04Z</time>
      </trkpt>
      <trkpt lat="48.59752" lon="-3.84079">
        <ele>107</ele>
        <time>2021-07-08T08:05:04Z</time>
      </trkpt>
      <trkpt lat="48.59748" lon="-3.84076">
        <ele>107</ele>
        <time>2021-07-08T08:05:06Z</time>
      </trkpt>
      <trkpt lat="48.59744" lon="-3.84074">
        <ele>107</ele>
        <time>2021-07-08T08:05:07Z</time>
      </trkpt>
      <trkpt lat="48.5974" lon="-3.84071">
        <ele>107</ele>
        <time>2021-07-08T08:05:08Z</time>
      </trkpt>
      <trkpt lat="48.59736" lon="-3.84068">
        <ele>107</ele>
        <time>2021-07-08T08:05:08Z</time>
      </trkpt>
      <trkpt lat="48.59732" lon="-3.84065">
        <ele>107</ele>
        <time>2021-07-08T08:05:09Z</time>
      </trkpt>
      <trkpt lat="48.59728" lon="-3.84063">
        <ele>107</ele>
        <time>2021-07-08T08:05:11Z</time>
      </trkpt>
      <trkpt lat="48.59723" lon="-3.8406">
        <ele>107</ele>
        <time>2021-07-08T08:05:12Z</time>
      </trkpt>
      <trkpt lat="48.59719" lon="-3.84057">
        <ele>107</ele>
        <time>2021-07-08T08:05:12Z</time>
      </trkpt>
      <trkpt lat="48.59715" lon="-3.84054">
        <ele>107</ele>
        <time>2021-07-08T08:05:14Z</time>
      </trkpt>
      <trkpt lat="48.5971" lon="-3.84052">
        <ele>107</ele>
        <time>2021-07-08T08:05:14Z</time>
      </trkpt>
      <trkpt lat="48.59705" lon="-3.84049">
        <ele>107</ele>
        <time>2021-07-08T08:05:15Z</time>
      </trkpt>
      <trkpt lat="48.59701" lon="-3.84047">
        <ele>107</ele>
        <time>2021-07-08T08:05:16Z</time>
      </trkpt>
      <trkpt lat="48.59696" lon="-3.84044">
        <ele>107</ele>
        <time>2021-07-08T08:05:17Z</time>
      </trkpt>
      <trkpt lat="48.59691" lon="-3.84042">
        <ele>107</ele>
        <time>2021-07-08T08:05:19Z</time>
      </trkpt>
      <trkpt lat="48.59687" lon="-3.8404">
        <ele>107</ele>
        <time>2021-07-08T08:05:20Z</time>
      </trkpt>
      <trkpt lat="48.59682" lon="-3.84039">
        <ele>107</ele>
        <time>2021-07-08T08:05:21Z</time>
      </trkpt>
      <trkpt lat="48.59677" lon="-3.84037">
        <ele>107</ele>
        <time>2021-07-08T08:05:21Z</time>
      </trkpt>
      <trkpt lat="48.59672" lon="-3.84036">
        <ele>106</ele>
        <time>2021-07-08T08:05:23Z</time>
      </trkpt>
      <trkpt lat="48.59667" lon="-3.84035">
        <ele>106</ele>
        <time>2021-07-08T08:05:23Z</time>
      </trkpt>
      <trkpt lat="48.59662" lon="-3.84034">
        <ele>107</ele>
        <time>2021-07-08T08:05:25Z</time>
      </trkpt>
      <trkpt lat="48.59657" lon="-3.84034">
        <ele>107</ele>
        <time>2021-07-08T08:05:26Z</time>
      </trkpt>
      <trkpt lat="48.59652" lon="-3.84034">
        <ele>107</ele>
        <time>2021-07-08T08:05:26Z</time>
      </trkpt>
      <trkpt lat="48.59647" lon="-3.84033">
        <ele>107</ele>
        <time>2021-07-08T08:05:28Z</time>
      </trkpt>
      <trkpt lat="48.59642" lon="-3.84033">
        <ele>107</ele>
        <time>2021-07-08T08:05:29Z</time>
      </trkpt>
      <trkpt lat="48.59637" lon="-3.84033">
        <ele>106</ele>
        <time>2021-07-08T08:05:29Z</time>
      </trkpt>
      <trkpt lat="48.59632" lon="-3.84033">
        <ele>106</ele>
        <time>2021-07-08T08:05:30Z</time>
      </trkpt>
      <trkpt lat="48.59627" lon="-3.84033">
        <ele>106</ele>
        <time>2021-07-08T08:05:31Z</time>
      </trkpt>
      <trkpt lat="48.59621" lon="-3.84033">
        <ele>106</ele>
        <time>2021-07-08T08:05:33Z</time>
      </trkpt>
      <trkpt lat="48.59616" lon="-3.84033">
        <ele>106</ele>
        <time>2021-07-08T08:05:33Z</time>
      </trkpt>
      <trkpt lat="48.59611" lon="-3.84033">
        <ele>106</ele>
        <time>2021-07-08T08:05:34Z</time>
      </trkpt>
      <trkpt lat="48.59606" lon="-3.84033">
        <ele>106</ele>
        <time>2021-07-08T08:05:35Z</time>
      </trkpt>
      <trkpt lat="48.59601" lon="-3.84033">
        <ele>106</ele>
        <time>2021-07-08T08:05:37Z</time>
      </trkpt>
      <trkpt lat="48.59595" lon="-3.84032">
        <ele>107</ele>
        <time>2021-07-08T08:05:38Z</time>
      </trkpt>
      <trkpt lat="48.5959" lon="-3.84032">
        <ele>107</ele>
        <time>2021-07-08T08:05:39Z</time>
      </trkpt>
      <trkpt lat="48.59585" lon="-3.84032">
        <ele>107</ele>
        <time>2021-07-08T08:05:39Z</time>
      </trkpt>
      <trkpt lat="48.5958" lon="-3.84032">
        <ele>107</ele>
        <time>2021-07-08T08:05:40Z</time>
      </trkpt>
      <trkpt lat="48.59574" lon="-3.84032">
        <ele>107</ele>
        <time>2021-07-08T08:05:42Z</time>
      </trkpt>
      <trkpt lat="48.59569" lon="-3.84032">
        <ele>107</ele>
        <time>2021-07-08T08:05:42Z</time>
      </trkpt>
      <trkpt lat="48.59564" lon="-3.84032">
        <ele>107</ele>
        <time>2021-07-08T08:05:44Z</time>
      </trkpt>
      <trkpt lat="48.59558" lon="-3.84032">
        <ele>107</ele>
        <time>2021-07-08T08:05:45Z</time>
      </trkpt>
      <trkpt lat="48.59553" lon="-3.84032">
        <ele>106</ele>
        <time>2021-07-08T08:05:45Z</time>
      </trkpt>
      <trkpt lat="48.59548" lon="-3.84033">
        <ele>106</ele>
        <time>2021-07-08T08:05:46Z</time>
      </trkpt>
      <trkpt lat="48.59543" lon="-3.84033">
        <ele>106</ele>
        <time>2021-07-08T08:05:47Z</time>
      </trkpt>
      <trkpt lat="48.59537" lon="-3.84033">
        <ele>107</ele>
        <time>2021-07-08T08:05:48Z</time>
      </trkpt>
      <trkpt lat="48.59532" lon="-3.84033">
        <ele>107</ele>
        <time>2021-07-08T08:05:50Z</time>
      </trkpt>
      <trkpt lat="48.59527" lon="-3.84033">
        <ele>107</ele>
        <time>2021-07-08T08:05:51Z</time>
      </trkpt>
      <trkpt lat="48.59522" lon="-3.84033">
        <ele>107</ele>
        <time>2021-07-08T08:05:52Z</time>
      </trkpt>
      <trkpt lat="48.59517" lon="-3.84033">
        <ele>107</ele>
        <time>2021-07-08T08:05:52Z</time>
      </trkpt>
      <trkpt lat="48.59512" lon="-3.84033">
        <ele>107</ele>
        <time>2021-07-08T08:05:53Z</time>
      </trkpt>
      <trkpt lat="48.59507" lon="-3.84033">
        <ele>107</ele>
        <time>2021-07-08T08:05:55Z</time>
      </trkpt>
      <trkpt lat="48.59501" lon="-3.84033">
        <ele>106</ele>
        <time>2021-07-08T08:05:56Z</time>
      </trkpt>
      <trkpt lat="48.59496" lon="-3.84033">
        <ele>106</ele>
        <time>2021-07-08T08:05:56Z</time>
      </trkpt>
      <trkpt lat="48.59492" lon="-3.84033">
        <ele>107</ele>
        <time>2021-07-08T08:05:57Z</time>
      </trkpt>
      <trkpt lat="48.59487" lon="-3.84033">
        <ele>107</ele>
        <time>2021-07-08T08:05:59Z</time>
      </trkpt>
      <trkpt lat="48.59482" lon="-3.84033">
        <ele>107</ele>
        <time>2021-07-08T08:05:59Z</time>
      </trkpt>
      <trkpt lat="48.59477" lon="-3.84033">
        <ele>107</ele>
        <time>2021-07-08T08:06:01Z</time>
      </trkpt>
      <trkpt lat="48.59472" lon="-3.84033">
        <ele>107</ele>
        <time>2021-07-08T08:06:02Z</time>
      </trkpt>
      <trkpt lat="48.59467" lon="-3.84033">
        <ele>107</ele>
        <time>2021-07-08T08:06:02Z</time>
      </trkpt>
      <trkpt lat="48.59463" lon="-3.84033">
        <ele>107</ele>
        <time>2021-07-08T08:06:03Z</time>
      </trkpt>
      <trkpt lat="48.59458" lon="-3.84033">
        <ele>107</ele>
        <time>2021-07-08T08:06:04Z</time>
      </trkpt>
      <trkpt lat="48.59453" lon="-3.84033">
        <ele>107</ele>
        <time>2021-07-08T08:06:05Z</time>
      </trkpt>
      <trkpt lat="48.59449" lon="-3.84033">
        <ele>107</ele>
        <time>2021-07-08T08:06:07Z</time>
      </trkpt>
      <trkpt lat="48.59444" lon="-3.84033">
        <ele>107</ele>
        <time>2021-07-08T08:06:08Z</time>
      </trkpt>
      <trkpt lat="48.59439" lon="-3.84033">
        <ele>107</ele>
        <time>2021-07-08T08:06:08Z</time>
      </trkpt>
      <trkpt lat="48.59435" lon="-3.84033">
        <ele>107</ele>
        <time>2021-07-08T08:06:09Z</time>
      </trkpt>
      <trkpt lat="48.5943" lon="-3.84033">
        <ele>107</ele>
        <time>2021-07-08T08:06:10Z</time>
      </trkpt>
      <trkpt lat="48.59425" lon="-3.84033">
        <ele>107</ele>
        <time>2021-07-08T08:06:11Z</time>
      </trkpt>
      <trkpt lat="48.59421" lon="-3.84032">
        <ele>107</ele>
        <time>2021-07-08T08:06:13Z</time>
      </trkpt>
      <trkpt lat="48.59416" lon="-3.84032">
        <ele>107</ele>
        <time>2021-07-08T08:06:13Z</time>
      </trkpt>
      <trkpt lat="48.59412" lon="-3.84032">
        <ele>107</ele>
        <time>2021-07-08T08:06:14Z</time>
      </trkpt>
      <trkpt lat="48.59407" lon="-3.84032">
        <ele>111</ele>
        <time>2021-07-08T08:06:15Z</time>
      </trkpt>
      <trkpt lat="48.59403" lon="-3.84032">
        <ele>111</ele>
        <time>2021-07-08T08:06:16Z</time>
      </trkpt>
      <trkpt lat="48.59398" lon="-3.84031">
        <ele>111</ele>
        <time>2021-07-08T08:06:17Z</time>
      </trkpt>
      <trkpt lat="48.59394" lon="-3.84031">
        <ele>111</ele>
        <time>2021-07-08T08:06:19Z</time>
      </trkpt>
      <trkpt lat="48.5939" lon="-3.84031">
        <ele>111</ele>
        <time>2021-07-08T08:06:20Z</time>
      </trkpt>
      <trkpt lat="48.59385" lon="-3.8403">
        <ele>111</ele>
        <time>2021-07-08T08:06:21Z</time>
      </trkpt>
      <trkpt lat="48.59381" lon="-3.8403">
        <ele>107</ele>
        <time>2021-07-08T08:06:21Z</time>
      </trkpt>
      <trkpt lat="48.59376" lon="-3.84029">
        <ele>107</ele>
        <time>2021-07-08T08:06:22Z</time>
      </trkpt>
      <trkpt lat="48.59372" lon="-3.84028">
        <ele>107</ele>
        <time>2021-07-08T08:06:23Z</time>
      </trkpt>
      <trkpt lat="48.59367" lon="-3.84027">
        <ele>107</ele>
        <time>2021-07-08T08:06:24Z</time>
      </trkpt>
      <trkpt lat="48.59363" lon="-3.84026">
        <ele>107</ele>
        <time>2021-07-08T08:06:26Z</time>
      </trkpt>
      <trkpt lat="48.59358" lon="-3.84025">
        <ele>107</ele>
        <time>2021-07-08T08:06:26Z</time>
      </trkpt>
      <trkpt lat="48.59353" lon="-3.84023">
        <ele>107</ele>
        <time>2021-07-08T08:06:28Z</time>
      </trkpt>
      <trkpt lat="48.59349" lon="-3.84022">
        <ele>111</ele>
        <time>2021-07-08T08:06:29Z</time>
      </trkpt>
      <trkpt lat="48.59344" lon="-3.8402">
        <ele>111</ele>
        <time>2021-07-08T08:06:30Z</time>
      </trkpt>
      <trkpt lat="48.5934" lon="-3.84018">
        <ele>111</ele>
        <time>2021-07-08T08:06:31Z</time>
      </trkpt>
      <trkpt lat="48.59335" lon="-3.84017">
        <ele>111</ele>
        <time>2021-07-08T08:06:31Z</time>
      </trkpt>
      <trkpt lat="48.59331" lon="-3.84015">
        <ele>107</ele>
        <time>2021-07-08T08:06:32Z</time>
      </trkpt>
      <trkpt lat="48.59327" lon="-3.84012">
        <ele>107</ele>
        <time>2021-07-08T08:06:33Z</time>
      </trkpt>
      <trkpt lat="48.59322" lon="-3.8401">
        <ele>107</ele>
        <time>2021-07-08T08:06:34Z</time>
      </trkpt>
      <trkpt lat="48.59318" lon="-3.84008">
        <ele>107</ele>
        <time>2021-07-08T08:06:36Z</time>
      </trkpt>
      <trkpt lat="48.59313" lon="-3.84006">
        <ele>107</ele>
        <time>2021-07-08T08:06:36Z</time>
      </trkpt>
      <trkpt lat="48.59309" lon="-3.84004">
        <ele>107</ele>
        <time>2021-07-08T08:06:37Z</time>
      </trkpt>
      <trkpt lat="48.59304" lon="-3.84001">
        <ele>107</ele>
        <time>2021-07-08T08:06:38Z</time>
      </trkpt>
      <trkpt lat="48.593" lon="-3.83999">
        <ele>107</ele>
        <time>2021-07-08T08:06:39Z</time>
      </trkpt>
      <trkpt lat="48.59296" lon="-3.83996">
        <ele>107</ele>
        <time>2021-07-08T08:06:40Z</time>
      </trkpt>
      <trkpt lat="48.59292" lon="-3.83994">
        <ele>107</ele>
        <time>2021-07-08T08:06:41Z</time>
      </trkpt>
      <trkpt lat="48.59288" lon="-3.83991">
        <ele>107</ele>
        <time>2021-07-08T08:06:42Z</time>
      </trkpt>
      <trkpt lat="48.59283" lon="-3.83989">
        <ele>107</ele>
        <time>2021-07-08T08:06:44Z</time>
      </trkpt>
      <trkpt lat="48.59279" lon="-3.83986">
        <ele>107</ele>
        <time>2021-07-08T08:06:44Z</time>
      </trkpt>
      <trkpt lat="48.59275" lon="-3.83984">
        <ele>107</ele>
        <time>2021-07-08T08:06:45Z</time>
      </trkpt>
      <trkpt lat="48.59271" lon="-3.83982">
        <ele>107</ele>
        <time>2021-07-08T08:06:47Z</time>
      </trkpt>
      <trkpt lat="48.59266" lon="-3.8398">
        <ele>107</ele>
        <time>2021-07-08T08:06:47Z</time>
      </trkpt>
      <trkpt lat="48.59262" lon="-3.83977">
        <ele>107</ele>
        <time>2021-07-08T08:06:49Z</time>
      </trkpt>
      <trkpt lat="48.59258" lon="-3.83975">
        <ele>107</ele>
        <time>2021-07-08T08:06:49Z</time>
      </trkpt>
      <trkpt lat="48.59254" lon="-3.83973">
        <ele>107</ele>
        <time>2021-07-08T08:06:50Z</time>
      </trkpt>
      <trkpt lat="48.59249" lon="-3.8397">
        <ele>107</ele>
        <time>2021-07-08T08:06:52Z</time>
      </trkpt>
      <trkpt lat="48.59245" lon="-3.83968">
        <ele>107</ele>
        <time>2021-07-08T08:06:52Z</time>
      </trkpt>
      <trkpt lat="48.59241" lon="-3.83965">
        <ele>107</ele>
        <time>2021-07-08T08:06:54Z</time>
      </trkpt>
      <trkpt lat="48.59237" lon="-3.83963">
        <ele>107</ele>
        <time>2021-07-08T08:06:55Z</time>
      </trkpt>
      <trkpt lat="48.59232" lon="-3.83961">
        <ele>107</ele>
        <time>2021-07-08T08:06:56Z</time>
      </trkpt>
      <trkpt lat="48.59228" lon="-3.83958">
        <ele>107</ele>
        <time>2021-07-08T08:06:57Z</time>
      </trkpt>
      <trkpt lat="48.59224" lon="-3.83956">
        <ele>107</ele>
        <time>2021-07-08T08:06:57Z</time>
      </trkpt>
      <trkpt lat="48.5922" lon="-3.83954">
        <ele>107</ele>
        <time>2021-07-08T08:06:59Z</time>
      </trkpt>
      <trkpt lat="48.59216" lon="-3.83952">
        <ele>107</ele>
        <time>2021-07-08T08:06:59Z</time>
      </trkpt>
      <trkpt lat="48.59211" lon="-3.83949">
        <ele>107</ele>
        <time>2021-07-08T08:07:00Z</time>
      </trkpt>
      <trkpt lat="48.59207" lon="-3.83947">
        <ele>107</ele>
        <time>2021-07-08T08:07:02Z</time>
      </trkpt>
      <trkpt lat="48.59203" lon="-3.83944">
        <ele>107</ele>
        <time>2021-07-08T08:07:03Z</time>
      </trkpt>
      <trkpt lat="48.59199" lon="-3.83942">
        <ele>107</ele>
        <time>2021-07-08T08:07:04Z</time>
      </trkpt>
      <trkpt lat="48.59195" lon="-3.8394">
        <ele>107</ele>
        <time>2021-07-08T08:07:05Z</time>
      </trkpt>
      <trkpt lat="48.59191" lon="-3.83938">
        <ele>107</ele>
        <time>2021-07-08T08:07:05Z</time>
      </trkpt>
      <trkpt lat="48.59188" lon="-3.83936">
        <ele>107</ele>
        <time>2021-07-08T08:07:06Z</time>
      </trkpt>
      <trkpt lat="48.59184" lon="-3.83934">
        <ele>107</ele>
        <time>2021-07-08T08:07:08Z</time>
      </trkpt>
      <trkpt lat="48.59181" lon="-3.83931">
        <ele>107</ele>
        <time>2021-07-08T08:07:08Z</time>
      </trkpt>
      <trkpt lat="48.59178" lon="-3.83928">
        <ele>107</ele>
        <time>2021-07-08T08:07:09Z</time>
      </trkpt>
      <trkpt lat="48.59174" lon="-3.83924">
        <ele>107</ele>
        <time>2021-07-08T08:07:11Z</time>
      </trkpt>
      <trkpt lat="48.59171" lon="-3.83921">
        <ele>107</ele>
        <time>2021-07-08T08:07:12Z</time>
      </trkpt>
      <trkpt lat="48.59166" lon="-3.83918">
        <ele>107</ele>
        <time>2021-07-08T08:07:12Z</time>
      </trkpt>
      <trkpt lat="48.59161" lon="-3.83916">
        <ele>107</ele>
        <time>2021-07-08T08:07:13Z</time>
      </trkpt>
      <trkpt lat="48.59156" lon="-3.83915">
        <ele>107</ele>
        <time>2021-07-08T08:07:14Z</time>
      </trkpt>
      <trkpt lat="48.59152" lon="-3.83913">
        <ele>107</ele>
        <time>2021-07-08T08:07:16Z</time>
      </trkpt>
      <trkpt lat="48.59147" lon="-3.83911">
        <ele>107</ele>
        <time>2021-07-08T08:07:16Z</time>
      </trkpt>
      <trkpt lat="48.59143" lon="-3.83909">
        <ele>107</ele>
        <time>2021-07-08T08:07:18Z</time>
      </trkpt>
      <trkpt lat="48.59138" lon="-3.83906">
        <ele>107</ele>
        <time>2021-07-08T08:07:19Z</time>
      </trkpt>
      <trkpt lat="48.59134" lon="-3.83904">
        <ele>107</ele>
        <time>2021-07-08T08:07:20Z</time>
      </trkpt>
      <trkpt lat="48.5913" lon="-3.83902">
        <ele>107</ele>
        <time>2021-07-08T08:07:21Z</time>
      </trkpt>
      <trkpt lat="48.59126" lon="-3.839">
        <ele>107</ele>
        <time>2021-07-08T08:07:21Z</time>
      </trkpt>
      <trkpt lat="48.59122" lon="-3.83898">
        <ele>106</ele>
        <time>2021-07-08T08:07:22Z</time>
      </trkpt>
      <trkpt lat="48.59118" lon="-3.83896">
        <ele>106</ele>
        <time>2021-07-08T08:07:23Z</time>
      </trkpt>
      <trkpt lat="48.59113" lon="-3.83894">
        <ele>107</ele>
        <time>2021-07-08T08:07:24Z</time>
      </trkpt>
      <trkpt lat="48.59109" lon="-3.83892">
        <ele>107</ele>
        <time>2021-07-08T08:07:26Z</time>
      </trkpt>
      <trkpt lat="48.59105" lon="-3.8389">
        <ele>107</ele>
        <time>2021-07-08T08:07:26Z</time>
      </trkpt>
      <trkpt lat="48.59101" lon="-3.83888">
        <ele>107</ele>
        <time>2021-07-08T08:07:27Z</time>
      </trkpt>
      <trkpt lat="48.59097" lon="-3.83886">
        <ele>107</ele>
        <time>2021-07-08T08:07:29Z</time>
      </trkpt>
      <trkpt lat="48.59093" lon="-3.83884">
        <ele>107</ele>
        <time>2021-07-08T08:07:30Z</time>
      </trkpt>
      <trkpt lat="48.59089" lon="-3.83882">
        <ele>107</ele>
        <time>2021-07-08T08:07:31Z</time>
      </trkpt>
      <trkpt lat="48.59084" lon="-3.8388">
        <ele>107</ele>
        <time>2021-07-08T08:07:32Z</time>
      </trkpt>
      <trkpt lat="48.5908" lon="-3.83878">
        <ele>107</ele>
        <time>2021-07-08T08:07:33Z</time>
      </trkpt>
      <trkpt lat="48.59076" lon="-3.83876">
        <ele>107</ele>
        <time>2021-07-08T08:07:34Z</time>
      </trkpt>
      <trkpt lat="48.59073" lon="-3.83874">
        <ele>107</ele>
        <time>2021-07-08T08:07:35Z</time>
      </trkpt>
      <trkpt lat="48.59069" lon="-3.83872">
        <ele>107</ele>
        <time>2021-07-08T08:07:35Z</time>
      </trkpt>
      <trkpt lat="48.59065" lon="-3.8387">
        <ele>107</ele>
        <time>2021-07-08T08:07:37Z</time>
      </trkpt>
      <trkpt lat="48.5906" lon="-3.83868">
        <ele>111</ele>
        <time>2021-07-08T08:07:38Z</time>
      </trkpt>
      <trkpt lat="48.59057" lon="-3.83866">
        <ele>111</ele>
        <time>2021-07-08T08:07:39Z</time>
      </trkpt>
      <trkpt lat="48.59052" lon="-3.83864">
        <ele>111</ele>
        <time>2021-07-08T08:07:40Z</time>
      </trkpt>
      <trkpt lat="48.59048" lon="-3.83862">
        <ele>111</ele>
        <time>2021-07-08T08:07:41Z</time>
      </trkpt>
      <trkpt lat="48.59044" lon="-3.8386">
        <ele>107</ele>
        <time>2021-07-08T08:07:42Z</time>
      </trkpt>
      <trkpt lat="48.5904" lon="-3.83858">
        <ele>107</ele>
        <time>2021-07-08T08:07:43Z</time>
      </trkpt>
      <trkpt lat="48.59036" lon="-3.83856">
        <ele>107</ele>
        <time>2021-07-08T08:07:44Z</time>
      </trkpt>
      <trkpt lat="48.59032" lon="-3.83854">
        <ele>107</ele>
        <time>2021-07-08T08:07:45Z</time>
      </trkpt>
      <trkpt lat="48.59028" lon="-3.83852">
        <ele>107</ele>
        <time>2021-07-08T08:07:46Z</time>
      </trkpt>
      <trkpt lat="48.59024" lon="-3.8385">
        <ele>107</ele>
        <time>2021-07-08T08:07:46Z</time>
      </trkpt>
      <trkpt lat="48.5902" lon="-3.83848">
        <ele>111</ele>
        <time>2021-07-08T08:07:47Z</time>
      </trkpt>
      <trkpt lat="48.59016" lon="-3.83845">
        <ele>111</ele>
        <time>2021-07-08T08:07:48Z</time>
      </trkpt>
      <trkpt lat="48.59012" lon="-3.83843">
        <ele>111</ele>
        <time>2021-07-08T08:07:50Z</time>
      </trkpt>
      <trkpt lat="48.59008" lon="-3.83841">
        <ele>111</ele>
        <time>2021-07-08T08:07:51Z</time>
      </trkpt>
      <trkpt lat="48.59004" lon="-3.83839">
        <ele>111</ele>
        <time>2021-07-08T08:07:51Z</time>
      </trkpt>
      <trkpt lat="48.59" lon="-3.83837">
        <ele>111</ele>
        <time>2021-07-08T08:07:52Z</time>
      </trkpt>
      <trkpt lat="48.58996" lon="-3.83835">
        <ele>111</ele>
        <time>2021-07-08T08:07:53Z</time>
      </trkpt>
      <trkpt lat="48.58992" lon="-3.83833">
        <ele>107</ele>
        <time>2021-07-08T08:07:54Z</time>
      </trkpt>
      <trkpt lat="48.58988" lon="-3.83831">
        <ele>107</ele>
        <time>2021-07-08T08:07:55Z</time>
      </trkpt>
      <trkpt lat="48.58984" lon="-3.83829">
        <ele>107</ele>
        <time>2021-07-08T08:07:56Z</time>
      </trkpt>
      <trkpt lat="48.5898" lon="-3.83827">
        <ele>111</ele>
        <time>2021-07-08T08:07:58Z</time>
      </trkpt>
      <trkpt lat="48.58976" lon="-3.83825">
        <ele>111</ele>
        <time>2021-07-08T08:07:59Z</time>
      </trkpt>
      <trkpt lat="48.58972" lon="-3.83823">
        <ele>107</ele>
        <time>2021-07-08T08:08:00Z</time>
      </trkpt>
      <trkpt lat="48.58968" lon="-3.83821">
        <ele>107</ele>
        <time>2021-07-08T08:08:01Z</time>
      </trkpt>
      <trkpt lat="48.58965" lon="-3.83819">
        <ele>107</ele>
        <time>2021-07-08T08:08:02Z</time>
      </trkpt>
      <trkpt lat="48.58961" lon="-3.83817">
        <ele>107</ele>
        <time>2021-07-08T08:08:03Z</time>
      </trkpt>
      <trkpt lat="48.58957" lon="-3.83815">
        <ele>107</ele>
        <time>2021-07-08T08:08:04Z</time>
      </trkpt>
      <trkpt lat="48.58953" lon="-3.83813">
        <ele>107</ele>
        <time>2021-07-08T08:08:04Z</time>
      </trkpt>
      <trkpt lat="48.5895" lon="-3.83811">
        <ele>107</ele>
        <time>2021-07-08T08:08:05Z</time>
      </trkpt>
      <trkpt lat="48.58946" lon="-3.83809">
        <ele>107</ele>
        <time>2021-07-08T08:08:06Z</time>
      </trkpt>
      <trkpt lat="48.58943" lon="-3.83807">
        <ele>107</ele>
        <time>2021-07-08T08:08:07Z</time>
      </trkpt>
      <trkpt lat="48.58939" lon="-3.83805">
        <ele>106</ele>
        <time>2021-07-08T08:08:09Z</time>
      </trkpt>
      <trkpt lat="48.58936" lon="-3.83803">
        <ele>106</ele>
        <time>2021-07-08T08:08:10Z</time>
      </trkpt>
      <trkpt lat="48.58933" lon="-3.83801">
        <ele>106</ele>
        <time>2021-07-08T08:08:11Z</time>
      </trkpt>
      <trkpt lat="48.58929" lon="-3.83799">
        <ele>107</ele>
        <time>2021-07-08T08:08:11Z</time>
      </trkpt>
      <trkpt lat="48.58926" lon="-3.83797">
        <ele>107</ele>
        <time>2021-07-08T08:08:12Z</time>
      </trkpt>
      <trkpt lat="48.58922" lon="-3.83795">
        <ele>107</ele>
        <time>2021-07-08T08:08:13Z</time>
      </trkpt>
      <trkpt lat="48.58919" lon="-3.83793">
        <ele>107</ele>
        <time>2021-07-08T08:08:14Z</time>
      </trkpt>
      <trkpt lat="48.58915" lon="-3.83791">
        <ele>107</ele>
        <time>2021-07-08T08:08:15Z</time>
      </trkpt>
      <trkpt lat="48.58911" lon="-3.83789">
        <ele>107</ele>
        <time>2021-07-08T08:08:17Z</time>
      </trkpt>
      <trkpt lat="48.58908" lon="-3.83787">
        <ele>107</ele>
        <time>2021-07-08T08:08:18Z</time>
      </trkpt>
      <trkpt lat="48.58904" lon="-3.83785">
        <ele>107</ele>
        <time>2021-07-08T08:08:19Z</time>
      </trkpt>
      <trkpt lat="48.589" lon="-3.83783">
        <ele>107</ele>
        <time>2021-07-08T08:08:19Z</time>
      </trkpt>
      <trkpt lat="48.58897" lon="-3.83781">
        <ele>107</ele>
        <time>2021-07-08T08:08:20Z</time>
      </trkpt>
      <trkpt lat="48.58893" lon="-3.83779">
        <ele>107</ele>
        <time>2021-07-08T08:08:22Z</time>
      </trkpt>
      <trkpt lat="48.5889" lon="-3.83777">
        <ele>107</ele>
        <time>2021-07-08T08:08:23Z</time>
      </trkpt>
      <trkpt lat="48.58886" lon="-3.83775">
        <ele>107</ele>
        <time>2021-07-08T08:08:23Z</time>
      </trkpt>
      <trkpt lat="48.58882" lon="-3.83773">
        <ele>107</ele>
        <time>2021-07-08T08:08:24Z</time>
      </trkpt>
      <trkpt lat="48.58879" lon="-3.83771">
        <ele>107</ele>
        <time>2021-07-08T08:08:25Z</time>
      </trkpt>
      <trkpt lat="48.58875" lon="-3.83769">
        <ele>107</ele>
        <time>2021-07-08T08:08:26Z</time>
      </trkpt>
      <trkpt lat="48.58871" lon="-3.83767">
        <ele>107</ele>
        <time>2021-07-08T08:08:28Z</time>
      </trkpt>
      <trkpt lat="48.58867" lon="-3.83765">
        <ele>107</ele>
        <time>2021-07-08T08:08:28Z</time>
      </trkpt>
      <trkpt lat="48.58863" lon="-3.83763">
        <ele>111</ele>
        <time>2021-07-08T08:08:29Z</time>
      </trkpt>
      <trkpt lat="48.58859" lon="-3.83761">
        <ele>111</ele>
        <time>2021-07-08T08:08:30Z</time>
      </trkpt>
      <trkpt lat="48.58855" lon="-3.83759">
        <ele>111</ele>
        <time>2021-07-08T08:08:31Z</time>
      </trkpt>
      <trkpt lat="48.58851" lon="-3.83757">
        <ele>111</ele>
        <time>2021-07-08T08:08:32Z</time>
      </trkpt>
      <trkpt lat="48.58847" lon="-3.83754">
        <ele>111</ele>
        <time>2021-07-08T08:08:33Z</time>
      </trkpt>
      <trkpt lat="48.58842" lon="-3.83752">
        <ele>111</ele>
        <time>2021-07-08T08:08:34Z</time>
      </trkpt>
      <trkpt lat="48.58838" lon="-3.8375">
        <ele>111</ele>
        <time>2021-07-08T08:08:36Z</time>
      </trkpt>
      <trkpt lat="48.58834" lon="-3.83748">
        <ele>107</ele>
        <time>2021-07-08T08:08:36Z</time>
      </trkpt>
      <trkpt lat="48.5883" lon="-3.83745">
        <ele>107</ele>
        <time>2021-07-08T08:08:37Z</time>
      </trkpt>
      <trkpt lat="48.58826" lon="-3.83743">
        <ele>107</ele>
        <time>2021-07-08T08:08:38Z</time>
      </trkpt>
      <trkpt lat="48.58822" lon="-3.8374">
        <ele>107</ele>
        <time>2021-07-08T08:08:40Z</time>
      </trkpt>
      <trkpt lat="48.58818" lon="-3.83738">
        <ele>107</ele>
        <time>2021-07-08T08:08:41Z</time>
      </trkpt>
      <trkpt lat="48.58814" lon="-3.83735">
        <ele>107</ele>
        <time>2021-07-08T08:08:42Z</time>
      </trkpt>
      <trkpt lat="48.58809" lon="-3.83733">
        <ele>107</ele>
        <time>2021-07-08T08:08:43Z</time>
      </trkpt>
      <trkpt lat="48.58805" lon="-3.83731">
        <ele>111</ele>
        <time>2021-07-08T08:08:44Z</time>
      </trkpt>
      <trkpt lat="48.58801" lon="-3.83728">
        <ele>111</ele>
        <time>2021-07-08T08:08:45Z</time>
      </trkpt>
      <trkpt lat="48.58797" lon="-3.83725">
        <ele>111</ele>
        <time>2021-07-08T08:08:46Z</time>
      </trkpt>
      <trkpt lat="48.58794" lon="-3.83722">
        <ele>111</ele>
        <time>2021-07-08T08:08:46Z</time>
      </trkpt>
      <trkpt lat="48.5879" lon="-3.83718">
        <ele>111</ele>
        <time>2021-07-08T08:08:48Z</time>
      </trkpt>
      <trkpt lat="48.58787" lon="-3.83715">
        <ele>111</ele>
        <time>2021-07-08T08:08:49Z</time>
      </trkpt>
      <trkpt lat="48.58784" lon="-3.83712">
        <ele>112</ele>
        <time>2021-07-08T08:08:50Z</time>
      </trkpt>
      <trkpt lat="48.58781" lon="-3.83709">
        <ele>112</ele>
        <time>2021-07-08T08:08:51Z</time>
      </trkpt>
      <trkpt lat="48.58778" lon="-3.83707">
        <ele>112</ele>
        <time>2021-07-08T08:08:51Z</time>
      </trkpt>
      <trkpt lat="48.58774" lon="-3.83704">
        <ele>112</ele>
        <time>2021-07-08T08:08:53Z</time>
      </trkpt>
      <trkpt lat="48.58771" lon="-3.83703">
        <ele>112</ele>
        <time>2021-07-08T08:08:54Z</time>
      </trkpt>
      <trkpt lat="48.58767" lon="-3.83701">
        <ele>112</ele>
        <time>2021-07-08T08:08:55Z</time>
      </trkpt>
      <trkpt lat="48.58763" lon="-3.837">
        <ele>112</ele>
        <time>2021-07-08T08:08:56Z</time>
      </trkpt>
      <trkpt lat="48.58759" lon="-3.83698">
        <ele>112</ele>
        <time>2021-07-08T08:08:57Z</time>
      </trkpt>
      <trkpt lat="48.58755" lon="-3.83697">
        <ele>112</ele>
        <time>2021-07-08T08:08:58Z</time>
      </trkpt>
      <trkpt lat="48.58751" lon="-3.83696">
        <ele>112</ele>
        <time>2021-07-08T08:08:59Z</time>
      </trkpt>
      <trkpt lat="48.58746" lon="-3.83695">
        <ele>111</ele>
        <time>2021-07-08T08:09:00Z</time>
      </trkpt>
      <trkpt lat="48.58742" lon="-3.83693">
        <ele>111</ele>
        <time>2021-07-08T08:09:01Z</time>
      </trkpt>
      <trkpt lat="48.58738" lon="-3.83691">
        <ele>111</ele>
        <time>2021-07-08T08:09:02Z</time>
      </trkpt>
      <trkpt lat="48.58733" lon="-3.83689">
        <ele>111</ele>
        <time>2021-07-08T08:09:03Z</time>
      </trkpt>
      <trkpt lat="48.58729" lon="-3.83686">
        <ele>111</ele>
        <time>2021-07-08T08:09:04Z</time>
      </trkpt>
      <trkpt lat="48.58724" lon="-3.83683">
        <ele>111</ele>
        <time>2021-07-08T08:09:05Z</time>
      </trkpt>
      <trkpt lat="48.5872" lon="-3.83681">
        <ele>111</ele>
        <time>2021-07-08T08:09:06Z</time>
      </trkpt>
      <trkpt lat="48.58716" lon="-3.83678">
        <ele>111</ele>
        <time>2021-07-08T08:09:07Z</time>
      </trkpt>
      <trkpt lat="48.58711" lon="-3.83675">
        <ele>111</ele>
        <time>2021-07-08T08:09:08Z</time>
      </trkpt>
      <trkpt lat="48.58707" lon="-3.83672">
        <ele>111</ele>
        <time>2021-07-08T08:09:09Z</time>
      </trkpt>
      <trkpt lat="48.58702" lon="-3.8367">
        <ele>111</ele>
        <time>2021-07-08T08:09:10Z</time>
      </trkpt>
      <trkpt lat="48.58698" lon="-3.83667">
        <ele>111</ele>
        <time>2021-07-08T08:09:10Z</time>
      </trkpt>
      <trkpt lat="48.58694" lon="-3.83664">
        <ele>111</ele>
        <time>2021-07-08T08:09:12Z</time>
      </trkpt>
      <trkpt lat="48.5869" lon="-3.83661">
        <ele>111</ele>
        <time>2021-07-08T08:09:12Z</time>
      </trkpt>
      <trkpt lat="48.58686" lon="-3.83658">
        <ele>111</ele>
        <time>2021-07-08T08:09:13Z</time>
      </trkpt>
      <trkpt lat="48.58681" lon="-3.83656">
        <ele>111</ele>
        <time>2021-07-08T08:09:14Z</time>
      </trkpt>
      <trkpt lat="48.58677" lon="-3.83653">
        <ele>111</ele>
        <time>2021-07-08T08:09:15Z</time>
      </trkpt>
      <trkpt lat="48.58673" lon="-3.83651">
        <ele>111</ele>
        <time>2021-07-08T08:09:16Z</time>
      </trkpt>
      <trkpt lat="48.58669" lon="-3.83648">
        <ele>111</ele>
        <time>2021-07-08T08:09:18Z</time>
      </trkpt>
      <trkpt lat="48.58665" lon="-3.83646">
        <ele>111</ele>
        <time>2021-07-08T08:09:19Z</time>
      </trkpt>
      <trkpt lat="48.58661" lon="-3.83643">
        <ele>111</ele>
        <time>2021-07-08T08:09:20Z</time>
      </trkpt>
      <trkpt lat="48.58658" lon="-3.83641">
        <ele>111</ele>
        <time>2021-07-08T08:09:21Z</time>
      </trkpt>
      <trkpt lat="48.58654" lon="-3.83639">
        <ele>111</ele>
        <time>2021-07-08T08:09:22Z</time>
      </trkpt>
      <trkpt lat="48.5865" lon="-3.83637">
        <ele>111</ele>
        <time>2021-07-08T08:09:23Z</time>
      </trkpt>
      <trkpt lat="48.58647" lon="-3.83634">
        <ele>112</ele>
        <time>2021-07-08T08:09:24Z</time>
      </trkpt>
      <trkpt lat="48.58643" lon="-3.83632">
        <ele>112</ele>
        <time>2021-07-08T08:09:25Z</time>
      </trkpt>
      <trkpt lat="48.58639" lon="-3.8363">
        <ele>112</ele>
        <time>2021-07-08T08:09:26Z</time>
      </trkpt>
      <trkpt lat="48.58636" lon="-3.83628">
        <ele>112</ele>
        <time>2021-07-08T08:09:27Z</time>
      </trkpt>
      <trkpt lat="48.58632" lon="-3.83626">
        <ele>112</ele>
        <time>2021-07-08T08:09:28Z</time>
      </trkpt>
      <trkpt lat="48.58629" lon="-3.83624">
        <ele>111</ele>
        <time>2021-07-08T08:09:29Z</time>
      </trkpt>
      <trkpt lat="48.58621" lon="-3.83619">
        <ele>111</ele>
        <time>2021-07-08T08:09:31Z</time>
      </trkpt>
      <trkpt lat="48.58618" lon="-3.83617">
        <ele>107</ele>
        <time>2021-07-08T08:09:31Z</time>
      </trkpt>
      <trkpt lat="48.58614" lon="-3.83614">
        <ele>107</ele>
        <time>2021-07-08T08:09:33Z</time>
      </trkpt>
      <trkpt lat="48.5861" lon="-3.83612">
        <ele>107</ele>
        <time>2021-07-08T08:09:34Z</time>
      </trkpt>
      <trkpt lat="48.58606" lon="-3.83609">
        <ele>107</ele>
        <time>2021-07-08T08:09:35Z</time>
      </trkpt>
      <trkpt lat="48.58602" lon="-3.83607">
        <ele>107</ele>
        <time>2021-07-08T08:09:36Z</time>
      </trkpt>
      <trkpt lat="48.58599" lon="-3.83604">
        <ele>107</ele>
        <time>2021-07-08T08:09:37Z</time>
      </trkpt>
      <trkpt lat="48.58595" lon="-3.83601">
        <ele>107</ele>
        <time>2021-07-08T08:09:38Z</time>
      </trkpt>
      <trkpt lat="48.58591" lon="-3.83598">
        <ele>107</ele>
        <time>2021-07-08T08:09:39Z</time>
      </trkpt>
      <trkpt lat="48.58588" lon="-3.83594">
        <ele>107</ele>
        <time>2021-07-08T08:09:40Z</time>
      </trkpt>
      <trkpt lat="48.58585" lon="-3.83589">
        <ele>111</ele>
        <time>2021-07-08T08:09:41Z</time>
      </trkpt>
      <trkpt lat="48.58581" lon="-3.83585">
        <ele>111</ele>
        <time>2021-07-08T08:09:42Z</time>
      </trkpt>
      <trkpt lat="48.58578" lon="-3.83581">
        <ele>111</ele>
        <time>2021-07-08T08:09:43Z</time>
      </trkpt>
      <trkpt lat="48.58575" lon="-3.83577">
        <ele>111</ele>
        <time>2021-07-08T08:09:43Z</time>
      </trkpt>
      <trkpt lat="48.58571" lon="-3.83573">
        <ele>111</ele>
        <time>2021-07-08T08:09:45Z</time>
      </trkpt>
      <trkpt lat="48.58568" lon="-3.83568">
        <ele>111</ele>
        <time>2021-07-08T08:09:46Z</time>
      </trkpt>
      <trkpt lat="48.58564" lon="-3.83564">
        <ele>111</ele>
        <time>2021-07-08T08:09:47Z</time>
      </trkpt>
      <trkpt lat="48.58561" lon="-3.8356">
        <ele>111</ele>
        <time>2021-07-08T08:09:48Z</time>
      </trkpt>
      <trkpt lat="48.58554" lon="-3.83551">
        <ele>111</ele>
        <time>2021-07-08T08:09:49Z</time>
      </trkpt>
      <trkpt lat="48.58551" lon="-3.83547">
        <ele>111</ele>
        <time>2021-07-08T08:09:50Z</time>
      </trkpt>
      <trkpt lat="48.58547" lon="-3.83542">
        <ele>111</ele>
        <time>2021-07-08T08:09:51Z</time>
      </trkpt>
      <trkpt lat="48.58544" lon="-3.83538">
        <ele>111</ele>
        <time>2021-07-08T08:09:52Z</time>
      </trkpt>
      <trkpt lat="48.5854" lon="-3.83534">
        <ele>111</ele>
        <time>2021-07-08T08:09:53Z</time>
      </trkpt>
      <trkpt lat="48.58537" lon="-3.83529">
        <ele>111</ele>
        <time>2021-07-08T08:09:55Z</time>
      </trkpt>
      <trkpt lat="48.58534" lon="-3.83525">
        <ele>111</ele>
        <time>2021-07-08T08:09:55Z</time>
      </trkpt>
      <trkpt lat="48.5853" lon="-3.83521">
        <ele>111</ele>
        <time>2021-07-08T08:09:56Z</time>
      </trkpt>
      <trkpt lat="48.58527" lon="-3.83517">
        <ele>111</ele>
        <time>2021-07-08T08:09:57Z</time>
      </trkpt>
      <trkpt lat="48.58524" lon="-3.83513">
        <ele>111</ele>
        <time>2021-07-08T08:09:58Z</time>
      </trkpt>
      <trkpt lat="48.58521" lon="-3.83508">
        <ele>107</ele>
        <time>2021-07-08T08:09:59Z</time>
      </trkpt>
      <trkpt lat="48.58517" lon="-3.83504">
        <ele>107</ele>
        <time>2021-07-08T08:10:01Z</time>
      </trkpt>
      <trkpt lat="48.58514" lon="-3.835">
        <ele>107</ele>
        <time>2021-07-08T08:10:01Z</time>
      </trkpt>
      <trkpt lat="48.58511" lon="-3.83496">
        <ele>111</ele>
        <time>2021-07-08T08:10:03Z</time>
      </trkpt>
      <trkpt lat="48.58508" lon="-3.83492">
        <ele>111</ele>
        <time>2021-07-08T08:10:03Z</time>
      </trkpt>
      <trkpt lat="48.58504" lon="-3.83488">
        <ele>111</ele>
        <time>2021-07-08T08:10:05Z</time>
      </trkpt>
      <trkpt lat="48.58501" lon="-3.83483">
        <ele>111</ele>
        <time>2021-07-08T08:10:05Z</time>
      </trkpt>
      <trkpt lat="48.58498" lon="-3.83479">
        <ele>111</ele>
        <time>2021-07-08T08:10:07Z</time>
      </trkpt>
      <trkpt lat="48.58495" lon="-3.83475">
        <ele>111</ele>
        <time>2021-07-08T08:10:07Z</time>
      </trkpt>
      <trkpt lat="48.58491" lon="-3.83471">
        <ele>111</ele>
        <time>2021-07-08T08:10:09Z</time>
      </trkpt>
      <trkpt lat="48.58488" lon="-3.83467">
        <ele>111</ele>
        <time>2021-07-08T08:10:09Z</time>
      </trkpt>
      <trkpt lat="48.58485" lon="-3.83462">
        <ele>111</ele>
        <time>2021-07-08T08:10:11Z</time>
      </trkpt>
      <trkpt lat="48.58482" lon="-3.83458">
        <ele>111</ele>
        <time>2021-07-08T08:10:11Z</time>
      </trkpt>
      <trkpt lat="48.58479" lon="-3.83453">
        <ele>111</ele>
        <time>2021-07-08T08:10:13Z</time>
      </trkpt>
      <trkpt lat="48.58476" lon="-3.83448">
        <ele>111</ele>
        <time>2021-07-08T08:10:14Z</time>
      </trkpt>
      <trkpt lat="48.58473" lon="-3.83443">
        <ele>111</ele>
        <time>2021-07-08T08:10:15Z</time>
      </trkpt>
      <trkpt lat="48.58469" lon="-3.83438">
        <ele>111</ele>
        <time>2021-07-08T08:10:16Z</time>
      </trkpt>
      <trkpt lat="48.58465" lon="-3.83434">
        <ele>111</ele>
        <time>2021-07-08T08:10:17Z</time>
      </trkpt>
      <trkpt lat="48.58462" lon="-3.8343">
        <ele>111</ele>
        <time>2021-07-08T08:10:18Z</time>
      </trkpt>
      <trkpt lat="48.58458" lon="-3.83426">
        <ele>111</ele>
        <time>2021-07-08T08:10:19Z</time>
      </trkpt>
      <trkpt lat="48.58454" lon="-3.83422">
        <ele>111</ele>
        <time>2021-07-08T08:10:20Z</time>
      </trkpt>
      <trkpt lat="48.5845" lon="-3.83419">
        <ele>111</ele>
        <time>2021-07-08T08:10:21Z</time>
      </trkpt>
      <trkpt lat="48.58446" lon="-3.83416">
        <ele>111</ele>
        <time>2021-07-08T08:10:22Z</time>
      </trkpt>
      <trkpt lat="48.58442" lon="-3.83412">
        <ele>111</ele>
        <time>2021-07-08T08:10:22Z</time>
      </trkpt>
      <trkpt lat="48.58439" lon="-3.8341">
        <ele>111</ele>
        <time>2021-07-08T08:10:23Z</time>
      </trkpt>
      <trkpt lat="48.58435" lon="-3.83407">
        <ele>111</ele>
        <time>2021-07-08T08:10:24Z</time>
      </trkpt>
      <trkpt lat="48.58431" lon="-3.83404">
        <ele>111</ele>
        <time>2021-07-08T08:10:25Z</time>
      </trkpt>
      <trkpt lat="48.58427" lon="-3.83402">
        <ele>111</ele>
        <time>2021-07-08T08:10:26Z</time>
      </trkpt>
      <trkpt lat="48.58423" lon="-3.834">
        <ele>111</ele>
        <time>2021-07-08T08:10:27Z</time>
      </trkpt>
      <trkpt lat="48.58419" lon="-3.83398">
        <ele>111</ele>
        <time>2021-07-08T08:10:29Z</time>
      </trkpt>
      <trkpt lat="48.58415" lon="-3.83396">
        <ele>111</ele>
        <time>2021-07-08T08:10:30Z</time>
      </trkpt>
      <trkpt lat="48.58411" lon="-3.83395">
        <ele>111</ele>
        <time>2021-07-08T08:10:31Z</time>
      </trkpt>
      <trkpt lat="48.58407" lon="-3.83394">
        <ele>107</ele>
        <time>2021-07-08T08:10:32Z</time>
      </trkpt>
      <trkpt lat="48.58402" lon="-3.83392">
        <ele>107</ele>
        <time>2021-07-08T08:10:33Z</time>
      </trkpt>
      <trkpt lat="48.58398" lon="-3.83391">
        <ele>111</ele>
        <time>2021-07-08T08:10:34Z</time>
      </trkpt>
      <trkpt lat="48.58394" lon="-3.8339">
        <ele>111</ele>
        <time>2021-07-08T08:10:35Z</time>
      </trkpt>
      <trkpt lat="48.5839" lon="-3.83388">
        <ele>111</ele>
        <time>2021-07-08T08:10:36Z</time>
      </trkpt>
      <trkpt lat="48.58386" lon="-3.83386">
        <ele>111</ele>
        <time>2021-07-08T08:10:37Z</time>
      </trkpt>
      <trkpt lat="48.58382" lon="-3.83385">
        <ele>111</ele>
        <time>2021-07-08T08:10:37Z</time>
      </trkpt>
      <trkpt lat="48.58378" lon="-3.83383">
        <ele>111</ele>
        <time>2021-07-08T08:10:39Z</time>
      </trkpt>
      <trkpt lat="48.58374" lon="-3.8338">
        <ele>111</ele>
        <time>2021-07-08T08:10:40Z</time>
      </trkpt>
      <trkpt lat="48.5837" lon="-3.83377">
        <ele>111</ele>
        <time>2021-07-08T08:10:41Z</time>
      </trkpt>
      <trkpt lat="48.58366" lon="-3.83374">
        <ele>107</ele>
        <time>2021-07-08T08:10:42Z</time>
      </trkpt>
      <trkpt lat="48.58362" lon="-3.83371">
        <ele>107</ele>
        <time>2021-07-08T08:10:43Z</time>
      </trkpt>
      <trkpt lat="48.58358" lon="-3.83368">
        <ele>107</ele>
        <time>2021-07-08T08:10:44Z</time>
      </trkpt>
      <trkpt lat="48.58354" lon="-3.83365">
        <ele>107</ele>
        <time>2021-07-08T08:10:45Z</time>
      </trkpt>
      <trkpt lat="48.5835" lon="-3.83362">
        <ele>107</ele>
        <time>2021-07-08T08:10:45Z</time>
      </trkpt>
      <trkpt lat="48.58346" lon="-3.83358">
        <ele>107</ele>
        <time>2021-07-08T08:10:47Z</time>
      </trkpt>
      <trkpt lat="48.58343" lon="-3.83355">
        <ele>107</ele>
        <time>2021-07-08T08:10:48Z</time>
      </trkpt>
      <trkpt lat="48.58339" lon="-3.83352">
        <ele>107</ele>
        <time>2021-07-08T08:10:49Z</time>
      </trkpt>
      <trkpt lat="48.58335" lon="-3.83349">
        <ele>107</ele>
        <time>2021-07-08T08:10:50Z</time>
      </trkpt>
      <trkpt lat="48.58331" lon="-3.83345">
        <ele>111</ele>
        <time>2021-07-08T08:10:51Z</time>
      </trkpt>
      <trkpt lat="48.58327" lon="-3.83342">
        <ele>111</ele>
        <time>2021-07-08T08:10:51Z</time>
      </trkpt>
      <trkpt lat="48.58323" lon="-3.83339">
        <ele>111</ele>
        <time>2021-07-08T08:10:52Z</time>
      </trkpt>
      <trkpt lat="48.58319" lon="-3.83335">
        <ele>111</ele>
        <time>2021-07-08T08:10:53Z</time>
      </trkpt>
      <trkpt lat="48.58315" lon="-3.83332">
        <ele>111</ele>
        <time>2021-07-08T08:10:55Z</time>
      </trkpt>
      <trkpt lat="48.58312" lon="-3.83329">
        <ele>111</ele>
        <time>2021-07-08T08:10:56Z</time>
      </trkpt>
      <trkpt lat="48.58308" lon="-3.83325">
        <ele>111</ele>
        <time>2021-07-08T08:10:57Z</time>
      </trkpt>
      <trkpt lat="48.58304" lon="-3.83322">
        <ele>111</ele>
        <time>2021-07-08T08:10:57Z</time>
      </trkpt>
      <trkpt lat="48.583" lon="-3.83319">
        <ele>111</ele>
        <time>2021-07-08T08:10:58Z</time>
      </trkpt>
      <trkpt lat="48.58297" lon="-3.83316">
        <ele>111</ele>
        <time>2021-07-08T08:10:59Z</time>
      </trkpt>
      <trkpt lat="48.58293" lon="-3.83313">
        <ele>111</ele>
        <time>2021-07-08T08:11:00Z</time>
      </trkpt>
      <trkpt lat="48.58289" lon="-3.83309">
        <ele>111</ele>
        <time>2021-07-08T08:11:01Z</time>
      </trkpt>
      <trkpt lat="48.58286" lon="-3.83306">
        <ele>111</ele>
        <time>2021-07-08T08:11:02Z</time>
      </trkpt>
      <trkpt lat="48.58282" lon="-3.83303">
        <ele>111</ele>
        <time>2021-07-08T08:11:03Z</time>
      </trkpt>
      <trkpt lat="48.58278" lon="-3.833">
        <ele>111</ele>
        <time>2021-07-08T08:11:04Z</time>
      </trkpt>
      <trkpt lat="48.58274" lon="-3.83297">
        <ele>111</ele>
        <time>2021-07-08T08:11:05Z</time>
      </trkpt>
      <trkpt lat="48.58271" lon="-3.83294">
        <ele>111</ele>
        <time>2021-07-08T08:11:07Z</time>
      </trkpt>
      <trkpt lat="48.58267" lon="-3.83291">
        <ele>111</ele>
        <time>2021-07-08T08:11:08Z</time>
      </trkpt>
      <trkpt lat="48.58263" lon="-3.83287">
        <ele>111</ele>
        <time>2021-07-08T08:11:09Z</time>
      </trkpt>
      <trkpt lat="48.5826" lon="-3.83284">
        <ele>111</ele>
        <time>2021-07-08T08:11:10Z</time>
      </trkpt>
      <trkpt lat="48.58256" lon="-3.83281">
        <ele>111</ele>
        <time>2021-07-08T08:11:11Z</time>
      </trkpt>
      <trkpt lat="48.58253" lon="-3.83278">
        <ele>111</ele>
        <time>2021-07-08T08:11:11Z</time>
      </trkpt>
      <trkpt lat="48.58249" lon="-3.83275">
        <ele>111</ele>
        <time>2021-07-08T08:11:12Z</time>
      </trkpt>
      <trkpt lat="48.58246" lon="-3.83272">
        <ele>107</ele>
        <time>2021-07-08T08:11:14Z</time>
      </trkpt>
      <trkpt lat="48.58243" lon="-3.8327">
        <ele>107</ele>
        <time>2021-07-08T08:11:15Z</time>
      </trkpt>
      <trkpt lat="48.58239" lon="-3.83267">
        <ele>107</ele>
        <time>2021-07-08T08:11:16Z</time>
      </trkpt>
      <trkpt lat="48.58236" lon="-3.83264">
        <ele>107</ele>
        <time>2021-07-08T08:11:16Z</time>
      </trkpt>
      <trkpt lat="48.58232" lon="-3.83262">
        <ele>107</ele>
        <time>2021-07-08T08:11:18Z</time>
      </trkpt>
      <trkpt lat="48.58229" lon="-3.83259">
        <ele>107</ele>
        <time>2021-07-08T08:11:18Z</time>
      </trkpt>
      <trkpt lat="48.58226" lon="-3.83256">
        <ele>107</ele>
        <time>2021-07-08T08:11:19Z</time>
      </trkpt>
      <trkpt lat="48.58222" lon="-3.83252">
        <ele>107</ele>
        <time>2021-07-08T08:11:21Z</time>
      </trkpt>
      <trkpt lat="48.58219" lon="-3.8325">
        <ele>107</ele>
        <time>2021-07-08T08:11:21Z</time>
      </trkpt>
      <trkpt lat="48.58216" lon="-3.83247">
        <ele>107</ele>
        <time>2021-07-08T08:11:23Z</time>
      </trkpt>
      <trkpt lat="48.58212" lon="-3.83244">
        <ele>107</ele>
        <time>2021-07-08T08:11:23Z</time>
      </trkpt>
      <trkpt lat="48.58209" lon="-3.83242">
        <ele>107</ele>
        <time>2021-07-08T08:11:25Z</time>
      </trkpt>
      <trkpt lat="48.58205" lon="-3.83239">
        <ele>107</ele>
        <time>2021-07-08T08:11:25Z</time>
      </trkpt>
      <trkpt lat="48.58202" lon="-3.83236">
        <ele>107</ele>
        <time>2021-07-08T08:11:27Z</time>
      </trkpt>
      <trkpt lat="48.58199" lon="-3.83233">
        <ele>107</ele>
        <time>2021-07-08T08:11:28Z</time>
      </trkpt>
      <trkpt lat="48.58195" lon="-3.83231">
        <ele>107</ele>
        <time>2021-07-08T08:11:29Z</time>
      </trkpt>
      <trkpt lat="48.58192" lon="-3.83227">
        <ele>107</ele>
        <time>2021-07-08T08:11:30Z</time>
      </trkpt>
      <trkpt lat="48.58189" lon="-3.83224">
        <ele>107</ele>
        <time>2021-07-08T08:11:31Z</time>
      </trkpt>
      <trkpt lat="48.58187" lon="-3.8322">
        <ele>107</ele>
        <time>2021-07-08T08:11:32Z</time>
      </trkpt>
      <trkpt lat="48.58184" lon="-3.83215">
        <ele>107</ele>
        <time>2021-07-08T08:11:33Z</time>
      </trkpt>
      <trkpt lat="48.58181" lon="-3.83212">
        <ele>107</ele>
        <time>2021-07-08T08:11:34Z</time>
      </trkpt>
      <trkpt lat="48.58178" lon="-3.83208">
        <ele>107</ele>
        <time>2021-07-08T08:11:35Z</time>
      </trkpt>
      <trkpt lat="48.58175" lon="-3.83205">
        <ele>107</ele>
        <time>2021-07-08T08:11:36Z</time>
      </trkpt>
      <trkpt lat="48.58172" lon="-3.83202">
        <ele>107</ele>
        <time>2021-07-08T08:11:37Z</time>
      </trkpt>
      <trkpt lat="48.58169" lon="-3.83201">
        <ele>107</ele>
        <time>2021-07-08T08:11:38Z</time>
      </trkpt>
      <trkpt lat="48.58166" lon="-3.83201">
        <ele>107</ele>
        <time>2021-07-08T08:11:38Z</time>
      </trkpt>
      <trkpt lat="48.58163" lon="-3.83202">
        <ele>107</ele>
        <time>2021-07-08T08:11:40Z</time>
      </trkpt>
      <trkpt lat="48.58161" lon="-3.83204">
        <ele>107</ele>
        <time>2021-07-08T08:11:41Z</time>
      </trkpt>
      <trkpt lat="48.58159" lon="-3.83207">
        <ele>107</ele>
        <time>2021-07-08T08:11:42Z</time>
      </trkpt>
      <trkpt lat="48.58156" lon="-3.83209">
        <ele>107</ele>
        <time>2021-07-08T08:11:42Z</time>
      </trkpt>
      <trkpt lat="48.58154" lon="-3.83212">
        <ele>107</ele>
        <time>2021-07-08T08:11:44Z</time>
      </trkpt>
      <trkpt lat="48.58151" lon="-3.83213">
        <ele>107</ele>
        <time>2021-07-08T08:11:45Z</time>
      </trkpt>
      <trkpt lat="48.58148" lon="-3.83214">
        <ele>107</ele>
        <time>2021-07-08T08:11:46Z</time>
      </trkpt>
      <trkpt lat="48.58144" lon="-3.83214">
        <ele>107</ele>
        <time>2021-07-08T08:11:47Z</time>
      </trkpt>
      <trkpt lat="48.58141" lon="-3.83213">
        <ele>107</ele>
        <time>2021-07-08T08:11:47Z</time>
      </trkpt>
      <trkpt lat="48.58138" lon="-3.83212">
        <ele>107</ele>
        <time>2021-07-08T08:11:48Z</time>
      </trkpt>
      <trkpt lat="48.58135" lon="-3.83209">
        <ele>107</ele>
        <time>2021-07-08T08:11:49Z</time>
      </trkpt>
      <trkpt lat="48.58132" lon="-3.83206">
        <ele>107</ele>
        <time>2021-07-08T08:11:50Z</time>
      </trkpt>
      <trkpt lat="48.5813" lon="-3.83203">
        <ele>107</ele>
        <time>2021-07-08T08:11:51Z</time>
      </trkpt>
      <trkpt lat="48.58127" lon="-3.832">
        <ele>107</ele>
        <time>2021-07-08T08:11:53Z</time>
      </trkpt>
      <trkpt lat="48.58125" lon="-3.83197">
        <ele>107</ele>
        <time>2021-07-08T08:11:53Z</time>
      </trkpt>
      <trkpt lat="48.58123" lon="-3.83194">
        <ele>107</ele>
        <time>2021-07-08T08:11:54Z</time>
      </trkpt>
      <trkpt lat="48.58121" lon="-3.8319">
        <ele>111</ele>
        <time>2021-07-08T08:11:55Z</time>
      </trkpt>
      <trkpt lat="48.58119" lon="-3.83187">
        <ele>111</ele>
        <time>2021-07-08T08:11:56Z</time>
      </trkpt>
      <trkpt lat="48.58116" lon="-3.83184">
        <ele>111</ele>
        <time>2021-07-08T08:11:57Z</time>
      </trkpt>
      <trkpt lat="48.58114" lon="-3.83181">
        <ele>111</ele>
        <time>2021-07-08T08:11:59Z</time>
      </trkpt>
      <trkpt lat="48.58112" lon="-3.83178">
        <ele>111</ele>
        <time>2021-07-08T08:11:59Z</time>
      </trkpt>
      <trkpt lat="48.5811" lon="-3.83176">
        <ele>111</ele>
        <time>2021-07-08T08:12:00Z</time>
      </trkpt>
      <trkpt lat="48.58108" lon="-3.83174">
        <ele>111</ele>
        <time>2021-07-08T08:12:01Z</time>
      </trkpt>
      <trkpt lat="48.58106" lon="-3.83172">
        <ele>111</ele>
        <time>2021-07-08T08:12:02Z</time>
      </trkpt>
      <trkpt lat="48.58104" lon="-3.83171">
        <ele>111</ele>
        <time>2021-07-08T08:12:04Z</time>
      </trkpt>
      <trkpt lat="48.58104" lon="-3.83169">
        <ele>111</ele>
        <time>2021-07-08T08:12:14Z</time>
      </trkpt>
      <trkpt lat="48.58101" lon="-3.83163">
        <ele>107</ele>
        <time>2021-07-08T08:12:19Z</time>
      </trkpt>
      <trkpt lat="48.58099" lon="-3.83161">
        <ele>107</ele>
        <time>2021-07-08T08:12:19Z</time>
      </trkpt>
      <trkpt lat="48.58098" lon="-3.83158">
        <ele>107</ele>
        <time>2021-07-08T08:12:20Z</time>
      </trkpt>
      <trkpt lat="48.58096" lon="-3.83156">
        <ele>111</ele>
        <time>2021-07-08T08:12:21Z</time>
      </trkpt>
      <trkpt lat="48.58094" lon="-3.83152">
        <ele>111</ele>
        <time>2021-07-08T08:12:22Z</time>
      </trkpt>
      <trkpt lat="48.58092" lon="-3.83149">
        <ele>111</ele>
        <time>2021-07-08T08:12:23Z</time>
      </trkpt>
      <trkpt lat="48.5809" lon="-3.83146">
        <ele>111</ele>
        <time>2021-07-08T08:12:24Z</time>
      </trkpt>
      <trkpt lat="48.58088" lon="-3.83143">
        <ele>111</ele>
        <time>2021-07-08T08:12:25Z</time>
      </trkpt>
      <trkpt lat="48.58085" lon="-3.8314">
        <ele>111</ele>
        <time>2021-07-08T08:12:26Z</time>
      </trkpt>
      <trkpt lat="48.58083" lon="-3.83137">
        <ele>111</ele>
        <time>2021-07-08T08:12:28Z</time>
      </trkpt>
      <trkpt lat="48.58081" lon="-3.83134">
        <ele>111</ele>
        <time>2021-07-08T08:12:28Z</time>
      </trkpt>
      <trkpt lat="48.58079" lon="-3.83131">
        <ele>111</ele>
        <time>2021-07-08T08:12:30Z</time>
      </trkpt>
      <trkpt lat="48.58078" lon="-3.83128">
        <ele>111</ele>
        <time>2021-07-08T08:12:30Z</time>
      </trkpt>
      <trkpt lat="48.58076" lon="-3.83125">
        <ele>111</ele>
        <time>2021-07-08T08:12:32Z</time>
      </trkpt>
      <trkpt lat="48.58074" lon="-3.83123">
        <ele>111</ele>
        <time>2021-07-08T08:12:32Z</time>
      </trkpt>
      <trkpt lat="48.58072" lon="-3.83121">
        <ele>111</ele>
        <time>2021-07-08T08:12:34Z</time>
      </trkpt>
      <trkpt lat="48.5807" lon="-3.83119">
        <ele>111</ele>
        <time>2021-07-08T08:12:35Z</time>
      </trkpt>
      <trkpt lat="48.58069" lon="-3.83116">
        <ele>111</ele>
        <time>2021-07-08T08:12:36Z</time>
      </trkpt>
      <trkpt lat="48.58067" lon="-3.83114">
        <ele>111</ele>
        <time>2021-07-08T08:12:37Z</time>
      </trkpt>
      <trkpt lat="48.58065" lon="-3.83112">
        <ele>111</ele>
        <time>2021-07-08T08:12:38Z</time>
      </trkpt>
      <trkpt lat="48.58064" lon="-3.8311">
        <ele>111</ele>
        <time>2021-07-08T08:12:47Z</time>
      </trkpt>
      <trkpt lat="48.5806" lon="-3.83104">
        <ele>107</ele>
        <time>2021-07-08T08:14:29Z</time>
      </trkpt>
      <trkpt lat="48.5806" lon="-3.83103">
        <ele>107</ele>
        <time>2021-07-08T08:14:33Z</time>
      </trkpt>
      <trkpt lat="48.58061" lon="-3.83104">
        <ele>111</ele>
        <time>2021-07-08T08:14:37Z</time>
      </trkpt>
      <trkpt lat="48.58065" lon="-3.83109">
        <ele>107</ele>
        <time>2021-07-08T08:14:42Z</time>
      </trkpt>
      <trkpt lat="48.58064" lon="-3.83105">
        <ele>107</ele>
        <time>2021-07-08T08:14:46Z</time>
      </trkpt>
      <trkpt lat="48.58054" lon="-3.83111">
        <ele>107</ele>
        <time>2021-07-08T08:18:36Z</time>
      </trkpt>
      <trkpt lat="48.58069" lon="-3.83111">
        <ele>107</ele>
        <time>2021-07-08T08:18:38Z</time>
      </trkpt>
      <trkpt lat="48.58068" lon="-3.83107">
        <ele>107</ele>
        <time>2021-07-08T08:18:46Z</time>
      </trkpt>
      <trkpt lat="48.58065" lon="-3.83105">
        <ele>107</ele>
        <time>2021-07-08T08:18:51Z</time>
      </trkpt>
      <trkpt lat="48.58063" lon="-3.83103">
        <ele>107</ele>
        <time>2021-07-08T08:18:52Z</time>
      </trkpt>
      <trkpt lat="48.58062" lon="-3.831">
        <ele>107</ele>
        <time>2021-07-08T08:18:55Z</time>
      </trkpt>
      <trkpt lat="48.58061" lon="-3.83097">
        <ele>107</ele>
        <time>2021-07-08T08:18:57Z</time>
      </trkpt>
      <trkpt lat="48.58059" lon="-3.83095">
        <ele>107</ele>
        <time>2021-07-08T08:18:58Z</time>
      </trkpt>
      <trkpt lat="48.58057" lon="-3.83092">
        <ele>107</ele>
        <time>2021-07-08T08:19:01Z</time>
      </trkpt>
      <trkpt lat="48.58055" lon="-3.83089">
        <ele>107</ele>
        <time>2021-07-08T08:19:03Z</time>
      </trkpt>
      <trkpt lat="48.58053" lon="-3.83086">
        <ele>107</ele>
        <time>2021-07-08T08:19:05Z</time>
      </trkpt>
      <trkpt lat="48.58051" lon="-3.83083">
        <ele>107</ele>
        <time>2021-07-08T08:19:07Z</time>
      </trkpt>
      <trkpt lat="48.58049" lon="-3.8308">
        <ele>107</ele>
        <time>2021-07-08T08:19:09Z</time>
      </trkpt>
      <trkpt lat="48.58046" lon="-3.83077">
        <ele>107</ele>
        <time>2021-07-08T08:19:10Z</time>
      </trkpt>
      <trkpt lat="48.58044" lon="-3.83074">
        <ele>107</ele>
        <time>2021-07-08T08:19:13Z</time>
      </trkpt>
      <trkpt lat="48.58042" lon="-3.83071">
        <ele>107</ele>
        <time>2021-07-08T08:19:15Z</time>
      </trkpt>
      <trkpt lat="48.58039" lon="-3.83068">
        <ele>107</ele>
        <time>2021-07-08T08:19:17Z</time>
      </trkpt>
      <trkpt lat="48.58037" lon="-3.83066">
        <ele>107</ele>
        <time>2021-07-08T08:19:18Z</time>
      </trkpt>
      <trkpt lat="48.58034" lon="-3.83065">
        <ele>107</ele>
        <time>2021-07-08T08:19:20Z</time>
      </trkpt>
      <trkpt lat="48.58031" lon="-3.83063">
        <ele>107</ele>
        <time>2021-07-08T08:19:23Z</time>
      </trkpt>
      <trkpt lat="48.58029" lon="-3.83061">
        <ele>107</ele>
        <time>2021-07-08T08:19:25Z</time>
      </trkpt>
      <trkpt lat="48.58027" lon="-3.83058">
        <ele>107</ele>
        <time>2021-07-08T08:19:26Z</time>
      </trkpt>
      <trkpt lat="48.58025" lon="-3.83056">
        <ele>107</ele>
        <time>2021-07-08T08:19:28Z</time>
      </trkpt>
      <trkpt lat="48.58022" lon="-3.83054">
        <ele>107</ele>
        <time>2021-07-08T08:19:30Z</time>
      </trkpt>
      <trkpt lat="48.5802" lon="-3.83053">
        <ele>107</ele>
        <time>2021-07-08T08:19:33Z</time>
      </trkpt>
      <trkpt lat="48.58017" lon="-3.83052">
        <ele>107</ele>
        <time>2021-07-08T08:19:35Z</time>
      </trkpt>
      <trkpt lat="48.58015" lon="-3.8305">
        <ele>107</ele>
        <time>2021-07-08T08:19:36Z</time>
      </trkpt>
      <trkpt lat="48.58013" lon="-3.83048">
        <ele>107</ele>
        <time>2021-07-08T08:19:39Z</time>
      </trkpt>
      <trkpt lat="48.58013" lon="-3.83033">
        <ele>107</ele>
        <time>2021-07-08T08:19:52Z</time>
      </trkpt>
      <trkpt lat="48.58006" lon="-3.83021">
        <ele>107</ele>
        <time>2021-07-08T08:20:00Z</time>
      </trkpt>
      <trkpt lat="48.58015" lon="-3.83018">
        <ele>107</ele>
        <time>2021-07-08T08:20:08Z</time>
      </trkpt>
      <trkpt lat="48.58006" lon="-3.8301">
        <ele>106</ele>
        <time>2021-07-08T08:20:32Z</time>
      </trkpt>
      <trkpt lat="48.58009" lon="-3.83023">
        <ele>107</ele>
        <time>2021-07-08T08:20:51Z</time>
      </trkpt>
      <trkpt lat="48.58018" lon="-3.83036">
        <ele>107</ele>
        <time>2021-07-08T08:20:54Z</time>
      </trkpt>
      <trkpt lat="48.58026" lon="-3.83047">
        <ele>107</ele>
        <time>2021-07-08T08:20:58Z</time>
      </trkpt>
      <trkpt lat="48.58033" lon="-3.83059">
        <ele>107</ele>
        <time>2021-07-08T08:21:00Z</time>
      </trkpt>
      <trkpt lat="48.58042" lon="-3.83068">
        <ele>107</ele>
        <time>2021-07-08T08:21:04Z</time>
      </trkpt>
      <trkpt lat="48.5805" lon="-3.83074">
        <ele>107</ele>
        <time>2021-07-08T08:21:10Z</time>
      </trkpt>
      <trkpt lat="48.58052" lon="-3.83075">
        <ele>107</ele>
        <time>2021-07-08T08:21:13Z</time>
      </trkpt>
      <trkpt lat="48.58055" lon="-3.83078">
        <ele>107</ele>
        <time>2021-07-08T08:21:15Z</time>
      </trkpt>
      <trkpt lat="48.58057" lon="-3.83079">
        <ele>107</ele>
        <time>2021-07-08T08:21:16Z</time>
      </trkpt>
      <trkpt lat="48.58058" lon="-3.83082">
        <ele>107</ele>
        <time>2021-07-08T08:21:17Z</time>
      </trkpt>
      <trkpt lat="48.5806" lon="-3.83085">
        <ele>107</ele>
        <time>2021-07-08T08:21:20Z</time>
      </trkpt>
      <trkpt lat="48.58063" lon="-3.83086">
        <ele>107</ele>
        <time>2021-07-08T08:21:22Z</time>
      </trkpt>
      <trkpt lat="48.58064" lon="-3.83088">
        <ele>107</ele>
        <time>2021-07-08T08:21:23Z</time>
      </trkpt>
      <trkpt lat="48.58067" lon="-3.83091">
        <ele>107</ele>
        <time>2021-07-08T08:21:24Z</time>
      </trkpt>
      <trkpt lat="48.58069" lon="-3.83093">
        <ele>106</ele>
        <time>2021-07-08T08:21:26Z</time>
      </trkpt>
      <trkpt lat="48.58071" lon="-3.83096">
        <ele>106</ele>
        <time>2021-07-08T08:21:28Z</time>
      </trkpt>
      <trkpt lat="48.58074" lon="-3.83099">
        <ele>106</ele>
        <time>2021-07-08T08:21:30Z</time>
      </trkpt>
      <trkpt lat="48.58075" lon="-3.83103">
        <ele>106</ele>
        <time>2021-07-08T08:21:33Z</time>
      </trkpt>
      <trkpt lat="48.58076" lon="-3.83106">
        <ele>106</ele>
        <time>2021-07-08T08:21:34Z</time>
      </trkpt>
      <trkpt lat="48.58074" lon="-3.83106">
        <ele>107</ele>
        <time>2021-07-08T08:21:44Z</time>
      </trkpt>
      <trkpt lat="48.58076" lon="-3.83107">
        <ele>107</ele>
        <time>2021-07-08T08:21:56Z</time>
      </trkpt>
      <trkpt lat="48.58075" lon="-3.83106">
        <ele>107</ele>
        <time>2021-07-08T08:21:56Z</time>
      </trkpt>
      <trkpt lat="48.58066" lon="-3.83095">
        <ele>107</ele>
        <time>2021-07-08T08:21:57Z</time>
      </trkpt>
      <trkpt lat="48.58064" lon="-3.83092">
        <ele>107</ele>
        <time>2021-07-08T08:21:57Z</time>
      </trkpt>
      <trkpt lat="48.58061" lon="-3.83089">
        <ele>107</ele>
        <time>2021-07-08T08:21:58Z</time>
      </trkpt>
      <trkpt lat="48.58059" lon="-3.83087">
        <ele>107</ele>
        <time>2021-07-08T08:21:59Z</time>
      </trkpt>
      <trkpt lat="48.58056" lon="-3.83084">
        <ele>107</ele>
        <time>2021-07-08T08:22:00Z</time>
      </trkpt>
      <trkpt lat="48.58054" lon="-3.83081">
        <ele>107</ele>
        <time>2021-07-08T08:22:01Z</time>
      </trkpt>
      <trkpt lat="48.58073" lon="-3.83106">
        <ele>107</ele>
        <time>2021-07-08T08:22:02Z</time>
      </trkpt>
      <trkpt lat="48.58051" lon="-3.83078">
        <ele>107</ele>
        <time>2021-07-08T08:22:02Z</time>
      </trkpt>
      <trkpt lat="48.58048" lon="-3.83075">
        <ele>107</ele>
        <time>2021-07-08T08:22:03Z</time>
      </trkpt>
      <trkpt lat="48.58045" lon="-3.83073">
        <ele>107</ele>
        <time>2021-07-08T08:22:04Z</time>
      </trkpt>
      <trkpt lat="48.58042" lon="-3.8307">
        <ele>107</ele>
        <time>2021-07-08T08:22:05Z</time>
      </trkpt>
      <trkpt lat="48.58039" lon="-3.83067">
        <ele>107</ele>
        <time>2021-07-08T08:22:06Z</time>
      </trkpt>
      <trkpt lat="48.58036" lon="-3.83063">
        <ele>107</ele>
        <time>2021-07-08T08:22:07Z</time>
      </trkpt>
      <trkpt lat="48.58033" lon="-3.8306">
        <ele>107</ele>
        <time>2021-07-08T08:22:08Z</time>
      </trkpt>
      <trkpt lat="48.58029" lon="-3.83057">
        <ele>107</ele>
        <time>2021-07-08T08:22:09Z</time>
      </trkpt>
      <trkpt lat="48.58072" lon="-3.83107">
        <ele>107</ele>
        <time>2021-07-08T08:22:10Z</time>
      </trkpt>
      <trkpt lat="48.58026" lon="-3.83054">
        <ele>107</ele>
        <time>2021-07-08T08:22:10Z</time>
      </trkpt>
      <trkpt lat="48.58022" lon="-3.83051">
        <ele>107</ele>
        <time>2021-07-08T08:22:11Z</time>
      </trkpt>
      <trkpt lat="48.58019" lon="-3.83048">
        <ele>107</ele>
        <time>2021-07-08T08:22:12Z</time>
      </trkpt>
      <trkpt lat="48.58015" lon="-3.83045">
        <ele>107</ele>
        <time>2021-07-08T08:22:13Z</time>
      </trkpt>
      <trkpt lat="48.58011" lon="-3.83042">
        <ele>107</ele>
        <time>2021-07-08T08:22:14Z</time>
      </trkpt>
      <trkpt lat="48.58008" lon="-3.83039">
        <ele>107</ele>
        <time>2021-07-08T08:22:15Z</time>
      </trkpt>
      <trkpt lat="48.58004" lon="-3.83036">
        <ele>107</ele>
        <time>2021-07-08T08:22:16Z</time>
      </trkpt>
      <trkpt lat="48.57999" lon="-3.83034">
        <ele>107</ele>
        <time>2021-07-08T08:22:17Z</time>
      </trkpt>
      <trkpt lat="48.57994" lon="-3.83032">
        <ele>107</ele>
        <time>2021-07-08T08:22:18Z</time>
      </trkpt>
      <trkpt lat="48.5799" lon="-3.8303">
        <ele>107</ele>
        <time>2021-07-08T08:22:19Z</time>
      </trkpt>
      <trkpt lat="48.57986" lon="-3.83027">
        <ele>107</ele>
        <time>2021-07-08T08:22:20Z</time>
      </trkpt>
      <trkpt lat="48.57981" lon="-3.83025">
        <ele>107</ele>
        <time>2021-07-08T08:22:21Z</time>
      </trkpt>
      <trkpt lat="48.57977" lon="-3.83023">
        <ele>107</ele>
        <time>2021-07-08T08:22:22Z</time>
      </trkpt>
      <trkpt lat="48.57972" lon="-3.8302">
        <ele>107</ele>
        <time>2021-07-08T08:22:23Z</time>
      </trkpt>
      <trkpt lat="48.57968" lon="-3.83018">
        <ele>107</ele>
        <time>2021-07-08T08:22:24Z</time>
      </trkpt>
      <trkpt lat="48.57965" lon="-3.83015">
        <ele>106</ele>
        <time>2021-07-08T08:22:25Z</time>
      </trkpt>
      <trkpt lat="48.57961" lon="-3.83013">
        <ele>106</ele>
        <time>2021-07-08T08:22:26Z</time>
      </trkpt>
      <trkpt lat="48.57957" lon="-3.8301">
        <ele>106</ele>
        <time>2021-07-08T08:22:27Z</time>
      </trkpt>
      <trkpt lat="48.57954" lon="-3.83007">
        <ele>106</ele>
        <time>2021-07-08T08:22:28Z</time>
      </trkpt>
      <trkpt lat="48.57951" lon="-3.83005">
        <ele>107</ele>
        <time>2021-07-08T08:22:29Z</time>
      </trkpt>
      <trkpt lat="48.57947" lon="-3.83002">
        <ele>107</ele>
        <time>2021-07-08T08:22:30Z</time>
      </trkpt>
      <trkpt lat="48.57944" lon="-3.82999">
        <ele>107</ele>
        <time>2021-07-08T08:22:31Z</time>
      </trkpt>
      <trkpt lat="48.5794" lon="-3.82996">
        <ele>107</ele>
        <time>2021-07-08T08:22:32Z</time>
      </trkpt>
      <trkpt lat="48.57936" lon="-3.82993">
        <ele>107</ele>
        <time>2021-07-08T08:22:33Z</time>
      </trkpt>
      <trkpt lat="48.57932" lon="-3.82991">
        <ele>107</ele>
        <time>2021-07-08T08:22:34Z</time>
      </trkpt>
      <trkpt lat="48.57928" lon="-3.82988">
        <ele>107</ele>
        <time>2021-07-08T08:22:35Z</time>
      </trkpt>
      <trkpt lat="48.57924" lon="-3.82986">
        <ele>106</ele>
        <time>2021-07-08T08:22:36Z</time>
      </trkpt>
      <trkpt lat="48.57916" lon="-3.82977">
        <ele>106</ele>
        <time>2021-07-08T08:23:44Z</time>
      </trkpt>
      <trkpt lat="48.57903" lon="-3.82971">
        <ele>106</ele>
        <time>2021-07-08T08:23:47Z</time>
      </trkpt>
      <trkpt lat="48.57892" lon="-3.82967">
        <ele>106</ele>
        <time>2021-07-08T08:23:49Z</time>
      </trkpt>
      <trkpt lat="48.57882" lon="-3.82963">
        <ele>106</ele>
        <time>2021-07-08T08:23:52Z</time>
      </trkpt>
      <trkpt lat="48.5788" lon="-3.82959">
        <ele>106</ele>
        <time>2021-07-08T08:23:57Z</time>
      </trkpt>
      <trkpt lat="48.57879" lon="-3.82957">
        <ele>106</ele>
        <time>2021-07-08T08:23:58Z</time>
      </trkpt>
      <trkpt lat="48.57877" lon="-3.82956">
        <ele>107</ele>
        <time>2021-07-08T08:24:08Z</time>
      </trkpt>
      <trkpt lat="48.57869" lon="-3.82948">
        <ele>106</ele>
        <time>2021-07-08T08:24:12Z</time>
      </trkpt>
      <trkpt lat="48.57862" lon="-3.82943">
        <ele>107</ele>
        <time>2021-07-08T08:24:13Z</time>
      </trkpt>
      <trkpt lat="48.57853" lon="-3.82933">
        <ele>106</ele>
        <time>2021-07-08T08:24:16Z</time>
      </trkpt>
      <trkpt lat="48.57843" lon="-3.82924">
        <ele>106</ele>
        <time>2021-07-08T08:24:19Z</time>
      </trkpt>
      <trkpt lat="48.5784" lon="-3.82922">
        <ele>106</ele>
        <time>2021-07-08T08:24:20Z</time>
      </trkpt>
      <trkpt lat="48.57838" lon="-3.82919">
        <ele>106</ele>
        <time>2021-07-08T08:24:22Z</time>
      </trkpt>
      <trkpt lat="48.57836" lon="-3.82917">
        <ele>106</ele>
        <time>2021-07-08T08:24:23Z</time>
      </trkpt>
      <trkpt lat="48.57834" lon="-3.82915">
        <ele>106</ele>
        <time>2021-07-08T08:24:24Z</time>
      </trkpt>
      <trkpt lat="48.57831" lon="-3.82913">
        <ele>105</ele>
        <time>2021-07-08T08:24:24Z</time>
      </trkpt>
      <trkpt lat="48.57828" lon="-3.8291">
        <ele>105</ele>
        <time>2021-07-08T08:24:25Z</time>
      </trkpt>
      <trkpt lat="48.57825" lon="-3.82908">
        <ele>105</ele>
        <time>2021-07-08T08:24:27Z</time>
      </trkpt>
      <trkpt lat="48.57821" lon="-3.82905">
        <ele>105</ele>
        <time>2021-07-08T08:24:28Z</time>
      </trkpt>
      <trkpt lat="48.57819" lon="-3.82902">
        <ele>106</ele>
        <time>2021-07-08T08:24:29Z</time>
      </trkpt>
      <trkpt lat="48.57815" lon="-3.82899">
        <ele>106</ele>
        <time>2021-07-08T08:24:29Z</time>
      </trkpt>
      <trkpt lat="48.57812" lon="-3.82897">
        <ele>106</ele>
        <time>2021-07-08T08:24:30Z</time>
      </trkpt>
      <trkpt lat="48.57808" lon="-3.82894">
        <ele>106</ele>
        <time>2021-07-08T08:24:31Z</time>
      </trkpt>
      <trkpt lat="48.57805" lon="-3.82891">
        <ele>106</ele>
        <time>2021-07-08T08:24:32Z</time>
      </trkpt>
      <trkpt lat="48.57801" lon="-3.82887">
        <ele>105</ele>
        <time>2021-07-08T08:24:33Z</time>
      </trkpt>
      <trkpt lat="48.57798" lon="-3.82884">
        <ele>105</ele>
        <time>2021-07-08T08:24:35Z</time>
      </trkpt>
      <trkpt lat="48.57794" lon="-3.8288">
        <ele>105</ele>
        <time>2021-07-08T08:24:36Z</time>
      </trkpt>
      <trkpt lat="48.57791" lon="-3.82877">
        <ele>105</ele>
        <time>2021-07-08T08:24:36Z</time>
      </trkpt>
      <trkpt lat="48.57788" lon="-3.82873">
        <ele>105</ele>
        <time>2021-07-08T08:24:38Z</time>
      </trkpt>
      <trkpt lat="48.57785" lon="-3.8287">
        <ele>106</ele>
        <time>2021-07-08T08:24:38Z</time>
      </trkpt>
      <trkpt lat="48.5778" lon="-3.82869">
        <ele>106</ele>
        <time>2021-07-08T08:24:40Z</time>
      </trkpt>
      <trkpt lat="48.57777" lon="-3.82868">
        <ele>106</ele>
        <time>2021-07-08T08:24:41Z</time>
      </trkpt>
      <trkpt lat="48.57773" lon="-3.82867">
        <ele>106</ele>
        <time>2021-07-08T08:24:42Z</time>
      </trkpt>
      <trkpt lat="48.5777" lon="-3.82866">
        <ele>106</ele>
        <time>2021-07-08T08:24:43Z</time>
      </trkpt>
      <trkpt lat="48.57766" lon="-3.82864">
        <ele>106</ele>
        <time>2021-07-08T08:24:43Z</time>
      </trkpt>
      <trkpt lat="48.57762" lon="-3.82863">
        <ele>106</ele>
        <time>2021-07-08T08:24:45Z</time>
      </trkpt>
      <trkpt lat="48.57759" lon="-3.82861">
        <ele>106</ele>
        <time>2021-07-08T08:24:46Z</time>
      </trkpt>
      <trkpt lat="48.57754" lon="-3.82859">
        <ele>106</ele>
        <time>2021-07-08T08:24:47Z</time>
      </trkpt>
      <trkpt lat="48.57744" lon="-3.82851">
        <ele>106</ele>
        <time>2021-07-08T08:24:50Z</time>
      </trkpt>
      <trkpt lat="48.57741" lon="-3.82847">
        <ele>106</ele>
        <time>2021-07-08T08:24:51Z</time>
      </trkpt>
      <trkpt lat="48.57739" lon="-3.82843">
        <ele>107</ele>
        <time>2021-07-08T08:24:52Z</time>
      </trkpt>
      <trkpt lat="48.57736" lon="-3.8284">
        <ele>107</ele>
        <time>2021-07-08T08:24:52Z</time>
      </trkpt>
      <trkpt lat="48.57732" lon="-3.82837">
        <ele>107</ele>
        <time>2021-07-08T08:24:54Z</time>
      </trkpt>
      <trkpt lat="48.57727" lon="-3.82835">
        <ele>107</ele>
        <time>2021-07-08T08:24:54Z</time>
      </trkpt>
      <trkpt lat="48.57723" lon="-3.82833">
        <ele>107</ele>
        <time>2021-07-08T08:24:56Z</time>
      </trkpt>
      <trkpt lat="48.57713" lon="-3.82828">
        <ele>107</ele>
        <time>2021-07-08T08:24:58Z</time>
      </trkpt>
      <trkpt lat="48.5771" lon="-3.82827">
        <ele>107</ele>
        <time>2021-07-08T08:25:00Z</time>
      </trkpt>
      <trkpt lat="48.57708" lon="-3.82826">
        <ele>107</ele>
        <time>2021-07-08T08:25:01Z</time>
      </trkpt>
      <trkpt lat="48.57706" lon="-3.82823">
        <ele>111</ele>
        <time>2021-07-08T08:25:02Z</time>
      </trkpt>
      <trkpt lat="48.57704" lon="-3.82821">
        <ele>111</ele>
        <time>2021-07-08T08:25:04Z</time>
      </trkpt>
      <trkpt lat="48.577" lon="-3.82819">
        <ele>111</ele>
        <time>2021-07-08T08:25:07Z</time>
      </trkpt>
      <trkpt lat="48.57699" lon="-3.82817">
        <ele>111</ele>
        <time>2021-07-08T08:25:07Z</time>
      </trkpt>
      <trkpt lat="48.57697" lon="-3.82816">
        <ele>111</ele>
        <time>2021-07-08T08:25:09Z</time>
      </trkpt>
      <trkpt lat="48.57695" lon="-3.82814">
        <ele>111</ele>
        <time>2021-07-08T08:25:09Z</time>
      </trkpt>
      <trkpt lat="48.57694" lon="-3.82812">
        <ele>112</ele>
        <time>2021-07-08T08:25:13Z</time>
      </trkpt>
      <trkpt lat="48.57695" lon="-3.82811">
        <ele>112</ele>
        <time>2021-07-08T08:25:20Z</time>
      </trkpt>
      <trkpt lat="48.57694" lon="-3.82801">
        <ele>112</ele>
        <time>2021-07-08T08:25:26Z</time>
      </trkpt>
      <trkpt lat="48.57694" lon="-3.82796">
        <ele>112</ele>
        <time>2021-07-08T08:25:26Z</time>
      </trkpt>
      <trkpt lat="48.57696" lon="-3.82791">
        <ele>112</ele>
        <time>2021-07-08T08:25:28Z</time>
      </trkpt>
      <trkpt lat="48.57697" lon="-3.82786">
        <ele>112</ele>
        <time>2021-07-08T08:25:29Z</time>
      </trkpt>
      <trkpt lat="48.57699" lon="-3.8278">
        <ele>112</ele>
        <time>2021-07-08T08:25:29Z</time>
      </trkpt>
      <trkpt lat="48.57701" lon="-3.82775">
        <ele>112</ele>
        <time>2021-07-08T08:25:30Z</time>
      </trkpt>
      <trkpt lat="48.57703" lon="-3.8277">
        <ele>112</ele>
        <time>2021-07-08T08:25:32Z</time>
      </trkpt>
      <trkpt lat="48.57704" lon="-3.82765">
        <ele>112</ele>
        <time>2021-07-08T08:25:32Z</time>
      </trkpt>
      <trkpt lat="48.57706" lon="-3.8276">
        <ele>112</ele>
        <time>2021-07-08T08:25:34Z</time>
      </trkpt>
      <trkpt lat="48.57707" lon="-3.82756">
        <ele>112</ele>
        <time>2021-07-08T08:25:34Z</time>
      </trkpt>
      <trkpt lat="48.57709" lon="-3.82752">
        <ele>112</ele>
        <time>2021-07-08T08:25:35Z</time>
      </trkpt>
      <trkpt lat="48.57711" lon="-3.82748">
        <ele>112</ele>
        <time>2021-07-08T08:25:36Z</time>
      </trkpt>
      <trkpt lat="48.57718" lon="-3.82735">
        <ele>111</ele>
        <time>2021-07-08T08:25:39Z</time>
      </trkpt>
      <trkpt lat="48.57727" lon="-3.82725">
        <ele>111</ele>
        <time>2021-07-08T08:25:42Z</time>
      </trkpt>
      <trkpt lat="48.57737" lon="-3.82714">
        <ele>112</ele>
        <time>2021-07-08T08:25:45Z</time>
      </trkpt>
      <trkpt lat="48.57738" lon="-3.82695">
        <ele>112</ele>
        <time>2021-07-08T08:25:49Z</time>
      </trkpt>
      <trkpt lat="48.57736" lon="-3.8269">
        <ele>112</ele>
        <time>2021-07-08T08:25:49Z</time>
      </trkpt>
      <trkpt lat="48.57734" lon="-3.82684">
        <ele>112</ele>
        <time>2021-07-08T08:25:50Z</time>
      </trkpt>
      <trkpt lat="48.57732" lon="-3.8268">
        <ele>112</ele>
        <time>2021-07-08T08:25:52Z</time>
      </trkpt>
      <trkpt lat="48.57729" lon="-3.82675">
        <ele>112</ele>
        <time>2021-07-08T08:25:52Z</time>
      </trkpt>
      <trkpt lat="48.57726" lon="-3.8267">
        <ele>112</ele>
        <time>2021-07-08T08:25:53Z</time>
      </trkpt>
      <trkpt lat="48.57724" lon="-3.82665">
        <ele>112</ele>
        <time>2021-07-08T08:25:54Z</time>
      </trkpt>
      <trkpt lat="48.57721" lon="-3.82661">
        <ele>112</ele>
        <time>2021-07-08T08:25:56Z</time>
      </trkpt>
      <trkpt lat="48.57718" lon="-3.82656">
        <ele>112</ele>
        <time>2021-07-08T08:25:56Z</time>
      </trkpt>
      <trkpt lat="48.57716" lon="-3.82651">
        <ele>112</ele>
        <time>2021-07-08T08:25:57Z</time>
      </trkpt>
      <trkpt lat="48.57713" lon="-3.82646">
        <ele>112</ele>
        <time>2021-07-08T08:25:59Z</time>
      </trkpt>
      <trkpt lat="48.5771" lon="-3.82641">
        <ele>112</ele>
        <time>2021-07-08T08:26:00Z</time>
      </trkpt>
      <trkpt lat="48.57707" lon="-3.82636">
        <ele>112</ele>
        <time>2021-07-08T08:26:01Z</time>
      </trkpt>
      <trkpt lat="48.57705" lon="-3.82631">
        <ele>112</ele>
        <time>2021-07-08T08:26:02Z</time>
      </trkpt>
      <trkpt lat="48.57702" lon="-3.82626">
        <ele>112</ele>
        <time>2021-07-08T08:26:03Z</time>
      </trkpt>
      <trkpt lat="48.57699" lon="-3.82621">
        <ele>112</ele>
        <time>2021-07-08T08:26:03Z</time>
      </trkpt>
      <trkpt lat="48.57697" lon="-3.82616">
        <ele>112</ele>
        <time>2021-07-08T08:26:05Z</time>
      </trkpt>
      <trkpt lat="48.57694" lon="-3.82612">
        <ele>112</ele>
        <time>2021-07-08T08:26:05Z</time>
      </trkpt>
      <trkpt lat="48.57692" lon="-3.82608">
        <ele>112</ele>
        <time>2021-07-08T08:26:06Z</time>
      </trkpt>
      <trkpt lat="48.5769" lon="-3.82604">
        <ele>112</ele>
        <time>2021-07-08T08:26:07Z</time>
      </trkpt>
      <trkpt lat="48.57688" lon="-3.82601">
        <ele>112</ele>
        <time>2021-07-08T08:26:08Z</time>
      </trkpt>
      <trkpt lat="48.57687" lon="-3.82598">
        <ele>112</ele>
        <time>2021-07-08T08:26:10Z</time>
      </trkpt>
      <trkpt lat="48.57685" lon="-3.82594">
        <ele>112</ele>
        <time>2021-07-08T08:26:12Z</time>
      </trkpt>
      <trkpt lat="48.57683" lon="-3.82591">
        <ele>113</ele>
        <time>2021-07-08T08:26:13Z</time>
      </trkpt>
      <trkpt lat="48.57682" lon="-3.82587">
        <ele>113</ele>
        <time>2021-07-08T08:26:16Z</time>
      </trkpt>
      <trkpt lat="48.57681" lon="-3.82584">
        <ele>113</ele>
        <time>2021-07-08T08:26:17Z</time>
      </trkpt>
      <trkpt lat="48.5768" lon="-3.8258">
        <ele>113</ele>
        <time>2021-07-08T08:26:17Z</time>
      </trkpt>
      <trkpt lat="48.57679" lon="-3.82576">
        <ele>113</ele>
        <time>2021-07-08T08:26:18Z</time>
      </trkpt>
      <trkpt lat="48.57679" lon="-3.82573">
        <ele>112</ele>
        <time>2021-07-08T08:26:19Z</time>
      </trkpt>
      <trkpt lat="48.5768" lon="-3.82569">
        <ele>113</ele>
        <time>2021-07-08T08:26:23Z</time>
      </trkpt>
      <trkpt lat="48.57682" lon="-3.82565">
        <ele>113</ele>
        <time>2021-07-08T08:26:25Z</time>
      </trkpt>
      <trkpt lat="48.57683" lon="-3.82563">
        <ele>113</ele>
        <time>2021-07-08T08:26:27Z</time>
      </trkpt>
      <trkpt lat="48.57685" lon="-3.82561">
        <ele>112</ele>
        <time>2021-07-08T08:26:27Z</time>
      </trkpt>
      <trkpt lat="48.57688" lon="-3.82559">
        <ele>112</ele>
        <time>2021-07-08T08:26:29Z</time>
      </trkpt>
      <trkpt lat="48.5769" lon="-3.82558">
        <ele>113</ele>
        <time>2021-07-08T08:26:29Z</time>
      </trkpt>
      <trkpt lat="48.57693" lon="-3.82557">
        <ele>113</ele>
        <time>2021-07-08T08:26:31Z</time>
      </trkpt>
      <trkpt lat="48.57696" lon="-3.82555">
        <ele>113</ele>
        <time>2021-07-08T08:26:32Z</time>
      </trkpt>
      <trkpt lat="48.57699" lon="-3.82554">
        <ele>113</ele>
        <time>2021-07-08T08:26:33Z</time>
      </trkpt>
      <trkpt lat="48.57701" lon="-3.82552">
        <ele>113</ele>
        <time>2021-07-08T08:26:34Z</time>
      </trkpt>
      <trkpt lat="48.57704" lon="-3.8255">
        <ele>113</ele>
        <time>2021-07-08T08:26:35Z</time>
      </trkpt>
      <trkpt lat="48.57707" lon="-3.82548">
        <ele>113</ele>
        <time>2021-07-08T08:26:35Z</time>
      </trkpt>
      <trkpt lat="48.5771" lon="-3.82547">
        <ele>113</ele>
        <time>2021-07-08T08:26:37Z</time>
      </trkpt>
      <trkpt lat="48.57713" lon="-3.82545">
        <ele>113</ele>
        <time>2021-07-08T08:26:37Z</time>
      </trkpt>
      <trkpt lat="48.57715" lon="-3.82543">
        <ele>113</ele>
        <time>2021-07-08T08:26:38Z</time>
      </trkpt>
      <trkpt lat="48.57718" lon="-3.82541">
        <ele>113</ele>
        <time>2021-07-08T08:26:40Z</time>
      </trkpt>
      <trkpt lat="48.57719" lon="-3.82537">
        <ele>113</ele>
        <time>2021-07-08T08:26:41Z</time>
      </trkpt>
      <trkpt lat="48.57718" lon="-3.82535">
        <ele>113</ele>
        <time>2021-07-08T08:26:43Z</time>
      </trkpt>
      <trkpt lat="48.57719" lon="-3.82536">
        <ele>113</ele>
        <time>2021-07-08T08:26:52Z</time>
      </trkpt>
      <trkpt lat="48.57719" lon="-3.82545">
        <ele>113</ele>
        <time>2021-07-08T08:26:57Z</time>
      </trkpt>
      <trkpt lat="48.57715" lon="-3.82549">
        <ele>113</ele>
        <time>2021-07-08T08:26:57Z</time>
      </trkpt>
      <trkpt lat="48.57712" lon="-3.82551">
        <ele>113</ele>
        <time>2021-07-08T08:26:59Z</time>
      </trkpt>
      <trkpt lat="48.5771" lon="-3.82552">
        <ele>113</ele>
        <time>2021-07-08T08:26:59Z</time>
      </trkpt>
      <trkpt lat="48.57706" lon="-3.82554">
        <ele>113</ele>
        <time>2021-07-08T08:27:00Z</time>
      </trkpt>
      <trkpt lat="48.57704" lon="-3.82555">
        <ele>113</ele>
        <time>2021-07-08T08:27:01Z</time>
      </trkpt>
      <trkpt lat="48.57701" lon="-3.82554">
        <ele>113</ele>
        <time>2021-07-08T08:27:02Z</time>
      </trkpt>
      <trkpt lat="48.57699" lon="-3.82552">
        <ele>113</ele>
        <time>2021-07-08T08:27:03Z</time>
      </trkpt>
      <trkpt lat="48.57698" lon="-3.82549">
        <ele>113</ele>
        <time>2021-07-08T08:27:05Z</time>
      </trkpt>
      <trkpt lat="48.57698" lon="-3.82546">
        <ele>113</ele>
        <time>2021-07-08T08:27:06Z</time>
      </trkpt>
      <trkpt lat="48.57697" lon="-3.82543">
        <ele>113</ele>
        <time>2021-07-08T08:27:07Z</time>
      </trkpt>
      <trkpt lat="48.57697" lon="-3.82539">
        <ele>113</ele>
        <time>2021-07-08T08:27:08Z</time>
      </trkpt>
      <trkpt lat="48.57696" lon="-3.82536">
        <ele>113</ele>
        <time>2021-07-08T08:27:09Z</time>
      </trkpt>
      <trkpt lat="48.57696" lon="-3.82533">
        <ele>113</ele>
        <time>2021-07-08T08:27:10Z</time>
      </trkpt>
      <trkpt lat="48.57696" lon="-3.82529">
        <ele>113</ele>
        <time>2021-07-08T08:27:12Z</time>
      </trkpt>
      <trkpt lat="48.57695" lon="-3.82524">
        <ele>113</ele>
        <time>2021-07-08T08:27:14Z</time>
      </trkpt>
      <trkpt lat="48.57693" lon="-3.82519">
        <ele>113</ele>
        <time>2021-07-08T08:27:15Z</time>
      </trkpt>
      <trkpt lat="48.57692" lon="-3.82516">
        <ele>113</ele>
        <time>2021-07-08T08:27:17Z</time>
      </trkpt>
      <trkpt lat="48.5769" lon="-3.82514">
        <ele>113</ele>
        <time>2021-07-08T08:27:17Z</time>
      </trkpt>
      <trkpt lat="48.57687" lon="-3.82512">
        <ele>113</ele>
        <time>2021-07-08T08:27:18Z</time>
      </trkpt>
      <trkpt lat="48.57685" lon="-3.82512">
        <ele>113</ele>
        <time>2021-07-08T08:27:19Z</time>
      </trkpt>
      <trkpt lat="48.57682" lon="-3.82513">
        <ele>113</ele>
        <time>2021-07-08T08:27:21Z</time>
      </trkpt>
      <trkpt lat="48.57679" lon="-3.82514">
        <ele>112</ele>
        <time>2021-07-08T08:27:22Z</time>
      </trkpt>
      <trkpt lat="48.57676" lon="-3.82515">
        <ele>112</ele>
        <time>2021-07-08T08:27:23Z</time>
      </trkpt>
      <trkpt lat="48.57674" lon="-3.82516">
        <ele>112</ele>
        <time>2021-07-08T08:27:24Z</time>
      </trkpt>
      <trkpt lat="48.57671" lon="-3.82517">
        <ele>113</ele>
        <time>2021-07-08T08:27:24Z</time>
      </trkpt>
      <trkpt lat="48.57668" lon="-3.82517">
        <ele>113</ele>
        <time>2021-07-08T08:27:25Z</time>
      </trkpt>
      <trkpt lat="48.57665" lon="-3.82517">
        <ele>113</ele>
        <time>2021-07-08T08:27:27Z</time>
      </trkpt>
      <trkpt lat="48.57663" lon="-3.82516">
        <ele>113</ele>
        <time>2021-07-08T08:27:28Z</time>
      </trkpt>
      <trkpt lat="48.5766" lon="-3.82515">
        <ele>113</ele>
        <time>2021-07-08T08:27:28Z</time>
      </trkpt>
      <trkpt lat="48.57657" lon="-3.82514">
        <ele>113</ele>
        <time>2021-07-08T08:27:29Z</time>
      </trkpt>
      <trkpt lat="48.57655" lon="-3.82511">
        <ele>113</ele>
        <time>2021-07-08T08:27:30Z</time>
      </trkpt>
      <trkpt lat="48.57648" lon="-3.82497">
        <ele>113</ele>
        <time>2021-07-08T08:27:34Z</time>
      </trkpt>
      <trkpt lat="48.57646" lon="-3.82481">
        <ele>113</ele>
        <time>2021-07-08T08:27:37Z</time>
      </trkpt>
      <trkpt lat="48.57644" lon="-3.8247">
        <ele>113</ele>
        <time>2021-07-08T08:27:39Z</time>
      </trkpt>
      <trkpt lat="48.57646" lon="-3.82457">
        <ele>113</ele>
        <time>2021-07-08T08:27:41Z</time>
      </trkpt>
      <trkpt lat="48.57647" lon="-3.82449">
        <ele>113</ele>
        <time>2021-07-08T08:27:42Z</time>
      </trkpt>
      <trkpt lat="48.57648" lon="-3.82442">
        <ele>113</ele>
        <time>2021-07-08T08:27:43Z</time>
      </trkpt>
      <trkpt lat="48.57648" lon="-3.82436">
        <ele>113</ele>
        <time>2021-07-08T08:27:45Z</time>
      </trkpt>
      <trkpt lat="48.57648" lon="-3.82431">
        <ele>113</ele>
        <time>2021-07-08T08:27:45Z</time>
      </trkpt>
      <trkpt lat="48.57647" lon="-3.82427">
        <ele>113</ele>
        <time>2021-07-08T08:27:47Z</time>
      </trkpt>
      <trkpt lat="48.57647" lon="-3.82423">
        <ele>113</ele>
        <time>2021-07-08T08:27:47Z</time>
      </trkpt>
      <trkpt lat="48.57647" lon="-3.82419">
        <ele>113</ele>
        <time>2021-07-08T08:27:49Z</time>
      </trkpt>
      <trkpt lat="48.57647" lon="-3.82415">
        <ele>113</ele>
        <time>2021-07-08T08:27:49Z</time>
      </trkpt>
      <trkpt lat="48.57647" lon="-3.8241">
        <ele>113</ele>
        <time>2021-07-08T08:27:51Z</time>
      </trkpt>
      <trkpt lat="48.57646" lon="-3.82406">
        <ele>113</ele>
        <time>2021-07-08T08:27:51Z</time>
      </trkpt>
      <trkpt lat="48.57646" lon="-3.82401">
        <ele>114</ele>
        <time>2021-07-08T08:27:53Z</time>
      </trkpt>
      <trkpt lat="48.57645" lon="-3.82396">
        <ele>114</ele>
        <time>2021-07-08T08:27:54Z</time>
      </trkpt>
      <trkpt lat="48.57644" lon="-3.82392">
        <ele>114</ele>
        <time>2021-07-08T08:27:54Z</time>
      </trkpt>
      <trkpt lat="48.57643" lon="-3.82387">
        <ele>114</ele>
        <time>2021-07-08T08:27:55Z</time>
      </trkpt>
      <trkpt lat="48.57641" lon="-3.82383">
        <ele>114</ele>
        <time>2021-07-08T08:27:56Z</time>
      </trkpt>
      <trkpt lat="48.5764" lon="-3.82377">
        <ele>114</ele>
        <time>2021-07-08T08:27:57Z</time>
      </trkpt>
      <trkpt lat="48.57639" lon="-3.82371">
        <ele>114</ele>
        <time>2021-07-08T08:27:58Z</time>
      </trkpt>
      <trkpt lat="48.57638" lon="-3.82365">
        <ele>113</ele>
        <time>2021-07-08T08:27:59Z</time>
      </trkpt>
      <trkpt lat="48.57637" lon="-3.82359">
        <ele>113</ele>
        <time>2021-07-08T08:28:00Z</time>
      </trkpt>
      <trkpt lat="48.57636" lon="-3.82354">
        <ele>113</ele>
        <time>2021-07-08T08:28:01Z</time>
      </trkpt>
      <trkpt lat="48.57635" lon="-3.82348">
        <ele>113</ele>
        <time>2021-07-08T08:28:03Z</time>
      </trkpt>
      <trkpt lat="48.57633" lon="-3.82342">
        <ele>113</ele>
        <time>2021-07-08T08:28:04Z</time>
      </trkpt>
      <trkpt lat="48.57632" lon="-3.82337">
        <ele>113</ele>
        <time>2021-07-08T08:28:05Z</time>
      </trkpt>
      <trkpt lat="48.57631" lon="-3.82332">
        <ele>114</ele>
        <time>2021-07-08T08:28:05Z</time>
      </trkpt>
      <trkpt lat="48.5763" lon="-3.82327">
        <ele>114</ele>
        <time>2021-07-08T08:28:06Z</time>
      </trkpt>
      <trkpt lat="48.57629" lon="-3.82323">
        <ele>114</ele>
        <time>2021-07-08T08:28:07Z</time>
      </trkpt>
      <trkpt lat="48.57628" lon="-3.82318">
        <ele>114</ele>
        <time>2021-07-08T08:28:08Z</time>
      </trkpt>
      <trkpt lat="48.57627" lon="-3.82314">
        <ele>114</ele>
        <time>2021-07-08T08:28:09Z</time>
      </trkpt>
      <trkpt lat="48.57627" lon="-3.8231">
        <ele>114</ele>
        <time>2021-07-08T08:28:11Z</time>
      </trkpt>
      <trkpt lat="48.57626" lon="-3.82305">
        <ele>114</ele>
        <time>2021-07-08T08:28:11Z</time>
      </trkpt>
      <trkpt lat="48.57625" lon="-3.82301">
        <ele>114</ele>
        <time>2021-07-08T08:28:12Z</time>
      </trkpt>
      <trkpt lat="48.57624" lon="-3.82296">
        <ele>114</ele>
        <time>2021-07-08T08:28:13Z</time>
      </trkpt>
      <trkpt lat="48.57623" lon="-3.8229">
        <ele>114</ele>
        <time>2021-07-08T08:28:15Z</time>
      </trkpt>
      <trkpt lat="48.57622" lon="-3.82285">
        <ele>114</ele>
        <time>2021-07-08T08:28:16Z</time>
      </trkpt>
      <trkpt lat="48.57621" lon="-3.8228">
        <ele>114</ele>
        <time>2021-07-08T08:28:17Z</time>
      </trkpt>
      <trkpt lat="48.5762" lon="-3.82275">
        <ele>114</ele>
        <time>2021-07-08T08:28:18Z</time>
      </trkpt>
      <trkpt lat="48.57618" lon="-3.82269">
        <ele>114</ele>
        <time>2021-07-08T08:28:18Z</time>
      </trkpt>
      <trkpt lat="48.57617" lon="-3.82264">
        <ele>114</ele>
        <time>2021-07-08T08:28:19Z</time>
      </trkpt>
      <trkpt lat="48.57616" lon="-3.82258">
        <ele>114</ele>
        <time>2021-07-08T08:28:20Z</time>
      </trkpt>
      <trkpt lat="48.57615" lon="-3.82253">
        <ele>114</ele>
        <time>2021-07-08T08:28:21Z</time>
      </trkpt>
      <trkpt lat="48.57614" lon="-3.82247">
        <ele>113</ele>
        <time>2021-07-08T08:28:22Z</time>
      </trkpt>
      <trkpt lat="48.57613" lon="-3.82241">
        <ele>113</ele>
        <time>2021-07-08T08:28:24Z</time>
      </trkpt>
      <trkpt lat="48.57612" lon="-3.82235">
        <ele>113</ele>
        <time>2021-07-08T08:28:25Z</time>
      </trkpt>
      <trkpt lat="48.5761" lon="-3.82229">
        <ele>113</ele>
        <time>2021-07-08T08:28:26Z</time>
      </trkpt>
      <trkpt lat="48.57609" lon="-3.82224">
        <ele>113</ele>
        <time>2021-07-08T08:28:27Z</time>
      </trkpt>
      <trkpt lat="48.57607" lon="-3.82218">
        <ele>114</ele>
        <time>2021-07-08T08:28:27Z</time>
      </trkpt>
      <trkpt lat="48.57606" lon="-3.82212">
        <ele>114</ele>
        <time>2021-07-08T08:28:28Z</time>
      </trkpt>
      <trkpt lat="48.57605" lon="-3.82206">
        <ele>114</ele>
        <time>2021-07-08T08:28:30Z</time>
      </trkpt>
      <trkpt lat="48.57604" lon="-3.82201">
        <ele>114</ele>
        <time>2021-07-08T08:28:31Z</time>
      </trkpt>
      <trkpt lat="48.57602" lon="-3.82195">
        <ele>114</ele>
        <time>2021-07-08T08:28:32Z</time>
      </trkpt>
      <trkpt lat="48.57601" lon="-3.8219">
        <ele>114</ele>
        <time>2021-07-08T08:28:32Z</time>
      </trkpt>
      <trkpt lat="48.576" lon="-3.82184">
        <ele>114</ele>
        <time>2021-07-08T08:28:33Z</time>
      </trkpt>
      <trkpt lat="48.57599" lon="-3.82179">
        <ele>114</ele>
        <time>2021-07-08T08:28:35Z</time>
      </trkpt>
      <trkpt lat="48.57598" lon="-3.82174">
        <ele>114</ele>
        <time>2021-07-08T08:28:36Z</time>
      </trkpt>
      <trkpt lat="48.57598" lon="-3.82168">
        <ele>114</ele>
        <time>2021-07-08T08:28:36Z</time>
      </trkpt>
      <trkpt lat="48.57598" lon="-3.82162">
        <ele>114</ele>
        <time>2021-07-08T08:28:37Z</time>
      </trkpt>
      <trkpt lat="48.57598" lon="-3.82156">
        <ele>114</ele>
        <time>2021-07-08T08:28:38Z</time>
      </trkpt>
      <trkpt lat="48.57597" lon="-3.82151">
        <ele>114</ele>
        <time>2021-07-08T08:28:39Z</time>
      </trkpt>
      <trkpt lat="48.57597" lon="-3.82146">
        <ele>114</ele>
        <time>2021-07-08T08:28:41Z</time>
      </trkpt>
      <trkpt lat="48.57596" lon="-3.82141">
        <ele>114</ele>
        <time>2021-07-08T08:28:41Z</time>
      </trkpt>
      <trkpt lat="48.57596" lon="-3.82136">
        <ele>114</ele>
        <time>2021-07-08T08:28:42Z</time>
      </trkpt>
      <trkpt lat="48.57595" lon="-3.82131">
        <ele>114</ele>
        <time>2021-07-08T08:28:43Z</time>
      </trkpt>
      <trkpt lat="48.57595" lon="-3.82127">
        <ele>115</ele>
        <time>2021-07-08T08:28:44Z</time>
      </trkpt>
      <trkpt lat="48.57594" lon="-3.82123">
        <ele>115</ele>
        <time>2021-07-08T08:28:45Z</time>
      </trkpt>
      <trkpt lat="48.57594" lon="-3.82121">
        <ele>115</ele>
        <time>2021-07-08T08:28:47Z</time>
      </trkpt>
      <trkpt lat="48.57593" lon="-3.82116">
        <ele>115</ele>
        <time>2021-07-08T08:28:49Z</time>
      </trkpt>
      <trkpt lat="48.57593" lon="-3.82113">
        <ele>115</ele>
        <time>2021-07-08T08:28:50Z</time>
      </trkpt>
      <trkpt lat="48.57593" lon="-3.8211">
        <ele>115</ele>
        <time>2021-07-08T08:28:51Z</time>
      </trkpt>
      <trkpt lat="48.57593" lon="-3.82105">
        <ele>115</ele>
        <time>2021-07-08T08:28:51Z</time>
      </trkpt>
      <trkpt lat="48.57593" lon="-3.82101">
        <ele>115</ele>
        <time>2021-07-08T08:28:53Z</time>
      </trkpt>
      <trkpt lat="48.57593" lon="-3.82096">
        <ele>115</ele>
        <time>2021-07-08T08:28:53Z</time>
      </trkpt>
      <trkpt lat="48.57593" lon="-3.8209">
        <ele>116</ele>
        <time>2021-07-08T08:28:55Z</time>
      </trkpt>
      <trkpt lat="48.57593" lon="-3.82085">
        <ele>116</ele>
        <time>2021-07-08T08:28:56Z</time>
      </trkpt>
      <trkpt lat="48.57592" lon="-3.8208">
        <ele>116</ele>
        <time>2021-07-08T08:28:57Z</time>
      </trkpt>
      <trkpt lat="48.57592" lon="-3.82075">
        <ele>116</ele>
        <time>2021-07-08T08:28:58Z</time>
      </trkpt>
      <trkpt lat="48.57593" lon="-3.82069">
        <ele>116</ele>
        <time>2021-07-08T08:28:59Z</time>
      </trkpt>
      <trkpt lat="48.57593" lon="-3.82064">
        <ele>116</ele>
        <time>2021-07-08T08:28:59Z</time>
      </trkpt>
      <trkpt lat="48.57593" lon="-3.82059">
        <ele>116</ele>
        <time>2021-07-08T08:29:01Z</time>
      </trkpt>
      <trkpt lat="48.57593" lon="-3.82055">
        <ele>116</ele>
        <time>2021-07-08T08:29:02Z</time>
      </trkpt>
      <trkpt lat="48.57592" lon="-3.8205">
        <ele>116</ele>
        <time>2021-07-08T08:29:03Z</time>
      </trkpt>
      <trkpt lat="48.57592" lon="-3.82047">
        <ele>116</ele>
        <time>2021-07-08T08:29:04Z</time>
      </trkpt>
      <trkpt lat="48.57591" lon="-3.82043">
        <ele>116</ele>
        <time>2021-07-08T08:29:05Z</time>
      </trkpt>
      <trkpt lat="48.5759" lon="-3.8204">
        <ele>116</ele>
        <time>2021-07-08T08:29:07Z</time>
      </trkpt>
      <trkpt lat="48.57589" lon="-3.82036">
        <ele>116</ele>
        <time>2021-07-08T08:29:08Z</time>
      </trkpt>
      <trkpt lat="48.57588" lon="-3.82033">
        <ele>116</ele>
        <time>2021-07-08T08:29:09Z</time>
      </trkpt>
      <trkpt lat="48.57587" lon="-3.82029">
        <ele>116</ele>
        <time>2021-07-08T08:29:10Z</time>
      </trkpt>
      <trkpt lat="48.57585" lon="-3.82025">
        <ele>116</ele>
        <time>2021-07-08T08:29:10Z</time>
      </trkpt>
      <trkpt lat="48.57584" lon="-3.82021">
        <ele>116</ele>
        <time>2021-07-08T08:29:11Z</time>
      </trkpt>
      <trkpt lat="48.57583" lon="-3.82016">
        <ele>116</ele>
        <time>2021-07-08T08:29:12Z</time>
      </trkpt>
      <trkpt lat="48.57583" lon="-3.82011">
        <ele>116</ele>
        <time>2021-07-08T08:29:14Z</time>
      </trkpt>
      <trkpt lat="48.57582" lon="-3.82006">
        <ele>116</ele>
        <time>2021-07-08T08:29:15Z</time>
      </trkpt>
      <trkpt lat="48.57582" lon="-3.82">
        <ele>116</ele>
        <time>2021-07-08T08:29:16Z</time>
      </trkpt>
      <trkpt lat="48.57581" lon="-3.81995">
        <ele>116</ele>
        <time>2021-07-08T08:29:17Z</time>
      </trkpt>
      <trkpt lat="48.57581" lon="-3.81989">
        <ele>116</ele>
        <time>2021-07-08T08:29:17Z</time>
      </trkpt>
      <trkpt lat="48.5758" lon="-3.81984">
        <ele>116</ele>
        <time>2021-07-08T08:29:19Z</time>
      </trkpt>
      <trkpt lat="48.5758" lon="-3.81978">
        <ele>116</ele>
        <time>2021-07-08T08:29:19Z</time>
      </trkpt>
      <trkpt lat="48.5758" lon="-3.81973">
        <ele>116</ele>
        <time>2021-07-08T08:29:20Z</time>
      </trkpt>
      <trkpt lat="48.57579" lon="-3.81967">
        <ele>116</ele>
        <time>2021-07-08T08:29:21Z</time>
      </trkpt>
      <trkpt lat="48.57579" lon="-3.81961">
        <ele>116</ele>
        <time>2021-07-08T08:29:22Z</time>
      </trkpt>
      <trkpt lat="48.57579" lon="-3.81956">
        <ele>116</ele>
        <time>2021-07-08T08:29:23Z</time>
      </trkpt>
      <trkpt lat="48.57578" lon="-3.8195">
        <ele>116</ele>
        <time>2021-07-08T08:29:24Z</time>
      </trkpt>
      <trkpt lat="48.57578" lon="-3.81944">
        <ele>116</ele>
        <time>2021-07-08T08:29:25Z</time>
      </trkpt>
      <trkpt lat="48.57577" lon="-3.81939">
        <ele>116</ele>
        <time>2021-07-08T08:29:26Z</time>
      </trkpt>
      <trkpt lat="48.57577" lon="-3.81933">
        <ele>116</ele>
        <time>2021-07-08T08:29:27Z</time>
      </trkpt>
      <trkpt lat="48.57576" lon="-3.81928">
        <ele>116</ele>
        <time>2021-07-08T08:29:28Z</time>
      </trkpt>
      <trkpt lat="48.57575" lon="-3.81922">
        <ele>116</ele>
        <time>2021-07-08T08:29:30Z</time>
      </trkpt>
      <trkpt lat="48.57575" lon="-3.81916">
        <ele>116</ele>
        <time>2021-07-08T08:29:31Z</time>
      </trkpt>
      <trkpt lat="48.57574" lon="-3.81911">
        <ele>116</ele>
        <time>2021-07-08T08:29:32Z</time>
      </trkpt>
      <trkpt lat="48.57573" lon="-3.81906">
        <ele>116</ele>
        <time>2021-07-08T08:29:33Z</time>
      </trkpt>
      <trkpt lat="48.57572" lon="-3.819">
        <ele>116</ele>
        <time>2021-07-08T08:29:34Z</time>
      </trkpt>
      <trkpt lat="48.57572" lon="-3.81895">
        <ele>116</ele>
        <time>2021-07-08T08:29:35Z</time>
      </trkpt>
      <trkpt lat="48.57572" lon="-3.81889">
        <ele>116</ele>
        <time>2021-07-08T08:29:35Z</time>
      </trkpt>
      <trkpt lat="48.57572" lon="-3.81884">
        <ele>116</ele>
        <time>2021-07-08T08:29:37Z</time>
      </trkpt>
      <trkpt lat="48.57573" lon="-3.8188">
        <ele>117</ele>
        <time>2021-07-08T08:29:38Z</time>
      </trkpt>
      <trkpt lat="48.57574" lon="-3.81875">
        <ele>117</ele>
        <time>2021-07-08T08:29:38Z</time>
      </trkpt>
      <trkpt lat="48.57575" lon="-3.81871">
        <ele>118</ele>
        <time>2021-07-08T08:29:40Z</time>
      </trkpt>
      <trkpt lat="48.57576" lon="-3.81867">
        <ele>118</ele>
        <time>2021-07-08T08:29:41Z</time>
      </trkpt>
      <trkpt lat="48.57576" lon="-3.81862">
        <ele>118</ele>
        <time>2021-07-08T08:29:41Z</time>
      </trkpt>
      <trkpt lat="48.57576" lon="-3.81857">
        <ele>118</ele>
        <time>2021-07-08T08:29:43Z</time>
      </trkpt>
      <trkpt lat="48.57575" lon="-3.81853">
        <ele>118</ele>
        <time>2021-07-08T08:29:44Z</time>
      </trkpt>
      <trkpt lat="48.57574" lon="-3.81848">
        <ele>118</ele>
        <time>2021-07-08T08:29:44Z</time>
      </trkpt>
      <trkpt lat="48.57573" lon="-3.81843">
        <ele>118</ele>
        <time>2021-07-08T08:29:45Z</time>
      </trkpt>
      <trkpt lat="48.57571" lon="-3.81838">
        <ele>118</ele>
        <time>2021-07-08T08:29:46Z</time>
      </trkpt>
      <trkpt lat="48.5757" lon="-3.81833">
        <ele>117</ele>
        <time>2021-07-08T08:29:47Z</time>
      </trkpt>
      <trkpt lat="48.57566" lon="-3.81824">
        <ele>117</ele>
        <time>2021-07-08T08:29:49Z</time>
      </trkpt>
      <trkpt lat="48.57564" lon="-3.81819">
        <ele>117</ele>
        <time>2021-07-08T08:29:51Z</time>
      </trkpt>
      <trkpt lat="48.57562" lon="-3.81814">
        <ele>117</ele>
        <time>2021-07-08T08:29:52Z</time>
      </trkpt>
      <trkpt lat="48.5756" lon="-3.8181">
        <ele>117</ele>
        <time>2021-07-08T08:29:53Z</time>
      </trkpt>
      <trkpt lat="48.57557" lon="-3.81805">
        <ele>117</ele>
        <time>2021-07-08T08:29:54Z</time>
      </trkpt>
      <trkpt lat="48.57555" lon="-3.818">
        <ele>117</ele>
        <time>2021-07-08T08:29:55Z</time>
      </trkpt>
      <trkpt lat="48.57553" lon="-3.81796">
        <ele>117</ele>
        <time>2021-07-08T08:29:56Z</time>
      </trkpt>
      <trkpt lat="48.57551" lon="-3.81791">
        <ele>118</ele>
        <time>2021-07-08T08:29:57Z</time>
      </trkpt>
      <trkpt lat="48.57549" lon="-3.81786">
        <ele>118</ele>
        <time>2021-07-08T08:29:57Z</time>
      </trkpt>
      <trkpt lat="48.57546" lon="-3.81781">
        <ele>118</ele>
        <time>2021-07-08T08:29:58Z</time>
      </trkpt>
      <trkpt lat="48.57544" lon="-3.81776">
        <ele>117</ele>
        <time>2021-07-08T08:29:59Z</time>
      </trkpt>
      <trkpt lat="48.57542" lon="-3.81771">
        <ele>117</ele>
        <time>2021-07-08T08:30:00Z</time>
      </trkpt>
      <trkpt lat="48.5754" lon="-3.81766">
        <ele>117</ele>
        <time>2021-07-08T08:30:02Z</time>
      </trkpt>
      <trkpt lat="48.57537" lon="-3.81761">
        <ele>117</ele>
        <time>2021-07-08T08:30:02Z</time>
      </trkpt>
      <trkpt lat="48.57534" lon="-3.81756">
        <ele>117</ele>
        <time>2021-07-08T08:30:04Z</time>
      </trkpt>
      <trkpt lat="48.57532" lon="-3.81752">
        <ele>117</ele>
        <time>2021-07-08T08:30:05Z</time>
      </trkpt>
      <trkpt lat="48.57528" lon="-3.81748">
        <ele>117</ele>
        <time>2021-07-08T08:30:06Z</time>
      </trkpt>
      <trkpt lat="48.57526" lon="-3.81744">
        <ele>117</ele>
        <time>2021-07-08T08:30:06Z</time>
      </trkpt>
      <trkpt lat="48.57524" lon="-3.81739">
        <ele>117</ele>
        <time>2021-07-08T08:30:08Z</time>
      </trkpt>
      <trkpt lat="48.57522" lon="-3.81734">
        <ele>117</ele>
        <time>2021-07-08T08:30:08Z</time>
      </trkpt>
      <trkpt lat="48.5752" lon="-3.8173">
        <ele>118</ele>
        <time>2021-07-08T08:30:09Z</time>
      </trkpt>
      <trkpt lat="48.57517" lon="-3.81725">
        <ele>118</ele>
        <time>2021-07-08T08:30:10Z</time>
      </trkpt>
      <trkpt lat="48.57515" lon="-3.81721">
        <ele>118</ele>
        <time>2021-07-08T08:30:11Z</time>
      </trkpt>
      <trkpt lat="48.57513" lon="-3.81716">
        <ele>118</ele>
        <time>2021-07-08T08:30:12Z</time>
      </trkpt>
      <trkpt lat="48.57511" lon="-3.81712">
        <ele>117</ele>
        <time>2021-07-08T08:30:14Z</time>
      </trkpt>
      <trkpt lat="48.57509" lon="-3.81707">
        <ele>117</ele>
        <time>2021-07-08T08:30:15Z</time>
      </trkpt>
      <trkpt lat="48.57506" lon="-3.81703">
        <ele>117</ele>
        <time>2021-07-08T08:30:15Z</time>
      </trkpt>
      <trkpt lat="48.57505" lon="-3.81699">
        <ele>117</ele>
        <time>2021-07-08T08:30:16Z</time>
      </trkpt>
      <trkpt lat="48.57502" lon="-3.81694">
        <ele>117</ele>
        <time>2021-07-08T08:30:17Z</time>
      </trkpt>
      <trkpt lat="48.575" lon="-3.8169">
        <ele>117</ele>
        <time>2021-07-08T08:30:18Z</time>
      </trkpt>
      <trkpt lat="48.57498" lon="-3.81686">
        <ele>117</ele>
        <time>2021-07-08T08:30:20Z</time>
      </trkpt>
      <trkpt lat="48.57496" lon="-3.81681">
        <ele>117</ele>
        <time>2021-07-08T08:30:21Z</time>
      </trkpt>
      <trkpt lat="48.57494" lon="-3.81677">
        <ele>118</ele>
        <time>2021-07-08T08:30:22Z</time>
      </trkpt>
      <trkpt lat="48.57492" lon="-3.81673">
        <ele>118</ele>
        <time>2021-07-08T08:30:23Z</time>
      </trkpt>
      <trkpt lat="48.5749" lon="-3.81668">
        <ele>119</ele>
        <time>2021-07-08T08:30:24Z</time>
      </trkpt>
      <trkpt lat="48.57488" lon="-3.81664">
        <ele>119</ele>
        <time>2021-07-08T08:30:25Z</time>
      </trkpt>
      <trkpt lat="48.57486" lon="-3.8166">
        <ele>119</ele>
        <time>2021-07-08T08:30:26Z</time>
      </trkpt>
      <trkpt lat="48.57485" lon="-3.81656">
        <ele>119</ele>
        <time>2021-07-08T08:30:26Z</time>
      </trkpt>
      <trkpt lat="48.57483" lon="-3.81653">
        <ele>119</ele>
        <time>2021-07-08T08:30:27Z</time>
      </trkpt>
      <trkpt lat="48.57481" lon="-3.8165">
        <ele>119</ele>
        <time>2021-07-08T08:30:29Z</time>
      </trkpt>
      <trkpt lat="48.57479" lon="-3.81646">
        <ele>119</ele>
        <time>2021-07-08T08:30:30Z</time>
      </trkpt>
      <trkpt lat="48.57477" lon="-3.81642">
        <ele>119</ele>
        <time>2021-07-08T08:30:31Z</time>
      </trkpt>
      <trkpt lat="48.57475" lon="-3.81639">
        <ele>119</ele>
        <time>2021-07-08T08:30:32Z</time>
      </trkpt>
      <trkpt lat="48.57472" lon="-3.81635">
        <ele>119</ele>
        <time>2021-07-08T08:30:32Z</time>
      </trkpt>
      <trkpt lat="48.57469" lon="-3.81632">
        <ele>119</ele>
        <time>2021-07-08T08:30:33Z</time>
      </trkpt>
      <trkpt lat="48.57465" lon="-3.81629">
        <ele>119</ele>
        <time>2021-07-08T08:30:34Z</time>
      </trkpt>
      <trkpt lat="48.57462" lon="-3.81626">
        <ele>119</ele>
        <time>2021-07-08T08:30:35Z</time>
      </trkpt>
      <trkpt lat="48.57458" lon="-3.81622">
        <ele>119</ele>
        <time>2021-07-08T08:30:36Z</time>
      </trkpt>
      <trkpt lat="48.57454" lon="-3.81619">
        <ele>118</ele>
        <time>2021-07-08T08:30:37Z</time>
      </trkpt>
      <trkpt lat="48.5745" lon="-3.81615">
        <ele>118</ele>
        <time>2021-07-08T08:30:39Z</time>
      </trkpt>
      <trkpt lat="48.57446" lon="-3.81611">
        <ele>118</ele>
        <time>2021-07-08T08:30:40Z</time>
      </trkpt>
      <trkpt lat="48.57442" lon="-3.81606">
        <ele>118</ele>
        <time>2021-07-08T08:30:41Z</time>
      </trkpt>
      <trkpt lat="48.57437" lon="-3.81602">
        <ele>118</ele>
        <time>2021-07-08T08:30:42Z</time>
      </trkpt>
      <trkpt lat="48.57433" lon="-3.81597">
        <ele>118</ele>
        <time>2021-07-08T08:30:43Z</time>
      </trkpt>
      <trkpt lat="48.57429" lon="-3.81593">
        <ele>118</ele>
        <time>2021-07-08T08:30:44Z</time>
      </trkpt>
      <trkpt lat="48.57425" lon="-3.81588">
        <ele>117</ele>
        <time>2021-07-08T08:30:45Z</time>
      </trkpt>
      <trkpt lat="48.57417" lon="-3.81578">
        <ele>117</ele>
        <time>2021-07-08T08:30:46Z</time>
      </trkpt>
      <trkpt lat="48.57413" lon="-3.81573">
        <ele>117</ele>
        <time>2021-07-08T08:30:47Z</time>
      </trkpt>
      <trkpt lat="48.57409" lon="-3.81567">
        <ele>117</ele>
        <time>2021-07-08T08:30:48Z</time>
      </trkpt>
      <trkpt lat="48.57405" lon="-3.81562">
        <ele>117</ele>
        <time>2021-07-08T08:30:49Z</time>
      </trkpt>
      <trkpt lat="48.57401" lon="-3.81556">
        <ele>116</ele>
        <time>2021-07-08T08:30:51Z</time>
      </trkpt>
      <trkpt lat="48.57397" lon="-3.81551">
        <ele>116</ele>
        <time>2021-07-08T08:30:52Z</time>
      </trkpt>
      <trkpt lat="48.57393" lon="-3.81545">
        <ele>116</ele>
        <time>2021-07-08T08:30:53Z</time>
      </trkpt>
      <trkpt lat="48.57389" lon="-3.8154">
        <ele>116</ele>
        <time>2021-07-08T08:30:54Z</time>
      </trkpt>
      <trkpt lat="48.57385" lon="-3.81534">
        <ele>116</ele>
        <time>2021-07-08T08:30:54Z</time>
      </trkpt>
      <trkpt lat="48.57381" lon="-3.81529">
        <ele>116</ele>
        <time>2021-07-08T08:30:55Z</time>
      </trkpt>
      <trkpt lat="48.57378" lon="-3.81524">
        <ele>117</ele>
        <time>2021-07-08T08:30:56Z</time>
      </trkpt>
      <trkpt lat="48.57374" lon="-3.81519">
        <ele>117</ele>
        <time>2021-07-08T08:30:58Z</time>
      </trkpt>
      <trkpt lat="48.5737" lon="-3.81514">
        <ele>117</ele>
        <time>2021-07-08T08:30:58Z</time>
      </trkpt>
      <trkpt lat="48.57367" lon="-3.8151">
        <ele>116</ele>
        <time>2021-07-08T08:30:59Z</time>
      </trkpt>
      <trkpt lat="48.57363" lon="-3.81505">
        <ele>116</ele>
        <time>2021-07-08T08:31:00Z</time>
      </trkpt>
      <trkpt lat="48.5736" lon="-3.81501">
        <ele>116</ele>
        <time>2021-07-08T08:31:01Z</time>
      </trkpt>
      <trkpt lat="48.57356" lon="-3.81497">
        <ele>116</ele>
        <time>2021-07-08T08:31:02Z</time>
      </trkpt>
      <trkpt lat="48.57353" lon="-3.81492">
        <ele>116</ele>
        <time>2021-07-08T08:31:03Z</time>
      </trkpt>
      <trkpt lat="48.5735" lon="-3.81488">
        <ele>116</ele>
        <time>2021-07-08T08:31:04Z</time>
      </trkpt>
      <trkpt lat="48.57348" lon="-3.81484">
        <ele>116</ele>
        <time>2021-07-08T08:31:06Z</time>
      </trkpt>
      <trkpt lat="48.57346" lon="-3.81479">
        <ele>116</ele>
        <time>2021-07-08T08:31:07Z</time>
      </trkpt>
      <trkpt lat="48.57344" lon="-3.81473">
        <ele>117</ele>
        <time>2021-07-08T08:31:08Z</time>
      </trkpt>
      <trkpt lat="48.57342" lon="-3.81468">
        <ele>117</ele>
        <time>2021-07-08T08:31:09Z</time>
      </trkpt>
      <trkpt lat="48.5734" lon="-3.81463">
        <ele>117</ele>
        <time>2021-07-08T08:31:10Z</time>
      </trkpt>
      <trkpt lat="48.57338" lon="-3.81458">
        <ele>117</ele>
        <time>2021-07-08T08:31:10Z</time>
      </trkpt>
      <trkpt lat="48.57336" lon="-3.81452">
        <ele>117</ele>
        <time>2021-07-08T08:31:11Z</time>
      </trkpt>
      <trkpt lat="48.57333" lon="-3.81447">
        <ele>117</ele>
        <time>2021-07-08T08:31:12Z</time>
      </trkpt>
      <trkpt lat="48.57331" lon="-3.81442">
        <ele>117</ele>
        <time>2021-07-08T08:31:13Z</time>
      </trkpt>
      <trkpt lat="48.57329" lon="-3.81436">
        <ele>117</ele>
        <time>2021-07-08T08:31:14Z</time>
      </trkpt>
      <trkpt lat="48.57327" lon="-3.81431">
        <ele>117</ele>
        <time>2021-07-08T08:31:16Z</time>
      </trkpt>
      <trkpt lat="48.57324" lon="-3.81425">
        <ele>117</ele>
        <time>2021-07-08T08:31:16Z</time>
      </trkpt>
      <trkpt lat="48.57322" lon="-3.8142">
        <ele>117</ele>
        <time>2021-07-08T08:31:17Z</time>
      </trkpt>
      <trkpt lat="48.57319" lon="-3.81414">
        <ele>117</ele>
        <time>2021-07-08T08:31:19Z</time>
      </trkpt>
      <trkpt lat="48.57317" lon="-3.81409">
        <ele>117</ele>
        <time>2021-07-08T08:31:20Z</time>
      </trkpt>
      <trkpt lat="48.57315" lon="-3.81403">
        <ele>116</ele>
        <time>2021-07-08T08:31:21Z</time>
      </trkpt>
      <trkpt lat="48.57314" lon="-3.81397">
        <ele>116</ele>
        <time>2021-07-08T08:31:22Z</time>
      </trkpt>
      <trkpt lat="48.57313" lon="-3.81392">
        <ele>116</ele>
        <time>2021-07-08T08:31:23Z</time>
      </trkpt>
      <trkpt lat="48.57312" lon="-3.81386">
        <ele>116</ele>
        <time>2021-07-08T08:31:23Z</time>
      </trkpt>
      <trkpt lat="48.57311" lon="-3.81381">
        <ele>116</ele>
        <time>2021-07-08T08:31:25Z</time>
      </trkpt>
      <trkpt lat="48.5731" lon="-3.81376">
        <ele>117</ele>
        <time>2021-07-08T08:31:26Z</time>
      </trkpt>
      <trkpt lat="48.57308" lon="-3.81372">
        <ele>117</ele>
        <time>2021-07-08T08:31:27Z</time>
      </trkpt>
      <trkpt lat="48.57307" lon="-3.81368">
        <ele>117</ele>
        <time>2021-07-08T08:31:28Z</time>
      </trkpt>
      <trkpt lat="48.57306" lon="-3.81364">
        <ele>117</ele>
        <time>2021-07-08T08:31:29Z</time>
      </trkpt>
      <trkpt lat="48.57305" lon="-3.81361">
        <ele>117</ele>
        <time>2021-07-08T08:31:30Z</time>
      </trkpt>
      <trkpt lat="48.57304" lon="-3.81357">
        <ele>118</ele>
        <time>2021-07-08T08:31:31Z</time>
      </trkpt>
      <trkpt lat="48.57304" lon="-3.81355">
        <ele>118</ele>
        <time>2021-07-08T08:31:32Z</time>
      </trkpt>
      <trkpt lat="48.57303" lon="-3.81352">
        <ele>119</ele>
        <time>2021-07-08T08:31:33Z</time>
      </trkpt>
      <trkpt lat="48.57302" lon="-3.81349">
        <ele>119</ele>
        <time>2021-07-08T08:31:34Z</time>
      </trkpt>
      <trkpt lat="48.57301" lon="-3.81346">
        <ele>119</ele>
        <time>2021-07-08T08:31:35Z</time>
      </trkpt>
      <trkpt lat="48.573" lon="-3.81343">
        <ele>119</ele>
        <time>2021-07-08T08:31:36Z</time>
      </trkpt>
      <trkpt lat="48.573" lon="-3.8134">
        <ele>119</ele>
        <time>2021-07-08T08:31:37Z</time>
      </trkpt>
      <trkpt lat="48.57299" lon="-3.81337">
        <ele>119</ele>
        <time>2021-07-08T08:31:38Z</time>
      </trkpt>
      <trkpt lat="48.57298" lon="-3.81334">
        <ele>119</ele>
        <time>2021-07-08T08:31:39Z</time>
      </trkpt>
      <trkpt lat="48.57298" lon="-3.81332">
        <ele>119</ele>
        <time>2021-07-08T08:31:40Z</time>
      </trkpt>
      <trkpt lat="48.57297" lon="-3.81329">
        <ele>119</ele>
        <time>2021-07-08T08:31:41Z</time>
      </trkpt>
      <trkpt lat="48.57296" lon="-3.81326">
        <ele>119</ele>
        <time>2021-07-08T08:31:42Z</time>
      </trkpt>
      <trkpt lat="48.57295" lon="-3.81323">
        <ele>119</ele>
        <time>2021-07-08T08:31:42Z</time>
      </trkpt>
      <trkpt lat="48.57293" lon="-3.81319">
        <ele>119</ele>
        <time>2021-07-08T08:31:45Z</time>
      </trkpt>
      <trkpt lat="48.57291" lon="-3.81314">
        <ele>120</ele>
        <time>2021-07-08T08:31:46Z</time>
      </trkpt>
      <trkpt lat="48.5729" lon="-3.81311">
        <ele>121</ele>
        <time>2021-07-08T08:31:47Z</time>
      </trkpt>
      <trkpt lat="48.57289" lon="-3.81309">
        <ele>121</ele>
        <time>2021-07-08T08:31:48Z</time>
      </trkpt>
      <trkpt lat="48.57288" lon="-3.81305">
        <ele>121</ele>
        <time>2021-07-08T08:31:49Z</time>
      </trkpt>
      <trkpt lat="48.57287" lon="-3.81302">
        <ele>121</ele>
        <time>2021-07-08T08:31:51Z</time>
      </trkpt>
      <trkpt lat="48.57286" lon="-3.81298">
        <ele>121</ele>
        <time>2021-07-08T08:31:51Z</time>
      </trkpt>
      <trkpt lat="48.57286" lon="-3.81295">
        <ele>121</ele>
        <time>2021-07-08T08:31:52Z</time>
      </trkpt>
      <trkpt lat="48.57285" lon="-3.81291">
        <ele>121</ele>
        <time>2021-07-08T08:31:53Z</time>
      </trkpt>
      <trkpt lat="48.57285" lon="-3.81288">
        <ele>121</ele>
        <time>2021-07-08T08:31:55Z</time>
      </trkpt>
      <trkpt lat="48.57284" lon="-3.81285">
        <ele>121</ele>
        <time>2021-07-08T08:31:55Z</time>
      </trkpt>
      <trkpt lat="48.57283" lon="-3.81282">
        <ele>122</ele>
        <time>2021-07-08T08:31:57Z</time>
      </trkpt>
      <trkpt lat="48.57282" lon="-3.81279">
        <ele>122</ele>
        <time>2021-07-08T08:31:57Z</time>
      </trkpt>
      <trkpt lat="48.5728" lon="-3.81276">
        <ele>122</ele>
        <time>2021-07-08T08:31:58Z</time>
      </trkpt>
      <trkpt lat="48.57279" lon="-3.81272">
        <ele>122</ele>
        <time>2021-07-08T08:32:00Z</time>
      </trkpt>
      <trkpt lat="48.57278" lon="-3.81269">
        <ele>123</ele>
        <time>2021-07-08T08:32:00Z</time>
      </trkpt>
      <trkpt lat="48.57277" lon="-3.81266">
        <ele>123</ele>
        <time>2021-07-08T08:32:02Z</time>
      </trkpt>
      <trkpt lat="48.57276" lon="-3.81262">
        <ele>123</ele>
        <time>2021-07-08T08:32:02Z</time>
      </trkpt>
      <trkpt lat="48.57274" lon="-3.81258">
        <ele>123</ele>
        <time>2021-07-08T08:32:04Z</time>
      </trkpt>
      <trkpt lat="48.57273" lon="-3.81254">
        <ele>123</ele>
        <time>2021-07-08T08:32:04Z</time>
      </trkpt>
      <trkpt lat="48.57272" lon="-3.81251">
        <ele>123</ele>
        <time>2021-07-08T08:32:06Z</time>
      </trkpt>
      <trkpt lat="48.57271" lon="-3.81248">
        <ele>123</ele>
        <time>2021-07-08T08:32:07Z</time>
      </trkpt>
      <trkpt lat="48.5727" lon="-3.81244">
        <ele>123</ele>
        <time>2021-07-08T08:32:08Z</time>
      </trkpt>
      <trkpt lat="48.57269" lon="-3.81241">
        <ele>124</ele>
        <time>2021-07-08T08:32:09Z</time>
      </trkpt>
      <trkpt lat="48.57268" lon="-3.81237">
        <ele>124</ele>
        <time>2021-07-08T08:32:10Z</time>
      </trkpt>
      <trkpt lat="48.57267" lon="-3.81234">
        <ele>125</ele>
        <time>2021-07-08T08:32:11Z</time>
      </trkpt>
      <trkpt lat="48.57266" lon="-3.8123">
        <ele>125</ele>
        <time>2021-07-08T08:32:11Z</time>
      </trkpt>
      <trkpt lat="48.57265" lon="-3.81227">
        <ele>125</ele>
        <time>2021-07-08T08:32:13Z</time>
      </trkpt>
      <trkpt lat="48.57264" lon="-3.81224">
        <ele>125</ele>
        <time>2021-07-08T08:32:13Z</time>
      </trkpt>
      <trkpt lat="48.57264" lon="-3.81221">
        <ele>125</ele>
        <time>2021-07-08T08:32:15Z</time>
      </trkpt>
      <trkpt lat="48.57262" lon="-3.81218">
        <ele>125</ele>
        <time>2021-07-08T08:32:15Z</time>
      </trkpt>
      <trkpt lat="48.57261" lon="-3.81215">
        <ele>125</ele>
        <time>2021-07-08T08:32:16Z</time>
      </trkpt>
      <trkpt lat="48.5726" lon="-3.81212">
        <ele>125</ele>
        <time>2021-07-08T08:32:18Z</time>
      </trkpt>
      <trkpt lat="48.57259" lon="-3.81209">
        <ele>125</ele>
        <time>2021-07-08T08:32:19Z</time>
      </trkpt>
      <trkpt lat="48.57258" lon="-3.81206">
        <ele>125</ele>
        <time>2021-07-08T08:32:19Z</time>
      </trkpt>
      <trkpt lat="48.57257" lon="-3.81202">
        <ele>125</ele>
        <time>2021-07-08T08:32:20Z</time>
      </trkpt>
      <trkpt lat="48.57256" lon="-3.812">
        <ele>125</ele>
        <time>2021-07-08T08:32:22Z</time>
      </trkpt>
      <trkpt lat="48.57255" lon="-3.81197">
        <ele>125</ele>
        <time>2021-07-08T08:32:23Z</time>
      </trkpt>
      <trkpt lat="48.57254" lon="-3.81194">
        <ele>125</ele>
        <time>2021-07-08T08:32:23Z</time>
      </trkpt>
      <trkpt lat="48.57253" lon="-3.81192">
        <ele>126</ele>
        <time>2021-07-08T08:32:24Z</time>
      </trkpt>
      <trkpt lat="48.57252" lon="-3.81189">
        <ele>126</ele>
        <time>2021-07-08T08:32:26Z</time>
      </trkpt>
      <trkpt lat="48.57251" lon="-3.81185">
        <ele>126</ele>
        <time>2021-07-08T08:32:28Z</time>
      </trkpt>
      <trkpt lat="48.57251" lon="-3.81182">
        <ele>127</ele>
        <time>2021-07-08T08:32:33Z</time>
      </trkpt>
      <trkpt lat="48.5725" lon="-3.81179">
        <ele>127</ele>
        <time>2021-07-08T08:32:36Z</time>
      </trkpt>
      <trkpt lat="48.57249" lon="-3.81176">
        <ele>127</ele>
        <time>2021-07-08T08:32:37Z</time>
      </trkpt>
      <trkpt lat="48.57248" lon="-3.81173">
        <ele>128</ele>
        <time>2021-07-08T08:32:39Z</time>
      </trkpt>
      <trkpt lat="48.57247" lon="-3.81169">
        <ele>128</ele>
        <time>2021-07-08T08:32:45Z</time>
      </trkpt>
      <trkpt lat="48.57246" lon="-3.81166">
        <ele>128</ele>
        <time>2021-07-08T08:32:47Z</time>
      </trkpt>
      <trkpt lat="48.57245" lon="-3.81161">
        <ele>128</ele>
        <time>2021-07-08T08:32:48Z</time>
      </trkpt>
      <trkpt lat="48.57244" lon="-3.81156">
        <ele>128</ele>
        <time>2021-07-08T08:32:50Z</time>
      </trkpt>
      <trkpt lat="48.57242" lon="-3.81152">
        <ele>129</ele>
        <time>2021-07-08T08:32:53Z</time>
      </trkpt>
      <trkpt lat="48.5724" lon="-3.81147">
        <ele>130</ele>
        <time>2021-07-08T08:32:55Z</time>
      </trkpt>
      <trkpt lat="48.57239" lon="-3.81144">
        <ele>130</ele>
        <time>2021-07-08T08:32:56Z</time>
      </trkpt>
      <trkpt lat="48.57238" lon="-3.8114">
        <ele>130</ele>
        <time>2021-07-08T08:32:57Z</time>
      </trkpt>
      <trkpt lat="48.57237" lon="-3.81137">
        <ele>130</ele>
        <time>2021-07-08T08:32:59Z</time>
      </trkpt>
      <trkpt lat="48.57235" lon="-3.81132">
        <ele>131</ele>
        <time>2021-07-08T08:33:01Z</time>
      </trkpt>
      <trkpt lat="48.57234" lon="-3.8113">
        <ele>131</ele>
        <time>2021-07-08T08:33:02Z</time>
      </trkpt>
      <trkpt lat="48.57233" lon="-3.81127">
        <ele>131</ele>
        <time>2021-07-08T08:33:02Z</time>
      </trkpt>
      <trkpt lat="48.57232" lon="-3.81125">
        <ele>131</ele>
        <time>2021-07-08T08:33:04Z</time>
      </trkpt>
      <trkpt lat="48.57231" lon="-3.8112">
        <ele>132</ele>
        <time>2021-07-08T08:33:06Z</time>
      </trkpt>
      <trkpt lat="48.57229" lon="-3.81118">
        <ele>132</ele>
        <time>2021-07-08T08:33:07Z</time>
      </trkpt>
      <trkpt lat="48.57228" lon="-3.81114">
        <ele>132</ele>
        <time>2021-07-08T08:33:08Z</time>
      </trkpt>
      <trkpt lat="48.57227" lon="-3.8111">
        <ele>133</ele>
        <time>2021-07-08T08:33:11Z</time>
      </trkpt>
      <trkpt lat="48.57225" lon="-3.81105">
        <ele>134</ele>
        <time>2021-07-08T08:33:12Z</time>
      </trkpt>
      <trkpt lat="48.57223" lon="-3.811">
        <ele>134</ele>
        <time>2021-07-08T08:33:15Z</time>
      </trkpt>
      <trkpt lat="48.57221" lon="-3.81099">
        <ele>134</ele>
        <time>2021-07-08T08:33:16Z</time>
      </trkpt>
      <trkpt lat="48.5722" lon="-3.81094">
        <ele>134</ele>
        <time>2021-07-08T08:33:17Z</time>
      </trkpt>
      <trkpt lat="48.57216" lon="-3.81083">
        <ele>136</ele>
        <time>2021-07-08T08:33:23Z</time>
      </trkpt>
      <trkpt lat="48.57215" lon="-3.8108">
        <ele>137</ele>
        <time>2021-07-08T08:33:24Z</time>
      </trkpt>
      <trkpt lat="48.57215" lon="-3.81074">
        <ele>138</ele>
        <time>2021-07-08T08:33:26Z</time>
      </trkpt>
      <trkpt lat="48.57215" lon="-3.81072">
        <ele>138</ele>
        <time>2021-07-08T08:33:27Z</time>
      </trkpt>
      <trkpt lat="48.57213" lon="-3.81068">
        <ele>138</ele>
        <time>2021-07-08T08:33:29Z</time>
      </trkpt>
      <trkpt lat="48.57212" lon="-3.81065">
        <ele>138</ele>
        <time>2021-07-08T08:33:31Z</time>
      </trkpt>
      <trkpt lat="48.5721" lon="-3.81055">
        <ele>139</ele>
        <time>2021-07-08T08:33:35Z</time>
      </trkpt>
      <trkpt lat="48.57208" lon="-3.81041">
        <ele>140</ele>
        <time>2021-07-08T08:33:40Z</time>
      </trkpt>
      <trkpt lat="48.57206" lon="-3.81026">
        <ele>143</ele>
        <time>2021-07-08T08:33:49Z</time>
      </trkpt>
      <trkpt lat="48.57205" lon="-3.81023">
        <ele>143</ele>
        <time>2021-07-08T08:33:52Z</time>
      </trkpt>
      <trkpt lat="48.57204" lon="-3.81019">
        <ele>144</ele>
        <time>2021-07-08T08:33:53Z</time>
      </trkpt>
      <trkpt lat="48.57203" lon="-3.81014">
        <ele>144</ele>
        <time>2021-07-08T08:33:55Z</time>
      </trkpt>
      <trkpt lat="48.57202" lon="-3.8101">
        <ele>144</ele>
        <time>2021-07-08T08:33:57Z</time>
      </trkpt>
      <trkpt lat="48.57201" lon="-3.81006">
        <ele>144</ele>
        <time>2021-07-08T08:33:59Z</time>
      </trkpt>
      <trkpt lat="48.57197" lon="-3.80991">
        <ele>146</ele>
        <time>2021-07-08T08:34:05Z</time>
      </trkpt>
      <trkpt lat="48.5719" lon="-3.80979">
        <ele>147</ele>
        <time>2021-07-08T08:34:10Z</time>
      </trkpt>
      <trkpt lat="48.57187" lon="-3.80966">
        <ele>147</ele>
        <time>2021-07-08T08:34:14Z</time>
      </trkpt>
      <trkpt lat="48.57183" lon="-3.80952">
        <ele>149</ele>
        <time>2021-07-08T08:34:20Z</time>
      </trkpt>
      <trkpt lat="48.57184" lon="-3.80938">
        <ele>148</ele>
        <time>2021-07-08T08:34:25Z</time>
      </trkpt>
      <trkpt lat="48.57189" lon="-3.80926">
        <ele>148</ele>
        <time>2021-07-08T08:34:30Z</time>
      </trkpt>
      <trkpt lat="48.57183" lon="-3.80912">
        <ele>147</ele>
        <time>2021-07-08T08:34:37Z</time>
      </trkpt>
      <trkpt lat="48.57174" lon="-3.80902">
        <ele>147</ele>
        <time>2021-07-08T08:34:41Z</time>
      </trkpt>
      <trkpt lat="48.57167" lon="-3.80887">
        <ele>147</ele>
        <time>2021-07-08T08:34:46Z</time>
      </trkpt>
      <trkpt lat="48.57161" lon="-3.80874">
        <ele>147</ele>
        <time>2021-07-08T08:34:48Z</time>
      </trkpt>
      <trkpt lat="48.57157" lon="-3.80859">
        <ele>146</ele>
        <time>2021-07-08T08:34:52Z</time>
      </trkpt>
      <trkpt lat="48.57152" lon="-3.80847">
        <ele>146</ele>
        <time>2021-07-08T08:34:53Z</time>
      </trkpt>
      <trkpt lat="48.57148" lon="-3.80834">
        <ele>146</ele>
        <time>2021-07-08T08:34:56Z</time>
      </trkpt>
      <trkpt lat="48.57144" lon="-3.80821">
        <ele>146</ele>
        <time>2021-07-08T08:34:58Z</time>
      </trkpt>
      <trkpt lat="48.5714" lon="-3.80808">
        <ele>146</ele>
        <time>2021-07-08T08:34:59Z</time>
      </trkpt>
      <trkpt lat="48.57136" lon="-3.80791">
        <ele>145</ele>
        <time>2021-07-08T08:35:03Z</time>
      </trkpt>
      <trkpt lat="48.57132" lon="-3.8077">
        <ele>145</ele>
        <time>2021-07-08T08:35:05Z</time>
      </trkpt>
      <trkpt lat="48.57128" lon="-3.80756">
        <ele>145</ele>
        <time>2021-07-08T08:35:07Z</time>
      </trkpt>
      <trkpt lat="48.57126" lon="-3.80741">
        <ele>144</ele>
        <time>2021-07-08T08:35:09Z</time>
      </trkpt>
      <trkpt lat="48.57124" lon="-3.80727">
        <ele>144</ele>
        <time>2021-07-08T08:35:12Z</time>
      </trkpt>
      <trkpt lat="48.57124" lon="-3.80721">
        <ele>144</ele>
        <time>2021-07-08T08:35:13Z</time>
      </trkpt>
      <trkpt lat="48.57123" lon="-3.80714">
        <ele>144</ele>
        <time>2021-07-08T08:35:14Z</time>
      </trkpt>
      <trkpt lat="48.57123" lon="-3.80694">
        <ele>144</ele>
        <time>2021-07-08T08:35:17Z</time>
      </trkpt>
      <trkpt lat="48.57121" lon="-3.8068">
        <ele>144</ele>
        <time>2021-07-08T08:35:18Z</time>
      </trkpt>
      <trkpt lat="48.57121" lon="-3.80666">
        <ele>144</ele>
        <time>2021-07-08T08:35:20Z</time>
      </trkpt>
      <trkpt lat="48.57121" lon="-3.80648">
        <ele>144</ele>
        <time>2021-07-08T08:35:23Z</time>
      </trkpt>
      <trkpt lat="48.57121" lon="-3.80632">
        <ele>144</ele>
        <time>2021-07-08T08:35:27Z</time>
      </trkpt>
      <trkpt lat="48.57121" lon="-3.80629">
        <ele>144</ele>
        <time>2021-07-08T08:35:28Z</time>
      </trkpt>
      <trkpt lat="48.57121" lon="-3.80625">
        <ele>144</ele>
        <time>2021-07-08T08:35:28Z</time>
      </trkpt>
      <trkpt lat="48.57121" lon="-3.80621">
        <ele>144</ele>
        <time>2021-07-08T08:35:30Z</time>
      </trkpt>
      <trkpt lat="48.57122" lon="-3.80618">
        <ele>143</ele>
        <time>2021-07-08T08:35:40Z</time>
      </trkpt>
      <trkpt lat="48.57122" lon="-3.80616">
        <ele>144</ele>
        <time>2021-07-08T08:35:46Z</time>
      </trkpt>
      <trkpt lat="48.57123" lon="-3.80613">
        <ele>144</ele>
        <time>2021-07-08T08:35:50Z</time>
      </trkpt>
      <trkpt lat="48.57123" lon="-3.8061">
        <ele>143</ele>
        <time>2021-07-08T08:35:55Z</time>
      </trkpt>
      <trkpt lat="48.57125" lon="-3.80609">
        <ele>143</ele>
        <time>2021-07-08T08:35:56Z</time>
      </trkpt>
      <trkpt lat="48.57126" lon="-3.80607">
        <ele>143</ele>
        <time>2021-07-08T08:36:06Z</time>
      </trkpt>
      <trkpt lat="48.57123" lon="-3.80613">
        <ele>144</ele>
        <time>2021-07-08T08:36:26Z</time>
      </trkpt>
      <trkpt lat="48.57123" lon="-3.80614">
        <ele>144</ele>
        <time>2021-07-08T08:36:28Z</time>
      </trkpt>
      <trkpt lat="48.57121" lon="-3.80614">
        <ele>144</ele>
        <time>2021-07-08T08:36:36Z</time>
      </trkpt>
      <trkpt lat="48.57122" lon="-3.80614">
        <ele>144</ele>
        <time>2021-07-08T08:39:27Z</time>
      </trkpt>
      <trkpt lat="48.57122" lon="-3.80611">
        <ele>144</ele>
        <time>2021-07-08T08:39:32Z</time>
      </trkpt>
      <trkpt lat="48.57123" lon="-3.80606">
        <ele>144</ele>
        <time>2021-07-08T08:39:34Z</time>
      </trkpt>
      <trkpt lat="48.57123" lon="-3.80603">
        <ele>144</ele>
        <time>2021-07-08T08:39:35Z</time>
      </trkpt>
      <trkpt lat="48.57123" lon="-3.806">
        <ele>143</ele>
        <time>2021-07-08T08:39:36Z</time>
      </trkpt>
      <trkpt lat="48.57123" lon="-3.80597">
        <ele>143</ele>
        <time>2021-07-08T08:39:37Z</time>
      </trkpt>
      <trkpt lat="48.57123" lon="-3.80593">
        <ele>143</ele>
        <time>2021-07-08T08:39:38Z</time>
      </trkpt>
      <trkpt lat="48.57121" lon="-3.80593">
        <ele>144</ele>
        <time>2021-07-08T08:39:49Z</time>
      </trkpt>
      <trkpt lat="48.57121" lon="-3.80584">
        <ele>143</ele>
        <time>2021-07-08T08:39:57Z</time>
      </trkpt>
      <trkpt lat="48.57122" lon="-3.80581">
        <ele>143</ele>
        <time>2021-07-08T08:39:58Z</time>
      </trkpt>
      <trkpt lat="48.57122" lon="-3.80575">
        <ele>143</ele>
        <time>2021-07-08T08:40:00Z</time>
      </trkpt>
      <trkpt lat="48.57122" lon="-3.80571">
        <ele>143</ele>
        <time>2021-07-08T08:40:01Z</time>
      </trkpt>
      <trkpt lat="48.57123" lon="-3.80567">
        <ele>143</ele>
        <time>2021-07-08T08:40:02Z</time>
      </trkpt>
      <trkpt lat="48.57123" lon="-3.80563">
        <ele>143</ele>
        <time>2021-07-08T08:40:03Z</time>
      </trkpt>
      <trkpt lat="48.57123" lon="-3.80557">
        <ele>143</ele>
        <time>2021-07-08T08:40:04Z</time>
      </trkpt>
      <trkpt lat="48.57122" lon="-3.80543">
        <ele>142</ele>
        <time>2021-07-08T08:40:05Z</time>
      </trkpt>
      <trkpt lat="48.57122" lon="-3.80528">
        <ele>142</ele>
        <time>2021-07-08T08:40:07Z</time>
      </trkpt>
      <trkpt lat="48.57122" lon="-3.80514">
        <ele>142</ele>
        <time>2021-07-08T08:40:09Z</time>
      </trkpt>
      <trkpt lat="48.57121" lon="-3.80501">
        <ele>142</ele>
        <time>2021-07-08T08:40:12Z</time>
      </trkpt>
      <trkpt lat="48.5712" lon="-3.80485">
        <ele>142</ele>
        <time>2021-07-08T08:40:14Z</time>
      </trkpt>
      <trkpt lat="48.57116" lon="-3.80467">
        <ele>141</ele>
        <time>2021-07-08T08:40:16Z</time>
      </trkpt>
      <trkpt lat="48.57115" lon="-3.80458">
        <ele>141</ele>
        <time>2021-07-08T08:40:16Z</time>
      </trkpt>
      <trkpt lat="48.57112" lon="-3.80442">
        <ele>141</ele>
        <time>2021-07-08T08:40:18Z</time>
      </trkpt>
      <trkpt lat="48.57111" lon="-3.80435">
        <ele>141</ele>
        <time>2021-07-08T08:40:19Z</time>
      </trkpt>
      <trkpt lat="48.5711" lon="-3.80429">
        <ele>141</ele>
        <time>2021-07-08T08:40:20Z</time>
      </trkpt>
      <trkpt lat="48.57108" lon="-3.80423">
        <ele>141</ele>
        <time>2021-07-08T08:40:21Z</time>
      </trkpt>
      <trkpt lat="48.57106" lon="-3.80417">
        <ele>141</ele>
        <time>2021-07-08T08:40:22Z</time>
      </trkpt>
      <trkpt lat="48.57105" lon="-3.80411">
        <ele>141</ele>
        <time>2021-07-08T08:40:24Z</time>
      </trkpt>
      <trkpt lat="48.57103" lon="-3.80406">
        <ele>141</ele>
        <time>2021-07-08T08:40:25Z</time>
      </trkpt>
      <trkpt lat="48.57102" lon="-3.804">
        <ele>140</ele>
        <time>2021-07-08T08:40:26Z</time>
      </trkpt>
      <trkpt lat="48.571" lon="-3.80395">
        <ele>140</ele>
        <time>2021-07-08T08:40:27Z</time>
      </trkpt>
      <trkpt lat="48.57096" lon="-3.80382">
        <ele>140</ele>
        <time>2021-07-08T08:40:29Z</time>
      </trkpt>
      <trkpt lat="48.57091" lon="-3.80368">
        <ele>140</ele>
        <time>2021-07-08T08:40:30Z</time>
      </trkpt>
      <trkpt lat="48.57085" lon="-3.80353">
        <ele>140</ele>
        <time>2021-07-08T08:40:32Z</time>
      </trkpt>
      <trkpt lat="48.5708" lon="-3.8034">
        <ele>140</ele>
        <time>2021-07-08T08:40:34Z</time>
      </trkpt>
      <trkpt lat="48.57074" lon="-3.80326">
        <ele>140</ele>
        <time>2021-07-08T08:40:37Z</time>
      </trkpt>
      <trkpt lat="48.57068" lon="-3.80312">
        <ele>140</ele>
        <time>2021-07-08T08:40:38Z</time>
      </trkpt>
      <trkpt lat="48.57065" lon="-3.80305">
        <ele>140</ele>
        <time>2021-07-08T08:40:40Z</time>
      </trkpt>
      <trkpt lat="48.57062" lon="-3.80299">
        <ele>140</ele>
        <time>2021-07-08T08:40:41Z</time>
      </trkpt>
      <trkpt lat="48.57059" lon="-3.80293">
        <ele>140</ele>
        <time>2021-07-08T08:40:42Z</time>
      </trkpt>
      <trkpt lat="48.57053" lon="-3.80282">
        <ele>140</ele>
        <time>2021-07-08T08:40:43Z</time>
      </trkpt>
      <trkpt lat="48.57046" lon="-3.8027">
        <ele>140</ele>
        <time>2021-07-08T08:40:46Z</time>
      </trkpt>
      <trkpt lat="48.57038" lon="-3.80258">
        <ele>140</ele>
        <time>2021-07-08T08:40:48Z</time>
      </trkpt>
      <trkpt lat="48.5703" lon="-3.80243">
        <ele>140</ele>
        <time>2021-07-08T08:40:50Z</time>
      </trkpt>
      <trkpt lat="48.57021" lon="-3.80229">
        <ele>139</ele>
        <time>2021-07-08T08:40:53Z</time>
      </trkpt>
      <trkpt lat="48.57011" lon="-3.80218">
        <ele>139</ele>
        <time>2021-07-08T08:40:57Z</time>
      </trkpt>
      <trkpt lat="48.57" lon="-3.80208">
        <ele>139</ele>
        <time>2021-07-08T08:41:01Z</time>
      </trkpt>
      <trkpt lat="48.56988" lon="-3.802">
        <ele>139</ele>
        <time>2021-07-08T08:41:03Z</time>
      </trkpt>
      <trkpt lat="48.5698" lon="-3.80192">
        <ele>138</ele>
        <time>2021-07-08T08:41:05Z</time>
      </trkpt>
      <trkpt lat="48.56972" lon="-3.80184">
        <ele>138</ele>
        <time>2021-07-08T08:41:07Z</time>
      </trkpt>
      <trkpt lat="48.56962" lon="-3.80177">
        <ele>138</ele>
        <time>2021-07-08T08:41:10Z</time>
      </trkpt>
      <trkpt lat="48.56953" lon="-3.80169">
        <ele>138</ele>
        <time>2021-07-08T08:41:11Z</time>
      </trkpt>
      <trkpt lat="48.56941" lon="-3.80163">
        <ele>138</ele>
        <time>2021-07-08T08:41:13Z</time>
      </trkpt>
      <trkpt lat="48.56932" lon="-3.80153">
        <ele>138</ele>
        <time>2021-07-08T08:41:15Z</time>
      </trkpt>
      <trkpt lat="48.56923" lon="-3.80136">
        <ele>138</ele>
        <time>2021-07-08T08:41:18Z</time>
      </trkpt>
      <trkpt lat="48.56914" lon="-3.80128">
        <ele>137</ele>
        <time>2021-07-08T08:41:19Z</time>
      </trkpt>
      <trkpt lat="48.56904" lon="-3.80121">
        <ele>137</ele>
        <time>2021-07-08T08:41:22Z</time>
      </trkpt>
      <trkpt lat="48.56895" lon="-3.80113">
        <ele>137</ele>
        <time>2021-07-08T08:41:23Z</time>
      </trkpt>
      <trkpt lat="48.56884" lon="-3.80106">
        <ele>137</ele>
        <time>2021-07-08T08:41:25Z</time>
      </trkpt>
      <trkpt lat="48.56873" lon="-3.801">
        <ele>137</ele>
        <time>2021-07-08T08:41:27Z</time>
      </trkpt>
      <trkpt lat="48.56863" lon="-3.80094">
        <ele>137</ele>
        <time>2021-07-08T08:41:29Z</time>
      </trkpt>
      <trkpt lat="48.56853" lon="-3.80088">
        <ele>136</ele>
        <time>2021-07-08T08:41:31Z</time>
      </trkpt>
      <trkpt lat="48.56844" lon="-3.80081">
        <ele>136</ele>
        <time>2021-07-08T08:41:33Z</time>
      </trkpt>
      <trkpt lat="48.56835" lon="-3.80074">
        <ele>136</ele>
        <time>2021-07-08T08:41:36Z</time>
      </trkpt>
      <trkpt lat="48.56823" lon="-3.80067">
        <ele>136</ele>
        <time>2021-07-08T08:41:38Z</time>
      </trkpt>
      <trkpt lat="48.56814" lon="-3.80062">
        <ele>135</ele>
        <time>2021-07-08T08:41:39Z</time>
      </trkpt>
      <trkpt lat="48.56802" lon="-3.80054">
        <ele>135</ele>
        <time>2021-07-08T08:41:42Z</time>
      </trkpt>
      <trkpt lat="48.56793" lon="-3.80046">
        <ele>135</ele>
        <time>2021-07-08T08:41:44Z</time>
      </trkpt>
      <trkpt lat="48.56785" lon="-3.80039">
        <ele>135</ele>
        <time>2021-07-08T08:41:46Z</time>
      </trkpt>
      <trkpt lat="48.56775" lon="-3.80032">
        <ele>134</ele>
        <time>2021-07-08T08:41:48Z</time>
      </trkpt>
      <trkpt lat="48.56768" lon="-3.80024">
        <ele>134</ele>
        <time>2021-07-08T08:41:49Z</time>
      </trkpt>
      <trkpt lat="48.56759" lon="-3.80017">
        <ele>134</ele>
        <time>2021-07-08T08:41:51Z</time>
      </trkpt>
      <trkpt lat="48.56749" lon="-3.8001">
        <ele>134</ele>
        <time>2021-07-08T08:41:53Z</time>
      </trkpt>
      <trkpt lat="48.56739" lon="-3.80003">
        <ele>134</ele>
        <time>2021-07-08T08:41:56Z</time>
      </trkpt>
      <trkpt lat="48.5673" lon="-3.79995">
        <ele>134</ele>
        <time>2021-07-08T08:41:57Z</time>
      </trkpt>
      <trkpt lat="48.56722" lon="-3.79988">
        <ele>133</ele>
        <time>2021-07-08T08:42:00Z</time>
      </trkpt>
      <trkpt lat="48.56718" lon="-3.79985">
        <ele>133</ele>
        <time>2021-07-08T08:42:00Z</time>
      </trkpt>
      <trkpt lat="48.56714" lon="-3.79982">
        <ele>133</ele>
        <time>2021-07-08T08:42:02Z</time>
      </trkpt>
      <trkpt lat="48.56709" lon="-3.79979">
        <ele>133</ele>
        <time>2021-07-08T08:42:02Z</time>
      </trkpt>
      <trkpt lat="48.56705" lon="-3.79976">
        <ele>134</ele>
        <time>2021-07-08T08:42:03Z</time>
      </trkpt>
      <trkpt lat="48.56701" lon="-3.79972">
        <ele>134</ele>
        <time>2021-07-08T08:42:05Z</time>
      </trkpt>
      <trkpt lat="48.56698" lon="-3.79969">
        <ele>134</ele>
        <time>2021-07-08T08:42:06Z</time>
      </trkpt>
      <trkpt lat="48.56694" lon="-3.79965">
        <ele>134</ele>
        <time>2021-07-08T08:42:07Z</time>
      </trkpt>
      <trkpt lat="48.5669" lon="-3.7996">
        <ele>133</ele>
        <time>2021-07-08T08:42:08Z</time>
      </trkpt>
      <trkpt lat="48.56686" lon="-3.79955">
        <ele>133</ele>
        <time>2021-07-08T08:42:09Z</time>
      </trkpt>
      <trkpt lat="48.56682" lon="-3.79949">
        <ele>133</ele>
        <time>2021-07-08T08:42:09Z</time>
      </trkpt>
      <trkpt lat="48.56677" lon="-3.79942">
        <ele>133</ele>
        <time>2021-07-08T08:42:10Z</time>
      </trkpt>
      <trkpt lat="48.56674" lon="-3.79935">
        <ele>132</ele>
        <time>2021-07-08T08:42:11Z</time>
      </trkpt>
      <trkpt lat="48.56669" lon="-3.79927">
        <ele>132</ele>
        <time>2021-07-08T08:42:13Z</time>
      </trkpt>
      <trkpt lat="48.56664" lon="-3.7992">
        <ele>132</ele>
        <time>2021-07-08T08:42:14Z</time>
      </trkpt>
      <trkpt lat="48.56659" lon="-3.79912">
        <ele>132</ele>
        <time>2021-07-08T08:42:15Z</time>
      </trkpt>
      <trkpt lat="48.56655" lon="-3.79906">
        <ele>132</ele>
        <time>2021-07-08T08:42:16Z</time>
      </trkpt>
      <trkpt lat="48.5665" lon="-3.799">
        <ele>132</ele>
        <time>2021-07-08T08:42:16Z</time>
      </trkpt>
      <trkpt lat="48.56646" lon="-3.79895">
        <ele>132</ele>
        <time>2021-07-08T08:42:18Z</time>
      </trkpt>
      <trkpt lat="48.56642" lon="-3.79891">
        <ele>132</ele>
        <time>2021-07-08T08:42:19Z</time>
      </trkpt>
      <trkpt lat="48.56639" lon="-3.79887">
        <ele>132</ele>
        <time>2021-07-08T08:42:20Z</time>
      </trkpt>
      <trkpt lat="48.56636" lon="-3.79884">
        <ele>132</ele>
        <time>2021-07-08T08:42:20Z</time>
      </trkpt>
      <trkpt lat="48.56634" lon="-3.79881">
        <ele>132</ele>
        <time>2021-07-08T08:42:22Z</time>
      </trkpt>
      <trkpt lat="48.56631" lon="-3.79878">
        <ele>132</ele>
        <time>2021-07-08T08:42:23Z</time>
      </trkpt>
      <trkpt lat="48.56629" lon="-3.79876">
        <ele>132</ele>
        <time>2021-07-08T08:42:24Z</time>
      </trkpt>
      <trkpt lat="48.56628" lon="-3.79873">
        <ele>132</ele>
        <time>2021-07-08T08:42:25Z</time>
      </trkpt>
      <trkpt lat="48.56627" lon="-3.79871">
        <ele>132</ele>
        <time>2021-07-08T08:42:26Z</time>
      </trkpt>
      <trkpt lat="48.56626" lon="-3.79868">
        <ele>132</ele>
        <time>2021-07-08T08:42:26Z</time>
      </trkpt>
      <trkpt lat="48.56625" lon="-3.79865">
        <ele>132</ele>
        <time>2021-07-08T08:42:27Z</time>
      </trkpt>
      <trkpt lat="48.56624" lon="-3.79861">
        <ele>133</ele>
        <time>2021-07-08T08:42:29Z</time>
      </trkpt>
      <trkpt lat="48.56621" lon="-3.79858">
        <ele>133</ele>
        <time>2021-07-08T08:42:31Z</time>
      </trkpt>
      <trkpt lat="48.56619" lon="-3.79856">
        <ele>133</ele>
        <time>2021-07-08T08:42:34Z</time>
      </trkpt>
      <trkpt lat="48.56618" lon="-3.79855">
        <ele>133</ele>
        <time>2021-07-08T08:42:43Z</time>
      </trkpt>
      <trkpt lat="48.56622" lon="-3.79853">
        <ele>134</ele>
        <time>2021-07-08T08:42:49Z</time>
      </trkpt>
      <trkpt lat="48.56622" lon="-3.79853">
        <ele>133</ele>
        <time>2021-07-08T08:42:56Z</time>
      </trkpt>
      <trkpt lat="48.56613" lon="-3.79853">
        <ele>133</ele>
        <time>2021-07-08T08:44:25Z</time>
      </trkpt>
      <trkpt lat="48.56609" lon="-3.79854">
        <ele>133</ele>
        <time>2021-07-08T08:44:27Z</time>
      </trkpt>
      <trkpt lat="48.56606" lon="-3.79855">
        <ele>133</ele>
        <time>2021-07-08T08:44:29Z</time>
      </trkpt>
      <trkpt lat="48.56604" lon="-3.79856">
        <ele>133</ele>
        <time>2021-07-08T08:44:30Z</time>
      </trkpt>
      <trkpt lat="48.56601" lon="-3.79858">
        <ele>133</ele>
        <time>2021-07-08T08:44:32Z</time>
      </trkpt>
      <trkpt lat="48.56599" lon="-3.79861">
        <ele>133</ele>
        <time>2021-07-08T08:44:34Z</time>
      </trkpt>
      <trkpt lat="48.56598" lon="-3.79863">
        <ele>133</ele>
        <time>2021-07-08T08:44:35Z</time>
      </trkpt>
      <trkpt lat="48.56597" lon="-3.79865">
        <ele>133</ele>
        <time>2021-07-08T08:44:36Z</time>
      </trkpt>
      <trkpt lat="48.56596" lon="-3.79868">
        <ele>133</ele>
        <time>2021-07-08T08:44:37Z</time>
      </trkpt>
      <trkpt lat="48.56595" lon="-3.7987">
        <ele>132</ele>
        <time>2021-07-08T08:44:38Z</time>
      </trkpt>
      <trkpt lat="48.56593" lon="-3.79874">
        <ele>132</ele>
        <time>2021-07-08T08:44:39Z</time>
      </trkpt>
      <trkpt lat="48.5659" lon="-3.79876">
        <ele>132</ele>
        <time>2021-07-08T08:44:41Z</time>
      </trkpt>
      <trkpt lat="48.56587" lon="-3.79879">
        <ele>133</ele>
        <time>2021-07-08T08:44:44Z</time>
      </trkpt>
      <trkpt lat="48.56583" lon="-3.79879">
        <ele>133</ele>
        <time>2021-07-08T08:44:45Z</time>
      </trkpt>
      <trkpt lat="48.56581" lon="-3.79878">
        <ele>133</ele>
        <time>2021-07-08T08:44:47Z</time>
      </trkpt>
      <trkpt lat="48.56579" lon="-3.79877">
        <ele>133</ele>
        <time>2021-07-08T08:44:48Z</time>
      </trkpt>
      <trkpt lat="48.56576" lon="-3.79874">
        <ele>132</ele>
        <time>2021-07-08T08:44:50Z</time>
      </trkpt>
      <trkpt lat="48.56573" lon="-3.79871">
        <ele>132</ele>
        <time>2021-07-08T08:44:51Z</time>
      </trkpt>
      <trkpt lat="48.56571" lon="-3.79869">
        <ele>132</ele>
        <time>2021-07-08T08:44:53Z</time>
      </trkpt>
      <trkpt lat="48.56569" lon="-3.79867">
        <ele>133</ele>
        <time>2021-07-08T08:44:54Z</time>
      </trkpt>
      <trkpt lat="48.56566" lon="-3.79866">
        <ele>133</ele>
        <time>2021-07-08T08:44:55Z</time>
      </trkpt>
      <trkpt lat="48.56564" lon="-3.79864">
        <ele>133</ele>
        <time>2021-07-08T08:44:57Z</time>
      </trkpt>
      <trkpt lat="48.56561" lon="-3.79863">
        <ele>133</ele>
        <time>2021-07-08T08:44:58Z</time>
      </trkpt>
      <trkpt lat="48.56557" lon="-3.79862">
        <ele>133</ele>
        <time>2021-07-08T08:44:59Z</time>
      </trkpt>
      <trkpt lat="48.56551" lon="-3.7986">
        <ele>132</ele>
        <time>2021-07-08T08:45:00Z</time>
      </trkpt>
      <trkpt lat="48.56542" lon="-3.79855">
        <ele>132</ele>
        <time>2021-07-08T08:45:04Z</time>
      </trkpt>
      <trkpt lat="48.56532" lon="-3.79849">
        <ele>132</ele>
        <time>2021-07-08T08:45:07Z</time>
      </trkpt>
      <trkpt lat="48.5652" lon="-3.79843">
        <ele>133</ele>
        <time>2021-07-08T08:45:10Z</time>
      </trkpt>
      <trkpt lat="48.56507" lon="-3.79838">
        <ele>132</ele>
        <time>2021-07-08T08:45:13Z</time>
      </trkpt>
      <trkpt lat="48.56495" lon="-3.79833">
        <ele>132</ele>
        <time>2021-07-08T08:45:16Z</time>
      </trkpt>
      <trkpt lat="48.56485" lon="-3.79827">
        <ele>132</ele>
        <time>2021-07-08T08:45:19Z</time>
      </trkpt>
      <trkpt lat="48.56474" lon="-3.79819">
        <ele>132</ele>
        <time>2021-07-08T08:45:21Z</time>
      </trkpt>
      <trkpt lat="48.56463" lon="-3.79811">
        <ele>132</ele>
        <time>2021-07-08T08:45:24Z</time>
      </trkpt>
      <trkpt lat="48.56459" lon="-3.79809">
        <ele>132</ele>
        <time>2021-07-08T08:45:25Z</time>
      </trkpt>
      <trkpt lat="48.56455" lon="-3.79807">
        <ele>132</ele>
        <time>2021-07-08T08:45:27Z</time>
      </trkpt>
      <trkpt lat="48.56451" lon="-3.79805">
        <ele>132</ele>
        <time>2021-07-08T08:45:28Z</time>
      </trkpt>
      <trkpt lat="48.56448" lon="-3.79803">
        <ele>132</ele>
        <time>2021-07-08T08:45:28Z</time>
      </trkpt>
      <trkpt lat="48.56445" lon="-3.79801">
        <ele>132</ele>
        <time>2021-07-08T08:45:29Z</time>
      </trkpt>
      <trkpt lat="48.56442" lon="-3.79801">
        <ele>132</ele>
        <time>2021-07-08T08:45:30Z</time>
      </trkpt>
      <trkpt lat="48.56439" lon="-3.79801">
        <ele>132</ele>
        <time>2021-07-08T08:45:31Z</time>
      </trkpt>
      <trkpt lat="48.56436" lon="-3.79802">
        <ele>132</ele>
        <time>2021-07-08T08:45:33Z</time>
      </trkpt>
      <trkpt lat="48.56433" lon="-3.79802">
        <ele>132</ele>
        <time>2021-07-08T08:45:34Z</time>
      </trkpt>
      <trkpt lat="48.5643" lon="-3.79801">
        <ele>132</ele>
        <time>2021-07-08T08:45:34Z</time>
      </trkpt>
      <trkpt lat="48.56427" lon="-3.798">
        <ele>132</ele>
        <time>2021-07-08T08:45:35Z</time>
      </trkpt>
      <trkpt lat="48.56424" lon="-3.798">
        <ele>132</ele>
        <time>2021-07-08T08:45:36Z</time>
      </trkpt>
      <trkpt lat="48.56421" lon="-3.798">
        <ele>132</ele>
        <time>2021-07-08T08:45:37Z</time>
      </trkpt>
      <trkpt lat="48.56418" lon="-3.798">
        <ele>132</ele>
        <time>2021-07-08T08:45:38Z</time>
      </trkpt>
      <trkpt lat="48.56416" lon="-3.79799">
        <ele>132</ele>
        <time>2021-07-08T08:45:39Z</time>
      </trkpt>
      <trkpt lat="48.56414" lon="-3.79798">
        <ele>132</ele>
        <time>2021-07-08T08:45:40Z</time>
      </trkpt>
      <trkpt lat="48.56411" lon="-3.79796">
        <ele>132</ele>
        <time>2021-07-08T08:45:41Z</time>
      </trkpt>
      <trkpt lat="48.56409" lon="-3.79795">
        <ele>132</ele>
        <time>2021-07-08T08:45:43Z</time>
      </trkpt>
      <trkpt lat="48.56406" lon="-3.79794">
        <ele>132</ele>
        <time>2021-07-08T08:45:44Z</time>
      </trkpt>
      <trkpt lat="48.56402" lon="-3.79793">
        <ele>132</ele>
        <time>2021-07-08T08:45:44Z</time>
      </trkpt>
      <trkpt lat="48.56399" lon="-3.79793">
        <ele>132</ele>
        <time>2021-07-08T08:45:45Z</time>
      </trkpt>
      <trkpt lat="48.56396" lon="-3.79792">
        <ele>132</ele>
        <time>2021-07-08T08:45:46Z</time>
      </trkpt>
      <trkpt lat="48.56393" lon="-3.79791">
        <ele>132</ele>
        <time>2021-07-08T08:45:48Z</time>
      </trkpt>
      <trkpt lat="48.5639" lon="-3.7979">
        <ele>132</ele>
        <time>2021-07-08T08:45:49Z</time>
      </trkpt>
      <trkpt lat="48.56387" lon="-3.79789">
        <ele>132</ele>
        <time>2021-07-08T08:45:50Z</time>
      </trkpt>
      <trkpt lat="48.56384" lon="-3.79788">
        <ele>132</ele>
        <time>2021-07-08T08:45:50Z</time>
      </trkpt>
      <trkpt lat="48.56381" lon="-3.79788">
        <ele>132</ele>
        <time>2021-07-08T08:45:51Z</time>
      </trkpt>
      <trkpt lat="48.56378" lon="-3.79787">
        <ele>132</ele>
        <time>2021-07-08T08:45:52Z</time>
      </trkpt>
      <trkpt lat="48.56374" lon="-3.79785">
        <ele>132</ele>
        <time>2021-07-08T08:45:53Z</time>
      </trkpt>
      <trkpt lat="48.56371" lon="-3.79784">
        <ele>132</ele>
        <time>2021-07-08T08:45:54Z</time>
      </trkpt>
      <trkpt lat="48.56361" lon="-3.79781">
        <ele>132</ele>
        <time>2021-07-08T08:45:57Z</time>
      </trkpt>
      <trkpt lat="48.56351" lon="-3.79778">
        <ele>132</ele>
        <time>2021-07-08T08:46:00Z</time>
      </trkpt>
      <trkpt lat="48.56348" lon="-3.79777">
        <ele>132</ele>
        <time>2021-07-08T08:46:01Z</time>
      </trkpt>
      <trkpt lat="48.56344" lon="-3.79776">
        <ele>132</ele>
        <time>2021-07-08T08:46:02Z</time>
      </trkpt>
      <trkpt lat="48.5634" lon="-3.79776">
        <ele>132</ele>
        <time>2021-07-08T08:46:03Z</time>
      </trkpt>
      <trkpt lat="48.56337" lon="-3.79775">
        <ele>132</ele>
        <time>2021-07-08T08:46:04Z</time>
      </trkpt>
      <trkpt lat="48.56333" lon="-3.79774">
        <ele>132</ele>
        <time>2021-07-08T08:46:05Z</time>
      </trkpt>
      <trkpt lat="48.56329" lon="-3.79774">
        <ele>132</ele>
        <time>2021-07-08T08:46:06Z</time>
      </trkpt>
      <trkpt lat="48.56326" lon="-3.79773">
        <ele>132</ele>
        <time>2021-07-08T08:46:07Z</time>
      </trkpt>
      <trkpt lat="48.56318" lon="-3.79772">
        <ele>132</ele>
        <time>2021-07-08T08:46:09Z</time>
      </trkpt>
      <trkpt lat="48.56307" lon="-3.79769">
        <ele>132</ele>
        <time>2021-07-08T08:46:13Z</time>
      </trkpt>
      <trkpt lat="48.56303" lon="-3.79768">
        <ele>132</ele>
        <time>2021-07-08T08:46:14Z</time>
      </trkpt>
      <trkpt lat="48.56293" lon="-3.79766">
        <ele>132</ele>
        <time>2021-07-08T08:46:17Z</time>
      </trkpt>
      <trkpt lat="48.56283" lon="-3.79764">
        <ele>132</ele>
        <time>2021-07-08T08:46:20Z</time>
      </trkpt>
      <trkpt lat="48.56274" lon="-3.79761">
        <ele>132</ele>
        <time>2021-07-08T08:46:23Z</time>
      </trkpt>
      <trkpt lat="48.56265" lon="-3.79757">
        <ele>132</ele>
        <time>2021-07-08T08:46:25Z</time>
      </trkpt>
      <trkpt lat="48.56253" lon="-3.79755">
        <ele>132</ele>
        <time>2021-07-08T08:46:28Z</time>
      </trkpt>
      <trkpt lat="48.56239" lon="-3.79752">
        <ele>132</ele>
        <time>2021-07-08T08:46:31Z</time>
      </trkpt>
      <trkpt lat="48.5623" lon="-3.7975">
        <ele>132</ele>
        <time>2021-07-08T08:46:33Z</time>
      </trkpt>
      <trkpt lat="48.56221" lon="-3.79748">
        <ele>132</ele>
        <time>2021-07-08T08:46:35Z</time>
      </trkpt>
      <trkpt lat="48.56211" lon="-3.79746">
        <ele>132</ele>
        <time>2021-07-08T08:46:37Z</time>
      </trkpt>
      <trkpt lat="48.562" lon="-3.79744">
        <ele>132</ele>
        <time>2021-07-08T08:46:41Z</time>
      </trkpt>
      <trkpt lat="48.56196" lon="-3.79743">
        <ele>132</ele>
        <time>2021-07-08T08:46:42Z</time>
      </trkpt>
      <trkpt lat="48.56192" lon="-3.79742">
        <ele>132</ele>
        <time>2021-07-08T08:46:43Z</time>
      </trkpt>
      <trkpt lat="48.56188" lon="-3.79741">
        <ele>132</ele>
        <time>2021-07-08T08:46:44Z</time>
      </trkpt>
      <trkpt lat="48.56183" lon="-3.7974">
        <ele>132</ele>
        <time>2021-07-08T08:46:44Z</time>
      </trkpt>
      <trkpt lat="48.56179" lon="-3.79739">
        <ele>132</ele>
        <time>2021-07-08T08:46:46Z</time>
      </trkpt>
      <trkpt lat="48.56175" lon="-3.79738">
        <ele>132</ele>
        <time>2021-07-08T08:46:47Z</time>
      </trkpt>
      <trkpt lat="48.56171" lon="-3.79737">
        <ele>132</ele>
        <time>2021-07-08T08:46:47Z</time>
      </trkpt>
      <trkpt lat="48.56168" lon="-3.79736">
        <ele>132</ele>
        <time>2021-07-08T08:46:48Z</time>
      </trkpt>
      <trkpt lat="48.56164" lon="-3.79735">
        <ele>132</ele>
        <time>2021-07-08T08:46:50Z</time>
      </trkpt>
      <trkpt lat="48.56161" lon="-3.79734">
        <ele>132</ele>
        <time>2021-07-08T08:46:50Z</time>
      </trkpt>
      <trkpt lat="48.56157" lon="-3.79733">
        <ele>132</ele>
        <time>2021-07-08T08:46:51Z</time>
      </trkpt>
      <trkpt lat="48.56153" lon="-3.79731">
        <ele>132</ele>
        <time>2021-07-08T08:46:52Z</time>
      </trkpt>
      <trkpt lat="48.5615" lon="-3.7973">
        <ele>132</ele>
        <time>2021-07-08T08:46:54Z</time>
      </trkpt>
      <trkpt lat="48.56146" lon="-3.79729">
        <ele>132</ele>
        <time>2021-07-08T08:46:55Z</time>
      </trkpt>
      <trkpt lat="48.56143" lon="-3.79728">
        <ele>132</ele>
        <time>2021-07-08T08:46:56Z</time>
      </trkpt>
      <trkpt lat="48.56135" lon="-3.79725">
        <ele>132</ele>
        <time>2021-07-08T08:46:57Z</time>
      </trkpt>
      <trkpt lat="48.56132" lon="-3.79723">
        <ele>132</ele>
        <time>2021-07-08T08:46:58Z</time>
      </trkpt>
      <trkpt lat="48.56129" lon="-3.79722">
        <ele>132</ele>
        <time>2021-07-08T08:46:59Z</time>
      </trkpt>
      <trkpt lat="48.56125" lon="-3.7972">
        <ele>132</ele>
        <time>2021-07-08T08:47:01Z</time>
      </trkpt>
      <trkpt lat="48.56123" lon="-3.79719">
        <ele>132</ele>
        <time>2021-07-08T08:47:02Z</time>
      </trkpt>
      <trkpt lat="48.5612" lon="-3.79718">
        <ele>132</ele>
        <time>2021-07-08T08:47:03Z</time>
      </trkpt>
      <trkpt lat="48.56109" lon="-3.79712">
        <ele>132</ele>
        <time>2021-07-08T08:47:07Z</time>
      </trkpt>
      <trkpt lat="48.56099" lon="-3.79707">
        <ele>132</ele>
        <time>2021-07-08T08:47:10Z</time>
      </trkpt>
      <trkpt lat="48.56088" lon="-3.79698">
        <ele>132</ele>
        <time>2021-07-08T08:47:12Z</time>
      </trkpt>
      <trkpt lat="48.56079" lon="-3.7969">
        <ele>132</ele>
        <time>2021-07-08T08:47:16Z</time>
      </trkpt>
      <trkpt lat="48.56069" lon="-3.79681">
        <ele>132</ele>
        <time>2021-07-08T08:47:18Z</time>
      </trkpt>
      <trkpt lat="48.5606" lon="-3.79672">
        <ele>132</ele>
        <time>2021-07-08T08:47:21Z</time>
      </trkpt>
      <trkpt lat="48.56053" lon="-3.79662">
        <ele>132</ele>
        <time>2021-07-08T08:47:24Z</time>
      </trkpt>
      <trkpt lat="48.56045" lon="-3.79651">
        <ele>132</ele>
        <time>2021-07-08T08:47:28Z</time>
      </trkpt>
      <trkpt lat="48.56038" lon="-3.79641">
        <ele>132</ele>
        <time>2021-07-08T08:47:31Z</time>
      </trkpt>
      <trkpt lat="48.56031" lon="-3.79631">
        <ele>132</ele>
        <time>2021-07-08T08:47:34Z</time>
      </trkpt>
      <trkpt lat="48.56022" lon="-3.79622">
        <ele>133</ele>
        <time>2021-07-08T08:47:38Z</time>
      </trkpt>
      <trkpt lat="48.56015" lon="-3.79612">
        <ele>133</ele>
        <time>2021-07-08T08:47:40Z</time>
      </trkpt>
      <trkpt lat="48.56009" lon="-3.79598">
        <ele>134</ele>
        <time>2021-07-08T08:47:44Z</time>
      </trkpt>
      <trkpt lat="48.56005" lon="-3.79584">
        <ele>134</ele>
        <time>2021-07-08T08:47:46Z</time>
      </trkpt>
      <trkpt lat="48.55997" lon="-3.79569">
        <ele>135</ele>
        <time>2021-07-08T08:47:50Z</time>
      </trkpt>
      <trkpt lat="48.5599" lon="-3.7956">
        <ele>135</ele>
        <time>2021-07-08T08:47:54Z</time>
      </trkpt>
      <trkpt lat="48.55983" lon="-3.7955">
        <ele>135</ele>
        <time>2021-07-08T08:47:57Z</time>
      </trkpt>
      <trkpt lat="48.55977" lon="-3.79537">
        <ele>135</ele>
        <time>2021-07-08T08:47:59Z</time>
      </trkpt>
      <trkpt lat="48.55972" lon="-3.79526">
        <ele>136</ele>
        <time>2021-07-08T08:48:03Z</time>
      </trkpt>
      <trkpt lat="48.55963" lon="-3.79513">
        <ele>136</ele>
        <time>2021-07-08T08:48:06Z</time>
      </trkpt>
      <trkpt lat="48.55957" lon="-3.795">
        <ele>136</ele>
        <time>2021-07-08T08:48:09Z</time>
      </trkpt>
      <trkpt lat="48.55951" lon="-3.79488">
        <ele>136</ele>
        <time>2021-07-08T08:48:12Z</time>
      </trkpt>
      <trkpt lat="48.55944" lon="-3.79478">
        <ele>136</ele>
        <time>2021-07-08T08:48:15Z</time>
      </trkpt>
      <trkpt lat="48.55938" lon="-3.79463">
        <ele>136</ele>
        <time>2021-07-08T08:48:19Z</time>
      </trkpt>
      <trkpt lat="48.55933" lon="-3.79452">
        <ele>136</ele>
        <time>2021-07-08T08:48:22Z</time>
      </trkpt>
      <trkpt lat="48.55925" lon="-3.79443">
        <ele>137</ele>
        <time>2021-07-08T08:48:27Z</time>
      </trkpt>
      <trkpt lat="48.55918" lon="-3.79432">
        <ele>137</ele>
        <time>2021-07-08T08:48:32Z</time>
      </trkpt>
      <trkpt lat="48.5591" lon="-3.79422">
        <ele>137</ele>
        <time>2021-07-08T08:48:34Z</time>
      </trkpt>
      <trkpt lat="48.559" lon="-3.7941">
        <ele>137</ele>
        <time>2021-07-08T08:48:38Z</time>
      </trkpt>
      <trkpt lat="48.55894" lon="-3.79401">
        <ele>137</ele>
        <time>2021-07-08T08:48:40Z</time>
      </trkpt>
      <trkpt lat="48.55888" lon="-3.79389">
        <ele>138</ele>
        <time>2021-07-08T08:48:43Z</time>
      </trkpt>
      <trkpt lat="48.5588" lon="-3.79376">
        <ele>138</ele>
        <time>2021-07-08T08:48:48Z</time>
      </trkpt>
      <trkpt lat="48.55873" lon="-3.79367">
        <ele>138</ele>
        <time>2021-07-08T08:48:51Z</time>
      </trkpt>
      <trkpt lat="48.55864" lon="-3.79357">
        <ele>138</ele>
        <time>2021-07-08T08:48:53Z</time>
      </trkpt>
      <trkpt lat="48.55856" lon="-3.79346">
        <ele>138</ele>
        <time>2021-07-08T08:48:56Z</time>
      </trkpt>
      <trkpt lat="48.55848" lon="-3.79337">
        <ele>138</ele>
        <time>2021-07-08T08:48:59Z</time>
      </trkpt>
      <trkpt lat="48.5584" lon="-3.79331">
        <ele>139</ele>
        <time>2021-07-08T08:49:03Z</time>
      </trkpt>
      <trkpt lat="48.55831" lon="-3.79325">
        <ele>139</ele>
        <time>2021-07-08T08:49:06Z</time>
      </trkpt>
      <trkpt lat="48.55822" lon="-3.79316">
        <ele>139</ele>
        <time>2021-07-08T08:49:10Z</time>
      </trkpt>
      <trkpt lat="48.55815" lon="-3.79306">
        <ele>139</ele>
        <time>2021-07-08T08:49:14Z</time>
      </trkpt>
      <trkpt lat="48.55806" lon="-3.79298">
        <ele>140</ele>
        <time>2021-07-08T08:49:16Z</time>
      </trkpt>
      <trkpt lat="48.55796" lon="-3.79291">
        <ele>140</ele>
        <time>2021-07-08T08:49:21Z</time>
      </trkpt>
      <trkpt lat="48.55786" lon="-3.79285">
        <ele>141</ele>
        <time>2021-07-08T08:49:24Z</time>
      </trkpt>
      <trkpt lat="48.55777" lon="-3.79277">
        <ele>141</ele>
        <time>2021-07-08T08:49:28Z</time>
      </trkpt>
      <trkpt lat="48.55768" lon="-3.79267">
        <ele>141</ele>
        <time>2021-07-08T08:49:31Z</time>
      </trkpt>
      <trkpt lat="48.55757" lon="-3.79259">
        <ele>141</ele>
        <time>2021-07-08T08:49:34Z</time>
      </trkpt>
      <trkpt lat="48.55748" lon="-3.7925">
        <ele>142</ele>
        <time>2021-07-08T08:49:37Z</time>
      </trkpt>
      <trkpt lat="48.55738" lon="-3.79242">
        <ele>142</ele>
        <time>2021-07-08T08:49:40Z</time>
      </trkpt>
      <trkpt lat="48.5573" lon="-3.79235">
        <ele>142</ele>
        <time>2021-07-08T08:49:43Z</time>
      </trkpt>
      <trkpt lat="48.55721" lon="-3.79224">
        <ele>143</ele>
        <time>2021-07-08T08:49:48Z</time>
      </trkpt>
      <trkpt lat="48.55714" lon="-3.79212">
        <ele>143</ele>
        <time>2021-07-08T08:49:51Z</time>
      </trkpt>
      <trkpt lat="48.55705" lon="-3.79203">
        <ele>143</ele>
        <time>2021-07-08T08:49:55Z</time>
      </trkpt>
      <trkpt lat="48.55698" lon="-3.79195">
        <ele>143</ele>
        <time>2021-07-08T08:49:58Z</time>
      </trkpt>
      <trkpt lat="48.55689" lon="-3.79186">
        <ele>144</ele>
        <time>2021-07-08T08:50:00Z</time>
      </trkpt>
      <trkpt lat="48.55679" lon="-3.79175">
        <ele>144</ele>
        <time>2021-07-08T08:50:04Z</time>
      </trkpt>
      <trkpt lat="48.55671" lon="-3.79164">
        <ele>144</ele>
        <time>2021-07-08T08:50:07Z</time>
      </trkpt>
      <trkpt lat="48.55663" lon="-3.79152">
        <ele>144</ele>
        <time>2021-07-08T08:50:09Z</time>
      </trkpt>
      <trkpt lat="48.55656" lon="-3.79142">
        <ele>144</ele>
        <time>2021-07-08T08:50:12Z</time>
      </trkpt>
      <trkpt lat="48.5565" lon="-3.79129">
        <ele>144</ele>
        <time>2021-07-08T08:50:17Z</time>
      </trkpt>
      <trkpt lat="48.55643" lon="-3.79118">
        <ele>145</ele>
        <time>2021-07-08T08:50:20Z</time>
      </trkpt>
      <trkpt lat="48.55636" lon="-3.79105">
        <ele>145</ele>
        <time>2021-07-08T08:50:22Z</time>
      </trkpt>
      <trkpt lat="48.5563" lon="-3.79091">
        <ele>145</ele>
        <time>2021-07-08T08:50:25Z</time>
      </trkpt>
      <trkpt lat="48.55624" lon="-3.79077">
        <ele>145</ele>
        <time>2021-07-08T08:50:28Z</time>
      </trkpt>
      <trkpt lat="48.55618" lon="-3.79065">
        <ele>145</ele>
        <time>2021-07-08T08:50:31Z</time>
      </trkpt>
      <trkpt lat="48.55612" lon="-3.79054">
        <ele>145</ele>
        <time>2021-07-08T08:50:36Z</time>
      </trkpt>
      <trkpt lat="48.55607" lon="-3.79042">
        <ele>147</ele>
        <time>2021-07-08T08:50:40Z</time>
      </trkpt>
      <trkpt lat="48.55601" lon="-3.79031">
        <ele>147</ele>
        <time>2021-07-08T08:50:43Z</time>
      </trkpt>
      <trkpt lat="48.55595" lon="-3.79019">
        <ele>148</ele>
        <time>2021-07-08T08:50:47Z</time>
      </trkpt>
      <trkpt lat="48.55589" lon="-3.79007">
        <ele>149</ele>
        <time>2021-07-08T08:50:51Z</time>
      </trkpt>
      <trkpt lat="48.55585" lon="-3.78995">
        <ele>150</ele>
        <time>2021-07-08T08:50:56Z</time>
      </trkpt>
      <trkpt lat="48.55581" lon="-3.7898">
        <ele>150</ele>
        <time>2021-07-08T08:51:00Z</time>
      </trkpt>
      <trkpt lat="48.55579" lon="-3.78966">
        <ele>150</ele>
        <time>2021-07-08T08:51:02Z</time>
      </trkpt>
      <trkpt lat="48.55573" lon="-3.78956">
        <ele>151</ele>
        <time>2021-07-08T08:51:06Z</time>
      </trkpt>
      <trkpt lat="48.55569" lon="-3.78948">
        <ele>151</ele>
        <time>2021-07-08T08:51:08Z</time>
      </trkpt>
      <trkpt lat="48.55567" lon="-3.78944">
        <ele>151</ele>
        <time>2021-07-08T08:51:09Z</time>
      </trkpt>
      <trkpt lat="48.55566" lon="-3.7894">
        <ele>151</ele>
        <time>2021-07-08T08:51:09Z</time>
      </trkpt>
      <trkpt lat="48.55565" lon="-3.78937">
        <ele>151</ele>
        <time>2021-07-08T08:51:10Z</time>
      </trkpt>
      <trkpt lat="48.55563" lon="-3.78934">
        <ele>151</ele>
        <time>2021-07-08T08:51:11Z</time>
      </trkpt>
      <trkpt lat="48.55562" lon="-3.78932">
        <ele>151</ele>
        <time>2021-07-08T08:51:12Z</time>
      </trkpt>
      <trkpt lat="48.5556" lon="-3.7893">
        <ele>150</ele>
        <time>2021-07-08T08:51:13Z</time>
      </trkpt>
      <trkpt lat="48.55558" lon="-3.78928">
        <ele>150</ele>
        <time>2021-07-08T08:51:15Z</time>
      </trkpt>
      <trkpt lat="48.55556" lon="-3.78924">
        <ele>150</ele>
        <time>2021-07-08T08:51:16Z</time>
      </trkpt>
      <trkpt lat="48.55554" lon="-3.7892">
        <ele>150</ele>
        <time>2021-07-08T08:51:17Z</time>
      </trkpt>
      <trkpt lat="48.55551" lon="-3.78916">
        <ele>150</ele>
        <time>2021-07-08T08:51:18Z</time>
      </trkpt>
      <trkpt lat="48.55549" lon="-3.78912">
        <ele>150</ele>
        <time>2021-07-08T08:51:19Z</time>
      </trkpt>
      <trkpt lat="48.55546" lon="-3.78908">
        <ele>150</ele>
        <time>2021-07-08T08:51:20Z</time>
      </trkpt>
      <trkpt lat="48.55544" lon="-3.78903">
        <ele>150</ele>
        <time>2021-07-08T08:51:21Z</time>
      </trkpt>
      <trkpt lat="48.55541" lon="-3.78899">
        <ele>150</ele>
        <time>2021-07-08T08:51:22Z</time>
      </trkpt>
      <trkpt lat="48.55539" lon="-3.78894">
        <ele>150</ele>
        <time>2021-07-08T08:51:22Z</time>
      </trkpt>
      <trkpt lat="48.55536" lon="-3.7889">
        <ele>150</ele>
        <time>2021-07-08T08:51:23Z</time>
      </trkpt>
      <trkpt lat="48.55534" lon="-3.78886">
        <ele>150</ele>
        <time>2021-07-08T08:51:25Z</time>
      </trkpt>
      <trkpt lat="48.55531" lon="-3.78882">
        <ele>150</ele>
        <time>2021-07-08T08:51:26Z</time>
      </trkpt>
      <trkpt lat="48.55529" lon="-3.78877">
        <ele>150</ele>
        <time>2021-07-08T08:51:27Z</time>
      </trkpt>
      <trkpt lat="48.55527" lon="-3.78873">
        <ele>150</ele>
        <time>2021-07-08T08:51:27Z</time>
      </trkpt>
      <trkpt lat="48.55525" lon="-3.7887">
        <ele>150</ele>
        <time>2021-07-08T08:51:29Z</time>
      </trkpt>
      <trkpt lat="48.55523" lon="-3.78866">
        <ele>150</ele>
        <time>2021-07-08T08:51:30Z</time>
      </trkpt>
      <trkpt lat="48.55521" lon="-3.78863">
        <ele>150</ele>
        <time>2021-07-08T08:51:31Z</time>
      </trkpt>
      <trkpt lat="48.55519" lon="-3.7886">
        <ele>150</ele>
        <time>2021-07-08T08:51:32Z</time>
      </trkpt>
      <trkpt lat="48.55518" lon="-3.78857">
        <ele>150</ele>
        <time>2021-07-08T08:51:33Z</time>
      </trkpt>
      <trkpt lat="48.55515" lon="-3.78854">
        <ele>150</ele>
        <time>2021-07-08T08:51:33Z</time>
      </trkpt>
      <trkpt lat="48.55513" lon="-3.78851">
        <ele>150</ele>
        <time>2021-07-08T08:51:34Z</time>
      </trkpt>
      <trkpt lat="48.55511" lon="-3.78849">
        <ele>150</ele>
        <time>2021-07-08T08:51:35Z</time>
      </trkpt>
      <trkpt lat="48.55509" lon="-3.78846">
        <ele>150</ele>
        <time>2021-07-08T08:51:36Z</time>
      </trkpt>
      <trkpt lat="48.55507" lon="-3.78843">
        <ele>150</ele>
        <time>2021-07-08T08:51:37Z</time>
      </trkpt>
      <trkpt lat="48.55506" lon="-3.7884">
        <ele>150</ele>
        <time>2021-07-08T08:51:38Z</time>
      </trkpt>
      <trkpt lat="48.55504" lon="-3.78837">
        <ele>150</ele>
        <time>2021-07-08T08:51:39Z</time>
      </trkpt>
      <trkpt lat="48.55502" lon="-3.78834">
        <ele>150</ele>
        <time>2021-07-08T08:51:41Z</time>
      </trkpt>
      <trkpt lat="48.555" lon="-3.78831">
        <ele>150</ele>
        <time>2021-07-08T08:51:42Z</time>
      </trkpt>
      <trkpt lat="48.55498" lon="-3.78828">
        <ele>150</ele>
        <time>2021-07-08T08:51:42Z</time>
      </trkpt>
      <trkpt lat="48.55495" lon="-3.78825">
        <ele>150</ele>
        <time>2021-07-08T08:51:43Z</time>
      </trkpt>
      <trkpt lat="48.55493" lon="-3.78822">
        <ele>150</ele>
        <time>2021-07-08T08:51:44Z</time>
      </trkpt>
      <trkpt lat="48.55491" lon="-3.78818">
        <ele>150</ele>
        <time>2021-07-08T08:51:46Z</time>
      </trkpt>
      <trkpt lat="48.55488" lon="-3.78815">
        <ele>150</ele>
        <time>2021-07-08T08:51:47Z</time>
      </trkpt>
      <trkpt lat="48.55486" lon="-3.78812">
        <ele>150</ele>
        <time>2021-07-08T08:51:47Z</time>
      </trkpt>
      <trkpt lat="48.55484" lon="-3.7881">
        <ele>150</ele>
        <time>2021-07-08T08:51:48Z</time>
      </trkpt>
      <trkpt lat="48.55482" lon="-3.78807">
        <ele>150</ele>
        <time>2021-07-08T08:51:49Z</time>
      </trkpt>
      <trkpt lat="48.5548" lon="-3.78804">
        <ele>151</ele>
        <time>2021-07-08T08:51:50Z</time>
      </trkpt>
      <trkpt lat="48.55478" lon="-3.78801">
        <ele>151</ele>
        <time>2021-07-08T08:51:52Z</time>
      </trkpt>
      <trkpt lat="48.55475" lon="-3.78798">
        <ele>151</ele>
        <time>2021-07-08T08:51:52Z</time>
      </trkpt>
      <trkpt lat="48.55473" lon="-3.78796">
        <ele>151</ele>
        <time>2021-07-08T08:51:53Z</time>
      </trkpt>
      <trkpt lat="48.55472" lon="-3.78794">
        <ele>151</ele>
        <time>2021-07-08T08:51:54Z</time>
      </trkpt>
      <trkpt lat="48.55463" lon="-3.78783">
        <ele>151</ele>
        <time>2021-07-08T08:51:59Z</time>
      </trkpt>
      <trkpt lat="48.55458" lon="-3.7877">
        <ele>151</ele>
        <time>2021-07-08T08:52:04Z</time>
      </trkpt>
      <trkpt lat="48.5545" lon="-3.7876">
        <ele>152</ele>
        <time>2021-07-08T08:52:07Z</time>
      </trkpt>
      <trkpt lat="48.55444" lon="-3.7875">
        <ele>152</ele>
        <time>2021-07-08T08:52:13Z</time>
      </trkpt>
      <trkpt lat="48.55437" lon="-3.78742">
        <ele>152</ele>
        <time>2021-07-08T08:52:16Z</time>
      </trkpt>
      <trkpt lat="48.55428" lon="-3.78731">
        <ele>153</ele>
        <time>2021-07-08T08:52:18Z</time>
      </trkpt>
      <trkpt lat="48.55421" lon="-3.78721">
        <ele>153</ele>
        <time>2021-07-08T08:52:21Z</time>
      </trkpt>
      <trkpt lat="48.55415" lon="-3.7871">
        <ele>153</ele>
        <time>2021-07-08T08:52:26Z</time>
      </trkpt>
      <trkpt lat="48.55406" lon="-3.78704">
        <ele>153</ele>
        <time>2021-07-08T08:52:29Z</time>
      </trkpt>
      <trkpt lat="48.55397" lon="-3.78694">
        <ele>153</ele>
        <time>2021-07-08T08:52:33Z</time>
      </trkpt>
      <trkpt lat="48.55389" lon="-3.78684">
        <ele>154</ele>
        <time>2021-07-08T08:52:37Z</time>
      </trkpt>
      <trkpt lat="48.55382" lon="-3.78675">
        <ele>154</ele>
        <time>2021-07-08T08:52:39Z</time>
      </trkpt>
      <trkpt lat="48.55374" lon="-3.78668">
        <ele>154</ele>
        <time>2021-07-08T08:52:43Z</time>
      </trkpt>
      <trkpt lat="48.55367" lon="-3.78658">
        <ele>154</ele>
        <time>2021-07-08T08:52:47Z</time>
      </trkpt>
      <trkpt lat="48.5536" lon="-3.78644">
        <ele>154</ele>
        <time>2021-07-08T08:52:51Z</time>
      </trkpt>
      <trkpt lat="48.55354" lon="-3.78632">
        <ele>155</ele>
        <time>2021-07-08T08:52:54Z</time>
      </trkpt>
      <trkpt lat="48.55348" lon="-3.78621">
        <ele>155</ele>
        <time>2021-07-08T08:52:58Z</time>
      </trkpt>
      <trkpt lat="48.5534" lon="-3.7861">
        <ele>155</ele>
        <time>2021-07-08T08:53:00Z</time>
      </trkpt>
      <trkpt lat="48.55332" lon="-3.786">
        <ele>156</ele>
        <time>2021-07-08T08:53:04Z</time>
      </trkpt>
      <trkpt lat="48.55324" lon="-3.78589">
        <ele>156</ele>
        <time>2021-07-08T08:53:06Z</time>
      </trkpt>
      <trkpt lat="48.55317" lon="-3.78579">
        <ele>156</ele>
        <time>2021-07-08T08:53:09Z</time>
      </trkpt>
      <trkpt lat="48.55308" lon="-3.78567">
        <ele>156</ele>
        <time>2021-07-08T08:53:13Z</time>
      </trkpt>
      <trkpt lat="48.55301" lon="-3.78554">
        <ele>156</ele>
        <time>2021-07-08T08:53:17Z</time>
      </trkpt>
      <trkpt lat="48.55293" lon="-3.78542">
        <ele>156</ele>
        <time>2021-07-08T08:53:20Z</time>
      </trkpt>
      <trkpt lat="48.55285" lon="-3.78531">
        <ele>156</ele>
        <time>2021-07-08T08:53:24Z</time>
      </trkpt>
      <trkpt lat="48.55278" lon="-3.78521">
        <ele>157</ele>
        <time>2021-07-08T08:53:26Z</time>
      </trkpt>
      <trkpt lat="48.55272" lon="-3.78511">
        <ele>157</ele>
        <time>2021-07-08T08:53:29Z</time>
      </trkpt>
      <trkpt lat="48.55266" lon="-3.78497">
        <ele>157</ele>
        <time>2021-07-08T08:53:33Z</time>
      </trkpt>
      <trkpt lat="48.5526" lon="-3.78484">
        <ele>158</ele>
        <time>2021-07-08T08:53:37Z</time>
      </trkpt>
      <trkpt lat="48.55254" lon="-3.78472">
        <ele>158</ele>
        <time>2021-07-08T08:53:41Z</time>
      </trkpt>
      <trkpt lat="48.55249" lon="-3.7846">
        <ele>158</ele>
        <time>2021-07-08T08:53:44Z</time>
      </trkpt>
      <trkpt lat="48.55244" lon="-3.78447">
        <ele>158</ele>
        <time>2021-07-08T08:53:47Z</time>
      </trkpt>
      <trkpt lat="48.55238" lon="-3.78433">
        <ele>158</ele>
        <time>2021-07-08T08:53:51Z</time>
      </trkpt>
      <trkpt lat="48.55234" lon="-3.78419">
        <ele>159</ele>
        <time>2021-07-08T08:53:55Z</time>
      </trkpt>
      <trkpt lat="48.55228" lon="-3.78403">
        <ele>160</ele>
        <time>2021-07-08T08:53:59Z</time>
      </trkpt>
      <trkpt lat="48.55223" lon="-3.78389">
        <ele>160</ele>
        <time>2021-07-08T08:54:01Z</time>
      </trkpt>
      <trkpt lat="48.55217" lon="-3.78375">
        <ele>159</ele>
        <time>2021-07-08T08:54:05Z</time>
      </trkpt>
      <trkpt lat="48.55211" lon="-3.78358">
        <ele>160</ele>
        <time>2021-07-08T08:54:08Z</time>
      </trkpt>
      <trkpt lat="48.55206" lon="-3.78344">
        <ele>161</ele>
        <time>2021-07-08T08:54:11Z</time>
      </trkpt>
      <trkpt lat="48.552" lon="-3.7833">
        <ele>161</ele>
        <time>2021-07-08T08:54:14Z</time>
      </trkpt>
      <trkpt lat="48.55196" lon="-3.78317">
        <ele>161</ele>
        <time>2021-07-08T08:54:17Z</time>
      </trkpt>
      <trkpt lat="48.55192" lon="-3.78306">
        <ele>162</ele>
        <time>2021-07-08T08:54:20Z</time>
      </trkpt>
      <trkpt lat="48.55187" lon="-3.7829">
        <ele>162</ele>
        <time>2021-07-08T08:54:23Z</time>
      </trkpt>
      <trkpt lat="48.55184" lon="-3.78277">
        <ele>161</ele>
        <time>2021-07-08T08:54:26Z</time>
      </trkpt>
      <trkpt lat="48.5518" lon="-3.78264">
        <ele>161</ele>
        <time>2021-07-08T08:54:30Z</time>
      </trkpt>
      <trkpt lat="48.55175" lon="-3.78252">
        <ele>162</ele>
        <time>2021-07-08T08:54:33Z</time>
      </trkpt>
      <trkpt lat="48.55171" lon="-3.78237">
        <ele>162</ele>
        <time>2021-07-08T08:54:35Z</time>
      </trkpt>
      <trkpt lat="48.55168" lon="-3.78226">
        <ele>162</ele>
        <time>2021-07-08T08:54:37Z</time>
      </trkpt>
      <trkpt lat="48.55166" lon="-3.78221">
        <ele>162</ele>
        <time>2021-07-08T08:54:38Z</time>
      </trkpt>
      <trkpt lat="48.55164" lon="-3.78216">
        <ele>162</ele>
        <time>2021-07-08T08:54:39Z</time>
      </trkpt>
      <trkpt lat="48.55163" lon="-3.78212">
        <ele>162</ele>
        <time>2021-07-08T08:54:40Z</time>
      </trkpt>
      <trkpt lat="48.55161" lon="-3.78207">
        <ele>162</ele>
        <time>2021-07-08T08:54:41Z</time>
      </trkpt>
      <trkpt lat="48.55159" lon="-3.78203">
        <ele>162</ele>
        <time>2021-07-08T08:54:43Z</time>
      </trkpt>
      <trkpt lat="48.55158" lon="-3.78198">
        <ele>162</ele>
        <time>2021-07-08T08:54:44Z</time>
      </trkpt>
      <trkpt lat="48.55156" lon="-3.78194">
        <ele>162</ele>
        <time>2021-07-08T08:54:45Z</time>
      </trkpt>
      <trkpt lat="48.55154" lon="-3.7819">
        <ele>162</ele>
        <time>2021-07-08T08:54:46Z</time>
      </trkpt>
      <trkpt lat="48.55152" lon="-3.78186">
        <ele>162</ele>
        <time>2021-07-08T08:54:47Z</time>
      </trkpt>
      <trkpt lat="48.55149" lon="-3.78182">
        <ele>162</ele>
        <time>2021-07-08T08:54:48Z</time>
      </trkpt>
      <trkpt lat="48.55148" lon="-3.78177">
        <ele>162</ele>
        <time>2021-07-08T08:54:48Z</time>
      </trkpt>
      <trkpt lat="48.55146" lon="-3.78173">
        <ele>162</ele>
        <time>2021-07-08T08:54:50Z</time>
      </trkpt>
      <trkpt lat="48.55144" lon="-3.7817">
        <ele>162</ele>
        <time>2021-07-08T08:54:51Z</time>
      </trkpt>
      <trkpt lat="48.5514" lon="-3.78164">
        <ele>162</ele>
        <time>2021-07-08T08:54:52Z</time>
      </trkpt>
      <trkpt lat="48.55137" lon="-3.78157">
        <ele>162</ele>
        <time>2021-07-08T08:54:54Z</time>
      </trkpt>
      <trkpt lat="48.55135" lon="-3.78154">
        <ele>162</ele>
        <time>2021-07-08T08:54:56Z</time>
      </trkpt>
      <trkpt lat="48.55134" lon="-3.78152">
        <ele>162</ele>
        <time>2021-07-08T08:54:56Z</time>
      </trkpt>
      <trkpt lat="48.55132" lon="-3.78149">
        <ele>162</ele>
        <time>2021-07-08T08:54:57Z</time>
      </trkpt>
      <trkpt lat="48.55127" lon="-3.78136">
        <ele>162</ele>
        <time>2021-07-08T08:55:03Z</time>
      </trkpt>
      <trkpt lat="48.55122" lon="-3.78125">
        <ele>163</ele>
        <time>2021-07-08T08:55:07Z</time>
      </trkpt>
      <trkpt lat="48.55116" lon="-3.7811">
        <ele>163</ele>
        <time>2021-07-08T08:55:11Z</time>
      </trkpt>
      <trkpt lat="48.55107" lon="-3.78096">
        <ele>163</ele>
        <time>2021-07-08T08:55:15Z</time>
      </trkpt>
      <trkpt lat="48.551" lon="-3.78083">
        <ele>163</ele>
        <time>2021-07-08T08:55:18Z</time>
      </trkpt>
      <trkpt lat="48.55091" lon="-3.78072">
        <ele>164</ele>
        <time>2021-07-08T08:55:20Z</time>
      </trkpt>
      <trkpt lat="48.55084" lon="-3.78059">
        <ele>164</ele>
        <time>2021-07-08T08:55:24Z</time>
      </trkpt>
      <trkpt lat="48.55078" lon="-3.78048">
        <ele>164</ele>
        <time>2021-07-08T08:55:28Z</time>
      </trkpt>
      <trkpt lat="48.5507" lon="-3.78038">
        <ele>165</ele>
        <time>2021-07-08T08:55:31Z</time>
      </trkpt>
      <trkpt lat="48.55062" lon="-3.78029">
        <ele>165</ele>
        <time>2021-07-08T08:55:34Z</time>
      </trkpt>
      <trkpt lat="48.55055" lon="-3.7802">
        <ele>165</ele>
        <time>2021-07-08T08:55:37Z</time>
      </trkpt>
      <trkpt lat="48.55046" lon="-3.78011">
        <ele>165</ele>
        <time>2021-07-08T08:55:41Z</time>
      </trkpt>
      <trkpt lat="48.55038" lon="-3.78002">
        <ele>166</ele>
        <time>2021-07-08T08:55:44Z</time>
      </trkpt>
      <trkpt lat="48.5503" lon="-3.77993">
        <ele>166</ele>
        <time>2021-07-08T08:55:47Z</time>
      </trkpt>
      <trkpt lat="48.55022" lon="-3.77985">
        <ele>166</ele>
        <time>2021-07-08T08:55:49Z</time>
      </trkpt>
      <trkpt lat="48.55013" lon="-3.77975">
        <ele>166</ele>
        <time>2021-07-08T08:55:53Z</time>
      </trkpt>
      <trkpt lat="48.55004" lon="-3.77963">
        <ele>167</ele>
        <time>2021-07-08T08:55:57Z</time>
      </trkpt>
      <trkpt lat="48.54996" lon="-3.77955">
        <ele>167</ele>
        <time>2021-07-08T08:56:00Z</time>
      </trkpt>
      <trkpt lat="48.54988" lon="-3.77949">
        <ele>167</ele>
        <time>2021-07-08T08:56:04Z</time>
      </trkpt>
      <trkpt lat="48.5498" lon="-3.77942">
        <ele>168</ele>
        <time>2021-07-08T08:56:07Z</time>
      </trkpt>
      <trkpt lat="48.54972" lon="-3.77933">
        <ele>168</ele>
        <time>2021-07-08T08:56:10Z</time>
      </trkpt>
      <trkpt lat="48.54962" lon="-3.77923">
        <ele>168</ele>
        <time>2021-07-08T08:56:14Z</time>
      </trkpt>
      <trkpt lat="48.54953" lon="-3.77911">
        <ele>168</ele>
        <time>2021-07-08T08:56:17Z</time>
      </trkpt>
      <trkpt lat="48.54944" lon="-3.77904">
        <ele>169</ele>
        <time>2021-07-08T08:56:21Z</time>
      </trkpt>
      <trkpt lat="48.54935" lon="-3.77897">
        <ele>169</ele>
        <time>2021-07-08T08:56:26Z</time>
      </trkpt>
      <trkpt lat="48.54927" lon="-3.77888">
        <ele>169</ele>
        <time>2021-07-08T08:56:29Z</time>
      </trkpt>
      <trkpt lat="48.5492" lon="-3.77879">
        <ele>170</ele>
        <time>2021-07-08T08:56:32Z</time>
      </trkpt>
      <trkpt lat="48.54912" lon="-3.77872">
        <ele>170</ele>
        <time>2021-07-08T08:56:35Z</time>
      </trkpt>
      <trkpt lat="48.54902" lon="-3.77863">
        <ele>170</ele>
        <time>2021-07-08T08:56:39Z</time>
      </trkpt>
      <trkpt lat="48.54891" lon="-3.77851">
        <ele>170</ele>
        <time>2021-07-08T08:56:43Z</time>
      </trkpt>
      <trkpt lat="48.54881" lon="-3.77843">
        <ele>170</ele>
        <time>2021-07-08T08:56:46Z</time>
      </trkpt>
      <trkpt lat="48.54872" lon="-3.77835">
        <ele>171</ele>
        <time>2021-07-08T08:56:49Z</time>
      </trkpt>
      <trkpt lat="48.54864" lon="-3.77826">
        <ele>171</ele>
        <time>2021-07-08T08:56:52Z</time>
      </trkpt>
      <trkpt lat="48.54855" lon="-3.77816">
        <ele>171</ele>
        <time>2021-07-08T08:56:56Z</time>
      </trkpt>
      <trkpt lat="48.54848" lon="-3.77804">
        <ele>172</ele>
        <time>2021-07-08T08:57:00Z</time>
      </trkpt>
      <trkpt lat="48.54841" lon="-3.77794">
        <ele>172</ele>
        <time>2021-07-08T08:57:03Z</time>
      </trkpt>
      <trkpt lat="48.54835" lon="-3.77782">
        <ele>172</ele>
        <time>2021-07-08T08:57:05Z</time>
      </trkpt>
      <trkpt lat="48.54827" lon="-3.77771">
        <ele>172</ele>
        <time>2021-07-08T08:57:09Z</time>
      </trkpt>
      <trkpt lat="48.54821" lon="-3.77762">
        <ele>171</ele>
        <time>2021-07-08T08:57:11Z</time>
      </trkpt>
      <trkpt lat="48.54811" lon="-3.7775">
        <ele>172</ele>
        <time>2021-07-08T08:57:15Z</time>
      </trkpt>
      <trkpt lat="48.54802" lon="-3.77739">
        <ele>172</ele>
        <time>2021-07-08T08:57:18Z</time>
      </trkpt>
      <trkpt lat="48.54794" lon="-3.77727">
        <ele>173</ele>
        <time>2021-07-08T08:57:21Z</time>
      </trkpt>
      <trkpt lat="48.54788" lon="-3.77716">
        <ele>173</ele>
        <time>2021-07-08T08:57:24Z</time>
      </trkpt>
      <trkpt lat="48.54783" lon="-3.77704">
        <ele>173</ele>
        <time>2021-07-08T08:57:28Z</time>
      </trkpt>
      <trkpt lat="48.54777" lon="-3.7769">
        <ele>174</ele>
        <time>2021-07-08T08:57:31Z</time>
      </trkpt>
      <trkpt lat="48.54769" lon="-3.77675">
        <ele>174</ele>
        <time>2021-07-08T08:57:36Z</time>
      </trkpt>
      <trkpt lat="48.5476" lon="-3.77664">
        <ele>174</ele>
        <time>2021-07-08T08:57:39Z</time>
      </trkpt>
      <trkpt lat="48.54753" lon="-3.77652">
        <ele>175</ele>
        <time>2021-07-08T08:57:41Z</time>
      </trkpt>
      <trkpt lat="48.54746" lon="-3.77639">
        <ele>175</ele>
        <time>2021-07-08T08:57:45Z</time>
      </trkpt>
      <trkpt lat="48.54739" lon="-3.77626">
        <ele>175</ele>
        <time>2021-07-08T08:57:48Z</time>
      </trkpt>
      <trkpt lat="48.54737" lon="-3.77622">
        <ele>175</ele>
        <time>2021-07-08T08:57:50Z</time>
      </trkpt>
      <trkpt lat="48.54734" lon="-3.77618">
        <ele>175</ele>
        <time>2021-07-08T08:57:50Z</time>
      </trkpt>
      <trkpt lat="48.54732" lon="-3.77613">
        <ele>175</ele>
        <time>2021-07-08T08:57:52Z</time>
      </trkpt>
      <trkpt lat="48.5473" lon="-3.77609">
        <ele>175</ele>
        <time>2021-07-08T08:57:53Z</time>
      </trkpt>
      <trkpt lat="48.54724" lon="-3.77598">
        <ele>175</ele>
        <time>2021-07-08T08:57:56Z</time>
      </trkpt>
      <trkpt lat="48.54718" lon="-3.77582">
        <ele>175</ele>
        <time>2021-07-08T08:58:00Z</time>
      </trkpt>
      <trkpt lat="48.54712" lon="-3.7757">
        <ele>175</ele>
        <time>2021-07-08T08:58:02Z</time>
      </trkpt>
      <trkpt lat="48.54707" lon="-3.77558">
        <ele>175</ele>
        <time>2021-07-08T08:58:05Z</time>
      </trkpt>
      <trkpt lat="48.54702" lon="-3.77545">
        <ele>176</ele>
        <time>2021-07-08T08:58:09Z</time>
      </trkpt>
      <trkpt lat="48.54695" lon="-3.7753">
        <ele>176</ele>
        <time>2021-07-08T08:58:13Z</time>
      </trkpt>
      <trkpt lat="48.54687" lon="-3.77516">
        <ele>176</ele>
        <time>2021-07-08T08:58:17Z</time>
      </trkpt>
      <trkpt lat="48.54679" lon="-3.77503">
        <ele>177</ele>
        <time>2021-07-08T08:58:20Z</time>
      </trkpt>
      <trkpt lat="48.54673" lon="-3.77488">
        <ele>177</ele>
        <time>2021-07-08T08:58:23Z</time>
      </trkpt>
      <trkpt lat="48.54669" lon="-3.77475">
        <ele>178</ele>
        <time>2021-07-08T08:58:27Z</time>
      </trkpt>
      <trkpt lat="48.54663" lon="-3.77461">
        <ele>178</ele>
        <time>2021-07-08T08:58:29Z</time>
      </trkpt>
      <trkpt lat="48.54655" lon="-3.77448">
        <ele>179</ele>
        <time>2021-07-08T08:58:33Z</time>
      </trkpt>
      <trkpt lat="48.54649" lon="-3.77433">
        <ele>179</ele>
        <time>2021-07-08T08:58:37Z</time>
      </trkpt>
      <trkpt lat="48.54643" lon="-3.77418">
        <ele>179</ele>
        <time>2021-07-08T08:58:41Z</time>
      </trkpt>
      <trkpt lat="48.54637" lon="-3.77404">
        <ele>179</ele>
        <time>2021-07-08T08:58:45Z</time>
      </trkpt>
      <trkpt lat="48.54633" lon="-3.77388">
        <ele>179</ele>
        <time>2021-07-08T08:58:47Z</time>
      </trkpt>
      <trkpt lat="48.54627" lon="-3.77376">
        <ele>180</ele>
        <time>2021-07-08T08:58:51Z</time>
      </trkpt>
      <trkpt lat="48.54621" lon="-3.77364">
        <ele>180</ele>
        <time>2021-07-08T08:58:54Z</time>
      </trkpt>
      <trkpt lat="48.54614" lon="-3.77351">
        <ele>180</ele>
        <time>2021-07-08T08:58:58Z</time>
      </trkpt>
      <trkpt lat="48.54609" lon="-3.77339">
        <ele>180</ele>
        <time>2021-07-08T08:59:01Z</time>
      </trkpt>
      <trkpt lat="48.54604" lon="-3.77326">
        <ele>180</ele>
        <time>2021-07-08T08:59:05Z</time>
      </trkpt>
      <trkpt lat="48.546" lon="-3.77312">
        <ele>181</ele>
        <time>2021-07-08T08:59:08Z</time>
      </trkpt>
      <trkpt lat="48.54596" lon="-3.77295">
        <ele>181</ele>
        <time>2021-07-08T08:59:10Z</time>
      </trkpt>
      <trkpt lat="48.54589" lon="-3.77283">
        <ele>181</ele>
        <time>2021-07-08T08:59:13Z</time>
      </trkpt>
      <trkpt lat="48.54582" lon="-3.77271">
        <ele>181</ele>
        <time>2021-07-08T08:59:18Z</time>
      </trkpt>
      <trkpt lat="48.54574" lon="-3.7726">
        <ele>181</ele>
        <time>2021-07-08T08:59:21Z</time>
      </trkpt>
      <trkpt lat="48.54567" lon="-3.7725">
        <ele>182</ele>
        <time>2021-07-08T08:59:24Z</time>
      </trkpt>
      <trkpt lat="48.54558" lon="-3.77241">
        <ele>182</ele>
        <time>2021-07-08T08:59:27Z</time>
      </trkpt>
      <trkpt lat="48.54549" lon="-3.77231">
        <ele>182</ele>
        <time>2021-07-08T08:59:30Z</time>
      </trkpt>
      <trkpt lat="48.54542" lon="-3.77222">
        <ele>182</ele>
        <time>2021-07-08T08:59:33Z</time>
      </trkpt>
      <trkpt lat="48.54533" lon="-3.77214">
        <ele>182</ele>
        <time>2021-07-08T08:59:36Z</time>
      </trkpt>
      <trkpt lat="48.54523" lon="-3.77205">
        <ele>182</ele>
        <time>2021-07-08T08:59:40Z</time>
      </trkpt>
      <trkpt lat="48.54513" lon="-3.77196">
        <ele>183</ele>
        <time>2021-07-08T08:59:43Z</time>
      </trkpt>
      <trkpt lat="48.54501" lon="-3.7719">
        <ele>183</ele>
        <time>2021-07-08T08:59:46Z</time>
      </trkpt>
      <trkpt lat="48.54491" lon="-3.77184">
        <ele>183</ele>
        <time>2021-07-08T08:59:49Z</time>
      </trkpt>
      <trkpt lat="48.54478" lon="-3.77178">
        <ele>183</ele>
        <time>2021-07-08T08:59:52Z</time>
      </trkpt>
      <trkpt lat="48.54471" lon="-3.77173">
        <ele>183</ele>
        <time>2021-07-08T08:59:54Z</time>
      </trkpt>
      <trkpt lat="48.54468" lon="-3.77171">
        <ele>183</ele>
        <time>2021-07-08T08:59:55Z</time>
      </trkpt>
      <trkpt lat="48.54464" lon="-3.77169">
        <ele>183</ele>
        <time>2021-07-08T08:59:56Z</time>
      </trkpt>
      <trkpt lat="48.54462" lon="-3.77166">
        <ele>183</ele>
        <time>2021-07-08T08:59:57Z</time>
      </trkpt>
      <trkpt lat="48.54459" lon="-3.77164">
        <ele>183</ele>
        <time>2021-07-08T08:59:58Z</time>
      </trkpt>
      <trkpt lat="48.54456" lon="-3.77162">
        <ele>183</ele>
        <time>2021-07-08T08:59:59Z</time>
      </trkpt>
      <trkpt lat="48.54454" lon="-3.7716">
        <ele>183</ele>
        <time>2021-07-08T08:59:59Z</time>
      </trkpt>
      <trkpt lat="48.54443" lon="-3.77152">
        <ele>183</ele>
        <time>2021-07-08T09:00:04Z</time>
      </trkpt>
      <trkpt lat="48.54434" lon="-3.77146">
        <ele>183</ele>
        <time>2021-07-08T09:00:07Z</time>
      </trkpt>
      <trkpt lat="48.54426" lon="-3.77138">
        <ele>184</ele>
        <time>2021-07-08T09:00:10Z</time>
      </trkpt>
      <trkpt lat="48.54416" lon="-3.77128">
        <ele>185</ele>
        <time>2021-07-08T09:00:15Z</time>
      </trkpt>
      <trkpt lat="48.54408" lon="-3.77122">
        <ele>185</ele>
        <time>2021-07-08T09:00:18Z</time>
      </trkpt>
      <trkpt lat="48.54399" lon="-3.77115">
        <ele>185</ele>
        <time>2021-07-08T09:00:21Z</time>
      </trkpt>
      <trkpt lat="48.54388" lon="-3.77109">
        <ele>185</ele>
        <time>2021-07-08T09:00:24Z</time>
      </trkpt>
      <trkpt lat="48.54376" lon="-3.77102">
        <ele>185</ele>
        <time>2021-07-08T09:00:27Z</time>
      </trkpt>
      <trkpt lat="48.54366" lon="-3.77097">
        <ele>185</ele>
        <time>2021-07-08T09:00:30Z</time>
      </trkpt>
      <trkpt lat="48.54356" lon="-3.77092">
        <ele>186</ele>
        <time>2021-07-08T09:00:33Z</time>
      </trkpt>
      <trkpt lat="48.54344" lon="-3.7709">
        <ele>186</ele>
        <time>2021-07-08T09:00:37Z</time>
      </trkpt>
      <trkpt lat="48.54335" lon="-3.77088">
        <ele>186</ele>
        <time>2021-07-08T09:00:40Z</time>
      </trkpt>
      <trkpt lat="48.54326" lon="-3.77082">
        <ele>186</ele>
        <time>2021-07-08T09:00:41Z</time>
      </trkpt>
      <trkpt lat="48.54315" lon="-3.77075">
        <ele>186</ele>
        <time>2021-07-08T09:00:45Z</time>
      </trkpt>
      <trkpt lat="48.54312" lon="-3.77072">
        <ele>187</ele>
        <time>2021-07-08T09:00:46Z</time>
      </trkpt>
      <trkpt lat="48.54309" lon="-3.7707">
        <ele>187</ele>
        <time>2021-07-08T09:00:47Z</time>
      </trkpt>
      <trkpt lat="48.54306" lon="-3.77068">
        <ele>187</ele>
        <time>2021-07-08T09:00:48Z</time>
      </trkpt>
      <trkpt lat="48.54303" lon="-3.77066">
        <ele>187</ele>
        <time>2021-07-08T09:00:49Z</time>
      </trkpt>
      <trkpt lat="48.543" lon="-3.77064">
        <ele>187</ele>
        <time>2021-07-08T09:00:50Z</time>
      </trkpt>
      <trkpt lat="48.54297" lon="-3.77062">
        <ele>187</ele>
        <time>2021-07-08T09:00:51Z</time>
      </trkpt>
      <trkpt lat="48.54287" lon="-3.77054">
        <ele>187</ele>
        <time>2021-07-08T09:00:55Z</time>
      </trkpt>
      <trkpt lat="48.54277" lon="-3.77047">
        <ele>187</ele>
        <time>2021-07-08T09:00:58Z</time>
      </trkpt>
      <trkpt lat="48.54268" lon="-3.7704">
        <ele>187</ele>
        <time>2021-07-08T09:01:01Z</time>
      </trkpt>
      <trkpt lat="48.54259" lon="-3.7703">
        <ele>187</ele>
        <time>2021-07-08T09:01:04Z</time>
      </trkpt>
      <trkpt lat="48.54249" lon="-3.77022">
        <ele>187</ele>
        <time>2021-07-08T09:01:10Z</time>
      </trkpt>
      <trkpt lat="48.5424" lon="-3.77015">
        <ele>187</ele>
        <time>2021-07-08T09:01:16Z</time>
      </trkpt>
      <trkpt lat="48.54231" lon="-3.7701">
        <ele>186</ele>
        <time>2021-07-08T09:01:20Z</time>
      </trkpt>
      <trkpt lat="48.54222" lon="-3.77006">
        <ele>186</ele>
        <time>2021-07-08T09:01:25Z</time>
      </trkpt>
      <trkpt lat="48.54219" lon="-3.77006">
        <ele>186</ele>
        <time>2021-07-08T09:01:26Z</time>
      </trkpt>
      <trkpt lat="48.54217" lon="-3.77006">
        <ele>186</ele>
        <time>2021-07-08T09:01:27Z</time>
      </trkpt>
      <trkpt lat="48.54214" lon="-3.77006">
        <ele>185</ele>
        <time>2021-07-08T09:01:28Z</time>
      </trkpt>
      <trkpt lat="48.54212" lon="-3.77005">
        <ele>185</ele>
        <time>2021-07-08T09:01:28Z</time>
      </trkpt>
      <trkpt lat="48.54209" lon="-3.77004">
        <ele>185</ele>
        <time>2021-07-08T09:01:31Z</time>
      </trkpt>
      <trkpt lat="48.54207" lon="-3.77003">
        <ele>186</ele>
        <time>2021-07-08T09:01:31Z</time>
      </trkpt>
      <trkpt lat="48.54205" lon="-3.77001">
        <ele>186</ele>
        <time>2021-07-08T09:01:33Z</time>
      </trkpt>
      <trkpt lat="48.54197" lon="-3.76993">
        <ele>187</ele>
        <time>2021-07-08T09:01:39Z</time>
      </trkpt>
      <trkpt lat="48.54193" lon="-3.76988">
        <ele>187</ele>
        <time>2021-07-08T09:01:44Z</time>
      </trkpt>
      <trkpt lat="48.54184" lon="-3.76975">
        <ele>188</ele>
        <time>2021-07-08T09:03:13Z</time>
      </trkpt>
      <trkpt lat="48.5418" lon="-3.76973">
        <ele>188</ele>
        <time>2021-07-08T09:03:13Z</time>
      </trkpt>
      <trkpt lat="48.54172" lon="-3.76967">
        <ele>189</ele>
        <time>2021-07-08T09:03:19Z</time>
      </trkpt>
      <trkpt lat="48.54163" lon="-3.76961">
        <ele>189</ele>
        <time>2021-07-08T09:03:22Z</time>
      </trkpt>
      <trkpt lat="48.54161" lon="-3.76959">
        <ele>189</ele>
        <time>2021-07-08T09:03:23Z</time>
      </trkpt>
      <trkpt lat="48.54158" lon="-3.76957">
        <ele>189</ele>
        <time>2021-07-08T09:03:24Z</time>
      </trkpt>
      <trkpt lat="48.54156" lon="-3.76955">
        <ele>189</ele>
        <time>2021-07-08T09:03:25Z</time>
      </trkpt>
      <trkpt lat="48.54155" lon="-3.76953">
        <ele>190</ele>
        <time>2021-07-08T09:03:26Z</time>
      </trkpt>
      <trkpt lat="48.54153" lon="-3.76952">
        <ele>190</ele>
        <time>2021-07-08T09:03:27Z</time>
      </trkpt>
      <trkpt lat="48.54151" lon="-3.76951">
        <ele>190</ele>
        <time>2021-07-08T09:03:28Z</time>
      </trkpt>
      <trkpt lat="48.54148" lon="-3.7695">
        <ele>190</ele>
        <time>2021-07-08T09:03:29Z</time>
      </trkpt>
      <trkpt lat="48.54145" lon="-3.76948">
        <ele>189</ele>
        <time>2021-07-08T09:03:32Z</time>
      </trkpt>
      <trkpt lat="48.54142" lon="-3.76947">
        <ele>189</ele>
        <time>2021-07-08T09:03:34Z</time>
      </trkpt>
      <trkpt lat="48.54132" lon="-3.76939">
        <ele>189</ele>
        <time>2021-07-08T09:03:40Z</time>
      </trkpt>
      <trkpt lat="48.54124" lon="-3.76929">
        <ele>189</ele>
        <time>2021-07-08T09:03:44Z</time>
      </trkpt>
      <trkpt lat="48.54116" lon="-3.76918">
        <ele>189</ele>
        <time>2021-07-08T09:03:47Z</time>
      </trkpt>
      <trkpt lat="48.54108" lon="-3.76906">
        <ele>189</ele>
        <time>2021-07-08T09:03:50Z</time>
      </trkpt>
      <trkpt lat="48.54099" lon="-3.76895">
        <ele>189</ele>
        <time>2021-07-08T09:03:53Z</time>
      </trkpt>
      <trkpt lat="48.54092" lon="-3.76882">
        <ele>189</ele>
        <time>2021-07-08T09:03:56Z</time>
      </trkpt>
      <trkpt lat="48.54086" lon="-3.76871">
        <ele>189</ele>
        <time>2021-07-08T09:03:59Z</time>
      </trkpt>
      <trkpt lat="48.5408" lon="-3.76856">
        <ele>190</ele>
        <time>2021-07-08T09:04:03Z</time>
      </trkpt>
      <trkpt lat="48.54076" lon="-3.76843">
        <ele>190</ele>
        <time>2021-07-08T09:04:06Z</time>
      </trkpt>
      <trkpt lat="48.5407" lon="-3.76826">
        <ele>189</ele>
        <time>2021-07-08T09:04:09Z</time>
      </trkpt>
      <trkpt lat="48.54064" lon="-3.76813">
        <ele>189</ele>
        <time>2021-07-08T09:04:10Z</time>
      </trkpt>
      <trkpt lat="48.54057" lon="-3.768">
        <ele>189</ele>
        <time>2021-07-08T09:04:13Z</time>
      </trkpt>
      <trkpt lat="48.5405" lon="-3.76784">
        <ele>190</ele>
        <time>2021-07-08T09:04:16Z</time>
      </trkpt>
      <trkpt lat="48.54048" lon="-3.7677">
        <ele>190</ele>
        <time>2021-07-08T09:04:18Z</time>
      </trkpt>
      <trkpt lat="48.54044" lon="-3.76755">
        <ele>190</ele>
        <time>2021-07-08T09:04:19Z</time>
      </trkpt>
      <trkpt lat="48.54041" lon="-3.76741">
        <ele>190</ele>
        <time>2021-07-08T09:04:21Z</time>
      </trkpt>
      <trkpt lat="48.54037" lon="-3.76724">
        <ele>189</ele>
        <time>2021-07-08T09:04:25Z</time>
      </trkpt>
      <trkpt lat="48.54035" lon="-3.76707">
        <ele>189</ele>
        <time>2021-07-08T09:04:28Z</time>
      </trkpt>
      <trkpt lat="48.54028" lon="-3.76692">
        <ele>189</ele>
        <time>2021-07-08T09:04:31Z</time>
      </trkpt>
      <trkpt lat="48.54024" lon="-3.76676">
        <ele>189</ele>
        <time>2021-07-08T09:04:34Z</time>
      </trkpt>
      <trkpt lat="48.5402" lon="-3.76662">
        <ele>189</ele>
        <time>2021-07-08T09:04:37Z</time>
      </trkpt>
      <trkpt lat="48.54015" lon="-3.76649">
        <ele>189</ele>
        <time>2021-07-08T09:04:40Z</time>
      </trkpt>
      <trkpt lat="48.54009" lon="-3.76634">
        <ele>189</ele>
        <time>2021-07-08T09:04:43Z</time>
      </trkpt>
      <trkpt lat="48.54005" lon="-3.76622">
        <ele>189</ele>
        <time>2021-07-08T09:04:44Z</time>
      </trkpt>
      <trkpt lat="48.54" lon="-3.7661">
        <ele>189</ele>
        <time>2021-07-08T09:04:47Z</time>
      </trkpt>
      <trkpt lat="48.53992" lon="-3.76596">
        <ele>189</ele>
        <time>2021-07-08T09:04:50Z</time>
      </trkpt>
      <trkpt lat="48.53987" lon="-3.76584">
        <ele>189</ele>
        <time>2021-07-08T09:04:52Z</time>
      </trkpt>
      <trkpt lat="48.53978" lon="-3.76569">
        <ele>189</ele>
        <time>2021-07-08T09:04:55Z</time>
      </trkpt>
      <trkpt lat="48.5397" lon="-3.76558">
        <ele>189</ele>
        <time>2021-07-08T09:04:57Z</time>
      </trkpt>
      <trkpt lat="48.53963" lon="-3.7655">
        <ele>189</ele>
        <time>2021-07-08T09:04:59Z</time>
      </trkpt>
      <trkpt lat="48.53956" lon="-3.76541">
        <ele>189</ele>
        <time>2021-07-08T09:05:01Z</time>
      </trkpt>
      <trkpt lat="48.53948" lon="-3.76532">
        <ele>189</ele>
        <time>2021-07-08T09:05:03Z</time>
      </trkpt>
      <trkpt lat="48.5394" lon="-3.76524">
        <ele>189</ele>
        <time>2021-07-08T09:05:05Z</time>
      </trkpt>
      <trkpt lat="48.53932" lon="-3.76517">
        <ele>189</ele>
        <time>2021-07-08T09:05:07Z</time>
      </trkpt>
      <trkpt lat="48.53923" lon="-3.76508">
        <ele>189</ele>
        <time>2021-07-08T09:05:10Z</time>
      </trkpt>
      <trkpt lat="48.53914" lon="-3.76503">
        <ele>189</ele>
        <time>2021-07-08T09:05:13Z</time>
      </trkpt>
      <trkpt lat="48.53904" lon="-3.76498">
        <ele>189</ele>
        <time>2021-07-08T09:05:16Z</time>
      </trkpt>
      <trkpt lat="48.53892" lon="-3.76493">
        <ele>189</ele>
        <time>2021-07-08T09:05:19Z</time>
      </trkpt>
      <trkpt lat="48.53882" lon="-3.7649">
        <ele>189</ele>
        <time>2021-07-08T09:05:22Z</time>
      </trkpt>
      <trkpt lat="48.53873" lon="-3.76486">
        <ele>189</ele>
        <time>2021-07-08T09:05:25Z</time>
      </trkpt>
      <trkpt lat="48.53863" lon="-3.76484">
        <ele>189</ele>
        <time>2021-07-08T09:05:28Z</time>
      </trkpt>
      <trkpt lat="48.53852" lon="-3.76481">
        <ele>189</ele>
        <time>2021-07-08T09:05:31Z</time>
      </trkpt>
      <trkpt lat="48.53842" lon="-3.76478">
        <ele>189</ele>
        <time>2021-07-08T09:05:34Z</time>
      </trkpt>
      <trkpt lat="48.53832" lon="-3.76476">
        <ele>189</ele>
        <time>2021-07-08T09:05:37Z</time>
      </trkpt>
      <trkpt lat="48.5382" lon="-3.76474">
        <ele>189</ele>
        <time>2021-07-08T09:05:39Z</time>
      </trkpt>
      <trkpt lat="48.53809" lon="-3.76472">
        <ele>189</ele>
        <time>2021-07-08T09:05:43Z</time>
      </trkpt>
      <trkpt lat="48.53797" lon="-3.76469">
        <ele>189</ele>
        <time>2021-07-08T09:05:46Z</time>
      </trkpt>
      <trkpt lat="48.53788" lon="-3.76466">
        <ele>189</ele>
        <time>2021-07-08T09:05:48Z</time>
      </trkpt>
      <trkpt lat="48.53779" lon="-3.76464">
        <ele>189</ele>
        <time>2021-07-08T09:05:50Z</time>
      </trkpt>
      <trkpt lat="48.53768" lon="-3.76463">
        <ele>189</ele>
        <time>2021-07-08T09:05:52Z</time>
      </trkpt>
      <trkpt lat="48.53759" lon="-3.7646">
        <ele>189</ele>
        <time>2021-07-08T09:05:54Z</time>
      </trkpt>
      <trkpt lat="48.53745" lon="-3.76454">
        <ele>189</ele>
        <time>2021-07-08T09:05:57Z</time>
      </trkpt>
      <trkpt lat="48.53732" lon="-3.76449">
        <ele>189</ele>
        <time>2021-07-08T09:06:00Z</time>
      </trkpt>
      <trkpt lat="48.53721" lon="-3.76444">
        <ele>189</ele>
        <time>2021-07-08T09:06:03Z</time>
      </trkpt>
      <trkpt lat="48.5371" lon="-3.76439">
        <ele>189</ele>
        <time>2021-07-08T09:06:07Z</time>
      </trkpt>
      <trkpt lat="48.53698" lon="-3.7643">
        <ele>188</ele>
        <time>2021-07-08T09:06:10Z</time>
      </trkpt>
      <trkpt lat="48.53687" lon="-3.76422">
        <ele>189</ele>
        <time>2021-07-08T09:06:13Z</time>
      </trkpt>
      <trkpt lat="48.53675" lon="-3.76411">
        <ele>189</ele>
        <time>2021-07-08T09:06:16Z</time>
      </trkpt>
      <trkpt lat="48.53666" lon="-3.76404">
        <ele>189</ele>
        <time>2021-07-08T09:06:18Z</time>
      </trkpt>
      <trkpt lat="48.53657" lon="-3.76398">
        <ele>189</ele>
        <time>2021-07-08T09:06:20Z</time>
      </trkpt>
      <trkpt lat="48.53648" lon="-3.7639">
        <ele>190</ele>
        <time>2021-07-08T09:06:22Z</time>
      </trkpt>
      <trkpt lat="48.53638" lon="-3.76377">
        <ele>190</ele>
        <time>2021-07-08T09:06:25Z</time>
      </trkpt>
      <trkpt lat="48.53628" lon="-3.76364">
        <ele>190</ele>
        <time>2021-07-08T09:06:28Z</time>
      </trkpt>
      <trkpt lat="48.53618" lon="-3.76353">
        <ele>190</ele>
        <time>2021-07-08T09:06:31Z</time>
      </trkpt>
      <trkpt lat="48.5361" lon="-3.76343">
        <ele>190</ele>
        <time>2021-07-08T09:06:34Z</time>
      </trkpt>
      <trkpt lat="48.53601" lon="-3.76335">
        <ele>190</ele>
        <time>2021-07-08T09:06:36Z</time>
      </trkpt>
      <trkpt lat="48.53592" lon="-3.76326">
        <ele>191</ele>
        <time>2021-07-08T09:06:40Z</time>
      </trkpt>
      <trkpt lat="48.53584" lon="-3.76318">
        <ele>191</ele>
        <time>2021-07-08T09:06:42Z</time>
      </trkpt>
      <trkpt lat="48.5358" lon="-3.76316">
        <ele>191</ele>
        <time>2021-07-08T09:06:44Z</time>
      </trkpt>
      <trkpt lat="48.5357" lon="-3.76311">
        <ele>191</ele>
        <time>2021-07-08T09:06:47Z</time>
      </trkpt>
      <trkpt lat="48.53566" lon="-3.7631">
        <ele>190</ele>
        <time>2021-07-08T09:06:48Z</time>
      </trkpt>
      <trkpt lat="48.53563" lon="-3.76308">
        <ele>190</ele>
        <time>2021-07-08T09:06:48Z</time>
      </trkpt>
      <trkpt lat="48.53559" lon="-3.76306">
        <ele>190</ele>
        <time>2021-07-08T09:06:50Z</time>
      </trkpt>
      <trkpt lat="48.53556" lon="-3.76305">
        <ele>191</ele>
        <time>2021-07-08T09:06:51Z</time>
      </trkpt>
      <trkpt lat="48.53552" lon="-3.76303">
        <ele>191</ele>
        <time>2021-07-08T09:06:52Z</time>
      </trkpt>
      <trkpt lat="48.53549" lon="-3.76302">
        <ele>191</ele>
        <time>2021-07-08T09:06:53Z</time>
      </trkpt>
      <trkpt lat="48.53545" lon="-3.763">
        <ele>191</ele>
        <time>2021-07-08T09:06:54Z</time>
      </trkpt>
      <trkpt lat="48.53541" lon="-3.76299">
        <ele>192</ele>
        <time>2021-07-08T09:06:55Z</time>
      </trkpt>
      <trkpt lat="48.53538" lon="-3.76298">
        <ele>192</ele>
        <time>2021-07-08T09:06:56Z</time>
      </trkpt>
      <trkpt lat="48.53534" lon="-3.76297">
        <ele>192</ele>
        <time>2021-07-08T09:06:57Z</time>
      </trkpt>
      <trkpt lat="48.53531" lon="-3.76296">
        <ele>192</ele>
        <time>2021-07-08T09:06:58Z</time>
      </trkpt>
      <trkpt lat="48.53529" lon="-3.76294">
        <ele>192</ele>
        <time>2021-07-08T09:06:59Z</time>
      </trkpt>
      <trkpt lat="48.53525" lon="-3.76293">
        <ele>192</ele>
        <time>2021-07-08T09:06:59Z</time>
      </trkpt>
      <trkpt lat="48.53522" lon="-3.76293">
        <ele>192</ele>
        <time>2021-07-08T09:07:01Z</time>
      </trkpt>
      <trkpt lat="48.53519" lon="-3.76292">
        <ele>192</ele>
        <time>2021-07-08T09:07:01Z</time>
      </trkpt>
      <trkpt lat="48.53508" lon="-3.76293">
        <ele>192</ele>
        <time>2021-07-08T09:07:05Z</time>
      </trkpt>
      <trkpt lat="48.53498" lon="-3.76293">
        <ele>192</ele>
        <time>2021-07-08T09:07:08Z</time>
      </trkpt>
      <trkpt lat="48.53492" lon="-3.76294">
        <ele>192</ele>
        <time>2021-07-08T09:07:10Z</time>
      </trkpt>
      <trkpt lat="48.53488" lon="-3.76293">
        <ele>192</ele>
        <time>2021-07-08T09:07:11Z</time>
      </trkpt>
      <trkpt lat="48.53481" lon="-3.76292">
        <ele>193</ele>
        <time>2021-07-08T09:07:13Z</time>
      </trkpt>
      <trkpt lat="48.53478" lon="-3.76293">
        <ele>193</ele>
        <time>2021-07-08T09:07:14Z</time>
      </trkpt>
      <trkpt lat="48.53475" lon="-3.76293">
        <ele>193</ele>
        <time>2021-07-08T09:07:15Z</time>
      </trkpt>
      <trkpt lat="48.53472" lon="-3.76294">
        <ele>193</ele>
        <time>2021-07-08T09:07:16Z</time>
      </trkpt>
      <trkpt lat="48.53469" lon="-3.76295">
        <ele>193</ele>
        <time>2021-07-08T09:07:17Z</time>
      </trkpt>
      <trkpt lat="48.53465" lon="-3.76296">
        <ele>193</ele>
        <time>2021-07-08T09:07:18Z</time>
      </trkpt>
      <trkpt lat="48.53462" lon="-3.76296">
        <ele>193</ele>
        <time>2021-07-08T09:07:19Z</time>
      </trkpt>
      <trkpt lat="48.53458" lon="-3.76297">
        <ele>193</ele>
        <time>2021-07-08T09:07:20Z</time>
      </trkpt>
      <trkpt lat="48.53455" lon="-3.76299">
        <ele>193</ele>
        <time>2021-07-08T09:07:20Z</time>
      </trkpt>
      <trkpt lat="48.53451" lon="-3.763">
        <ele>193</ele>
        <time>2021-07-08T09:07:21Z</time>
      </trkpt>
      <trkpt lat="48.53448" lon="-3.76302">
        <ele>194</ele>
        <time>2021-07-08T09:07:23Z</time>
      </trkpt>
      <trkpt lat="48.53445" lon="-3.76303">
        <ele>194</ele>
        <time>2021-07-08T09:07:24Z</time>
      </trkpt>
      <trkpt lat="48.53442" lon="-3.76304">
        <ele>194</ele>
        <time>2021-07-08T09:07:25Z</time>
      </trkpt>
      <trkpt lat="48.53438" lon="-3.76305">
        <ele>194</ele>
        <time>2021-07-08T09:07:26Z</time>
      </trkpt>
      <trkpt lat="48.53428" lon="-3.76309">
        <ele>194</ele>
        <time>2021-07-08T09:07:29Z</time>
      </trkpt>
      <trkpt lat="48.53417" lon="-3.76314">
        <ele>194</ele>
        <time>2021-07-08T09:07:32Z</time>
      </trkpt>
      <trkpt lat="48.53408" lon="-3.76318">
        <ele>195</ele>
        <time>2021-07-08T09:07:35Z</time>
      </trkpt>
      <trkpt lat="48.53398" lon="-3.76322">
        <ele>196</ele>
        <time>2021-07-08T09:07:38Z</time>
      </trkpt>
      <trkpt lat="48.53394" lon="-3.76324">
        <ele>196</ele>
        <time>2021-07-08T09:07:39Z</time>
      </trkpt>
      <trkpt lat="48.53383" lon="-3.7633">
        <ele>196</ele>
        <time>2021-07-08T09:07:42Z</time>
      </trkpt>
      <trkpt lat="48.5337" lon="-3.76338">
        <ele>195</ele>
        <time>2021-07-08T09:07:45Z</time>
      </trkpt>
      <trkpt lat="48.5336" lon="-3.76343">
        <ele>195</ele>
        <time>2021-07-08T09:07:48Z</time>
      </trkpt>
      <trkpt lat="48.5335" lon="-3.76348">
        <ele>196</ele>
        <time>2021-07-08T09:07:51Z</time>
      </trkpt>
      <trkpt lat="48.53338" lon="-3.76353">
        <ele>196</ele>
        <time>2021-07-08T09:07:54Z</time>
      </trkpt>
      <trkpt lat="48.53335" lon="-3.76355">
        <ele>196</ele>
        <time>2021-07-08T09:07:55Z</time>
      </trkpt>
      <trkpt lat="48.53332" lon="-3.76356">
        <ele>197</ele>
        <time>2021-07-08T09:07:56Z</time>
      </trkpt>
      <trkpt lat="48.53328" lon="-3.76358">
        <ele>197</ele>
        <time>2021-07-08T09:07:57Z</time>
      </trkpt>
      <trkpt lat="48.53325" lon="-3.7636">
        <ele>197</ele>
        <time>2021-07-08T09:07:58Z</time>
      </trkpt>
      <trkpt lat="48.53321" lon="-3.76361">
        <ele>197</ele>
        <time>2021-07-08T09:07:58Z</time>
      </trkpt>
      <trkpt lat="48.53317" lon="-3.76362">
        <ele>197</ele>
        <time>2021-07-08T09:08:00Z</time>
      </trkpt>
      <trkpt lat="48.53313" lon="-3.76363">
        <ele>197</ele>
        <time>2021-07-08T09:08:01Z</time>
      </trkpt>
      <trkpt lat="48.53308" lon="-3.76364">
        <ele>197</ele>
        <time>2021-07-08T09:08:02Z</time>
      </trkpt>
      <trkpt lat="48.53304" lon="-3.76365">
        <ele>197</ele>
        <time>2021-07-08T09:08:03Z</time>
      </trkpt>
      <trkpt lat="48.533" lon="-3.76366">
        <ele>197</ele>
        <time>2021-07-08T09:08:04Z</time>
      </trkpt>
      <trkpt lat="48.53297" lon="-3.76367">
        <ele>197</ele>
        <time>2021-07-08T09:08:05Z</time>
      </trkpt>
      <trkpt lat="48.53293" lon="-3.76367">
        <ele>197</ele>
        <time>2021-07-08T09:08:06Z</time>
      </trkpt>
      <trkpt lat="48.53289" lon="-3.76367">
        <ele>197</ele>
        <time>2021-07-08T09:08:07Z</time>
      </trkpt>
      <trkpt lat="48.53286" lon="-3.76367">
        <ele>197</ele>
        <time>2021-07-08T09:08:08Z</time>
      </trkpt>
      <trkpt lat="48.53282" lon="-3.76367">
        <ele>197</ele>
        <time>2021-07-08T09:08:09Z</time>
      </trkpt>
      <trkpt lat="48.53278" lon="-3.76367">
        <ele>198</ele>
        <time>2021-07-08T09:08:10Z</time>
      </trkpt>
      <trkpt lat="48.53274" lon="-3.76367">
        <ele>198</ele>
        <time>2021-07-08T09:08:11Z</time>
      </trkpt>
      <trkpt lat="48.53271" lon="-3.76367">
        <ele>198</ele>
        <time>2021-07-08T09:08:12Z</time>
      </trkpt>
      <trkpt lat="48.53268" lon="-3.76367">
        <ele>198</ele>
        <time>2021-07-08T09:08:13Z</time>
      </trkpt>
      <trkpt lat="48.53264" lon="-3.76366">
        <ele>198</ele>
        <time>2021-07-08T09:08:14Z</time>
      </trkpt>
      <trkpt lat="48.5326" lon="-3.76366">
        <ele>198</ele>
        <time>2021-07-08T09:08:15Z</time>
      </trkpt>
      <trkpt lat="48.53257" lon="-3.76365">
        <ele>198</ele>
        <time>2021-07-08T09:08:16Z</time>
      </trkpt>
      <trkpt lat="48.53254" lon="-3.76364">
        <ele>199</ele>
        <time>2021-07-08T09:08:17Z</time>
      </trkpt>
      <trkpt lat="48.53251" lon="-3.76363">
        <ele>199</ele>
        <time>2021-07-08T09:08:17Z</time>
      </trkpt>
      <trkpt lat="48.53248" lon="-3.76363">
        <ele>199</ele>
        <time>2021-07-08T09:08:19Z</time>
      </trkpt>
      <trkpt lat="48.53246" lon="-3.76363">
        <ele>199</ele>
        <time>2021-07-08T09:08:20Z</time>
      </trkpt>
      <trkpt lat="48.53243" lon="-3.76362">
        <ele>199</ele>
        <time>2021-07-08T09:08:21Z</time>
      </trkpt>
      <trkpt lat="48.53241" lon="-3.76361">
        <ele>199</ele>
        <time>2021-07-08T09:08:22Z</time>
      </trkpt>
      <trkpt lat="48.53238" lon="-3.7636">
        <ele>199</ele>
        <time>2021-07-08T09:08:23Z</time>
      </trkpt>
      <trkpt lat="48.53233" lon="-3.76358">
        <ele>199</ele>
        <time>2021-07-08T09:08:25Z</time>
      </trkpt>
      <trkpt lat="48.5323" lon="-3.76356">
        <ele>199</ele>
        <time>2021-07-08T09:08:26Z</time>
      </trkpt>
      <trkpt lat="48.53221" lon="-3.76351">
        <ele>199</ele>
        <time>2021-07-08T09:08:29Z</time>
      </trkpt>
      <trkpt lat="48.53211" lon="-3.76345">
        <ele>199</ele>
        <time>2021-07-08T09:08:31Z</time>
      </trkpt>
      <trkpt lat="48.53204" lon="-3.7634">
        <ele>199</ele>
        <time>2021-07-08T09:08:34Z</time>
      </trkpt>
      <trkpt lat="48.53197" lon="-3.76335">
        <ele>199</ele>
        <time>2021-07-08T09:08:36Z</time>
      </trkpt>
      <trkpt lat="48.53194" lon="-3.76333">
        <ele>199</ele>
        <time>2021-07-08T09:08:36Z</time>
      </trkpt>
      <trkpt lat="48.53191" lon="-3.76331">
        <ele>199</ele>
        <time>2021-07-08T09:08:38Z</time>
      </trkpt>
      <trkpt lat="48.53189" lon="-3.76329">
        <ele>199</ele>
        <time>2021-07-08T09:08:39Z</time>
      </trkpt>
      <trkpt lat="48.5318" lon="-3.76323">
        <ele>199</ele>
        <time>2021-07-08T09:08:42Z</time>
      </trkpt>
      <trkpt lat="48.53172" lon="-3.76316">
        <ele>200</ele>
        <time>2021-07-08T09:08:45Z</time>
      </trkpt>
      <trkpt lat="48.53163" lon="-3.76308">
        <ele>200</ele>
        <time>2021-07-08T09:08:48Z</time>
      </trkpt>
      <trkpt lat="48.53153" lon="-3.76299">
        <ele>200</ele>
        <time>2021-07-08T09:08:52Z</time>
      </trkpt>
      <trkpt lat="48.5315" lon="-3.76296">
        <ele>200</ele>
        <time>2021-07-08T09:08:53Z</time>
      </trkpt>
      <trkpt lat="48.53144" lon="-3.76291">
        <ele>201</ele>
        <time>2021-07-08T09:08:55Z</time>
      </trkpt>
      <trkpt lat="48.53138" lon="-3.76286">
        <ele>201</ele>
        <time>2021-07-08T09:08:57Z</time>
      </trkpt>
      <trkpt lat="48.53135" lon="-3.76283">
        <ele>201</ele>
        <time>2021-07-08T09:08:58Z</time>
      </trkpt>
      <trkpt lat="48.53132" lon="-3.76281">
        <ele>201</ele>
        <time>2021-07-08T09:08:59Z</time>
      </trkpt>
      <trkpt lat="48.53129" lon="-3.76278">
        <ele>201</ele>
        <time>2021-07-08T09:09:00Z</time>
      </trkpt>
      <trkpt lat="48.53124" lon="-3.76273">
        <ele>201</ele>
        <time>2021-07-08T09:09:01Z</time>
      </trkpt>
      <trkpt lat="48.5312" lon="-3.7627">
        <ele>201</ele>
        <time>2021-07-08T09:09:03Z</time>
      </trkpt>
      <trkpt lat="48.53117" lon="-3.76268">
        <ele>201</ele>
        <time>2021-07-08T09:09:04Z</time>
      </trkpt>
      <trkpt lat="48.53115" lon="-3.76265">
        <ele>201</ele>
        <time>2021-07-08T09:09:05Z</time>
      </trkpt>
      <trkpt lat="48.53111" lon="-3.76263">
        <ele>201</ele>
        <time>2021-07-08T09:09:06Z</time>
      </trkpt>
      <trkpt lat="48.53109" lon="-3.7626">
        <ele>201</ele>
        <time>2021-07-08T09:09:06Z</time>
      </trkpt>
      <trkpt lat="48.53106" lon="-3.76258">
        <ele>201</ele>
        <time>2021-07-08T09:09:08Z</time>
      </trkpt>
      <trkpt lat="48.53104" lon="-3.76256">
        <ele>201</ele>
        <time>2021-07-08T09:09:09Z</time>
      </trkpt>
      <trkpt lat="48.53101" lon="-3.76254">
        <ele>201</ele>
        <time>2021-07-08T09:09:10Z</time>
      </trkpt>
      <trkpt lat="48.53099" lon="-3.76252">
        <ele>201</ele>
        <time>2021-07-08T09:09:11Z</time>
      </trkpt>
      <trkpt lat="48.5309" lon="-3.76247">
        <ele>201</ele>
        <time>2021-07-08T09:09:14Z</time>
      </trkpt>
      <trkpt lat="48.5308" lon="-3.76239">
        <ele>202</ele>
        <time>2021-07-08T09:09:18Z</time>
      </trkpt>
      <trkpt lat="48.53071" lon="-3.76233">
        <ele>202</ele>
        <time>2021-07-08T09:09:21Z</time>
      </trkpt>
      <trkpt lat="48.53067" lon="-3.76231">
        <ele>202</ele>
        <time>2021-07-08T09:09:22Z</time>
      </trkpt>
      <trkpt lat="48.53064" lon="-3.7623">
        <ele>203</ele>
        <time>2021-07-08T09:09:23Z</time>
      </trkpt>
      <trkpt lat="48.53061" lon="-3.76228">
        <ele>203</ele>
        <time>2021-07-08T09:09:24Z</time>
      </trkpt>
      <trkpt lat="48.53059" lon="-3.76227">
        <ele>203</ele>
        <time>2021-07-08T09:09:24Z</time>
      </trkpt>
      <trkpt lat="48.53056" lon="-3.76225">
        <ele>203</ele>
        <time>2021-07-08T09:09:26Z</time>
      </trkpt>
      <trkpt lat="48.53052" lon="-3.76224">
        <ele>203</ele>
        <time>2021-07-08T09:09:27Z</time>
      </trkpt>
      <trkpt lat="48.5305" lon="-3.76223">
        <ele>203</ele>
        <time>2021-07-08T09:09:28Z</time>
      </trkpt>
      <trkpt lat="48.53047" lon="-3.76222">
        <ele>203</ele>
        <time>2021-07-08T09:09:29Z</time>
      </trkpt>
      <trkpt lat="48.53038" lon="-3.7622">
        <ele>204</ele>
        <time>2021-07-08T09:09:32Z</time>
      </trkpt>
      <trkpt lat="48.5303" lon="-3.76217">
        <ele>204</ele>
        <time>2021-07-08T09:09:35Z</time>
      </trkpt>
      <trkpt lat="48.53028" lon="-3.76216">
        <ele>204</ele>
        <time>2021-07-08T09:09:36Z</time>
      </trkpt>
      <trkpt lat="48.53017" lon="-3.76215">
        <ele>204</ele>
        <time>2021-07-08T09:09:39Z</time>
      </trkpt>
      <trkpt lat="48.53005" lon="-3.76216">
        <ele>204</ele>
        <time>2021-07-08T09:09:42Z</time>
      </trkpt>
      <trkpt lat="48.52999" lon="-3.76216">
        <ele>204</ele>
        <time>2021-07-08T09:09:44Z</time>
      </trkpt>
      <trkpt lat="48.52996" lon="-3.76216">
        <ele>204</ele>
        <time>2021-07-08T09:09:45Z</time>
      </trkpt>
      <trkpt lat="48.52992" lon="-3.76217">
        <ele>205</ele>
        <time>2021-07-08T09:09:46Z</time>
      </trkpt>
      <trkpt lat="48.52988" lon="-3.76218">
        <ele>205</ele>
        <time>2021-07-08T09:09:47Z</time>
      </trkpt>
      <trkpt lat="48.52984" lon="-3.76219">
        <ele>205</ele>
        <time>2021-07-08T09:09:48Z</time>
      </trkpt>
      <trkpt lat="48.5298" lon="-3.7622">
        <ele>205</ele>
        <time>2021-07-08T09:09:49Z</time>
      </trkpt>
      <trkpt lat="48.52976" lon="-3.76221">
        <ele>205</ele>
        <time>2021-07-08T09:09:50Z</time>
      </trkpt>
      <trkpt lat="48.52973" lon="-3.76222">
        <ele>205</ele>
        <time>2021-07-08T09:09:51Z</time>
      </trkpt>
      <trkpt lat="48.52969" lon="-3.76224">
        <ele>205</ele>
        <time>2021-07-08T09:09:52Z</time>
      </trkpt>
      <trkpt lat="48.52966" lon="-3.76225">
        <ele>205</ele>
        <time>2021-07-08T09:09:52Z</time>
      </trkpt>
      <trkpt lat="48.52963" lon="-3.76226">
        <ele>205</ele>
        <time>2021-07-08T09:09:54Z</time>
      </trkpt>
      <trkpt lat="48.52959" lon="-3.76227">
        <ele>205</ele>
        <time>2021-07-08T09:09:55Z</time>
      </trkpt>
      <trkpt lat="48.52956" lon="-3.76229">
        <ele>205</ele>
        <time>2021-07-08T09:09:56Z</time>
      </trkpt>
      <trkpt lat="48.52953" lon="-3.7623">
        <ele>205</ele>
        <time>2021-07-08T09:09:57Z</time>
      </trkpt>
      <trkpt lat="48.52949" lon="-3.76232">
        <ele>205</ele>
        <time>2021-07-08T09:09:58Z</time>
      </trkpt>
      <trkpt lat="48.52945" lon="-3.76234">
        <ele>205</ele>
        <time>2021-07-08T09:09:59Z</time>
      </trkpt>
      <trkpt lat="48.52942" lon="-3.76235">
        <ele>205</ele>
        <time>2021-07-08T09:10:00Z</time>
      </trkpt>
      <trkpt lat="48.52939" lon="-3.76237">
        <ele>205</ele>
        <time>2021-07-08T09:10:01Z</time>
      </trkpt>
      <trkpt lat="48.52935" lon="-3.76239">
        <ele>205</ele>
        <time>2021-07-08T09:10:02Z</time>
      </trkpt>
      <trkpt lat="48.52932" lon="-3.76241">
        <ele>205</ele>
        <time>2021-07-08T09:10:03Z</time>
      </trkpt>
      <trkpt lat="48.52929" lon="-3.76243">
        <ele>205</ele>
        <time>2021-07-08T09:10:04Z</time>
      </trkpt>
      <trkpt lat="48.52926" lon="-3.76244">
        <ele>206</ele>
        <time>2021-07-08T09:10:05Z</time>
      </trkpt>
      <trkpt lat="48.52923" lon="-3.76247">
        <ele>206</ele>
        <time>2021-07-08T09:10:05Z</time>
      </trkpt>
      <trkpt lat="48.5292" lon="-3.76249">
        <ele>206</ele>
        <time>2021-07-08T09:10:07Z</time>
      </trkpt>
      <trkpt lat="48.52917" lon="-3.76252">
        <ele>206</ele>
        <time>2021-07-08T09:10:08Z</time>
      </trkpt>
      <trkpt lat="48.52913" lon="-3.76255">
        <ele>206</ele>
        <time>2021-07-08T09:10:09Z</time>
      </trkpt>
      <trkpt lat="48.5291" lon="-3.76257">
        <ele>206</ele>
        <time>2021-07-08T09:10:10Z</time>
      </trkpt>
      <trkpt lat="48.52908" lon="-3.76259">
        <ele>206</ele>
        <time>2021-07-08T09:10:11Z</time>
      </trkpt>
      <trkpt lat="48.52904" lon="-3.76263">
        <ele>207</ele>
        <time>2021-07-08T09:10:12Z</time>
      </trkpt>
      <trkpt lat="48.52902" lon="-3.76266">
        <ele>207</ele>
        <time>2021-07-08T09:10:13Z</time>
      </trkpt>
      <trkpt lat="48.529" lon="-3.76269">
        <ele>207</ele>
        <time>2021-07-08T09:10:14Z</time>
      </trkpt>
      <trkpt lat="48.52897" lon="-3.76272">
        <ele>207</ele>
        <time>2021-07-08T09:10:15Z</time>
      </trkpt>
      <trkpt lat="48.52894" lon="-3.76275">
        <ele>207</ele>
        <time>2021-07-08T09:10:16Z</time>
      </trkpt>
      <trkpt lat="48.52892" lon="-3.76278">
        <ele>207</ele>
        <time>2021-07-08T09:10:17Z</time>
      </trkpt>
      <trkpt lat="48.5289" lon="-3.76281">
        <ele>207</ele>
        <time>2021-07-08T09:10:18Z</time>
      </trkpt>
      <trkpt lat="48.52888" lon="-3.76283">
        <ele>207</ele>
        <time>2021-07-08T09:10:19Z</time>
      </trkpt>
      <trkpt lat="48.52885" lon="-3.76286">
        <ele>207</ele>
        <time>2021-07-08T09:10:20Z</time>
      </trkpt>
      <trkpt lat="48.52883" lon="-3.76288">
        <ele>207</ele>
        <time>2021-07-08T09:10:21Z</time>
      </trkpt>
      <trkpt lat="48.52881" lon="-3.76291">
        <ele>207</ele>
        <time>2021-07-08T09:10:22Z</time>
      </trkpt>
      <trkpt lat="48.52879" lon="-3.76294">
        <ele>207</ele>
        <time>2021-07-08T09:10:23Z</time>
      </trkpt>
      <trkpt lat="48.52873" lon="-3.76307">
        <ele>207</ele>
        <time>2021-07-08T09:10:27Z</time>
      </trkpt>
      <trkpt lat="48.52872" lon="-3.76311">
        <ele>207</ele>
        <time>2021-07-08T09:10:28Z</time>
      </trkpt>
      <trkpt lat="48.52868" lon="-3.76319">
        <ele>208</ele>
        <time>2021-07-08T09:10:30Z</time>
      </trkpt>
      <trkpt lat="48.52866" lon="-3.76324">
        <ele>208</ele>
        <time>2021-07-08T09:10:31Z</time>
      </trkpt>
      <trkpt lat="48.52864" lon="-3.76327">
        <ele>208</ele>
        <time>2021-07-08T09:10:32Z</time>
      </trkpt>
      <trkpt lat="48.52858" lon="-3.76338">
        <ele>208</ele>
        <time>2021-07-08T09:10:35Z</time>
      </trkpt>
      <trkpt lat="48.5285" lon="-3.76346">
        <ele>208</ele>
        <time>2021-07-08T09:10:37Z</time>
      </trkpt>
      <trkpt lat="48.52841" lon="-3.76357">
        <ele>209</ele>
        <time>2021-07-08T09:10:42Z</time>
      </trkpt>
      <trkpt lat="48.52835" lon="-3.76365">
        <ele>209</ele>
        <time>2021-07-08T09:10:43Z</time>
      </trkpt>
      <trkpt lat="48.52832" lon="-3.76369">
        <ele>209</ele>
        <time>2021-07-08T09:10:45Z</time>
      </trkpt>
      <trkpt lat="48.52829" lon="-3.76373">
        <ele>209</ele>
        <time>2021-07-08T09:10:46Z</time>
      </trkpt>
      <trkpt lat="48.52826" lon="-3.76376">
        <ele>209</ele>
        <time>2021-07-08T09:10:47Z</time>
      </trkpt>
      <trkpt lat="48.52819" lon="-3.76385">
        <ele>209</ele>
        <time>2021-07-08T09:10:50Z</time>
      </trkpt>
      <trkpt lat="48.52811" lon="-3.76396">
        <ele>209</ele>
        <time>2021-07-08T09:10:53Z</time>
      </trkpt>
      <trkpt lat="48.52804" lon="-3.76405">
        <ele>210</ele>
        <time>2021-07-08T09:10:56Z</time>
      </trkpt>
      <trkpt lat="48.52802" lon="-3.76408">
        <ele>210</ele>
        <time>2021-07-08T09:10:57Z</time>
      </trkpt>
      <trkpt lat="48.52799" lon="-3.76411">
        <ele>210</ele>
        <time>2021-07-08T09:10:58Z</time>
      </trkpt>
      <trkpt lat="48.52797" lon="-3.76413">
        <ele>210</ele>
        <time>2021-07-08T09:10:59Z</time>
      </trkpt>
      <trkpt lat="48.52794" lon="-3.76415">
        <ele>210</ele>
        <time>2021-07-08T09:11:00Z</time>
      </trkpt>
      <trkpt lat="48.52792" lon="-3.76417">
        <ele>211</ele>
        <time>2021-07-08T09:11:01Z</time>
      </trkpt>
      <trkpt lat="48.52789" lon="-3.7642">
        <ele>211</ele>
        <time>2021-07-08T09:11:01Z</time>
      </trkpt>
      <trkpt lat="48.52787" lon="-3.76422">
        <ele>211</ele>
        <time>2021-07-08T09:11:03Z</time>
      </trkpt>
      <trkpt lat="48.52779" lon="-3.76428">
        <ele>211</ele>
        <time>2021-07-08T09:11:07Z</time>
      </trkpt>
      <trkpt lat="48.52771" lon="-3.76435">
        <ele>211</ele>
        <time>2021-07-08T09:11:11Z</time>
      </trkpt>
      <trkpt lat="48.52759" lon="-3.76441">
        <ele>211</ele>
        <time>2021-07-08T09:11:14Z</time>
      </trkpt>
      <trkpt lat="48.52755" lon="-3.76443">
        <ele>211</ele>
        <time>2021-07-08T09:11:14Z</time>
      </trkpt>
      <trkpt lat="48.52751" lon="-3.76445">
        <ele>211</ele>
        <time>2021-07-08T09:11:16Z</time>
      </trkpt>
      <trkpt lat="48.52747" lon="-3.76447">
        <ele>211</ele>
        <time>2021-07-08T09:11:17Z</time>
      </trkpt>
      <trkpt lat="48.52743" lon="-3.76449">
        <ele>211</ele>
        <time>2021-07-08T09:11:18Z</time>
      </trkpt>
      <trkpt lat="48.52732" lon="-3.76454">
        <ele>212</ele>
        <time>2021-07-08T09:11:20Z</time>
      </trkpt>
      <trkpt lat="48.52722" lon="-3.7646">
        <ele>212</ele>
        <time>2021-07-08T09:11:24Z</time>
      </trkpt>
      <trkpt lat="48.52717" lon="-3.76462">
        <ele>212</ele>
        <time>2021-07-08T09:11:25Z</time>
      </trkpt>
      <trkpt lat="48.52713" lon="-3.76464">
        <ele>212</ele>
        <time>2021-07-08T09:11:26Z</time>
      </trkpt>
      <trkpt lat="48.52708" lon="-3.76466">
        <ele>212</ele>
        <time>2021-07-08T09:11:26Z</time>
      </trkpt>
      <trkpt lat="48.52703" lon="-3.76468">
        <ele>212</ele>
        <time>2021-07-08T09:11:27Z</time>
      </trkpt>
      <trkpt lat="48.52698" lon="-3.7647">
        <ele>212</ele>
        <time>2021-07-08T09:11:29Z</time>
      </trkpt>
      <trkpt lat="48.52695" lon="-3.76472">
        <ele>212</ele>
        <time>2021-07-08T09:11:30Z</time>
      </trkpt>
      <trkpt lat="48.52691" lon="-3.76474">
        <ele>212</ele>
        <time>2021-07-08T09:11:31Z</time>
      </trkpt>
      <trkpt lat="48.52688" lon="-3.76476">
        <ele>212</ele>
        <time>2021-07-08T09:11:32Z</time>
      </trkpt>
      <trkpt lat="48.52681" lon="-3.76479">
        <ele>212</ele>
        <time>2021-07-08T09:11:33Z</time>
      </trkpt>
      <trkpt lat="48.52678" lon="-3.76481">
        <ele>212</ele>
        <time>2021-07-08T09:11:35Z</time>
      </trkpt>
      <trkpt lat="48.52675" lon="-3.76482">
        <ele>212</ele>
        <time>2021-07-08T09:11:36Z</time>
      </trkpt>
      <trkpt lat="48.52672" lon="-3.76484">
        <ele>212</ele>
        <time>2021-07-08T09:11:37Z</time>
      </trkpt>
      <trkpt lat="48.52668" lon="-3.76486">
        <ele>213</ele>
        <time>2021-07-08T09:11:38Z</time>
      </trkpt>
      <trkpt lat="48.52665" lon="-3.76487">
        <ele>213</ele>
        <time>2021-07-08T09:11:39Z</time>
      </trkpt>
      <trkpt lat="48.52662" lon="-3.76489">
        <ele>213</ele>
        <time>2021-07-08T09:11:40Z</time>
      </trkpt>
      <trkpt lat="48.52659" lon="-3.7649">
        <ele>213</ele>
        <time>2021-07-08T09:11:41Z</time>
      </trkpt>
      <trkpt lat="48.52656" lon="-3.76491">
        <ele>213</ele>
        <time>2021-07-08T09:11:42Z</time>
      </trkpt>
      <trkpt lat="48.52652" lon="-3.76493">
        <ele>213</ele>
        <time>2021-07-08T09:11:43Z</time>
      </trkpt>
      <trkpt lat="48.52649" lon="-3.76495">
        <ele>213</ele>
        <time>2021-07-08T09:11:44Z</time>
      </trkpt>
      <trkpt lat="48.52646" lon="-3.76496">
        <ele>213</ele>
        <time>2021-07-08T09:11:45Z</time>
      </trkpt>
      <trkpt lat="48.52643" lon="-3.76498">
        <ele>213</ele>
        <time>2021-07-08T09:11:46Z</time>
      </trkpt>
      <trkpt lat="48.5264" lon="-3.76499">
        <ele>213</ele>
        <time>2021-07-08T09:11:47Z</time>
      </trkpt>
      <trkpt lat="48.52637" lon="-3.765">
        <ele>213</ele>
        <time>2021-07-08T09:11:48Z</time>
      </trkpt>
      <trkpt lat="48.52634" lon="-3.76502">
        <ele>213</ele>
        <time>2021-07-08T09:11:49Z</time>
      </trkpt>
      <trkpt lat="48.52632" lon="-3.76503">
        <ele>213</ele>
        <time>2021-07-08T09:11:50Z</time>
      </trkpt>
      <trkpt lat="48.52629" lon="-3.76504">
        <ele>213</ele>
        <time>2021-07-08T09:11:51Z</time>
      </trkpt>
      <trkpt lat="48.52627" lon="-3.76505">
        <ele>213</ele>
        <time>2021-07-08T09:11:52Z</time>
      </trkpt>
      <trkpt lat="48.52625" lon="-3.76506">
        <ele>214</ele>
        <time>2021-07-08T09:11:53Z</time>
      </trkpt>
      <trkpt lat="48.52621" lon="-3.76507">
        <ele>214</ele>
        <time>2021-07-08T09:11:54Z</time>
      </trkpt>
      <trkpt lat="48.52619" lon="-3.76509">
        <ele>214</ele>
        <time>2021-07-08T09:11:55Z</time>
      </trkpt>
      <trkpt lat="48.52615" lon="-3.76511">
        <ele>214</ele>
        <time>2021-07-08T09:11:56Z</time>
      </trkpt>
      <trkpt lat="48.52613" lon="-3.76513">
        <ele>215</ele>
        <time>2021-07-08T09:11:57Z</time>
      </trkpt>
      <trkpt lat="48.5261" lon="-3.76515">
        <ele>215</ele>
        <time>2021-07-08T09:11:57Z</time>
      </trkpt>
      <trkpt lat="48.52607" lon="-3.76516">
        <ele>215</ele>
        <time>2021-07-08T09:11:59Z</time>
      </trkpt>
      <trkpt lat="48.52605" lon="-3.76518">
        <ele>214</ele>
        <time>2021-07-08T09:12:00Z</time>
      </trkpt>
      <trkpt lat="48.52602" lon="-3.76519">
        <ele>214</ele>
        <time>2021-07-08T09:12:01Z</time>
      </trkpt>
      <trkpt lat="48.526" lon="-3.76521">
        <ele>214</ele>
        <time>2021-07-08T09:12:02Z</time>
      </trkpt>
      <trkpt lat="48.52597" lon="-3.76523">
        <ele>214</ele>
        <time>2021-07-08T09:12:03Z</time>
      </trkpt>
      <trkpt lat="48.52594" lon="-3.76524">
        <ele>215</ele>
        <time>2021-07-08T09:12:04Z</time>
      </trkpt>
      <trkpt lat="48.52591" lon="-3.76526">
        <ele>215</ele>
        <time>2021-07-08T09:12:05Z</time>
      </trkpt>
      <trkpt lat="48.52588" lon="-3.76528">
        <ele>215</ele>
        <time>2021-07-08T09:12:05Z</time>
      </trkpt>
      <trkpt lat="48.52584" lon="-3.76529">
        <ele>215</ele>
        <time>2021-07-08T09:12:07Z</time>
      </trkpt>
      <trkpt lat="48.52581" lon="-3.76531">
        <ele>216</ele>
        <time>2021-07-08T09:12:07Z</time>
      </trkpt>
      <trkpt lat="48.52578" lon="-3.76533">
        <ele>216</ele>
        <time>2021-07-08T09:12:09Z</time>
      </trkpt>
      <trkpt lat="48.52575" lon="-3.76534">
        <ele>216</ele>
        <time>2021-07-08T09:12:10Z</time>
      </trkpt>
      <trkpt lat="48.52572" lon="-3.76536">
        <ele>216</ele>
        <time>2021-07-08T09:12:10Z</time>
      </trkpt>
      <trkpt lat="48.52569" lon="-3.76538">
        <ele>216</ele>
        <time>2021-07-08T09:12:12Z</time>
      </trkpt>
      <trkpt lat="48.52566" lon="-3.76539">
        <ele>216</ele>
        <time>2021-07-08T09:12:13Z</time>
      </trkpt>
      <trkpt lat="48.52564" lon="-3.76541">
        <ele>216</ele>
        <time>2021-07-08T09:12:14Z</time>
      </trkpt>
      <trkpt lat="48.52561" lon="-3.76542">
        <ele>216</ele>
        <time>2021-07-08T09:12:15Z</time>
      </trkpt>
      <trkpt lat="48.52558" lon="-3.76544">
        <ele>216</ele>
        <time>2021-07-08T09:12:16Z</time>
      </trkpt>
      <trkpt lat="48.52555" lon="-3.76545">
        <ele>216</ele>
        <time>2021-07-08T09:12:17Z</time>
      </trkpt>
      <trkpt lat="48.52551" lon="-3.76547">
        <ele>216</ele>
        <time>2021-07-08T09:12:18Z</time>
      </trkpt>
      <trkpt lat="48.52547" lon="-3.76549">
        <ele>217</ele>
        <time>2021-07-08T09:12:19Z</time>
      </trkpt>
      <trkpt lat="48.52544" lon="-3.76551">
        <ele>217</ele>
        <time>2021-07-08T09:12:20Z</time>
      </trkpt>
      <trkpt lat="48.5254" lon="-3.76553">
        <ele>217</ele>
        <time>2021-07-08T09:12:21Z</time>
      </trkpt>
      <trkpt lat="48.52537" lon="-3.76554">
        <ele>217</ele>
        <time>2021-07-08T09:12:22Z</time>
      </trkpt>
      <trkpt lat="48.52534" lon="-3.76555">
        <ele>217</ele>
        <time>2021-07-08T09:12:23Z</time>
      </trkpt>
      <trkpt lat="48.52531" lon="-3.76557">
        <ele>217</ele>
        <time>2021-07-08T09:12:24Z</time>
      </trkpt>
      <trkpt lat="48.52528" lon="-3.76558">
        <ele>217</ele>
        <time>2021-07-08T09:12:24Z</time>
      </trkpt>
      <trkpt lat="48.52525" lon="-3.76559">
        <ele>217</ele>
        <time>2021-07-08T09:12:26Z</time>
      </trkpt>
      <trkpt lat="48.52522" lon="-3.76561">
        <ele>217</ele>
        <time>2021-07-08T09:12:27Z</time>
      </trkpt>
      <trkpt lat="48.52519" lon="-3.76562">
        <ele>217</ele>
        <time>2021-07-08T09:12:28Z</time>
      </trkpt>
      <trkpt lat="48.52516" lon="-3.76563">
        <ele>217</ele>
        <time>2021-07-08T09:12:28Z</time>
      </trkpt>
      <trkpt lat="48.52513" lon="-3.76564">
        <ele>217</ele>
        <time>2021-07-08T09:12:30Z</time>
      </trkpt>
      <trkpt lat="48.52511" lon="-3.76565">
        <ele>218</ele>
        <time>2021-07-08T09:12:31Z</time>
      </trkpt>
      <trkpt lat="48.52472" lon="-3.76584">
        <ele>218</ele>
        <time>2021-07-08T09:12:31Z</time>
      </trkpt>
      <trkpt lat="48.52508" lon="-3.76565">
        <ele>218</ele>
        <time>2021-07-08T09:12:32Z</time>
      </trkpt>
      <trkpt lat="48.52469" lon="-3.76586">
        <ele>218</ele>
        <time>2021-07-08T09:12:32Z</time>
      </trkpt>
      <trkpt lat="48.52505" lon="-3.76565">
        <ele>218</ele>
        <time>2021-07-08T09:12:33Z</time>
      </trkpt>
      <trkpt lat="48.52467" lon="-3.76587">
        <ele>218</ele>
        <time>2021-07-08T09:12:33Z</time>
      </trkpt>
      <trkpt lat="48.52504" lon="-3.76566">
        <ele>218</ele>
        <time>2021-07-08T09:12:34Z</time>
      </trkpt>
      <trkpt lat="48.52464" lon="-3.76588">
        <ele>218</ele>
        <time>2021-07-08T09:12:34Z</time>
      </trkpt>
      <trkpt lat="48.52502" lon="-3.76569">
        <ele>218</ele>
        <time>2021-07-08T09:12:35Z</time>
      </trkpt>
      <trkpt lat="48.52462" lon="-3.76589">
        <ele>218</ele>
        <time>2021-07-08T09:12:35Z</time>
      </trkpt>
      <trkpt lat="48.525" lon="-3.76571">
        <ele>218</ele>
        <time>2021-07-08T09:12:36Z</time>
      </trkpt>
      <trkpt lat="48.52459" lon="-3.7659">
        <ele>218</ele>
        <time>2021-07-08T09:12:36Z</time>
      </trkpt>
      <trkpt lat="48.52498" lon="-3.76573">
        <ele>218</ele>
        <time>2021-07-08T09:12:37Z</time>
      </trkpt>
      <trkpt lat="48.52457" lon="-3.76591">
        <ele>218</ele>
        <time>2021-07-08T09:12:37Z</time>
      </trkpt>
      <trkpt lat="48.52496" lon="-3.76574">
        <ele>218</ele>
        <time>2021-07-08T09:12:38Z</time>
      </trkpt>
      <trkpt lat="48.52454" lon="-3.76592">
        <ele>218</ele>
        <time>2021-07-08T09:12:38Z</time>
      </trkpt>
      <trkpt lat="48.52494" lon="-3.76575">
        <ele>218</ele>
        <time>2021-07-08T09:12:39Z</time>
      </trkpt>
      <trkpt lat="48.52452" lon="-3.76593">
        <ele>218</ele>
        <time>2021-07-08T09:12:39Z</time>
      </trkpt>
      <trkpt lat="48.52491" lon="-3.76577">
        <ele>218</ele>
        <time>2021-07-08T09:12:40Z</time>
      </trkpt>
      <trkpt lat="48.52449" lon="-3.76594">
        <ele>218</ele>
        <time>2021-07-08T09:12:40Z</time>
      </trkpt>
      <trkpt lat="48.52489" lon="-3.76578">
        <ele>218</ele>
        <time>2021-07-08T09:12:41Z</time>
      </trkpt>
      <trkpt lat="48.52446" lon="-3.76595">
        <ele>218</ele>
        <time>2021-07-08T09:12:41Z</time>
      </trkpt>
      <trkpt lat="48.52487" lon="-3.76579">
        <ele>218</ele>
        <time>2021-07-08T09:12:42Z</time>
      </trkpt>
      <trkpt lat="48.52443" lon="-3.76596">
        <ele>218</ele>
        <time>2021-07-08T09:12:42Z</time>
      </trkpt>
      <trkpt lat="48.52485" lon="-3.7658">
        <ele>218</ele>
        <time>2021-07-08T09:12:43Z</time>
      </trkpt>
      <trkpt lat="48.5244" lon="-3.76596">
        <ele>218</ele>
        <time>2021-07-08T09:12:43Z</time>
      </trkpt>
      <trkpt lat="48.52483" lon="-3.76581">
        <ele>218</ele>
        <time>2021-07-08T09:12:43Z</time>
      </trkpt>
      <trkpt lat="48.52438" lon="-3.76597">
        <ele>218</ele>
        <time>2021-07-08T09:12:44Z</time>
      </trkpt>
      <trkpt lat="48.52435" lon="-3.76597">
        <ele>218</ele>
        <time>2021-07-08T09:12:45Z</time>
      </trkpt>
      <trkpt lat="48.52481" lon="-3.76582">
        <ele>218</ele>
        <time>2021-07-08T09:12:46Z</time>
      </trkpt>
      <trkpt lat="48.52433" lon="-3.76597">
        <ele>219</ele>
        <time>2021-07-08T09:12:46Z</time>
      </trkpt>
      <trkpt lat="48.5243" lon="-3.76597">
        <ele>219</ele>
        <time>2021-07-08T09:12:47Z</time>
      </trkpt>
      <trkpt lat="48.52428" lon="-3.76598">
        <ele>219</ele>
        <time>2021-07-08T09:12:48Z</time>
      </trkpt>
      <trkpt lat="48.52425" lon="-3.76598">
        <ele>219</ele>
        <time>2021-07-08T09:12:49Z</time>
      </trkpt>
      <trkpt lat="48.52421" lon="-3.76598">
        <ele>219</ele>
        <time>2021-07-08T09:12:50Z</time>
      </trkpt>
      <trkpt lat="48.52418" lon="-3.76598">
        <ele>219</ele>
        <time>2021-07-08T09:12:51Z</time>
      </trkpt>
      <trkpt lat="48.52414" lon="-3.76597">
        <ele>219</ele>
        <time>2021-07-08T09:12:53Z</time>
      </trkpt>
      <trkpt lat="48.52481" lon="-3.76582">
        <ele>218</ele>
        <time>2021-07-08T09:12:53Z</time>
      </trkpt>
      <trkpt lat="48.52411" lon="-3.76597">
        <ele>219</ele>
        <time>2021-07-08T09:12:53Z</time>
      </trkpt>
      <trkpt lat="48.52408" lon="-3.76596">
        <ele>220</ele>
        <time>2021-07-08T09:12:54Z</time>
      </trkpt>
      <trkpt lat="48.52404" lon="-3.76596">
        <ele>220</ele>
        <time>2021-07-08T09:12:55Z</time>
      </trkpt>
      <trkpt lat="48.52401" lon="-3.76595">
        <ele>220</ele>
        <time>2021-07-08T09:12:56Z</time>
      </trkpt>
      <trkpt lat="48.52397" lon="-3.76594">
        <ele>220</ele>
        <time>2021-07-08T09:12:57Z</time>
      </trkpt>
      <trkpt lat="48.52393" lon="-3.76592">
        <ele>220</ele>
        <time>2021-07-08T09:12:58Z</time>
      </trkpt>
      <trkpt lat="48.52389" lon="-3.76591">
        <ele>220</ele>
        <time>2021-07-08T09:12:59Z</time>
      </trkpt>
      <trkpt lat="48.52385" lon="-3.7659">
        <ele>220</ele>
        <time>2021-07-08T09:13:00Z</time>
      </trkpt>
      <trkpt lat="48.52381" lon="-3.76589">
        <ele>220</ele>
        <time>2021-07-08T09:13:01Z</time>
      </trkpt>
      <trkpt lat="48.52377" lon="-3.76587">
        <ele>220</ele>
        <time>2021-07-08T09:13:02Z</time>
      </trkpt>
      <trkpt lat="48.52373" lon="-3.76585">
        <ele>220</ele>
        <time>2021-07-08T09:13:03Z</time>
      </trkpt>
      <trkpt lat="48.52369" lon="-3.76583">
        <ele>220</ele>
        <time>2021-07-08T09:13:04Z</time>
      </trkpt>
      <trkpt lat="48.52364" lon="-3.76582">
        <ele>220</ele>
        <time>2021-07-08T09:13:05Z</time>
      </trkpt>
      <trkpt lat="48.5236" lon="-3.7658">
        <ele>220</ele>
        <time>2021-07-08T09:13:06Z</time>
      </trkpt>
      <trkpt lat="48.52355" lon="-3.76578">
        <ele>220</ele>
        <time>2021-07-08T09:13:07Z</time>
      </trkpt>
      <trkpt lat="48.5235" lon="-3.76577">
        <ele>220</ele>
        <time>2021-07-08T09:13:08Z</time>
      </trkpt>
      <trkpt lat="48.52345" lon="-3.76575">
        <ele>220</ele>
        <time>2021-07-08T09:13:09Z</time>
      </trkpt>
      <trkpt lat="48.52336" lon="-3.76571">
        <ele>220</ele>
        <time>2021-07-08T09:13:11Z</time>
      </trkpt>
      <trkpt lat="48.52332" lon="-3.76569">
        <ele>220</ele>
        <time>2021-07-08T09:13:12Z</time>
      </trkpt>
      <trkpt lat="48.52328" lon="-3.76566">
        <ele>220</ele>
        <time>2021-07-08T09:13:13Z</time>
      </trkpt>
      <trkpt lat="48.52325" lon="-3.76563">
        <ele>220</ele>
        <time>2021-07-08T09:13:14Z</time>
      </trkpt>
      <trkpt lat="48.52321" lon="-3.76559">
        <ele>220</ele>
        <time>2021-07-08T09:13:15Z</time>
      </trkpt>
      <trkpt lat="48.52317" lon="-3.76556">
        <ele>220</ele>
        <time>2021-07-08T09:13:16Z</time>
      </trkpt>
      <trkpt lat="48.52313" lon="-3.76552">
        <ele>220</ele>
        <time>2021-07-08T09:13:17Z</time>
      </trkpt>
      <trkpt lat="48.52309" lon="-3.76548">
        <ele>220</ele>
        <time>2021-07-08T09:13:18Z</time>
      </trkpt>
      <trkpt lat="48.52305" lon="-3.76545">
        <ele>220</ele>
        <time>2021-07-08T09:13:19Z</time>
      </trkpt>
      <trkpt lat="48.52302" lon="-3.76542">
        <ele>220</ele>
        <time>2021-07-08T09:13:20Z</time>
      </trkpt>
      <trkpt lat="48.52298" lon="-3.76539">
        <ele>220</ele>
        <time>2021-07-08T09:13:21Z</time>
      </trkpt>
      <trkpt lat="48.52294" lon="-3.76536">
        <ele>220</ele>
        <time>2021-07-08T09:13:22Z</time>
      </trkpt>
      <trkpt lat="48.52291" lon="-3.76533">
        <ele>220</ele>
        <time>2021-07-08T09:13:23Z</time>
      </trkpt>
      <trkpt lat="48.52287" lon="-3.76529">
        <ele>220</ele>
        <time>2021-07-08T09:13:24Z</time>
      </trkpt>
      <trkpt lat="48.52284" lon="-3.76526">
        <ele>219</ele>
        <time>2021-07-08T09:13:25Z</time>
      </trkpt>
      <trkpt lat="48.5228" lon="-3.76524">
        <ele>220</ele>
        <time>2021-07-08T09:13:26Z</time>
      </trkpt>
      <trkpt lat="48.52277" lon="-3.76521">
        <ele>220</ele>
        <time>2021-07-08T09:13:27Z</time>
      </trkpt>
      <trkpt lat="48.52273" lon="-3.76519">
        <ele>220</ele>
        <time>2021-07-08T09:13:28Z</time>
      </trkpt>
      <trkpt lat="48.5227" lon="-3.76516">
        <ele>220</ele>
        <time>2021-07-08T09:13:29Z</time>
      </trkpt>
      <trkpt lat="48.52267" lon="-3.76514">
        <ele>220</ele>
        <time>2021-07-08T09:13:30Z</time>
      </trkpt>
      <trkpt lat="48.52264" lon="-3.76512">
        <ele>220</ele>
        <time>2021-07-08T09:13:31Z</time>
      </trkpt>
      <trkpt lat="48.52262" lon="-3.76512">
        <ele>219</ele>
        <time>2021-07-08T09:13:32Z</time>
      </trkpt>
      <trkpt lat="48.5226" lon="-3.76512">
        <ele>219</ele>
        <time>2021-07-08T09:13:33Z</time>
      </trkpt>
      <trkpt lat="48.52258" lon="-3.76513">
        <ele>218</ele>
        <time>2021-07-08T09:13:34Z</time>
      </trkpt>
      <trkpt lat="48.52256" lon="-3.76514">
        <ele>218</ele>
        <time>2021-07-08T09:13:35Z</time>
      </trkpt>
      <trkpt lat="48.52253" lon="-3.76515">
        <ele>218</ele>
        <time>2021-07-08T09:13:37Z</time>
      </trkpt>
      <trkpt lat="48.52251" lon="-3.76514">
        <ele>218</ele>
        <time>2021-07-08T09:13:38Z</time>
      </trkpt>
      <trkpt lat="48.52249" lon="-3.76513">
        <ele>218</ele>
        <time>2021-07-08T09:13:39Z</time>
      </trkpt>
      <trkpt lat="48.52247" lon="-3.76512">
        <ele>218</ele>
        <time>2021-07-08T09:13:40Z</time>
      </trkpt>
      <trkpt lat="48.52245" lon="-3.7651">
        <ele>218</ele>
        <time>2021-07-08T09:13:41Z</time>
      </trkpt>
      <trkpt lat="48.52244" lon="-3.76509">
        <ele>218</ele>
        <time>2021-07-08T09:13:42Z</time>
      </trkpt>
      <trkpt lat="48.52241" lon="-3.76507">
        <ele>219</ele>
        <time>2021-07-08T09:13:44Z</time>
      </trkpt>
      <trkpt lat="48.52238" lon="-3.76507">
        <ele>219</ele>
        <time>2021-07-08T09:13:46Z</time>
      </trkpt>
      <trkpt lat="48.52235" lon="-3.76505">
        <ele>219</ele>
        <time>2021-07-08T09:13:48Z</time>
      </trkpt>
      <trkpt lat="48.52234" lon="-3.76503">
        <ele>219</ele>
        <time>2021-07-08T09:13:49Z</time>
      </trkpt>
      <trkpt lat="48.52233" lon="-3.76501">
        <ele>219</ele>
        <time>2021-07-08T09:13:50Z</time>
      </trkpt>
      <trkpt lat="48.52231" lon="-3.76499">
        <ele>219</ele>
        <time>2021-07-08T09:13:51Z</time>
      </trkpt>
      <trkpt lat="48.52229" lon="-3.76497">
        <ele>219</ele>
        <time>2021-07-08T09:13:52Z</time>
      </trkpt>
      <trkpt lat="48.52227" lon="-3.76496">
        <ele>219</ele>
        <time>2021-07-08T09:13:53Z</time>
      </trkpt>
      <trkpt lat="48.52225" lon="-3.76494">
        <ele>220</ele>
        <time>2021-07-08T09:13:55Z</time>
      </trkpt>
      <trkpt lat="48.52223" lon="-3.76493">
        <ele>220</ele>
        <time>2021-07-08T09:13:55Z</time>
      </trkpt>
      <trkpt lat="48.52221" lon="-3.76491">
        <ele>220</ele>
        <time>2021-07-08T09:13:56Z</time>
      </trkpt>
      <trkpt lat="48.52218" lon="-3.76489">
        <ele>220</ele>
        <time>2021-07-08T09:13:57Z</time>
      </trkpt>
      <trkpt lat="48.52216" lon="-3.76488">
        <ele>220</ele>
        <time>2021-07-08T09:13:58Z</time>
      </trkpt>
      <trkpt lat="48.52214" lon="-3.76486">
        <ele>220</ele>
        <time>2021-07-08T09:13:59Z</time>
      </trkpt>
      <trkpt lat="48.52211" lon="-3.76484">
        <ele>220</ele>
        <time>2021-07-08T09:14:00Z</time>
      </trkpt>
      <trkpt lat="48.52209" lon="-3.76482">
        <ele>220</ele>
        <time>2021-07-08T09:14:01Z</time>
      </trkpt>
      <trkpt lat="48.52206" lon="-3.7648">
        <ele>220</ele>
        <time>2021-07-08T09:14:02Z</time>
      </trkpt>
      <trkpt lat="48.52203" lon="-3.76478">
        <ele>220</ele>
        <time>2021-07-08T09:14:03Z</time>
      </trkpt>
      <trkpt lat="48.52201" lon="-3.76476">
        <ele>220</ele>
        <time>2021-07-08T09:14:04Z</time>
      </trkpt>
      <trkpt lat="48.52198" lon="-3.76474">
        <ele>220</ele>
        <time>2021-07-08T09:14:05Z</time>
      </trkpt>
      <trkpt lat="48.52195" lon="-3.76471">
        <ele>220</ele>
        <time>2021-07-08T09:14:06Z</time>
      </trkpt>
      <trkpt lat="48.52193" lon="-3.76469">
        <ele>220</ele>
        <time>2021-07-08T09:14:07Z</time>
      </trkpt>
      <trkpt lat="48.52191" lon="-3.76467">
        <ele>220</ele>
        <time>2021-07-08T09:14:08Z</time>
      </trkpt>
      <trkpt lat="48.52189" lon="-3.76466">
        <ele>220</ele>
        <time>2021-07-08T09:14:09Z</time>
      </trkpt>
      <trkpt lat="48.52187" lon="-3.76465">
        <ele>220</ele>
        <time>2021-07-08T09:14:10Z</time>
      </trkpt>
      <trkpt lat="48.52185" lon="-3.76464">
        <ele>220</ele>
        <time>2021-07-08T09:14:11Z</time>
      </trkpt>
      <trkpt lat="48.52183" lon="-3.76463">
        <ele>220</ele>
        <time>2021-07-08T09:14:12Z</time>
      </trkpt>
      <trkpt lat="48.52181" lon="-3.76462">
        <ele>220</ele>
        <time>2021-07-08T09:14:13Z</time>
      </trkpt>
      <trkpt lat="48.52178" lon="-3.76461">
        <ele>220</ele>
        <time>2021-07-08T09:14:14Z</time>
      </trkpt>
      <trkpt lat="48.52176" lon="-3.76459">
        <ele>219</ele>
        <time>2021-07-08T09:14:15Z</time>
      </trkpt>
      <trkpt lat="48.52174" lon="-3.76457">
        <ele>219</ele>
        <time>2021-07-08T09:14:16Z</time>
      </trkpt>
      <trkpt lat="48.52172" lon="-3.76455">
        <ele>219</ele>
        <time>2021-07-08T09:14:17Z</time>
      </trkpt>
      <trkpt lat="48.5217" lon="-3.76453">
        <ele>219</ele>
        <time>2021-07-08T09:14:18Z</time>
      </trkpt>
      <trkpt lat="48.52167" lon="-3.7645">
        <ele>219</ele>
        <time>2021-07-08T09:14:19Z</time>
      </trkpt>
      <trkpt lat="48.52164" lon="-3.76448">
        <ele>220</ele>
        <time>2021-07-08T09:14:20Z</time>
      </trkpt>
      <trkpt lat="48.52161" lon="-3.76445">
        <ele>220</ele>
        <time>2021-07-08T09:14:21Z</time>
      </trkpt>
      <trkpt lat="48.52158" lon="-3.76443">
        <ele>220</ele>
        <time>2021-07-08T09:14:22Z</time>
      </trkpt>
      <trkpt lat="48.52155" lon="-3.7644">
        <ele>220</ele>
        <time>2021-07-08T09:14:23Z</time>
      </trkpt>
      <trkpt lat="48.52152" lon="-3.76438">
        <ele>220</ele>
        <time>2021-07-08T09:14:24Z</time>
      </trkpt>
      <trkpt lat="48.52149" lon="-3.76435">
        <ele>220</ele>
        <time>2021-07-08T09:14:25Z</time>
      </trkpt>
      <trkpt lat="48.52147" lon="-3.76433">
        <ele>220</ele>
        <time>2021-07-08T09:14:26Z</time>
      </trkpt>
      <trkpt lat="48.52144" lon="-3.7643">
        <ele>220</ele>
        <time>2021-07-08T09:14:27Z</time>
      </trkpt>
      <trkpt lat="48.52141" lon="-3.76428">
        <ele>220</ele>
        <time>2021-07-08T09:14:28Z</time>
      </trkpt>
      <trkpt lat="48.52138" lon="-3.76425">
        <ele>220</ele>
        <time>2021-07-08T09:14:29Z</time>
      </trkpt>
      <trkpt lat="48.52135" lon="-3.76423">
        <ele>220</ele>
        <time>2021-07-08T09:14:30Z</time>
      </trkpt>
      <trkpt lat="48.52132" lon="-3.7642">
        <ele>220</ele>
        <time>2021-07-08T09:14:31Z</time>
      </trkpt>
      <trkpt lat="48.5213" lon="-3.76417">
        <ele>220</ele>
        <time>2021-07-08T09:14:32Z</time>
      </trkpt>
      <trkpt lat="48.52127" lon="-3.76415">
        <ele>220</ele>
        <time>2021-07-08T09:14:33Z</time>
      </trkpt>
      <trkpt lat="48.52124" lon="-3.76412">
        <ele>220</ele>
        <time>2021-07-08T09:14:34Z</time>
      </trkpt>
      <trkpt lat="48.52121" lon="-3.7641">
        <ele>220</ele>
        <time>2021-07-08T09:14:35Z</time>
      </trkpt>
      <trkpt lat="48.52118" lon="-3.76407">
        <ele>220</ele>
        <time>2021-07-08T09:14:36Z</time>
      </trkpt>
      <trkpt lat="48.52115" lon="-3.76405">
        <ele>220</ele>
        <time>2021-07-08T09:14:37Z</time>
      </trkpt>
      <trkpt lat="48.52112" lon="-3.76402">
        <ele>220</ele>
        <time>2021-07-08T09:14:38Z</time>
      </trkpt>
      <trkpt lat="48.52109" lon="-3.764">
        <ele>220</ele>
        <time>2021-07-08T09:14:39Z</time>
      </trkpt>
      <trkpt lat="48.52106" lon="-3.76397">
        <ele>220</ele>
        <time>2021-07-08T09:14:40Z</time>
      </trkpt>
      <trkpt lat="48.52103" lon="-3.76395">
        <ele>220</ele>
        <time>2021-07-08T09:14:41Z</time>
      </trkpt>
      <trkpt lat="48.521" lon="-3.76393">
        <ele>220</ele>
        <time>2021-07-08T09:14:42Z</time>
      </trkpt>
      <trkpt lat="48.52097" lon="-3.7639">
        <ele>220</ele>
        <time>2021-07-08T09:14:43Z</time>
      </trkpt>
      <trkpt lat="48.52094" lon="-3.76388">
        <ele>220</ele>
        <time>2021-07-08T09:14:44Z</time>
      </trkpt>
      <trkpt lat="48.52091" lon="-3.76386">
        <ele>220</ele>
        <time>2021-07-08T09:14:45Z</time>
      </trkpt>
      <trkpt lat="48.52089" lon="-3.76383">
        <ele>220</ele>
        <time>2021-07-08T09:14:46Z</time>
      </trkpt>
      <trkpt lat="48.52085" lon="-3.76381">
        <ele>220</ele>
        <time>2021-07-08T09:14:47Z</time>
      </trkpt>
      <trkpt lat="48.52082" lon="-3.76378">
        <ele>220</ele>
        <time>2021-07-08T09:14:48Z</time>
      </trkpt>
      <trkpt lat="48.52079" lon="-3.76376">
        <ele>220</ele>
        <time>2021-07-08T09:14:49Z</time>
      </trkpt>
      <trkpt lat="48.52076" lon="-3.76374">
        <ele>220</ele>
        <time>2021-07-08T09:14:50Z</time>
      </trkpt>
      <trkpt lat="48.52073" lon="-3.76372">
        <ele>220</ele>
        <time>2021-07-08T09:14:51Z</time>
      </trkpt>
      <trkpt lat="48.5207" lon="-3.76369">
        <ele>220</ele>
        <time>2021-07-08T09:14:52Z</time>
      </trkpt>
      <trkpt lat="48.52067" lon="-3.76367">
        <ele>220</ele>
        <time>2021-07-08T09:14:53Z</time>
      </trkpt>
      <trkpt lat="48.52064" lon="-3.76365">
        <ele>220</ele>
        <time>2021-07-08T09:14:54Z</time>
      </trkpt>
      <trkpt lat="48.52061" lon="-3.76362">
        <ele>220</ele>
        <time>2021-07-08T09:14:55Z</time>
      </trkpt>
      <trkpt lat="48.52057" lon="-3.7636">
        <ele>220</ele>
        <time>2021-07-08T09:14:56Z</time>
      </trkpt>
      <trkpt lat="48.52054" lon="-3.76358">
        <ele>220</ele>
        <time>2021-07-08T09:14:57Z</time>
      </trkpt>
      <trkpt lat="48.52051" lon="-3.76356">
        <ele>219</ele>
        <time>2021-07-08T09:14:58Z</time>
      </trkpt>
      <trkpt lat="48.52047" lon="-3.76354">
        <ele>219</ele>
        <time>2021-07-08T09:14:59Z</time>
      </trkpt>
      <trkpt lat="48.52044" lon="-3.76351">
        <ele>219</ele>
        <time>2021-07-08T09:15:00Z</time>
      </trkpt>
      <trkpt lat="48.52041" lon="-3.76349">
        <ele>219</ele>
        <time>2021-07-08T09:15:01Z</time>
      </trkpt>
      <trkpt lat="48.52038" lon="-3.76347">
        <ele>219</ele>
        <time>2021-07-08T09:15:02Z</time>
      </trkpt>
      <trkpt lat="48.52034" lon="-3.76344">
        <ele>220</ele>
        <time>2021-07-08T09:15:03Z</time>
      </trkpt>
      <trkpt lat="48.52031" lon="-3.76342">
        <ele>220</ele>
        <time>2021-07-08T09:15:04Z</time>
      </trkpt>
      <trkpt lat="48.52027" lon="-3.7634">
        <ele>220</ele>
        <time>2021-07-08T09:15:05Z</time>
      </trkpt>
      <trkpt lat="48.52024" lon="-3.76337">
        <ele>220</ele>
        <time>2021-07-08T09:15:06Z</time>
      </trkpt>
      <trkpt lat="48.5202" lon="-3.76335">
        <ele>220</ele>
        <time>2021-07-08T09:15:07Z</time>
      </trkpt>
      <trkpt lat="48.52016" lon="-3.76333">
        <ele>220</ele>
        <time>2021-07-08T09:15:08Z</time>
      </trkpt>
      <trkpt lat="48.52012" lon="-3.76331">
        <ele>220</ele>
        <time>2021-07-08T09:15:09Z</time>
      </trkpt>
      <trkpt lat="48.52008" lon="-3.76329">
        <ele>220</ele>
        <time>2021-07-08T09:15:10Z</time>
      </trkpt>
      <trkpt lat="48.52004" lon="-3.76327">
        <ele>220</ele>
        <time>2021-07-08T09:15:11Z</time>
      </trkpt>
      <trkpt lat="48.52" lon="-3.76325">
        <ele>220</ele>
        <time>2021-07-08T09:15:12Z</time>
      </trkpt>
      <trkpt lat="48.51996" lon="-3.76323">
        <ele>220</ele>
        <time>2021-07-08T09:15:13Z</time>
      </trkpt>
      <trkpt lat="48.51992" lon="-3.76322">
        <ele>220</ele>
        <time>2021-07-08T09:15:14Z</time>
      </trkpt>
      <trkpt lat="48.51988" lon="-3.7632">
        <ele>220</ele>
        <time>2021-07-08T09:15:15Z</time>
      </trkpt>
      <trkpt lat="48.51984" lon="-3.76318">
        <ele>220</ele>
        <time>2021-07-08T09:15:16Z</time>
      </trkpt>
      <trkpt lat="48.51978" lon="-3.76316">
        <ele>220</ele>
        <time>2021-07-08T09:15:17Z</time>
      </trkpt>
      <trkpt lat="48.51974" lon="-3.76315">
        <ele>220</ele>
        <time>2021-07-08T09:15:18Z</time>
      </trkpt>
      <trkpt lat="48.51969" lon="-3.76313">
        <ele>220</ele>
        <time>2021-07-08T09:15:19Z</time>
      </trkpt>
      <trkpt lat="48.51965" lon="-3.76312">
        <ele>220</ele>
        <time>2021-07-08T09:15:20Z</time>
      </trkpt>
      <trkpt lat="48.51961" lon="-3.76311">
        <ele>220</ele>
        <time>2021-07-08T09:15:21Z</time>
      </trkpt>
      <trkpt lat="48.51957" lon="-3.76309">
        <ele>220</ele>
        <time>2021-07-08T09:15:22Z</time>
      </trkpt>
      <trkpt lat="48.51953" lon="-3.76308">
        <ele>220</ele>
        <time>2021-07-08T09:15:23Z</time>
      </trkpt>
      <trkpt lat="48.51948" lon="-3.76307">
        <ele>220</ele>
        <time>2021-07-08T09:15:25Z</time>
      </trkpt>
      <trkpt lat="48.51944" lon="-3.76306">
        <ele>220</ele>
        <time>2021-07-08T09:15:25Z</time>
      </trkpt>
      <trkpt lat="48.5194" lon="-3.76305">
        <ele>220</ele>
        <time>2021-07-08T09:15:26Z</time>
      </trkpt>
      <trkpt lat="48.51936" lon="-3.76305">
        <ele>220</ele>
        <time>2021-07-08T09:15:27Z</time>
      </trkpt>
      <trkpt lat="48.51925" lon="-3.76301">
        <ele>220</ele>
        <time>2021-07-08T09:16:36Z</time>
      </trkpt>
      <trkpt lat="48.51915" lon="-3.76298">
        <ele>220</ele>
        <time>2021-07-08T09:16:39Z</time>
      </trkpt>
      <trkpt lat="48.51909" lon="-3.76297">
        <ele>220</ele>
        <time>2021-07-08T09:16:41Z</time>
      </trkpt>
      <trkpt lat="48.51906" lon="-3.76296">
        <ele>221</ele>
        <time>2021-07-08T09:16:41Z</time>
      </trkpt>
      <trkpt lat="48.51896" lon="-3.76294">
        <ele>221</ele>
        <time>2021-07-08T09:16:45Z</time>
      </trkpt>
      <trkpt lat="48.51893" lon="-3.76293">
        <ele>221</ele>
        <time>2021-07-08T09:16:46Z</time>
      </trkpt>
      <trkpt lat="48.5189" lon="-3.76292">
        <ele>221</ele>
        <time>2021-07-08T09:16:47Z</time>
      </trkpt>
      <trkpt lat="48.51886" lon="-3.76292">
        <ele>221</ele>
        <time>2021-07-08T09:16:48Z</time>
      </trkpt>
      <trkpt lat="48.51883" lon="-3.76291">
        <ele>221</ele>
        <time>2021-07-08T09:16:48Z</time>
      </trkpt>
      <trkpt lat="48.51876" lon="-3.7629">
        <ele>220</ele>
        <time>2021-07-08T09:16:51Z</time>
      </trkpt>
      <trkpt lat="48.51873" lon="-3.76289">
        <ele>220</ele>
        <time>2021-07-08T09:16:52Z</time>
      </trkpt>
      <trkpt lat="48.5187" lon="-3.76289">
        <ele>220</ele>
        <time>2021-07-08T09:16:53Z</time>
      </trkpt>
      <trkpt lat="48.51867" lon="-3.76288">
        <ele>220</ele>
        <time>2021-07-08T09:16:54Z</time>
      </trkpt>
      <trkpt lat="48.51864" lon="-3.76288">
        <ele>220</ele>
        <time>2021-07-08T09:16:55Z</time>
      </trkpt>
      <trkpt lat="48.51861" lon="-3.76287">
        <ele>220</ele>
        <time>2021-07-08T09:16:56Z</time>
      </trkpt>
      <trkpt lat="48.51851" lon="-3.76284">
        <ele>221</ele>
        <time>2021-07-08T09:16:59Z</time>
      </trkpt>
      <trkpt lat="48.51841" lon="-3.76281">
        <ele>221</ele>
        <time>2021-07-08T09:17:02Z</time>
      </trkpt>
      <trkpt lat="48.51834" lon="-3.76279">
        <ele>221</ele>
        <time>2021-07-08T09:17:04Z</time>
      </trkpt>
      <trkpt lat="48.51826" lon="-3.76279">
        <ele>221</ele>
        <time>2021-07-08T09:17:05Z</time>
      </trkpt>
      <trkpt lat="48.51816" lon="-3.76279">
        <ele>221</ele>
        <time>2021-07-08T09:17:07Z</time>
      </trkpt>
      <trkpt lat="48.51811" lon="-3.76278">
        <ele>221</ele>
        <time>2021-07-08T09:17:09Z</time>
      </trkpt>
      <trkpt lat="48.51807" lon="-3.76277">
        <ele>221</ele>
        <time>2021-07-08T09:17:10Z</time>
      </trkpt>
      <trkpt lat="48.51802" lon="-3.76276">
        <ele>221</ele>
        <time>2021-07-08T09:17:11Z</time>
      </trkpt>
      <trkpt lat="48.51794" lon="-3.76275">
        <ele>222</ele>
        <time>2021-07-08T09:17:12Z</time>
      </trkpt>
      <trkpt lat="48.5179" lon="-3.76274">
        <ele>222</ele>
        <time>2021-07-08T09:17:14Z</time>
      </trkpt>
      <trkpt lat="48.51786" lon="-3.76273">
        <ele>222</ele>
        <time>2021-07-08T09:17:15Z</time>
      </trkpt>
      <trkpt lat="48.51783" lon="-3.76273">
        <ele>222</ele>
        <time>2021-07-08T09:17:16Z</time>
      </trkpt>
      <trkpt lat="48.51779" lon="-3.76273">
        <ele>222</ele>
        <time>2021-07-08T09:17:17Z</time>
      </trkpt>
      <trkpt lat="48.51775" lon="-3.76274">
        <ele>221</ele>
        <time>2021-07-08T09:17:18Z</time>
      </trkpt>
      <trkpt lat="48.51772" lon="-3.76274">
        <ele>221</ele>
        <time>2021-07-08T09:17:19Z</time>
      </trkpt>
      <trkpt lat="48.51762" lon="-3.76272">
        <ele>222</ele>
        <time>2021-07-08T09:17:23Z</time>
      </trkpt>
      <trkpt lat="48.51759" lon="-3.76271">
        <ele>222</ele>
        <time>2021-07-08T09:17:24Z</time>
      </trkpt>
      <trkpt lat="48.51756" lon="-3.7627">
        <ele>222</ele>
        <time>2021-07-08T09:17:25Z</time>
      </trkpt>
      <trkpt lat="48.51754" lon="-3.7627">
        <ele>222</ele>
        <time>2021-07-08T09:17:26Z</time>
      </trkpt>
      <trkpt lat="48.51751" lon="-3.7627">
        <ele>222</ele>
        <time>2021-07-08T09:17:26Z</time>
      </trkpt>
      <trkpt lat="48.51748" lon="-3.76269">
        <ele>222</ele>
        <time>2021-07-08T09:17:28Z</time>
      </trkpt>
      <trkpt lat="48.51745" lon="-3.76269">
        <ele>223</ele>
        <time>2021-07-08T09:17:29Z</time>
      </trkpt>
      <trkpt lat="48.51742" lon="-3.76268">
        <ele>223</ele>
        <time>2021-07-08T09:17:30Z</time>
      </trkpt>
      <trkpt lat="48.51737" lon="-3.76267">
        <ele>223</ele>
        <time>2021-07-08T09:17:32Z</time>
      </trkpt>
      <trkpt lat="48.51733" lon="-3.76268">
        <ele>223</ele>
        <time>2021-07-08T09:17:33Z</time>
      </trkpt>
      <trkpt lat="48.51729" lon="-3.76268">
        <ele>222</ele>
        <time>2021-07-08T09:17:34Z</time>
      </trkpt>
      <trkpt lat="48.51723" lon="-3.76267">
        <ele>222</ele>
        <time>2021-07-08T09:17:35Z</time>
      </trkpt>
      <trkpt lat="48.51718" lon="-3.76266">
        <ele>223</ele>
        <time>2021-07-08T09:17:36Z</time>
      </trkpt>
      <trkpt lat="48.51714" lon="-3.76266">
        <ele>223</ele>
        <time>2021-07-08T09:17:37Z</time>
      </trkpt>
      <trkpt lat="48.5171" lon="-3.76265">
        <ele>223</ele>
        <time>2021-07-08T09:17:38Z</time>
      </trkpt>
      <trkpt lat="48.51706" lon="-3.76264">
        <ele>223</ele>
        <time>2021-07-08T09:17:39Z</time>
      </trkpt>
      <trkpt lat="48.517" lon="-3.76263">
        <ele>223</ele>
        <time>2021-07-08T09:17:41Z</time>
      </trkpt>
      <trkpt lat="48.51696" lon="-3.76262">
        <ele>223</ele>
        <time>2021-07-08T09:17:42Z</time>
      </trkpt>
      <trkpt lat="48.51693" lon="-3.76261">
        <ele>223</ele>
        <time>2021-07-08T09:17:43Z</time>
      </trkpt>
      <trkpt lat="48.5169" lon="-3.76259">
        <ele>223</ele>
        <time>2021-07-08T09:17:44Z</time>
      </trkpt>
      <trkpt lat="48.51687" lon="-3.76257">
        <ele>223</ele>
        <time>2021-07-08T09:17:45Z</time>
      </trkpt>
      <trkpt lat="48.51684" lon="-3.76255">
        <ele>223</ele>
        <time>2021-07-08T09:17:45Z</time>
      </trkpt>
      <trkpt lat="48.51682" lon="-3.76253">
        <ele>223</ele>
        <time>2021-07-08T09:17:47Z</time>
      </trkpt>
      <trkpt lat="48.51679" lon="-3.76252">
        <ele>223</ele>
        <time>2021-07-08T09:17:48Z</time>
      </trkpt>
      <trkpt lat="48.51676" lon="-3.76251">
        <ele>223</ele>
        <time>2021-07-08T09:17:49Z</time>
      </trkpt>
      <trkpt lat="48.51673" lon="-3.7625">
        <ele>223</ele>
        <time>2021-07-08T09:17:50Z</time>
      </trkpt>
      <trkpt lat="48.5167" lon="-3.76249">
        <ele>223</ele>
        <time>2021-07-08T09:17:51Z</time>
      </trkpt>
      <trkpt lat="48.51668" lon="-3.76248">
        <ele>224</ele>
        <time>2021-07-08T09:17:52Z</time>
      </trkpt>
      <trkpt lat="48.51664" lon="-3.76246">
        <ele>224</ele>
        <time>2021-07-08T09:17:53Z</time>
      </trkpt>
      <trkpt lat="48.5166" lon="-3.76244">
        <ele>224</ele>
        <time>2021-07-08T09:17:54Z</time>
      </trkpt>
      <trkpt lat="48.51657" lon="-3.76243">
        <ele>224</ele>
        <time>2021-07-08T09:17:55Z</time>
      </trkpt>
      <trkpt lat="48.51654" lon="-3.76241">
        <ele>224</ele>
        <time>2021-07-08T09:17:56Z</time>
      </trkpt>
      <trkpt lat="48.51651" lon="-3.76238">
        <ele>224</ele>
        <time>2021-07-08T09:17:57Z</time>
      </trkpt>
      <trkpt lat="48.51648" lon="-3.76236">
        <ele>224</ele>
        <time>2021-07-08T09:17:58Z</time>
      </trkpt>
      <trkpt lat="48.51644" lon="-3.76234">
        <ele>224</ele>
        <time>2021-07-08T09:17:59Z</time>
      </trkpt>
      <trkpt lat="48.51641" lon="-3.76232">
        <ele>224</ele>
        <time>2021-07-08T09:18:00Z</time>
      </trkpt>
      <trkpt lat="48.51638" lon="-3.7623">
        <ele>224</ele>
        <time>2021-07-08T09:18:01Z</time>
      </trkpt>
      <trkpt lat="48.51635" lon="-3.76228">
        <ele>224</ele>
        <time>2021-07-08T09:18:02Z</time>
      </trkpt>
      <trkpt lat="48.51633" lon="-3.76226">
        <ele>224</ele>
        <time>2021-07-08T09:18:03Z</time>
      </trkpt>
      <trkpt lat="48.5163" lon="-3.76224">
        <ele>224</ele>
        <time>2021-07-08T09:18:04Z</time>
      </trkpt>
      <trkpt lat="48.51621" lon="-3.76218">
        <ele>224</ele>
        <time>2021-07-08T09:18:07Z</time>
      </trkpt>
      <trkpt lat="48.51613" lon="-3.76215">
        <ele>224</ele>
        <time>2021-07-08T09:18:09Z</time>
      </trkpt>
      <trkpt lat="48.51609" lon="-3.76214">
        <ele>224</ele>
        <time>2021-07-08T09:18:10Z</time>
      </trkpt>
      <trkpt lat="48.51605" lon="-3.76212">
        <ele>224</ele>
        <time>2021-07-08T09:18:11Z</time>
      </trkpt>
      <trkpt lat="48.51601" lon="-3.76211">
        <ele>224</ele>
        <time>2021-07-08T09:18:11Z</time>
      </trkpt>
      <trkpt lat="48.51596" lon="-3.76209">
        <ele>224</ele>
        <time>2021-07-08T09:18:13Z</time>
      </trkpt>
      <trkpt lat="48.51592" lon="-3.76207">
        <ele>224</ele>
        <time>2021-07-08T09:18:14Z</time>
      </trkpt>
      <trkpt lat="48.51588" lon="-3.76205">
        <ele>224</ele>
        <time>2021-07-08T09:18:15Z</time>
      </trkpt>
      <trkpt lat="48.51583" lon="-3.76203">
        <ele>224</ele>
        <time>2021-07-08T09:18:16Z</time>
      </trkpt>
      <trkpt lat="48.51579" lon="-3.76201">
        <ele>224</ele>
        <time>2021-07-08T09:18:17Z</time>
      </trkpt>
      <trkpt lat="48.51575" lon="-3.762">
        <ele>224</ele>
        <time>2021-07-08T09:18:18Z</time>
      </trkpt>
      <trkpt lat="48.51565" lon="-3.76198">
        <ele>224</ele>
        <time>2021-07-08T09:18:20Z</time>
      </trkpt>
      <trkpt lat="48.5156" lon="-3.76197">
        <ele>224</ele>
        <time>2021-07-08T09:18:21Z</time>
      </trkpt>
      <trkpt lat="48.51557" lon="-3.76194">
        <ele>224</ele>
        <time>2021-07-08T09:18:22Z</time>
      </trkpt>
      <trkpt lat="48.51553" lon="-3.76193">
        <ele>224</ele>
        <time>2021-07-08T09:18:23Z</time>
      </trkpt>
      <trkpt lat="48.51549" lon="-3.76192">
        <ele>225</ele>
        <time>2021-07-08T09:18:23Z</time>
      </trkpt>
      <trkpt lat="48.51545" lon="-3.7619">
        <ele>225</ele>
        <time>2021-07-08T09:18:25Z</time>
      </trkpt>
      <trkpt lat="48.51541" lon="-3.76188">
        <ele>225</ele>
        <time>2021-07-08T09:18:26Z</time>
      </trkpt>
      <trkpt lat="48.51538" lon="-3.76186">
        <ele>225</ele>
        <time>2021-07-08T09:18:27Z</time>
      </trkpt>
      <trkpt lat="48.51534" lon="-3.76184">
        <ele>225</ele>
        <time>2021-07-08T09:18:28Z</time>
      </trkpt>
      <trkpt lat="48.5153" lon="-3.76181">
        <ele>225</ele>
        <time>2021-07-08T09:18:29Z</time>
      </trkpt>
      <trkpt lat="48.51527" lon="-3.76179">
        <ele>226</ele>
        <time>2021-07-08T09:18:30Z</time>
      </trkpt>
      <trkpt lat="48.51523" lon="-3.76178">
        <ele>226</ele>
        <time>2021-07-08T09:18:31Z</time>
      </trkpt>
      <trkpt lat="48.51519" lon="-3.76175">
        <ele>226</ele>
        <time>2021-07-08T09:18:32Z</time>
      </trkpt>
      <trkpt lat="48.51513" lon="-3.7617">
        <ele>226</ele>
        <time>2021-07-08T09:18:33Z</time>
      </trkpt>
      <trkpt lat="48.51509" lon="-3.76167">
        <ele>226</ele>
        <time>2021-07-08T09:18:35Z</time>
      </trkpt>
      <trkpt lat="48.51506" lon="-3.76164">
        <ele>226</ele>
        <time>2021-07-08T09:18:36Z</time>
      </trkpt>
      <trkpt lat="48.51503" lon="-3.76162">
        <ele>226</ele>
        <time>2021-07-08T09:18:37Z</time>
      </trkpt>
      <trkpt lat="48.515" lon="-3.76159">
        <ele>226</ele>
        <time>2021-07-08T09:18:38Z</time>
      </trkpt>
      <trkpt lat="48.51497" lon="-3.76156">
        <ele>226</ele>
        <time>2021-07-08T09:18:39Z</time>
      </trkpt>
      <trkpt lat="48.51494" lon="-3.76152">
        <ele>226</ele>
        <time>2021-07-08T09:18:40Z</time>
      </trkpt>
      <trkpt lat="48.51491" lon="-3.76149">
        <ele>226</ele>
        <time>2021-07-08T09:18:41Z</time>
      </trkpt>
      <trkpt lat="48.51488" lon="-3.76145">
        <ele>226</ele>
        <time>2021-07-08T09:18:42Z</time>
      </trkpt>
      <trkpt lat="48.51485" lon="-3.76142">
        <ele>226</ele>
        <time>2021-07-08T09:18:42Z</time>
      </trkpt>
      <trkpt lat="48.51482" lon="-3.76138">
        <ele>226</ele>
        <time>2021-07-08T09:18:44Z</time>
      </trkpt>
      <trkpt lat="48.51479" lon="-3.76134">
        <ele>226</ele>
        <time>2021-07-08T09:18:45Z</time>
      </trkpt>
      <trkpt lat="48.51476" lon="-3.76131">
        <ele>227</ele>
        <time>2021-07-08T09:18:45Z</time>
      </trkpt>
      <trkpt lat="48.51474" lon="-3.76127">
        <ele>227</ele>
        <time>2021-07-08T09:18:47Z</time>
      </trkpt>
      <trkpt lat="48.51471" lon="-3.76124">
        <ele>227</ele>
        <time>2021-07-08T09:18:48Z</time>
      </trkpt>
      <trkpt lat="48.51468" lon="-3.7612">
        <ele>227</ele>
        <time>2021-07-08T09:18:49Z</time>
      </trkpt>
      <trkpt lat="48.51465" lon="-3.76116">
        <ele>227</ele>
        <time>2021-07-08T09:18:50Z</time>
      </trkpt>
      <trkpt lat="48.51462" lon="-3.76112">
        <ele>227</ele>
        <time>2021-07-08T09:18:51Z</time>
      </trkpt>
      <trkpt lat="48.51459" lon="-3.76109">
        <ele>227</ele>
        <time>2021-07-08T09:18:51Z</time>
      </trkpt>
      <trkpt lat="48.51456" lon="-3.76106">
        <ele>227</ele>
        <time>2021-07-08T09:18:53Z</time>
      </trkpt>
      <trkpt lat="48.51452" lon="-3.76103">
        <ele>227</ele>
        <time>2021-07-08T09:18:54Z</time>
      </trkpt>
      <trkpt lat="48.51448" lon="-3.761">
        <ele>226</ele>
        <time>2021-07-08T09:18:55Z</time>
      </trkpt>
      <trkpt lat="48.51445" lon="-3.76097">
        <ele>226</ele>
        <time>2021-07-08T09:18:56Z</time>
      </trkpt>
      <trkpt lat="48.51442" lon="-3.76095">
        <ele>226</ele>
        <time>2021-07-08T09:18:57Z</time>
      </trkpt>
      <trkpt lat="48.51438" lon="-3.76092">
        <ele>227</ele>
        <time>2021-07-08T09:18:58Z</time>
      </trkpt>
      <trkpt lat="48.51435" lon="-3.76089">
        <ele>227</ele>
        <time>2021-07-08T09:18:59Z</time>
      </trkpt>
      <trkpt lat="48.51431" lon="-3.76086">
        <ele>227</ele>
        <time>2021-07-08T09:19:00Z</time>
      </trkpt>
      <trkpt lat="48.51428" lon="-3.76083">
        <ele>227</ele>
        <time>2021-07-08T09:19:01Z</time>
      </trkpt>
      <trkpt lat="48.51425" lon="-3.7608">
        <ele>227</ele>
        <time>2021-07-08T09:19:01Z</time>
      </trkpt>
      <trkpt lat="48.51422" lon="-3.76077">
        <ele>227</ele>
        <time>2021-07-08T09:19:03Z</time>
      </trkpt>
      <trkpt lat="48.51419" lon="-3.76074">
        <ele>227</ele>
        <time>2021-07-08T09:19:04Z</time>
      </trkpt>
      <trkpt lat="48.51417" lon="-3.76072">
        <ele>227</ele>
        <time>2021-07-08T09:19:05Z</time>
      </trkpt>
      <trkpt lat="48.51415" lon="-3.7607">
        <ele>227</ele>
        <time>2021-07-08T09:19:06Z</time>
      </trkpt>
      <trkpt lat="48.51413" lon="-3.76067">
        <ele>227</ele>
        <time>2021-07-08T09:19:07Z</time>
      </trkpt>
      <trkpt lat="48.51411" lon="-3.76065">
        <ele>228</ele>
        <time>2021-07-08T09:19:08Z</time>
      </trkpt>
      <trkpt lat="48.51409" lon="-3.76062">
        <ele>228</ele>
        <time>2021-07-08T09:19:09Z</time>
      </trkpt>
      <trkpt lat="48.51406" lon="-3.76058">
        <ele>228</ele>
        <time>2021-07-08T09:19:10Z</time>
      </trkpt>
      <trkpt lat="48.51403" lon="-3.76055">
        <ele>228</ele>
        <time>2021-07-08T09:19:11Z</time>
      </trkpt>
      <trkpt lat="48.51401" lon="-3.76052">
        <ele>228</ele>
        <time>2021-07-08T09:19:12Z</time>
      </trkpt>
      <trkpt lat="48.51398" lon="-3.76048">
        <ele>228</ele>
        <time>2021-07-08T09:19:13Z</time>
      </trkpt>
      <trkpt lat="48.51395" lon="-3.76045">
        <ele>228</ele>
        <time>2021-07-08T09:19:14Z</time>
      </trkpt>
      <trkpt lat="48.5139" lon="-3.76039">
        <ele>228</ele>
        <time>2021-07-08T09:19:15Z</time>
      </trkpt>
      <trkpt lat="48.51387" lon="-3.76036">
        <ele>228</ele>
        <time>2021-07-08T09:19:17Z</time>
      </trkpt>
      <trkpt lat="48.51385" lon="-3.76033">
        <ele>228</ele>
        <time>2021-07-08T09:19:18Z</time>
      </trkpt>
      <trkpt lat="48.51382" lon="-3.76029">
        <ele>228</ele>
        <time>2021-07-08T09:19:19Z</time>
      </trkpt>
      <trkpt lat="48.51379" lon="-3.76026">
        <ele>228</ele>
        <time>2021-07-08T09:19:20Z</time>
      </trkpt>
      <trkpt lat="48.51376" lon="-3.76022">
        <ele>228</ele>
        <time>2021-07-08T09:19:20Z</time>
      </trkpt>
      <trkpt lat="48.51373" lon="-3.76019">
        <ele>228</ele>
        <time>2021-07-08T09:19:22Z</time>
      </trkpt>
      <trkpt lat="48.5137" lon="-3.76016">
        <ele>229</ele>
        <time>2021-07-08T09:19:23Z</time>
      </trkpt>
      <trkpt lat="48.51367" lon="-3.76013">
        <ele>229</ele>
        <time>2021-07-08T09:19:24Z</time>
      </trkpt>
      <trkpt lat="48.51364" lon="-3.7601">
        <ele>229</ele>
        <time>2021-07-08T09:19:25Z</time>
      </trkpt>
      <trkpt lat="48.51361" lon="-3.76008">
        <ele>229</ele>
        <time>2021-07-08T09:19:26Z</time>
      </trkpt>
      <trkpt lat="48.51358" lon="-3.76006">
        <ele>229</ele>
        <time>2021-07-08T09:19:27Z</time>
      </trkpt>
      <trkpt lat="48.51355" lon="-3.76004">
        <ele>229</ele>
        <time>2021-07-08T09:19:28Z</time>
      </trkpt>
      <trkpt lat="48.51352" lon="-3.76002">
        <ele>229</ele>
        <time>2021-07-08T09:19:29Z</time>
      </trkpt>
      <trkpt lat="48.5135" lon="-3.75999">
        <ele>229</ele>
        <time>2021-07-08T09:19:30Z</time>
      </trkpt>
      <trkpt lat="48.51347" lon="-3.75996">
        <ele>229</ele>
        <time>2021-07-08T09:19:31Z</time>
      </trkpt>
      <trkpt lat="48.51345" lon="-3.75994">
        <ele>229</ele>
        <time>2021-07-08T09:19:32Z</time>
      </trkpt>
      <trkpt lat="48.51342" lon="-3.7599">
        <ele>229</ele>
        <time>2021-07-08T09:19:33Z</time>
      </trkpt>
      <trkpt lat="48.51339" lon="-3.75987">
        <ele>229</ele>
        <time>2021-07-08T09:19:34Z</time>
      </trkpt>
      <trkpt lat="48.51336" lon="-3.75983">
        <ele>229</ele>
        <time>2021-07-08T09:19:35Z</time>
      </trkpt>
      <trkpt lat="48.51332" lon="-3.75979">
        <ele>230</ele>
        <time>2021-07-08T09:19:36Z</time>
      </trkpt>
      <trkpt lat="48.51329" lon="-3.75974">
        <ele>230</ele>
        <time>2021-07-08T09:19:37Z</time>
      </trkpt>
      <trkpt lat="48.51325" lon="-3.7597">
        <ele>230</ele>
        <time>2021-07-08T09:19:38Z</time>
      </trkpt>
      <trkpt lat="48.51323" lon="-3.75966">
        <ele>230</ele>
        <time>2021-07-08T09:19:39Z</time>
      </trkpt>
      <trkpt lat="48.51317" lon="-3.75959">
        <ele>230</ele>
        <time>2021-07-08T09:19:41Z</time>
      </trkpt>
      <trkpt lat="48.51314" lon="-3.75955">
        <ele>230</ele>
        <time>2021-07-08T09:19:42Z</time>
      </trkpt>
      <trkpt lat="48.51312" lon="-3.75952">
        <ele>230</ele>
        <time>2021-07-08T09:19:43Z</time>
      </trkpt>
      <trkpt lat="48.51309" lon="-3.75949">
        <ele>230</ele>
        <time>2021-07-08T09:19:44Z</time>
      </trkpt>
      <trkpt lat="48.51307" lon="-3.75946">
        <ele>230</ele>
        <time>2021-07-08T09:19:45Z</time>
      </trkpt>
      <trkpt lat="48.51305" lon="-3.75944">
        <ele>230</ele>
        <time>2021-07-08T09:19:46Z</time>
      </trkpt>
      <trkpt lat="48.51303" lon="-3.75941">
        <ele>230</ele>
        <time>2021-07-08T09:19:47Z</time>
      </trkpt>
      <trkpt lat="48.51301" lon="-3.75939">
        <ele>230</ele>
        <time>2021-07-08T09:19:48Z</time>
      </trkpt>
      <trkpt lat="48.51298" lon="-3.75936">
        <ele>230</ele>
        <time>2021-07-08T09:19:49Z</time>
      </trkpt>
      <trkpt lat="48.51296" lon="-3.75932">
        <ele>230</ele>
        <time>2021-07-08T09:19:50Z</time>
      </trkpt>
      <trkpt lat="48.51293" lon="-3.75929">
        <ele>230</ele>
        <time>2021-07-08T09:19:51Z</time>
      </trkpt>
      <trkpt lat="48.5129" lon="-3.75926">
        <ele>230</ele>
        <time>2021-07-08T09:19:51Z</time>
      </trkpt>
      <trkpt lat="48.51287" lon="-3.75923">
        <ele>230</ele>
        <time>2021-07-08T09:19:53Z</time>
      </trkpt>
      <trkpt lat="48.51284" lon="-3.7592">
        <ele>230</ele>
        <time>2021-07-08T09:19:54Z</time>
      </trkpt>
      <trkpt lat="48.51282" lon="-3.75917">
        <ele>230</ele>
        <time>2021-07-08T09:19:55Z</time>
      </trkpt>
      <trkpt lat="48.5128" lon="-3.75914">
        <ele>230</ele>
        <time>2021-07-08T09:19:56Z</time>
      </trkpt>
      <trkpt lat="48.51278" lon="-3.75912">
        <ele>230</ele>
        <time>2021-07-08T09:19:57Z</time>
      </trkpt>
      <trkpt lat="48.51276" lon="-3.75909">
        <ele>230</ele>
        <time>2021-07-08T09:19:58Z</time>
      </trkpt>
      <trkpt lat="48.51274" lon="-3.75906">
        <ele>230</ele>
        <time>2021-07-08T09:19:59Z</time>
      </trkpt>
      <trkpt lat="48.51271" lon="-3.75902">
        <ele>231</ele>
        <time>2021-07-08T09:19:59Z</time>
      </trkpt>
      <trkpt lat="48.51263" lon="-3.75894">
        <ele>231</ele>
        <time>2021-07-08T09:20:03Z</time>
      </trkpt>
      <trkpt lat="48.51254" lon="-3.75882">
        <ele>231</ele>
        <time>2021-07-08T09:20:07Z</time>
      </trkpt>
      <trkpt lat="48.51246" lon="-3.75872">
        <ele>232</ele>
        <time>2021-07-08T09:20:10Z</time>
      </trkpt>
      <trkpt lat="48.51237" lon="-3.75861">
        <ele>232</ele>
        <time>2021-07-08T09:20:13Z</time>
      </trkpt>
      <trkpt lat="48.51233" lon="-3.75858">
        <ele>232</ele>
        <time>2021-07-08T09:20:14Z</time>
      </trkpt>
      <trkpt lat="48.51226" lon="-3.75849">
        <ele>232</ele>
        <time>2021-07-08T09:20:16Z</time>
      </trkpt>
      <trkpt lat="48.51217" lon="-3.75838">
        <ele>232</ele>
        <time>2021-07-08T09:20:20Z</time>
      </trkpt>
      <trkpt lat="48.51215" lon="-3.75834">
        <ele>232</ele>
        <time>2021-07-08T09:20:21Z</time>
      </trkpt>
      <trkpt lat="48.51207" lon="-3.75825">
        <ele>233</ele>
        <time>2021-07-08T09:20:24Z</time>
      </trkpt>
      <trkpt lat="48.51197" lon="-3.75813">
        <ele>233</ele>
        <time>2021-07-08T09:20:28Z</time>
      </trkpt>
      <trkpt lat="48.51188" lon="-3.75803">
        <ele>232</ele>
        <time>2021-07-08T09:20:31Z</time>
      </trkpt>
      <trkpt lat="48.51178" lon="-3.75794">
        <ele>232</ele>
        <time>2021-07-08T09:20:34Z</time>
      </trkpt>
      <trkpt lat="48.51169" lon="-3.75785">
        <ele>233</ele>
        <time>2021-07-08T09:20:37Z</time>
      </trkpt>
      <trkpt lat="48.51159" lon="-3.75775">
        <ele>233</ele>
        <time>2021-07-08T09:20:40Z</time>
      </trkpt>
      <trkpt lat="48.5115" lon="-3.75762">
        <ele>233</ele>
        <time>2021-07-08T09:20:43Z</time>
      </trkpt>
      <trkpt lat="48.51148" lon="-3.75758">
        <ele>233</ele>
        <time>2021-07-08T09:20:44Z</time>
      </trkpt>
      <trkpt lat="48.5114" lon="-3.75749">
        <ele>234</ele>
        <time>2021-07-08T09:20:47Z</time>
      </trkpt>
      <trkpt lat="48.51132" lon="-3.75741">
        <ele>234</ele>
        <time>2021-07-08T09:20:50Z</time>
      </trkpt>
      <trkpt lat="48.51124" lon="-3.75732">
        <ele>235</ele>
        <time>2021-07-08T09:20:53Z</time>
      </trkpt>
      <trkpt lat="48.51113" lon="-3.75723">
        <ele>235</ele>
        <time>2021-07-08T09:20:56Z</time>
      </trkpt>
      <trkpt lat="48.51101" lon="-3.75714">
        <ele>235</ele>
        <time>2021-07-08T09:20:59Z</time>
      </trkpt>
      <trkpt lat="48.51091" lon="-3.75705">
        <ele>236</ele>
        <time>2021-07-08T09:21:02Z</time>
      </trkpt>
      <trkpt lat="48.51082" lon="-3.75697">
        <ele>236</ele>
        <time>2021-07-08T09:21:05Z</time>
      </trkpt>
      <trkpt lat="48.51074" lon="-3.75692">
        <ele>236</ele>
        <time>2021-07-08T09:21:06Z</time>
      </trkpt>
      <trkpt lat="48.51063" lon="-3.75683">
        <ele>236</ele>
        <time>2021-07-08T09:21:10Z</time>
      </trkpt>
      <trkpt lat="48.51052" lon="-3.75675">
        <ele>236</ele>
        <time>2021-07-08T09:21:12Z</time>
      </trkpt>
      <trkpt lat="48.51043" lon="-3.75665">
        <ele>236</ele>
        <time>2021-07-08T09:21:15Z</time>
      </trkpt>
      <trkpt lat="48.51035" lon="-3.75657">
        <ele>236</ele>
        <time>2021-07-08T09:21:19Z</time>
      </trkpt>
      <trkpt lat="48.51028" lon="-3.75646">
        <ele>236</ele>
        <time>2021-07-08T09:21:23Z</time>
      </trkpt>
      <trkpt lat="48.51019" lon="-3.75638">
        <ele>238</ele>
        <time>2021-07-08T09:21:27Z</time>
      </trkpt>
      <trkpt lat="48.51008" lon="-3.75631">
        <ele>238</ele>
        <time>2021-07-08T09:21:31Z</time>
      </trkpt>
      <trkpt lat="48.50996" lon="-3.75623">
        <ele>238</ele>
        <time>2021-07-08T09:21:34Z</time>
      </trkpt>
      <trkpt lat="48.50988" lon="-3.75617">
        <ele>238</ele>
        <time>2021-07-08T09:21:37Z</time>
      </trkpt>
      <trkpt lat="48.50978" lon="-3.75612">
        <ele>238</ele>
        <time>2021-07-08T09:21:41Z</time>
      </trkpt>
      <trkpt lat="48.5097" lon="-3.75607">
        <ele>238</ele>
        <time>2021-07-08T09:21:43Z</time>
      </trkpt>
      <trkpt lat="48.50959" lon="-3.75602">
        <ele>239</ele>
        <time>2021-07-08T09:21:47Z</time>
      </trkpt>
      <trkpt lat="48.50949" lon="-3.75598">
        <ele>239</ele>
        <time>2021-07-08T09:21:50Z</time>
      </trkpt>
      <trkpt lat="48.50936" lon="-3.75596">
        <ele>239</ele>
        <time>2021-07-08T09:21:53Z</time>
      </trkpt>
      <trkpt lat="48.50923" lon="-3.75593">
        <ele>239</ele>
        <time>2021-07-08T09:21:56Z</time>
      </trkpt>
      <trkpt lat="48.50912" lon="-3.75591">
        <ele>239</ele>
        <time>2021-07-08T09:21:58Z</time>
      </trkpt>
      <trkpt lat="48.50902" lon="-3.75589">
        <ele>239</ele>
        <time>2021-07-08T09:22:00Z</time>
      </trkpt>
      <trkpt lat="48.5089" lon="-3.75584">
        <ele>240</ele>
        <time>2021-07-08T09:22:02Z</time>
      </trkpt>
      <trkpt lat="48.50882" lon="-3.75577">
        <ele>241</ele>
        <time>2021-07-08T09:22:06Z</time>
      </trkpt>
      <trkpt lat="48.50871" lon="-3.7557">
        <ele>241</ele>
        <time>2021-07-08T09:22:10Z</time>
      </trkpt>
      <trkpt lat="48.50864" lon="-3.75566">
        <ele>241</ele>
        <time>2021-07-08T09:22:12Z</time>
      </trkpt>
      <trkpt lat="48.50861" lon="-3.75564">
        <ele>241</ele>
        <time>2021-07-08T09:22:12Z</time>
      </trkpt>
      <trkpt lat="48.50858" lon="-3.75562">
        <ele>241</ele>
        <time>2021-07-08T09:22:14Z</time>
      </trkpt>
      <trkpt lat="48.50854" lon="-3.75561">
        <ele>241</ele>
        <time>2021-07-08T09:22:15Z</time>
      </trkpt>
      <trkpt lat="48.5085" lon="-3.7556">
        <ele>241</ele>
        <time>2021-07-08T09:22:16Z</time>
      </trkpt>
      <trkpt lat="48.50846" lon="-3.75558">
        <ele>241</ele>
        <time>2021-07-08T09:22:17Z</time>
      </trkpt>
      <trkpt lat="48.50843" lon="-3.75556">
        <ele>241</ele>
        <time>2021-07-08T09:22:18Z</time>
      </trkpt>
      <trkpt lat="48.5084" lon="-3.75554">
        <ele>241</ele>
        <time>2021-07-08T09:22:19Z</time>
      </trkpt>
      <trkpt lat="48.50836" lon="-3.75552">
        <ele>241</ele>
        <time>2021-07-08T09:22:20Z</time>
      </trkpt>
      <trkpt lat="48.50832" lon="-3.75551">
        <ele>241</ele>
        <time>2021-07-08T09:22:21Z</time>
      </trkpt>
      <trkpt lat="48.5083" lon="-3.75549">
        <ele>241</ele>
        <time>2021-07-08T09:22:22Z</time>
      </trkpt>
      <trkpt lat="48.50826" lon="-3.75547">
        <ele>241</ele>
        <time>2021-07-08T09:22:23Z</time>
      </trkpt>
      <trkpt lat="48.50824" lon="-3.75545">
        <ele>241</ele>
        <time>2021-07-08T09:22:24Z</time>
      </trkpt>
      <trkpt lat="48.50821" lon="-3.75542">
        <ele>242</ele>
        <time>2021-07-08T09:22:25Z</time>
      </trkpt>
      <trkpt lat="48.50818" lon="-3.7554">
        <ele>242</ele>
        <time>2021-07-08T09:22:26Z</time>
      </trkpt>
      <trkpt lat="48.50814" lon="-3.75539">
        <ele>243</ele>
        <time>2021-07-08T09:22:27Z</time>
      </trkpt>
      <trkpt lat="48.50811" lon="-3.75538">
        <ele>243</ele>
        <time>2021-07-08T09:22:28Z</time>
      </trkpt>
      <trkpt lat="48.50808" lon="-3.75537">
        <ele>243</ele>
        <time>2021-07-08T09:22:29Z</time>
      </trkpt>
      <trkpt lat="48.50804" lon="-3.75535">
        <ele>243</ele>
        <time>2021-07-08T09:22:30Z</time>
      </trkpt>
      <trkpt lat="48.50801" lon="-3.75533">
        <ele>242</ele>
        <time>2021-07-08T09:22:31Z</time>
      </trkpt>
      <trkpt lat="48.50797" lon="-3.75532">
        <ele>242</ele>
        <time>2021-07-08T09:22:31Z</time>
      </trkpt>
      <trkpt lat="48.50793" lon="-3.75531">
        <ele>242</ele>
        <time>2021-07-08T09:22:33Z</time>
      </trkpt>
      <trkpt lat="48.50791" lon="-3.75529">
        <ele>243</ele>
        <time>2021-07-08T09:22:34Z</time>
      </trkpt>
      <trkpt lat="48.50788" lon="-3.75528">
        <ele>243</ele>
        <time>2021-07-08T09:22:35Z</time>
      </trkpt>
      <trkpt lat="48.50785" lon="-3.75526">
        <ele>243</ele>
        <time>2021-07-08T09:22:36Z</time>
      </trkpt>
      <trkpt lat="48.50782" lon="-3.75525">
        <ele>243</ele>
        <time>2021-07-08T09:22:37Z</time>
      </trkpt>
      <trkpt lat="48.50779" lon="-3.75524">
        <ele>243</ele>
        <time>2021-07-08T09:22:38Z</time>
      </trkpt>
      <trkpt lat="48.50776" lon="-3.75523">
        <ele>243</ele>
        <time>2021-07-08T09:22:39Z</time>
      </trkpt>
      <trkpt lat="48.50773" lon="-3.75521">
        <ele>243</ele>
        <time>2021-07-08T09:22:40Z</time>
      </trkpt>
      <trkpt lat="48.5077" lon="-3.7552">
        <ele>243</ele>
        <time>2021-07-08T09:22:41Z</time>
      </trkpt>
      <trkpt lat="48.50766" lon="-3.75518">
        <ele>243</ele>
        <time>2021-07-08T09:22:42Z</time>
      </trkpt>
      <trkpt lat="48.50763" lon="-3.75517">
        <ele>243</ele>
        <time>2021-07-08T09:22:43Z</time>
      </trkpt>
      <trkpt lat="48.50759" lon="-3.75516">
        <ele>243</ele>
        <time>2021-07-08T09:22:44Z</time>
      </trkpt>
      <trkpt lat="48.50756" lon="-3.75514">
        <ele>244</ele>
        <time>2021-07-08T09:22:45Z</time>
      </trkpt>
      <trkpt lat="48.50753" lon="-3.75513">
        <ele>244</ele>
        <time>2021-07-08T09:22:46Z</time>
      </trkpt>
      <trkpt lat="48.50742" lon="-3.75509">
        <ele>244</ele>
        <time>2021-07-08T09:22:49Z</time>
      </trkpt>
      <trkpt lat="48.50732" lon="-3.75504">
        <ele>244</ele>
        <time>2021-07-08T09:22:52Z</time>
      </trkpt>
      <trkpt lat="48.50729" lon="-3.75502">
        <ele>244</ele>
        <time>2021-07-08T09:22:53Z</time>
      </trkpt>
      <trkpt lat="48.50725" lon="-3.75501">
        <ele>244</ele>
        <time>2021-07-08T09:22:54Z</time>
      </trkpt>
      <trkpt lat="48.50722" lon="-3.755">
        <ele>245</ele>
        <time>2021-07-08T09:22:55Z</time>
      </trkpt>
      <trkpt lat="48.5072" lon="-3.75498">
        <ele>245</ele>
        <time>2021-07-08T09:22:56Z</time>
      </trkpt>
      <trkpt lat="48.50717" lon="-3.75497">
        <ele>245</ele>
        <time>2021-07-08T09:22:57Z</time>
      </trkpt>
      <trkpt lat="48.50714" lon="-3.75495">
        <ele>245</ele>
        <time>2021-07-08T09:22:58Z</time>
      </trkpt>
      <trkpt lat="48.50711" lon="-3.75494">
        <ele>245</ele>
        <time>2021-07-08T09:22:59Z</time>
      </trkpt>
      <trkpt lat="48.50708" lon="-3.75493">
        <ele>245</ele>
        <time>2021-07-08T09:23:00Z</time>
      </trkpt>
      <trkpt lat="48.50705" lon="-3.75491">
        <ele>245</ele>
        <time>2021-07-08T09:23:01Z</time>
      </trkpt>
      <trkpt lat="48.50703" lon="-3.7549">
        <ele>245</ele>
        <time>2021-07-08T09:23:02Z</time>
      </trkpt>
      <trkpt lat="48.50699" lon="-3.75488">
        <ele>245</ele>
        <time>2021-07-08T09:23:03Z</time>
      </trkpt>
      <trkpt lat="48.50697" lon="-3.75487">
        <ele>246</ele>
        <time>2021-07-08T09:23:04Z</time>
      </trkpt>
      <trkpt lat="48.50693" lon="-3.75486">
        <ele>246</ele>
        <time>2021-07-08T09:23:05Z</time>
      </trkpt>
      <trkpt lat="48.5069" lon="-3.75485">
        <ele>246</ele>
        <time>2021-07-08T09:23:06Z</time>
      </trkpt>
      <trkpt lat="48.50687" lon="-3.75484">
        <ele>246</ele>
        <time>2021-07-08T09:23:07Z</time>
      </trkpt>
      <trkpt lat="48.50684" lon="-3.75483">
        <ele>246</ele>
        <time>2021-07-08T09:23:08Z</time>
      </trkpt>
      <trkpt lat="48.50682" lon="-3.75482">
        <ele>246</ele>
        <time>2021-07-08T09:23:09Z</time>
      </trkpt>
      <trkpt lat="48.50679" lon="-3.75481">
        <ele>246</ele>
        <time>2021-07-08T09:23:09Z</time>
      </trkpt>
      <trkpt lat="48.50677" lon="-3.7548">
        <ele>246</ele>
        <time>2021-07-08T09:23:11Z</time>
      </trkpt>
      <trkpt lat="48.50674" lon="-3.75479">
        <ele>247</ele>
        <time>2021-07-08T09:23:12Z</time>
      </trkpt>
      <trkpt lat="48.50671" lon="-3.75479">
        <ele>247</ele>
        <time>2021-07-08T09:23:13Z</time>
      </trkpt>
      <trkpt lat="48.50667" lon="-3.7548">
        <ele>247</ele>
        <time>2021-07-08T09:23:14Z</time>
      </trkpt>
      <trkpt lat="48.50664" lon="-3.7548">
        <ele>247</ele>
        <time>2021-07-08T09:23:15Z</time>
      </trkpt>
      <trkpt lat="48.50658" lon="-3.75479">
        <ele>247</ele>
        <time>2021-07-08T09:23:16Z</time>
      </trkpt>
      <trkpt lat="48.50655" lon="-3.75478">
        <ele>247</ele>
        <time>2021-07-08T09:23:18Z</time>
      </trkpt>
      <trkpt lat="48.50651" lon="-3.75477">
        <ele>247</ele>
        <time>2021-07-08T09:23:19Z</time>
      </trkpt>
      <trkpt lat="48.50648" lon="-3.75477">
        <ele>247</ele>
        <time>2021-07-08T09:23:20Z</time>
      </trkpt>
      <trkpt lat="48.50645" lon="-3.75477">
        <ele>247</ele>
        <time>2021-07-08T09:23:21Z</time>
      </trkpt>
      <trkpt lat="48.50642" lon="-3.75477">
        <ele>247</ele>
        <time>2021-07-08T09:23:22Z</time>
      </trkpt>
      <trkpt lat="48.50638" lon="-3.75477">
        <ele>247</ele>
        <time>2021-07-08T09:23:23Z</time>
      </trkpt>
      <trkpt lat="48.50635" lon="-3.75477">
        <ele>247</ele>
        <time>2021-07-08T09:23:24Z</time>
      </trkpt>
      <trkpt lat="48.50632" lon="-3.75477">
        <ele>247</ele>
        <time>2021-07-08T09:23:25Z</time>
      </trkpt>
      <trkpt lat="48.50629" lon="-3.75477">
        <ele>248</ele>
        <time>2021-07-08T09:23:26Z</time>
      </trkpt>
      <trkpt lat="48.50627" lon="-3.75477">
        <ele>248</ele>
        <time>2021-07-08T09:23:27Z</time>
      </trkpt>
      <trkpt lat="48.50624" lon="-3.75478">
        <ele>248</ele>
        <time>2021-07-08T09:23:28Z</time>
      </trkpt>
      <trkpt lat="48.50622" lon="-3.75478">
        <ele>248</ele>
        <time>2021-07-08T09:23:30Z</time>
      </trkpt>
      <trkpt lat="48.50619" lon="-3.75478">
        <ele>248</ele>
        <time>2021-07-08T09:23:30Z</time>
      </trkpt>
      <trkpt lat="48.50616" lon="-3.75478">
        <ele>248</ele>
        <time>2021-07-08T09:23:31Z</time>
      </trkpt>
      <trkpt lat="48.50612" lon="-3.75477">
        <ele>248</ele>
        <time>2021-07-08T09:23:32Z</time>
      </trkpt>
      <trkpt lat="48.50609" lon="-3.75477">
        <ele>248</ele>
        <time>2021-07-08T09:23:33Z</time>
      </trkpt>
      <trkpt lat="48.50604" lon="-3.75478">
        <ele>247</ele>
        <time>2021-07-08T09:23:34Z</time>
      </trkpt>
      <trkpt lat="48.506" lon="-3.75478">
        <ele>247</ele>
        <time>2021-07-08T09:23:35Z</time>
      </trkpt>
      <trkpt lat="48.50596" lon="-3.75479">
        <ele>247</ele>
        <time>2021-07-08T09:23:36Z</time>
      </trkpt>
      <trkpt lat="48.50593" lon="-3.75479">
        <ele>247</ele>
        <time>2021-07-08T09:23:37Z</time>
      </trkpt>
      <trkpt lat="48.5059" lon="-3.7548">
        <ele>248</ele>
        <time>2021-07-08T09:23:38Z</time>
      </trkpt>
      <trkpt lat="48.50586" lon="-3.7548">
        <ele>248</ele>
        <time>2021-07-08T09:23:39Z</time>
      </trkpt>
      <trkpt lat="48.50583" lon="-3.7548">
        <ele>248</ele>
        <time>2021-07-08T09:23:40Z</time>
      </trkpt>
      <trkpt lat="48.50579" lon="-3.7548">
        <ele>248</ele>
        <time>2021-07-08T09:23:41Z</time>
      </trkpt>
      <trkpt lat="48.50575" lon="-3.75481">
        <ele>248</ele>
        <time>2021-07-08T09:23:42Z</time>
      </trkpt>
      <trkpt lat="48.50571" lon="-3.75483">
        <ele>248</ele>
        <time>2021-07-08T09:23:43Z</time>
      </trkpt>
      <trkpt lat="48.50568" lon="-3.75483">
        <ele>248</ele>
        <time>2021-07-08T09:23:44Z</time>
      </trkpt>
      <trkpt lat="48.50564" lon="-3.75485">
        <ele>248</ele>
        <time>2021-07-08T09:23:45Z</time>
      </trkpt>
      <trkpt lat="48.50561" lon="-3.75486">
        <ele>248</ele>
        <time>2021-07-08T09:23:46Z</time>
      </trkpt>
      <trkpt lat="48.50559" lon="-3.75487">
        <ele>248</ele>
        <time>2021-07-08T09:23:47Z</time>
      </trkpt>
      <trkpt lat="48.50555" lon="-3.75487">
        <ele>248</ele>
        <time>2021-07-08T09:23:48Z</time>
      </trkpt>
      <trkpt lat="48.50551" lon="-3.75488">
        <ele>248</ele>
        <time>2021-07-08T09:23:49Z</time>
      </trkpt>
      <trkpt lat="48.50547" lon="-3.75488">
        <ele>249</ele>
        <time>2021-07-08T09:23:50Z</time>
      </trkpt>
      <trkpt lat="48.50544" lon="-3.75489">
        <ele>249</ele>
        <time>2021-07-08T09:23:51Z</time>
      </trkpt>
      <trkpt lat="48.5054" lon="-3.7549">
        <ele>249</ele>
        <time>2021-07-08T09:23:52Z</time>
      </trkpt>
      <trkpt lat="48.50537" lon="-3.75492">
        <ele>249</ele>
        <time>2021-07-08T09:23:53Z</time>
      </trkpt>
      <trkpt lat="48.50532" lon="-3.75494">
        <ele>249</ele>
        <time>2021-07-08T09:23:54Z</time>
      </trkpt>
      <trkpt lat="48.50527" lon="-3.75495">
        <ele>249</ele>
        <time>2021-07-08T09:23:55Z</time>
      </trkpt>
      <trkpt lat="48.50523" lon="-3.75496">
        <ele>249</ele>
        <time>2021-07-08T09:23:55Z</time>
      </trkpt>
      <trkpt lat="48.50519" lon="-3.75497">
        <ele>249</ele>
        <time>2021-07-08T09:23:57Z</time>
      </trkpt>
      <trkpt lat="48.50516" lon="-3.75498">
        <ele>249</ele>
        <time>2021-07-08T09:23:58Z</time>
      </trkpt>
      <trkpt lat="48.50512" lon="-3.755">
        <ele>249</ele>
        <time>2021-07-08T09:23:59Z</time>
      </trkpt>
      <trkpt lat="48.50508" lon="-3.75501">
        <ele>249</ele>
        <time>2021-07-08T09:24:00Z</time>
      </trkpt>
      <trkpt lat="48.50502" lon="-3.75503">
        <ele>249</ele>
        <time>2021-07-08T09:24:01Z</time>
      </trkpt>
      <trkpt lat="48.50498" lon="-3.75504">
        <ele>249</ele>
        <time>2021-07-08T09:24:02Z</time>
      </trkpt>
      <trkpt lat="48.50494" lon="-3.75506">
        <ele>249</ele>
        <time>2021-07-08T09:24:03Z</time>
      </trkpt>
      <trkpt lat="48.50491" lon="-3.75507">
        <ele>249</ele>
        <time>2021-07-08T09:24:04Z</time>
      </trkpt>
      <trkpt lat="48.50487" lon="-3.75509">
        <ele>249</ele>
        <time>2021-07-08T09:24:05Z</time>
      </trkpt>
      <trkpt lat="48.50484" lon="-3.7551">
        <ele>249</ele>
        <time>2021-07-08T09:24:06Z</time>
      </trkpt>
      <trkpt lat="48.5048" lon="-3.75512">
        <ele>249</ele>
        <time>2021-07-08T09:24:07Z</time>
      </trkpt>
      <trkpt lat="48.50477" lon="-3.75513">
        <ele>249</ele>
        <time>2021-07-08T09:24:08Z</time>
      </trkpt>
      <trkpt lat="48.50474" lon="-3.75515">
        <ele>250</ele>
        <time>2021-07-08T09:24:09Z</time>
      </trkpt>
      <trkpt lat="48.5047" lon="-3.75516">
        <ele>250</ele>
        <time>2021-07-08T09:24:10Z</time>
      </trkpt>
      <trkpt lat="48.50467" lon="-3.75518">
        <ele>250</ele>
        <time>2021-07-08T09:24:11Z</time>
      </trkpt>
      <trkpt lat="48.50464" lon="-3.75519">
        <ele>250</ele>
        <time>2021-07-08T09:24:12Z</time>
      </trkpt>
      <trkpt lat="48.50461" lon="-3.75521">
        <ele>251</ele>
        <time>2021-07-08T09:24:13Z</time>
      </trkpt>
      <trkpt lat="48.50458" lon="-3.75523">
        <ele>251</ele>
        <time>2021-07-08T09:24:14Z</time>
      </trkpt>
      <trkpt lat="48.50455" lon="-3.75524">
        <ele>251</ele>
        <time>2021-07-08T09:24:15Z</time>
      </trkpt>
      <trkpt lat="48.50453" lon="-3.75525">
        <ele>251</ele>
        <time>2021-07-08T09:24:16Z</time>
      </trkpt>
      <trkpt lat="48.5045" lon="-3.75526">
        <ele>250</ele>
        <time>2021-07-08T09:24:17Z</time>
      </trkpt>
      <trkpt lat="48.50447" lon="-3.75528">
        <ele>250</ele>
        <time>2021-07-08T09:24:18Z</time>
      </trkpt>
      <trkpt lat="48.50443" lon="-3.75529">
        <ele>251</ele>
        <time>2021-07-08T09:24:18Z</time>
      </trkpt>
      <trkpt lat="48.5044" lon="-3.75531">
        <ele>251</ele>
        <time>2021-07-08T09:24:20Z</time>
      </trkpt>
      <trkpt lat="48.50437" lon="-3.75532">
        <ele>251</ele>
        <time>2021-07-08T09:24:21Z</time>
      </trkpt>
      <trkpt lat="48.50435" lon="-3.75534">
        <ele>251</ele>
        <time>2021-07-08T09:24:22Z</time>
      </trkpt>
      <trkpt lat="48.50432" lon="-3.75536">
        <ele>251</ele>
        <time>2021-07-08T09:24:23Z</time>
      </trkpt>
      <trkpt lat="48.50429" lon="-3.75538">
        <ele>251</ele>
        <time>2021-07-08T09:24:24Z</time>
      </trkpt>
      <trkpt lat="48.50427" lon="-3.75539">
        <ele>251</ele>
        <time>2021-07-08T09:24:25Z</time>
      </trkpt>
      <trkpt lat="48.50424" lon="-3.7554">
        <ele>251</ele>
        <time>2021-07-08T09:24:25Z</time>
      </trkpt>
      <trkpt lat="48.50421" lon="-3.75542">
        <ele>251</ele>
        <time>2021-07-08T09:24:27Z</time>
      </trkpt>
      <trkpt lat="48.50418" lon="-3.75544">
        <ele>251</ele>
        <time>2021-07-08T09:24:28Z</time>
      </trkpt>
      <trkpt lat="48.50415" lon="-3.75545">
        <ele>251</ele>
        <time>2021-07-08T09:24:29Z</time>
      </trkpt>
      <trkpt lat="48.50411" lon="-3.75547">
        <ele>252</ele>
        <time>2021-07-08T09:24:30Z</time>
      </trkpt>
      <trkpt lat="48.50408" lon="-3.75548">
        <ele>252</ele>
        <time>2021-07-08T09:24:31Z</time>
      </trkpt>
      <trkpt lat="48.50406" lon="-3.7555">
        <ele>252</ele>
        <time>2021-07-08T09:24:32Z</time>
      </trkpt>
      <trkpt lat="48.50402" lon="-3.75551">
        <ele>252</ele>
        <time>2021-07-08T09:24:33Z</time>
      </trkpt>
      <trkpt lat="48.50399" lon="-3.75553">
        <ele>252</ele>
        <time>2021-07-08T09:24:34Z</time>
      </trkpt>
      <trkpt lat="48.50396" lon="-3.75555">
        <ele>252</ele>
        <time>2021-07-08T09:24:35Z</time>
      </trkpt>
      <trkpt lat="48.50393" lon="-3.75557">
        <ele>252</ele>
        <time>2021-07-08T09:24:36Z</time>
      </trkpt>
      <trkpt lat="48.50389" lon="-3.75559">
        <ele>252</ele>
        <time>2021-07-08T09:24:37Z</time>
      </trkpt>
      <trkpt lat="48.50385" lon="-3.75561">
        <ele>252</ele>
        <time>2021-07-08T09:24:38Z</time>
      </trkpt>
      <trkpt lat="48.50382" lon="-3.75563">
        <ele>252</ele>
        <time>2021-07-08T09:24:39Z</time>
      </trkpt>
      <trkpt lat="48.50379" lon="-3.75565">
        <ele>252</ele>
        <time>2021-07-08T09:24:40Z</time>
      </trkpt>
      <trkpt lat="48.50376" lon="-3.75566">
        <ele>252</ele>
        <time>2021-07-08T09:24:41Z</time>
      </trkpt>
      <trkpt lat="48.50372" lon="-3.75568">
        <ele>253</ele>
        <time>2021-07-08T09:24:42Z</time>
      </trkpt>
      <trkpt lat="48.5037" lon="-3.7557">
        <ele>253</ele>
        <time>2021-07-08T09:24:43Z</time>
      </trkpt>
      <trkpt lat="48.50367" lon="-3.75572">
        <ele>253</ele>
        <time>2021-07-08T09:24:44Z</time>
      </trkpt>
      <trkpt lat="48.50364" lon="-3.75573">
        <ele>253</ele>
        <time>2021-07-08T09:24:45Z</time>
      </trkpt>
      <trkpt lat="48.50362" lon="-3.75574">
        <ele>253</ele>
        <time>2021-07-08T09:24:46Z</time>
      </trkpt>
      <trkpt lat="48.5036" lon="-3.75576">
        <ele>253</ele>
        <time>2021-07-08T09:24:47Z</time>
      </trkpt>
      <trkpt lat="48.50358" lon="-3.75577">
        <ele>253</ele>
        <time>2021-07-08T09:24:48Z</time>
      </trkpt>
      <trkpt lat="48.50355" lon="-3.75578">
        <ele>253</ele>
        <time>2021-07-08T09:24:49Z</time>
      </trkpt>
      <trkpt lat="48.50352" lon="-3.75579">
        <ele>253</ele>
        <time>2021-07-08T09:24:50Z</time>
      </trkpt>
      <trkpt lat="48.50349" lon="-3.7558">
        <ele>253</ele>
        <time>2021-07-08T09:24:51Z</time>
      </trkpt>
      <trkpt lat="48.50346" lon="-3.75582">
        <ele>253</ele>
        <time>2021-07-08T09:24:52Z</time>
      </trkpt>
      <trkpt lat="48.50343" lon="-3.75584">
        <ele>253</ele>
        <time>2021-07-08T09:24:53Z</time>
      </trkpt>
      <trkpt lat="48.5034" lon="-3.75585">
        <ele>253</ele>
        <time>2021-07-08T09:24:54Z</time>
      </trkpt>
      <trkpt lat="48.50337" lon="-3.75586">
        <ele>253</ele>
        <time>2021-07-08T09:24:55Z</time>
      </trkpt>
      <trkpt lat="48.50333" lon="-3.75588">
        <ele>254</ele>
        <time>2021-07-08T09:24:56Z</time>
      </trkpt>
      <trkpt lat="48.5033" lon="-3.75589">
        <ele>254</ele>
        <time>2021-07-08T09:24:57Z</time>
      </trkpt>
      <trkpt lat="48.50326" lon="-3.75591">
        <ele>254</ele>
        <time>2021-07-08T09:24:58Z</time>
      </trkpt>
      <trkpt lat="48.50322" lon="-3.75593">
        <ele>254</ele>
        <time>2021-07-08T09:24:59Z</time>
      </trkpt>
      <trkpt lat="48.50318" lon="-3.75595">
        <ele>254</ele>
        <time>2021-07-08T09:25:00Z</time>
      </trkpt>
      <trkpt lat="48.50315" lon="-3.75596">
        <ele>254</ele>
        <time>2021-07-08T09:25:01Z</time>
      </trkpt>
      <trkpt lat="48.50303" lon="-3.75603">
        <ele>254</ele>
        <time>2021-07-08T09:25:03Z</time>
      </trkpt>
      <trkpt lat="48.50291" lon="-3.75609">
        <ele>254</ele>
        <time>2021-07-08T09:25:07Z</time>
      </trkpt>
      <trkpt lat="48.50279" lon="-3.75615">
        <ele>255</ele>
        <time>2021-07-08T09:25:11Z</time>
      </trkpt>
      <trkpt lat="48.5027" lon="-3.7562">
        <ele>255</ele>
        <time>2021-07-08T09:25:14Z</time>
      </trkpt>
      <trkpt lat="48.50268" lon="-3.75621">
        <ele>255</ele>
        <time>2021-07-08T09:25:15Z</time>
      </trkpt>
      <trkpt lat="48.50264" lon="-3.75622">
        <ele>255</ele>
        <time>2021-07-08T09:25:16Z</time>
      </trkpt>
      <trkpt lat="48.50261" lon="-3.75623">
        <ele>256</ele>
        <time>2021-07-08T09:25:17Z</time>
      </trkpt>
      <trkpt lat="48.50258" lon="-3.75625">
        <ele>256</ele>
        <time>2021-07-08T09:25:18Z</time>
      </trkpt>
      <trkpt lat="48.50256" lon="-3.75626">
        <ele>256</ele>
        <time>2021-07-08T09:25:19Z</time>
      </trkpt>
      <trkpt lat="48.50254" lon="-3.75627">
        <ele>256</ele>
        <time>2021-07-08T09:25:19Z</time>
      </trkpt>
      <trkpt lat="48.50252" lon="-3.75628">
        <ele>256</ele>
        <time>2021-07-08T09:25:21Z</time>
      </trkpt>
      <trkpt lat="48.50251" lon="-3.7563">
        <ele>256</ele>
        <time>2021-07-08T09:25:22Z</time>
      </trkpt>
      <trkpt lat="48.50248" lon="-3.75631">
        <ele>256</ele>
        <time>2021-07-08T09:25:24Z</time>
      </trkpt>
      <trkpt lat="48.50246" lon="-3.75632">
        <ele>256</ele>
        <time>2021-07-08T09:25:25Z</time>
      </trkpt>
      <trkpt lat="48.50243" lon="-3.75635">
        <ele>256</ele>
        <time>2021-07-08T09:25:27Z</time>
      </trkpt>
      <trkpt lat="48.50241" lon="-3.75636">
        <ele>256</ele>
        <time>2021-07-08T09:25:28Z</time>
      </trkpt>
      <trkpt lat="48.50239" lon="-3.75637">
        <ele>256</ele>
        <time>2021-07-08T09:25:29Z</time>
      </trkpt>
      <trkpt lat="48.50232" lon="-3.75639">
        <ele>257</ele>
        <time>2021-07-08T09:25:32Z</time>
      </trkpt>
      <trkpt lat="48.50229" lon="-3.75641">
        <ele>257</ele>
        <time>2021-07-08T09:25:33Z</time>
      </trkpt>
      <trkpt lat="48.50225" lon="-3.75642">
        <ele>257</ele>
        <time>2021-07-08T09:25:34Z</time>
      </trkpt>
      <trkpt lat="48.50215" lon="-3.75646">
        <ele>257</ele>
        <time>2021-07-08T09:25:38Z</time>
      </trkpt>
      <trkpt lat="48.50209" lon="-3.75647">
        <ele>257</ele>
        <time>2021-07-08T09:25:40Z</time>
      </trkpt>
      <trkpt lat="48.50206" lon="-3.75648">
        <ele>257</ele>
        <time>2021-07-08T09:25:41Z</time>
      </trkpt>
      <trkpt lat="48.50203" lon="-3.75648">
        <ele>257</ele>
        <time>2021-07-08T09:25:42Z</time>
      </trkpt>
      <trkpt lat="48.502" lon="-3.75649">
        <ele>257</ele>
        <time>2021-07-08T09:25:42Z</time>
      </trkpt>
      <trkpt lat="48.50198" lon="-3.75649">
        <ele>257</ele>
        <time>2021-07-08T09:25:44Z</time>
      </trkpt>
      <trkpt lat="48.50193" lon="-3.7565">
        <ele>257</ele>
        <time>2021-07-08T09:25:45Z</time>
      </trkpt>
      <trkpt lat="48.50191" lon="-3.75651">
        <ele>257</ele>
        <time>2021-07-08T09:25:47Z</time>
      </trkpt>
      <trkpt lat="48.50189" lon="-3.75651">
        <ele>257</ele>
        <time>2021-07-08T09:25:48Z</time>
      </trkpt>
      <trkpt lat="48.50187" lon="-3.75652">
        <ele>257</ele>
        <time>2021-07-08T09:25:49Z</time>
      </trkpt>
      <trkpt lat="48.50184" lon="-3.75652">
        <ele>258</ele>
        <time>2021-07-08T09:25:50Z</time>
      </trkpt>
      <trkpt lat="48.50181" lon="-3.75653">
        <ele>258</ele>
        <time>2021-07-08T09:25:51Z</time>
      </trkpt>
      <trkpt lat="48.50178" lon="-3.75654">
        <ele>258</ele>
        <time>2021-07-08T09:25:52Z</time>
      </trkpt>
      <trkpt lat="48.50176" lon="-3.75655">
        <ele>258</ele>
        <time>2021-07-08T09:25:53Z</time>
      </trkpt>
      <trkpt lat="48.50173" lon="-3.75655">
        <ele>258</ele>
        <time>2021-07-08T09:25:54Z</time>
      </trkpt>
      <trkpt lat="48.5017" lon="-3.75655">
        <ele>259</ele>
        <time>2021-07-08T09:25:55Z</time>
      </trkpt>
      <trkpt lat="48.50167" lon="-3.75655">
        <ele>259</ele>
        <time>2021-07-08T09:25:56Z</time>
      </trkpt>
      <trkpt lat="48.50163" lon="-3.75655">
        <ele>259</ele>
        <time>2021-07-08T09:25:56Z</time>
      </trkpt>
      <trkpt lat="48.50159" lon="-3.75655">
        <ele>259</ele>
        <time>2021-07-08T09:25:58Z</time>
      </trkpt>
      <trkpt lat="48.50155" lon="-3.75657">
        <ele>259</ele>
        <time>2021-07-08T09:25:59Z</time>
      </trkpt>
      <trkpt lat="48.50151" lon="-3.75657">
        <ele>258</ele>
        <time>2021-07-08T09:26:00Z</time>
      </trkpt>
      <trkpt lat="48.50147" lon="-3.75658">
        <ele>258</ele>
        <time>2021-07-08T09:26:00Z</time>
      </trkpt>
      <trkpt lat="48.50143" lon="-3.75658">
        <ele>258</ele>
        <time>2021-07-08T09:26:02Z</time>
      </trkpt>
      <trkpt lat="48.50139" lon="-3.75659">
        <ele>259</ele>
        <time>2021-07-08T09:26:02Z</time>
      </trkpt>
      <trkpt lat="48.50135" lon="-3.75659">
        <ele>259</ele>
        <time>2021-07-08T09:26:04Z</time>
      </trkpt>
      <trkpt lat="48.50132" lon="-3.7566">
        <ele>259</ele>
        <time>2021-07-08T09:26:05Z</time>
      </trkpt>
      <trkpt lat="48.50128" lon="-3.7566">
        <ele>259</ele>
        <time>2021-07-08T09:26:06Z</time>
      </trkpt>
      <trkpt lat="48.50125" lon="-3.75661">
        <ele>259</ele>
        <time>2021-07-08T09:26:07Z</time>
      </trkpt>
      <trkpt lat="48.50122" lon="-3.75661">
        <ele>259</ele>
        <time>2021-07-08T09:26:08Z</time>
      </trkpt>
      <trkpt lat="48.50119" lon="-3.75662">
        <ele>259</ele>
        <time>2021-07-08T09:26:08Z</time>
      </trkpt>
      <trkpt lat="48.50116" lon="-3.75663">
        <ele>259</ele>
        <time>2021-07-08T09:26:10Z</time>
      </trkpt>
      <trkpt lat="48.50112" lon="-3.75664">
        <ele>260</ele>
        <time>2021-07-08T09:26:11Z</time>
      </trkpt>
      <trkpt lat="48.5011" lon="-3.75664">
        <ele>260</ele>
        <time>2021-07-08T09:26:12Z</time>
      </trkpt>
      <trkpt lat="48.50106" lon="-3.75665">
        <ele>260</ele>
        <time>2021-07-08T09:26:13Z</time>
      </trkpt>
      <trkpt lat="48.50103" lon="-3.75666">
        <ele>260</ele>
        <time>2021-07-08T09:26:14Z</time>
      </trkpt>
      <trkpt lat="48.50099" lon="-3.75667">
        <ele>260</ele>
        <time>2021-07-08T09:26:15Z</time>
      </trkpt>
      <trkpt lat="48.50096" lon="-3.75667">
        <ele>260</ele>
        <time>2021-07-08T09:26:16Z</time>
      </trkpt>
      <trkpt lat="48.50093" lon="-3.75668">
        <ele>260</ele>
        <time>2021-07-08T09:26:17Z</time>
      </trkpt>
      <trkpt lat="48.50088" lon="-3.75671">
        <ele>260</ele>
        <time>2021-07-08T09:26:18Z</time>
      </trkpt>
      <trkpt lat="48.50085" lon="-3.75673">
        <ele>260</ele>
        <time>2021-07-08T09:26:19Z</time>
      </trkpt>
      <trkpt lat="48.50082" lon="-3.75675">
        <ele>261</ele>
        <time>2021-07-08T09:26:19Z</time>
      </trkpt>
      <trkpt lat="48.5008" lon="-3.75676">
        <ele>261</ele>
        <time>2021-07-08T09:26:21Z</time>
      </trkpt>
      <trkpt lat="48.50078" lon="-3.75677">
        <ele>261</ele>
        <time>2021-07-08T09:26:22Z</time>
      </trkpt>
      <trkpt lat="48.50076" lon="-3.75678">
        <ele>261</ele>
        <time>2021-07-08T09:26:23Z</time>
      </trkpt>
      <trkpt lat="48.50074" lon="-3.75679">
        <ele>261</ele>
        <time>2021-07-08T09:26:24Z</time>
      </trkpt>
      <trkpt lat="48.50072" lon="-3.7568">
        <ele>261</ele>
        <time>2021-07-08T09:26:26Z</time>
      </trkpt>
      <trkpt lat="48.50069" lon="-3.7568">
        <ele>261</ele>
        <time>2021-07-08T09:26:28Z</time>
      </trkpt>
      <trkpt lat="48.50066" lon="-3.75679">
        <ele>261</ele>
        <time>2021-07-08T09:26:30Z</time>
      </trkpt>
      <trkpt lat="48.50065" lon="-3.75679">
        <ele>261</ele>
        <time>2021-07-08T09:26:31Z</time>
      </trkpt>
      <trkpt lat="48.50063" lon="-3.75677">
        <ele>261</ele>
        <time>2021-07-08T09:26:32Z</time>
      </trkpt>
      <trkpt lat="48.50061" lon="-3.75676">
        <ele>261</ele>
        <time>2021-07-08T09:26:33Z</time>
      </trkpt>
      <trkpt lat="48.50059" lon="-3.75676">
        <ele>261</ele>
        <time>2021-07-08T09:26:34Z</time>
      </trkpt>
      <trkpt lat="48.50057" lon="-3.75675">
        <ele>261</ele>
        <time>2021-07-08T09:26:35Z</time>
      </trkpt>
      <trkpt lat="48.50055" lon="-3.75675">
        <ele>261</ele>
        <time>2021-07-08T09:26:36Z</time>
      </trkpt>
      <trkpt lat="48.50053" lon="-3.75674">
        <ele>261</ele>
        <time>2021-07-08T09:26:37Z</time>
      </trkpt>
      <trkpt lat="48.50049" lon="-3.75673">
        <ele>261</ele>
        <time>2021-07-08T09:26:38Z</time>
      </trkpt>
      <trkpt lat="48.50047" lon="-3.75672">
        <ele>261</ele>
        <time>2021-07-08T09:26:40Z</time>
      </trkpt>
      <trkpt lat="48.50044" lon="-3.75671">
        <ele>261</ele>
        <time>2021-07-08T09:26:41Z</time>
      </trkpt>
      <trkpt lat="48.50042" lon="-3.7567">
        <ele>261</ele>
        <time>2021-07-08T09:26:42Z</time>
      </trkpt>
      <trkpt lat="48.5004" lon="-3.7567">
        <ele>261</ele>
        <time>2021-07-08T09:26:43Z</time>
      </trkpt>
      <trkpt lat="48.50037" lon="-3.75669">
        <ele>261</ele>
        <time>2021-07-08T09:26:44Z</time>
      </trkpt>
      <trkpt lat="48.50035" lon="-3.75669">
        <ele>261</ele>
        <time>2021-07-08T09:26:45Z</time>
      </trkpt>
      <trkpt lat="48.50032" lon="-3.75668">
        <ele>261</ele>
        <time>2021-07-08T09:26:46Z</time>
      </trkpt>
      <trkpt lat="48.50026" lon="-3.75668">
        <ele>261</ele>
        <time>2021-07-08T09:26:47Z</time>
      </trkpt>
      <trkpt lat="48.50022" lon="-3.75667">
        <ele>261</ele>
        <time>2021-07-08T09:26:49Z</time>
      </trkpt>
      <trkpt lat="48.50019" lon="-3.75666">
        <ele>261</ele>
        <time>2021-07-08T09:26:50Z</time>
      </trkpt>
      <trkpt lat="48.50015" lon="-3.75665">
        <ele>261</ele>
        <time>2021-07-08T09:26:51Z</time>
      </trkpt>
      <trkpt lat="48.50009" lon="-3.75664">
        <ele>261</ele>
        <time>2021-07-08T09:26:53Z</time>
      </trkpt>
      <trkpt lat="48.49997" lon="-3.75661">
        <ele>261</ele>
        <time>2021-07-08T09:26:57Z</time>
      </trkpt>
      <trkpt lat="48.49989" lon="-3.75657">
        <ele>261</ele>
        <time>2021-07-08T09:26:59Z</time>
      </trkpt>
      <trkpt lat="48.49984" lon="-3.75656">
        <ele>261</ele>
        <time>2021-07-08T09:27:02Z</time>
      </trkpt>
      <trkpt lat="48.49982" lon="-3.75655">
        <ele>261</ele>
        <time>2021-07-08T09:27:03Z</time>
      </trkpt>
      <trkpt lat="48.49979" lon="-3.75654">
        <ele>261</ele>
        <time>2021-07-08T09:27:04Z</time>
      </trkpt>
      <trkpt lat="48.49976" lon="-3.75654">
        <ele>261</ele>
        <time>2021-07-08T09:27:05Z</time>
      </trkpt>
      <trkpt lat="48.49973" lon="-3.75653">
        <ele>261</ele>
        <time>2021-07-08T09:27:06Z</time>
      </trkpt>
      <trkpt lat="48.49969" lon="-3.75652">
        <ele>261</ele>
        <time>2021-07-08T09:27:08Z</time>
      </trkpt>
      <trkpt lat="48.49959" lon="-3.7565">
        <ele>261</ele>
        <time>2021-07-08T09:27:11Z</time>
      </trkpt>
      <trkpt lat="48.49949" lon="-3.75649">
        <ele>261</ele>
        <time>2021-07-08T09:27:14Z</time>
      </trkpt>
      <trkpt lat="48.4994" lon="-3.75648">
        <ele>261</ele>
        <time>2021-07-08T09:27:16Z</time>
      </trkpt>
      <trkpt lat="48.49927" lon="-3.75646">
        <ele>261</ele>
        <time>2021-07-08T09:27:19Z</time>
      </trkpt>
      <trkpt lat="48.49914" lon="-3.75645">
        <ele>261</ele>
        <time>2021-07-08T09:27:22Z</time>
      </trkpt>
      <trkpt lat="48.49903" lon="-3.75645">
        <ele>261</ele>
        <time>2021-07-08T09:27:23Z</time>
      </trkpt>
      <trkpt lat="48.49893" lon="-3.75644">
        <ele>261</ele>
        <time>2021-07-08T09:27:26Z</time>
      </trkpt>
      <trkpt lat="48.49884" lon="-3.75643">
        <ele>261</ele>
        <time>2021-07-08T09:27:28Z</time>
      </trkpt>
      <trkpt lat="48.49872" lon="-3.75642">
        <ele>261</ele>
        <time>2021-07-08T09:27:31Z</time>
      </trkpt>
      <trkpt lat="48.4986" lon="-3.75642">
        <ele>261</ele>
        <time>2021-07-08T09:27:34Z</time>
      </trkpt>
      <trkpt lat="48.49855" lon="-3.75642">
        <ele>261</ele>
        <time>2021-07-08T09:27:35Z</time>
      </trkpt>
      <trkpt lat="48.49851" lon="-3.75641">
        <ele>261</ele>
        <time>2021-07-08T09:27:35Z</time>
      </trkpt>
      <trkpt lat="48.49838" lon="-3.75642">
        <ele>261</ele>
        <time>2021-07-08T09:27:39Z</time>
      </trkpt>
      <trkpt lat="48.49834" lon="-3.75642">
        <ele>261</ele>
        <time>2021-07-08T09:27:40Z</time>
      </trkpt>
      <trkpt lat="48.4983" lon="-3.75643">
        <ele>261</ele>
        <time>2021-07-08T09:27:41Z</time>
      </trkpt>
      <trkpt lat="48.49826" lon="-3.75644">
        <ele>261</ele>
        <time>2021-07-08T09:27:42Z</time>
      </trkpt>
      <trkpt lat="48.49823" lon="-3.75645">
        <ele>261</ele>
        <time>2021-07-08T09:27:43Z</time>
      </trkpt>
      <trkpt lat="48.49819" lon="-3.75645">
        <ele>261</ele>
        <time>2021-07-08T09:27:44Z</time>
      </trkpt>
      <trkpt lat="48.49813" lon="-3.75646">
        <ele>261</ele>
        <time>2021-07-08T09:27:45Z</time>
      </trkpt>
      <trkpt lat="48.49808" lon="-3.75647">
        <ele>261</ele>
        <time>2021-07-08T09:27:46Z</time>
      </trkpt>
      <trkpt lat="48.49804" lon="-3.75648">
        <ele>261</ele>
        <time>2021-07-08T09:27:47Z</time>
      </trkpt>
      <trkpt lat="48.49799" lon="-3.75648">
        <ele>261</ele>
        <time>2021-07-08T09:27:48Z</time>
      </trkpt>
      <trkpt lat="48.49795" lon="-3.75649">
        <ele>261</ele>
        <time>2021-07-08T09:27:49Z</time>
      </trkpt>
      <trkpt lat="48.4979" lon="-3.75649">
        <ele>261</ele>
        <time>2021-07-08T09:27:50Z</time>
      </trkpt>
      <trkpt lat="48.49787" lon="-3.7565">
        <ele>261</ele>
        <time>2021-07-08T09:27:51Z</time>
      </trkpt>
      <trkpt lat="48.49783" lon="-3.7565">
        <ele>261</ele>
        <time>2021-07-08T09:27:52Z</time>
      </trkpt>
      <trkpt lat="48.4978" lon="-3.7565">
        <ele>261</ele>
        <time>2021-07-08T09:27:52Z</time>
      </trkpt>
      <trkpt lat="48.49775" lon="-3.75651">
        <ele>261</ele>
        <time>2021-07-08T09:27:54Z</time>
      </trkpt>
      <trkpt lat="48.49771" lon="-3.75652">
        <ele>261</ele>
        <time>2021-07-08T09:27:54Z</time>
      </trkpt>
      <trkpt lat="48.49767" lon="-3.75653">
        <ele>261</ele>
        <time>2021-07-08T09:27:56Z</time>
      </trkpt>
      <trkpt lat="48.49762" lon="-3.75654">
        <ele>261</ele>
        <time>2021-07-08T09:27:57Z</time>
      </trkpt>
      <trkpt lat="48.49759" lon="-3.75655">
        <ele>261</ele>
        <time>2021-07-08T09:27:58Z</time>
      </trkpt>
      <trkpt lat="48.49755" lon="-3.75655">
        <ele>261</ele>
        <time>2021-07-08T09:27:59Z</time>
      </trkpt>
      <trkpt lat="48.49751" lon="-3.75656">
        <ele>260</ele>
        <time>2021-07-08T09:28:00Z</time>
      </trkpt>
      <trkpt lat="48.49748" lon="-3.75657">
        <ele>260</ele>
        <time>2021-07-08T09:28:01Z</time>
      </trkpt>
      <trkpt lat="48.49744" lon="-3.75658">
        <ele>260</ele>
        <time>2021-07-08T09:28:02Z</time>
      </trkpt>
      <trkpt lat="48.49741" lon="-3.75659">
        <ele>260</ele>
        <time>2021-07-08T09:28:03Z</time>
      </trkpt>
      <trkpt lat="48.49737" lon="-3.7566">
        <ele>260</ele>
        <time>2021-07-08T09:28:04Z</time>
      </trkpt>
      <trkpt lat="48.49734" lon="-3.75661">
        <ele>260</ele>
        <time>2021-07-08T09:28:05Z</time>
      </trkpt>
      <trkpt lat="48.4973" lon="-3.75663">
        <ele>260</ele>
        <time>2021-07-08T09:28:06Z</time>
      </trkpt>
      <trkpt lat="48.49725" lon="-3.75664">
        <ele>260</ele>
        <time>2021-07-08T09:28:07Z</time>
      </trkpt>
      <trkpt lat="48.49721" lon="-3.75665">
        <ele>261</ele>
        <time>2021-07-08T09:28:08Z</time>
      </trkpt>
      <trkpt lat="48.49717" lon="-3.75666">
        <ele>261</ele>
        <time>2021-07-08T09:28:09Z</time>
      </trkpt>
      <trkpt lat="48.49713" lon="-3.75667">
        <ele>261</ele>
        <time>2021-07-08T09:28:10Z</time>
      </trkpt>
      <trkpt lat="48.49709" lon="-3.75669">
        <ele>261</ele>
        <time>2021-07-08T09:28:11Z</time>
      </trkpt>
      <trkpt lat="48.49704" lon="-3.7567">
        <ele>261</ele>
        <time>2021-07-08T09:28:12Z</time>
      </trkpt>
      <trkpt lat="48.497" lon="-3.75671">
        <ele>261</ele>
        <time>2021-07-08T09:28:13Z</time>
      </trkpt>
      <trkpt lat="48.49696" lon="-3.75673">
        <ele>261</ele>
        <time>2021-07-08T09:28:13Z</time>
      </trkpt>
      <trkpt lat="48.49692" lon="-3.75674">
        <ele>261</ele>
        <time>2021-07-08T09:28:15Z</time>
      </trkpt>
      <trkpt lat="48.49688" lon="-3.75675">
        <ele>261</ele>
        <time>2021-07-08T09:28:16Z</time>
      </trkpt>
      <trkpt lat="48.49684" lon="-3.75677">
        <ele>261</ele>
        <time>2021-07-08T09:28:17Z</time>
      </trkpt>
      <trkpt lat="48.4968" lon="-3.75679">
        <ele>261</ele>
        <time>2021-07-08T09:28:18Z</time>
      </trkpt>
      <trkpt lat="48.49676" lon="-3.7568">
        <ele>261</ele>
        <time>2021-07-08T09:28:19Z</time>
      </trkpt>
      <trkpt lat="48.49673" lon="-3.75681">
        <ele>261</ele>
        <time>2021-07-08T09:28:20Z</time>
      </trkpt>
      <trkpt lat="48.4967" lon="-3.75682">
        <ele>261</ele>
        <time>2021-07-08T09:28:21Z</time>
      </trkpt>
      <trkpt lat="48.49667" lon="-3.75683">
        <ele>261</ele>
        <time>2021-07-08T09:28:22Z</time>
      </trkpt>
      <trkpt lat="48.49664" lon="-3.75684">
        <ele>261</ele>
        <time>2021-07-08T09:28:23Z</time>
      </trkpt>
      <trkpt lat="48.4966" lon="-3.75685">
        <ele>261</ele>
        <time>2021-07-08T09:28:24Z</time>
      </trkpt>
      <trkpt lat="48.49656" lon="-3.75686">
        <ele>261</ele>
        <time>2021-07-08T09:28:25Z</time>
      </trkpt>
      <trkpt lat="48.49652" lon="-3.75688">
        <ele>261</ele>
        <time>2021-07-08T09:28:26Z</time>
      </trkpt>
      <trkpt lat="48.49648" lon="-3.7569">
        <ele>261</ele>
        <time>2021-07-08T09:28:27Z</time>
      </trkpt>
      <trkpt lat="48.49644" lon="-3.75692">
        <ele>261</ele>
        <time>2021-07-08T09:28:28Z</time>
      </trkpt>
      <trkpt lat="48.4964" lon="-3.75694">
        <ele>261</ele>
        <time>2021-07-08T09:28:28Z</time>
      </trkpt>
      <trkpt lat="48.49636" lon="-3.75695">
        <ele>261</ele>
        <time>2021-07-08T09:28:30Z</time>
      </trkpt>
      <trkpt lat="48.49633" lon="-3.75696">
        <ele>261</ele>
        <time>2021-07-08T09:28:31Z</time>
      </trkpt>
      <trkpt lat="48.49629" lon="-3.75697">
        <ele>261</ele>
        <time>2021-07-08T09:28:32Z</time>
      </trkpt>
      <trkpt lat="48.49625" lon="-3.75698">
        <ele>261</ele>
        <time>2021-07-08T09:28:32Z</time>
      </trkpt>
      <trkpt lat="48.49621" lon="-3.75699">
        <ele>261</ele>
        <time>2021-07-08T09:28:34Z</time>
      </trkpt>
      <trkpt lat="48.49617" lon="-3.757">
        <ele>261</ele>
        <time>2021-07-08T09:28:35Z</time>
      </trkpt>
      <trkpt lat="48.49614" lon="-3.75701">
        <ele>261</ele>
        <time>2021-07-08T09:28:36Z</time>
      </trkpt>
      <trkpt lat="48.4961" lon="-3.75702">
        <ele>261</ele>
        <time>2021-07-08T09:28:37Z</time>
      </trkpt>
      <trkpt lat="48.49607" lon="-3.75702">
        <ele>261</ele>
        <time>2021-07-08T09:28:38Z</time>
      </trkpt>
      <trkpt lat="48.49595" lon="-3.75705">
        <ele>261</ele>
        <time>2021-07-08T09:28:41Z</time>
      </trkpt>
      <trkpt lat="48.49589" lon="-3.75706">
        <ele>261</ele>
        <time>2021-07-08T09:28:43Z</time>
      </trkpt>
      <trkpt lat="48.49587" lon="-3.75708">
        <ele>261</ele>
        <time>2021-07-08T09:28:44Z</time>
      </trkpt>
      <trkpt lat="48.49584" lon="-3.75708">
        <ele>261</ele>
        <time>2021-07-08T09:28:45Z</time>
      </trkpt>
      <trkpt lat="48.49581" lon="-3.75709">
        <ele>261</ele>
        <time>2021-07-08T09:28:46Z</time>
      </trkpt>
      <trkpt lat="48.49578" lon="-3.7571">
        <ele>261</ele>
        <time>2021-07-08T09:28:47Z</time>
      </trkpt>
      <trkpt lat="48.49574" lon="-3.75712">
        <ele>261</ele>
        <time>2021-07-08T09:28:48Z</time>
      </trkpt>
      <trkpt lat="48.49572" lon="-3.75714">
        <ele>261</ele>
        <time>2021-07-08T09:28:49Z</time>
      </trkpt>
      <trkpt lat="48.49568" lon="-3.75715">
        <ele>261</ele>
        <time>2021-07-08T09:28:50Z</time>
      </trkpt>
      <trkpt lat="48.49565" lon="-3.75716">
        <ele>261</ele>
        <time>2021-07-08T09:28:51Z</time>
      </trkpt>
      <trkpt lat="48.49561" lon="-3.75717">
        <ele>263</ele>
        <time>2021-07-08T09:28:52Z</time>
      </trkpt>
      <trkpt lat="48.49557" lon="-3.75718">
        <ele>263</ele>
        <time>2021-07-08T09:28:53Z</time>
      </trkpt>
      <trkpt lat="48.49554" lon="-3.75719">
        <ele>263</ele>
        <time>2021-07-08T09:28:54Z</time>
      </trkpt>
      <trkpt lat="48.49551" lon="-3.7572">
        <ele>263</ele>
        <time>2021-07-08T09:28:55Z</time>
      </trkpt>
      <trkpt lat="48.49547" lon="-3.75721">
        <ele>263</ele>
        <time>2021-07-08T09:28:56Z</time>
      </trkpt>
      <trkpt lat="48.49544" lon="-3.75721">
        <ele>263</ele>
        <time>2021-07-08T09:28:57Z</time>
      </trkpt>
      <trkpt lat="48.49541" lon="-3.75721">
        <ele>263</ele>
        <time>2021-07-08T09:28:58Z</time>
      </trkpt>
      <trkpt lat="48.49538" lon="-3.75721">
        <ele>263</ele>
        <time>2021-07-08T09:28:58Z</time>
      </trkpt>
      <trkpt lat="48.49536" lon="-3.75721">
        <ele>263</ele>
        <time>2021-07-08T09:29:00Z</time>
      </trkpt>
      <trkpt lat="48.49533" lon="-3.75722">
        <ele>263</ele>
        <time>2021-07-08T09:29:01Z</time>
      </trkpt>
      <trkpt lat="48.49531" lon="-3.75722">
        <ele>263</ele>
        <time>2021-07-08T09:29:02Z</time>
      </trkpt>
      <trkpt lat="48.49529" lon="-3.75722">
        <ele>264</ele>
        <time>2021-07-08T09:29:03Z</time>
      </trkpt>
      <trkpt lat="48.49526" lon="-3.75722">
        <ele>264</ele>
        <time>2021-07-08T09:29:04Z</time>
      </trkpt>
      <trkpt lat="48.49523" lon="-3.75722">
        <ele>264</ele>
        <time>2021-07-08T09:29:04Z</time>
      </trkpt>
      <trkpt lat="48.4952" lon="-3.75723">
        <ele>264</ele>
        <time>2021-07-08T09:29:06Z</time>
      </trkpt>
      <trkpt lat="48.49518" lon="-3.75723">
        <ele>264</ele>
        <time>2021-07-08T09:29:07Z</time>
      </trkpt>
      <trkpt lat="48.49514" lon="-3.75724">
        <ele>265</ele>
        <time>2021-07-08T09:29:08Z</time>
      </trkpt>
      <trkpt lat="48.49511" lon="-3.75725">
        <ele>265</ele>
        <time>2021-07-08T09:29:09Z</time>
      </trkpt>
      <trkpt lat="48.49508" lon="-3.75725">
        <ele>265</ele>
        <time>2021-07-08T09:29:10Z</time>
      </trkpt>
      <trkpt lat="48.49505" lon="-3.75725">
        <ele>265</ele>
        <time>2021-07-08T09:29:10Z</time>
      </trkpt>
      <trkpt lat="48.49501" lon="-3.75725">
        <ele>265</ele>
        <time>2021-07-08T09:29:12Z</time>
      </trkpt>
      <trkpt lat="48.49498" lon="-3.75726">
        <ele>264</ele>
        <time>2021-07-08T09:29:13Z</time>
      </trkpt>
      <trkpt lat="48.49495" lon="-3.75726">
        <ele>264</ele>
        <time>2021-07-08T09:29:14Z</time>
      </trkpt>
      <trkpt lat="48.49493" lon="-3.75726">
        <ele>264</ele>
        <time>2021-07-08T09:29:15Z</time>
      </trkpt>
      <trkpt lat="48.4949" lon="-3.75726">
        <ele>264</ele>
        <time>2021-07-08T09:29:16Z</time>
      </trkpt>
      <trkpt lat="48.49488" lon="-3.75726">
        <ele>265</ele>
        <time>2021-07-08T09:29:16Z</time>
      </trkpt>
      <trkpt lat="48.49485" lon="-3.75726">
        <ele>265</ele>
        <time>2021-07-08T09:29:18Z</time>
      </trkpt>
      <trkpt lat="48.49482" lon="-3.75727">
        <ele>265</ele>
        <time>2021-07-08T09:29:19Z</time>
      </trkpt>
      <trkpt lat="48.49479" lon="-3.75727">
        <ele>265</ele>
        <time>2021-07-08T09:29:20Z</time>
      </trkpt>
      <trkpt lat="48.49476" lon="-3.75727">
        <ele>265</ele>
        <time>2021-07-08T09:29:21Z</time>
      </trkpt>
      <trkpt lat="48.49473" lon="-3.75727">
        <ele>265</ele>
        <time>2021-07-08T09:29:22Z</time>
      </trkpt>
      <trkpt lat="48.4947" lon="-3.75727">
        <ele>265</ele>
        <time>2021-07-08T09:29:22Z</time>
      </trkpt>
      <trkpt lat="48.49467" lon="-3.75727">
        <ele>265</ele>
        <time>2021-07-08T09:29:24Z</time>
      </trkpt>
      <trkpt lat="48.49465" lon="-3.75727">
        <ele>265</ele>
        <time>2021-07-08T09:29:25Z</time>
      </trkpt>
      <trkpt lat="48.49462" lon="-3.75726">
        <ele>265</ele>
        <time>2021-07-08T09:29:26Z</time>
      </trkpt>
      <trkpt lat="48.49459" lon="-3.75726">
        <ele>265</ele>
        <time>2021-07-08T09:29:27Z</time>
      </trkpt>
      <trkpt lat="48.49456" lon="-3.75726">
        <ele>265</ele>
        <time>2021-07-08T09:29:28Z</time>
      </trkpt>
      <trkpt lat="48.49452" lon="-3.75725">
        <ele>265</ele>
        <time>2021-07-08T09:29:28Z</time>
      </trkpt>
      <trkpt lat="48.49449" lon="-3.75726">
        <ele>265</ele>
        <time>2021-07-08T09:29:29Z</time>
      </trkpt>
      <trkpt lat="48.49445" lon="-3.75726">
        <ele>265</ele>
        <time>2021-07-08T09:29:31Z</time>
      </trkpt>
      <trkpt lat="48.49442" lon="-3.75726">
        <ele>265</ele>
        <time>2021-07-08T09:29:32Z</time>
      </trkpt>
      <trkpt lat="48.49438" lon="-3.75727">
        <ele>265</ele>
        <time>2021-07-08T09:29:33Z</time>
      </trkpt>
      <trkpt lat="48.49434" lon="-3.75727">
        <ele>265</ele>
        <time>2021-07-08T09:29:34Z</time>
      </trkpt>
      <trkpt lat="48.4943" lon="-3.75726">
        <ele>265</ele>
        <time>2021-07-08T09:29:35Z</time>
      </trkpt>
      <trkpt lat="48.49427" lon="-3.75726">
        <ele>265</ele>
        <time>2021-07-08T09:29:36Z</time>
      </trkpt>
      <trkpt lat="48.49423" lon="-3.75727">
        <ele>265</ele>
        <time>2021-07-08T09:29:37Z</time>
      </trkpt>
      <trkpt lat="48.4942" lon="-3.75727">
        <ele>265</ele>
        <time>2021-07-08T09:29:38Z</time>
      </trkpt>
      <trkpt lat="48.49417" lon="-3.75726">
        <ele>265</ele>
        <time>2021-07-08T09:29:39Z</time>
      </trkpt>
      <trkpt lat="48.49414" lon="-3.75726">
        <ele>266</ele>
        <time>2021-07-08T09:29:40Z</time>
      </trkpt>
      <trkpt lat="48.49411" lon="-3.75727">
        <ele>266</ele>
        <time>2021-07-08T09:29:41Z</time>
      </trkpt>
      <trkpt lat="48.49409" lon="-3.75727">
        <ele>267</ele>
        <time>2021-07-08T09:29:42Z</time>
      </trkpt>
      <trkpt lat="48.49406" lon="-3.75726">
        <ele>267</ele>
        <time>2021-07-08T09:29:43Z</time>
      </trkpt>
      <trkpt lat="48.49402" lon="-3.75725">
        <ele>267</ele>
        <time>2021-07-08T09:29:44Z</time>
      </trkpt>
      <trkpt lat="48.49398" lon="-3.75724">
        <ele>267</ele>
        <time>2021-07-08T09:29:45Z</time>
      </trkpt>
      <trkpt lat="48.49393" lon="-3.75725">
        <ele>267</ele>
        <time>2021-07-08T09:29:46Z</time>
      </trkpt>
      <trkpt lat="48.49388" lon="-3.75727">
        <ele>267</ele>
        <time>2021-07-08T09:29:47Z</time>
      </trkpt>
      <trkpt lat="48.49384" lon="-3.75728">
        <ele>267</ele>
        <time>2021-07-08T09:29:48Z</time>
      </trkpt>
      <trkpt lat="48.49379" lon="-3.75728">
        <ele>267</ele>
        <time>2021-07-08T09:29:48Z</time>
      </trkpt>
      <trkpt lat="48.49375" lon="-3.75728">
        <ele>267</ele>
        <time>2021-07-08T09:29:50Z</time>
      </trkpt>
      <trkpt lat="48.49371" lon="-3.75728">
        <ele>267</ele>
        <time>2021-07-08T09:29:51Z</time>
      </trkpt>
      <trkpt lat="48.49366" lon="-3.75728">
        <ele>267</ele>
        <time>2021-07-08T09:29:52Z</time>
      </trkpt>
      <trkpt lat="48.49362" lon="-3.75728">
        <ele>267</ele>
        <time>2021-07-08T09:29:53Z</time>
      </trkpt>
      <trkpt lat="48.49358" lon="-3.75728">
        <ele>267</ele>
        <time>2021-07-08T09:29:54Z</time>
      </trkpt>
      <trkpt lat="48.49354" lon="-3.75728">
        <ele>267</ele>
        <time>2021-07-08T09:29:55Z</time>
      </trkpt>
      <trkpt lat="48.49351" lon="-3.75727">
        <ele>267</ele>
        <time>2021-07-08T09:29:56Z</time>
      </trkpt>
      <trkpt lat="48.49347" lon="-3.75727">
        <ele>267</ele>
        <time>2021-07-08T09:29:57Z</time>
      </trkpt>
      <trkpt lat="48.49343" lon="-3.75727">
        <ele>267</ele>
        <time>2021-07-08T09:29:58Z</time>
      </trkpt>
      <trkpt lat="48.49338" lon="-3.75727">
        <ele>267</ele>
        <time>2021-07-08T09:29:59Z</time>
      </trkpt>
      <trkpt lat="48.49334" lon="-3.75727">
        <ele>267</ele>
        <time>2021-07-08T09:30:00Z</time>
      </trkpt>
      <trkpt lat="48.4933" lon="-3.75726">
        <ele>267</ele>
        <time>2021-07-08T09:30:01Z</time>
      </trkpt>
      <trkpt lat="48.49326" lon="-3.75726">
        <ele>267</ele>
        <time>2021-07-08T09:30:02Z</time>
      </trkpt>
      <trkpt lat="48.49322" lon="-3.75726">
        <ele>267</ele>
        <time>2021-07-08T09:30:03Z</time>
      </trkpt>
      <trkpt lat="48.49319" lon="-3.75725">
        <ele>267</ele>
        <time>2021-07-08T09:30:04Z</time>
      </trkpt>
      <trkpt lat="48.49315" lon="-3.75725">
        <ele>267</ele>
        <time>2021-07-08T09:30:05Z</time>
      </trkpt>
      <trkpt lat="48.49311" lon="-3.75724">
        <ele>267</ele>
        <time>2021-07-08T09:30:06Z</time>
      </trkpt>
      <trkpt lat="48.49308" lon="-3.75724">
        <ele>267</ele>
        <time>2021-07-08T09:30:07Z</time>
      </trkpt>
      <trkpt lat="48.49304" lon="-3.75723">
        <ele>267</ele>
        <time>2021-07-08T09:30:08Z</time>
      </trkpt>
      <trkpt lat="48.493" lon="-3.75723">
        <ele>267</ele>
        <time>2021-07-08T09:30:09Z</time>
      </trkpt>
      <trkpt lat="48.49296" lon="-3.75723">
        <ele>267</ele>
        <time>2021-07-08T09:30:10Z</time>
      </trkpt>
      <trkpt lat="48.49293" lon="-3.75722">
        <ele>267</ele>
        <time>2021-07-08T09:30:11Z</time>
      </trkpt>
      <trkpt lat="48.4929" lon="-3.75722">
        <ele>267</ele>
        <time>2021-07-08T09:30:12Z</time>
      </trkpt>
      <trkpt lat="48.49286" lon="-3.75722">
        <ele>267</ele>
        <time>2021-07-08T09:30:13Z</time>
      </trkpt>
      <trkpt lat="48.49283" lon="-3.75721">
        <ele>268</ele>
        <time>2021-07-08T09:30:14Z</time>
      </trkpt>
      <trkpt lat="48.4928" lon="-3.75721">
        <ele>268</ele>
        <time>2021-07-08T09:30:15Z</time>
      </trkpt>
      <trkpt lat="48.49276" lon="-3.7572">
        <ele>268</ele>
        <time>2021-07-08T09:30:16Z</time>
      </trkpt>
      <trkpt lat="48.49273" lon="-3.7572">
        <ele>268</ele>
        <time>2021-07-08T09:30:17Z</time>
      </trkpt>
      <trkpt lat="48.49271" lon="-3.75719">
        <ele>268</ele>
        <time>2021-07-08T09:30:18Z</time>
      </trkpt>
      <trkpt lat="48.49268" lon="-3.75718">
        <ele>268</ele>
        <time>2021-07-08T09:30:19Z</time>
      </trkpt>
      <trkpt lat="48.49266" lon="-3.75717">
        <ele>268</ele>
        <time>2021-07-08T09:30:20Z</time>
      </trkpt>
      <trkpt lat="48.49263" lon="-3.75717">
        <ele>269</ele>
        <time>2021-07-08T09:30:21Z</time>
      </trkpt>
      <trkpt lat="48.4926" lon="-3.75716">
        <ele>269</ele>
        <time>2021-07-08T09:30:22Z</time>
      </trkpt>
      <trkpt lat="48.49258" lon="-3.75715">
        <ele>269</ele>
        <time>2021-07-08T09:30:23Z</time>
      </trkpt>
      <trkpt lat="48.49255" lon="-3.75714">
        <ele>269</ele>
        <time>2021-07-08T09:30:24Z</time>
      </trkpt>
      <trkpt lat="48.49253" lon="-3.75713">
        <ele>270</ele>
        <time>2021-07-08T09:30:25Z</time>
      </trkpt>
      <trkpt lat="48.49251" lon="-3.75712">
        <ele>270</ele>
        <time>2021-07-08T09:30:26Z</time>
      </trkpt>
      <trkpt lat="48.49248" lon="-3.75711">
        <ele>270</ele>
        <time>2021-07-08T09:30:26Z</time>
      </trkpt>
      <trkpt lat="48.49245" lon="-3.7571">
        <ele>270</ele>
        <time>2021-07-08T09:30:28Z</time>
      </trkpt>
      <trkpt lat="48.49243" lon="-3.75709">
        <ele>270</ele>
        <time>2021-07-08T09:30:29Z</time>
      </trkpt>
      <trkpt lat="48.49241" lon="-3.75708">
        <ele>269</ele>
        <time>2021-07-08T09:30:30Z</time>
      </trkpt>
      <trkpt lat="48.49239" lon="-3.75707">
        <ele>269</ele>
        <time>2021-07-08T09:30:31Z</time>
      </trkpt>
      <trkpt lat="48.49237" lon="-3.75706">
        <ele>269</ele>
        <time>2021-07-08T09:30:32Z</time>
      </trkpt>
      <trkpt lat="48.49235" lon="-3.75705">
        <ele>269</ele>
        <time>2021-07-08T09:30:33Z</time>
      </trkpt>
      <trkpt lat="48.49233" lon="-3.75704">
        <ele>270</ele>
        <time>2021-07-08T09:30:34Z</time>
      </trkpt>
      <trkpt lat="48.49231" lon="-3.75703">
        <ele>270</ele>
        <time>2021-07-08T09:30:35Z</time>
      </trkpt>
      <trkpt lat="48.49225" lon="-3.757">
        <ele>270</ele>
        <time>2021-07-08T09:30:36Z</time>
      </trkpt>
      <trkpt lat="48.49222" lon="-3.75699">
        <ele>270</ele>
        <time>2021-07-08T09:30:38Z</time>
      </trkpt>
      <trkpt lat="48.49218" lon="-3.75699">
        <ele>270</ele>
        <time>2021-07-08T09:30:39Z</time>
      </trkpt>
      <trkpt lat="48.49215" lon="-3.75698">
        <ele>269</ele>
        <time>2021-07-08T09:30:40Z</time>
      </trkpt>
      <trkpt lat="48.49211" lon="-3.75697">
        <ele>269</ele>
        <time>2021-07-08T09:30:41Z</time>
      </trkpt>
      <trkpt lat="48.49208" lon="-3.75696">
        <ele>269</ele>
        <time>2021-07-08T09:30:42Z</time>
      </trkpt>
      <trkpt lat="48.49205" lon="-3.75695">
        <ele>269</ele>
        <time>2021-07-08T09:30:43Z</time>
      </trkpt>
      <trkpt lat="48.49201" lon="-3.75694">
        <ele>270</ele>
        <time>2021-07-08T09:30:44Z</time>
      </trkpt>
      <trkpt lat="48.49197" lon="-3.75694">
        <ele>270</ele>
        <time>2021-07-08T09:30:45Z</time>
      </trkpt>
      <trkpt lat="48.49193" lon="-3.75693">
        <ele>270</ele>
        <time>2021-07-08T09:30:45Z</time>
      </trkpt>
      <trkpt lat="48.4919" lon="-3.75692">
        <ele>270</ele>
        <time>2021-07-08T09:30:47Z</time>
      </trkpt>
      <trkpt lat="48.49186" lon="-3.75691">
        <ele>270</ele>
        <time>2021-07-08T09:30:48Z</time>
      </trkpt>
      <trkpt lat="48.49182" lon="-3.7569">
        <ele>271</ele>
        <time>2021-07-08T09:30:48Z</time>
      </trkpt>
      <trkpt lat="48.49179" lon="-3.7569">
        <ele>271</ele>
        <time>2021-07-08T09:30:50Z</time>
      </trkpt>
      <trkpt lat="48.49176" lon="-3.75688">
        <ele>271</ele>
        <time>2021-07-08T09:30:51Z</time>
      </trkpt>
      <trkpt lat="48.49173" lon="-3.75687">
        <ele>272</ele>
        <time>2021-07-08T09:30:52Z</time>
      </trkpt>
      <trkpt lat="48.49168" lon="-3.75686">
        <ele>271</ele>
        <time>2021-07-08T09:30:54Z</time>
      </trkpt>
      <trkpt lat="48.49156" lon="-3.75685">
        <ele>271</ele>
        <time>2021-07-08T09:30:58Z</time>
      </trkpt>
      <trkpt lat="48.49149" lon="-3.75684">
        <ele>272</ele>
        <time>2021-07-08T09:31:00Z</time>
      </trkpt>
      <trkpt lat="48.49146" lon="-3.75684">
        <ele>272</ele>
        <time>2021-07-08T09:31:00Z</time>
      </trkpt>
      <trkpt lat="48.49143" lon="-3.75685">
        <ele>272</ele>
        <time>2021-07-08T09:31:02Z</time>
      </trkpt>
      <trkpt lat="48.4914" lon="-3.75684">
        <ele>272</ele>
        <time>2021-07-08T09:31:03Z</time>
      </trkpt>
      <trkpt lat="48.49137" lon="-3.75684">
        <ele>272</ele>
        <time>2021-07-08T09:31:04Z</time>
      </trkpt>
      <trkpt lat="48.49133" lon="-3.75684">
        <ele>273</ele>
        <time>2021-07-08T09:31:04Z</time>
      </trkpt>
      <trkpt lat="48.49129" lon="-3.75684">
        <ele>273</ele>
        <time>2021-07-08T09:31:06Z</time>
      </trkpt>
      <trkpt lat="48.49126" lon="-3.75684">
        <ele>273</ele>
        <time>2021-07-08T09:31:07Z</time>
      </trkpt>
      <trkpt lat="48.49122" lon="-3.75684">
        <ele>273</ele>
        <time>2021-07-08T09:31:08Z</time>
      </trkpt>
      <trkpt lat="48.49118" lon="-3.75685">
        <ele>273</ele>
        <time>2021-07-08T09:31:09Z</time>
      </trkpt>
      <trkpt lat="48.49115" lon="-3.75686">
        <ele>273</ele>
        <time>2021-07-08T09:31:10Z</time>
      </trkpt>
      <trkpt lat="48.49111" lon="-3.75687">
        <ele>273</ele>
        <time>2021-07-08T09:31:11Z</time>
      </trkpt>
      <trkpt lat="48.49107" lon="-3.75688">
        <ele>273</ele>
        <time>2021-07-08T09:31:12Z</time>
      </trkpt>
      <trkpt lat="48.49104" lon="-3.75688">
        <ele>273</ele>
        <time>2021-07-08T09:31:13Z</time>
      </trkpt>
      <trkpt lat="48.49101" lon="-3.75688">
        <ele>273</ele>
        <time>2021-07-08T09:31:14Z</time>
      </trkpt>
      <trkpt lat="48.49098" lon="-3.75689">
        <ele>273</ele>
        <time>2021-07-08T09:31:15Z</time>
      </trkpt>
      <trkpt lat="48.49095" lon="-3.7569">
        <ele>273</ele>
        <time>2021-07-08T09:31:16Z</time>
      </trkpt>
      <trkpt lat="48.49092" lon="-3.7569">
        <ele>273</ele>
        <time>2021-07-08T09:31:17Z</time>
      </trkpt>
      <trkpt lat="48.49089" lon="-3.7569">
        <ele>273</ele>
        <time>2021-07-08T09:31:18Z</time>
      </trkpt>
      <trkpt lat="48.49086" lon="-3.7569">
        <ele>273</ele>
        <time>2021-07-08T09:31:19Z</time>
      </trkpt>
      <trkpt lat="48.49082" lon="-3.75689">
        <ele>273</ele>
        <time>2021-07-08T09:31:20Z</time>
      </trkpt>
      <trkpt lat="48.4908" lon="-3.75688">
        <ele>273</ele>
        <time>2021-07-08T09:31:21Z</time>
      </trkpt>
      <trkpt lat="48.49077" lon="-3.75688">
        <ele>273</ele>
        <time>2021-07-08T09:31:22Z</time>
      </trkpt>
      <trkpt lat="48.49074" lon="-3.75687">
        <ele>273</ele>
        <time>2021-07-08T09:31:23Z</time>
      </trkpt>
      <trkpt lat="48.49071" lon="-3.75687">
        <ele>273</ele>
        <time>2021-07-08T09:31:23Z</time>
      </trkpt>
      <trkpt lat="48.49067" lon="-3.75687">
        <ele>273</ele>
        <time>2021-07-08T09:31:25Z</time>
      </trkpt>
      <trkpt lat="48.49063" lon="-3.75687">
        <ele>273</ele>
        <time>2021-07-08T09:31:26Z</time>
      </trkpt>
      <trkpt lat="48.49059" lon="-3.75687">
        <ele>273</ele>
        <time>2021-07-08T09:31:27Z</time>
      </trkpt>
      <trkpt lat="48.49056" lon="-3.75688">
        <ele>273</ele>
        <time>2021-07-08T09:31:28Z</time>
      </trkpt>
      <trkpt lat="48.49053" lon="-3.75688">
        <ele>273</ele>
        <time>2021-07-08T09:31:29Z</time>
      </trkpt>
      <trkpt lat="48.49049" lon="-3.75689">
        <ele>273</ele>
        <time>2021-07-08T09:31:30Z</time>
      </trkpt>
      <trkpt lat="48.49045" lon="-3.75691">
        <ele>273</ele>
        <time>2021-07-08T09:31:31Z</time>
      </trkpt>
      <trkpt lat="48.49042" lon="-3.75692">
        <ele>274</ele>
        <time>2021-07-08T09:31:32Z</time>
      </trkpt>
      <trkpt lat="48.49038" lon="-3.75694">
        <ele>274</ele>
        <time>2021-07-08T09:31:33Z</time>
      </trkpt>
      <trkpt lat="48.49035" lon="-3.75695">
        <ele>274</ele>
        <time>2021-07-08T09:31:34Z</time>
      </trkpt>
      <trkpt lat="48.49032" lon="-3.75695">
        <ele>274</ele>
        <time>2021-07-08T09:31:35Z</time>
      </trkpt>
      <trkpt lat="48.49029" lon="-3.75695">
        <ele>274</ele>
        <time>2021-07-08T09:31:36Z</time>
      </trkpt>
      <trkpt lat="48.49027" lon="-3.75695">
        <ele>274</ele>
        <time>2021-07-08T09:31:37Z</time>
      </trkpt>
      <trkpt lat="48.49024" lon="-3.75695">
        <ele>274</ele>
        <time>2021-07-08T09:31:38Z</time>
      </trkpt>
      <trkpt lat="48.49021" lon="-3.75696">
        <ele>275</ele>
        <time>2021-07-08T09:31:39Z</time>
      </trkpt>
      <trkpt lat="48.49019" lon="-3.75696">
        <ele>275</ele>
        <time>2021-07-08T09:31:40Z</time>
      </trkpt>
      <trkpt lat="48.49016" lon="-3.75697">
        <ele>275</ele>
        <time>2021-07-08T09:31:41Z</time>
      </trkpt>
      <trkpt lat="48.49014" lon="-3.75697">
        <ele>275</ele>
        <time>2021-07-08T09:31:42Z</time>
      </trkpt>
      <trkpt lat="48.49012" lon="-3.75698">
        <ele>275</ele>
        <time>2021-07-08T09:31:42Z</time>
      </trkpt>
      <trkpt lat="48.4901" lon="-3.75699">
        <ele>275</ele>
        <time>2021-07-08T09:31:44Z</time>
      </trkpt>
      <trkpt lat="48.49007" lon="-3.757">
        <ele>275</ele>
        <time>2021-07-08T09:31:45Z</time>
      </trkpt>
      <trkpt lat="48.49004" lon="-3.75701">
        <ele>275</ele>
        <time>2021-07-08T09:31:46Z</time>
      </trkpt>
      <trkpt lat="48.49002" lon="-3.75702">
        <ele>275</ele>
        <time>2021-07-08T09:31:47Z</time>
      </trkpt>
      <trkpt lat="48.48999" lon="-3.75703">
        <ele>275</ele>
        <time>2021-07-08T09:31:48Z</time>
      </trkpt>
      <trkpt lat="48.48996" lon="-3.75703">
        <ele>275</ele>
        <time>2021-07-08T09:31:49Z</time>
      </trkpt>
      <trkpt lat="48.48993" lon="-3.75704">
        <ele>276</ele>
        <time>2021-07-08T09:31:50Z</time>
      </trkpt>
      <trkpt lat="48.4899" lon="-3.75705">
        <ele>276</ele>
        <time>2021-07-08T09:31:51Z</time>
      </trkpt>
      <trkpt lat="48.48987" lon="-3.75706">
        <ele>276</ele>
        <time>2021-07-08T09:31:52Z</time>
      </trkpt>
      <trkpt lat="48.48985" lon="-3.75707">
        <ele>276</ele>
        <time>2021-07-08T09:31:53Z</time>
      </trkpt>
      <trkpt lat="48.48982" lon="-3.75707">
        <ele>276</ele>
        <time>2021-07-08T09:31:54Z</time>
      </trkpt>
      <trkpt lat="48.48979" lon="-3.75709">
        <ele>276</ele>
        <time>2021-07-08T09:31:55Z</time>
      </trkpt>
      <trkpt lat="48.48976" lon="-3.7571">
        <ele>276</ele>
        <time>2021-07-08T09:31:56Z</time>
      </trkpt>
      <trkpt lat="48.48973" lon="-3.75711">
        <ele>276</ele>
        <time>2021-07-08T09:31:57Z</time>
      </trkpt>
      <trkpt lat="48.48971" lon="-3.75711">
        <ele>276</ele>
        <time>2021-07-08T09:31:58Z</time>
      </trkpt>
      <trkpt lat="48.48969" lon="-3.75712">
        <ele>276</ele>
        <time>2021-07-08T09:31:59Z</time>
      </trkpt>
      <trkpt lat="48.48966" lon="-3.75714">
        <ele>276</ele>
        <time>2021-07-08T09:32:00Z</time>
      </trkpt>
      <trkpt lat="48.48963" lon="-3.75715">
        <ele>276</ele>
        <time>2021-07-08T09:32:01Z</time>
      </trkpt>
      <trkpt lat="48.48959" lon="-3.75717">
        <ele>277</ele>
        <time>2021-07-08T09:32:01Z</time>
      </trkpt>
      <trkpt lat="48.48956" lon="-3.75719">
        <ele>277</ele>
        <time>2021-07-08T09:32:03Z</time>
      </trkpt>
      <trkpt lat="48.48952" lon="-3.75723">
        <ele>277</ele>
        <time>2021-07-08T09:32:04Z</time>
      </trkpt>
      <trkpt lat="48.48948" lon="-3.75726">
        <ele>277</ele>
        <time>2021-07-08T09:32:05Z</time>
      </trkpt>
      <trkpt lat="48.48945" lon="-3.75728">
        <ele>277</ele>
        <time>2021-07-08T09:32:06Z</time>
      </trkpt>
      <trkpt lat="48.48942" lon="-3.7573">
        <ele>277</ele>
        <time>2021-07-08T09:32:07Z</time>
      </trkpt>
      <trkpt lat="48.4894" lon="-3.75732">
        <ele>277</ele>
        <time>2021-07-08T09:32:08Z</time>
      </trkpt>
      <trkpt lat="48.48938" lon="-3.75733">
        <ele>277</ele>
        <time>2021-07-08T09:32:09Z</time>
      </trkpt>
      <trkpt lat="48.48935" lon="-3.75735">
        <ele>277</ele>
        <time>2021-07-08T09:32:10Z</time>
      </trkpt>
      <trkpt lat="48.48933" lon="-3.75736">
        <ele>277</ele>
        <time>2021-07-08T09:32:11Z</time>
      </trkpt>
      <trkpt lat="48.4893" lon="-3.75738">
        <ele>277</ele>
        <time>2021-07-08T09:32:12Z</time>
      </trkpt>
      <trkpt lat="48.48926" lon="-3.7574">
        <ele>277</ele>
        <time>2021-07-08T09:32:13Z</time>
      </trkpt>
      <trkpt lat="48.48924" lon="-3.75742">
        <ele>277</ele>
        <time>2021-07-08T09:32:14Z</time>
      </trkpt>
      <trkpt lat="48.48921" lon="-3.75744">
        <ele>277</ele>
        <time>2021-07-08T09:32:15Z</time>
      </trkpt>
      <trkpt lat="48.48916" lon="-3.75748">
        <ele>277</ele>
        <time>2021-07-08T09:32:16Z</time>
      </trkpt>
      <trkpt lat="48.48912" lon="-3.75751">
        <ele>277</ele>
        <time>2021-07-08T09:32:17Z</time>
      </trkpt>
      <trkpt lat="48.48909" lon="-3.75754">
        <ele>278</ele>
        <time>2021-07-08T09:32:18Z</time>
      </trkpt>
      <trkpt lat="48.48905" lon="-3.75756">
        <ele>278</ele>
        <time>2021-07-08T09:32:19Z</time>
      </trkpt>
      <trkpt lat="48.48899" lon="-3.75761">
        <ele>278</ele>
        <time>2021-07-08T09:32:20Z</time>
      </trkpt>
      <trkpt lat="48.48896" lon="-3.75764">
        <ele>278</ele>
        <time>2021-07-08T09:32:22Z</time>
      </trkpt>
      <trkpt lat="48.48893" lon="-3.75766">
        <ele>278</ele>
        <time>2021-07-08T09:32:23Z</time>
      </trkpt>
      <trkpt lat="48.48891" lon="-3.75768">
        <ele>278</ele>
        <time>2021-07-08T09:32:24Z</time>
      </trkpt>
      <trkpt lat="48.48889" lon="-3.7577">
        <ele>278</ele>
        <time>2021-07-08T09:32:25Z</time>
      </trkpt>
      <trkpt lat="48.48886" lon="-3.75772">
        <ele>278</ele>
        <time>2021-07-08T09:32:26Z</time>
      </trkpt>
      <trkpt lat="48.48884" lon="-3.75773">
        <ele>278</ele>
        <time>2021-07-08T09:32:26Z</time>
      </trkpt>
      <trkpt lat="48.48882" lon="-3.75775">
        <ele>278</ele>
        <time>2021-07-08T09:32:28Z</time>
      </trkpt>
      <trkpt lat="48.48879" lon="-3.75778">
        <ele>278</ele>
        <time>2021-07-08T09:32:29Z</time>
      </trkpt>
      <trkpt lat="48.48876" lon="-3.7578">
        <ele>278</ele>
        <time>2021-07-08T09:32:30Z</time>
      </trkpt>
      <trkpt lat="48.48873" lon="-3.75782">
        <ele>278</ele>
        <time>2021-07-08T09:32:31Z</time>
      </trkpt>
      <trkpt lat="48.4887" lon="-3.75783">
        <ele>278</ele>
        <time>2021-07-08T09:32:32Z</time>
      </trkpt>
      <trkpt lat="48.48867" lon="-3.75785">
        <ele>278</ele>
        <time>2021-07-08T09:32:33Z</time>
      </trkpt>
      <trkpt lat="48.48862" lon="-3.75788">
        <ele>278</ele>
        <time>2021-07-08T09:32:34Z</time>
      </trkpt>
      <trkpt lat="48.48857" lon="-3.75792">
        <ele>278</ele>
        <time>2021-07-08T09:32:35Z</time>
      </trkpt>
      <trkpt lat="48.48855" lon="-3.75795">
        <ele>278</ele>
        <time>2021-07-08T09:32:36Z</time>
      </trkpt>
      <trkpt lat="48.48852" lon="-3.75798">
        <ele>278</ele>
        <time>2021-07-08T09:32:37Z</time>
      </trkpt>
      <trkpt lat="48.48849" lon="-3.758">
        <ele>278</ele>
        <time>2021-07-08T09:32:38Z</time>
      </trkpt>
      <trkpt lat="48.48846" lon="-3.75802">
        <ele>279</ele>
        <time>2021-07-08T09:32:39Z</time>
      </trkpt>
      <trkpt lat="48.48844" lon="-3.75804">
        <ele>279</ele>
        <time>2021-07-08T09:32:39Z</time>
      </trkpt>
      <trkpt lat="48.48842" lon="-3.75805">
        <ele>279</ele>
        <time>2021-07-08T09:32:41Z</time>
      </trkpt>
      <trkpt lat="48.48837" lon="-3.75809">
        <ele>279</ele>
        <time>2021-07-08T09:32:43Z</time>
      </trkpt>
      <trkpt lat="48.48829" lon="-3.75815">
        <ele>279</ele>
        <time>2021-07-08T09:32:45Z</time>
      </trkpt>
      <trkpt lat="48.48822" lon="-3.7582">
        <ele>279</ele>
        <time>2021-07-08T09:32:49Z</time>
      </trkpt>
      <trkpt lat="48.48819" lon="-3.75822">
        <ele>280</ele>
        <time>2021-07-08T09:32:50Z</time>
      </trkpt>
      <trkpt lat="48.48816" lon="-3.75823">
        <ele>280</ele>
        <time>2021-07-08T09:32:51Z</time>
      </trkpt>
      <trkpt lat="48.48814" lon="-3.75825">
        <ele>280</ele>
        <time>2021-07-08T09:32:52Z</time>
      </trkpt>
      <trkpt lat="48.48809" lon="-3.75829">
        <ele>280</ele>
        <time>2021-07-08T09:32:54Z</time>
      </trkpt>
      <trkpt lat="48.48807" lon="-3.7583">
        <ele>280</ele>
        <time>2021-07-08T09:32:55Z</time>
      </trkpt>
      <trkpt lat="48.48802" lon="-3.75833">
        <ele>280</ele>
        <time>2021-07-08T09:32:57Z</time>
      </trkpt>
      <trkpt lat="48.48792" lon="-3.7584">
        <ele>280</ele>
        <time>2021-07-08T09:33:01Z</time>
      </trkpt>
      <trkpt lat="48.48783" lon="-3.75846">
        <ele>280</ele>
        <time>2021-07-08T09:33:04Z</time>
      </trkpt>
      <trkpt lat="48.48776" lon="-3.75852">
        <ele>281</ele>
        <time>2021-07-08T09:33:05Z</time>
      </trkpt>
      <trkpt lat="48.4877" lon="-3.75856">
        <ele>281</ele>
        <time>2021-07-08T09:33:06Z</time>
      </trkpt>
      <trkpt lat="48.48765" lon="-3.75859">
        <ele>281</ele>
        <time>2021-07-08T09:33:07Z</time>
      </trkpt>
      <trkpt lat="48.4876" lon="-3.75862">
        <ele>281</ele>
        <time>2021-07-08T09:33:08Z</time>
      </trkpt>
      <trkpt lat="48.48756" lon="-3.75865">
        <ele>280</ele>
        <time>2021-07-08T09:33:09Z</time>
      </trkpt>
      <trkpt lat="48.48752" lon="-3.75867">
        <ele>280</ele>
        <time>2021-07-08T09:33:10Z</time>
      </trkpt>
      <trkpt lat="48.48748" lon="-3.75868">
        <ele>281</ele>
        <time>2021-07-08T09:33:11Z</time>
      </trkpt>
      <trkpt lat="48.48744" lon="-3.7587">
        <ele>281</ele>
        <time>2021-07-08T09:33:12Z</time>
      </trkpt>
      <trkpt lat="48.48741" lon="-3.75871">
        <ele>281</ele>
        <time>2021-07-08T09:33:13Z</time>
      </trkpt>
      <trkpt lat="48.48738" lon="-3.75872">
        <ele>281</ele>
        <time>2021-07-08T09:33:14Z</time>
      </trkpt>
      <trkpt lat="48.48735" lon="-3.75873">
        <ele>282</ele>
        <time>2021-07-08T09:33:15Z</time>
      </trkpt>
      <trkpt lat="48.48733" lon="-3.75875">
        <ele>282</ele>
        <time>2021-07-08T09:33:16Z</time>
      </trkpt>
      <trkpt lat="48.4873" lon="-3.75876">
        <ele>282</ele>
        <time>2021-07-08T09:33:17Z</time>
      </trkpt>
      <trkpt lat="48.48728" lon="-3.75877">
        <ele>282</ele>
        <time>2021-07-08T09:33:17Z</time>
      </trkpt>
      <trkpt lat="48.48725" lon="-3.75878">
        <ele>282</ele>
        <time>2021-07-08T09:33:19Z</time>
      </trkpt>
      <trkpt lat="48.48722" lon="-3.75879">
        <ele>282</ele>
        <time>2021-07-08T09:33:20Z</time>
      </trkpt>
      <trkpt lat="48.48719" lon="-3.7588">
        <ele>281</ele>
        <time>2021-07-08T09:33:21Z</time>
      </trkpt>
      <trkpt lat="48.48716" lon="-3.75881">
        <ele>281</ele>
        <time>2021-07-08T09:33:22Z</time>
      </trkpt>
      <trkpt lat="48.48704" lon="-3.75885">
        <ele>282</ele>
        <time>2021-07-08T09:33:25Z</time>
      </trkpt>
      <trkpt lat="48.48699" lon="-3.75886">
        <ele>282</ele>
        <time>2021-07-08T09:33:26Z</time>
      </trkpt>
      <trkpt lat="48.48695" lon="-3.75887">
        <ele>282</ele>
        <time>2021-07-08T09:33:27Z</time>
      </trkpt>
      <trkpt lat="48.4869" lon="-3.75889">
        <ele>282</ele>
        <time>2021-07-08T09:33:28Z</time>
      </trkpt>
      <trkpt lat="48.48686" lon="-3.75891">
        <ele>282</ele>
        <time>2021-07-08T09:33:29Z</time>
      </trkpt>
      <trkpt lat="48.48682" lon="-3.75893">
        <ele>282</ele>
        <time>2021-07-08T09:33:30Z</time>
      </trkpt>
      <trkpt lat="48.48678" lon="-3.75894">
        <ele>282</ele>
        <time>2021-07-08T09:33:31Z</time>
      </trkpt>
      <trkpt lat="48.48675" lon="-3.75895">
        <ele>282</ele>
        <time>2021-07-08T09:33:32Z</time>
      </trkpt>
      <trkpt lat="48.48671" lon="-3.75896">
        <ele>282</ele>
        <time>2021-07-08T09:33:33Z</time>
      </trkpt>
      <trkpt lat="48.48668" lon="-3.75897">
        <ele>282</ele>
        <time>2021-07-08T09:33:34Z</time>
      </trkpt>
      <trkpt lat="48.48665" lon="-3.75898">
        <ele>282</ele>
        <time>2021-07-08T09:33:35Z</time>
      </trkpt>
      <trkpt lat="48.48662" lon="-3.75899">
        <ele>282</ele>
        <time>2021-07-08T09:33:36Z</time>
      </trkpt>
      <trkpt lat="48.48658" lon="-3.759">
        <ele>282</ele>
        <time>2021-07-08T09:33:36Z</time>
      </trkpt>
      <trkpt lat="48.48655" lon="-3.75901">
        <ele>282</ele>
        <time>2021-07-08T09:33:38Z</time>
      </trkpt>
      <trkpt lat="48.48653" lon="-3.75901">
        <ele>282</ele>
        <time>2021-07-08T09:33:39Z</time>
      </trkpt>
      <trkpt lat="48.4865" lon="-3.75901">
        <ele>283</ele>
        <time>2021-07-08T09:33:40Z</time>
      </trkpt>
      <trkpt lat="48.48647" lon="-3.75902">
        <ele>283</ele>
        <time>2021-07-08T09:33:41Z</time>
      </trkpt>
      <trkpt lat="48.48645" lon="-3.75902">
        <ele>283</ele>
        <time>2021-07-08T09:33:42Z</time>
      </trkpt>
      <trkpt lat="48.48642" lon="-3.75902">
        <ele>283</ele>
        <time>2021-07-08T09:33:43Z</time>
      </trkpt>
      <trkpt lat="48.48639" lon="-3.75901">
        <ele>283</ele>
        <time>2021-07-08T09:33:44Z</time>
      </trkpt>
      <trkpt lat="48.48636" lon="-3.75902">
        <ele>283</ele>
        <time>2021-07-08T09:33:45Z</time>
      </trkpt>
      <trkpt lat="48.48627" lon="-3.75901">
        <ele>283</ele>
        <time>2021-07-08T09:33:49Z</time>
      </trkpt>
      <trkpt lat="48.48624" lon="-3.759">
        <ele>283</ele>
        <time>2021-07-08T09:33:50Z</time>
      </trkpt>
      <trkpt lat="48.48621" lon="-3.759">
        <ele>284</ele>
        <time>2021-07-08T09:33:51Z</time>
      </trkpt>
      <trkpt lat="48.48612" lon="-3.75898">
        <ele>284</ele>
        <time>2021-07-08T09:33:54Z</time>
      </trkpt>
      <trkpt lat="48.4861" lon="-3.75898">
        <ele>284</ele>
        <time>2021-07-08T09:33:55Z</time>
      </trkpt>
      <trkpt lat="48.48601" lon="-3.75895">
        <ele>285</ele>
        <time>2021-07-08T09:33:59Z</time>
      </trkpt>
      <trkpt lat="48.48597" lon="-3.75894">
        <ele>285</ele>
        <time>2021-07-08T09:34:00Z</time>
      </trkpt>
      <trkpt lat="48.48589" lon="-3.75893">
        <ele>285</ele>
        <time>2021-07-08T09:34:02Z</time>
      </trkpt>
      <trkpt lat="48.48586" lon="-3.75892">
        <ele>285</ele>
        <time>2021-07-08T09:34:03Z</time>
      </trkpt>
      <trkpt lat="48.48575" lon="-3.75891">
        <ele>285</ele>
        <time>2021-07-08T09:34:05Z</time>
      </trkpt>
      <trkpt lat="48.48564" lon="-3.75889">
        <ele>285</ele>
        <time>2021-07-08T09:34:09Z</time>
      </trkpt>
      <trkpt lat="48.48553" lon="-3.75887">
        <ele>285</ele>
        <time>2021-07-08T09:34:12Z</time>
      </trkpt>
      <trkpt lat="48.48544" lon="-3.75884">
        <ele>285</ele>
        <time>2021-07-08T09:34:14Z</time>
      </trkpt>
      <trkpt lat="48.48531" lon="-3.75885">
        <ele>285</ele>
        <time>2021-07-08T09:34:17Z</time>
      </trkpt>
      <trkpt lat="48.48521" lon="-3.75883">
        <ele>286</ele>
        <time>2021-07-08T09:34:21Z</time>
      </trkpt>
      <trkpt lat="48.48509" lon="-3.75878">
        <ele>286</ele>
        <time>2021-07-08T09:34:24Z</time>
      </trkpt>
      <trkpt lat="48.48498" lon="-3.75875">
        <ele>286</ele>
        <time>2021-07-08T09:34:27Z</time>
      </trkpt>
      <trkpt lat="48.48488" lon="-3.7587">
        <ele>286</ele>
        <time>2021-07-08T09:34:29Z</time>
      </trkpt>
      <trkpt lat="48.48476" lon="-3.75866">
        <ele>286</ele>
        <time>2021-07-08T09:34:33Z</time>
      </trkpt>
      <trkpt lat="48.48469" lon="-3.75864">
        <ele>286</ele>
        <time>2021-07-08T09:34:35Z</time>
      </trkpt>
      <trkpt lat="48.4846" lon="-3.75861">
        <ele>286</ele>
        <time>2021-07-08T09:34:36Z</time>
      </trkpt>
      <trkpt lat="48.48456" lon="-3.7586">
        <ele>286</ele>
        <time>2021-07-08T09:34:38Z</time>
      </trkpt>
      <trkpt lat="48.48453" lon="-3.75858">
        <ele>286</ele>
        <time>2021-07-08T09:34:39Z</time>
      </trkpt>
      <trkpt lat="48.4845" lon="-3.75855">
        <ele>286</ele>
        <time>2021-07-08T09:34:40Z</time>
      </trkpt>
      <trkpt lat="48.48447" lon="-3.75853">
        <ele>286</ele>
        <time>2021-07-08T09:34:41Z</time>
      </trkpt>
      <trkpt lat="48.48444" lon="-3.75852">
        <ele>287</ele>
        <time>2021-07-08T09:34:42Z</time>
      </trkpt>
      <trkpt lat="48.48442" lon="-3.7585">
        <ele>287</ele>
        <time>2021-07-08T09:34:43Z</time>
      </trkpt>
      <trkpt lat="48.48438" lon="-3.75849">
        <ele>287</ele>
        <time>2021-07-08T09:34:44Z</time>
      </trkpt>
      <trkpt lat="48.48434" lon="-3.75847">
        <ele>287</ele>
        <time>2021-07-08T09:34:45Z</time>
      </trkpt>
      <trkpt lat="48.48431" lon="-3.75845">
        <ele>287</ele>
        <time>2021-07-08T09:34:46Z</time>
      </trkpt>
      <trkpt lat="48.48427" lon="-3.75843">
        <ele>287</ele>
        <time>2021-07-08T09:34:47Z</time>
      </trkpt>
      <trkpt lat="48.48424" lon="-3.75841">
        <ele>287</ele>
        <time>2021-07-08T09:34:48Z</time>
      </trkpt>
      <trkpt lat="48.48421" lon="-3.75839">
        <ele>287</ele>
        <time>2021-07-08T09:34:49Z</time>
      </trkpt>
      <trkpt lat="48.48418" lon="-3.75837">
        <ele>287</ele>
        <time>2021-07-08T09:34:50Z</time>
      </trkpt>
      <trkpt lat="48.48415" lon="-3.75835">
        <ele>287</ele>
        <time>2021-07-08T09:34:51Z</time>
      </trkpt>
      <trkpt lat="48.48412" lon="-3.75834">
        <ele>287</ele>
        <time>2021-07-08T09:34:52Z</time>
      </trkpt>
      <trkpt lat="48.48409" lon="-3.75832">
        <ele>288</ele>
        <time>2021-07-08T09:34:52Z</time>
      </trkpt>
      <trkpt lat="48.48407" lon="-3.7583">
        <ele>288</ele>
        <time>2021-07-08T09:34:54Z</time>
      </trkpt>
      <trkpt lat="48.48404" lon="-3.75828">
        <ele>288</ele>
        <time>2021-07-08T09:34:55Z</time>
      </trkpt>
      <trkpt lat="48.48401" lon="-3.75826">
        <ele>288</ele>
        <time>2021-07-08T09:34:56Z</time>
      </trkpt>
      <trkpt lat="48.48398" lon="-3.75825">
        <ele>288</ele>
        <time>2021-07-08T09:34:57Z</time>
      </trkpt>
      <trkpt lat="48.48395" lon="-3.75823">
        <ele>288</ele>
        <time>2021-07-08T09:34:58Z</time>
      </trkpt>
      <trkpt lat="48.48392" lon="-3.75822">
        <ele>288</ele>
        <time>2021-07-08T09:34:59Z</time>
      </trkpt>
      <trkpt lat="48.4839" lon="-3.7582">
        <ele>288</ele>
        <time>2021-07-08T09:35:00Z</time>
      </trkpt>
      <trkpt lat="48.48387" lon="-3.75818">
        <ele>289</ele>
        <time>2021-07-08T09:35:01Z</time>
      </trkpt>
      <trkpt lat="48.48384" lon="-3.75816">
        <ele>289</ele>
        <time>2021-07-08T09:35:02Z</time>
      </trkpt>
      <trkpt lat="48.48382" lon="-3.75814">
        <ele>289</ele>
        <time>2021-07-08T09:35:03Z</time>
      </trkpt>
      <trkpt lat="48.48379" lon="-3.75812">
        <ele>289</ele>
        <time>2021-07-08T09:35:04Z</time>
      </trkpt>
      <trkpt lat="48.48376" lon="-3.7581">
        <ele>289</ele>
        <time>2021-07-08T09:35:05Z</time>
      </trkpt>
      <trkpt lat="48.48374" lon="-3.75808">
        <ele>289</ele>
        <time>2021-07-08T09:35:06Z</time>
      </trkpt>
      <trkpt lat="48.48371" lon="-3.75806">
        <ele>289</ele>
        <time>2021-07-08T09:35:07Z</time>
      </trkpt>
      <trkpt lat="48.48369" lon="-3.75804">
        <ele>289</ele>
        <time>2021-07-08T09:35:08Z</time>
      </trkpt>
      <trkpt lat="48.48366" lon="-3.75802">
        <ele>289</ele>
        <time>2021-07-08T09:35:09Z</time>
      </trkpt>
      <trkpt lat="48.48364" lon="-3.75801">
        <ele>289</ele>
        <time>2021-07-08T09:35:10Z</time>
      </trkpt>
      <trkpt lat="48.48361" lon="-3.758">
        <ele>289</ele>
        <time>2021-07-08T09:35:11Z</time>
      </trkpt>
      <trkpt lat="48.48359" lon="-3.75798">
        <ele>289</ele>
        <time>2021-07-08T09:35:12Z</time>
      </trkpt>
      <trkpt lat="48.48356" lon="-3.75797">
        <ele>289</ele>
        <time>2021-07-08T09:35:13Z</time>
      </trkpt>
      <trkpt lat="48.48354" lon="-3.75795">
        <ele>289</ele>
        <time>2021-07-08T09:35:14Z</time>
      </trkpt>
      <trkpt lat="48.48352" lon="-3.75794">
        <ele>289</ele>
        <time>2021-07-08T09:35:15Z</time>
      </trkpt>
      <trkpt lat="48.4835" lon="-3.75792">
        <ele>289</ele>
        <time>2021-07-08T09:35:16Z</time>
      </trkpt>
      <trkpt lat="48.48348" lon="-3.75791">
        <ele>289</ele>
        <time>2021-07-08T09:35:17Z</time>
      </trkpt>
      <trkpt lat="48.48346" lon="-3.75789">
        <ele>289</ele>
        <time>2021-07-08T09:35:18Z</time>
      </trkpt>
      <trkpt lat="48.48344" lon="-3.75788">
        <ele>290</ele>
        <time>2021-07-08T09:35:19Z</time>
      </trkpt>
      <trkpt lat="48.48342" lon="-3.75785">
        <ele>290</ele>
        <time>2021-07-08T09:35:20Z</time>
      </trkpt>
      <trkpt lat="48.4834" lon="-3.75782">
        <ele>290</ele>
        <time>2021-07-08T09:35:21Z</time>
      </trkpt>
      <trkpt lat="48.48338" lon="-3.7578">
        <ele>290</ele>
        <time>2021-07-08T09:35:22Z</time>
      </trkpt>
      <trkpt lat="48.48335" lon="-3.75778">
        <ele>290</ele>
        <time>2021-07-08T09:35:23Z</time>
      </trkpt>
      <trkpt lat="48.48332" lon="-3.75776">
        <ele>290</ele>
        <time>2021-07-08T09:35:24Z</time>
      </trkpt>
      <trkpt lat="48.48329" lon="-3.75774">
        <ele>290</ele>
        <time>2021-07-08T09:35:25Z</time>
      </trkpt>
      <trkpt lat="48.48326" lon="-3.75773">
        <ele>290</ele>
        <time>2021-07-08T09:35:26Z</time>
      </trkpt>
      <trkpt lat="48.48322" lon="-3.75771">
        <ele>290</ele>
        <time>2021-07-08T09:35:27Z</time>
      </trkpt>
      <trkpt lat="48.4832" lon="-3.75769">
        <ele>290</ele>
        <time>2021-07-08T09:35:28Z</time>
      </trkpt>
      <trkpt lat="48.48317" lon="-3.75767">
        <ele>291</ele>
        <time>2021-07-08T09:35:29Z</time>
      </trkpt>
      <trkpt lat="48.48314" lon="-3.75765">
        <ele>291</ele>
        <time>2021-07-08T09:35:30Z</time>
      </trkpt>
      <trkpt lat="48.48311" lon="-3.75763">
        <ele>291</ele>
        <time>2021-07-08T09:35:30Z</time>
      </trkpt>
      <trkpt lat="48.48308" lon="-3.75761">
        <ele>291</ele>
        <time>2021-07-08T09:35:32Z</time>
      </trkpt>
      <trkpt lat="48.48305" lon="-3.75759">
        <ele>291</ele>
        <time>2021-07-08T09:35:33Z</time>
      </trkpt>
      <trkpt lat="48.48302" lon="-3.75757">
        <ele>291</ele>
        <time>2021-07-08T09:35:34Z</time>
      </trkpt>
      <trkpt lat="48.48299" lon="-3.75756">
        <ele>291</ele>
        <time>2021-07-08T09:35:35Z</time>
      </trkpt>
      <trkpt lat="48.48296" lon="-3.75754">
        <ele>291</ele>
        <time>2021-07-08T09:35:36Z</time>
      </trkpt>
      <trkpt lat="48.48293" lon="-3.75753">
        <ele>291</ele>
        <time>2021-07-08T09:35:37Z</time>
      </trkpt>
      <trkpt lat="48.4829" lon="-3.75752">
        <ele>291</ele>
        <time>2021-07-08T09:35:38Z</time>
      </trkpt>
      <trkpt lat="48.48287" lon="-3.7575">
        <ele>291</ele>
        <time>2021-07-08T09:35:38Z</time>
      </trkpt>
      <trkpt lat="48.48285" lon="-3.75748">
        <ele>291</ele>
        <time>2021-07-08T09:35:40Z</time>
      </trkpt>
      <trkpt lat="48.48282" lon="-3.75746">
        <ele>291</ele>
        <time>2021-07-08T09:35:41Z</time>
      </trkpt>
      <trkpt lat="48.48279" lon="-3.75744">
        <ele>291</ele>
        <time>2021-07-08T09:35:42Z</time>
      </trkpt>
      <trkpt lat="48.48276" lon="-3.75742">
        <ele>291</ele>
        <time>2021-07-08T09:35:43Z</time>
      </trkpt>
      <trkpt lat="48.4827" lon="-3.75739">
        <ele>291</ele>
        <time>2021-07-08T09:35:44Z</time>
      </trkpt>
      <trkpt lat="48.48267" lon="-3.75737">
        <ele>291</ele>
        <time>2021-07-08T09:35:46Z</time>
      </trkpt>
      <trkpt lat="48.48264" lon="-3.75734">
        <ele>291</ele>
        <time>2021-07-08T09:35:47Z</time>
      </trkpt>
      <trkpt lat="48.48261" lon="-3.75732">
        <ele>291</ele>
        <time>2021-07-08T09:35:48Z</time>
      </trkpt>
      <trkpt lat="48.48258" lon="-3.7573">
        <ele>291</ele>
        <time>2021-07-08T09:35:49Z</time>
      </trkpt>
      <trkpt lat="48.48254" lon="-3.75726">
        <ele>291</ele>
        <time>2021-07-08T09:35:51Z</time>
      </trkpt>
      <trkpt lat="48.48251" lon="-3.75724">
        <ele>291</ele>
        <time>2021-07-08T09:35:52Z</time>
      </trkpt>
      <trkpt lat="48.48248" lon="-3.75723">
        <ele>291</ele>
        <time>2021-07-08T09:35:53Z</time>
      </trkpt>
      <trkpt lat="48.48246" lon="-3.7572">
        <ele>291</ele>
        <time>2021-07-08T09:35:54Z</time>
      </trkpt>
      <trkpt lat="48.48243" lon="-3.75718">
        <ele>291</ele>
        <time>2021-07-08T09:35:55Z</time>
      </trkpt>
      <trkpt lat="48.48241" lon="-3.75716">
        <ele>291</ele>
        <time>2021-07-08T09:35:55Z</time>
      </trkpt>
      <trkpt lat="48.48239" lon="-3.75713">
        <ele>291</ele>
        <time>2021-07-08T09:35:57Z</time>
      </trkpt>
      <trkpt lat="48.48236" lon="-3.75711">
        <ele>291</ele>
        <time>2021-07-08T09:35:58Z</time>
      </trkpt>
      <trkpt lat="48.48234" lon="-3.75709">
        <ele>291</ele>
        <time>2021-07-08T09:35:59Z</time>
      </trkpt>
      <trkpt lat="48.48231" lon="-3.75707">
        <ele>291</ele>
        <time>2021-07-08T09:36:00Z</time>
      </trkpt>
      <trkpt lat="48.48229" lon="-3.75706">
        <ele>291</ele>
        <time>2021-07-08T09:36:01Z</time>
      </trkpt>
      <trkpt lat="48.48226" lon="-3.75704">
        <ele>291</ele>
        <time>2021-07-08T09:36:02Z</time>
      </trkpt>
      <trkpt lat="48.48223" lon="-3.75702">
        <ele>292</ele>
        <time>2021-07-08T09:36:03Z</time>
      </trkpt>
      <trkpt lat="48.4822" lon="-3.757">
        <ele>292</ele>
        <time>2021-07-08T09:36:04Z</time>
      </trkpt>
      <trkpt lat="48.48217" lon="-3.75699">
        <ele>293</ele>
        <time>2021-07-08T09:36:05Z</time>
      </trkpt>
      <trkpt lat="48.48215" lon="-3.75697">
        <ele>293</ele>
        <time>2021-07-08T09:36:06Z</time>
      </trkpt>
      <trkpt lat="48.48212" lon="-3.75695">
        <ele>293</ele>
        <time>2021-07-08T09:36:07Z</time>
      </trkpt>
      <trkpt lat="48.48209" lon="-3.75693">
        <ele>293</ele>
        <time>2021-07-08T09:36:08Z</time>
      </trkpt>
      <trkpt lat="48.48207" lon="-3.75691">
        <ele>293</ele>
        <time>2021-07-08T09:36:10Z</time>
      </trkpt>
      <trkpt lat="48.48204" lon="-3.7569">
        <ele>293</ele>
        <time>2021-07-08T09:36:10Z</time>
      </trkpt>
      <trkpt lat="48.48201" lon="-3.75688">
        <ele>293</ele>
        <time>2021-07-08T09:36:11Z</time>
      </trkpt>
      <trkpt lat="48.48198" lon="-3.75685">
        <ele>293</ele>
        <time>2021-07-08T09:36:12Z</time>
      </trkpt>
      <trkpt lat="48.48196" lon="-3.75684">
        <ele>293</ele>
        <time>2021-07-08T09:36:13Z</time>
      </trkpt>
      <trkpt lat="48.48193" lon="-3.75682">
        <ele>293</ele>
        <time>2021-07-08T09:36:14Z</time>
      </trkpt>
      <trkpt lat="48.48191" lon="-3.7568">
        <ele>293</ele>
        <time>2021-07-08T09:36:15Z</time>
      </trkpt>
      <trkpt lat="48.48188" lon="-3.75678">
        <ele>294</ele>
        <time>2021-07-08T09:36:16Z</time>
      </trkpt>
      <trkpt lat="48.48186" lon="-3.75676">
        <ele>294</ele>
        <time>2021-07-08T09:36:17Z</time>
      </trkpt>
      <trkpt lat="48.48184" lon="-3.75675">
        <ele>294</ele>
        <time>2021-07-08T09:36:18Z</time>
      </trkpt>
      <trkpt lat="48.48182" lon="-3.75673">
        <ele>294</ele>
        <time>2021-07-08T09:36:19Z</time>
      </trkpt>
      <trkpt lat="48.48179" lon="-3.75671">
        <ele>294</ele>
        <time>2021-07-08T09:36:20Z</time>
      </trkpt>
      <trkpt lat="48.48176" lon="-3.75669">
        <ele>294</ele>
        <time>2021-07-08T09:36:21Z</time>
      </trkpt>
      <trkpt lat="48.48174" lon="-3.75667">
        <ele>294</ele>
        <time>2021-07-08T09:36:22Z</time>
      </trkpt>
      <trkpt lat="48.48171" lon="-3.75665">
        <ele>294</ele>
        <time>2021-07-08T09:36:23Z</time>
      </trkpt>
      <trkpt lat="48.48168" lon="-3.75663">
        <ele>294</ele>
        <time>2021-07-08T09:36:24Z</time>
      </trkpt>
      <trkpt lat="48.48165" lon="-3.75662">
        <ele>294</ele>
        <time>2021-07-08T09:36:25Z</time>
      </trkpt>
      <trkpt lat="48.48159" lon="-3.75658">
        <ele>295</ele>
        <time>2021-07-08T09:36:26Z</time>
      </trkpt>
      <trkpt lat="48.48156" lon="-3.75656">
        <ele>295</ele>
        <time>2021-07-08T09:36:27Z</time>
      </trkpt>
      <trkpt lat="48.48153" lon="-3.75654">
        <ele>295</ele>
        <time>2021-07-08T09:36:29Z</time>
      </trkpt>
      <trkpt lat="48.48146" lon="-3.7565">
        <ele>295</ele>
        <time>2021-07-08T09:36:31Z</time>
      </trkpt>
      <trkpt lat="48.48143" lon="-3.75647">
        <ele>295</ele>
        <time>2021-07-08T09:36:32Z</time>
      </trkpt>
      <trkpt lat="48.48139" lon="-3.75646">
        <ele>295</ele>
        <time>2021-07-08T09:36:33Z</time>
      </trkpt>
      <trkpt lat="48.48137" lon="-3.75645">
        <ele>295</ele>
        <time>2021-07-08T09:36:34Z</time>
      </trkpt>
      <trkpt lat="48.48133" lon="-3.75642">
        <ele>295</ele>
        <time>2021-07-08T09:36:35Z</time>
      </trkpt>
      <trkpt lat="48.4813" lon="-3.7564">
        <ele>295</ele>
        <time>2021-07-08T09:36:36Z</time>
      </trkpt>
      <trkpt lat="48.48127" lon="-3.75638">
        <ele>295</ele>
        <time>2021-07-08T09:36:37Z</time>
      </trkpt>
      <trkpt lat="48.48123" lon="-3.75636">
        <ele>295</ele>
        <time>2021-07-08T09:36:38Z</time>
      </trkpt>
      <trkpt lat="48.4812" lon="-3.75634">
        <ele>295</ele>
        <time>2021-07-08T09:36:39Z</time>
      </trkpt>
      <trkpt lat="48.48116" lon="-3.75632">
        <ele>295</ele>
        <time>2021-07-08T09:36:40Z</time>
      </trkpt>
      <trkpt lat="48.48114" lon="-3.7563">
        <ele>295</ele>
        <time>2021-07-08T09:36:41Z</time>
      </trkpt>
      <trkpt lat="48.48111" lon="-3.75628">
        <ele>295</ele>
        <time>2021-07-08T09:36:42Z</time>
      </trkpt>
      <trkpt lat="48.48109" lon="-3.75626">
        <ele>295</ele>
        <time>2021-07-08T09:36:43Z</time>
      </trkpt>
      <trkpt lat="48.48106" lon="-3.75624">
        <ele>295</ele>
        <time>2021-07-08T09:36:44Z</time>
      </trkpt>
      <trkpt lat="48.48103" lon="-3.75621">
        <ele>296</ele>
        <time>2021-07-08T09:36:45Z</time>
      </trkpt>
      <trkpt lat="48.481" lon="-3.75619">
        <ele>296</ele>
        <time>2021-07-08T09:36:46Z</time>
      </trkpt>
      <trkpt lat="48.48097" lon="-3.75616">
        <ele>296</ele>
        <time>2021-07-08T09:36:46Z</time>
      </trkpt>
      <trkpt lat="48.48095" lon="-3.75614">
        <ele>296</ele>
        <time>2021-07-08T09:36:48Z</time>
      </trkpt>
      <trkpt lat="48.48093" lon="-3.75612">
        <ele>296</ele>
        <time>2021-07-08T09:36:49Z</time>
      </trkpt>
      <trkpt lat="48.4809" lon="-3.75609">
        <ele>296</ele>
        <time>2021-07-08T09:36:50Z</time>
      </trkpt>
      <trkpt lat="48.48088" lon="-3.75606">
        <ele>296</ele>
        <time>2021-07-08T09:36:51Z</time>
      </trkpt>
      <trkpt lat="48.48085" lon="-3.75602">
        <ele>296</ele>
        <time>2021-07-08T09:36:52Z</time>
      </trkpt>
      <trkpt lat="48.48083" lon="-3.75599">
        <ele>296</ele>
        <time>2021-07-08T09:36:53Z</time>
      </trkpt>
      <trkpt lat="48.4808" lon="-3.75596">
        <ele>296</ele>
        <time>2021-07-08T09:36:54Z</time>
      </trkpt>
      <trkpt lat="48.48078" lon="-3.75593">
        <ele>296</ele>
        <time>2021-07-08T09:36:55Z</time>
      </trkpt>
      <trkpt lat="48.48075" lon="-3.7559">
        <ele>296</ele>
        <time>2021-07-08T09:36:56Z</time>
      </trkpt>
      <trkpt lat="48.48072" lon="-3.75586">
        <ele>296</ele>
        <time>2021-07-08T09:36:57Z</time>
      </trkpt>
      <trkpt lat="48.48068" lon="-3.75583">
        <ele>297</ele>
        <time>2021-07-08T09:36:58Z</time>
      </trkpt>
      <trkpt lat="48.48065" lon="-3.7558">
        <ele>297</ele>
        <time>2021-07-08T09:36:59Z</time>
      </trkpt>
      <trkpt lat="48.48062" lon="-3.75578">
        <ele>297</ele>
        <time>2021-07-08T09:37:00Z</time>
      </trkpt>
      <trkpt lat="48.4806" lon="-3.75576">
        <ele>297</ele>
        <time>2021-07-08T09:37:01Z</time>
      </trkpt>
      <trkpt lat="48.48057" lon="-3.75573">
        <ele>297</ele>
        <time>2021-07-08T09:37:02Z</time>
      </trkpt>
      <trkpt lat="48.48055" lon="-3.7557">
        <ele>297</ele>
        <time>2021-07-08T09:37:03Z</time>
      </trkpt>
      <trkpt lat="48.48052" lon="-3.75568">
        <ele>297</ele>
        <time>2021-07-08T09:37:04Z</time>
      </trkpt>
      <trkpt lat="48.4805" lon="-3.75566">
        <ele>297</ele>
        <time>2021-07-08T09:37:05Z</time>
      </trkpt>
      <trkpt lat="48.48047" lon="-3.75564">
        <ele>297</ele>
        <time>2021-07-08T09:37:06Z</time>
      </trkpt>
      <trkpt lat="48.48045" lon="-3.75562">
        <ele>297</ele>
        <time>2021-07-08T09:37:07Z</time>
      </trkpt>
      <trkpt lat="48.48043" lon="-3.75559">
        <ele>297</ele>
        <time>2021-07-08T09:37:08Z</time>
      </trkpt>
      <trkpt lat="48.48041" lon="-3.75556">
        <ele>297</ele>
        <time>2021-07-08T09:37:09Z</time>
      </trkpt>
      <trkpt lat="48.48037" lon="-3.75552">
        <ele>297</ele>
        <time>2021-07-08T09:37:10Z</time>
      </trkpt>
      <trkpt lat="48.48034" lon="-3.75549">
        <ele>297</ele>
        <time>2021-07-08T09:37:11Z</time>
      </trkpt>
      <trkpt lat="48.4803" lon="-3.75546">
        <ele>297</ele>
        <time>2021-07-08T09:37:12Z</time>
      </trkpt>
      <trkpt lat="48.48027" lon="-3.75542">
        <ele>297</ele>
        <time>2021-07-08T09:37:13Z</time>
      </trkpt>
      <trkpt lat="48.48024" lon="-3.75539">
        <ele>297</ele>
        <time>2021-07-08T09:37:14Z</time>
      </trkpt>
      <trkpt lat="48.48022" lon="-3.75536">
        <ele>297</ele>
        <time>2021-07-08T09:37:15Z</time>
      </trkpt>
      <trkpt lat="48.48019" lon="-3.75532">
        <ele>297</ele>
        <time>2021-07-08T09:37:16Z</time>
      </trkpt>
      <trkpt lat="48.48017" lon="-3.75529">
        <ele>298</ele>
        <time>2021-07-08T09:37:16Z</time>
      </trkpt>
      <trkpt lat="48.48015" lon="-3.75526">
        <ele>298</ele>
        <time>2021-07-08T09:37:18Z</time>
      </trkpt>
      <trkpt lat="48.48012" lon="-3.75523">
        <ele>298</ele>
        <time>2021-07-08T09:37:19Z</time>
      </trkpt>
      <trkpt lat="48.48009" lon="-3.7552">
        <ele>298</ele>
        <time>2021-07-08T09:37:20Z</time>
      </trkpt>
      <trkpt lat="48.48007" lon="-3.75517">
        <ele>298</ele>
        <time>2021-07-08T09:37:21Z</time>
      </trkpt>
      <trkpt lat="48.48004" lon="-3.75514">
        <ele>298</ele>
        <time>2021-07-08T09:37:22Z</time>
      </trkpt>
      <trkpt lat="48.48001" lon="-3.7551">
        <ele>298</ele>
        <time>2021-07-08T09:37:23Z</time>
      </trkpt>
      <trkpt lat="48.47998" lon="-3.75506">
        <ele>298</ele>
        <time>2021-07-08T09:37:24Z</time>
      </trkpt>
      <trkpt lat="48.47996" lon="-3.75503">
        <ele>298</ele>
        <time>2021-07-08T09:37:24Z</time>
      </trkpt>
      <trkpt lat="48.47993" lon="-3.75499">
        <ele>298</ele>
        <time>2021-07-08T09:37:26Z</time>
      </trkpt>
      <trkpt lat="48.4799" lon="-3.75496">
        <ele>298</ele>
        <time>2021-07-08T09:37:27Z</time>
      </trkpt>
      <trkpt lat="48.47987" lon="-3.75492">
        <ele>298</ele>
        <time>2021-07-08T09:37:28Z</time>
      </trkpt>
      <trkpt lat="48.47985" lon="-3.75487">
        <ele>298</ele>
        <time>2021-07-08T09:37:29Z</time>
      </trkpt>
      <trkpt lat="48.47982" lon="-3.75482">
        <ele>298</ele>
        <time>2021-07-08T09:37:30Z</time>
      </trkpt>
      <trkpt lat="48.47979" lon="-3.75478">
        <ele>298</ele>
        <time>2021-07-08T09:37:31Z</time>
      </trkpt>
      <trkpt lat="48.47978" lon="-3.75473">
        <ele>298</ele>
        <time>2021-07-08T09:37:32Z</time>
      </trkpt>
      <trkpt lat="48.47976" lon="-3.75467">
        <ele>298</ele>
        <time>2021-07-08T09:37:33Z</time>
      </trkpt>
      <trkpt lat="48.47975" lon="-3.75462">
        <ele>298</ele>
        <time>2021-07-08T09:37:34Z</time>
      </trkpt>
      <trkpt lat="48.47973" lon="-3.75457">
        <ele>298</ele>
        <time>2021-07-08T09:37:35Z</time>
      </trkpt>
      <trkpt lat="48.47972" lon="-3.75452">
        <ele>298</ele>
        <time>2021-07-08T09:37:36Z</time>
      </trkpt>
      <trkpt lat="48.4797" lon="-3.75447">
        <ele>298</ele>
        <time>2021-07-08T09:37:37Z</time>
      </trkpt>
      <trkpt lat="48.47968" lon="-3.75443">
        <ele>299</ele>
        <time>2021-07-08T09:37:38Z</time>
      </trkpt>
      <trkpt lat="48.47967" lon="-3.75439">
        <ele>299</ele>
        <time>2021-07-08T09:37:39Z</time>
      </trkpt>
      <trkpt lat="48.47966" lon="-3.75435">
        <ele>299</ele>
        <time>2021-07-08T09:37:40Z</time>
      </trkpt>
      <trkpt lat="48.47964" lon="-3.75431">
        <ele>299</ele>
        <time>2021-07-08T09:37:41Z</time>
      </trkpt>
      <trkpt lat="48.47962" lon="-3.75426">
        <ele>299</ele>
        <time>2021-07-08T09:37:42Z</time>
      </trkpt>
      <trkpt lat="48.4796" lon="-3.75423">
        <ele>299</ele>
        <time>2021-07-08T09:37:43Z</time>
      </trkpt>
      <trkpt lat="48.47958" lon="-3.75419">
        <ele>300</ele>
        <time>2021-07-08T09:37:43Z</time>
      </trkpt>
      <trkpt lat="48.47957" lon="-3.75416">
        <ele>300</ele>
        <time>2021-07-08T09:37:45Z</time>
      </trkpt>
      <trkpt lat="48.47955" lon="-3.75414">
        <ele>300</ele>
        <time>2021-07-08T09:37:46Z</time>
      </trkpt>
      <trkpt lat="48.47953" lon="-3.75412">
        <ele>300</ele>
        <time>2021-07-08T09:37:47Z</time>
      </trkpt>
      <trkpt lat="48.47951" lon="-3.75409">
        <ele>300</ele>
        <time>2021-07-08T09:37:48Z</time>
      </trkpt>
      <trkpt lat="48.4795" lon="-3.75407">
        <ele>300</ele>
        <time>2021-07-08T09:37:49Z</time>
      </trkpt>
      <trkpt lat="48.47948" lon="-3.75403">
        <ele>300</ele>
        <time>2021-07-08T09:37:50Z</time>
      </trkpt>
      <trkpt lat="48.47942" lon="-3.75392">
        <ele>300</ele>
        <time>2021-07-08T09:37:53Z</time>
      </trkpt>
      <trkpt lat="48.4794" lon="-3.75388">
        <ele>300</ele>
        <time>2021-07-08T09:37:54Z</time>
      </trkpt>
      <trkpt lat="48.47934" lon="-3.75377">
        <ele>300</ele>
        <time>2021-07-08T09:37:57Z</time>
      </trkpt>
      <trkpt lat="48.4793" lon="-3.75364">
        <ele>301</ele>
        <time>2021-07-08T09:37:59Z</time>
      </trkpt>
      <trkpt lat="48.47925" lon="-3.75353">
        <ele>301</ele>
        <time>2021-07-08T09:38:02Z</time>
      </trkpt>
      <trkpt lat="48.47918" lon="-3.75339">
        <ele>301</ele>
        <time>2021-07-08T09:38:06Z</time>
      </trkpt>
      <trkpt lat="48.47913" lon="-3.75324">
        <ele>301</ele>
        <time>2021-07-08T09:38:09Z</time>
      </trkpt>
      <trkpt lat="48.47908" lon="-3.75311">
        <ele>302</ele>
        <time>2021-07-08T09:38:12Z</time>
      </trkpt>
      <trkpt lat="48.47902" lon="-3.75297">
        <ele>302</ele>
        <time>2021-07-08T09:38:15Z</time>
      </trkpt>
      <trkpt lat="48.47896" lon="-3.75285">
        <ele>302</ele>
        <time>2021-07-08T09:38:18Z</time>
      </trkpt>
      <trkpt lat="48.4789" lon="-3.75274">
        <ele>302</ele>
        <time>2021-07-08T09:38:21Z</time>
      </trkpt>
      <trkpt lat="48.47885" lon="-3.75261">
        <ele>303</ele>
        <time>2021-07-08T09:38:24Z</time>
      </trkpt>
      <trkpt lat="48.47878" lon="-3.7525">
        <ele>303</ele>
        <time>2021-07-08T09:38:28Z</time>
      </trkpt>
      <trkpt lat="48.47872" lon="-3.7524">
        <ele>303</ele>
        <time>2021-07-08T09:38:32Z</time>
      </trkpt>
      <trkpt lat="48.47863" lon="-3.75228">
        <ele>303</ele>
        <time>2021-07-08T09:38:36Z</time>
      </trkpt>
      <trkpt lat="48.47856" lon="-3.7522">
        <ele>303</ele>
        <time>2021-07-08T09:38:40Z</time>
      </trkpt>
      <trkpt lat="48.47854" lon="-3.75216">
        <ele>303</ele>
        <time>2021-07-08T09:38:41Z</time>
      </trkpt>
      <trkpt lat="48.47853" lon="-3.75214">
        <ele>303</ele>
        <time>2021-07-08T09:38:44Z</time>
      </trkpt>
      <trkpt lat="48.47852" lon="-3.75212">
        <ele>303</ele>
        <time>2021-07-08T09:38:49Z</time>
      </trkpt>
      <trkpt lat="48.47851" lon="-3.75209">
        <ele>303</ele>
        <time>2021-07-08T09:38:52Z</time>
      </trkpt>
      <trkpt lat="48.47847" lon="-3.75209">
        <ele>303</ele>
        <time>2021-07-08T09:38:58Z</time>
      </trkpt>
      <trkpt lat="48.47851" lon="-3.75206">
        <ele>303</ele>
        <time>2021-07-08T09:38:58Z</time>
      </trkpt>
      <trkpt lat="48.47847" lon="-3.7521">
        <ele>303</ele>
        <time>2021-07-08T09:38:58Z</time>
      </trkpt>
      <trkpt lat="48.47844" lon="-3.7521">
        <ele>303</ele>
        <time>2021-07-08T09:39:00Z</time>
      </trkpt>
      <trkpt lat="48.47849" lon="-3.75205">
        <ele>302</ele>
        <time>2021-07-08T09:39:02Z</time>
      </trkpt>
      <trkpt lat="48.47848" lon="-3.75204">
        <ele>302</ele>
        <time>2021-07-08T09:39:06Z</time>
      </trkpt>
      <trkpt lat="48.47847" lon="-3.75203">
        <ele>302</ele>
        <time>2021-07-08T09:39:10Z</time>
      </trkpt>
      <trkpt lat="48.47847" lon="-3.75202">
        <ele>303</ele>
        <time>2021-07-08T09:39:17Z</time>
      </trkpt>
      <trkpt lat="48.47843" lon="-3.75209">
        <ele>303</ele>
        <time>2021-07-08T09:40:14Z</time>
      </trkpt>
      <trkpt lat="48.4784" lon="-3.75212">
        <ele>304</ele>
        <time>2021-07-08T09:40:21Z</time>
      </trkpt>
      <trkpt lat="48.4784" lon="-3.75213">
        <ele>304</ele>
        <time>2021-07-08T09:40:23Z</time>
      </trkpt>
      <trkpt lat="48.4784" lon="-3.75213">
        <ele>303</ele>
        <time>2021-07-08T09:40:28Z</time>
      </trkpt>
      <trkpt lat="48.47842" lon="-3.75215">
        <ele>303</ele>
        <time>2021-07-08T09:40:35Z</time>
      </trkpt>
      <trkpt lat="48.47844" lon="-3.75215">
        <ele>302</ele>
        <time>2021-07-08T09:40:40Z</time>
      </trkpt>
      <trkpt lat="48.47846" lon="-3.75208">
        <ele>304</ele>
        <time>2021-07-08T09:41:06Z</time>
      </trkpt>
      <trkpt lat="48.47838" lon="-3.75193">
        <ele>304</ele>
        <time>2021-07-08T09:43:22Z</time>
      </trkpt>
      <trkpt lat="48.47837" lon="-3.75191">
        <ele>304</ele>
        <time>2021-07-08T09:43:23Z</time>
      </trkpt>
      <trkpt lat="48.47835" lon="-3.75189">
        <ele>304</ele>
        <time>2021-07-08T09:43:25Z</time>
      </trkpt>
      <trkpt lat="48.47833" lon="-3.75188">
        <ele>304</ele>
        <time>2021-07-08T09:43:27Z</time>
      </trkpt>
      <trkpt lat="48.4783" lon="-3.75186">
        <ele>304</ele>
        <time>2021-07-08T09:43:29Z</time>
      </trkpt>
      <trkpt lat="48.47828" lon="-3.75184">
        <ele>304</ele>
        <time>2021-07-08T09:43:31Z</time>
      </trkpt>
      <trkpt lat="48.47827" lon="-3.75182">
        <ele>304</ele>
        <time>2021-07-08T09:43:32Z</time>
      </trkpt>
      <trkpt lat="48.47825" lon="-3.7518">
        <ele>304</ele>
        <time>2021-07-08T09:43:33Z</time>
      </trkpt>
      <trkpt lat="48.47823" lon="-3.75178">
        <ele>304</ele>
        <time>2021-07-08T09:43:34Z</time>
      </trkpt>
      <trkpt lat="48.47818" lon="-3.75169">
        <ele>304</ele>
        <time>2021-07-08T09:43:36Z</time>
      </trkpt>
      <trkpt lat="48.47817" lon="-3.75165">
        <ele>304</ele>
        <time>2021-07-08T09:43:38Z</time>
      </trkpt>
      <trkpt lat="48.47815" lon="-3.75162">
        <ele>304</ele>
        <time>2021-07-08T09:43:39Z</time>
      </trkpt>
      <trkpt lat="48.47814" lon="-3.7516">
        <ele>304</ele>
        <time>2021-07-08T09:43:40Z</time>
      </trkpt>
      <trkpt lat="48.47812" lon="-3.75158">
        <ele>304</ele>
        <time>2021-07-08T09:43:41Z</time>
      </trkpt>
      <trkpt lat="48.4781" lon="-3.75156">
        <ele>304</ele>
        <time>2021-07-08T09:43:41Z</time>
      </trkpt>
      <trkpt lat="48.47808" lon="-3.75154">
        <ele>304</ele>
        <time>2021-07-08T09:43:42Z</time>
      </trkpt>
      <trkpt lat="48.47806" lon="-3.75152">
        <ele>304</ele>
        <time>2021-07-08T09:43:44Z</time>
      </trkpt>
      <trkpt lat="48.47804" lon="-3.75149">
        <ele>304</ele>
        <time>2021-07-08T09:43:45Z</time>
      </trkpt>
      <trkpt lat="48.47801" lon="-3.75146">
        <ele>304</ele>
        <time>2021-07-08T09:43:46Z</time>
      </trkpt>
      <trkpt lat="48.47798" lon="-3.75144">
        <ele>304</ele>
        <time>2021-07-08T09:43:47Z</time>
      </trkpt>
      <trkpt lat="48.47796" lon="-3.75141">
        <ele>304</ele>
        <time>2021-07-08T09:43:48Z</time>
      </trkpt>
      <trkpt lat="48.47794" lon="-3.75139">
        <ele>304</ele>
        <time>2021-07-08T09:43:48Z</time>
      </trkpt>
      <trkpt lat="48.47791" lon="-3.75137">
        <ele>304</ele>
        <time>2021-07-08T09:43:50Z</time>
      </trkpt>
      <trkpt lat="48.47789" lon="-3.75135">
        <ele>304</ele>
        <time>2021-07-08T09:43:51Z</time>
      </trkpt>
      <trkpt lat="48.47787" lon="-3.75134">
        <ele>304</ele>
        <time>2021-07-08T09:43:52Z</time>
      </trkpt>
      <trkpt lat="48.47785" lon="-3.75132">
        <ele>304</ele>
        <time>2021-07-08T09:43:53Z</time>
      </trkpt>
      <trkpt lat="48.47782" lon="-3.7513">
        <ele>304</ele>
        <time>2021-07-08T09:43:54Z</time>
      </trkpt>
      <trkpt lat="48.4778" lon="-3.75128">
        <ele>304</ele>
        <time>2021-07-08T09:43:55Z</time>
      </trkpt>
      <trkpt lat="48.47778" lon="-3.75126">
        <ele>304</ele>
        <time>2021-07-08T09:43:56Z</time>
      </trkpt>
      <trkpt lat="48.47776" lon="-3.75124">
        <ele>304</ele>
        <time>2021-07-08T09:43:57Z</time>
      </trkpt>
      <trkpt lat="48.47773" lon="-3.75121">
        <ele>304</ele>
        <time>2021-07-08T09:43:58Z</time>
      </trkpt>
      <trkpt lat="48.4777" lon="-3.75119">
        <ele>304</ele>
        <time>2021-07-08T09:43:59Z</time>
      </trkpt>
      <trkpt lat="48.47767" lon="-3.75116">
        <ele>304</ele>
        <time>2021-07-08T09:44:00Z</time>
      </trkpt>
      <trkpt lat="48.47765" lon="-3.75113">
        <ele>305</ele>
        <time>2021-07-08T09:44:01Z</time>
      </trkpt>
      <trkpt lat="48.47763" lon="-3.75111">
        <ele>305</ele>
        <time>2021-07-08T09:44:02Z</time>
      </trkpt>
      <trkpt lat="48.47761" lon="-3.75108">
        <ele>305</ele>
        <time>2021-07-08T09:44:03Z</time>
      </trkpt>
      <trkpt lat="48.47758" lon="-3.75106">
        <ele>305</ele>
        <time>2021-07-08T09:44:04Z</time>
      </trkpt>
      <trkpt lat="48.47756" lon="-3.75103">
        <ele>304</ele>
        <time>2021-07-08T09:44:05Z</time>
      </trkpt>
      <trkpt lat="48.47753" lon="-3.75101">
        <ele>304</ele>
        <time>2021-07-08T09:44:06Z</time>
      </trkpt>
      <trkpt lat="48.4775" lon="-3.75099">
        <ele>304</ele>
        <time>2021-07-08T09:44:07Z</time>
      </trkpt>
      <trkpt lat="48.47747" lon="-3.75096">
        <ele>304</ele>
        <time>2021-07-08T09:44:08Z</time>
      </trkpt>
      <trkpt lat="48.47744" lon="-3.75094">
        <ele>305</ele>
        <time>2021-07-08T09:44:09Z</time>
      </trkpt>
      <trkpt lat="48.47742" lon="-3.75092">
        <ele>305</ele>
        <time>2021-07-08T09:44:10Z</time>
      </trkpt>
      <trkpt lat="48.47739" lon="-3.75089">
        <ele>305</ele>
        <time>2021-07-08T09:44:11Z</time>
      </trkpt>
      <trkpt lat="48.47737" lon="-3.75087">
        <ele>305</ele>
        <time>2021-07-08T09:44:12Z</time>
      </trkpt>
      <trkpt lat="48.47734" lon="-3.75085">
        <ele>305</ele>
        <time>2021-07-08T09:44:13Z</time>
      </trkpt>
      <trkpt lat="48.47731" lon="-3.75083">
        <ele>305</ele>
        <time>2021-07-08T09:44:14Z</time>
      </trkpt>
      <trkpt lat="48.47728" lon="-3.75081">
        <ele>305</ele>
        <time>2021-07-08T09:44:15Z</time>
      </trkpt>
      <trkpt lat="48.47725" lon="-3.75079">
        <ele>305</ele>
        <time>2021-07-08T09:44:16Z</time>
      </trkpt>
      <trkpt lat="48.47723" lon="-3.75077">
        <ele>305</ele>
        <time>2021-07-08T09:44:17Z</time>
      </trkpt>
      <trkpt lat="48.4772" lon="-3.75076">
        <ele>305</ele>
        <time>2021-07-08T09:44:18Z</time>
      </trkpt>
      <trkpt lat="48.47717" lon="-3.75074">
        <ele>305</ele>
        <time>2021-07-08T09:44:19Z</time>
      </trkpt>
      <trkpt lat="48.47713" lon="-3.75073">
        <ele>306</ele>
        <time>2021-07-08T09:44:20Z</time>
      </trkpt>
      <trkpt lat="48.47711" lon="-3.75072">
        <ele>306</ele>
        <time>2021-07-08T09:44:21Z</time>
      </trkpt>
      <trkpt lat="48.47708" lon="-3.7507">
        <ele>306</ele>
        <time>2021-07-08T09:44:22Z</time>
      </trkpt>
      <trkpt lat="48.47705" lon="-3.75068">
        <ele>306</ele>
        <time>2021-07-08T09:44:23Z</time>
      </trkpt>
      <trkpt lat="48.47702" lon="-3.75066">
        <ele>306</ele>
        <time>2021-07-08T09:44:24Z</time>
      </trkpt>
      <trkpt lat="48.47699" lon="-3.75065">
        <ele>306</ele>
        <time>2021-07-08T09:44:25Z</time>
      </trkpt>
      <trkpt lat="48.47696" lon="-3.75063">
        <ele>306</ele>
        <time>2021-07-08T09:44:26Z</time>
      </trkpt>
      <trkpt lat="48.47693" lon="-3.75061">
        <ele>306</ele>
        <time>2021-07-08T09:44:27Z</time>
      </trkpt>
      <trkpt lat="48.4769" lon="-3.7506">
        <ele>306</ele>
        <time>2021-07-08T09:44:28Z</time>
      </trkpt>
      <trkpt lat="48.47688" lon="-3.75059">
        <ele>307</ele>
        <time>2021-07-08T09:44:29Z</time>
      </trkpt>
      <trkpt lat="48.47686" lon="-3.75057">
        <ele>307</ele>
        <time>2021-07-08T09:44:30Z</time>
      </trkpt>
      <trkpt lat="48.47683" lon="-3.75056">
        <ele>307</ele>
        <time>2021-07-08T09:44:30Z</time>
      </trkpt>
      <trkpt lat="48.47681" lon="-3.75054">
        <ele>307</ele>
        <time>2021-07-08T09:44:32Z</time>
      </trkpt>
      <trkpt lat="48.47679" lon="-3.75053">
        <ele>307</ele>
        <time>2021-07-08T09:44:33Z</time>
      </trkpt>
      <trkpt lat="48.47676" lon="-3.75051">
        <ele>307</ele>
        <time>2021-07-08T09:44:34Z</time>
      </trkpt>
      <trkpt lat="48.47673" lon="-3.7505">
        <ele>307</ele>
        <time>2021-07-08T09:44:35Z</time>
      </trkpt>
      <trkpt lat="48.4767" lon="-3.75049">
        <ele>307</ele>
        <time>2021-07-08T09:44:36Z</time>
      </trkpt>
      <trkpt lat="48.47667" lon="-3.75048">
        <ele>307</ele>
        <time>2021-07-08T09:44:37Z</time>
      </trkpt>
      <trkpt lat="48.47665" lon="-3.75047">
        <ele>307</ele>
        <time>2021-07-08T09:44:38Z</time>
      </trkpt>
      <trkpt lat="48.47662" lon="-3.75046">
        <ele>307</ele>
        <time>2021-07-08T09:44:39Z</time>
      </trkpt>
      <trkpt lat="48.47659" lon="-3.75045">
        <ele>307</ele>
        <time>2021-07-08T09:44:39Z</time>
      </trkpt>
      <trkpt lat="48.47656" lon="-3.75044">
        <ele>307</ele>
        <time>2021-07-08T09:44:41Z</time>
      </trkpt>
      <trkpt lat="48.47653" lon="-3.75042">
        <ele>307</ele>
        <time>2021-07-08T09:44:42Z</time>
      </trkpt>
      <trkpt lat="48.47649" lon="-3.75041">
        <ele>307</ele>
        <time>2021-07-08T09:44:43Z</time>
      </trkpt>
      <trkpt lat="48.47646" lon="-3.75039">
        <ele>307</ele>
        <time>2021-07-08T09:44:44Z</time>
      </trkpt>
      <trkpt lat="48.47643" lon="-3.75038">
        <ele>308</ele>
        <time>2021-07-08T09:44:45Z</time>
      </trkpt>
      <trkpt lat="48.47641" lon="-3.75036">
        <ele>308</ele>
        <time>2021-07-08T09:44:46Z</time>
      </trkpt>
      <trkpt lat="48.47638" lon="-3.75035">
        <ele>308</ele>
        <time>2021-07-08T09:44:47Z</time>
      </trkpt>
      <trkpt lat="48.47634" lon="-3.75034">
        <ele>308</ele>
        <time>2021-07-08T09:44:48Z</time>
      </trkpt>
      <trkpt lat="48.47631" lon="-3.75033">
        <ele>308</ele>
        <time>2021-07-08T09:44:49Z</time>
      </trkpt>
      <trkpt lat="48.47629" lon="-3.75032">
        <ele>308</ele>
        <time>2021-07-08T09:44:50Z</time>
      </trkpt>
      <trkpt lat="48.47626" lon="-3.75031">
        <ele>308</ele>
        <time>2021-07-08T09:44:51Z</time>
      </trkpt>
      <trkpt lat="48.47623" lon="-3.75031">
        <ele>308</ele>
        <time>2021-07-08T09:44:52Z</time>
      </trkpt>
      <trkpt lat="48.47621" lon="-3.7503">
        <ele>308</ele>
        <time>2021-07-08T09:44:53Z</time>
      </trkpt>
      <trkpt lat="48.47618" lon="-3.75029">
        <ele>308</ele>
        <time>2021-07-08T09:44:54Z</time>
      </trkpt>
      <trkpt lat="48.47615" lon="-3.75028">
        <ele>308</ele>
        <time>2021-07-08T09:44:55Z</time>
      </trkpt>
      <trkpt lat="48.47613" lon="-3.75027">
        <ele>308</ele>
        <time>2021-07-08T09:44:56Z</time>
      </trkpt>
      <trkpt lat="48.47611" lon="-3.75027">
        <ele>309</ele>
        <time>2021-07-08T09:44:57Z</time>
      </trkpt>
      <trkpt lat="48.47609" lon="-3.75025">
        <ele>309</ele>
        <time>2021-07-08T09:44:58Z</time>
      </trkpt>
      <trkpt lat="48.47603" lon="-3.75024">
        <ele>309</ele>
        <time>2021-07-08T09:44:59Z</time>
      </trkpt>
      <trkpt lat="48.47601" lon="-3.75022">
        <ele>309</ele>
        <time>2021-07-08T09:45:01Z</time>
      </trkpt>
      <trkpt lat="48.47599" lon="-3.75021">
        <ele>309</ele>
        <time>2021-07-08T09:45:02Z</time>
      </trkpt>
      <trkpt lat="48.47596" lon="-3.75021">
        <ele>309</ele>
        <time>2021-07-08T09:45:03Z</time>
      </trkpt>
      <trkpt lat="48.47594" lon="-3.7502">
        <ele>309</ele>
        <time>2021-07-08T09:45:04Z</time>
      </trkpt>
      <trkpt lat="48.47592" lon="-3.75019">
        <ele>309</ele>
        <time>2021-07-08T09:45:05Z</time>
      </trkpt>
      <trkpt lat="48.4759" lon="-3.75018">
        <ele>309</ele>
        <time>2021-07-08T09:45:06Z</time>
      </trkpt>
      <trkpt lat="48.47589" lon="-3.75016">
        <ele>309</ele>
        <time>2021-07-08T09:45:07Z</time>
      </trkpt>
      <trkpt lat="48.47587" lon="-3.75014">
        <ele>309</ele>
        <time>2021-07-08T09:45:08Z</time>
      </trkpt>
      <trkpt lat="48.47584" lon="-3.75013">
        <ele>309</ele>
        <time>2021-07-08T09:45:09Z</time>
      </trkpt>
      <trkpt lat="48.47582" lon="-3.75012">
        <ele>309</ele>
        <time>2021-07-08T09:45:10Z</time>
      </trkpt>
      <trkpt lat="48.47579" lon="-3.75011">
        <ele>309</ele>
        <time>2021-07-08T09:45:11Z</time>
      </trkpt>
      <trkpt lat="48.47576" lon="-3.7501">
        <ele>309</ele>
        <time>2021-07-08T09:45:12Z</time>
      </trkpt>
      <trkpt lat="48.47573" lon="-3.75009">
        <ele>309</ele>
        <time>2021-07-08T09:45:13Z</time>
      </trkpt>
      <trkpt lat="48.47571" lon="-3.75008">
        <ele>309</ele>
        <time>2021-07-08T09:45:14Z</time>
      </trkpt>
      <trkpt lat="48.47569" lon="-3.75007">
        <ele>310</ele>
        <time>2021-07-08T09:45:15Z</time>
      </trkpt>
      <trkpt lat="48.47566" lon="-3.75006">
        <ele>310</ele>
        <time>2021-07-08T09:45:16Z</time>
      </trkpt>
      <trkpt lat="48.47564" lon="-3.75005">
        <ele>310</ele>
        <time>2021-07-08T09:45:17Z</time>
      </trkpt>
      <trkpt lat="48.47558" lon="-3.75003">
        <ele>310</ele>
        <time>2021-07-08T09:45:18Z</time>
      </trkpt>
      <trkpt lat="48.47555" lon="-3.75002">
        <ele>310</ele>
        <time>2021-07-08T09:45:20Z</time>
      </trkpt>
      <trkpt lat="48.47552" lon="-3.75001">
        <ele>310</ele>
        <time>2021-07-08T09:45:21Z</time>
      </trkpt>
      <trkpt lat="48.4755" lon="-3.75001">
        <ele>310</ele>
        <time>2021-07-08T09:45:22Z</time>
      </trkpt>
      <trkpt lat="48.47547" lon="-3.75">
        <ele>310</ele>
        <time>2021-07-08T09:45:23Z</time>
      </trkpt>
      <trkpt lat="48.47544" lon="-3.74999">
        <ele>310</ele>
        <time>2021-07-08T09:45:24Z</time>
      </trkpt>
      <trkpt lat="48.47541" lon="-3.74998">
        <ele>310</ele>
        <time>2021-07-08T09:45:25Z</time>
      </trkpt>
      <trkpt lat="48.47538" lon="-3.74997">
        <ele>310</ele>
        <time>2021-07-08T09:45:26Z</time>
      </trkpt>
      <trkpt lat="48.47535" lon="-3.74996">
        <ele>310</ele>
        <time>2021-07-08T09:45:27Z</time>
      </trkpt>
      <trkpt lat="48.47532" lon="-3.74994">
        <ele>310</ele>
        <time>2021-07-08T09:45:28Z</time>
      </trkpt>
      <trkpt lat="48.47529" lon="-3.74993">
        <ele>310</ele>
        <time>2021-07-08T09:45:29Z</time>
      </trkpt>
      <trkpt lat="48.47526" lon="-3.74992">
        <ele>310</ele>
        <time>2021-07-08T09:45:30Z</time>
      </trkpt>
      <trkpt lat="48.47523" lon="-3.74992">
        <ele>310</ele>
        <time>2021-07-08T09:45:31Z</time>
      </trkpt>
      <trkpt lat="48.47521" lon="-3.74991">
        <ele>310</ele>
        <time>2021-07-08T09:45:32Z</time>
      </trkpt>
      <trkpt lat="48.47518" lon="-3.7499">
        <ele>310</ele>
        <time>2021-07-08T09:45:33Z</time>
      </trkpt>
      <trkpt lat="48.47515" lon="-3.74989">
        <ele>311</ele>
        <time>2021-07-08T09:45:34Z</time>
      </trkpt>
      <trkpt lat="48.47512" lon="-3.74988">
        <ele>311</ele>
        <time>2021-07-08T09:45:35Z</time>
      </trkpt>
      <trkpt lat="48.4751" lon="-3.74987">
        <ele>311</ele>
        <time>2021-07-08T09:45:36Z</time>
      </trkpt>
      <trkpt lat="48.47504" lon="-3.74986">
        <ele>311</ele>
        <time>2021-07-08T09:45:38Z</time>
      </trkpt>
      <trkpt lat="48.47501" lon="-3.74985">
        <ele>311</ele>
        <time>2021-07-08T09:45:39Z</time>
      </trkpt>
      <trkpt lat="48.47498" lon="-3.74985">
        <ele>311</ele>
        <time>2021-07-08T09:45:40Z</time>
      </trkpt>
      <trkpt lat="48.47495" lon="-3.74984">
        <ele>311</ele>
        <time>2021-07-08T09:45:41Z</time>
      </trkpt>
      <trkpt lat="48.47493" lon="-3.74983">
        <ele>311</ele>
        <time>2021-07-08T09:45:42Z</time>
      </trkpt>
      <trkpt lat="48.47491" lon="-3.74983">
        <ele>311</ele>
        <time>2021-07-08T09:45:43Z</time>
      </trkpt>
      <trkpt lat="48.47488" lon="-3.74982">
        <ele>311</ele>
        <time>2021-07-08T09:45:44Z</time>
      </trkpt>
      <trkpt lat="48.47486" lon="-3.74982">
        <ele>311</ele>
        <time>2021-07-08T09:45:45Z</time>
      </trkpt>
      <trkpt lat="48.47483" lon="-3.74982">
        <ele>311</ele>
        <time>2021-07-08T09:45:46Z</time>
      </trkpt>
      <trkpt lat="48.47479" lon="-3.74982">
        <ele>311</ele>
        <time>2021-07-08T09:45:47Z</time>
      </trkpt>
      <trkpt lat="48.47476" lon="-3.74982">
        <ele>311</ele>
        <time>2021-07-08T09:45:48Z</time>
      </trkpt>
      <trkpt lat="48.47472" lon="-3.74982">
        <ele>311</ele>
        <time>2021-07-08T09:45:49Z</time>
      </trkpt>
      <trkpt lat="48.47469" lon="-3.74982">
        <ele>311</ele>
        <time>2021-07-08T09:45:50Z</time>
      </trkpt>
      <trkpt lat="48.47466" lon="-3.74982">
        <ele>312</ele>
        <time>2021-07-08T09:45:51Z</time>
      </trkpt>
      <trkpt lat="48.47463" lon="-3.74982">
        <ele>312</ele>
        <time>2021-07-08T09:45:52Z</time>
      </trkpt>
      <trkpt lat="48.47461" lon="-3.74981">
        <ele>312</ele>
        <time>2021-07-08T09:45:53Z</time>
      </trkpt>
      <trkpt lat="48.47457" lon="-3.74982">
        <ele>312</ele>
        <time>2021-07-08T09:45:54Z</time>
      </trkpt>
      <trkpt lat="48.47454" lon="-3.74982">
        <ele>312</ele>
        <time>2021-07-08T09:45:55Z</time>
      </trkpt>
      <trkpt lat="48.47451" lon="-3.74982">
        <ele>312</ele>
        <time>2021-07-08T09:45:56Z</time>
      </trkpt>
      <trkpt lat="48.47442" lon="-3.74984">
        <ele>312</ele>
        <time>2021-07-08T09:45:59Z</time>
      </trkpt>
      <trkpt lat="48.47432" lon="-3.74984">
        <ele>313</ele>
        <time>2021-07-08T09:46:02Z</time>
      </trkpt>
      <trkpt lat="48.47429" lon="-3.74984">
        <ele>313</ele>
        <time>2021-07-08T09:46:03Z</time>
      </trkpt>
      <trkpt lat="48.47431" lon="-3.74983">
        <ele>313</ele>
        <time>2021-07-08T09:46:04Z</time>
      </trkpt>
      <trkpt lat="48.47428" lon="-3.74987">
        <ele>313</ele>
        <time>2021-07-08T09:46:05Z</time>
      </trkpt>
      <trkpt lat="48.47425" lon="-3.74987">
        <ele>313</ele>
        <time>2021-07-08T09:46:06Z</time>
      </trkpt>
      <trkpt lat="48.47422" lon="-3.74988">
        <ele>313</ele>
        <time>2021-07-08T09:46:08Z</time>
      </trkpt>
      <trkpt lat="48.47418" lon="-3.74988">
        <ele>313</ele>
        <time>2021-07-08T09:46:09Z</time>
      </trkpt>
      <trkpt lat="48.47414" lon="-3.74988">
        <ele>313</ele>
        <time>2021-07-08T09:46:10Z</time>
      </trkpt>
      <trkpt lat="48.47411" lon="-3.74988">
        <ele>313</ele>
        <time>2021-07-08T09:46:11Z</time>
      </trkpt>
      <trkpt lat="48.47407" lon="-3.74988">
        <ele>313</ele>
        <time>2021-07-08T09:46:12Z</time>
      </trkpt>
      <trkpt lat="48.47404" lon="-3.74988">
        <ele>313</ele>
        <time>2021-07-08T09:46:13Z</time>
      </trkpt>
      <trkpt lat="48.474" lon="-3.74988">
        <ele>313</ele>
        <time>2021-07-08T09:46:14Z</time>
      </trkpt>
      <trkpt lat="48.47395" lon="-3.74988">
        <ele>313</ele>
        <time>2021-07-08T09:46:14Z</time>
      </trkpt>
      <trkpt lat="48.47391" lon="-3.74988">
        <ele>313</ele>
        <time>2021-07-08T09:46:16Z</time>
      </trkpt>
      <trkpt lat="48.47388" lon="-3.74989">
        <ele>313</ele>
        <time>2021-07-08T09:46:17Z</time>
      </trkpt>
      <trkpt lat="48.47385" lon="-3.74989">
        <ele>313</ele>
        <time>2021-07-08T09:46:18Z</time>
      </trkpt>
      <trkpt lat="48.47381" lon="-3.7499">
        <ele>314</ele>
        <time>2021-07-08T09:46:19Z</time>
      </trkpt>
      <trkpt lat="48.47379" lon="-3.7499">
        <ele>314</ele>
        <time>2021-07-08T09:46:20Z</time>
      </trkpt>
      <trkpt lat="48.47376" lon="-3.74989">
        <ele>314</ele>
        <time>2021-07-08T09:46:21Z</time>
      </trkpt>
      <trkpt lat="48.47373" lon="-3.74989">
        <ele>314</ele>
        <time>2021-07-08T09:46:22Z</time>
      </trkpt>
      <trkpt lat="48.47371" lon="-3.74989">
        <ele>314</ele>
        <time>2021-07-08T09:46:23Z</time>
      </trkpt>
      <trkpt lat="48.47369" lon="-3.74989">
        <ele>315</ele>
        <time>2021-07-08T09:46:24Z</time>
      </trkpt>
      <trkpt lat="48.47366" lon="-3.74989">
        <ele>315</ele>
        <time>2021-07-08T09:46:25Z</time>
      </trkpt>
      <trkpt lat="48.47364" lon="-3.74989">
        <ele>315</ele>
        <time>2021-07-08T09:46:26Z</time>
      </trkpt>
      <trkpt lat="48.47353" lon="-3.7499">
        <ele>316</ele>
        <time>2021-07-08T09:46:30Z</time>
      </trkpt>
      <trkpt lat="48.47349" lon="-3.7499">
        <ele>316</ele>
        <time>2021-07-08T09:46:31Z</time>
      </trkpt>
      <trkpt lat="48.47346" lon="-3.7499">
        <ele>316</ele>
        <time>2021-07-08T09:46:32Z</time>
      </trkpt>
      <trkpt lat="48.47342" lon="-3.74991">
        <ele>316</ele>
        <time>2021-07-08T09:46:33Z</time>
      </trkpt>
      <trkpt lat="48.47339" lon="-3.74991">
        <ele>316</ele>
        <time>2021-07-08T09:46:34Z</time>
      </trkpt>
      <trkpt lat="48.47335" lon="-3.74992">
        <ele>316</ele>
        <time>2021-07-08T09:46:35Z</time>
      </trkpt>
      <trkpt lat="48.47332" lon="-3.74992">
        <ele>316</ele>
        <time>2021-07-08T09:46:36Z</time>
      </trkpt>
      <trkpt lat="48.47328" lon="-3.74993">
        <ele>316</ele>
        <time>2021-07-08T09:46:37Z</time>
      </trkpt>
      <trkpt lat="48.47325" lon="-3.74993">
        <ele>316</ele>
        <time>2021-07-08T09:46:38Z</time>
      </trkpt>
      <trkpt lat="48.47322" lon="-3.74993">
        <ele>316</ele>
        <time>2021-07-08T09:46:39Z</time>
      </trkpt>
      <trkpt lat="48.4732" lon="-3.74993">
        <ele>316</ele>
        <time>2021-07-08T09:46:39Z</time>
      </trkpt>
      <trkpt lat="48.47316" lon="-3.74993">
        <ele>316</ele>
        <time>2021-07-08T09:46:41Z</time>
      </trkpt>
      <trkpt lat="48.47313" lon="-3.74993">
        <ele>316</ele>
        <time>2021-07-08T09:46:42Z</time>
      </trkpt>
      <trkpt lat="48.47309" lon="-3.74993">
        <ele>316</ele>
        <time>2021-07-08T09:46:43Z</time>
      </trkpt>
      <trkpt lat="48.47306" lon="-3.74994">
        <ele>316</ele>
        <time>2021-07-08T09:46:44Z</time>
      </trkpt>
      <trkpt lat="48.473" lon="-3.74995">
        <ele>316</ele>
        <time>2021-07-08T09:46:45Z</time>
      </trkpt>
      <trkpt lat="48.47297" lon="-3.74996">
        <ele>316</ele>
        <time>2021-07-08T09:46:47Z</time>
      </trkpt>
      <trkpt lat="48.47293" lon="-3.74996">
        <ele>316</ele>
        <time>2021-07-08T09:46:48Z</time>
      </trkpt>
      <trkpt lat="48.4729" lon="-3.74996">
        <ele>316</ele>
        <time>2021-07-08T09:46:49Z</time>
      </trkpt>
      <trkpt lat="48.47288" lon="-3.74996">
        <ele>316</ele>
        <time>2021-07-08T09:46:50Z</time>
      </trkpt>
      <trkpt lat="48.47285" lon="-3.74995">
        <ele>316</ele>
        <time>2021-07-08T09:46:51Z</time>
      </trkpt>
      <trkpt lat="48.47281" lon="-3.74995">
        <ele>316</ele>
        <time>2021-07-08T09:46:52Z</time>
      </trkpt>
      <trkpt lat="48.47278" lon="-3.74996">
        <ele>316</ele>
        <time>2021-07-08T09:46:52Z</time>
      </trkpt>
      <trkpt lat="48.47274" lon="-3.74996">
        <ele>316</ele>
        <time>2021-07-08T09:46:54Z</time>
      </trkpt>
      <trkpt lat="48.4727" lon="-3.74996">
        <ele>316</ele>
        <time>2021-07-08T09:46:55Z</time>
      </trkpt>
      <trkpt lat="48.47267" lon="-3.74997">
        <ele>316</ele>
        <time>2021-07-08T09:46:56Z</time>
      </trkpt>
      <trkpt lat="48.47263" lon="-3.74997">
        <ele>316</ele>
        <time>2021-07-08T09:46:57Z</time>
      </trkpt>
      <trkpt lat="48.4726" lon="-3.74997">
        <ele>316</ele>
        <time>2021-07-08T09:46:57Z</time>
      </trkpt>
      <trkpt lat="48.47256" lon="-3.74998">
        <ele>316</ele>
        <time>2021-07-08T09:46:59Z</time>
      </trkpt>
      <trkpt lat="48.47253" lon="-3.74999">
        <ele>316</ele>
        <time>2021-07-08T09:47:00Z</time>
      </trkpt>
      <trkpt lat="48.4725" lon="-3.74999">
        <ele>316</ele>
        <time>2021-07-08T09:47:01Z</time>
      </trkpt>
      <trkpt lat="48.47246" lon="-3.75">
        <ele>316</ele>
        <time>2021-07-08T09:47:02Z</time>
      </trkpt>
      <trkpt lat="48.47243" lon="-3.75">
        <ele>317</ele>
        <time>2021-07-08T09:47:03Z</time>
      </trkpt>
      <trkpt lat="48.4724" lon="-3.75001">
        <ele>317</ele>
        <time>2021-07-08T09:47:03Z</time>
      </trkpt>
      <trkpt lat="48.47237" lon="-3.75001">
        <ele>317</ele>
        <time>2021-07-08T09:47:05Z</time>
      </trkpt>
      <trkpt lat="48.47233" lon="-3.75001">
        <ele>317</ele>
        <time>2021-07-08T09:47:06Z</time>
      </trkpt>
      <trkpt lat="48.47231" lon="-3.75001">
        <ele>317</ele>
        <time>2021-07-08T09:47:07Z</time>
      </trkpt>
      <trkpt lat="48.47228" lon="-3.75002">
        <ele>317</ele>
        <time>2021-07-08T09:47:08Z</time>
      </trkpt>
      <trkpt lat="48.47226" lon="-3.75002">
        <ele>317</ele>
        <time>2021-07-08T09:47:09Z</time>
      </trkpt>
      <trkpt lat="48.47223" lon="-3.75002">
        <ele>317</ele>
        <time>2021-07-08T09:47:10Z</time>
      </trkpt>
      <trkpt lat="48.4722" lon="-3.75002">
        <ele>317</ele>
        <time>2021-07-08T09:47:11Z</time>
      </trkpt>
      <trkpt lat="48.47218" lon="-3.75003">
        <ele>317</ele>
        <time>2021-07-08T09:47:12Z</time>
      </trkpt>
      <trkpt lat="48.47215" lon="-3.75003">
        <ele>317</ele>
        <time>2021-07-08T09:47:13Z</time>
      </trkpt>
      <trkpt lat="48.47211" lon="-3.75003">
        <ele>317</ele>
        <time>2021-07-08T09:47:14Z</time>
      </trkpt>
      <trkpt lat="48.47208" lon="-3.75002">
        <ele>317</ele>
        <time>2021-07-08T09:47:15Z</time>
      </trkpt>
      <trkpt lat="48.47205" lon="-3.75003">
        <ele>317</ele>
        <time>2021-07-08T09:47:16Z</time>
      </trkpt>
      <trkpt lat="48.47202" lon="-3.75002">
        <ele>317</ele>
        <time>2021-07-08T09:47:17Z</time>
      </trkpt>
      <trkpt lat="48.47198" lon="-3.75002">
        <ele>317</ele>
        <time>2021-07-08T09:47:18Z</time>
      </trkpt>
      <trkpt lat="48.47195" lon="-3.75002">
        <ele>317</ele>
        <time>2021-07-08T09:47:19Z</time>
      </trkpt>
      <trkpt lat="48.47191" lon="-3.75002">
        <ele>317</ele>
        <time>2021-07-08T09:47:20Z</time>
      </trkpt>
      <trkpt lat="48.47188" lon="-3.75002">
        <ele>317</ele>
        <time>2021-07-08T09:47:21Z</time>
      </trkpt>
      <trkpt lat="48.47185" lon="-3.75002">
        <ele>317</ele>
        <time>2021-07-08T09:47:22Z</time>
      </trkpt>
      <trkpt lat="48.47182" lon="-3.75002">
        <ele>317</ele>
        <time>2021-07-08T09:47:23Z</time>
      </trkpt>
      <trkpt lat="48.47179" lon="-3.75002">
        <ele>318</ele>
        <time>2021-07-08T09:47:24Z</time>
      </trkpt>
      <trkpt lat="48.47175" lon="-3.75002">
        <ele>318</ele>
        <time>2021-07-08T09:47:25Z</time>
      </trkpt>
      <trkpt lat="48.47172" lon="-3.75002">
        <ele>318</ele>
        <time>2021-07-08T09:47:26Z</time>
      </trkpt>
      <trkpt lat="48.47168" lon="-3.75002">
        <ele>318</ele>
        <time>2021-07-08T09:47:26Z</time>
      </trkpt>
      <trkpt lat="48.47164" lon="-3.75003">
        <ele>318</ele>
        <time>2021-07-08T09:47:28Z</time>
      </trkpt>
      <trkpt lat="48.47161" lon="-3.75003">
        <ele>318</ele>
        <time>2021-07-08T09:47:29Z</time>
      </trkpt>
      <trkpt lat="48.47157" lon="-3.75003">
        <ele>318</ele>
        <time>2021-07-08T09:47:30Z</time>
      </trkpt>
      <trkpt lat="48.47154" lon="-3.75004">
        <ele>319</ele>
        <time>2021-07-08T09:47:31Z</time>
      </trkpt>
      <trkpt lat="48.4715" lon="-3.75004">
        <ele>319</ele>
        <time>2021-07-08T09:47:32Z</time>
      </trkpt>
      <trkpt lat="48.47148" lon="-3.75005">
        <ele>319</ele>
        <time>2021-07-08T09:47:33Z</time>
      </trkpt>
      <trkpt lat="48.47145" lon="-3.75005">
        <ele>319</ele>
        <time>2021-07-08T09:47:34Z</time>
      </trkpt>
      <trkpt lat="48.47142" lon="-3.75005">
        <ele>319</ele>
        <time>2021-07-08T09:47:35Z</time>
      </trkpt>
      <trkpt lat="48.47138" lon="-3.75005">
        <ele>319</ele>
        <time>2021-07-08T09:47:36Z</time>
      </trkpt>
      <trkpt lat="48.47135" lon="-3.75006">
        <ele>319</ele>
        <time>2021-07-08T09:47:37Z</time>
      </trkpt>
      <trkpt lat="48.47132" lon="-3.75006">
        <ele>319</ele>
        <time>2021-07-08T09:47:38Z</time>
      </trkpt>
      <trkpt lat="48.47129" lon="-3.75006">
        <ele>319</ele>
        <time>2021-07-08T09:47:39Z</time>
      </trkpt>
      <trkpt lat="48.47125" lon="-3.75006">
        <ele>319</ele>
        <time>2021-07-08T09:47:40Z</time>
      </trkpt>
      <trkpt lat="48.47121" lon="-3.75007">
        <ele>319</ele>
        <time>2021-07-08T09:47:41Z</time>
      </trkpt>
      <trkpt lat="48.47117" lon="-3.75008">
        <ele>319</ele>
        <time>2021-07-08T09:47:42Z</time>
      </trkpt>
      <trkpt lat="48.47114" lon="-3.75009">
        <ele>319</ele>
        <time>2021-07-08T09:47:43Z</time>
      </trkpt>
      <trkpt lat="48.47111" lon="-3.7501">
        <ele>319</ele>
        <time>2021-07-08T09:47:44Z</time>
      </trkpt>
      <trkpt lat="48.47104" lon="-3.75011">
        <ele>319</ele>
        <time>2021-07-08T09:47:44Z</time>
      </trkpt>
      <trkpt lat="48.471" lon="-3.75012">
        <ele>319</ele>
        <time>2021-07-08T09:47:47Z</time>
      </trkpt>
      <trkpt lat="48.47097" lon="-3.75013">
        <ele>319</ele>
        <time>2021-07-08T09:47:48Z</time>
      </trkpt>
      <trkpt lat="48.47094" lon="-3.75013">
        <ele>319</ele>
        <time>2021-07-08T09:47:49Z</time>
      </trkpt>
      <trkpt lat="48.47092" lon="-3.75013">
        <ele>319</ele>
        <time>2021-07-08T09:47:50Z</time>
      </trkpt>
      <trkpt lat="48.47089" lon="-3.75013">
        <ele>319</ele>
        <time>2021-07-08T09:47:51Z</time>
      </trkpt>
      <trkpt lat="48.47086" lon="-3.75013">
        <ele>321</ele>
        <time>2021-07-08T09:47:52Z</time>
      </trkpt>
      <trkpt lat="48.47083" lon="-3.75013">
        <ele>321</ele>
        <time>2021-07-08T09:47:53Z</time>
      </trkpt>
      <trkpt lat="48.4708" lon="-3.75013">
        <ele>321</ele>
        <time>2021-07-08T09:47:54Z</time>
      </trkpt>
      <trkpt lat="48.47076" lon="-3.75013">
        <ele>321</ele>
        <time>2021-07-08T09:47:55Z</time>
      </trkpt>
      <trkpt lat="48.47072" lon="-3.75013">
        <ele>321</ele>
        <time>2021-07-08T09:47:56Z</time>
      </trkpt>
      <trkpt lat="48.47069" lon="-3.75013">
        <ele>321</ele>
        <time>2021-07-08T09:47:57Z</time>
      </trkpt>
      <trkpt lat="48.47062" lon="-3.75013">
        <ele>321</ele>
        <time>2021-07-08T09:47:59Z</time>
      </trkpt>
      <trkpt lat="48.47058" lon="-3.75013">
        <ele>321</ele>
        <time>2021-07-08T09:48:00Z</time>
      </trkpt>
      <trkpt lat="48.47055" lon="-3.75013">
        <ele>321</ele>
        <time>2021-07-08T09:48:01Z</time>
      </trkpt>
      <trkpt lat="48.47051" lon="-3.75014">
        <ele>321</ele>
        <time>2021-07-08T09:48:02Z</time>
      </trkpt>
      <trkpt lat="48.47048" lon="-3.75014">
        <ele>321</ele>
        <time>2021-07-08T09:48:03Z</time>
      </trkpt>
      <trkpt lat="48.47045" lon="-3.75014">
        <ele>322</ele>
        <time>2021-07-08T09:48:04Z</time>
      </trkpt>
      <trkpt lat="48.47042" lon="-3.75015">
        <ele>322</ele>
        <time>2021-07-08T09:48:05Z</time>
      </trkpt>
      <trkpt lat="48.47039" lon="-3.75016">
        <ele>322</ele>
        <time>2021-07-08T09:48:06Z</time>
      </trkpt>
      <trkpt lat="48.47036" lon="-3.75016">
        <ele>321</ele>
        <time>2021-07-08T09:48:07Z</time>
      </trkpt>
      <trkpt lat="48.47032" lon="-3.75016">
        <ele>321</ele>
        <time>2021-07-08T09:48:08Z</time>
      </trkpt>
      <trkpt lat="48.47029" lon="-3.75016">
        <ele>321</ele>
        <time>2021-07-08T09:48:08Z</time>
      </trkpt>
      <trkpt lat="48.47026" lon="-3.75015">
        <ele>321</ele>
        <time>2021-07-08T09:48:10Z</time>
      </trkpt>
      <trkpt lat="48.47023" lon="-3.75015">
        <ele>321</ele>
        <time>2021-07-08T09:48:11Z</time>
      </trkpt>
      <trkpt lat="48.47019" lon="-3.75015">
        <ele>322</ele>
        <time>2021-07-08T09:48:12Z</time>
      </trkpt>
      <trkpt lat="48.47016" lon="-3.75015">
        <ele>322</ele>
        <time>2021-07-08T09:48:13Z</time>
      </trkpt>
      <trkpt lat="48.47013" lon="-3.75015">
        <ele>322</ele>
        <time>2021-07-08T09:48:14Z</time>
      </trkpt>
      <trkpt lat="48.4701" lon="-3.75014">
        <ele>322</ele>
        <time>2021-07-08T09:48:15Z</time>
      </trkpt>
      <trkpt lat="48.47006" lon="-3.75014">
        <ele>322</ele>
        <time>2021-07-08T09:48:16Z</time>
      </trkpt>
      <trkpt lat="48.47002" lon="-3.75014">
        <ele>322</ele>
        <time>2021-07-08T09:48:17Z</time>
      </trkpt>
      <trkpt lat="48.46999" lon="-3.75013">
        <ele>322</ele>
        <time>2021-07-08T09:48:18Z</time>
      </trkpt>
      <trkpt lat="48.46996" lon="-3.75013">
        <ele>322</ele>
        <time>2021-07-08T09:48:19Z</time>
      </trkpt>
      <trkpt lat="48.46993" lon="-3.75012">
        <ele>322</ele>
        <time>2021-07-08T09:48:20Z</time>
      </trkpt>
      <trkpt lat="48.4699" lon="-3.75012">
        <ele>322</ele>
        <time>2021-07-08T09:48:21Z</time>
      </trkpt>
      <trkpt lat="48.46986" lon="-3.75011">
        <ele>322</ele>
        <time>2021-07-08T09:48:22Z</time>
      </trkpt>
      <trkpt lat="48.46979" lon="-3.75009">
        <ele>322</ele>
        <time>2021-07-08T09:48:24Z</time>
      </trkpt>
      <trkpt lat="48.46965" lon="-3.75005">
        <ele>322</ele>
        <time>2021-07-08T09:48:28Z</time>
      </trkpt>
      <trkpt lat="48.46954" lon="-3.75003">
        <ele>322</ele>
        <time>2021-07-08T09:48:30Z</time>
      </trkpt>
      <trkpt lat="48.46945" lon="-3.75001">
        <ele>322</ele>
        <time>2021-07-08T09:48:33Z</time>
      </trkpt>
      <trkpt lat="48.46939" lon="-3.75">
        <ele>322</ele>
        <time>2021-07-08T09:48:34Z</time>
      </trkpt>
      <trkpt lat="48.46935" lon="-3.74999">
        <ele>322</ele>
        <time>2021-07-08T09:48:36Z</time>
      </trkpt>
      <trkpt lat="48.46932" lon="-3.74998">
        <ele>322</ele>
        <time>2021-07-08T09:48:37Z</time>
      </trkpt>
      <trkpt lat="48.46927" lon="-3.74997">
        <ele>322</ele>
        <time>2021-07-08T09:48:38Z</time>
      </trkpt>
      <trkpt lat="48.46922" lon="-3.74996">
        <ele>322</ele>
        <time>2021-07-08T09:48:39Z</time>
      </trkpt>
      <trkpt lat="48.46918" lon="-3.74995">
        <ele>322</ele>
        <time>2021-07-08T09:48:40Z</time>
      </trkpt>
      <trkpt lat="48.46913" lon="-3.74993">
        <ele>322</ele>
        <time>2021-07-08T09:48:41Z</time>
      </trkpt>
      <trkpt lat="48.46901" lon="-3.74988">
        <ele>322</ele>
        <time>2021-07-08T09:48:44Z</time>
      </trkpt>
      <trkpt lat="48.46889" lon="-3.74983">
        <ele>322</ele>
        <time>2021-07-08T09:48:46Z</time>
      </trkpt>
      <trkpt lat="48.46878" lon="-3.74977">
        <ele>322</ele>
        <time>2021-07-08T09:48:50Z</time>
      </trkpt>
      <trkpt lat="48.46866" lon="-3.7497">
        <ele>322</ele>
        <time>2021-07-08T09:48:53Z</time>
      </trkpt>
      <trkpt lat="48.46857" lon="-3.74964">
        <ele>322</ele>
        <time>2021-07-08T09:48:55Z</time>
      </trkpt>
      <trkpt lat="48.46849" lon="-3.74958">
        <ele>322</ele>
        <time>2021-07-08T09:48:57Z</time>
      </trkpt>
      <trkpt lat="48.46839" lon="-3.7495">
        <ele>322</ele>
        <time>2021-07-08T09:49:00Z</time>
      </trkpt>
      <trkpt lat="48.46831" lon="-3.74941">
        <ele>322</ele>
        <time>2021-07-08T09:49:03Z</time>
      </trkpt>
      <trkpt lat="48.46822" lon="-3.74934">
        <ele>322</ele>
        <time>2021-07-08T09:49:05Z</time>
      </trkpt>
      <trkpt lat="48.46813" lon="-3.74926">
        <ele>322</ele>
        <time>2021-07-08T09:49:07Z</time>
      </trkpt>
      <trkpt lat="48.46803" lon="-3.74916">
        <ele>322</ele>
        <time>2021-07-08T09:49:10Z</time>
      </trkpt>
      <trkpt lat="48.46794" lon="-3.74906">
        <ele>322</ele>
        <time>2021-07-08T09:49:13Z</time>
      </trkpt>
      <trkpt lat="48.46784" lon="-3.74894">
        <ele>322</ele>
        <time>2021-07-08T09:49:16Z</time>
      </trkpt>
      <trkpt lat="48.46774" lon="-3.7488">
        <ele>322</ele>
        <time>2021-07-08T09:49:19Z</time>
      </trkpt>
      <trkpt lat="48.46766" lon="-3.74864">
        <ele>322</ele>
        <time>2021-07-08T09:49:22Z</time>
      </trkpt>
      <trkpt lat="48.46756" lon="-3.74853">
        <ele>322</ele>
        <time>2021-07-08T09:49:25Z</time>
      </trkpt>
      <trkpt lat="48.46746" lon="-3.74842">
        <ele>322</ele>
        <time>2021-07-08T09:49:28Z</time>
      </trkpt>
      <trkpt lat="48.46737" lon="-3.74829">
        <ele>322</ele>
        <time>2021-07-08T09:49:31Z</time>
      </trkpt>
      <trkpt lat="48.46734" lon="-3.74825">
        <ele>322</ele>
        <time>2021-07-08T09:49:32Z</time>
      </trkpt>
      <trkpt lat="48.46731" lon="-3.74822">
        <ele>322</ele>
        <time>2021-07-08T09:49:33Z</time>
      </trkpt>
      <trkpt lat="48.46723" lon="-3.74812">
        <ele>322</ele>
        <time>2021-07-08T09:49:35Z</time>
      </trkpt>
      <trkpt lat="48.46717" lon="-3.74802">
        <ele>322</ele>
        <time>2021-07-08T09:49:39Z</time>
      </trkpt>
      <trkpt lat="48.46709" lon="-3.74793">
        <ele>322</ele>
        <time>2021-07-08T09:49:42Z</time>
      </trkpt>
      <trkpt lat="48.46701" lon="-3.74782">
        <ele>322</ele>
        <time>2021-07-08T09:49:46Z</time>
      </trkpt>
      <trkpt lat="48.46692" lon="-3.74775">
        <ele>322</ele>
        <time>2021-07-08T09:49:48Z</time>
      </trkpt>
      <trkpt lat="48.46691" lon="-3.74773">
        <ele>322</ele>
        <time>2021-07-08T09:49:50Z</time>
      </trkpt>
      <trkpt lat="48.46688" lon="-3.7477">
        <ele>322</ele>
        <time>2021-07-08T09:49:52Z</time>
      </trkpt>
      <trkpt lat="48.46686" lon="-3.74768">
        <ele>322</ele>
        <time>2021-07-08T09:49:54Z</time>
      </trkpt>
      <trkpt lat="48.46684" lon="-3.74766">
        <ele>322</ele>
        <time>2021-07-08T09:49:56Z</time>
      </trkpt>
      <trkpt lat="48.46682" lon="-3.74762">
        <ele>322</ele>
        <time>2021-07-08T09:49:58Z</time>
      </trkpt>
      <trkpt lat="48.46679" lon="-3.74759">
        <ele>322</ele>
        <time>2021-07-08T09:50:00Z</time>
      </trkpt>
      <trkpt lat="48.46678" lon="-3.74757">
        <ele>322</ele>
        <time>2021-07-08T09:50:01Z</time>
      </trkpt>
      <trkpt lat="48.46676" lon="-3.74755">
        <ele>322</ele>
        <time>2021-07-08T09:50:02Z</time>
      </trkpt>
      <trkpt lat="48.46674" lon="-3.74753">
        <ele>322</ele>
        <time>2021-07-08T09:50:02Z</time>
      </trkpt>
      <trkpt lat="48.46673" lon="-3.74751">
        <ele>322</ele>
        <time>2021-07-08T09:50:04Z</time>
      </trkpt>
      <trkpt lat="48.46671" lon="-3.74749">
        <ele>322</ele>
        <time>2021-07-08T09:50:05Z</time>
      </trkpt>
      <trkpt lat="48.46669" lon="-3.74747">
        <ele>322</ele>
        <time>2021-07-08T09:50:05Z</time>
      </trkpt>
      <trkpt lat="48.46667" lon="-3.74745">
        <ele>322</ele>
        <time>2021-07-08T09:50:07Z</time>
      </trkpt>
      <trkpt lat="48.46665" lon="-3.74743">
        <ele>322</ele>
        <time>2021-07-08T09:50:08Z</time>
      </trkpt>
      <trkpt lat="48.46663" lon="-3.74741">
        <ele>322</ele>
        <time>2021-07-08T09:50:09Z</time>
      </trkpt>
      <trkpt lat="48.46661" lon="-3.74739">
        <ele>322</ele>
        <time>2021-07-08T09:50:10Z</time>
      </trkpt>
      <trkpt lat="48.46659" lon="-3.74737">
        <ele>322</ele>
        <time>2021-07-08T09:50:11Z</time>
      </trkpt>
      <trkpt lat="48.46657" lon="-3.74735">
        <ele>322</ele>
        <time>2021-07-08T09:50:12Z</time>
      </trkpt>
      <trkpt lat="48.46655" lon="-3.74734">
        <ele>322</ele>
        <time>2021-07-08T09:50:13Z</time>
      </trkpt>
      <trkpt lat="48.46653" lon="-3.74732">
        <ele>322</ele>
        <time>2021-07-08T09:50:14Z</time>
      </trkpt>
      <trkpt lat="48.46651" lon="-3.7473">
        <ele>322</ele>
        <time>2021-07-08T09:50:15Z</time>
      </trkpt>
      <trkpt lat="48.4665" lon="-3.74728">
        <ele>322</ele>
        <time>2021-07-08T09:50:16Z</time>
      </trkpt>
      <trkpt lat="48.46648" lon="-3.74727">
        <ele>322</ele>
        <time>2021-07-08T09:50:17Z</time>
      </trkpt>
      <trkpt lat="48.46645" lon="-3.74723">
        <ele>322</ele>
        <time>2021-07-08T09:50:19Z</time>
      </trkpt>
      <trkpt lat="48.46636" lon="-3.74715">
        <ele>322</ele>
        <time>2021-07-08T09:50:24Z</time>
      </trkpt>
      <trkpt lat="48.46634" lon="-3.74713">
        <ele>322</ele>
        <time>2021-07-08T09:50:25Z</time>
      </trkpt>
      <trkpt lat="48.46632" lon="-3.74711">
        <ele>322</ele>
        <time>2021-07-08T09:50:26Z</time>
      </trkpt>
      <trkpt lat="48.46631" lon="-3.74709">
        <ele>322</ele>
        <time>2021-07-08T09:50:27Z</time>
      </trkpt>
      <trkpt lat="48.4663" lon="-3.74707">
        <ele>322</ele>
        <time>2021-07-08T09:50:27Z</time>
      </trkpt>
      <trkpt lat="48.46627" lon="-3.74704">
        <ele>322</ele>
        <time>2021-07-08T09:50:30Z</time>
      </trkpt>
      <trkpt lat="48.46624" lon="-3.74701">
        <ele>322</ele>
        <time>2021-07-08T09:50:32Z</time>
      </trkpt>
      <trkpt lat="48.46622" lon="-3.74699">
        <ele>322</ele>
        <time>2021-07-08T09:50:34Z</time>
      </trkpt>
      <trkpt lat="48.4662" lon="-3.74697">
        <ele>322</ele>
        <time>2021-07-08T09:50:35Z</time>
      </trkpt>
      <trkpt lat="48.46617" lon="-3.74693">
        <ele>322</ele>
        <time>2021-07-08T09:50:38Z</time>
      </trkpt>
      <trkpt lat="48.46615" lon="-3.74691">
        <ele>322</ele>
        <time>2021-07-08T09:50:39Z</time>
      </trkpt>
      <trkpt lat="48.46613" lon="-3.7469">
        <ele>322</ele>
        <time>2021-07-08T09:50:40Z</time>
      </trkpt>
      <trkpt lat="48.46612" lon="-3.74689">
        <ele>322</ele>
        <time>2021-07-08T09:50:41Z</time>
      </trkpt>
      <trkpt lat="48.46609" lon="-3.74685">
        <ele>322</ele>
        <time>2021-07-08T09:50:43Z</time>
      </trkpt>
      <trkpt lat="48.46605" lon="-3.7468">
        <ele>322</ele>
        <time>2021-07-08T09:50:45Z</time>
      </trkpt>
      <trkpt lat="48.46604" lon="-3.74677">
        <ele>322</ele>
        <time>2021-07-08T09:50:46Z</time>
      </trkpt>
      <trkpt lat="48.46602" lon="-3.74674">
        <ele>322</ele>
        <time>2021-07-08T09:50:47Z</time>
      </trkpt>
      <trkpt lat="48.46599" lon="-3.74672">
        <ele>322</ele>
        <time>2021-07-08T09:50:48Z</time>
      </trkpt>
      <trkpt lat="48.46592" lon="-3.7466">
        <ele>322</ele>
        <time>2021-07-08T09:50:52Z</time>
      </trkpt>
      <trkpt lat="48.46585" lon="-3.74648">
        <ele>322</ele>
        <time>2021-07-08T09:50:56Z</time>
      </trkpt>
      <trkpt lat="48.46578" lon="-3.74636">
        <ele>322</ele>
        <time>2021-07-08T09:50:59Z</time>
      </trkpt>
      <trkpt lat="48.46574" lon="-3.74621">
        <ele>322</ele>
        <time>2021-07-08T09:51:04Z</time>
      </trkpt>
      <trkpt lat="48.4657" lon="-3.74604">
        <ele>322</ele>
        <time>2021-07-08T09:51:08Z</time>
      </trkpt>
      <trkpt lat="48.46563" lon="-3.74587">
        <ele>322</ele>
        <time>2021-07-08T09:51:10Z</time>
      </trkpt>
      <trkpt lat="48.46559" lon="-3.74569">
        <ele>322</ele>
        <time>2021-07-08T09:51:14Z</time>
      </trkpt>
      <trkpt lat="48.46555" lon="-3.74553">
        <ele>322</ele>
        <time>2021-07-08T09:51:17Z</time>
      </trkpt>
      <trkpt lat="48.46552" lon="-3.74537">
        <ele>322</ele>
        <time>2021-07-08T09:51:20Z</time>
      </trkpt>
      <trkpt lat="48.46549" lon="-3.74523">
        <ele>322</ele>
        <time>2021-07-08T09:51:22Z</time>
      </trkpt>
      <trkpt lat="48.46545" lon="-3.74509">
        <ele>322</ele>
        <time>2021-07-08T09:51:26Z</time>
      </trkpt>
      <trkpt lat="48.46541" lon="-3.74496">
        <ele>322</ele>
        <time>2021-07-08T09:51:28Z</time>
      </trkpt>
      <trkpt lat="48.46538" lon="-3.74479">
        <ele>322</ele>
        <time>2021-07-08T09:51:32Z</time>
      </trkpt>
      <trkpt lat="48.46534" lon="-3.74463">
        <ele>322</ele>
        <time>2021-07-08T09:51:34Z</time>
      </trkpt>
      <trkpt lat="48.46532" lon="-3.74443">
        <ele>322</ele>
        <time>2021-07-08T09:51:38Z</time>
      </trkpt>
      <trkpt lat="48.4653" lon="-3.7443">
        <ele>322</ele>
        <time>2021-07-08T09:51:40Z</time>
      </trkpt>
      <trkpt lat="48.46527" lon="-3.74411">
        <ele>322</ele>
        <time>2021-07-08T09:51:43Z</time>
      </trkpt>
      <trkpt lat="48.46525" lon="-3.74393">
        <ele>322</ele>
        <time>2021-07-08T09:51:46Z</time>
      </trkpt>
      <trkpt lat="48.46521" lon="-3.74378">
        <ele>322</ele>
        <time>2021-07-08T09:51:49Z</time>
      </trkpt>
      <trkpt lat="48.4652" lon="-3.74357">
        <ele>321</ele>
        <time>2021-07-08T09:51:52Z</time>
      </trkpt>
      <trkpt lat="48.4652" lon="-3.74342">
        <ele>321</ele>
        <time>2021-07-08T09:51:54Z</time>
      </trkpt>
      <trkpt lat="48.46519" lon="-3.74323">
        <ele>321</ele>
        <time>2021-07-08T09:51:57Z</time>
      </trkpt>
      <trkpt lat="48.46518" lon="-3.74309">
        <ele>321</ele>
        <time>2021-07-08T09:51:59Z</time>
      </trkpt>
      <trkpt lat="48.46517" lon="-3.74294">
        <ele>320</ele>
        <time>2021-07-08T09:52:00Z</time>
      </trkpt>
      <trkpt lat="48.46516" lon="-3.7428">
        <ele>320</ele>
        <time>2021-07-08T09:52:03Z</time>
      </trkpt>
      <trkpt lat="48.46516" lon="-3.74264">
        <ele>321</ele>
        <time>2021-07-08T09:52:05Z</time>
      </trkpt>
      <trkpt lat="48.46514" lon="-3.74248">
        <ele>321</ele>
        <time>2021-07-08T09:52:07Z</time>
      </trkpt>
      <trkpt lat="48.46514" lon="-3.74233">
        <ele>320</ele>
        <time>2021-07-08T09:52:09Z</time>
      </trkpt>
      <trkpt lat="48.46515" lon="-3.74219">
        <ele>319</ele>
        <time>2021-07-08T09:52:11Z</time>
      </trkpt>
      <trkpt lat="48.46514" lon="-3.742">
        <ele>319</ele>
        <time>2021-07-08T09:52:13Z</time>
      </trkpt>
      <trkpt lat="48.46518" lon="-3.7418">
        <ele>318</ele>
        <time>2021-07-08T09:52:15Z</time>
      </trkpt>
      <trkpt lat="48.46519" lon="-3.74163">
        <ele>318</ele>
        <time>2021-07-08T09:52:18Z</time>
      </trkpt>
      <trkpt lat="48.46521" lon="-3.74149">
        <ele>318</ele>
        <time>2021-07-08T09:52:19Z</time>
      </trkpt>
      <trkpt lat="48.46522" lon="-3.74138">
        <ele>317</ele>
        <time>2021-07-08T09:52:22Z</time>
      </trkpt>
      <trkpt lat="48.46522" lon="-3.74133">
        <ele>317</ele>
        <time>2021-07-08T09:52:23Z</time>
      </trkpt>
      <trkpt lat="48.46522" lon="-3.74129">
        <ele>317</ele>
        <time>2021-07-08T09:52:24Z</time>
      </trkpt>
      <trkpt lat="48.46523" lon="-3.74127">
        <ele>317</ele>
        <time>2021-07-08T09:52:25Z</time>
      </trkpt>
      <trkpt lat="48.46523" lon="-3.74122">
        <ele>317</ele>
        <time>2021-07-08T09:52:27Z</time>
      </trkpt>
      <trkpt lat="48.46524" lon="-3.74118">
        <ele>317</ele>
        <time>2021-07-08T09:52:29Z</time>
      </trkpt>
      <trkpt lat="48.46524" lon="-3.74113">
        <ele>317</ele>
        <time>2021-07-08T09:52:31Z</time>
      </trkpt>
      <trkpt lat="48.46525" lon="-3.7411">
        <ele>317</ele>
        <time>2021-07-08T09:52:32Z</time>
      </trkpt>
      <trkpt lat="48.46525" lon="-3.74107">
        <ele>317</ele>
        <time>2021-07-08T09:52:33Z</time>
      </trkpt>
      <trkpt lat="48.46526" lon="-3.74103">
        <ele>317</ele>
        <time>2021-07-08T09:52:34Z</time>
      </trkpt>
      <trkpt lat="48.46526" lon="-3.74098">
        <ele>317</ele>
        <time>2021-07-08T09:52:34Z</time>
      </trkpt>
      <trkpt lat="48.46528" lon="-3.74093">
        <ele>316</ele>
        <time>2021-07-08T09:52:36Z</time>
      </trkpt>
      <trkpt lat="48.46528" lon="-3.74088">
        <ele>316</ele>
        <time>2021-07-08T09:52:37Z</time>
      </trkpt>
      <trkpt lat="48.46529" lon="-3.74083">
        <ele>316</ele>
        <time>2021-07-08T09:52:38Z</time>
      </trkpt>
      <trkpt lat="48.4653" lon="-3.74077">
        <ele>316</ele>
        <time>2021-07-08T09:52:39Z</time>
      </trkpt>
      <trkpt lat="48.46531" lon="-3.74072">
        <ele>316</ele>
        <time>2021-07-08T09:52:40Z</time>
      </trkpt>
      <trkpt lat="48.46532" lon="-3.74066">
        <ele>316</ele>
        <time>2021-07-08T09:52:41Z</time>
      </trkpt>
      <trkpt lat="48.46533" lon="-3.7406">
        <ele>316</ele>
        <time>2021-07-08T09:52:42Z</time>
      </trkpt>
      <trkpt lat="48.46534" lon="-3.74054">
        <ele>316</ele>
        <time>2021-07-08T09:52:42Z</time>
      </trkpt>
      <trkpt lat="48.46535" lon="-3.74048">
        <ele>316</ele>
        <time>2021-07-08T09:52:44Z</time>
      </trkpt>
      <trkpt lat="48.46536" lon="-3.74041">
        <ele>316</ele>
        <time>2021-07-08T09:52:44Z</time>
      </trkpt>
      <trkpt lat="48.46537" lon="-3.74035">
        <ele>316</ele>
        <time>2021-07-08T09:52:46Z</time>
      </trkpt>
      <trkpt lat="48.46539" lon="-3.74029">
        <ele>316</ele>
        <time>2021-07-08T09:52:47Z</time>
      </trkpt>
      <trkpt lat="48.4654" lon="-3.74022">
        <ele>316</ele>
        <time>2021-07-08T09:52:48Z</time>
      </trkpt>
      <trkpt lat="48.46542" lon="-3.74016">
        <ele>316</ele>
        <time>2021-07-08T09:52:49Z</time>
      </trkpt>
      <trkpt lat="48.46546" lon="-3.74002">
        <ele>316</ele>
        <time>2021-07-08T09:52:50Z</time>
      </trkpt>
      <trkpt lat="48.46548" lon="-3.73995">
        <ele>316</ele>
        <time>2021-07-08T09:52:52Z</time>
      </trkpt>
      <trkpt lat="48.4655" lon="-3.73989">
        <ele>316</ele>
        <time>2021-07-08T09:52:53Z</time>
      </trkpt>
      <trkpt lat="48.46552" lon="-3.73982">
        <ele>316</ele>
        <time>2021-07-08T09:52:53Z</time>
      </trkpt>
      <trkpt lat="48.46554" lon="-3.73975">
        <ele>316</ele>
        <time>2021-07-08T09:52:55Z</time>
      </trkpt>
      <trkpt lat="48.46556" lon="-3.73969">
        <ele>315</ele>
        <time>2021-07-08T09:52:56Z</time>
      </trkpt>
      <trkpt lat="48.46558" lon="-3.73962">
        <ele>315</ele>
        <time>2021-07-08T09:52:57Z</time>
      </trkpt>
      <trkpt lat="48.4656" lon="-3.73955">
        <ele>315</ele>
        <time>2021-07-08T09:52:58Z</time>
      </trkpt>
      <trkpt lat="48.46562" lon="-3.73948">
        <ele>315</ele>
        <time>2021-07-08T09:52:59Z</time>
      </trkpt>
      <trkpt lat="48.46564" lon="-3.73941">
        <ele>315</ele>
        <time>2021-07-08T09:53:00Z</time>
      </trkpt>
      <trkpt lat="48.46566" lon="-3.73934">
        <ele>315</ele>
        <time>2021-07-08T09:53:01Z</time>
      </trkpt>
      <trkpt lat="48.46568" lon="-3.73927">
        <ele>315</ele>
        <time>2021-07-08T09:53:02Z</time>
      </trkpt>
      <trkpt lat="48.4657" lon="-3.73921">
        <ele>315</ele>
        <time>2021-07-08T09:53:03Z</time>
      </trkpt>
      <trkpt lat="48.46572" lon="-3.73914">
        <ele>315</ele>
        <time>2021-07-08T09:53:04Z</time>
      </trkpt>
      <trkpt lat="48.46574" lon="-3.73908">
        <ele>314</ele>
        <time>2021-07-08T09:53:05Z</time>
      </trkpt>
      <trkpt lat="48.46576" lon="-3.73902">
        <ele>314</ele>
        <time>2021-07-08T09:53:06Z</time>
      </trkpt>
      <trkpt lat="48.46578" lon="-3.73895">
        <ele>313</ele>
        <time>2021-07-08T09:53:07Z</time>
      </trkpt>
      <trkpt lat="48.4658" lon="-3.73888">
        <ele>313</ele>
        <time>2021-07-08T09:53:08Z</time>
      </trkpt>
      <trkpt lat="48.46582" lon="-3.73881">
        <ele>313</ele>
        <time>2021-07-08T09:53:09Z</time>
      </trkpt>
      <trkpt lat="48.46584" lon="-3.73875">
        <ele>313</ele>
        <time>2021-07-08T09:53:10Z</time>
      </trkpt>
      <trkpt lat="48.46586" lon="-3.73868">
        <ele>313</ele>
        <time>2021-07-08T09:53:11Z</time>
      </trkpt>
      <trkpt lat="48.46588" lon="-3.73862">
        <ele>313</ele>
        <time>2021-07-08T09:53:12Z</time>
      </trkpt>
      <trkpt lat="48.46591" lon="-3.73855">
        <ele>313</ele>
        <time>2021-07-08T09:53:13Z</time>
      </trkpt>
      <trkpt lat="48.46595" lon="-3.73842">
        <ele>313</ele>
        <time>2021-07-08T09:53:15Z</time>
      </trkpt>
      <trkpt lat="48.466" lon="-3.73829">
        <ele>313</ele>
        <time>2021-07-08T09:53:17Z</time>
      </trkpt>
      <trkpt lat="48.46605" lon="-3.73813">
        <ele>312</ele>
        <time>2021-07-08T09:53:19Z</time>
      </trkpt>
      <trkpt lat="48.46607" lon="-3.73805">
        <ele>312</ele>
        <time>2021-07-08T09:53:20Z</time>
      </trkpt>
      <trkpt lat="48.46609" lon="-3.73798">
        <ele>312</ele>
        <time>2021-07-08T09:53:21Z</time>
      </trkpt>
      <trkpt lat="48.46612" lon="-3.7379">
        <ele>312</ele>
        <time>2021-07-08T09:53:22Z</time>
      </trkpt>
      <trkpt lat="48.46614" lon="-3.73783">
        <ele>312</ele>
        <time>2021-07-08T09:53:23Z</time>
      </trkpt>
      <trkpt lat="48.46616" lon="-3.73775">
        <ele>312</ele>
        <time>2021-07-08T09:53:24Z</time>
      </trkpt>
      <trkpt lat="48.46619" lon="-3.73768">
        <ele>311</ele>
        <time>2021-07-08T09:53:25Z</time>
      </trkpt>
      <trkpt lat="48.46621" lon="-3.7376">
        <ele>311</ele>
        <time>2021-07-08T09:53:26Z</time>
      </trkpt>
      <trkpt lat="48.46623" lon="-3.73753">
        <ele>311</ele>
        <time>2021-07-08T09:53:27Z</time>
      </trkpt>
      <trkpt lat="48.46624" lon="-3.73745">
        <ele>311</ele>
        <time>2021-07-08T09:53:28Z</time>
      </trkpt>
      <trkpt lat="48.46625" lon="-3.73737">
        <ele>311</ele>
        <time>2021-07-08T09:53:29Z</time>
      </trkpt>
      <trkpt lat="48.46626" lon="-3.7373">
        <ele>310</ele>
        <time>2021-07-08T09:53:30Z</time>
      </trkpt>
      <trkpt lat="48.46628" lon="-3.73723">
        <ele>310</ele>
        <time>2021-07-08T09:53:31Z</time>
      </trkpt>
      <trkpt lat="48.4663" lon="-3.73711">
        <ele>310</ele>
        <time>2021-07-08T09:53:32Z</time>
      </trkpt>
      <trkpt lat="48.46632" lon="-3.73706">
        <ele>310</ele>
        <time>2021-07-08T09:53:34Z</time>
      </trkpt>
      <trkpt lat="48.46633" lon="-3.73701">
        <ele>310</ele>
        <time>2021-07-08T09:53:35Z</time>
      </trkpt>
      <trkpt lat="48.46634" lon="-3.73696">
        <ele>310</ele>
        <time>2021-07-08T09:53:36Z</time>
      </trkpt>
      <trkpt lat="48.46635" lon="-3.73692">
        <ele>310</ele>
        <time>2021-07-08T09:53:37Z</time>
      </trkpt>
      <trkpt lat="48.46636" lon="-3.73689">
        <ele>310</ele>
        <time>2021-07-08T09:53:38Z</time>
      </trkpt>
      <trkpt lat="48.46637" lon="-3.73686">
        <ele>310</ele>
        <time>2021-07-08T09:53:39Z</time>
      </trkpt>
      <trkpt lat="48.46637" lon="-3.73683">
        <ele>310</ele>
        <time>2021-07-08T09:53:41Z</time>
      </trkpt>
      <trkpt lat="48.46638" lon="-3.73679">
        <ele>310</ele>
        <time>2021-07-08T09:53:43Z</time>
      </trkpt>
      <trkpt lat="48.46639" lon="-3.73675">
        <ele>310</ele>
        <time>2021-07-08T09:53:46Z</time>
      </trkpt>
      <trkpt lat="48.46639" lon="-3.7367">
        <ele>310</ele>
        <time>2021-07-08T09:53:48Z</time>
      </trkpt>
      <trkpt lat="48.4664" lon="-3.73665">
        <ele>310</ele>
        <time>2021-07-08T09:53:49Z</time>
      </trkpt>
      <trkpt lat="48.46641" lon="-3.73662">
        <ele>310</ele>
        <time>2021-07-08T09:53:51Z</time>
      </trkpt>
      <trkpt lat="48.46641" lon="-3.73659">
        <ele>310</ele>
        <time>2021-07-08T09:53:52Z</time>
      </trkpt>
      <trkpt lat="48.46642" lon="-3.73655">
        <ele>310</ele>
        <time>2021-07-08T09:53:53Z</time>
      </trkpt>
      <trkpt lat="48.46643" lon="-3.73652">
        <ele>310</ele>
        <time>2021-07-08T09:53:54Z</time>
      </trkpt>
      <trkpt lat="48.46644" lon="-3.73648">
        <ele>310</ele>
        <time>2021-07-08T09:53:55Z</time>
      </trkpt>
      <trkpt lat="48.46645" lon="-3.73644">
        <ele>310</ele>
        <time>2021-07-08T09:53:55Z</time>
      </trkpt>
      <trkpt lat="48.46645" lon="-3.7364">
        <ele>310</ele>
        <time>2021-07-08T09:53:57Z</time>
      </trkpt>
      <trkpt lat="48.46646" lon="-3.73636">
        <ele>309</ele>
        <time>2021-07-08T09:53:58Z</time>
      </trkpt>
      <trkpt lat="48.46647" lon="-3.73631">
        <ele>309</ele>
        <time>2021-07-08T09:53:59Z</time>
      </trkpt>
      <trkpt lat="48.46648" lon="-3.73626">
        <ele>309</ele>
        <time>2021-07-08T09:54:00Z</time>
      </trkpt>
      <trkpt lat="48.46648" lon="-3.73621">
        <ele>309</ele>
        <time>2021-07-08T09:54:01Z</time>
      </trkpt>
      <trkpt lat="48.46649" lon="-3.73616">
        <ele>309</ele>
        <time>2021-07-08T09:54:02Z</time>
      </trkpt>
      <trkpt lat="48.46651" lon="-3.73611">
        <ele>309</ele>
        <time>2021-07-08T09:54:03Z</time>
      </trkpt>
      <trkpt lat="48.46652" lon="-3.73605">
        <ele>309</ele>
        <time>2021-07-08T09:54:04Z</time>
      </trkpt>
      <trkpt lat="48.46653" lon="-3.73599">
        <ele>309</ele>
        <time>2021-07-08T09:54:05Z</time>
      </trkpt>
      <trkpt lat="48.46654" lon="-3.73593">
        <ele>309</ele>
        <time>2021-07-08T09:54:06Z</time>
      </trkpt>
      <trkpt lat="48.46655" lon="-3.73587">
        <ele>309</ele>
        <time>2021-07-08T09:54:07Z</time>
      </trkpt>
      <trkpt lat="48.46656" lon="-3.73581">
        <ele>309</ele>
        <time>2021-07-08T09:54:08Z</time>
      </trkpt>
      <trkpt lat="48.46657" lon="-3.73576">
        <ele>309</ele>
        <time>2021-07-08T09:54:09Z</time>
      </trkpt>
      <trkpt lat="48.46658" lon="-3.7357">
        <ele>309</ele>
        <time>2021-07-08T09:54:09Z</time>
      </trkpt>
      <trkpt lat="48.46658" lon="-3.73565">
        <ele>309</ele>
        <time>2021-07-08T09:54:11Z</time>
      </trkpt>
      <trkpt lat="48.46661" lon="-3.73549">
        <ele>308</ele>
        <time>2021-07-08T09:54:14Z</time>
      </trkpt>
      <trkpt lat="48.46664" lon="-3.73535">
        <ele>308</ele>
        <time>2021-07-08T09:54:17Z</time>
      </trkpt>
      <trkpt lat="48.46668" lon="-3.73517">
        <ele>307</ele>
        <time>2021-07-08T09:54:20Z</time>
      </trkpt>
      <trkpt lat="48.46671" lon="-3.735">
        <ele>307</ele>
        <time>2021-07-08T09:54:23Z</time>
      </trkpt>
      <trkpt lat="48.46674" lon="-3.73484">
        <ele>307</ele>
        <time>2021-07-08T09:54:26Z</time>
      </trkpt>
      <trkpt lat="48.46676" lon="-3.73465">
        <ele>307</ele>
        <time>2021-07-08T09:54:29Z</time>
      </trkpt>
      <trkpt lat="48.46677" lon="-3.73452">
        <ele>307</ele>
        <time>2021-07-08T09:54:31Z</time>
      </trkpt>
      <trkpt lat="48.46678" lon="-3.73444">
        <ele>306</ele>
        <time>2021-07-08T09:54:32Z</time>
      </trkpt>
      <trkpt lat="48.46678" lon="-3.73435">
        <ele>306</ele>
        <time>2021-07-08T09:54:33Z</time>
      </trkpt>
      <trkpt lat="48.46679" lon="-3.73427">
        <ele>306</ele>
        <time>2021-07-08T09:54:34Z</time>
      </trkpt>
      <trkpt lat="48.46679" lon="-3.73419">
        <ele>306</ele>
        <time>2021-07-08T09:54:35Z</time>
      </trkpt>
      <trkpt lat="48.46679" lon="-3.73411">
        <ele>306</ele>
        <time>2021-07-08T09:54:36Z</time>
      </trkpt>
      <trkpt lat="48.46679" lon="-3.73403">
        <ele>305</ele>
        <time>2021-07-08T09:54:37Z</time>
      </trkpt>
      <trkpt lat="48.46679" lon="-3.73396">
        <ele>305</ele>
        <time>2021-07-08T09:54:38Z</time>
      </trkpt>
      <trkpt lat="48.46679" lon="-3.73389">
        <ele>305</ele>
        <time>2021-07-08T09:54:39Z</time>
      </trkpt>
      <trkpt lat="48.46679" lon="-3.73383">
        <ele>305</ele>
        <time>2021-07-08T09:54:40Z</time>
      </trkpt>
      <trkpt lat="48.4668" lon="-3.73376">
        <ele>305</ele>
        <time>2021-07-08T09:54:41Z</time>
      </trkpt>
      <trkpt lat="48.46681" lon="-3.7337">
        <ele>305</ele>
        <time>2021-07-08T09:54:42Z</time>
      </trkpt>
      <trkpt lat="48.46682" lon="-3.73364">
        <ele>304</ele>
        <time>2021-07-08T09:54:43Z</time>
      </trkpt>
      <trkpt lat="48.46682" lon="-3.73358">
        <ele>304</ele>
        <time>2021-07-08T09:54:44Z</time>
      </trkpt>
      <trkpt lat="48.46683" lon="-3.73353">
        <ele>304</ele>
        <time>2021-07-08T09:54:45Z</time>
      </trkpt>
      <trkpt lat="48.46683" lon="-3.73348">
        <ele>304</ele>
        <time>2021-07-08T09:54:46Z</time>
      </trkpt>
      <trkpt lat="48.46684" lon="-3.73343">
        <ele>304</ele>
        <time>2021-07-08T09:54:47Z</time>
      </trkpt>
      <trkpt lat="48.46684" lon="-3.73339">
        <ele>304</ele>
        <time>2021-07-08T09:54:47Z</time>
      </trkpt>
      <trkpt lat="48.46684" lon="-3.73334">
        <ele>304</ele>
        <time>2021-07-08T09:54:49Z</time>
      </trkpt>
      <trkpt lat="48.46684" lon="-3.73329">
        <ele>304</ele>
        <time>2021-07-08T09:54:50Z</time>
      </trkpt>
      <trkpt lat="48.46684" lon="-3.73324">
        <ele>304</ele>
        <time>2021-07-08T09:54:51Z</time>
      </trkpt>
      <trkpt lat="48.46684" lon="-3.73318">
        <ele>304</ele>
        <time>2021-07-08T09:54:51Z</time>
      </trkpt>
      <trkpt lat="48.46684" lon="-3.73312">
        <ele>304</ele>
        <time>2021-07-08T09:54:53Z</time>
      </trkpt>
      <trkpt lat="48.46684" lon="-3.73306">
        <ele>304</ele>
        <time>2021-07-08T09:54:54Z</time>
      </trkpt>
      <trkpt lat="48.46683" lon="-3.733">
        <ele>304</ele>
        <time>2021-07-08T09:54:55Z</time>
      </trkpt>
      <trkpt lat="48.46683" lon="-3.73293">
        <ele>304</ele>
        <time>2021-07-08T09:54:56Z</time>
      </trkpt>
      <trkpt lat="48.46684" lon="-3.73281">
        <ele>304</ele>
        <time>2021-07-08T09:54:57Z</time>
      </trkpt>
      <trkpt lat="48.46685" lon="-3.73274">
        <ele>304</ele>
        <time>2021-07-08T09:54:59Z</time>
      </trkpt>
      <trkpt lat="48.46685" lon="-3.73269">
        <ele>304</ele>
        <time>2021-07-08T09:55:00Z</time>
      </trkpt>
      <trkpt lat="48.46685" lon="-3.73263">
        <ele>304</ele>
        <time>2021-07-08T09:55:01Z</time>
      </trkpt>
      <trkpt lat="48.46686" lon="-3.73245">
        <ele>304</ele>
        <time>2021-07-08T09:55:03Z</time>
      </trkpt>
      <trkpt lat="48.46686" lon="-3.7323">
        <ele>304</ele>
        <time>2021-07-08T09:55:06Z</time>
      </trkpt>
      <trkpt lat="48.46684" lon="-3.73222">
        <ele>303</ele>
        <time>2021-07-08T09:55:06Z</time>
      </trkpt>
      <trkpt lat="48.46684" lon="-3.73214">
        <ele>303</ele>
        <time>2021-07-08T09:55:08Z</time>
      </trkpt>
      <trkpt lat="48.46683" lon="-3.73207">
        <ele>303</ele>
        <time>2021-07-08T09:55:09Z</time>
      </trkpt>
      <trkpt lat="48.46683" lon="-3.732">
        <ele>303</ele>
        <time>2021-07-08T09:55:10Z</time>
      </trkpt>
      <trkpt lat="48.46683" lon="-3.73194">
        <ele>303</ele>
        <time>2021-07-08T09:55:11Z</time>
      </trkpt>
      <trkpt lat="48.46682" lon="-3.73188">
        <ele>303</ele>
        <time>2021-07-08T09:55:12Z</time>
      </trkpt>
      <trkpt lat="48.46681" lon="-3.73174">
        <ele>302</ele>
        <time>2021-07-08T09:55:14Z</time>
      </trkpt>
      <trkpt lat="48.46681" lon="-3.73155">
        <ele>302</ele>
        <time>2021-07-08T09:55:17Z</time>
      </trkpt>
      <trkpt lat="48.46682" lon="-3.73142">
        <ele>301</ele>
        <time>2021-07-08T09:55:19Z</time>
      </trkpt>
      <trkpt lat="48.4668" lon="-3.73125">
        <ele>301</ele>
        <time>2021-07-08T09:55:21Z</time>
      </trkpt>
      <trkpt lat="48.46679" lon="-3.73117">
        <ele>301</ele>
        <time>2021-07-08T09:55:22Z</time>
      </trkpt>
      <trkpt lat="48.46678" lon="-3.7311">
        <ele>301</ele>
        <time>2021-07-08T09:55:23Z</time>
      </trkpt>
      <trkpt lat="48.46676" lon="-3.73103">
        <ele>301</ele>
        <time>2021-07-08T09:55:24Z</time>
      </trkpt>
      <trkpt lat="48.46676" lon="-3.73096">
        <ele>301</ele>
        <time>2021-07-08T09:55:25Z</time>
      </trkpt>
      <trkpt lat="48.46675" lon="-3.7309">
        <ele>301</ele>
        <time>2021-07-08T09:55:25Z</time>
      </trkpt>
      <trkpt lat="48.46674" lon="-3.73083">
        <ele>301</ele>
        <time>2021-07-08T09:55:27Z</time>
      </trkpt>
      <trkpt lat="48.46674" lon="-3.73077">
        <ele>301</ele>
        <time>2021-07-08T09:55:28Z</time>
      </trkpt>
      <trkpt lat="48.46674" lon="-3.73072">
        <ele>301</ele>
        <time>2021-07-08T09:55:29Z</time>
      </trkpt>
      <trkpt lat="48.46674" lon="-3.73066">
        <ele>301</ele>
        <time>2021-07-08T09:55:30Z</time>
      </trkpt>
      <trkpt lat="48.46673" lon="-3.73059">
        <ele>300</ele>
        <time>2021-07-08T09:55:31Z</time>
      </trkpt>
      <trkpt lat="48.46672" lon="-3.73044">
        <ele>300</ele>
        <time>2021-07-08T09:55:33Z</time>
      </trkpt>
      <trkpt lat="48.4667" lon="-3.73024">
        <ele>299</ele>
        <time>2021-07-08T09:55:36Z</time>
      </trkpt>
      <trkpt lat="48.46668" lon="-3.7301">
        <ele>299</ele>
        <time>2021-07-08T09:55:38Z</time>
      </trkpt>
      <trkpt lat="48.46665" lon="-3.72996">
        <ele>299</ele>
        <time>2021-07-08T09:55:39Z</time>
      </trkpt>
      <trkpt lat="48.46664" lon="-3.72981">
        <ele>299</ele>
        <time>2021-07-08T09:55:42Z</time>
      </trkpt>
      <trkpt lat="48.46662" lon="-3.72965">
        <ele>299</ele>
        <time>2021-07-08T09:55:44Z</time>
      </trkpt>
      <trkpt lat="48.4666" lon="-3.72952">
        <ele>299</ele>
        <time>2021-07-08T09:55:46Z</time>
      </trkpt>
      <trkpt lat="48.46657" lon="-3.72932">
        <ele>298</ele>
        <time>2021-07-08T09:55:49Z</time>
      </trkpt>
      <trkpt lat="48.46655" lon="-3.72916">
        <ele>298</ele>
        <time>2021-07-08T09:55:51Z</time>
      </trkpt>
      <trkpt lat="48.46654" lon="-3.72901">
        <ele>298</ele>
        <time>2021-07-08T09:55:53Z</time>
      </trkpt>
      <trkpt lat="48.46653" lon="-3.72887">
        <ele>297</ele>
        <time>2021-07-08T09:55:55Z</time>
      </trkpt>
      <trkpt lat="48.46651" lon="-3.72873">
        <ele>297</ele>
        <time>2021-07-08T09:55:57Z</time>
      </trkpt>
      <trkpt lat="48.46648" lon="-3.72858">
        <ele>297</ele>
        <time>2021-07-08T09:55:59Z</time>
      </trkpt>
      <trkpt lat="48.46645" lon="-3.72842">
        <ele>297</ele>
        <time>2021-07-08T09:56:01Z</time>
      </trkpt>
      <trkpt lat="48.46641" lon="-3.72828">
        <ele>297</ele>
        <time>2021-07-08T09:56:03Z</time>
      </trkpt>
      <trkpt lat="48.46638" lon="-3.72815">
        <ele>297</ele>
        <time>2021-07-08T09:56:05Z</time>
      </trkpt>
      <trkpt lat="48.46636" lon="-3.7281">
        <ele>297</ele>
        <time>2021-07-08T09:56:06Z</time>
      </trkpt>
      <trkpt lat="48.46634" lon="-3.72804">
        <ele>297</ele>
        <time>2021-07-08T09:56:07Z</time>
      </trkpt>
      <trkpt lat="48.46632" lon="-3.72799">
        <ele>296</ele>
        <time>2021-07-08T09:56:08Z</time>
      </trkpt>
      <trkpt lat="48.46631" lon="-3.72795">
        <ele>296</ele>
        <time>2021-07-08T09:56:09Z</time>
      </trkpt>
      <trkpt lat="48.46629" lon="-3.72792">
        <ele>296</ele>
        <time>2021-07-08T09:56:10Z</time>
      </trkpt>
      <trkpt lat="48.46628" lon="-3.72789">
        <ele>296</ele>
        <time>2021-07-08T09:56:11Z</time>
      </trkpt>
      <trkpt lat="48.46627" lon="-3.72786">
        <ele>296</ele>
        <time>2021-07-08T09:56:12Z</time>
      </trkpt>
      <trkpt lat="48.46626" lon="-3.72784">
        <ele>296</ele>
        <time>2021-07-08T09:56:13Z</time>
      </trkpt>
      <trkpt lat="48.46624" lon="-3.7278">
        <ele>296</ele>
        <time>2021-07-08T09:56:15Z</time>
      </trkpt>
      <trkpt lat="48.46624" lon="-3.72779">
        <ele>296</ele>
        <time>2021-07-08T09:56:25Z</time>
      </trkpt>
      <trkpt lat="48.46622" lon="-3.72768">
        <ele>295</ele>
        <time>2021-07-08T09:56:48Z</time>
      </trkpt>
      <trkpt lat="48.4662" lon="-3.72762">
        <ele>295</ele>
        <time>2021-07-08T09:56:50Z</time>
      </trkpt>
      <trkpt lat="48.46619" lon="-3.72758">
        <ele>295</ele>
        <time>2021-07-08T09:56:50Z</time>
      </trkpt>
      <trkpt lat="48.46618" lon="-3.72755">
        <ele>295</ele>
        <time>2021-07-08T09:56:51Z</time>
      </trkpt>
      <trkpt lat="48.46618" lon="-3.72751">
        <ele>295</ele>
        <time>2021-07-08T09:56:52Z</time>
      </trkpt>
      <trkpt lat="48.46617" lon="-3.72748">
        <ele>295</ele>
        <time>2021-07-08T09:56:53Z</time>
      </trkpt>
      <trkpt lat="48.46616" lon="-3.72746">
        <ele>295</ele>
        <time>2021-07-08T09:56:54Z</time>
      </trkpt>
      <trkpt lat="48.46615" lon="-3.72743">
        <ele>295</ele>
        <time>2021-07-08T09:56:55Z</time>
      </trkpt>
      <trkpt lat="48.46615" lon="-3.7274">
        <ele>295</ele>
        <time>2021-07-08T09:56:56Z</time>
      </trkpt>
      <trkpt lat="48.46613" lon="-3.72726">
        <ele>295</ele>
        <time>2021-07-08T09:57:00Z</time>
      </trkpt>
      <trkpt lat="48.46609" lon="-3.72709">
        <ele>294</ele>
        <time>2021-07-08T09:57:04Z</time>
      </trkpt>
      <trkpt lat="48.46604" lon="-3.72696">
        <ele>294</ele>
        <time>2021-07-08T09:57:07Z</time>
      </trkpt>
      <trkpt lat="48.46598" lon="-3.72682">
        <ele>294</ele>
        <time>2021-07-08T09:57:09Z</time>
      </trkpt>
      <trkpt lat="48.46592" lon="-3.72665">
        <ele>294</ele>
        <time>2021-07-08T09:57:13Z</time>
      </trkpt>
      <trkpt lat="48.46588" lon="-3.72646">
        <ele>294</ele>
        <time>2021-07-08T09:57:16Z</time>
      </trkpt>
      <trkpt lat="48.46585" lon="-3.7263">
        <ele>293</ele>
        <time>2021-07-08T09:57:19Z</time>
      </trkpt>
      <trkpt lat="48.46581" lon="-3.72611">
        <ele>293</ele>
        <time>2021-07-08T09:57:22Z</time>
      </trkpt>
      <trkpt lat="48.46577" lon="-3.72593">
        <ele>293</ele>
        <time>2021-07-08T09:57:25Z</time>
      </trkpt>
      <trkpt lat="48.46574" lon="-3.72579">
        <ele>292</ele>
        <time>2021-07-08T09:57:28Z</time>
      </trkpt>
      <trkpt lat="48.46568" lon="-3.72562">
        <ele>292</ele>
        <time>2021-07-08T09:57:31Z</time>
      </trkpt>
      <trkpt lat="48.46565" lon="-3.72547">
        <ele>292</ele>
        <time>2021-07-08T09:57:32Z</time>
      </trkpt>
      <trkpt lat="48.46561" lon="-3.72528">
        <ele>291</ele>
        <time>2021-07-08T09:57:36Z</time>
      </trkpt>
      <trkpt lat="48.46556" lon="-3.72509">
        <ele>291</ele>
        <time>2021-07-08T09:57:38Z</time>
      </trkpt>
      <trkpt lat="48.46552" lon="-3.72489">
        <ele>291</ele>
        <time>2021-07-08T09:57:42Z</time>
      </trkpt>
      <trkpt lat="48.46547" lon="-3.72475">
        <ele>291</ele>
        <time>2021-07-08T09:57:43Z</time>
      </trkpt>
      <trkpt lat="48.46541" lon="-3.72458">
        <ele>291</ele>
        <time>2021-07-08T09:57:47Z</time>
      </trkpt>
      <trkpt lat="48.46537" lon="-3.72445">
        <ele>291</ele>
        <time>2021-07-08T09:57:49Z</time>
      </trkpt>
      <trkpt lat="48.46534" lon="-3.72432">
        <ele>291</ele>
        <time>2021-07-08T09:57:50Z</time>
      </trkpt>
      <trkpt lat="48.4653" lon="-3.72419">
        <ele>291</ele>
        <time>2021-07-08T09:57:53Z</time>
      </trkpt>
      <trkpt lat="48.46526" lon="-3.72407">
        <ele>291</ele>
        <time>2021-07-08T09:57:54Z</time>
      </trkpt>
      <trkpt lat="48.4652" lon="-3.7239">
        <ele>290</ele>
        <time>2021-07-08T09:57:58Z</time>
      </trkpt>
      <trkpt lat="48.46514" lon="-3.72379">
        <ele>289</ele>
        <time>2021-07-08T09:58:00Z</time>
      </trkpt>
      <trkpt lat="48.46508" lon="-3.72365">
        <ele>290</ele>
        <time>2021-07-08T09:58:01Z</time>
      </trkpt>
      <trkpt lat="48.46502" lon="-3.72351">
        <ele>290</ele>
        <time>2021-07-08T09:58:04Z</time>
      </trkpt>
      <trkpt lat="48.46498" lon="-3.72335">
        <ele>289</ele>
        <time>2021-07-08T09:58:06Z</time>
      </trkpt>
      <trkpt lat="48.46494" lon="-3.72321">
        <ele>289</ele>
        <time>2021-07-08T09:58:08Z</time>
      </trkpt>
      <trkpt lat="48.46488" lon="-3.72309">
        <ele>289</ele>
        <time>2021-07-08T09:58:10Z</time>
      </trkpt>
      <trkpt lat="48.46482" lon="-3.72297">
        <ele>289</ele>
        <time>2021-07-08T09:58:12Z</time>
      </trkpt>
      <trkpt lat="48.46476" lon="-3.72286">
        <ele>288</ele>
        <time>2021-07-08T09:58:14Z</time>
      </trkpt>
      <trkpt lat="48.46466" lon="-3.72275">
        <ele>288</ele>
        <time>2021-07-08T09:58:16Z</time>
      </trkpt>
      <trkpt lat="48.46459" lon="-3.72263">
        <ele>287</ele>
        <time>2021-07-08T09:58:18Z</time>
      </trkpt>
      <trkpt lat="48.46451" lon="-3.72253">
        <ele>286</ele>
        <time>2021-07-08T09:58:20Z</time>
      </trkpt>
      <trkpt lat="48.46444" lon="-3.72244">
        <ele>286</ele>
        <time>2021-07-08T09:58:22Z</time>
      </trkpt>
      <trkpt lat="48.46434" lon="-3.72238">
        <ele>286</ele>
        <time>2021-07-08T09:58:24Z</time>
      </trkpt>
      <trkpt lat="48.46426" lon="-3.7223">
        <ele>286</ele>
        <time>2021-07-08T09:58:26Z</time>
      </trkpt>
      <trkpt lat="48.46418" lon="-3.72222">
        <ele>286</ele>
        <time>2021-07-08T09:58:28Z</time>
      </trkpt>
      <trkpt lat="48.46409" lon="-3.72216">
        <ele>285</ele>
        <time>2021-07-08T09:58:30Z</time>
      </trkpt>
      <trkpt lat="48.464" lon="-3.72211">
        <ele>285</ele>
        <time>2021-07-08T09:58:32Z</time>
      </trkpt>
      <trkpt lat="48.46389" lon="-3.72206">
        <ele>285</ele>
        <time>2021-07-08T09:58:34Z</time>
      </trkpt>
      <trkpt lat="48.46379" lon="-3.72203">
        <ele>285</ele>
        <time>2021-07-08T09:58:36Z</time>
      </trkpt>
      <trkpt lat="48.46369" lon="-3.72201">
        <ele>285</ele>
        <time>2021-07-08T09:58:37Z</time>
      </trkpt>
      <trkpt lat="48.4636" lon="-3.72199">
        <ele>285</ele>
        <time>2021-07-08T09:58:40Z</time>
      </trkpt>
      <trkpt lat="48.46349" lon="-3.72197">
        <ele>284</ele>
        <time>2021-07-08T09:58:42Z</time>
      </trkpt>
      <trkpt lat="48.46337" lon="-3.72197">
        <ele>284</ele>
        <time>2021-07-08T09:58:44Z</time>
      </trkpt>
      <trkpt lat="48.46327" lon="-3.72196">
        <ele>284</ele>
        <time>2021-07-08T09:58:46Z</time>
      </trkpt>
      <trkpt lat="48.46318" lon="-3.72197">
        <ele>284</ele>
        <time>2021-07-08T09:58:48Z</time>
      </trkpt>
      <trkpt lat="48.46313" lon="-3.72197">
        <ele>284</ele>
        <time>2021-07-08T09:58:49Z</time>
      </trkpt>
      <trkpt lat="48.46308" lon="-3.72199">
        <ele>283</ele>
        <time>2021-07-08T09:58:50Z</time>
      </trkpt>
      <trkpt lat="48.46303" lon="-3.72201">
        <ele>283</ele>
        <time>2021-07-08T09:58:51Z</time>
      </trkpt>
      <trkpt lat="48.46294" lon="-3.72203">
        <ele>283</ele>
        <time>2021-07-08T09:58:52Z</time>
      </trkpt>
      <trkpt lat="48.46282" lon="-3.72207">
        <ele>282</ele>
        <time>2021-07-08T09:58:56Z</time>
      </trkpt>
      <trkpt lat="48.46271" lon="-3.72214">
        <ele>282</ele>
        <time>2021-07-08T09:58:59Z</time>
      </trkpt>
      <trkpt lat="48.46259" lon="-3.72222">
        <ele>283</ele>
        <time>2021-07-08T09:59:02Z</time>
      </trkpt>
      <trkpt lat="48.4625" lon="-3.72231">
        <ele>283</ele>
        <time>2021-07-08T09:59:03Z</time>
      </trkpt>
      <trkpt lat="48.46243" lon="-3.72239">
        <ele>282</ele>
        <time>2021-07-08T09:59:06Z</time>
      </trkpt>
      <trkpt lat="48.46233" lon="-3.72251">
        <ele>282</ele>
        <time>2021-07-08T09:59:09Z</time>
      </trkpt>
      <trkpt lat="48.46222" lon="-3.72261">
        <ele>281</ele>
        <time>2021-07-08T09:59:12Z</time>
      </trkpt>
      <trkpt lat="48.46212" lon="-3.72273">
        <ele>280</ele>
        <time>2021-07-08T09:59:15Z</time>
      </trkpt>
      <trkpt lat="48.46204" lon="-3.7228">
        <ele>280</ele>
        <time>2021-07-08T09:59:17Z</time>
      </trkpt>
      <trkpt lat="48.46197" lon="-3.7229">
        <ele>280</ele>
        <time>2021-07-08T09:59:19Z</time>
      </trkpt>
      <trkpt lat="48.46189" lon="-3.72299">
        <ele>280</ele>
        <time>2021-07-08T09:59:21Z</time>
      </trkpt>
      <trkpt lat="48.46181" lon="-3.72308">
        <ele>279</ele>
        <time>2021-07-08T09:59:24Z</time>
      </trkpt>
      <trkpt lat="48.46178" lon="-3.7231">
        <ele>279</ele>
        <time>2021-07-08T09:59:30Z</time>
      </trkpt>
      <trkpt lat="48.46178" lon="-3.7231">
        <ele>279</ele>
        <time>2021-07-08T09:59:34Z</time>
      </trkpt>
      <trkpt lat="48.46172" lon="-3.72318">
        <ele>279</ele>
        <time>2021-07-08T09:59:52Z</time>
      </trkpt>
      <trkpt lat="48.46167" lon="-3.72323">
        <ele>279</ele>
        <time>2021-07-08T09:59:54Z</time>
      </trkpt>
      <trkpt lat="48.46158" lon="-3.72333">
        <ele>279</ele>
        <time>2021-07-08T09:59:58Z</time>
      </trkpt>
      <trkpt lat="48.4615" lon="-3.72341">
        <ele>279</ele>
        <time>2021-07-08T10:00:01Z</time>
      </trkpt>
      <trkpt lat="48.46141" lon="-3.72352">
        <ele>279</ele>
        <time>2021-07-08T10:00:04Z</time>
      </trkpt>
      <trkpt lat="48.4613" lon="-3.72365">
        <ele>279</ele>
        <time>2021-07-08T10:00:07Z</time>
      </trkpt>
      <trkpt lat="48.46123" lon="-3.72373">
        <ele>278</ele>
        <time>2021-07-08T10:00:08Z</time>
      </trkpt>
      <trkpt lat="48.46114" lon="-3.72383">
        <ele>278</ele>
        <time>2021-07-08T10:00:12Z</time>
      </trkpt>
      <trkpt lat="48.46102" lon="-3.72393">
        <ele>278</ele>
        <time>2021-07-08T10:00:15Z</time>
      </trkpt>
      <trkpt lat="48.46091" lon="-3.72401">
        <ele>277</ele>
        <time>2021-07-08T10:00:18Z</time>
      </trkpt>
      <trkpt lat="48.46079" lon="-3.7241">
        <ele>277</ele>
        <time>2021-07-08T10:00:21Z</time>
      </trkpt>
      <trkpt lat="48.46071" lon="-3.72416">
        <ele>277</ele>
        <time>2021-07-08T10:00:23Z</time>
      </trkpt>
      <trkpt lat="48.46061" lon="-3.72427">
        <ele>277</ele>
        <time>2021-07-08T10:00:26Z</time>
      </trkpt>
      <trkpt lat="48.46052" lon="-3.72435">
        <ele>275</ele>
        <time>2021-07-08T10:00:28Z</time>
      </trkpt>
      <trkpt lat="48.46041" lon="-3.72441">
        <ele>275</ele>
        <time>2021-07-08T10:00:33Z</time>
      </trkpt>
      <trkpt lat="48.46032" lon="-3.72446">
        <ele>275</ele>
        <time>2021-07-08T10:00:37Z</time>
      </trkpt>
      <trkpt lat="48.46024" lon="-3.72451">
        <ele>274</ele>
        <time>2021-07-08T10:00:41Z</time>
      </trkpt>
      <trkpt lat="48.46022" lon="-3.7245">
        <ele>274</ele>
        <time>2021-07-08T10:00:45Z</time>
      </trkpt>
      <trkpt lat="48.46019" lon="-3.72451">
        <ele>274</ele>
        <time>2021-07-08T10:00:48Z</time>
      </trkpt>
      <trkpt lat="48.4601" lon="-3.72454">
        <ele>274</ele>
        <time>2021-07-08T10:00:52Z</time>
      </trkpt>
      <trkpt lat="48.45999" lon="-3.72459">
        <ele>274</ele>
        <time>2021-07-08T10:00:57Z</time>
      </trkpt>
      <trkpt lat="48.45989" lon="-3.72461">
        <ele>273</ele>
        <time>2021-07-08T10:01:00Z</time>
      </trkpt>
      <trkpt lat="48.45975" lon="-3.72465">
        <ele>274</ele>
        <time>2021-07-08T10:01:03Z</time>
      </trkpt>
      <trkpt lat="48.45964" lon="-3.72468">
        <ele>274</ele>
        <time>2021-07-08T10:01:05Z</time>
      </trkpt>
      <trkpt lat="48.45953" lon="-3.72471">
        <ele>274</ele>
        <time>2021-07-08T10:01:07Z</time>
      </trkpt>
      <trkpt lat="48.45944" lon="-3.72472">
        <ele>274</ele>
        <time>2021-07-08T10:01:09Z</time>
      </trkpt>
      <trkpt lat="48.45934" lon="-3.72474">
        <ele>273</ele>
        <time>2021-07-08T10:01:11Z</time>
      </trkpt>
      <trkpt lat="48.45925" lon="-3.72475">
        <ele>273</ele>
        <time>2021-07-08T10:01:13Z</time>
      </trkpt>
      <trkpt lat="48.45916" lon="-3.72476">
        <ele>273</ele>
        <time>2021-07-08T10:01:15Z</time>
      </trkpt>
      <trkpt lat="48.45906" lon="-3.72475">
        <ele>273</ele>
        <time>2021-07-08T10:01:17Z</time>
      </trkpt>
      <trkpt lat="48.45897" lon="-3.72475">
        <ele>273</ele>
        <time>2021-07-08T10:01:19Z</time>
      </trkpt>
      <trkpt lat="48.45887" lon="-3.72475">
        <ele>273</ele>
        <time>2021-07-08T10:01:20Z</time>
      </trkpt>
      <trkpt lat="48.45874" lon="-3.72473">
        <ele>272</ele>
        <time>2021-07-08T10:01:24Z</time>
      </trkpt>
      <trkpt lat="48.45863" lon="-3.72472">
        <ele>273</ele>
        <time>2021-07-08T10:01:25Z</time>
      </trkpt>
      <trkpt lat="48.45853" lon="-3.72472">
        <ele>273</ele>
        <time>2021-07-08T10:01:28Z</time>
      </trkpt>
      <trkpt lat="48.45842" lon="-3.72472">
        <ele>272</ele>
        <time>2021-07-08T10:01:30Z</time>
      </trkpt>
      <trkpt lat="48.45832" lon="-3.72471">
        <ele>271</ele>
        <time>2021-07-08T10:01:32Z</time>
      </trkpt>
      <trkpt lat="48.45822" lon="-3.7247">
        <ele>271</ele>
        <time>2021-07-08T10:01:34Z</time>
      </trkpt>
      <trkpt lat="48.45816" lon="-3.7247">
        <ele>271</ele>
        <time>2021-07-08T10:01:35Z</time>
      </trkpt>
      <trkpt lat="48.45811" lon="-3.72469">
        <ele>270</ele>
        <time>2021-07-08T10:01:36Z</time>
      </trkpt>
      <trkpt lat="48.45806" lon="-3.72469">
        <ele>270</ele>
        <time>2021-07-08T10:01:37Z</time>
      </trkpt>
      <trkpt lat="48.45801" lon="-3.72468">
        <ele>270</ele>
        <time>2021-07-08T10:01:38Z</time>
      </trkpt>
      <trkpt lat="48.45796" lon="-3.72467">
        <ele>270</ele>
        <time>2021-07-08T10:01:39Z</time>
      </trkpt>
      <trkpt lat="48.45792" lon="-3.72466">
        <ele>270</ele>
        <time>2021-07-08T10:01:40Z</time>
      </trkpt>
      <trkpt lat="48.45786" lon="-3.72466">
        <ele>270</ele>
        <time>2021-07-08T10:01:41Z</time>
      </trkpt>
      <trkpt lat="48.45781" lon="-3.72466">
        <ele>270</ele>
        <time>2021-07-08T10:01:42Z</time>
      </trkpt>
      <trkpt lat="48.45776" lon="-3.72466">
        <ele>270</ele>
        <time>2021-07-08T10:01:43Z</time>
      </trkpt>
      <trkpt lat="48.45771" lon="-3.72466">
        <ele>270</ele>
        <time>2021-07-08T10:01:44Z</time>
      </trkpt>
      <trkpt lat="48.45767" lon="-3.72465">
        <ele>270</ele>
        <time>2021-07-08T10:01:45Z</time>
      </trkpt>
      <trkpt lat="48.45762" lon="-3.72465">
        <ele>270</ele>
        <time>2021-07-08T10:01:46Z</time>
      </trkpt>
      <trkpt lat="48.45757" lon="-3.72465">
        <ele>270</ele>
        <time>2021-07-08T10:01:47Z</time>
      </trkpt>
      <trkpt lat="48.45753" lon="-3.72464">
        <ele>270</ele>
        <time>2021-07-08T10:01:48Z</time>
      </trkpt>
      <trkpt lat="48.45748" lon="-3.72464">
        <ele>270</ele>
        <time>2021-07-08T10:01:49Z</time>
      </trkpt>
      <trkpt lat="48.45744" lon="-3.72463">
        <ele>269</ele>
        <time>2021-07-08T10:01:50Z</time>
      </trkpt>
      <trkpt lat="48.45739" lon="-3.72462">
        <ele>269</ele>
        <time>2021-07-08T10:01:51Z</time>
      </trkpt>
      <trkpt lat="48.45735" lon="-3.72462">
        <ele>269</ele>
        <time>2021-07-08T10:01:52Z</time>
      </trkpt>
      <trkpt lat="48.45731" lon="-3.72461">
        <ele>269</ele>
        <time>2021-07-08T10:01:53Z</time>
      </trkpt>
      <trkpt lat="48.45727" lon="-3.7246">
        <ele>269</ele>
        <time>2021-07-08T10:01:54Z</time>
      </trkpt>
      <trkpt lat="48.45723" lon="-3.72459">
        <ele>269</ele>
        <time>2021-07-08T10:01:55Z</time>
      </trkpt>
      <trkpt lat="48.45719" lon="-3.72458">
        <ele>269</ele>
        <time>2021-07-08T10:01:55Z</time>
      </trkpt>
      <trkpt lat="48.45716" lon="-3.72458">
        <ele>269</ele>
        <time>2021-07-08T10:01:57Z</time>
      </trkpt>
      <trkpt lat="48.45712" lon="-3.72457">
        <ele>269</ele>
        <time>2021-07-08T10:01:58Z</time>
      </trkpt>
      <trkpt lat="48.45708" lon="-3.72456">
        <ele>268</ele>
        <time>2021-07-08T10:01:59Z</time>
      </trkpt>
      <trkpt lat="48.45705" lon="-3.72456">
        <ele>268</ele>
        <time>2021-07-08T10:02:00Z</time>
      </trkpt>
      <trkpt lat="48.45702" lon="-3.72455">
        <ele>268</ele>
        <time>2021-07-08T10:02:01Z</time>
      </trkpt>
      <trkpt lat="48.4569" lon="-3.72451">
        <ele>268</ele>
        <time>2021-07-08T10:02:04Z</time>
      </trkpt>
      <trkpt lat="48.45678" lon="-3.72445">
        <ele>267</ele>
        <time>2021-07-08T10:02:07Z</time>
      </trkpt>
      <trkpt lat="48.45669" lon="-3.72442">
        <ele>267</ele>
        <time>2021-07-08T10:02:09Z</time>
      </trkpt>
      <trkpt lat="48.45659" lon="-3.72439">
        <ele>267</ele>
        <time>2021-07-08T10:02:11Z</time>
      </trkpt>
      <trkpt lat="48.45655" lon="-3.72437">
        <ele>267</ele>
        <time>2021-07-08T10:02:12Z</time>
      </trkpt>
      <trkpt lat="48.4565" lon="-3.72436">
        <ele>267</ele>
        <time>2021-07-08T10:02:13Z</time>
      </trkpt>
      <trkpt lat="48.45646" lon="-3.72434">
        <ele>267</ele>
        <time>2021-07-08T10:02:14Z</time>
      </trkpt>
      <trkpt lat="48.45642" lon="-3.72433">
        <ele>267</ele>
        <time>2021-07-08T10:02:15Z</time>
      </trkpt>
      <trkpt lat="48.4564" lon="-3.72433">
        <ele>266</ele>
        <time>2021-07-08T10:02:16Z</time>
      </trkpt>
      <trkpt lat="48.45637" lon="-3.72432">
        <ele>266</ele>
        <time>2021-07-08T10:02:17Z</time>
      </trkpt>
      <trkpt lat="48.45635" lon="-3.72432">
        <ele>266</ele>
        <time>2021-07-08T10:02:19Z</time>
      </trkpt>
      <trkpt lat="48.45633" lon="-3.72431">
        <ele>267</ele>
        <time>2021-07-08T10:02:23Z</time>
      </trkpt>
      <trkpt lat="48.45631" lon="-3.7243">
        <ele>267</ele>
        <time>2021-07-08T10:02:25Z</time>
      </trkpt>
      <trkpt lat="48.45629" lon="-3.72429">
        <ele>267</ele>
        <time>2021-07-08T10:02:27Z</time>
      </trkpt>
      <trkpt lat="48.45627" lon="-3.72429">
        <ele>267</ele>
        <time>2021-07-08T10:02:30Z</time>
      </trkpt>
      <trkpt lat="48.45625" lon="-3.72428">
        <ele>267</ele>
        <time>2021-07-08T10:02:32Z</time>
      </trkpt>
      <trkpt lat="48.45623" lon="-3.72426">
        <ele>267</ele>
        <time>2021-07-08T10:02:34Z</time>
      </trkpt>
      <trkpt lat="48.45622" lon="-3.72423">
        <ele>267</ele>
        <time>2021-07-08T10:02:36Z</time>
      </trkpt>
      <trkpt lat="48.4562" lon="-3.72421">
        <ele>267</ele>
        <time>2021-07-08T10:02:38Z</time>
      </trkpt>
      <trkpt lat="48.45618" lon="-3.72418">
        <ele>267</ele>
        <time>2021-07-08T10:02:40Z</time>
      </trkpt>
      <trkpt lat="48.45616" lon="-3.72415">
        <ele>266</ele>
        <time>2021-07-08T10:02:42Z</time>
      </trkpt>
      <trkpt lat="48.45613" lon="-3.72414">
        <ele>266</ele>
        <time>2021-07-08T10:02:43Z</time>
      </trkpt>
      <trkpt lat="48.45612" lon="-3.72412">
        <ele>266</ele>
        <time>2021-07-08T10:02:46Z</time>
      </trkpt>
      <trkpt lat="48.45611" lon="-3.7241">
        <ele>266</ele>
        <time>2021-07-08T10:02:48Z</time>
      </trkpt>
      <trkpt lat="48.45611" lon="-3.72409">
        <ele>265</ele>
        <time>2021-07-08T10:02:55Z</time>
      </trkpt>
      <trkpt lat="48.45611" lon="-3.72413">
        <ele>265</ele>
        <time>2021-07-08T10:05:40Z</time>
      </trkpt>
      <trkpt lat="48.45612" lon="-3.72412">
        <ele>265</ele>
        <time>2021-07-08T10:05:46Z</time>
      </trkpt>
      <trkpt lat="48.45601" lon="-3.7241">
        <ele>265</ele>
        <time>2021-07-08T10:05:59Z</time>
      </trkpt>
      <trkpt lat="48.45598" lon="-3.72408">
        <ele>265</ele>
        <time>2021-07-08T10:06:00Z</time>
      </trkpt>
      <trkpt lat="48.45596" lon="-3.72407">
        <ele>265</ele>
        <time>2021-07-08T10:06:01Z</time>
      </trkpt>
      <trkpt lat="48.45586" lon="-3.72398">
        <ele>265</ele>
        <time>2021-07-08T10:06:05Z</time>
      </trkpt>
      <trkpt lat="48.45576" lon="-3.72387">
        <ele>265</ele>
        <time>2021-07-08T10:06:08Z</time>
      </trkpt>
      <trkpt lat="48.45565" lon="-3.72381">
        <ele>265</ele>
        <time>2021-07-08T10:06:12Z</time>
      </trkpt>
      <trkpt lat="48.45553" lon="-3.72376">
        <ele>265</ele>
        <time>2021-07-08T10:06:14Z</time>
      </trkpt>
      <trkpt lat="48.4554" lon="-3.72369">
        <ele>264</ele>
        <time>2021-07-08T10:06:18Z</time>
      </trkpt>
      <trkpt lat="48.45531" lon="-3.72363">
        <ele>263</ele>
        <time>2021-07-08T10:06:20Z</time>
      </trkpt>
      <trkpt lat="48.45519" lon="-3.72353">
        <ele>263</ele>
        <time>2021-07-08T10:06:23Z</time>
      </trkpt>
      <trkpt lat="48.4551" lon="-3.72348">
        <ele>262</ele>
        <time>2021-07-08T10:06:25Z</time>
      </trkpt>
      <trkpt lat="48.455" lon="-3.72344">
        <ele>262</ele>
        <time>2021-07-08T10:06:27Z</time>
      </trkpt>
      <trkpt lat="48.45489" lon="-3.72337">
        <ele>262</ele>
        <time>2021-07-08T10:06:30Z</time>
      </trkpt>
      <trkpt lat="48.4548" lon="-3.72331">
        <ele>262</ele>
        <time>2021-07-08T10:06:32Z</time>
      </trkpt>
      <trkpt lat="48.45471" lon="-3.72327">
        <ele>262</ele>
        <time>2021-07-08T10:06:34Z</time>
      </trkpt>
      <trkpt lat="48.45459" lon="-3.7232">
        <ele>262</ele>
        <time>2021-07-08T10:06:37Z</time>
      </trkpt>
      <trkpt lat="48.4545" lon="-3.72312">
        <ele>262</ele>
        <time>2021-07-08T10:06:40Z</time>
      </trkpt>
      <trkpt lat="48.4544" lon="-3.72306">
        <ele>262</ele>
        <time>2021-07-08T10:06:43Z</time>
      </trkpt>
      <trkpt lat="48.4543" lon="-3.72301">
        <ele>262</ele>
        <time>2021-07-08T10:06:45Z</time>
      </trkpt>
      <trkpt lat="48.45418" lon="-3.72296">
        <ele>262</ele>
        <time>2021-07-08T10:06:49Z</time>
      </trkpt>
      <trkpt lat="48.45407" lon="-3.72292">
        <ele>261</ele>
        <time>2021-07-08T10:06:51Z</time>
      </trkpt>
      <trkpt lat="48.45396" lon="-3.72289">
        <ele>262</ele>
        <time>2021-07-08T10:06:55Z</time>
      </trkpt>
      <trkpt lat="48.45384" lon="-3.72287">
        <ele>262</ele>
        <time>2021-07-08T10:06:58Z</time>
      </trkpt>
      <trkpt lat="48.45373" lon="-3.72286">
        <ele>262</ele>
        <time>2021-07-08T10:07:01Z</time>
      </trkpt>
      <trkpt lat="48.45362" lon="-3.72285">
        <ele>262</ele>
        <time>2021-07-08T10:07:03Z</time>
      </trkpt>
      <trkpt lat="48.4535" lon="-3.72285">
        <ele>262</ele>
        <time>2021-07-08T10:07:07Z</time>
      </trkpt>
      <trkpt lat="48.4534" lon="-3.72288">
        <ele>261</ele>
        <time>2021-07-08T10:07:10Z</time>
      </trkpt>
      <trkpt lat="48.45329" lon="-3.72289">
        <ele>261</ele>
        <time>2021-07-08T10:07:13Z</time>
      </trkpt>
      <trkpt lat="48.45316" lon="-3.72294">
        <ele>261</ele>
        <time>2021-07-08T10:07:16Z</time>
      </trkpt>
      <trkpt lat="48.45307" lon="-3.72298">
        <ele>261</ele>
        <time>2021-07-08T10:07:18Z</time>
      </trkpt>
      <trkpt lat="48.45299" lon="-3.72304">
        <ele>261</ele>
        <time>2021-07-08T10:07:20Z</time>
      </trkpt>
      <trkpt lat="48.45288" lon="-3.72311">
        <ele>261</ele>
        <time>2021-07-08T10:07:23Z</time>
      </trkpt>
      <trkpt lat="48.45278" lon="-3.72317">
        <ele>261</ele>
        <time>2021-07-08T10:07:26Z</time>
      </trkpt>
      <trkpt lat="48.45268" lon="-3.72326">
        <ele>261</ele>
        <time>2021-07-08T10:07:29Z</time>
      </trkpt>
      <trkpt lat="48.45259" lon="-3.72333">
        <ele>261</ele>
        <time>2021-07-08T10:07:32Z</time>
      </trkpt>
      <trkpt lat="48.4525" lon="-3.72342">
        <ele>261</ele>
        <time>2021-07-08T10:07:35Z</time>
      </trkpt>
      <trkpt lat="48.4524" lon="-3.72352">
        <ele>261</ele>
        <time>2021-07-08T10:07:39Z</time>
      </trkpt>
      <trkpt lat="48.45233" lon="-3.72363">
        <ele>261</ele>
        <time>2021-07-08T10:07:41Z</time>
      </trkpt>
      <trkpt lat="48.45226" lon="-3.72372">
        <ele>261</ele>
        <time>2021-07-08T10:07:43Z</time>
      </trkpt>
      <trkpt lat="48.45223" lon="-3.72377">
        <ele>261</ele>
        <time>2021-07-08T10:07:44Z</time>
      </trkpt>
      <trkpt lat="48.4522" lon="-3.72381">
        <ele>261</ele>
        <time>2021-07-08T10:07:44Z</time>
      </trkpt>
      <trkpt lat="48.45217" lon="-3.72386">
        <ele>261</ele>
        <time>2021-07-08T10:07:46Z</time>
      </trkpt>
      <trkpt lat="48.45209" lon="-3.72398">
        <ele>261</ele>
        <time>2021-07-08T10:07:49Z</time>
      </trkpt>
      <trkpt lat="48.45201" lon="-3.72409">
        <ele>261</ele>
        <time>2021-07-08T10:07:52Z</time>
      </trkpt>
      <trkpt lat="48.45196" lon="-3.72417">
        <ele>261</ele>
        <time>2021-07-08T10:07:54Z</time>
      </trkpt>
      <trkpt lat="48.45193" lon="-3.7242">
        <ele>261</ele>
        <time>2021-07-08T10:07:55Z</time>
      </trkpt>
      <trkpt lat="48.45191" lon="-3.72424">
        <ele>261</ele>
        <time>2021-07-08T10:07:56Z</time>
      </trkpt>
      <trkpt lat="48.45183" lon="-3.72436">
        <ele>261</ele>
        <time>2021-07-08T10:07:59Z</time>
      </trkpt>
      <trkpt lat="48.45174" lon="-3.72447">
        <ele>261</ele>
        <time>2021-07-08T10:08:02Z</time>
      </trkpt>
      <trkpt lat="48.45165" lon="-3.72461">
        <ele>261</ele>
        <time>2021-07-08T10:08:05Z</time>
      </trkpt>
      <trkpt lat="48.45156" lon="-3.72473">
        <ele>260</ele>
        <time>2021-07-08T10:08:08Z</time>
      </trkpt>
      <trkpt lat="48.45147" lon="-3.72484">
        <ele>260</ele>
        <time>2021-07-08T10:08:11Z</time>
      </trkpt>
      <trkpt lat="48.45137" lon="-3.72498">
        <ele>259</ele>
        <time>2021-07-08T10:08:14Z</time>
      </trkpt>
      <trkpt lat="48.45129" lon="-3.72512">
        <ele>259</ele>
        <time>2021-07-08T10:08:16Z</time>
      </trkpt>
      <trkpt lat="48.45122" lon="-3.72521">
        <ele>259</ele>
        <time>2021-07-08T10:08:19Z</time>
      </trkpt>
      <trkpt lat="48.45115" lon="-3.72533">
        <ele>259</ele>
        <time>2021-07-08T10:08:22Z</time>
      </trkpt>
      <trkpt lat="48.45108" lon="-3.72543">
        <ele>259</ele>
        <time>2021-07-08T10:08:25Z</time>
      </trkpt>
      <trkpt lat="48.45099" lon="-3.72553">
        <ele>258</ele>
        <time>2021-07-08T10:08:28Z</time>
      </trkpt>
      <trkpt lat="48.4509" lon="-3.72565">
        <ele>258</ele>
        <time>2021-07-08T10:08:31Z</time>
      </trkpt>
      <trkpt lat="48.4508" lon="-3.72578">
        <ele>258</ele>
        <time>2021-07-08T10:08:34Z</time>
      </trkpt>
      <trkpt lat="48.45073" lon="-3.72588">
        <ele>258</ele>
        <time>2021-07-08T10:08:35Z</time>
      </trkpt>
      <trkpt lat="48.45065" lon="-3.72598">
        <ele>257</ele>
        <time>2021-07-08T10:08:40Z</time>
      </trkpt>
      <trkpt lat="48.45061" lon="-3.72601">
        <ele>258</ele>
        <time>2021-07-08T10:08:41Z</time>
      </trkpt>
      <trkpt lat="48.45059" lon="-3.72602">
        <ele>258</ele>
        <time>2021-07-08T10:08:43Z</time>
      </trkpt>
      <trkpt lat="48.45057" lon="-3.72604">
        <ele>258</ele>
        <time>2021-07-08T10:08:45Z</time>
      </trkpt>
      <trkpt lat="48.45055" lon="-3.72605">
        <ele>258</ele>
        <time>2021-07-08T10:08:55Z</time>
      </trkpt>
      <trkpt lat="48.45044" lon="-3.72614">
        <ele>258</ele>
        <time>2021-07-08T10:09:23Z</time>
      </trkpt>
      <trkpt lat="48.45041" lon="-3.72616">
        <ele>258</ele>
        <time>2021-07-08T10:09:24Z</time>
      </trkpt>
      <trkpt lat="48.45031" lon="-3.72623">
        <ele>257</ele>
        <time>2021-07-08T10:09:27Z</time>
      </trkpt>
      <trkpt lat="48.45022" lon="-3.72628">
        <ele>256</ele>
        <time>2021-07-08T10:09:30Z</time>
      </trkpt>
      <trkpt lat="48.4501" lon="-3.72634">
        <ele>256</ele>
        <time>2021-07-08T10:09:33Z</time>
      </trkpt>
      <trkpt lat="48.44999" lon="-3.72638">
        <ele>256</ele>
        <time>2021-07-08T10:09:36Z</time>
      </trkpt>
      <trkpt lat="48.44992" lon="-3.7264">
        <ele>256</ele>
        <time>2021-07-08T10:09:38Z</time>
      </trkpt>
      <trkpt lat="48.44988" lon="-3.7264">
        <ele>256</ele>
        <time>2021-07-08T10:09:39Z</time>
      </trkpt>
      <trkpt lat="48.44984" lon="-3.72642">
        <ele>256</ele>
        <time>2021-07-08T10:09:40Z</time>
      </trkpt>
      <trkpt lat="48.44981" lon="-3.72642">
        <ele>256</ele>
        <time>2021-07-08T10:09:41Z</time>
      </trkpt>
      <trkpt lat="48.44978" lon="-3.72643">
        <ele>256</ele>
        <time>2021-07-08T10:09:42Z</time>
      </trkpt>
      <trkpt lat="48.44966" lon="-3.72645">
        <ele>256</ele>
        <time>2021-07-08T10:09:45Z</time>
      </trkpt>
      <trkpt lat="48.44962" lon="-3.72646">
        <ele>256</ele>
        <time>2021-07-08T10:09:46Z</time>
      </trkpt>
      <trkpt lat="48.44958" lon="-3.72647">
        <ele>256</ele>
        <time>2021-07-08T10:09:47Z</time>
      </trkpt>
      <trkpt lat="48.44954" lon="-3.72647">
        <ele>256</ele>
        <time>2021-07-08T10:09:48Z</time>
      </trkpt>
      <trkpt lat="48.4495" lon="-3.72647">
        <ele>256</ele>
        <time>2021-07-08T10:09:49Z</time>
      </trkpt>
      <trkpt lat="48.44946" lon="-3.72647">
        <ele>256</ele>
        <time>2021-07-08T10:09:50Z</time>
      </trkpt>
      <trkpt lat="48.44943" lon="-3.72647">
        <ele>256</ele>
        <time>2021-07-08T10:09:51Z</time>
      </trkpt>
      <trkpt lat="48.44939" lon="-3.72646">
        <ele>256</ele>
        <time>2021-07-08T10:09:52Z</time>
      </trkpt>
      <trkpt lat="48.44936" lon="-3.72646">
        <ele>256</ele>
        <time>2021-07-08T10:09:53Z</time>
      </trkpt>
      <trkpt lat="48.44932" lon="-3.72645">
        <ele>256</ele>
        <time>2021-07-08T10:09:54Z</time>
      </trkpt>
      <trkpt lat="48.44929" lon="-3.72645">
        <ele>256</ele>
        <time>2021-07-08T10:09:55Z</time>
      </trkpt>
      <trkpt lat="48.44925" lon="-3.72644">
        <ele>256</ele>
        <time>2021-07-08T10:09:56Z</time>
      </trkpt>
      <trkpt lat="48.44921" lon="-3.72643">
        <ele>256</ele>
        <time>2021-07-08T10:09:57Z</time>
      </trkpt>
      <trkpt lat="48.44917" lon="-3.72642">
        <ele>256</ele>
        <time>2021-07-08T10:09:58Z</time>
      </trkpt>
      <trkpt lat="48.44913" lon="-3.72642">
        <ele>256</ele>
        <time>2021-07-08T10:09:59Z</time>
      </trkpt>
      <trkpt lat="48.44909" lon="-3.7264">
        <ele>255</ele>
        <time>2021-07-08T10:10:00Z</time>
      </trkpt>
      <trkpt lat="48.44905" lon="-3.72639">
        <ele>255</ele>
        <time>2021-07-08T10:10:01Z</time>
      </trkpt>
      <trkpt lat="48.44901" lon="-3.72637">
        <ele>255</ele>
        <time>2021-07-08T10:10:02Z</time>
      </trkpt>
      <trkpt lat="48.44897" lon="-3.72635">
        <ele>255</ele>
        <time>2021-07-08T10:10:03Z</time>
      </trkpt>
      <trkpt lat="48.44893" lon="-3.72633">
        <ele>255</ele>
        <time>2021-07-08T10:10:04Z</time>
      </trkpt>
      <trkpt lat="48.44889" lon="-3.72632">
        <ele>255</ele>
        <time>2021-07-08T10:10:05Z</time>
      </trkpt>
      <trkpt lat="48.44885" lon="-3.7263">
        <ele>255</ele>
        <time>2021-07-08T10:10:06Z</time>
      </trkpt>
      <trkpt lat="48.44881" lon="-3.72628">
        <ele>255</ele>
        <time>2021-07-08T10:10:07Z</time>
      </trkpt>
      <trkpt lat="48.44877" lon="-3.72626">
        <ele>255</ele>
        <time>2021-07-08T10:10:08Z</time>
      </trkpt>
      <trkpt lat="48.44874" lon="-3.72624">
        <ele>255</ele>
        <time>2021-07-08T10:10:09Z</time>
      </trkpt>
      <trkpt lat="48.4487" lon="-3.72621">
        <ele>255</ele>
        <time>2021-07-08T10:10:10Z</time>
      </trkpt>
      <trkpt lat="48.44866" lon="-3.72619">
        <ele>255</ele>
        <time>2021-07-08T10:10:11Z</time>
      </trkpt>
      <trkpt lat="48.44862" lon="-3.72616">
        <ele>255</ele>
        <time>2021-07-08T10:10:12Z</time>
      </trkpt>
      <trkpt lat="48.44859" lon="-3.72613">
        <ele>255</ele>
        <time>2021-07-08T10:10:13Z</time>
      </trkpt>
      <trkpt lat="48.44856" lon="-3.7261">
        <ele>255</ele>
        <time>2021-07-08T10:10:14Z</time>
      </trkpt>
      <trkpt lat="48.44852" lon="-3.72608">
        <ele>255</ele>
        <time>2021-07-08T10:10:15Z</time>
      </trkpt>
      <trkpt lat="48.44849" lon="-3.72605">
        <ele>255</ele>
        <time>2021-07-08T10:10:16Z</time>
      </trkpt>
      <trkpt lat="48.44845" lon="-3.72602">
        <ele>255</ele>
        <time>2021-07-08T10:10:17Z</time>
      </trkpt>
      <trkpt lat="48.44831" lon="-3.72588">
        <ele>255</ele>
        <time>2021-07-08T10:10:20Z</time>
      </trkpt>
      <trkpt lat="48.44824" lon="-3.72578">
        <ele>255</ele>
        <time>2021-07-08T10:10:23Z</time>
      </trkpt>
      <trkpt lat="48.44816" lon="-3.72568">
        <ele>254</ele>
        <time>2021-07-08T10:10:25Z</time>
      </trkpt>
      <trkpt lat="48.44812" lon="-3.72563">
        <ele>254</ele>
        <time>2021-07-08T10:10:26Z</time>
      </trkpt>
      <trkpt lat="48.44808" lon="-3.72559">
        <ele>254</ele>
        <time>2021-07-08T10:10:27Z</time>
      </trkpt>
      <trkpt lat="48.44804" lon="-3.72554">
        <ele>254</ele>
        <time>2021-07-08T10:10:28Z</time>
      </trkpt>
      <trkpt lat="48.448" lon="-3.72549">
        <ele>254</ele>
        <time>2021-07-08T10:10:29Z</time>
      </trkpt>
      <trkpt lat="48.44797" lon="-3.72545">
        <ele>254</ele>
        <time>2021-07-08T10:10:30Z</time>
      </trkpt>
      <trkpt lat="48.44793" lon="-3.7254">
        <ele>254</ele>
        <time>2021-07-08T10:10:31Z</time>
      </trkpt>
      <trkpt lat="48.44789" lon="-3.72535">
        <ele>254</ele>
        <time>2021-07-08T10:10:32Z</time>
      </trkpt>
      <trkpt lat="48.44786" lon="-3.72531">
        <ele>254</ele>
        <time>2021-07-08T10:10:33Z</time>
      </trkpt>
      <trkpt lat="48.44783" lon="-3.72527">
        <ele>254</ele>
        <time>2021-07-08T10:10:33Z</time>
      </trkpt>
      <trkpt lat="48.44779" lon="-3.72523">
        <ele>254</ele>
        <time>2021-07-08T10:10:35Z</time>
      </trkpt>
      <trkpt lat="48.44776" lon="-3.7252">
        <ele>254</ele>
        <time>2021-07-08T10:10:36Z</time>
      </trkpt>
      <trkpt lat="48.44773" lon="-3.72516">
        <ele>254</ele>
        <time>2021-07-08T10:10:37Z</time>
      </trkpt>
      <trkpt lat="48.4477" lon="-3.72512">
        <ele>254</ele>
        <time>2021-07-08T10:10:38Z</time>
      </trkpt>
      <trkpt lat="48.44767" lon="-3.72509">
        <ele>254</ele>
        <time>2021-07-08T10:10:39Z</time>
      </trkpt>
      <trkpt lat="48.44764" lon="-3.72505">
        <ele>254</ele>
        <time>2021-07-08T10:10:40Z</time>
      </trkpt>
      <trkpt lat="48.4476" lon="-3.72501">
        <ele>254</ele>
        <time>2021-07-08T10:10:41Z</time>
      </trkpt>
      <trkpt lat="48.44757" lon="-3.72497">
        <ele>254</ele>
        <time>2021-07-08T10:10:42Z</time>
      </trkpt>
      <trkpt lat="48.44747" lon="-3.72486">
        <ele>254</ele>
        <time>2021-07-08T10:10:45Z</time>
      </trkpt>
      <trkpt lat="48.44743" lon="-3.72483">
        <ele>254</ele>
        <time>2021-07-08T10:10:46Z</time>
      </trkpt>
      <trkpt lat="48.44739" lon="-3.7248">
        <ele>254</ele>
        <time>2021-07-08T10:10:47Z</time>
      </trkpt>
      <trkpt lat="48.44736" lon="-3.72476">
        <ele>254</ele>
        <time>2021-07-08T10:10:48Z</time>
      </trkpt>
      <trkpt lat="48.44733" lon="-3.7247">
        <ele>254</ele>
        <time>2021-07-08T10:10:49Z</time>
      </trkpt>
      <trkpt lat="48.44729" lon="-3.72465">
        <ele>253</ele>
        <time>2021-07-08T10:10:50Z</time>
      </trkpt>
      <trkpt lat="48.44725" lon="-3.72461">
        <ele>253</ele>
        <time>2021-07-08T10:10:51Z</time>
      </trkpt>
      <trkpt lat="48.44722" lon="-3.72456">
        <ele>253</ele>
        <time>2021-07-08T10:10:52Z</time>
      </trkpt>
      <trkpt lat="48.44718" lon="-3.72451">
        <ele>253</ele>
        <time>2021-07-08T10:10:53Z</time>
      </trkpt>
      <trkpt lat="48.44715" lon="-3.72447">
        <ele>253</ele>
        <time>2021-07-08T10:10:54Z</time>
      </trkpt>
      <trkpt lat="48.44711" lon="-3.72442">
        <ele>253</ele>
        <time>2021-07-08T10:10:55Z</time>
      </trkpt>
      <trkpt lat="48.44708" lon="-3.72437">
        <ele>252</ele>
        <time>2021-07-08T10:10:56Z</time>
      </trkpt>
      <trkpt lat="48.44704" lon="-3.72433">
        <ele>252</ele>
        <time>2021-07-08T10:10:57Z</time>
      </trkpt>
      <trkpt lat="48.44701" lon="-3.72428">
        <ele>252</ele>
        <time>2021-07-08T10:10:58Z</time>
      </trkpt>
      <trkpt lat="48.44697" lon="-3.72423">
        <ele>252</ele>
        <time>2021-07-08T10:10:59Z</time>
      </trkpt>
      <trkpt lat="48.44694" lon="-3.72419">
        <ele>252</ele>
        <time>2021-07-08T10:10:59Z</time>
      </trkpt>
      <trkpt lat="48.4469" lon="-3.72415">
        <ele>252</ele>
        <time>2021-07-08T10:11:01Z</time>
      </trkpt>
      <trkpt lat="48.44681" lon="-3.72402">
        <ele>252</ele>
        <time>2021-07-08T10:11:03Z</time>
      </trkpt>
      <trkpt lat="48.44671" lon="-3.72389">
        <ele>252</ele>
        <time>2021-07-08T10:11:07Z</time>
      </trkpt>
      <trkpt lat="48.44661" lon="-3.72378">
        <ele>251</ele>
        <time>2021-07-08T10:11:10Z</time>
      </trkpt>
      <trkpt lat="48.44653" lon="-3.72371">
        <ele>251</ele>
        <time>2021-07-08T10:11:12Z</time>
      </trkpt>
      <trkpt lat="48.44644" lon="-3.72364">
        <ele>251</ele>
        <time>2021-07-08T10:11:14Z</time>
      </trkpt>
      <trkpt lat="48.44634" lon="-3.72358">
        <ele>251</ele>
        <time>2021-07-08T10:11:16Z</time>
      </trkpt>
      <trkpt lat="48.44624" lon="-3.72353">
        <ele>251</ele>
        <time>2021-07-08T10:11:18Z</time>
      </trkpt>
      <trkpt lat="48.44615" lon="-3.72348">
        <ele>250</ele>
        <time>2021-07-08T10:11:20Z</time>
      </trkpt>
      <trkpt lat="48.44606" lon="-3.72343">
        <ele>250</ele>
        <time>2021-07-08T10:11:22Z</time>
      </trkpt>
      <trkpt lat="48.44598" lon="-3.72338">
        <ele>250</ele>
        <time>2021-07-08T10:11:24Z</time>
      </trkpt>
      <trkpt lat="48.44589" lon="-3.72334">
        <ele>250</ele>
        <time>2021-07-08T10:11:25Z</time>
      </trkpt>
      <trkpt lat="48.44584" lon="-3.72333">
        <ele>250</ele>
        <time>2021-07-08T10:11:27Z</time>
      </trkpt>
      <trkpt lat="48.4458" lon="-3.72331">
        <ele>249</ele>
        <time>2021-07-08T10:11:28Z</time>
      </trkpt>
      <trkpt lat="48.44576" lon="-3.72329">
        <ele>249</ele>
        <time>2021-07-08T10:11:29Z</time>
      </trkpt>
      <trkpt lat="48.44564" lon="-3.72324">
        <ele>249</ele>
        <time>2021-07-08T10:11:32Z</time>
      </trkpt>
      <trkpt lat="48.44552" lon="-3.72319">
        <ele>249</ele>
        <time>2021-07-08T10:11:35Z</time>
      </trkpt>
      <trkpt lat="48.44536" lon="-3.72313">
        <ele>249</ele>
        <time>2021-07-08T10:11:38Z</time>
      </trkpt>
      <trkpt lat="48.44527" lon="-3.7231">
        <ele>249</ele>
        <time>2021-07-08T10:11:41Z</time>
      </trkpt>
      <trkpt lat="48.44514" lon="-3.72305">
        <ele>249</ele>
        <time>2021-07-08T10:11:44Z</time>
      </trkpt>
      <trkpt lat="48.44502" lon="-3.723">
        <ele>249</ele>
        <time>2021-07-08T10:11:47Z</time>
      </trkpt>
      <trkpt lat="48.44498" lon="-3.72298">
        <ele>249</ele>
        <time>2021-07-08T10:11:48Z</time>
      </trkpt>
      <trkpt lat="48.44494" lon="-3.72297">
        <ele>249</ele>
        <time>2021-07-08T10:11:49Z</time>
      </trkpt>
      <trkpt lat="48.4449" lon="-3.72296">
        <ele>249</ele>
        <time>2021-07-08T10:11:50Z</time>
      </trkpt>
      <trkpt lat="48.44486" lon="-3.72295">
        <ele>249</ele>
        <time>2021-07-08T10:11:51Z</time>
      </trkpt>
      <trkpt lat="48.44482" lon="-3.72293">
        <ele>249</ele>
        <time>2021-07-08T10:11:52Z</time>
      </trkpt>
      <trkpt lat="48.44479" lon="-3.72292">
        <ele>249</ele>
        <time>2021-07-08T10:11:53Z</time>
      </trkpt>
      <trkpt lat="48.44476" lon="-3.72291">
        <ele>249</ele>
        <time>2021-07-08T10:11:54Z</time>
      </trkpt>
      <trkpt lat="48.44467" lon="-3.72286">
        <ele>249</ele>
        <time>2021-07-08T10:11:57Z</time>
      </trkpt>
      <trkpt lat="48.44457" lon="-3.72282">
        <ele>249</ele>
        <time>2021-07-08T10:12:00Z</time>
      </trkpt>
      <trkpt lat="48.44446" lon="-3.72279">
        <ele>248</ele>
        <time>2021-07-08T10:12:03Z</time>
      </trkpt>
      <trkpt lat="48.44435" lon="-3.72276">
        <ele>248</ele>
        <time>2021-07-08T10:12:06Z</time>
      </trkpt>
      <trkpt lat="48.44425" lon="-3.72272">
        <ele>248</ele>
        <time>2021-07-08T10:12:09Z</time>
      </trkpt>
      <trkpt lat="48.44415" lon="-3.72268">
        <ele>248</ele>
        <time>2021-07-08T10:12:11Z</time>
      </trkpt>
      <trkpt lat="48.44404" lon="-3.72265">
        <ele>248</ele>
        <time>2021-07-08T10:12:15Z</time>
      </trkpt>
      <trkpt lat="48.44393" lon="-3.72261">
        <ele>248</ele>
        <time>2021-07-08T10:12:17Z</time>
      </trkpt>
      <trkpt lat="48.44383" lon="-3.72257">
        <ele>248</ele>
        <time>2021-07-08T10:12:21Z</time>
      </trkpt>
      <trkpt lat="48.44374" lon="-3.72252">
        <ele>248</ele>
        <time>2021-07-08T10:12:23Z</time>
      </trkpt>
      <trkpt lat="48.44364" lon="-3.72248">
        <ele>248</ele>
        <time>2021-07-08T10:12:27Z</time>
      </trkpt>
      <trkpt lat="48.44352" lon="-3.72243">
        <ele>248</ele>
        <time>2021-07-08T10:12:30Z</time>
      </trkpt>
      <trkpt lat="48.44343" lon="-3.72239">
        <ele>248</ele>
        <time>2021-07-08T10:12:32Z</time>
      </trkpt>
      <trkpt lat="48.44331" lon="-3.72235">
        <ele>248</ele>
        <time>2021-07-08T10:12:34Z</time>
      </trkpt>
      <trkpt lat="48.4432" lon="-3.7223">
        <ele>248</ele>
        <time>2021-07-08T10:12:38Z</time>
      </trkpt>
      <trkpt lat="48.44308" lon="-3.72224">
        <ele>248</ele>
        <time>2021-07-08T10:12:40Z</time>
      </trkpt>
      <trkpt lat="48.44296" lon="-3.72218">
        <ele>248</ele>
        <time>2021-07-08T10:12:44Z</time>
      </trkpt>
      <trkpt lat="48.44287" lon="-3.72215">
        <ele>247</ele>
        <time>2021-07-08T10:12:46Z</time>
      </trkpt>
      <trkpt lat="48.44284" lon="-3.72214">
        <ele>247</ele>
        <time>2021-07-08T10:12:47Z</time>
      </trkpt>
      <trkpt lat="48.44279" lon="-3.72212">
        <ele>247</ele>
        <time>2021-07-08T10:12:48Z</time>
      </trkpt>
      <trkpt lat="48.4427" lon="-3.72208">
        <ele>247</ele>
        <time>2021-07-08T10:12:50Z</time>
      </trkpt>
      <trkpt lat="48.44266" lon="-3.72206">
        <ele>247</ele>
        <time>2021-07-08T10:12:51Z</time>
      </trkpt>
      <trkpt lat="48.44262" lon="-3.72204">
        <ele>247</ele>
        <time>2021-07-08T10:12:52Z</time>
      </trkpt>
      <trkpt lat="48.44257" lon="-3.72202">
        <ele>247</ele>
        <time>2021-07-08T10:12:53Z</time>
      </trkpt>
      <trkpt lat="48.44253" lon="-3.722">
        <ele>247</ele>
        <time>2021-07-08T10:12:53Z</time>
      </trkpt>
      <trkpt lat="48.44248" lon="-3.72199">
        <ele>247</ele>
        <time>2021-07-08T10:12:55Z</time>
      </trkpt>
      <trkpt lat="48.44244" lon="-3.72198">
        <ele>246</ele>
        <time>2021-07-08T10:12:56Z</time>
      </trkpt>
      <trkpt lat="48.4424" lon="-3.72197">
        <ele>246</ele>
        <time>2021-07-08T10:12:57Z</time>
      </trkpt>
      <trkpt lat="48.44236" lon="-3.72195">
        <ele>246</ele>
        <time>2021-07-08T10:12:58Z</time>
      </trkpt>
      <trkpt lat="48.44232" lon="-3.72194">
        <ele>246</ele>
        <time>2021-07-08T10:12:59Z</time>
      </trkpt>
      <trkpt lat="48.44228" lon="-3.72192">
        <ele>246</ele>
        <time>2021-07-08T10:13:00Z</time>
      </trkpt>
      <trkpt lat="48.44224" lon="-3.72191">
        <ele>246</ele>
        <time>2021-07-08T10:13:01Z</time>
      </trkpt>
      <trkpt lat="48.4422" lon="-3.72188">
        <ele>246</ele>
        <time>2021-07-08T10:13:02Z</time>
      </trkpt>
      <trkpt lat="48.44216" lon="-3.72187">
        <ele>246</ele>
        <time>2021-07-08T10:13:03Z</time>
      </trkpt>
      <trkpt lat="48.44212" lon="-3.72185">
        <ele>246</ele>
        <time>2021-07-08T10:13:04Z</time>
      </trkpt>
      <trkpt lat="48.44205" lon="-3.72184">
        <ele>246</ele>
        <time>2021-07-08T10:13:05Z</time>
      </trkpt>
      <trkpt lat="48.44201" lon="-3.72182">
        <ele>246</ele>
        <time>2021-07-08T10:13:07Z</time>
      </trkpt>
      <trkpt lat="48.44198" lon="-3.72182">
        <ele>246</ele>
        <time>2021-07-08T10:13:08Z</time>
      </trkpt>
      <trkpt lat="48.44188" lon="-3.72179">
        <ele>246</ele>
        <time>2021-07-08T10:13:11Z</time>
      </trkpt>
      <trkpt lat="48.44185" lon="-3.72178">
        <ele>246</ele>
        <time>2021-07-08T10:13:11Z</time>
      </trkpt>
      <trkpt lat="48.44183" lon="-3.72177">
        <ele>246</ele>
        <time>2021-07-08T10:13:13Z</time>
      </trkpt>
      <trkpt lat="48.4418" lon="-3.72175">
        <ele>246</ele>
        <time>2021-07-08T10:13:14Z</time>
      </trkpt>
      <trkpt lat="48.44177" lon="-3.72174">
        <ele>246</ele>
        <time>2021-07-08T10:13:15Z</time>
      </trkpt>
      <trkpt lat="48.44174" lon="-3.72173">
        <ele>246</ele>
        <time>2021-07-08T10:13:16Z</time>
      </trkpt>
      <trkpt lat="48.44171" lon="-3.72172">
        <ele>246</ele>
        <time>2021-07-08T10:13:17Z</time>
      </trkpt>
      <trkpt lat="48.44168" lon="-3.7217">
        <ele>246</ele>
        <time>2021-07-08T10:13:18Z</time>
      </trkpt>
      <trkpt lat="48.44165" lon="-3.72169">
        <ele>246</ele>
        <time>2021-07-08T10:13:19Z</time>
      </trkpt>
      <trkpt lat="48.44162" lon="-3.72167">
        <ele>245</ele>
        <time>2021-07-08T10:13:20Z</time>
      </trkpt>
      <trkpt lat="48.44158" lon="-3.72165">
        <ele>245</ele>
        <time>2021-07-08T10:13:21Z</time>
      </trkpt>
      <trkpt lat="48.44151" lon="-3.72162">
        <ele>245</ele>
        <time>2021-07-08T10:13:23Z</time>
      </trkpt>
      <trkpt lat="48.44148" lon="-3.72161">
        <ele>245</ele>
        <time>2021-07-08T10:13:24Z</time>
      </trkpt>
      <trkpt lat="48.44145" lon="-3.7216">
        <ele>245</ele>
        <time>2021-07-08T10:13:25Z</time>
      </trkpt>
      <trkpt lat="48.44142" lon="-3.72159">
        <ele>245</ele>
        <time>2021-07-08T10:13:26Z</time>
      </trkpt>
      <trkpt lat="48.44138" lon="-3.72158">
        <ele>245</ele>
        <time>2021-07-08T10:13:27Z</time>
      </trkpt>
      <trkpt lat="48.44135" lon="-3.72157">
        <ele>245</ele>
        <time>2021-07-08T10:13:28Z</time>
      </trkpt>
      <trkpt lat="48.44132" lon="-3.72156">
        <ele>245</ele>
        <time>2021-07-08T10:13:29Z</time>
      </trkpt>
      <trkpt lat="48.44128" lon="-3.72155">
        <ele>245</ele>
        <time>2021-07-08T10:13:30Z</time>
      </trkpt>
      <trkpt lat="48.44125" lon="-3.72153">
        <ele>245</ele>
        <time>2021-07-08T10:13:31Z</time>
      </trkpt>
      <trkpt lat="48.44122" lon="-3.72152">
        <ele>245</ele>
        <time>2021-07-08T10:13:32Z</time>
      </trkpt>
      <trkpt lat="48.44118" lon="-3.72151">
        <ele>245</ele>
        <time>2021-07-08T10:13:33Z</time>
      </trkpt>
      <trkpt lat="48.44116" lon="-3.7215">
        <ele>244</ele>
        <time>2021-07-08T10:13:34Z</time>
      </trkpt>
      <trkpt lat="48.44113" lon="-3.72149">
        <ele>244</ele>
        <time>2021-07-08T10:13:35Z</time>
      </trkpt>
      <trkpt lat="48.44101" lon="-3.72147">
        <ele>244</ele>
        <time>2021-07-08T10:13:39Z</time>
      </trkpt>
      <trkpt lat="48.44092" lon="-3.72147">
        <ele>244</ele>
        <time>2021-07-08T10:13:42Z</time>
      </trkpt>
      <trkpt lat="48.44086" lon="-3.72147">
        <ele>244</ele>
        <time>2021-07-08T10:13:44Z</time>
      </trkpt>
      <trkpt lat="48.44076" lon="-3.72147">
        <ele>243</ele>
        <time>2021-07-08T10:13:48Z</time>
      </trkpt>
      <trkpt lat="48.44066" lon="-3.72149">
        <ele>243</ele>
        <time>2021-07-08T10:13:52Z</time>
      </trkpt>
      <trkpt lat="48.44054" lon="-3.72152">
        <ele>243</ele>
        <time>2021-07-08T10:13:57Z</time>
      </trkpt>
      <trkpt lat="48.44043" lon="-3.72156">
        <ele>243</ele>
        <time>2021-07-08T10:14:01Z</time>
      </trkpt>
      <trkpt lat="48.44036" lon="-3.72158">
        <ele>243</ele>
        <time>2021-07-08T10:14:06Z</time>
      </trkpt>
      <trkpt lat="48.44035" lon="-3.72158">
        <ele>243</ele>
        <time>2021-07-08T10:14:13Z</time>
      </trkpt>
      <trkpt lat="48.4403" lon="-3.72159">
        <ele>242</ele>
        <time>2021-07-08T10:14:19Z</time>
      </trkpt>
      <trkpt lat="48.44026" lon="-3.72161">
        <ele>243</ele>
        <time>2021-07-08T10:14:20Z</time>
      </trkpt>
      <trkpt lat="48.44024" lon="-3.72162">
        <ele>243</ele>
        <time>2021-07-08T10:14:21Z</time>
      </trkpt>
      <trkpt lat="48.44022" lon="-3.72163">
        <ele>243</ele>
        <time>2021-07-08T10:14:22Z</time>
      </trkpt>
      <trkpt lat="48.4402" lon="-3.72164">
        <ele>243</ele>
        <time>2021-07-08T10:14:23Z</time>
      </trkpt>
      <trkpt lat="48.44018" lon="-3.72164">
        <ele>243</ele>
        <time>2021-07-08T10:14:24Z</time>
      </trkpt>
      <trkpt lat="48.44009" lon="-3.72169">
        <ele>243</ele>
        <time>2021-07-08T10:14:28Z</time>
      </trkpt>
      <trkpt lat="48.44" lon="-3.72174">
        <ele>243</ele>
        <time>2021-07-08T10:14:31Z</time>
      </trkpt>
      <trkpt lat="48.43991" lon="-3.72181">
        <ele>243</ele>
        <time>2021-07-08T10:14:34Z</time>
      </trkpt>
      <trkpt lat="48.43983" lon="-3.72188">
        <ele>243</ele>
        <time>2021-07-08T10:14:37Z</time>
      </trkpt>
      <trkpt lat="48.43975" lon="-3.72196">
        <ele>243</ele>
        <time>2021-07-08T10:14:40Z</time>
      </trkpt>
      <trkpt lat="48.43966" lon="-3.72205">
        <ele>243</ele>
        <time>2021-07-08T10:14:43Z</time>
      </trkpt>
      <trkpt lat="48.43956" lon="-3.72215">
        <ele>242</ele>
        <time>2021-07-08T10:14:46Z</time>
      </trkpt>
      <trkpt lat="48.43947" lon="-3.72226">
        <ele>242</ele>
        <time>2021-07-08T10:14:49Z</time>
      </trkpt>
      <trkpt lat="48.4394" lon="-3.72235">
        <ele>242</ele>
        <time>2021-07-08T10:14:51Z</time>
      </trkpt>
      <trkpt lat="48.43933" lon="-3.72244">
        <ele>242</ele>
        <time>2021-07-08T10:14:53Z</time>
      </trkpt>
      <trkpt lat="48.43926" lon="-3.72254">
        <ele>242</ele>
        <time>2021-07-08T10:14:55Z</time>
      </trkpt>
      <trkpt lat="48.43919" lon="-3.72264">
        <ele>242</ele>
        <time>2021-07-08T10:14:57Z</time>
      </trkpt>
      <trkpt lat="48.43913" lon="-3.72274">
        <ele>242</ele>
        <time>2021-07-08T10:14:59Z</time>
      </trkpt>
      <trkpt lat="48.43904" lon="-3.72289">
        <ele>242</ele>
        <time>2021-07-08T10:15:02Z</time>
      </trkpt>
      <trkpt lat="48.43898" lon="-3.72301">
        <ele>241</ele>
        <time>2021-07-08T10:15:04Z</time>
      </trkpt>
      <trkpt lat="48.43892" lon="-3.72311">
        <ele>242</ele>
        <time>2021-07-08T10:15:06Z</time>
      </trkpt>
      <trkpt lat="48.43885" lon="-3.72322">
        <ele>242</ele>
        <time>2021-07-08T10:15:08Z</time>
      </trkpt>
      <trkpt lat="48.43879" lon="-3.72333">
        <ele>242</ele>
        <time>2021-07-08T10:15:09Z</time>
      </trkpt>
      <trkpt lat="48.43876" lon="-3.72338">
        <ele>241</ele>
        <time>2021-07-08T10:15:11Z</time>
      </trkpt>
      <trkpt lat="48.4387" lon="-3.72348">
        <ele>241</ele>
        <time>2021-07-08T10:15:13Z</time>
      </trkpt>
      <trkpt lat="48.43867" lon="-3.72353">
        <ele>241</ele>
        <time>2021-07-08T10:15:14Z</time>
      </trkpt>
      <trkpt lat="48.43863" lon="-3.72358">
        <ele>241</ele>
        <time>2021-07-08T10:15:15Z</time>
      </trkpt>
      <trkpt lat="48.43857" lon="-3.72368">
        <ele>241</ele>
        <time>2021-07-08T10:15:17Z</time>
      </trkpt>
      <trkpt lat="48.43854" lon="-3.72373">
        <ele>241</ele>
        <time>2021-07-08T10:15:18Z</time>
      </trkpt>
      <trkpt lat="48.43851" lon="-3.72378">
        <ele>240</ele>
        <time>2021-07-08T10:15:19Z</time>
      </trkpt>
      <trkpt lat="48.43847" lon="-3.72383">
        <ele>240</ele>
        <time>2021-07-08T10:15:20Z</time>
      </trkpt>
      <trkpt lat="48.43844" lon="-3.72388">
        <ele>241</ele>
        <time>2021-07-08T10:15:21Z</time>
      </trkpt>
      <trkpt lat="48.43841" lon="-3.72393">
        <ele>241</ele>
        <time>2021-07-08T10:15:22Z</time>
      </trkpt>
      <trkpt lat="48.43838" lon="-3.72397">
        <ele>241</ele>
        <time>2021-07-08T10:15:23Z</time>
      </trkpt>
      <trkpt lat="48.43835" lon="-3.72402">
        <ele>241</ele>
        <time>2021-07-08T10:15:24Z</time>
      </trkpt>
      <trkpt lat="48.43832" lon="-3.72406">
        <ele>240</ele>
        <time>2021-07-08T10:15:25Z</time>
      </trkpt>
      <trkpt lat="48.43829" lon="-3.72411">
        <ele>240</ele>
        <time>2021-07-08T10:15:26Z</time>
      </trkpt>
      <trkpt lat="48.43826" lon="-3.72417">
        <ele>240</ele>
        <time>2021-07-08T10:15:27Z</time>
      </trkpt>
      <trkpt lat="48.43823" lon="-3.72422">
        <ele>240</ele>
        <time>2021-07-08T10:15:28Z</time>
      </trkpt>
      <trkpt lat="48.4382" lon="-3.72427">
        <ele>240</ele>
        <time>2021-07-08T10:15:29Z</time>
      </trkpt>
      <trkpt lat="48.43817" lon="-3.72432">
        <ele>240</ele>
        <time>2021-07-08T10:15:30Z</time>
      </trkpt>
      <trkpt lat="48.43813" lon="-3.72437">
        <ele>240</ele>
        <time>2021-07-08T10:15:31Z</time>
      </trkpt>
      <trkpt lat="48.43806" lon="-3.72448">
        <ele>240</ele>
        <time>2021-07-08T10:15:32Z</time>
      </trkpt>
      <trkpt lat="48.43799" lon="-3.72459">
        <ele>240</ele>
        <time>2021-07-08T10:15:35Z</time>
      </trkpt>
      <trkpt lat="48.43795" lon="-3.72465">
        <ele>240</ele>
        <time>2021-07-08T10:15:36Z</time>
      </trkpt>
      <trkpt lat="48.43792" lon="-3.7247">
        <ele>240</ele>
        <time>2021-07-08T10:15:37Z</time>
      </trkpt>
      <trkpt lat="48.43789" lon="-3.72475">
        <ele>240</ele>
        <time>2021-07-08T10:15:38Z</time>
      </trkpt>
      <trkpt lat="48.43786" lon="-3.7248">
        <ele>240</ele>
        <time>2021-07-08T10:15:39Z</time>
      </trkpt>
      <trkpt lat="48.43783" lon="-3.72485">
        <ele>240</ele>
        <time>2021-07-08T10:15:40Z</time>
      </trkpt>
      <trkpt lat="48.4378" lon="-3.7249">
        <ele>240</ele>
        <time>2021-07-08T10:15:41Z</time>
      </trkpt>
      <trkpt lat="48.43777" lon="-3.72494">
        <ele>239</ele>
        <time>2021-07-08T10:15:42Z</time>
      </trkpt>
      <trkpt lat="48.43775" lon="-3.72499">
        <ele>239</ele>
        <time>2021-07-08T10:15:43Z</time>
      </trkpt>
      <trkpt lat="48.43772" lon="-3.72503">
        <ele>239</ele>
        <time>2021-07-08T10:15:44Z</time>
      </trkpt>
      <trkpt lat="48.43769" lon="-3.72507">
        <ele>239</ele>
        <time>2021-07-08T10:15:45Z</time>
      </trkpt>
      <trkpt lat="48.43766" lon="-3.72512">
        <ele>239</ele>
        <time>2021-07-08T10:15:46Z</time>
      </trkpt>
      <trkpt lat="48.43764" lon="-3.72516">
        <ele>239</ele>
        <time>2021-07-08T10:15:47Z</time>
      </trkpt>
      <trkpt lat="48.43761" lon="-3.7252">
        <ele>239</ele>
        <time>2021-07-08T10:15:48Z</time>
      </trkpt>
      <trkpt lat="48.43758" lon="-3.72525">
        <ele>239</ele>
        <time>2021-07-08T10:15:49Z</time>
      </trkpt>
      <trkpt lat="48.43754" lon="-3.72529">
        <ele>239</ele>
        <time>2021-07-08T10:15:50Z</time>
      </trkpt>
      <trkpt lat="48.43752" lon="-3.72534">
        <ele>239</ele>
        <time>2021-07-08T10:15:51Z</time>
      </trkpt>
      <trkpt lat="48.43749" lon="-3.72538">
        <ele>239</ele>
        <time>2021-07-08T10:15:52Z</time>
      </trkpt>
      <trkpt lat="48.43746" lon="-3.72543">
        <ele>239</ele>
        <time>2021-07-08T10:15:53Z</time>
      </trkpt>
      <trkpt lat="48.43743" lon="-3.72547">
        <ele>239</ele>
        <time>2021-07-08T10:15:54Z</time>
      </trkpt>
      <trkpt lat="48.43741" lon="-3.72551">
        <ele>239</ele>
        <time>2021-07-08T10:15:54Z</time>
      </trkpt>
      <trkpt lat="48.43738" lon="-3.72555">
        <ele>239</ele>
        <time>2021-07-08T10:15:56Z</time>
      </trkpt>
      <trkpt lat="48.43736" lon="-3.7256">
        <ele>239</ele>
        <time>2021-07-08T10:15:57Z</time>
      </trkpt>
      <trkpt lat="48.43731" lon="-3.72568">
        <ele>239</ele>
        <time>2021-07-08T10:15:59Z</time>
      </trkpt>
      <trkpt lat="48.43728" lon="-3.72572">
        <ele>239</ele>
        <time>2021-07-08T10:16:00Z</time>
      </trkpt>
      <trkpt lat="48.43725" lon="-3.72577">
        <ele>239</ele>
        <time>2021-07-08T10:16:01Z</time>
      </trkpt>
      <trkpt lat="48.43723" lon="-3.72582">
        <ele>239</ele>
        <time>2021-07-08T10:16:02Z</time>
      </trkpt>
      <trkpt lat="48.4372" lon="-3.72586">
        <ele>239</ele>
        <time>2021-07-08T10:16:03Z</time>
      </trkpt>
      <trkpt lat="48.43717" lon="-3.72591">
        <ele>239</ele>
        <time>2021-07-08T10:16:04Z</time>
      </trkpt>
      <trkpt lat="48.43715" lon="-3.72596">
        <ele>239</ele>
        <time>2021-07-08T10:16:05Z</time>
      </trkpt>
      <trkpt lat="48.43712" lon="-3.72601">
        <ele>239</ele>
        <time>2021-07-08T10:16:06Z</time>
      </trkpt>
      <trkpt lat="48.43709" lon="-3.72605">
        <ele>239</ele>
        <time>2021-07-08T10:16:07Z</time>
      </trkpt>
      <trkpt lat="48.43706" lon="-3.7261">
        <ele>238</ele>
        <time>2021-07-08T10:16:08Z</time>
      </trkpt>
      <trkpt lat="48.43704" lon="-3.72613">
        <ele>238</ele>
        <time>2021-07-08T10:16:08Z</time>
      </trkpt>
      <trkpt lat="48.43702" lon="-3.72617">
        <ele>238</ele>
        <time>2021-07-08T10:16:10Z</time>
      </trkpt>
      <trkpt lat="48.437" lon="-3.72619">
        <ele>238</ele>
        <time>2021-07-08T10:16:11Z</time>
      </trkpt>
      <trkpt lat="48.43699" lon="-3.72622">
        <ele>238</ele>
        <time>2021-07-08T10:16:12Z</time>
      </trkpt>
      <trkpt lat="48.43697" lon="-3.72626">
        <ele>238</ele>
        <time>2021-07-08T10:16:14Z</time>
      </trkpt>
      <trkpt lat="48.43697" lon="-3.72626">
        <ele>238</ele>
        <time>2021-07-08T10:16:22Z</time>
      </trkpt>
      <trkpt lat="48.43694" lon="-3.72633">
        <ele>238</ele>
        <time>2021-07-08T10:16:35Z</time>
      </trkpt>
      <trkpt lat="48.43693" lon="-3.72633">
        <ele>238</ele>
        <time>2021-07-08T10:16:46Z</time>
      </trkpt>
      <trkpt lat="48.4369" lon="-3.72638">
        <ele>238</ele>
        <time>2021-07-08T10:17:02Z</time>
      </trkpt>
      <trkpt lat="48.43687" lon="-3.72643">
        <ele>238</ele>
        <time>2021-07-08T10:17:02Z</time>
      </trkpt>
      <trkpt lat="48.43685" lon="-3.72645">
        <ele>238</ele>
        <time>2021-07-08T10:17:04Z</time>
      </trkpt>
      <trkpt lat="48.43682" lon="-3.72648">
        <ele>238</ele>
        <time>2021-07-08T10:17:05Z</time>
      </trkpt>
      <trkpt lat="48.4368" lon="-3.72652">
        <ele>238</ele>
        <time>2021-07-08T10:17:06Z</time>
      </trkpt>
      <trkpt lat="48.43678" lon="-3.72656">
        <ele>238</ele>
        <time>2021-07-08T10:17:07Z</time>
      </trkpt>
      <trkpt lat="48.43675" lon="-3.7266">
        <ele>238</ele>
        <time>2021-07-08T10:17:08Z</time>
      </trkpt>
      <trkpt lat="48.43673" lon="-3.72664">
        <ele>238</ele>
        <time>2021-07-08T10:17:09Z</time>
      </trkpt>
      <trkpt lat="48.43671" lon="-3.72668">
        <ele>238</ele>
        <time>2021-07-08T10:17:10Z</time>
      </trkpt>
      <trkpt lat="48.43668" lon="-3.72672">
        <ele>237</ele>
        <time>2021-07-08T10:17:11Z</time>
      </trkpt>
      <trkpt lat="48.43666" lon="-3.72676">
        <ele>237</ele>
        <time>2021-07-08T10:17:11Z</time>
      </trkpt>
      <trkpt lat="48.43663" lon="-3.7268">
        <ele>237</ele>
        <time>2021-07-08T10:17:13Z</time>
      </trkpt>
      <trkpt lat="48.4366" lon="-3.72684">
        <ele>237</ele>
        <time>2021-07-08T10:17:14Z</time>
      </trkpt>
      <trkpt lat="48.43658" lon="-3.72689">
        <ele>237</ele>
        <time>2021-07-08T10:17:15Z</time>
      </trkpt>
      <trkpt lat="48.43655" lon="-3.72693">
        <ele>237</ele>
        <time>2021-07-08T10:17:16Z</time>
      </trkpt>
      <trkpt lat="48.43652" lon="-3.72697">
        <ele>237</ele>
        <time>2021-07-08T10:17:17Z</time>
      </trkpt>
      <trkpt lat="48.43649" lon="-3.72701">
        <ele>237</ele>
        <time>2021-07-08T10:17:18Z</time>
      </trkpt>
      <trkpt lat="48.43647" lon="-3.72705">
        <ele>237</ele>
        <time>2021-07-08T10:17:19Z</time>
      </trkpt>
      <trkpt lat="48.43638" lon="-3.72719">
        <ele>237</ele>
        <time>2021-07-08T10:17:22Z</time>
      </trkpt>
      <trkpt lat="48.4363" lon="-3.72733">
        <ele>237</ele>
        <time>2021-07-08T10:17:25Z</time>
      </trkpt>
      <trkpt lat="48.43622" lon="-3.72748">
        <ele>237</ele>
        <time>2021-07-08T10:17:28Z</time>
      </trkpt>
      <trkpt lat="48.43613" lon="-3.72762">
        <ele>237</ele>
        <time>2021-07-08T10:17:31Z</time>
      </trkpt>
      <trkpt lat="48.43603" lon="-3.72776">
        <ele>236</ele>
        <time>2021-07-08T10:17:34Z</time>
      </trkpt>
      <trkpt lat="48.43596" lon="-3.72785">
        <ele>236</ele>
        <time>2021-07-08T10:17:36Z</time>
      </trkpt>
      <trkpt lat="48.43587" lon="-3.72795">
        <ele>236</ele>
        <time>2021-07-08T10:17:39Z</time>
      </trkpt>
      <trkpt lat="48.43577" lon="-3.72807">
        <ele>236</ele>
        <time>2021-07-08T10:17:41Z</time>
      </trkpt>
      <trkpt lat="48.43566" lon="-3.72817">
        <ele>236</ele>
        <time>2021-07-08T10:17:45Z</time>
      </trkpt>
      <trkpt lat="48.43557" lon="-3.72824">
        <ele>236</ele>
        <time>2021-07-08T10:17:47Z</time>
      </trkpt>
      <trkpt lat="48.43549" lon="-3.72829">
        <ele>236</ele>
        <time>2021-07-08T10:17:49Z</time>
      </trkpt>
      <trkpt lat="48.4354" lon="-3.72834">
        <ele>236</ele>
        <time>2021-07-08T10:17:51Z</time>
      </trkpt>
      <trkpt lat="48.43531" lon="-3.72839">
        <ele>236</ele>
        <time>2021-07-08T10:17:53Z</time>
      </trkpt>
      <trkpt lat="48.43521" lon="-3.72844">
        <ele>236</ele>
        <time>2021-07-08T10:17:55Z</time>
      </trkpt>
      <trkpt lat="48.43512" lon="-3.72848">
        <ele>236</ele>
        <time>2021-07-08T10:17:57Z</time>
      </trkpt>
      <trkpt lat="48.43499" lon="-3.7285">
        <ele>235</ele>
        <time>2021-07-08T10:17:59Z</time>
      </trkpt>
      <trkpt lat="48.43485" lon="-3.72851">
        <ele>235</ele>
        <time>2021-07-08T10:18:03Z</time>
      </trkpt>
      <trkpt lat="48.43476" lon="-3.72851">
        <ele>235</ele>
        <time>2021-07-08T10:18:05Z</time>
      </trkpt>
      <trkpt lat="48.43465" lon="-3.72851">
        <ele>235</ele>
        <time>2021-07-08T10:18:06Z</time>
      </trkpt>
      <trkpt lat="48.43455" lon="-3.7285">
        <ele>235</ele>
        <time>2021-07-08T10:18:09Z</time>
      </trkpt>
      <trkpt lat="48.43445" lon="-3.72848">
        <ele>234</ele>
        <time>2021-07-08T10:18:11Z</time>
      </trkpt>
      <trkpt lat="48.43436" lon="-3.72845">
        <ele>234</ele>
        <time>2021-07-08T10:18:13Z</time>
      </trkpt>
      <trkpt lat="48.43432" lon="-3.72843">
        <ele>234</ele>
        <time>2021-07-08T10:18:14Z</time>
      </trkpt>
      <trkpt lat="48.43427" lon="-3.72842">
        <ele>234</ele>
        <time>2021-07-08T10:18:15Z</time>
      </trkpt>
      <trkpt lat="48.43422" lon="-3.7284">
        <ele>234</ele>
        <time>2021-07-08T10:18:16Z</time>
      </trkpt>
      <trkpt lat="48.43417" lon="-3.72839">
        <ele>234</ele>
        <time>2021-07-08T10:18:17Z</time>
      </trkpt>
      <trkpt lat="48.43413" lon="-3.72837">
        <ele>234</ele>
        <time>2021-07-08T10:18:18Z</time>
      </trkpt>
      <trkpt lat="48.43409" lon="-3.72836">
        <ele>234</ele>
        <time>2021-07-08T10:18:19Z</time>
      </trkpt>
      <trkpt lat="48.434" lon="-3.72833">
        <ele>234</ele>
        <time>2021-07-08T10:18:21Z</time>
      </trkpt>
      <trkpt lat="48.43391" lon="-3.72829">
        <ele>234</ele>
        <time>2021-07-08T10:18:23Z</time>
      </trkpt>
      <trkpt lat="48.43388" lon="-3.72827">
        <ele>233</ele>
        <time>2021-07-08T10:18:24Z</time>
      </trkpt>
      <trkpt lat="48.43384" lon="-3.72825">
        <ele>233</ele>
        <time>2021-07-08T10:18:25Z</time>
      </trkpt>
      <trkpt lat="48.43381" lon="-3.72824">
        <ele>233</ele>
        <time>2021-07-08T10:18:26Z</time>
      </trkpt>
      <trkpt lat="48.43379" lon="-3.72823">
        <ele>233</ele>
        <time>2021-07-08T10:18:27Z</time>
      </trkpt>
      <trkpt lat="48.43377" lon="-3.72822">
        <ele>232</ele>
        <time>2021-07-08T10:18:28Z</time>
      </trkpt>
      <trkpt lat="48.43375" lon="-3.72821">
        <ele>232</ele>
        <time>2021-07-08T10:18:29Z</time>
      </trkpt>
      <trkpt lat="48.43373" lon="-3.72819">
        <ele>233</ele>
        <time>2021-07-08T10:18:30Z</time>
      </trkpt>
      <trkpt lat="48.43371" lon="-3.72818">
        <ele>233</ele>
        <time>2021-07-08T10:18:31Z</time>
      </trkpt>
      <trkpt lat="48.43369" lon="-3.72815">
        <ele>233</ele>
        <time>2021-07-08T10:18:33Z</time>
      </trkpt>
      <trkpt lat="48.43368" lon="-3.72813">
        <ele>233</ele>
        <time>2021-07-08T10:18:41Z</time>
      </trkpt>
      <trkpt lat="48.43363" lon="-3.72808">
        <ele>233</ele>
        <time>2021-07-08T10:18:51Z</time>
      </trkpt>
      <trkpt lat="48.43361" lon="-3.72807">
        <ele>233</ele>
        <time>2021-07-08T10:18:52Z</time>
      </trkpt>
      <trkpt lat="48.43358" lon="-3.72806">
        <ele>233</ele>
        <time>2021-07-08T10:18:52Z</time>
      </trkpt>
      <trkpt lat="48.43355" lon="-3.72805">
        <ele>233</ele>
        <time>2021-07-08T10:18:53Z</time>
      </trkpt>
      <trkpt lat="48.43352" lon="-3.72804">
        <ele>232</ele>
        <time>2021-07-08T10:18:55Z</time>
      </trkpt>
      <trkpt lat="48.43349" lon="-3.72802">
        <ele>232</ele>
        <time>2021-07-08T10:18:56Z</time>
      </trkpt>
      <trkpt lat="48.43345" lon="-3.72801">
        <ele>232</ele>
        <time>2021-07-08T10:18:57Z</time>
      </trkpt>
      <trkpt lat="48.43341" lon="-3.72799">
        <ele>232</ele>
        <time>2021-07-08T10:18:58Z</time>
      </trkpt>
      <trkpt lat="48.43338" lon="-3.72797">
        <ele>232</ele>
        <time>2021-07-08T10:18:58Z</time>
      </trkpt>
      <trkpt lat="48.43334" lon="-3.72796">
        <ele>232</ele>
        <time>2021-07-08T10:19:00Z</time>
      </trkpt>
      <trkpt lat="48.4333" lon="-3.72794">
        <ele>232</ele>
        <time>2021-07-08T10:19:01Z</time>
      </trkpt>
      <trkpt lat="48.43326" lon="-3.72792">
        <ele>232</ele>
        <time>2021-07-08T10:19:02Z</time>
      </trkpt>
      <trkpt lat="48.43322" lon="-3.7279">
        <ele>232</ele>
        <time>2021-07-08T10:19:03Z</time>
      </trkpt>
      <trkpt lat="48.43318" lon="-3.72788">
        <ele>232</ele>
        <time>2021-07-08T10:19:04Z</time>
      </trkpt>
      <trkpt lat="48.43314" lon="-3.72786">
        <ele>232</ele>
        <time>2021-07-08T10:19:05Z</time>
      </trkpt>
      <trkpt lat="48.4331" lon="-3.72784">
        <ele>231</ele>
        <time>2021-07-08T10:19:06Z</time>
      </trkpt>
      <trkpt lat="48.43306" lon="-3.72782">
        <ele>231</ele>
        <time>2021-07-08T10:19:07Z</time>
      </trkpt>
      <trkpt lat="48.43302" lon="-3.7278">
        <ele>231</ele>
        <time>2021-07-08T10:19:08Z</time>
      </trkpt>
      <trkpt lat="48.43298" lon="-3.72778">
        <ele>231</ele>
        <time>2021-07-08T10:19:09Z</time>
      </trkpt>
      <trkpt lat="48.43294" lon="-3.72776">
        <ele>231</ele>
        <time>2021-07-08T10:19:10Z</time>
      </trkpt>
      <trkpt lat="48.43285" lon="-3.72773">
        <ele>231</ele>
        <time>2021-07-08T10:19:11Z</time>
      </trkpt>
      <trkpt lat="48.43281" lon="-3.72771">
        <ele>231</ele>
        <time>2021-07-08T10:19:13Z</time>
      </trkpt>
      <trkpt lat="48.43277" lon="-3.72769">
        <ele>231</ele>
        <time>2021-07-08T10:19:14Z</time>
      </trkpt>
      <trkpt lat="48.43272" lon="-3.72767">
        <ele>231</ele>
        <time>2021-07-08T10:19:15Z</time>
      </trkpt>
      <trkpt lat="48.43268" lon="-3.72766">
        <ele>231</ele>
        <time>2021-07-08T10:19:16Z</time>
      </trkpt>
      <trkpt lat="48.43263" lon="-3.72764">
        <ele>231</ele>
        <time>2021-07-08T10:19:17Z</time>
      </trkpt>
      <trkpt lat="48.43258" lon="-3.72763">
        <ele>231</ele>
        <time>2021-07-08T10:19:18Z</time>
      </trkpt>
      <trkpt lat="48.43254" lon="-3.72761">
        <ele>231</ele>
        <time>2021-07-08T10:19:19Z</time>
      </trkpt>
      <trkpt lat="48.4325" lon="-3.7276">
        <ele>230</ele>
        <time>2021-07-08T10:19:20Z</time>
      </trkpt>
      <trkpt lat="48.43245" lon="-3.72759">
        <ele>230</ele>
        <time>2021-07-08T10:19:21Z</time>
      </trkpt>
      <trkpt lat="48.43241" lon="-3.72758">
        <ele>230</ele>
        <time>2021-07-08T10:19:22Z</time>
      </trkpt>
      <trkpt lat="48.43237" lon="-3.72757">
        <ele>230</ele>
        <time>2021-07-08T10:19:22Z</time>
      </trkpt>
      <trkpt lat="48.43232" lon="-3.72756">
        <ele>230</ele>
        <time>2021-07-08T10:19:24Z</time>
      </trkpt>
      <trkpt lat="48.43218" lon="-3.72754">
        <ele>230</ele>
        <time>2021-07-08T10:19:27Z</time>
      </trkpt>
      <trkpt lat="48.43207" lon="-3.72756">
        <ele>230</ele>
        <time>2021-07-08T10:19:29Z</time>
      </trkpt>
      <trkpt lat="48.43202" lon="-3.72756">
        <ele>230</ele>
        <time>2021-07-08T10:19:30Z</time>
      </trkpt>
      <trkpt lat="48.43197" lon="-3.72757">
        <ele>230</ele>
        <time>2021-07-08T10:19:30Z</time>
      </trkpt>
      <trkpt lat="48.43192" lon="-3.72757">
        <ele>230</ele>
        <time>2021-07-08T10:19:32Z</time>
      </trkpt>
      <trkpt lat="48.43187" lon="-3.72758">
        <ele>230</ele>
        <time>2021-07-08T10:19:33Z</time>
      </trkpt>
      <trkpt lat="48.43182" lon="-3.72759">
        <ele>230</ele>
        <time>2021-07-08T10:19:34Z</time>
      </trkpt>
      <trkpt lat="48.43178" lon="-3.72759">
        <ele>230</ele>
        <time>2021-07-08T10:19:35Z</time>
      </trkpt>
      <trkpt lat="48.43173" lon="-3.7276">
        <ele>230</ele>
        <time>2021-07-08T10:19:36Z</time>
      </trkpt>
      <trkpt lat="48.43168" lon="-3.72761">
        <ele>230</ele>
        <time>2021-07-08T10:19:37Z</time>
      </trkpt>
      <trkpt lat="48.43164" lon="-3.72762">
        <ele>230</ele>
        <time>2021-07-08T10:19:38Z</time>
      </trkpt>
      <trkpt lat="48.43159" lon="-3.72763">
        <ele>230</ele>
        <time>2021-07-08T10:19:39Z</time>
      </trkpt>
      <trkpt lat="48.43155" lon="-3.72764">
        <ele>230</ele>
        <time>2021-07-08T10:19:40Z</time>
      </trkpt>
      <trkpt lat="48.43146" lon="-3.72766">
        <ele>230</ele>
        <time>2021-07-08T10:19:42Z</time>
      </trkpt>
      <trkpt lat="48.43133" lon="-3.72768">
        <ele>230</ele>
        <time>2021-07-08T10:19:45Z</time>
      </trkpt>
      <trkpt lat="48.4312" lon="-3.7277">
        <ele>230</ele>
        <time>2021-07-08T10:19:47Z</time>
      </trkpt>
      <trkpt lat="48.43111" lon="-3.72771">
        <ele>230</ele>
        <time>2021-07-08T10:19:49Z</time>
      </trkpt>
      <trkpt lat="48.43098" lon="-3.72771">
        <ele>230</ele>
        <time>2021-07-08T10:19:53Z</time>
      </trkpt>
      <trkpt lat="48.43087" lon="-3.72771">
        <ele>229</ele>
        <time>2021-07-08T10:19:54Z</time>
      </trkpt>
      <trkpt lat="48.43078" lon="-3.7277">
        <ele>230</ele>
        <time>2021-07-08T10:19:57Z</time>
      </trkpt>
      <trkpt lat="48.43068" lon="-3.7277">
        <ele>230</ele>
        <time>2021-07-08T10:19:59Z</time>
      </trkpt>
      <trkpt lat="48.43059" lon="-3.72769">
        <ele>230</ele>
        <time>2021-07-08T10:20:01Z</time>
      </trkpt>
      <trkpt lat="48.43049" lon="-3.72767">
        <ele>230</ele>
        <time>2021-07-08T10:20:03Z</time>
      </trkpt>
      <trkpt lat="48.43044" lon="-3.72767">
        <ele>230</ele>
        <time>2021-07-08T10:20:04Z</time>
      </trkpt>
      <trkpt lat="48.4304" lon="-3.72765">
        <ele>230</ele>
        <time>2021-07-08T10:20:05Z</time>
      </trkpt>
      <trkpt lat="48.43035" lon="-3.72763">
        <ele>230</ele>
        <time>2021-07-08T10:20:06Z</time>
      </trkpt>
      <trkpt lat="48.43031" lon="-3.72761">
        <ele>230</ele>
        <time>2021-07-08T10:20:06Z</time>
      </trkpt>
      <trkpt lat="48.43026" lon="-3.72759">
        <ele>230</ele>
        <time>2021-07-08T10:20:08Z</time>
      </trkpt>
      <trkpt lat="48.43022" lon="-3.72757">
        <ele>230</ele>
        <time>2021-07-08T10:20:09Z</time>
      </trkpt>
      <trkpt lat="48.43018" lon="-3.72756">
        <ele>230</ele>
        <time>2021-07-08T10:20:10Z</time>
      </trkpt>
      <trkpt lat="48.43014" lon="-3.72754">
        <ele>230</ele>
        <time>2021-07-08T10:20:11Z</time>
      </trkpt>
      <trkpt lat="48.43002" lon="-3.72748">
        <ele>229</ele>
        <time>2021-07-08T10:20:14Z</time>
      </trkpt>
      <trkpt lat="48.42993" lon="-3.72743">
        <ele>229</ele>
        <time>2021-07-08T10:20:16Z</time>
      </trkpt>
      <trkpt lat="48.42983" lon="-3.72737">
        <ele>229</ele>
        <time>2021-07-08T10:20:18Z</time>
      </trkpt>
      <trkpt lat="48.42974" lon="-3.72728">
        <ele>229</ele>
        <time>2021-07-08T10:20:19Z</time>
      </trkpt>
      <trkpt lat="48.42966" lon="-3.7272">
        <ele>228</ele>
        <time>2021-07-08T10:20:22Z</time>
      </trkpt>
      <trkpt lat="48.42956" lon="-3.72713">
        <ele>228</ele>
        <time>2021-07-08T10:20:24Z</time>
      </trkpt>
      <trkpt lat="48.42948" lon="-3.72706">
        <ele>228</ele>
        <time>2021-07-08T10:20:26Z</time>
      </trkpt>
      <trkpt lat="48.42941" lon="-3.72698">
        <ele>228</ele>
        <time>2021-07-08T10:20:28Z</time>
      </trkpt>
      <trkpt lat="48.42932" lon="-3.72689">
        <ele>228</ele>
        <time>2021-07-08T10:20:30Z</time>
      </trkpt>
      <trkpt lat="48.42924" lon="-3.72681">
        <ele>227</ele>
        <time>2021-07-08T10:20:32Z</time>
      </trkpt>
      <trkpt lat="48.42916" lon="-3.72672">
        <ele>227</ele>
        <time>2021-07-08T10:20:33Z</time>
      </trkpt>
      <trkpt lat="48.42905" lon="-3.72659">
        <ele>227</ele>
        <time>2021-07-08T10:20:37Z</time>
      </trkpt>
      <trkpt lat="48.42897" lon="-3.7265">
        <ele>227</ele>
        <time>2021-07-08T10:20:38Z</time>
      </trkpt>
      <trkpt lat="48.42889" lon="-3.72642">
        <ele>227</ele>
        <time>2021-07-08T10:20:41Z</time>
      </trkpt>
      <trkpt lat="48.42881" lon="-3.72635">
        <ele>227</ele>
        <time>2021-07-08T10:20:43Z</time>
      </trkpt>
      <trkpt lat="48.42873" lon="-3.72626">
        <ele>227</ele>
        <time>2021-07-08T10:20:45Z</time>
      </trkpt>
      <trkpt lat="48.42864" lon="-3.72619">
        <ele>227</ele>
        <time>2021-07-08T10:20:47Z</time>
      </trkpt>
      <trkpt lat="48.42856" lon="-3.72612">
        <ele>227</ele>
        <time>2021-07-08T10:20:49Z</time>
      </trkpt>
      <trkpt lat="48.42848" lon="-3.72605">
        <ele>227</ele>
        <time>2021-07-08T10:20:50Z</time>
      </trkpt>
      <trkpt lat="48.4284" lon="-3.72597">
        <ele>227</ele>
        <time>2021-07-08T10:20:53Z</time>
      </trkpt>
      <trkpt lat="48.42832" lon="-3.72589">
        <ele>226</ele>
        <time>2021-07-08T10:20:55Z</time>
      </trkpt>
      <trkpt lat="48.42824" lon="-3.7258">
        <ele>226</ele>
        <time>2021-07-08T10:20:57Z</time>
      </trkpt>
      <trkpt lat="48.42815" lon="-3.72573">
        <ele>226</ele>
        <time>2021-07-08T10:20:59Z</time>
      </trkpt>
      <trkpt lat="48.42811" lon="-3.7257">
        <ele>226</ele>
        <time>2021-07-08T10:21:00Z</time>
      </trkpt>
      <trkpt lat="48.42807" lon="-3.72566">
        <ele>226</ele>
        <time>2021-07-08T10:21:01Z</time>
      </trkpt>
      <trkpt lat="48.42803" lon="-3.72562">
        <ele>226</ele>
        <time>2021-07-08T10:21:02Z</time>
      </trkpt>
      <trkpt lat="48.42799" lon="-3.72558">
        <ele>226</ele>
        <time>2021-07-08T10:21:03Z</time>
      </trkpt>
      <trkpt lat="48.42795" lon="-3.72554">
        <ele>226</ele>
        <time>2021-07-08T10:21:04Z</time>
      </trkpt>
      <trkpt lat="48.42791" lon="-3.7255">
        <ele>226</ele>
        <time>2021-07-08T10:21:05Z</time>
      </trkpt>
      <trkpt lat="48.42787" lon="-3.72546">
        <ele>226</ele>
        <time>2021-07-08T10:21:05Z</time>
      </trkpt>
      <trkpt lat="48.42783" lon="-3.72543">
        <ele>226</ele>
        <time>2021-07-08T10:21:07Z</time>
      </trkpt>
      <trkpt lat="48.42776" lon="-3.72535">
        <ele>226</ele>
        <time>2021-07-08T10:21:09Z</time>
      </trkpt>
      <trkpt lat="48.42766" lon="-3.72526">
        <ele>226</ele>
        <time>2021-07-08T10:21:12Z</time>
      </trkpt>
      <trkpt lat="48.42754" lon="-3.72517">
        <ele>226</ele>
        <time>2021-07-08T10:21:15Z</time>
      </trkpt>
      <trkpt lat="48.42746" lon="-3.72509">
        <ele>226</ele>
        <time>2021-07-08T10:21:17Z</time>
      </trkpt>
      <trkpt lat="48.42738" lon="-3.72501">
        <ele>226</ele>
        <time>2021-07-08T10:21:19Z</time>
      </trkpt>
      <trkpt lat="48.42734" lon="-3.72498">
        <ele>226</ele>
        <time>2021-07-08T10:21:20Z</time>
      </trkpt>
      <trkpt lat="48.42725" lon="-3.72491">
        <ele>226</ele>
        <time>2021-07-08T10:21:21Z</time>
      </trkpt>
      <trkpt lat="48.42717" lon="-3.72484">
        <ele>226</ele>
        <time>2021-07-08T10:21:24Z</time>
      </trkpt>
      <trkpt lat="48.4271" lon="-3.72475">
        <ele>226</ele>
        <time>2021-07-08T10:21:26Z</time>
      </trkpt>
      <trkpt lat="48.42703" lon="-3.72466">
        <ele>226</ele>
        <time>2021-07-08T10:21:28Z</time>
      </trkpt>
      <trkpt lat="48.42697" lon="-3.72455">
        <ele>226</ele>
        <time>2021-07-08T10:21:30Z</time>
      </trkpt>
      <trkpt lat="48.42692" lon="-3.72442">
        <ele>226</ele>
        <time>2021-07-08T10:21:32Z</time>
      </trkpt>
      <trkpt lat="48.4269" lon="-3.72436">
        <ele>226</ele>
        <time>2021-07-08T10:21:33Z</time>
      </trkpt>
      <trkpt lat="48.42687" lon="-3.72431">
        <ele>226</ele>
        <time>2021-07-08T10:21:34Z</time>
      </trkpt>
      <trkpt lat="48.42682" lon="-3.72413">
        <ele>226</ele>
        <time>2021-07-08T10:21:37Z</time>
      </trkpt>
      <trkpt lat="48.42676" lon="-3.72396">
        <ele>226</ele>
        <time>2021-07-08T10:21:40Z</time>
      </trkpt>
      <trkpt lat="48.42674" lon="-3.72376">
        <ele>226</ele>
        <time>2021-07-08T10:21:43Z</time>
      </trkpt>
      <trkpt lat="48.42672" lon="-3.72361">
        <ele>226</ele>
        <time>2021-07-08T10:21:45Z</time>
      </trkpt>
      <trkpt lat="48.4267" lon="-3.72346">
        <ele>225</ele>
        <time>2021-07-08T10:21:47Z</time>
      </trkpt>
      <trkpt lat="48.42669" lon="-3.72332">
        <ele>225</ele>
        <time>2021-07-08T10:21:49Z</time>
      </trkpt>
      <trkpt lat="48.42668" lon="-3.72324">
        <ele>225</ele>
        <time>2021-07-08T10:21:50Z</time>
      </trkpt>
      <trkpt lat="48.42667" lon="-3.72317">
        <ele>226</ele>
        <time>2021-07-08T10:21:51Z</time>
      </trkpt>
      <trkpt lat="48.42666" lon="-3.7231">
        <ele>226</ele>
        <time>2021-07-08T10:21:51Z</time>
      </trkpt>
      <trkpt lat="48.42665" lon="-3.72304">
        <ele>226</ele>
        <time>2021-07-08T10:21:53Z</time>
      </trkpt>
      <trkpt lat="48.42664" lon="-3.72297">
        <ele>226</ele>
        <time>2021-07-08T10:21:54Z</time>
      </trkpt>
      <trkpt lat="48.42663" lon="-3.72291">
        <ele>226</ele>
        <time>2021-07-08T10:21:55Z</time>
      </trkpt>
      <trkpt lat="48.42662" lon="-3.72285">
        <ele>226</ele>
        <time>2021-07-08T10:21:56Z</time>
      </trkpt>
      <trkpt lat="48.42661" lon="-3.7228">
        <ele>226</ele>
        <time>2021-07-08T10:21:57Z</time>
      </trkpt>
      <trkpt lat="48.42658" lon="-3.72262">
        <ele>225</ele>
        <time>2021-07-08T10:22:00Z</time>
      </trkpt>
      <trkpt lat="48.42655" lon="-3.72246">
        <ele>226</ele>
        <time>2021-07-08T10:22:02Z</time>
      </trkpt>
      <trkpt lat="48.42651" lon="-3.72229">
        <ele>226</ele>
        <time>2021-07-08T10:22:06Z</time>
      </trkpt>
      <trkpt lat="48.4265" lon="-3.72211">
        <ele>226</ele>
        <time>2021-07-08T10:22:08Z</time>
      </trkpt>
      <trkpt lat="48.42648" lon="-3.72192">
        <ele>226</ele>
        <time>2021-07-08T10:22:12Z</time>
      </trkpt>
      <trkpt lat="48.42645" lon="-3.72176">
        <ele>225</ele>
        <time>2021-07-08T10:22:15Z</time>
      </trkpt>
      <trkpt lat="48.42642" lon="-3.72159">
        <ele>226</ele>
        <time>2021-07-08T10:22:18Z</time>
      </trkpt>
      <trkpt lat="48.42641" lon="-3.72143">
        <ele>226</ele>
        <time>2021-07-08T10:22:21Z</time>
      </trkpt>
      <trkpt lat="48.42637" lon="-3.72126">
        <ele>226</ele>
        <time>2021-07-08T10:22:24Z</time>
      </trkpt>
      <trkpt lat="48.42633" lon="-3.7211">
        <ele>226</ele>
        <time>2021-07-08T10:22:26Z</time>
      </trkpt>
      <trkpt lat="48.42629" lon="-3.72093">
        <ele>224</ele>
        <time>2021-07-08T10:22:30Z</time>
      </trkpt>
      <trkpt lat="48.42626" lon="-3.72076">
        <ele>226</ele>
        <time>2021-07-08T10:22:33Z</time>
      </trkpt>
      <trkpt lat="48.42622" lon="-3.72059">
        <ele>225</ele>
        <time>2021-07-08T10:22:36Z</time>
      </trkpt>
      <trkpt lat="48.42616" lon="-3.72043">
        <ele>224</ele>
        <time>2021-07-08T10:22:39Z</time>
      </trkpt>
      <trkpt lat="48.42609" lon="-3.72028">
        <ele>224</ele>
        <time>2021-07-08T10:22:42Z</time>
      </trkpt>
      <trkpt lat="48.42602" lon="-3.72014">
        <ele>224</ele>
        <time>2021-07-08T10:22:45Z</time>
      </trkpt>
      <trkpt lat="48.42596" lon="-3.71998">
        <ele>226</ele>
        <time>2021-07-08T10:22:48Z</time>
      </trkpt>
      <trkpt lat="48.4259" lon="-3.71981">
        <ele>225</ele>
        <time>2021-07-08T10:22:51Z</time>
      </trkpt>
      <trkpt lat="48.42584" lon="-3.71966">
        <ele>225</ele>
        <time>2021-07-08T10:22:54Z</time>
      </trkpt>
      <trkpt lat="48.42581" lon="-3.71955">
        <ele>225</ele>
        <time>2021-07-08T10:22:56Z</time>
      </trkpt>
      <trkpt lat="48.42574" lon="-3.71942">
        <ele>225</ele>
        <time>2021-07-08T10:22:59Z</time>
      </trkpt>
      <trkpt lat="48.42572" lon="-3.71938">
        <ele>225</ele>
        <time>2021-07-08T10:23:00Z</time>
      </trkpt>
      <trkpt lat="48.42565" lon="-3.71927">
        <ele>225</ele>
        <time>2021-07-08T10:23:02Z</time>
      </trkpt>
      <trkpt lat="48.42555" lon="-3.71916">
        <ele>224</ele>
        <time>2021-07-08T10:23:06Z</time>
      </trkpt>
      <trkpt lat="48.42545" lon="-3.71905">
        <ele>224</ele>
        <time>2021-07-08T10:23:09Z</time>
      </trkpt>
      <trkpt lat="48.42538" lon="-3.71895">
        <ele>225</ele>
        <time>2021-07-08T10:23:11Z</time>
      </trkpt>
      <trkpt lat="48.42531" lon="-3.71886">
        <ele>225</ele>
        <time>2021-07-08T10:23:13Z</time>
      </trkpt>
      <trkpt lat="48.42524" lon="-3.71877">
        <ele>225</ele>
        <time>2021-07-08T10:23:15Z</time>
      </trkpt>
      <trkpt lat="48.42516" lon="-3.71864">
        <ele>225</ele>
        <time>2021-07-08T10:23:18Z</time>
      </trkpt>
      <trkpt lat="48.42505" lon="-3.71853">
        <ele>225</ele>
        <time>2021-07-08T10:23:21Z</time>
      </trkpt>
      <trkpt lat="48.42501" lon="-3.7185">
        <ele>225</ele>
        <time>2021-07-08T10:23:22Z</time>
      </trkpt>
      <trkpt lat="48.42498" lon="-3.71846">
        <ele>225</ele>
        <time>2021-07-08T10:23:23Z</time>
      </trkpt>
      <trkpt lat="48.42494" lon="-3.71843">
        <ele>226</ele>
        <time>2021-07-08T10:23:24Z</time>
      </trkpt>
      <trkpt lat="48.42483" lon="-3.71833">
        <ele>226</ele>
        <time>2021-07-08T10:23:27Z</time>
      </trkpt>
      <trkpt lat="48.42472" lon="-3.71826">
        <ele>225</ele>
        <time>2021-07-08T10:23:30Z</time>
      </trkpt>
      <trkpt lat="48.42469" lon="-3.71824">
        <ele>225</ele>
        <time>2021-07-08T10:23:31Z</time>
      </trkpt>
      <trkpt lat="48.42466" lon="-3.71821">
        <ele>225</ele>
        <time>2021-07-08T10:23:32Z</time>
      </trkpt>
      <trkpt lat="48.42457" lon="-3.71816">
        <ele>225</ele>
        <time>2021-07-08T10:23:34Z</time>
      </trkpt>
      <trkpt lat="48.42454" lon="-3.71813">
        <ele>225</ele>
        <time>2021-07-08T10:23:35Z</time>
      </trkpt>
      <trkpt lat="48.4245" lon="-3.71812">
        <ele>225</ele>
        <time>2021-07-08T10:23:36Z</time>
      </trkpt>
      <trkpt lat="48.42446" lon="-3.7181">
        <ele>225</ele>
        <time>2021-07-08T10:23:37Z</time>
      </trkpt>
      <trkpt lat="48.42442" lon="-3.71808">
        <ele>225</ele>
        <time>2021-07-08T10:23:37Z</time>
      </trkpt>
      <trkpt lat="48.42438" lon="-3.71806">
        <ele>225</ele>
        <time>2021-07-08T10:23:39Z</time>
      </trkpt>
      <trkpt lat="48.42434" lon="-3.71804">
        <ele>225</ele>
        <time>2021-07-08T10:23:40Z</time>
      </trkpt>
      <trkpt lat="48.4243" lon="-3.71803">
        <ele>225</ele>
        <time>2021-07-08T10:23:41Z</time>
      </trkpt>
      <trkpt lat="48.42426" lon="-3.71801">
        <ele>225</ele>
        <time>2021-07-08T10:23:42Z</time>
      </trkpt>
      <trkpt lat="48.42422" lon="-3.718">
        <ele>225</ele>
        <time>2021-07-08T10:23:43Z</time>
      </trkpt>
      <trkpt lat="48.42418" lon="-3.71798">
        <ele>225</ele>
        <time>2021-07-08T10:23:44Z</time>
      </trkpt>
      <trkpt lat="48.42414" lon="-3.71796">
        <ele>225</ele>
        <time>2021-07-08T10:23:45Z</time>
      </trkpt>
      <trkpt lat="48.4241" lon="-3.71794">
        <ele>225</ele>
        <time>2021-07-08T10:23:46Z</time>
      </trkpt>
      <trkpt lat="48.42406" lon="-3.71793">
        <ele>225</ele>
        <time>2021-07-08T10:23:47Z</time>
      </trkpt>
      <trkpt lat="48.42403" lon="-3.71791">
        <ele>225</ele>
        <time>2021-07-08T10:23:48Z</time>
      </trkpt>
      <trkpt lat="48.42399" lon="-3.71789">
        <ele>225</ele>
        <time>2021-07-08T10:23:49Z</time>
      </trkpt>
      <trkpt lat="48.42395" lon="-3.71788">
        <ele>225</ele>
        <time>2021-07-08T10:23:50Z</time>
      </trkpt>
      <trkpt lat="48.42391" lon="-3.71786">
        <ele>225</ele>
        <time>2021-07-08T10:23:51Z</time>
      </trkpt>
      <trkpt lat="48.42387" lon="-3.71784">
        <ele>225</ele>
        <time>2021-07-08T10:23:52Z</time>
      </trkpt>
      <trkpt lat="48.42383" lon="-3.71783">
        <ele>225</ele>
        <time>2021-07-08T10:23:53Z</time>
      </trkpt>
      <trkpt lat="48.42379" lon="-3.71781">
        <ele>225</ele>
        <time>2021-07-08T10:23:54Z</time>
      </trkpt>
      <trkpt lat="48.42375" lon="-3.7178">
        <ele>225</ele>
        <time>2021-07-08T10:23:55Z</time>
      </trkpt>
      <trkpt lat="48.42371" lon="-3.71778">
        <ele>225</ele>
        <time>2021-07-08T10:23:56Z</time>
      </trkpt>
      <trkpt lat="48.42368" lon="-3.71776">
        <ele>225</ele>
        <time>2021-07-08T10:23:57Z</time>
      </trkpt>
      <trkpt lat="48.42364" lon="-3.71774">
        <ele>225</ele>
        <time>2021-07-08T10:23:58Z</time>
      </trkpt>
      <trkpt lat="48.42361" lon="-3.71773">
        <ele>225</ele>
        <time>2021-07-08T10:23:59Z</time>
      </trkpt>
      <trkpt lat="48.42358" lon="-3.71771">
        <ele>225</ele>
        <time>2021-07-08T10:24:00Z</time>
      </trkpt>
      <trkpt lat="48.42354" lon="-3.7177">
        <ele>225</ele>
        <time>2021-07-08T10:24:01Z</time>
      </trkpt>
      <trkpt lat="48.42351" lon="-3.71769">
        <ele>225</ele>
        <time>2021-07-08T10:24:02Z</time>
      </trkpt>
      <trkpt lat="48.42348" lon="-3.71768">
        <ele>225</ele>
        <time>2021-07-08T10:24:03Z</time>
      </trkpt>
      <trkpt lat="48.42346" lon="-3.71766">
        <ele>225</ele>
        <time>2021-07-08T10:24:04Z</time>
      </trkpt>
      <trkpt lat="48.42343" lon="-3.71765">
        <ele>225</ele>
        <time>2021-07-08T10:24:05Z</time>
      </trkpt>
      <trkpt lat="48.4234" lon="-3.71764">
        <ele>225</ele>
        <time>2021-07-08T10:24:06Z</time>
      </trkpt>
      <trkpt lat="48.42338" lon="-3.71763">
        <ele>225</ele>
        <time>2021-07-08T10:24:07Z</time>
      </trkpt>
      <trkpt lat="48.42335" lon="-3.71762">
        <ele>225</ele>
        <time>2021-07-08T10:24:08Z</time>
      </trkpt>
      <trkpt lat="48.42333" lon="-3.71761">
        <ele>225</ele>
        <time>2021-07-08T10:24:09Z</time>
      </trkpt>
      <trkpt lat="48.42331" lon="-3.71761">
        <ele>225</ele>
        <time>2021-07-08T10:24:09Z</time>
      </trkpt>
      <trkpt lat="48.42329" lon="-3.7176">
        <ele>225</ele>
        <time>2021-07-08T10:24:11Z</time>
      </trkpt>
      <trkpt lat="48.42327" lon="-3.71759">
        <ele>225</ele>
        <time>2021-07-08T10:24:12Z</time>
      </trkpt>
      <trkpt lat="48.42325" lon="-3.71758">
        <ele>225</ele>
        <time>2021-07-08T10:24:13Z</time>
      </trkpt>
      <trkpt lat="48.42322" lon="-3.71758">
        <ele>225</ele>
        <time>2021-07-08T10:24:14Z</time>
      </trkpt>
      <trkpt lat="48.4232" lon="-3.71757">
        <ele>225</ele>
        <time>2021-07-08T10:24:15Z</time>
      </trkpt>
      <trkpt lat="48.42319" lon="-3.71757">
        <ele>225</ele>
        <time>2021-07-08T10:24:15Z</time>
      </trkpt>
      <trkpt lat="48.42317" lon="-3.71756">
        <ele>225</ele>
        <time>2021-07-08T10:24:16Z</time>
      </trkpt>
      <trkpt lat="48.42315" lon="-3.71756">
        <ele>225</ele>
        <time>2021-07-08T10:24:18Z</time>
      </trkpt>
      <trkpt lat="48.42313" lon="-3.71755">
        <ele>225</ele>
        <time>2021-07-08T10:24:19Z</time>
      </trkpt>
      <trkpt lat="48.42311" lon="-3.71755">
        <ele>225</ele>
        <time>2021-07-08T10:24:20Z</time>
      </trkpt>
      <trkpt lat="48.42309" lon="-3.71754">
        <ele>225</ele>
        <time>2021-07-08T10:24:21Z</time>
      </trkpt>
      <trkpt lat="48.42307" lon="-3.71753">
        <ele>224</ele>
        <time>2021-07-08T10:24:22Z</time>
      </trkpt>
      <trkpt lat="48.42304" lon="-3.71752">
        <ele>225</ele>
        <time>2021-07-08T10:24:25Z</time>
      </trkpt>
      <trkpt lat="48.423" lon="-3.71752">
        <ele>225</ele>
        <time>2021-07-08T10:24:27Z</time>
      </trkpt>
      <trkpt lat="48.42297" lon="-3.7175">
        <ele>225</ele>
        <time>2021-07-08T10:24:29Z</time>
      </trkpt>
      <trkpt lat="48.42295" lon="-3.7175">
        <ele>225</ele>
        <time>2021-07-08T10:24:31Z</time>
      </trkpt>
      <trkpt lat="48.42291" lon="-3.71748">
        <ele>224</ele>
        <time>2021-07-08T10:24:34Z</time>
      </trkpt>
      <trkpt lat="48.42288" lon="-3.71747">
        <ele>224</ele>
        <time>2021-07-08T10:24:35Z</time>
      </trkpt>
      <trkpt lat="48.42286" lon="-3.71745">
        <ele>224</ele>
        <time>2021-07-08T10:24:38Z</time>
      </trkpt>
      <trkpt lat="48.42284" lon="-3.71745">
        <ele>224</ele>
        <time>2021-07-08T10:24:40Z</time>
      </trkpt>
      <trkpt lat="48.42281" lon="-3.71744">
        <ele>224</ele>
        <time>2021-07-08T10:24:42Z</time>
      </trkpt>
      <trkpt lat="48.42279" lon="-3.71744">
        <ele>224</ele>
        <time>2021-07-08T10:24:44Z</time>
      </trkpt>
      <trkpt lat="48.42267" lon="-3.71738">
        <ele>224</ele>
        <time>2021-07-08T10:24:51Z</time>
      </trkpt>
      <trkpt lat="48.42261" lon="-3.71736">
        <ele>224</ele>
        <time>2021-07-08T10:24:53Z</time>
      </trkpt>
      <trkpt lat="48.42258" lon="-3.71734">
        <ele>224</ele>
        <time>2021-07-08T10:24:53Z</time>
      </trkpt>
      <trkpt lat="48.42255" lon="-3.71732">
        <ele>224</ele>
        <time>2021-07-08T10:24:55Z</time>
      </trkpt>
      <trkpt lat="48.42252" lon="-3.71731">
        <ele>224</ele>
        <time>2021-07-08T10:24:56Z</time>
      </trkpt>
      <trkpt lat="48.42249" lon="-3.71729">
        <ele>224</ele>
        <time>2021-07-08T10:24:57Z</time>
      </trkpt>
      <trkpt lat="48.42239" lon="-3.71724">
        <ele>224</ele>
        <time>2021-07-08T10:25:00Z</time>
      </trkpt>
      <trkpt lat="48.42232" lon="-3.7172">
        <ele>224</ele>
        <time>2021-07-08T10:25:02Z</time>
      </trkpt>
      <trkpt lat="48.42228" lon="-3.71718">
        <ele>224</ele>
        <time>2021-07-08T10:25:03Z</time>
      </trkpt>
      <trkpt lat="48.42225" lon="-3.71716">
        <ele>224</ele>
        <time>2021-07-08T10:25:04Z</time>
      </trkpt>
      <trkpt lat="48.42214" lon="-3.71712">
        <ele>224</ele>
        <time>2021-07-08T10:25:07Z</time>
      </trkpt>
      <trkpt lat="48.42202" lon="-3.71707">
        <ele>224</ele>
        <time>2021-07-08T10:25:10Z</time>
      </trkpt>
      <trkpt lat="48.4219" lon="-3.71706">
        <ele>224</ele>
        <time>2021-07-08T10:25:13Z</time>
      </trkpt>
      <trkpt lat="48.42179" lon="-3.71704">
        <ele>224</ele>
        <time>2021-07-08T10:25:15Z</time>
      </trkpt>
      <trkpt lat="48.4217" lon="-3.717">
        <ele>224</ele>
        <time>2021-07-08T10:25:18Z</time>
      </trkpt>
      <trkpt lat="48.4216" lon="-3.71695">
        <ele>225</ele>
        <time>2021-07-08T10:25:20Z</time>
      </trkpt>
      <trkpt lat="48.42146" lon="-3.7169">
        <ele>225</ele>
        <time>2021-07-08T10:25:24Z</time>
      </trkpt>
      <trkpt lat="48.42138" lon="-3.71687">
        <ele>224</ele>
        <time>2021-07-08T10:25:26Z</time>
      </trkpt>
      <trkpt lat="48.42125" lon="-3.71681">
        <ele>224</ele>
        <time>2021-07-08T10:25:29Z</time>
      </trkpt>
      <trkpt lat="48.42113" lon="-3.71676">
        <ele>224</ele>
        <time>2021-07-08T10:25:32Z</time>
      </trkpt>
      <trkpt lat="48.42101" lon="-3.71671">
        <ele>224</ele>
        <time>2021-07-08T10:25:35Z</time>
      </trkpt>
      <trkpt lat="48.42088" lon="-3.71669">
        <ele>224</ele>
        <time>2021-07-08T10:25:38Z</time>
      </trkpt>
      <trkpt lat="48.42078" lon="-3.71668">
        <ele>224</ele>
        <time>2021-07-08T10:25:40Z</time>
      </trkpt>
      <trkpt lat="48.42068" lon="-3.71667">
        <ele>224</ele>
        <time>2021-07-08T10:25:42Z</time>
      </trkpt>
      <trkpt lat="48.42058" lon="-3.71664">
        <ele>224</ele>
        <time>2021-07-08T10:25:44Z</time>
      </trkpt>
      <trkpt lat="48.42048" lon="-3.71663">
        <ele>224</ele>
        <time>2021-07-08T10:25:46Z</time>
      </trkpt>
      <trkpt lat="48.42038" lon="-3.71661">
        <ele>224</ele>
        <time>2021-07-08T10:25:48Z</time>
      </trkpt>
      <trkpt lat="48.42028" lon="-3.7166">
        <ele>224</ele>
        <time>2021-07-08T10:25:50Z</time>
      </trkpt>
      <trkpt lat="48.42019" lon="-3.71657">
        <ele>224</ele>
        <time>2021-07-08T10:25:51Z</time>
      </trkpt>
      <trkpt lat="48.42009" lon="-3.71655">
        <ele>224</ele>
        <time>2021-07-08T10:25:54Z</time>
      </trkpt>
      <trkpt lat="48.42" lon="-3.71652">
        <ele>223</ele>
        <time>2021-07-08T10:25:56Z</time>
      </trkpt>
      <trkpt lat="48.4199" lon="-3.7165">
        <ele>223</ele>
        <time>2021-07-08T10:25:57Z</time>
      </trkpt>
      <trkpt lat="48.4198" lon="-3.71648">
        <ele>223</ele>
        <time>2021-07-08T10:26:00Z</time>
      </trkpt>
      <trkpt lat="48.41971" lon="-3.71646">
        <ele>223</ele>
        <time>2021-07-08T10:26:02Z</time>
      </trkpt>
      <trkpt lat="48.41961" lon="-3.71644">
        <ele>223</ele>
        <time>2021-07-08T10:26:04Z</time>
      </trkpt>
      <trkpt lat="48.41952" lon="-3.71642">
        <ele>223</ele>
        <time>2021-07-08T10:26:06Z</time>
      </trkpt>
      <trkpt lat="48.41939" lon="-3.7164">
        <ele>223</ele>
        <time>2021-07-08T10:26:08Z</time>
      </trkpt>
      <trkpt lat="48.41927" lon="-3.71639">
        <ele>223</ele>
        <time>2021-07-08T10:26:12Z</time>
      </trkpt>
      <trkpt lat="48.41916" lon="-3.71638">
        <ele>223</ele>
        <time>2021-07-08T10:26:15Z</time>
      </trkpt>
      <trkpt lat="48.41906" lon="-3.71636">
        <ele>223</ele>
        <time>2021-07-08T10:26:18Z</time>
      </trkpt>
      <trkpt lat="48.41893" lon="-3.71637">
        <ele>223</ele>
        <time>2021-07-08T10:26:21Z</time>
      </trkpt>
      <trkpt lat="48.41881" lon="-3.71639">
        <ele>223</ele>
        <time>2021-07-08T10:26:25Z</time>
      </trkpt>
      <trkpt lat="48.41869" lon="-3.7164">
        <ele>222</ele>
        <time>2021-07-08T10:26:28Z</time>
      </trkpt>
      <trkpt lat="48.4186" lon="-3.71642">
        <ele>222</ele>
        <time>2021-07-08T10:26:30Z</time>
      </trkpt>
      <trkpt lat="48.41848" lon="-3.71643">
        <ele>222</ele>
        <time>2021-07-08T10:26:33Z</time>
      </trkpt>
      <trkpt lat="48.41835" lon="-3.71643">
        <ele>222</ele>
        <time>2021-07-08T10:26:36Z</time>
      </trkpt>
      <trkpt lat="48.41822" lon="-3.7164">
        <ele>222</ele>
        <time>2021-07-08T10:26:38Z</time>
      </trkpt>
      <trkpt lat="48.41812" lon="-3.71638">
        <ele>222</ele>
        <time>2021-07-08T10:26:41Z</time>
      </trkpt>
      <trkpt lat="48.41803" lon="-3.71636">
        <ele>222</ele>
        <time>2021-07-08T10:26:43Z</time>
      </trkpt>
      <trkpt lat="48.41793" lon="-3.71636">
        <ele>222</ele>
        <time>2021-07-08T10:26:45Z</time>
      </trkpt>
      <trkpt lat="48.41783" lon="-3.71632">
        <ele>222</ele>
        <time>2021-07-08T10:26:47Z</time>
      </trkpt>
      <trkpt lat="48.41773" lon="-3.71628">
        <ele>222</ele>
        <time>2021-07-08T10:26:48Z</time>
      </trkpt>
      <trkpt lat="48.41764" lon="-3.71621">
        <ele>222</ele>
        <time>2021-07-08T10:26:51Z</time>
      </trkpt>
      <trkpt lat="48.41756" lon="-3.71614">
        <ele>222</ele>
        <time>2021-07-08T10:26:53Z</time>
      </trkpt>
      <trkpt lat="48.41747" lon="-3.71604">
        <ele>222</ele>
        <time>2021-07-08T10:26:56Z</time>
      </trkpt>
      <trkpt lat="48.41739" lon="-3.71594">
        <ele>222</ele>
        <time>2021-07-08T10:26:57Z</time>
      </trkpt>
      <trkpt lat="48.41732" lon="-3.71585">
        <ele>221</ele>
        <time>2021-07-08T10:27:00Z</time>
      </trkpt>
      <trkpt lat="48.41723" lon="-3.71577">
        <ele>222</ele>
        <time>2021-07-08T10:27:01Z</time>
      </trkpt>
      <trkpt lat="48.41716" lon="-3.71568">
        <ele>222</ele>
        <time>2021-07-08T10:27:04Z</time>
      </trkpt>
      <trkpt lat="48.41707" lon="-3.71553">
        <ele>222</ele>
        <time>2021-07-08T10:27:07Z</time>
      </trkpt>
      <trkpt lat="48.41698" lon="-3.71537">
        <ele>222</ele>
        <time>2021-07-08T10:27:10Z</time>
      </trkpt>
      <trkpt lat="48.41692" lon="-3.71524">
        <ele>222</ele>
        <time>2021-07-08T10:27:12Z</time>
      </trkpt>
      <trkpt lat="48.41688" lon="-3.71511">
        <ele>222</ele>
        <time>2021-07-08T10:27:14Z</time>
      </trkpt>
      <trkpt lat="48.41683" lon="-3.71498">
        <ele>221</ele>
        <time>2021-07-08T10:27:16Z</time>
      </trkpt>
      <trkpt lat="48.41681" lon="-3.71491">
        <ele>221</ele>
        <time>2021-07-08T10:27:17Z</time>
      </trkpt>
      <trkpt lat="48.41678" lon="-3.71479">
        <ele>221</ele>
        <time>2021-07-08T10:27:19Z</time>
      </trkpt>
      <trkpt lat="48.41676" lon="-3.71472">
        <ele>221</ele>
        <time>2021-07-08T10:27:20Z</time>
      </trkpt>
      <trkpt lat="48.41674" lon="-3.71465">
        <ele>221</ele>
        <time>2021-07-08T10:27:21Z</time>
      </trkpt>
      <trkpt lat="48.41671" lon="-3.71459">
        <ele>221</ele>
        <time>2021-07-08T10:27:22Z</time>
      </trkpt>
      <trkpt lat="48.41669" lon="-3.71454">
        <ele>221</ele>
        <time>2021-07-08T10:27:23Z</time>
      </trkpt>
      <trkpt lat="48.41666" lon="-3.71448">
        <ele>221</ele>
        <time>2021-07-08T10:27:24Z</time>
      </trkpt>
      <trkpt lat="48.41664" lon="-3.71442">
        <ele>221</ele>
        <time>2021-07-08T10:27:25Z</time>
      </trkpt>
      <trkpt lat="48.41661" lon="-3.71438">
        <ele>221</ele>
        <time>2021-07-08T10:27:26Z</time>
      </trkpt>
      <trkpt lat="48.41658" lon="-3.71432">
        <ele>220</ele>
        <time>2021-07-08T10:27:27Z</time>
      </trkpt>
      <trkpt lat="48.41656" lon="-3.71426">
        <ele>220</ele>
        <time>2021-07-08T10:27:28Z</time>
      </trkpt>
      <trkpt lat="48.41653" lon="-3.7142">
        <ele>220</ele>
        <time>2021-07-08T10:27:28Z</time>
      </trkpt>
      <trkpt lat="48.4165" lon="-3.71414">
        <ele>220</ele>
        <time>2021-07-08T10:27:30Z</time>
      </trkpt>
      <trkpt lat="48.41648" lon="-3.71409">
        <ele>220</ele>
        <time>2021-07-08T10:27:31Z</time>
      </trkpt>
      <trkpt lat="48.41645" lon="-3.71403">
        <ele>220</ele>
        <time>2021-07-08T10:27:32Z</time>
      </trkpt>
      <trkpt lat="48.41641" lon="-3.71392">
        <ele>221</ele>
        <time>2021-07-08T10:27:34Z</time>
      </trkpt>
      <trkpt lat="48.41639" lon="-3.71378">
        <ele>221</ele>
        <time>2021-07-08T10:27:36Z</time>
      </trkpt>
      <trkpt lat="48.41636" lon="-3.7137">
        <ele>221</ele>
        <time>2021-07-08T10:27:37Z</time>
      </trkpt>
      <trkpt lat="48.41633" lon="-3.71363">
        <ele>221</ele>
        <time>2021-07-08T10:27:38Z</time>
      </trkpt>
      <trkpt lat="48.41631" lon="-3.71356">
        <ele>221</ele>
        <time>2021-07-08T10:27:39Z</time>
      </trkpt>
      <trkpt lat="48.41628" lon="-3.7135">
        <ele>221</ele>
        <time>2021-07-08T10:27:40Z</time>
      </trkpt>
      <trkpt lat="48.41626" lon="-3.71344">
        <ele>221</ele>
        <time>2021-07-08T10:27:41Z</time>
      </trkpt>
      <trkpt lat="48.41623" lon="-3.71338">
        <ele>221</ele>
        <time>2021-07-08T10:27:42Z</time>
      </trkpt>
      <trkpt lat="48.41621" lon="-3.71332">
        <ele>220</ele>
        <time>2021-07-08T10:27:43Z</time>
      </trkpt>
      <trkpt lat="48.41619" lon="-3.71327">
        <ele>220</ele>
        <time>2021-07-08T10:27:44Z</time>
      </trkpt>
      <trkpt lat="48.41616" lon="-3.71322">
        <ele>220</ele>
        <time>2021-07-08T10:27:45Z</time>
      </trkpt>
      <trkpt lat="48.41614" lon="-3.71317">
        <ele>220</ele>
        <time>2021-07-08T10:27:46Z</time>
      </trkpt>
      <trkpt lat="48.41612" lon="-3.71311">
        <ele>220</ele>
        <time>2021-07-08T10:27:47Z</time>
      </trkpt>
      <trkpt lat="48.4161" lon="-3.71306">
        <ele>220</ele>
        <time>2021-07-08T10:27:48Z</time>
      </trkpt>
      <trkpt lat="48.41608" lon="-3.713">
        <ele>220</ele>
        <time>2021-07-08T10:27:49Z</time>
      </trkpt>
      <trkpt lat="48.41601" lon="-3.71282">
        <ele>220</ele>
        <time>2021-07-08T10:27:52Z</time>
      </trkpt>
      <trkpt lat="48.41599" lon="-3.71276">
        <ele>220</ele>
        <time>2021-07-08T10:27:53Z</time>
      </trkpt>
      <trkpt lat="48.41597" lon="-3.71269">
        <ele>220</ele>
        <time>2021-07-08T10:27:54Z</time>
      </trkpt>
      <trkpt lat="48.41595" lon="-3.71263">
        <ele>220</ele>
        <time>2021-07-08T10:27:55Z</time>
      </trkpt>
      <trkpt lat="48.41591" lon="-3.71258">
        <ele>220</ele>
        <time>2021-07-08T10:27:56Z</time>
      </trkpt>
      <trkpt lat="48.41589" lon="-3.71253">
        <ele>220</ele>
        <time>2021-07-08T10:27:57Z</time>
      </trkpt>
      <trkpt lat="48.41587" lon="-3.71246">
        <ele>220</ele>
        <time>2021-07-08T10:27:57Z</time>
      </trkpt>
      <trkpt lat="48.41585" lon="-3.7124">
        <ele>220</ele>
        <time>2021-07-08T10:27:59Z</time>
      </trkpt>
      <trkpt lat="48.4158" lon="-3.71227">
        <ele>220</ele>
        <time>2021-07-08T10:28:01Z</time>
      </trkpt>
      <trkpt lat="48.41577" lon="-3.71221">
        <ele>220</ele>
        <time>2021-07-08T10:28:02Z</time>
      </trkpt>
      <trkpt lat="48.41574" lon="-3.71214">
        <ele>219</ele>
        <time>2021-07-08T10:28:03Z</time>
      </trkpt>
      <trkpt lat="48.41571" lon="-3.71208">
        <ele>219</ele>
        <time>2021-07-08T10:28:03Z</time>
      </trkpt>
      <trkpt lat="48.41569" lon="-3.71203">
        <ele>220</ele>
        <time>2021-07-08T10:28:05Z</time>
      </trkpt>
      <trkpt lat="48.41566" lon="-3.71198">
        <ele>220</ele>
        <time>2021-07-08T10:28:06Z</time>
      </trkpt>
      <trkpt lat="48.41563" lon="-3.71192">
        <ele>220</ele>
        <time>2021-07-08T10:28:07Z</time>
      </trkpt>
      <trkpt lat="48.41555" lon="-3.71178">
        <ele>220</ele>
        <time>2021-07-08T10:28:10Z</time>
      </trkpt>
      <trkpt lat="48.41547" lon="-3.71164">
        <ele>220</ele>
        <time>2021-07-08T10:28:13Z</time>
      </trkpt>
      <trkpt lat="48.41538" lon="-3.71151">
        <ele>220</ele>
        <time>2021-07-08T10:28:16Z</time>
      </trkpt>
      <trkpt lat="48.41535" lon="-3.71147">
        <ele>220</ele>
        <time>2021-07-08T10:28:16Z</time>
      </trkpt>
      <trkpt lat="48.41527" lon="-3.71139">
        <ele>220</ele>
        <time>2021-07-08T10:28:19Z</time>
      </trkpt>
      <trkpt lat="48.41524" lon="-3.71135">
        <ele>220</ele>
        <time>2021-07-08T10:28:20Z</time>
      </trkpt>
      <trkpt lat="48.41514" lon="-3.71122">
        <ele>219</ele>
        <time>2021-07-08T10:28:23Z</time>
      </trkpt>
      <trkpt lat="48.41511" lon="-3.71117">
        <ele>219</ele>
        <time>2021-07-08T10:28:24Z</time>
      </trkpt>
      <trkpt lat="48.41508" lon="-3.71113">
        <ele>219</ele>
        <time>2021-07-08T10:28:25Z</time>
      </trkpt>
      <trkpt lat="48.41505" lon="-3.71109">
        <ele>219</ele>
        <time>2021-07-08T10:28:26Z</time>
      </trkpt>
      <trkpt lat="48.41502" lon="-3.71106">
        <ele>219</ele>
        <time>2021-07-08T10:28:27Z</time>
      </trkpt>
      <trkpt lat="48.415" lon="-3.71102">
        <ele>219</ele>
        <time>2021-07-08T10:28:28Z</time>
      </trkpt>
      <trkpt lat="48.41497" lon="-3.71097">
        <ele>219</ele>
        <time>2021-07-08T10:28:29Z</time>
      </trkpt>
      <trkpt lat="48.41494" lon="-3.71093">
        <ele>219</ele>
        <time>2021-07-08T10:28:30Z</time>
      </trkpt>
      <trkpt lat="48.41492" lon="-3.71089">
        <ele>219</ele>
        <time>2021-07-08T10:28:31Z</time>
      </trkpt>
      <trkpt lat="48.41484" lon="-3.71078">
        <ele>219</ele>
        <time>2021-07-08T10:28:34Z</time>
      </trkpt>
      <trkpt lat="48.41474" lon="-3.71066">
        <ele>219</ele>
        <time>2021-07-08T10:28:36Z</time>
      </trkpt>
      <trkpt lat="48.41465" lon="-3.71052">
        <ele>219</ele>
        <time>2021-07-08T10:28:40Z</time>
      </trkpt>
      <trkpt lat="48.41457" lon="-3.71041">
        <ele>219</ele>
        <time>2021-07-08T10:28:43Z</time>
      </trkpt>
      <trkpt lat="48.4145" lon="-3.71031">
        <ele>219</ele>
        <time>2021-07-08T10:28:46Z</time>
      </trkpt>
      <trkpt lat="48.41448" lon="-3.71027">
        <ele>219</ele>
        <time>2021-07-08T10:28:47Z</time>
      </trkpt>
      <trkpt lat="48.41447" lon="-3.71025">
        <ele>219</ele>
        <time>2021-07-08T10:28:48Z</time>
      </trkpt>
      <trkpt lat="48.41445" lon="-3.71022">
        <ele>219</ele>
        <time>2021-07-08T10:28:49Z</time>
      </trkpt>
      <trkpt lat="48.41443" lon="-3.71018">
        <ele>219</ele>
        <time>2021-07-08T10:28:50Z</time>
      </trkpt>
      <trkpt lat="48.41441" lon="-3.71014">
        <ele>219</ele>
        <time>2021-07-08T10:28:51Z</time>
      </trkpt>
      <trkpt lat="48.41439" lon="-3.71011">
        <ele>219</ele>
        <time>2021-07-08T10:28:52Z</time>
      </trkpt>
      <trkpt lat="48.41437" lon="-3.71007">
        <ele>219</ele>
        <time>2021-07-08T10:28:53Z</time>
      </trkpt>
      <trkpt lat="48.41435" lon="-3.71003">
        <ele>219</ele>
        <time>2021-07-08T10:28:54Z</time>
      </trkpt>
      <trkpt lat="48.41433" lon="-3.70999">
        <ele>219</ele>
        <time>2021-07-08T10:28:55Z</time>
      </trkpt>
      <trkpt lat="48.41431" lon="-3.70996">
        <ele>219</ele>
        <time>2021-07-08T10:28:56Z</time>
      </trkpt>
      <trkpt lat="48.4143" lon="-3.70992">
        <ele>219</ele>
        <time>2021-07-08T10:28:57Z</time>
      </trkpt>
      <trkpt lat="48.41428" lon="-3.70988">
        <ele>219</ele>
        <time>2021-07-08T10:28:58Z</time>
      </trkpt>
      <trkpt lat="48.41426" lon="-3.70985">
        <ele>219</ele>
        <time>2021-07-08T10:28:59Z</time>
      </trkpt>
      <trkpt lat="48.41424" lon="-3.70982">
        <ele>219</ele>
        <time>2021-07-08T10:29:00Z</time>
      </trkpt>
      <trkpt lat="48.41423" lon="-3.70978">
        <ele>219</ele>
        <time>2021-07-08T10:29:01Z</time>
      </trkpt>
      <trkpt lat="48.41421" lon="-3.70975">
        <ele>219</ele>
        <time>2021-07-08T10:29:01Z</time>
      </trkpt>
      <trkpt lat="48.41419" lon="-3.7097">
        <ele>219</ele>
        <time>2021-07-08T10:29:03Z</time>
      </trkpt>
      <trkpt lat="48.41417" lon="-3.70966">
        <ele>219</ele>
        <time>2021-07-08T10:29:04Z</time>
      </trkpt>
      <trkpt lat="48.41416" lon="-3.70962">
        <ele>219</ele>
        <time>2021-07-08T10:29:05Z</time>
      </trkpt>
      <trkpt lat="48.41414" lon="-3.70958">
        <ele>219</ele>
        <time>2021-07-08T10:29:06Z</time>
      </trkpt>
      <trkpt lat="48.41413" lon="-3.70955">
        <ele>219</ele>
        <time>2021-07-08T10:29:07Z</time>
      </trkpt>
      <trkpt lat="48.41411" lon="-3.70952">
        <ele>219</ele>
        <time>2021-07-08T10:29:08Z</time>
      </trkpt>
      <trkpt lat="48.4141" lon="-3.70948">
        <ele>219</ele>
        <time>2021-07-08T10:29:09Z</time>
      </trkpt>
      <trkpt lat="48.41409" lon="-3.70945">
        <ele>219</ele>
        <time>2021-07-08T10:29:10Z</time>
      </trkpt>
      <trkpt lat="48.41407" lon="-3.70941">
        <ele>218</ele>
        <time>2021-07-08T10:29:11Z</time>
      </trkpt>
      <trkpt lat="48.41406" lon="-3.70938">
        <ele>218</ele>
        <time>2021-07-08T10:29:12Z</time>
      </trkpt>
      <trkpt lat="48.41405" lon="-3.70934">
        <ele>218</ele>
        <time>2021-07-08T10:29:13Z</time>
      </trkpt>
      <trkpt lat="48.41404" lon="-3.70931">
        <ele>218</ele>
        <time>2021-07-08T10:29:14Z</time>
      </trkpt>
      <trkpt lat="48.41403" lon="-3.70927">
        <ele>218</ele>
        <time>2021-07-08T10:29:15Z</time>
      </trkpt>
      <trkpt lat="48.41402" lon="-3.70924">
        <ele>218</ele>
        <time>2021-07-08T10:29:16Z</time>
      </trkpt>
      <trkpt lat="48.41401" lon="-3.7092">
        <ele>218</ele>
        <time>2021-07-08T10:29:17Z</time>
      </trkpt>
      <trkpt lat="48.414" lon="-3.70916">
        <ele>218</ele>
        <time>2021-07-08T10:29:18Z</time>
      </trkpt>
      <trkpt lat="48.41399" lon="-3.70912">
        <ele>218</ele>
        <time>2021-07-08T10:29:18Z</time>
      </trkpt>
      <trkpt lat="48.41398" lon="-3.70908">
        <ele>218</ele>
        <time>2021-07-08T10:29:20Z</time>
      </trkpt>
      <trkpt lat="48.41398" lon="-3.70905">
        <ele>218</ele>
        <time>2021-07-08T10:29:21Z</time>
      </trkpt>
      <trkpt lat="48.41397" lon="-3.70902">
        <ele>218</ele>
        <time>2021-07-08T10:29:22Z</time>
      </trkpt>
      <trkpt lat="48.41396" lon="-3.70899">
        <ele>218</ele>
        <time>2021-07-08T10:29:23Z</time>
      </trkpt>
      <trkpt lat="48.41395" lon="-3.70896">
        <ele>218</ele>
        <time>2021-07-08T10:29:24Z</time>
      </trkpt>
      <trkpt lat="48.41395" lon="-3.70892">
        <ele>218</ele>
        <time>2021-07-08T10:29:25Z</time>
      </trkpt>
      <trkpt lat="48.41394" lon="-3.70889">
        <ele>218</ele>
        <time>2021-07-08T10:29:26Z</time>
      </trkpt>
      <trkpt lat="48.41393" lon="-3.70885">
        <ele>218</ele>
        <time>2021-07-08T10:29:27Z</time>
      </trkpt>
      <trkpt lat="48.41392" lon="-3.70878">
        <ele>218</ele>
        <time>2021-07-08T10:29:29Z</time>
      </trkpt>
      <trkpt lat="48.41391" lon="-3.70874">
        <ele>218</ele>
        <time>2021-07-08T10:29:30Z</time>
      </trkpt>
      <trkpt lat="48.41386" lon="-3.70859">
        <ele>218</ele>
        <time>2021-07-08T10:29:34Z</time>
      </trkpt>
      <trkpt lat="48.41384" lon="-3.70855">
        <ele>218</ele>
        <time>2021-07-08T10:29:35Z</time>
      </trkpt>
      <trkpt lat="48.41382" lon="-3.7085">
        <ele>218</ele>
        <time>2021-07-08T10:29:36Z</time>
      </trkpt>
      <trkpt lat="48.4138" lon="-3.70844">
        <ele>218</ele>
        <time>2021-07-08T10:29:37Z</time>
      </trkpt>
      <trkpt lat="48.41378" lon="-3.7084">
        <ele>218</ele>
        <time>2021-07-08T10:29:37Z</time>
      </trkpt>
      <trkpt lat="48.41378" lon="-3.70834">
        <ele>218</ele>
        <time>2021-07-08T10:29:39Z</time>
      </trkpt>
      <trkpt lat="48.41377" lon="-3.70829">
        <ele>218</ele>
        <time>2021-07-08T10:29:40Z</time>
      </trkpt>
      <trkpt lat="48.41376" lon="-3.70824">
        <ele>218</ele>
        <time>2021-07-08T10:29:41Z</time>
      </trkpt>
      <trkpt lat="48.41376" lon="-3.70819">
        <ele>218</ele>
        <time>2021-07-08T10:29:42Z</time>
      </trkpt>
      <trkpt lat="48.41375" lon="-3.70813">
        <ele>218</ele>
        <time>2021-07-08T10:29:43Z</time>
      </trkpt>
      <trkpt lat="48.41373" lon="-3.70804">
        <ele>218</ele>
        <time>2021-07-08T10:29:44Z</time>
      </trkpt>
      <trkpt lat="48.41373" lon="-3.70796">
        <ele>218</ele>
        <time>2021-07-08T10:29:46Z</time>
      </trkpt>
      <trkpt lat="48.41372" lon="-3.70789">
        <ele>218</ele>
        <time>2021-07-08T10:29:47Z</time>
      </trkpt>
      <trkpt lat="48.41371" lon="-3.70784">
        <ele>218</ele>
        <time>2021-07-08T10:29:48Z</time>
      </trkpt>
      <trkpt lat="48.41371" lon="-3.70778">
        <ele>218</ele>
        <time>2021-07-08T10:29:49Z</time>
      </trkpt>
      <trkpt lat="48.4137" lon="-3.70773">
        <ele>218</ele>
        <time>2021-07-08T10:29:50Z</time>
      </trkpt>
      <trkpt lat="48.41367" lon="-3.70758">
        <ele>218</ele>
        <time>2021-07-08T10:29:53Z</time>
      </trkpt>
      <trkpt lat="48.41365" lon="-3.70744">
        <ele>218</ele>
        <time>2021-07-08T10:29:55Z</time>
      </trkpt>
      <trkpt lat="48.41359" lon="-3.70719">
        <ele>218</ele>
        <time>2021-07-08T10:29:59Z</time>
      </trkpt>
      <trkpt lat="48.41356" lon="-3.70706">
        <ele>218</ele>
        <time>2021-07-08T10:30:02Z</time>
      </trkpt>
      <trkpt lat="48.41355" lon="-3.70692">
        <ele>218</ele>
        <time>2021-07-08T10:30:04Z</time>
      </trkpt>
      <trkpt lat="48.41353" lon="-3.70678">
        <ele>217</ele>
        <time>2021-07-08T10:30:06Z</time>
      </trkpt>
      <trkpt lat="48.41352" lon="-3.70664">
        <ele>218</ele>
        <time>2021-07-08T10:30:08Z</time>
      </trkpt>
      <trkpt lat="48.4135" lon="-3.70648">
        <ele>218</ele>
        <time>2021-07-08T10:30:09Z</time>
      </trkpt>
      <trkpt lat="48.41349" lon="-3.70633">
        <ele>218</ele>
        <time>2021-07-08T10:30:12Z</time>
      </trkpt>
      <trkpt lat="48.41348" lon="-3.70619">
        <ele>217</ele>
        <time>2021-07-08T10:30:14Z</time>
      </trkpt>
      <trkpt lat="48.41346" lon="-3.70605">
        <ele>217</ele>
        <time>2021-07-08T10:30:15Z</time>
      </trkpt>
      <trkpt lat="48.41342" lon="-3.70586">
        <ele>216</ele>
        <time>2021-07-08T10:30:19Z</time>
      </trkpt>
      <trkpt lat="48.41339" lon="-3.70567">
        <ele>216</ele>
        <time>2021-07-08T10:30:22Z</time>
      </trkpt>
      <trkpt lat="48.41336" lon="-3.70551">
        <ele>216</ele>
        <time>2021-07-08T10:30:25Z</time>
      </trkpt>
      <trkpt lat="48.41335" lon="-3.70541">
        <ele>216</ele>
        <time>2021-07-08T10:30:27Z</time>
      </trkpt>
      <trkpt lat="48.41335" lon="-3.70537">
        <ele>216</ele>
        <time>2021-07-08T10:30:28Z</time>
      </trkpt>
      <trkpt lat="48.41335" lon="-3.70534">
        <ele>216</ele>
        <time>2021-07-08T10:30:28Z</time>
      </trkpt>
      <trkpt lat="48.41335" lon="-3.70532">
        <ele>216</ele>
        <time>2021-07-08T10:30:31Z</time>
      </trkpt>
      <trkpt lat="48.41335" lon="-3.70529">
        <ele>216</ele>
        <time>2021-07-08T10:30:35Z</time>
      </trkpt>
      <trkpt lat="48.41335" lon="-3.70532">
        <ele>216</ele>
        <time>2021-07-08T10:30:40Z</time>
      </trkpt>
      <trkpt lat="48.41336" lon="-3.70535">
        <ele>215</ele>
        <time>2021-07-08T10:30:41Z</time>
      </trkpt>
      <trkpt lat="48.4133" lon="-3.70514">
        <ele>216</ele>
        <time>2021-07-08T10:30:42Z</time>
      </trkpt>
      <trkpt lat="48.41327" lon="-3.70504">
        <ele>216</ele>
        <time>2021-07-08T10:30:44Z</time>
      </trkpt>
      <trkpt lat="48.41326" lon="-3.70499">
        <ele>216</ele>
        <time>2021-07-08T10:30:44Z</time>
      </trkpt>
      <trkpt lat="48.41324" lon="-3.70494">
        <ele>216</ele>
        <time>2021-07-08T10:30:45Z</time>
      </trkpt>
      <trkpt lat="48.41323" lon="-3.70489">
        <ele>216</ele>
        <time>2021-07-08T10:30:46Z</time>
      </trkpt>
      <trkpt lat="48.41321" lon="-3.70484">
        <ele>216</ele>
        <time>2021-07-08T10:30:47Z</time>
      </trkpt>
      <trkpt lat="48.41319" lon="-3.70479">
        <ele>216</ele>
        <time>2021-07-08T10:30:48Z</time>
      </trkpt>
      <trkpt lat="48.41318" lon="-3.70473">
        <ele>216</ele>
        <time>2021-07-08T10:30:49Z</time>
      </trkpt>
      <trkpt lat="48.41316" lon="-3.70467">
        <ele>216</ele>
        <time>2021-07-08T10:30:50Z</time>
      </trkpt>
      <trkpt lat="48.41336" lon="-3.70536">
        <ele>215</ele>
        <time>2021-07-08T10:30:50Z</time>
      </trkpt>
      <trkpt lat="48.41314" lon="-3.70461">
        <ele>216</ele>
        <time>2021-07-08T10:30:51Z</time>
      </trkpt>
      <trkpt lat="48.41313" lon="-3.70456">
        <ele>216</ele>
        <time>2021-07-08T10:30:52Z</time>
      </trkpt>
      <trkpt lat="48.41311" lon="-3.7045">
        <ele>216</ele>
        <time>2021-07-08T10:30:53Z</time>
      </trkpt>
      <trkpt lat="48.41309" lon="-3.70444">
        <ele>215</ele>
        <time>2021-07-08T10:30:54Z</time>
      </trkpt>
      <trkpt lat="48.41307" lon="-3.70439">
        <ele>215</ele>
        <time>2021-07-08T10:30:55Z</time>
      </trkpt>
      <trkpt lat="48.41305" lon="-3.70433">
        <ele>215</ele>
        <time>2021-07-08T10:30:56Z</time>
      </trkpt>
      <trkpt lat="48.41303" lon="-3.70428">
        <ele>215</ele>
        <time>2021-07-08T10:30:57Z</time>
      </trkpt>
      <trkpt lat="48.41301" lon="-3.70422">
        <ele>215</ele>
        <time>2021-07-08T10:30:58Z</time>
      </trkpt>
      <trkpt lat="48.41299" lon="-3.70417">
        <ele>215</ele>
        <time>2021-07-08T10:30:59Z</time>
      </trkpt>
      <trkpt lat="48.41297" lon="-3.70412">
        <ele>216</ele>
        <time>2021-07-08T10:31:00Z</time>
      </trkpt>
      <trkpt lat="48.41295" lon="-3.70406">
        <ele>216</ele>
        <time>2021-07-08T10:31:01Z</time>
      </trkpt>
      <trkpt lat="48.41293" lon="-3.70401">
        <ele>216</ele>
        <time>2021-07-08T10:31:03Z</time>
      </trkpt>
      <trkpt lat="48.4129" lon="-3.70396">
        <ele>216</ele>
        <time>2021-07-08T10:31:03Z</time>
      </trkpt>
      <trkpt lat="48.41288" lon="-3.70391">
        <ele>216</ele>
        <time>2021-07-08T10:31:04Z</time>
      </trkpt>
      <trkpt lat="48.41286" lon="-3.70385">
        <ele>216</ele>
        <time>2021-07-08T10:31:05Z</time>
      </trkpt>
      <trkpt lat="48.41284" lon="-3.70379">
        <ele>216</ele>
        <time>2021-07-08T10:31:06Z</time>
      </trkpt>
      <trkpt lat="48.41282" lon="-3.70373">
        <ele>216</ele>
        <time>2021-07-08T10:31:07Z</time>
      </trkpt>
      <trkpt lat="48.41279" lon="-3.70367">
        <ele>215</ele>
        <time>2021-07-08T10:31:08Z</time>
      </trkpt>
      <trkpt lat="48.41277" lon="-3.70361">
        <ele>215</ele>
        <time>2021-07-08T10:31:09Z</time>
      </trkpt>
      <trkpt lat="48.41274" lon="-3.70355">
        <ele>215</ele>
        <time>2021-07-08T10:31:10Z</time>
      </trkpt>
      <trkpt lat="48.41272" lon="-3.70348">
        <ele>215</ele>
        <time>2021-07-08T10:31:11Z</time>
      </trkpt>
      <trkpt lat="48.4127" lon="-3.70342">
        <ele>215</ele>
        <time>2021-07-08T10:31:12Z</time>
      </trkpt>
      <trkpt lat="48.41268" lon="-3.70336">
        <ele>215</ele>
        <time>2021-07-08T10:31:13Z</time>
      </trkpt>
      <trkpt lat="48.41266" lon="-3.70331">
        <ele>215</ele>
        <time>2021-07-08T10:31:14Z</time>
      </trkpt>
      <trkpt lat="48.41265" lon="-3.70325">
        <ele>215</ele>
        <time>2021-07-08T10:31:15Z</time>
      </trkpt>
      <trkpt lat="48.41264" lon="-3.7032">
        <ele>215</ele>
        <time>2021-07-08T10:31:16Z</time>
      </trkpt>
      <trkpt lat="48.41263" lon="-3.70316">
        <ele>215</ele>
        <time>2021-07-08T10:31:17Z</time>
      </trkpt>
      <trkpt lat="48.41262" lon="-3.70313">
        <ele>215</ele>
        <time>2021-07-08T10:31:18Z</time>
      </trkpt>
      <trkpt lat="48.4126" lon="-3.70309">
        <ele>216</ele>
        <time>2021-07-08T10:31:19Z</time>
      </trkpt>
      <trkpt lat="48.41259" lon="-3.70306">
        <ele>216</ele>
        <time>2021-07-08T10:31:20Z</time>
      </trkpt>
      <trkpt lat="48.41257" lon="-3.70302">
        <ele>216</ele>
        <time>2021-07-08T10:31:21Z</time>
      </trkpt>
      <trkpt lat="48.41256" lon="-3.70298">
        <ele>216</ele>
        <time>2021-07-08T10:31:22Z</time>
      </trkpt>
      <trkpt lat="48.41254" lon="-3.70295">
        <ele>216</ele>
        <time>2021-07-08T10:31:23Z</time>
      </trkpt>
      <trkpt lat="48.41253" lon="-3.70291">
        <ele>215</ele>
        <time>2021-07-08T10:31:24Z</time>
      </trkpt>
      <trkpt lat="48.41252" lon="-3.70287">
        <ele>215</ele>
        <time>2021-07-08T10:31:25Z</time>
      </trkpt>
      <trkpt lat="48.41251" lon="-3.70283">
        <ele>215</ele>
        <time>2021-07-08T10:31:26Z</time>
      </trkpt>
      <trkpt lat="48.4125" lon="-3.7028">
        <ele>215</ele>
        <time>2021-07-08T10:31:27Z</time>
      </trkpt>
      <trkpt lat="48.41248" lon="-3.70276">
        <ele>215</ele>
        <time>2021-07-08T10:31:28Z</time>
      </trkpt>
      <trkpt lat="48.41247" lon="-3.70273">
        <ele>215</ele>
        <time>2021-07-08T10:31:29Z</time>
      </trkpt>
      <trkpt lat="48.41245" lon="-3.70269">
        <ele>215</ele>
        <time>2021-07-08T10:31:30Z</time>
      </trkpt>
      <trkpt lat="48.41244" lon="-3.70266">
        <ele>215</ele>
        <time>2021-07-08T10:31:31Z</time>
      </trkpt>
      <trkpt lat="48.41243" lon="-3.70263">
        <ele>215</ele>
        <time>2021-07-08T10:31:32Z</time>
      </trkpt>
      <trkpt lat="48.41242" lon="-3.70259">
        <ele>214</ele>
        <time>2021-07-08T10:31:33Z</time>
      </trkpt>
      <trkpt lat="48.41241" lon="-3.70256">
        <ele>214</ele>
        <time>2021-07-08T10:31:34Z</time>
      </trkpt>
      <trkpt lat="48.4124" lon="-3.70252">
        <ele>215</ele>
        <time>2021-07-08T10:31:35Z</time>
      </trkpt>
      <trkpt lat="48.41238" lon="-3.70249">
        <ele>215</ele>
        <time>2021-07-08T10:31:36Z</time>
      </trkpt>
      <trkpt lat="48.41237" lon="-3.70246">
        <ele>215</ele>
        <time>2021-07-08T10:31:37Z</time>
      </trkpt>
      <trkpt lat="48.41236" lon="-3.70243">
        <ele>215</ele>
        <time>2021-07-08T10:31:38Z</time>
      </trkpt>
      <trkpt lat="48.41235" lon="-3.7024">
        <ele>215</ele>
        <time>2021-07-08T10:31:39Z</time>
      </trkpt>
      <trkpt lat="48.41234" lon="-3.70237">
        <ele>215</ele>
        <time>2021-07-08T10:31:41Z</time>
      </trkpt>
      <trkpt lat="48.41232" lon="-3.70233">
        <ele>215</ele>
        <time>2021-07-08T10:31:42Z</time>
      </trkpt>
      <trkpt lat="48.4123" lon="-3.7023">
        <ele>214</ele>
        <time>2021-07-08T10:31:44Z</time>
      </trkpt>
      <trkpt lat="48.41228" lon="-3.70227">
        <ele>215</ele>
        <time>2021-07-08T10:31:46Z</time>
      </trkpt>
      <trkpt lat="48.41229" lon="-3.70226">
        <ele>215</ele>
        <time>2021-07-08T10:33:00Z</time>
      </trkpt>
      <trkpt lat="48.41244" lon="-3.70226">
        <ele>215</ele>
        <time>2021-07-08T10:35:44Z</time>
      </trkpt>
      <trkpt lat="48.41246" lon="-3.70226">
        <ele>215</ele>
        <time>2021-07-08T10:35:44Z</time>
      </trkpt>
      <trkpt lat="48.41247" lon="-3.70226">
        <ele>214</ele>
        <time>2021-07-08T10:35:51Z</time>
      </trkpt>
      <trkpt lat="48.41241" lon="-3.70226">
        <ele>215</ele>
        <time>2021-07-08T10:37:06Z</time>
      </trkpt>
      <trkpt lat="48.4124" lon="-3.70227">
        <ele>215</ele>
        <time>2021-07-08T10:37:12Z</time>
      </trkpt>
      <trkpt lat="48.41238" lon="-3.70228">
        <ele>215</ele>
        <time>2021-07-08T10:39:18Z</time>
      </trkpt>
      <trkpt lat="48.41238" lon="-3.70228">
        <ele>214</ele>
        <time>2021-07-08T10:39:21Z</time>
      </trkpt>
      <trkpt lat="48.41236" lon="-3.70227">
        <ele>215</ele>
        <time>2021-07-08T10:40:28Z</time>
      </trkpt>
      <trkpt lat="48.41235" lon="-3.70228">
        <ele>215</ele>
        <time>2021-07-08T10:40:28Z</time>
      </trkpt>
      <trkpt lat="48.41236" lon="-3.70228">
        <ele>215</ele>
        <time>2021-07-08T10:40:36Z</time>
      </trkpt>
      <trkpt lat="48.41235" lon="-3.70226">
        <ele>216</ele>
        <time>2021-07-08T10:42:56Z</time>
      </trkpt>
      <trkpt lat="48.41236" lon="-3.70227">
        <ele>216</ele>
        <time>2021-07-08T10:42:56Z</time>
      </trkpt>
      <trkpt lat="48.41237" lon="-3.70228">
        <ele>216</ele>
        <time>2021-07-08T10:43:03Z</time>
      </trkpt>
      <trkpt lat="48.41246" lon="-3.70226">
        <ele>215</ele>
        <time>2021-07-08T10:45:42Z</time>
      </trkpt>
      <trkpt lat="48.41248" lon="-3.70226">
        <ele>215</ele>
        <time>2021-07-08T10:45:44Z</time>
      </trkpt>
      <trkpt lat="48.41249" lon="-3.70226">
        <ele>215</ele>
        <time>2021-07-08T10:45:48Z</time>
      </trkpt>
      <trkpt lat="48.41242" lon="-3.70224">
        <ele>215</ele>
        <time>2021-07-08T10:47:14Z</time>
      </trkpt>
      <trkpt lat="48.41241" lon="-3.70224">
        <ele>216</ele>
        <time>2021-07-08T10:47:18Z</time>
      </trkpt>
      <trkpt lat="48.41236" lon="-3.70227">
        <ele>216</ele>
        <time>2021-07-08T10:49:54Z</time>
      </trkpt>
      <trkpt lat="48.41234" lon="-3.70226">
        <ele>215</ele>
        <time>2021-07-08T10:49:55Z</time>
      </trkpt>
      <trkpt lat="48.41232" lon="-3.70226">
        <ele>215</ele>
        <time>2021-07-08T10:49:59Z</time>
      </trkpt>
      <trkpt lat="48.4123" lon="-3.70225">
        <ele>215</ele>
        <time>2021-07-08T10:50:06Z</time>
      </trkpt>
      <trkpt lat="48.4123" lon="-3.70225">
        <ele>215</ele>
        <time>2021-07-08T10:50:07Z</time>
      </trkpt>
      <trkpt lat="48.41231" lon="-3.70235">
        <ele>215</ele>
        <time>2021-07-08T10:53:04Z</time>
      </trkpt>
      <trkpt lat="48.41231" lon="-3.70233">
        <ele>215</ele>
        <time>2021-07-08T10:53:09Z</time>
      </trkpt>
      <trkpt lat="48.41233" lon="-3.70231">
        <ele>216</ele>
        <time>2021-07-08T10:53:16Z</time>
      </trkpt>
      <trkpt lat="48.41233" lon="-3.70224">
        <ele>216</ele>
        <time>2021-07-08T10:53:44Z</time>
      </trkpt>
      <trkpt lat="48.41235" lon="-3.70224">
        <ele>215</ele>
        <time>2021-07-08T10:53:48Z</time>
      </trkpt>
      <trkpt lat="48.41236" lon="-3.70225">
        <ele>215</ele>
        <time>2021-07-08T10:53:54Z</time>
      </trkpt>
      <trkpt lat="48.41235" lon="-3.7022">
        <ele>216</ele>
        <time>2021-07-08T10:55:26Z</time>
      </trkpt>
      <trkpt lat="48.41236" lon="-3.70221">
        <ele>216</ele>
        <time>2021-07-08T10:55:28Z</time>
      </trkpt>
      <trkpt lat="48.41236" lon="-3.70224">
        <ele>216</ele>
        <time>2021-07-08T10:55:32Z</time>
      </trkpt>
      <trkpt lat="48.41236" lon="-3.70227">
        <ele>216</ele>
        <time>2021-07-08T10:55:35Z</time>
      </trkpt>
      <trkpt lat="48.41236" lon="-3.70229">
        <ele>215</ele>
        <time>2021-07-08T10:55:38Z</time>
      </trkpt>
      <trkpt lat="48.41239" lon="-3.70228">
        <ele>215</ele>
        <time>2021-07-08T10:55:42Z</time>
      </trkpt>
      <trkpt lat="48.41235" lon="-3.70233">
        <ele>215</ele>
        <time>2021-07-08T10:55:43Z</time>
      </trkpt>
      <trkpt lat="48.4124" lon="-3.70229">
        <ele>215</ele>
        <time>2021-07-08T10:55:55Z</time>
      </trkpt>
      <trkpt lat="48.41242" lon="-3.70228">
        <ele>215</ele>
        <time>2021-07-08T10:55:55Z</time>
      </trkpt>
      <trkpt lat="48.41242" lon="-3.70228">
        <ele>215</ele>
        <time>2021-07-08T10:56:04Z</time>
      </trkpt>
      <trkpt lat="48.41239" lon="-3.70222">
        <ele>216</ele>
        <time>2021-07-08T10:56:44Z</time>
      </trkpt>
      <trkpt lat="48.41238" lon="-3.7023">
        <ele>215</ele>
        <time>2021-07-08T10:56:51Z</time>
      </trkpt>
      <trkpt lat="48.41238" lon="-3.7023">
        <ele>215</ele>
        <time>2021-07-08T10:56:56Z</time>
      </trkpt>
      <trkpt lat="48.41238" lon="-3.70221">
        <ele>216</ele>
        <time>2021-07-08T10:57:54Z</time>
      </trkpt>
      <trkpt lat="48.41234" lon="-3.70221">
        <ele>216</ele>
        <time>2021-07-08T10:57:58Z</time>
      </trkpt>
      <trkpt lat="48.41234" lon="-3.70221">
        <ele>216</ele>
        <time>2021-07-08T10:58:03Z</time>
      </trkpt>
      <trkpt lat="48.41238" lon="-3.70225">
        <ele>216</ele>
        <time>2021-07-08T10:59:36Z</time>
      </trkpt>
      <trkpt lat="48.41234" lon="-3.70223">
        <ele>216</ele>
        <time>2021-07-08T10:59:40Z</time>
      </trkpt>
      <trkpt lat="48.41235" lon="-3.70224">
        <ele>217</ele>
        <time>2021-07-08T11:00:38Z</time>
      </trkpt>
      <trkpt lat="48.41235" lon="-3.70224">
        <ele>217</ele>
        <time>2021-07-08T11:00:38Z</time>
      </trkpt>
      <trkpt lat="48.41238" lon="-3.70225">
        <ele>216</ele>
        <time>2021-07-08T11:00:46Z</time>
      </trkpt>
      <trkpt lat="48.4123" lon="-3.70228">
        <ele>216</ele>
        <time>2021-07-08T11:01:22Z</time>
      </trkpt>
      <trkpt lat="48.41235" lon="-3.70224">
        <ele>217</ele>
        <time>2021-07-08T11:01:50Z</time>
      </trkpt>
      <trkpt lat="48.4123" lon="-3.70228">
        <ele>216</ele>
        <time>2021-07-08T11:02:31Z</time>
      </trkpt>
      <trkpt lat="48.41227" lon="-3.70231">
        <ele>216</ele>
        <time>2021-07-08T11:02:40Z</time>
      </trkpt>
      <trkpt lat="48.41226" lon="-3.70232">
        <ele>216</ele>
        <time>2021-07-08T11:02:40Z</time>
      </trkpt>
      <trkpt lat="48.41224" lon="-3.70234">
        <ele>216</ele>
        <time>2021-07-08T11:02:42Z</time>
      </trkpt>
      <trkpt lat="48.41224" lon="-3.70234">
        <ele>216</ele>
        <time>2021-07-08T11:02:46Z</time>
      </trkpt>
      <trkpt lat="48.41229" lon="-3.70229">
        <ele>216</ele>
        <time>2021-07-08T11:05:04Z</time>
      </trkpt>
      <trkpt lat="48.4123" lon="-3.70229">
        <ele>216</ele>
        <time>2021-07-08T11:05:06Z</time>
      </trkpt>
      <trkpt lat="48.41232" lon="-3.70228">
        <ele>215</ele>
        <time>2021-07-08T11:05:09Z</time>
      </trkpt>
      <trkpt lat="48.41234" lon="-3.70227">
        <ele>216</ele>
        <time>2021-07-08T11:05:16Z</time>
      </trkpt>
      <trkpt lat="48.41233" lon="-3.7023">
        <ele>215</ele>
        <time>2021-07-08T11:05:21Z</time>
      </trkpt>
      <trkpt lat="48.41233" lon="-3.7023">
        <ele>215</ele>
        <time>2021-07-08T11:05:25Z</time>
      </trkpt>
      <trkpt lat="48.41233" lon="-3.70231">
        <ele>216</ele>
        <time>2021-07-08T11:05:50Z</time>
      </trkpt>
      <trkpt lat="48.41226" lon="-3.70222">
        <ele>217</ele>
        <time>2021-07-08T11:05:51Z</time>
      </trkpt>
      <trkpt lat="48.41233" lon="-3.70234">
        <ele>215</ele>
        <time>2021-07-08T11:05:53Z</time>
      </trkpt>
      <trkpt lat="48.41232" lon="-3.70238">
        <ele>215</ele>
        <time>2021-07-08T11:05:56Z</time>
      </trkpt>
      <trkpt lat="48.41233" lon="-3.7024">
        <ele>215</ele>
        <time>2021-07-08T11:06:00Z</time>
      </trkpt>
      <trkpt lat="48.41233" lon="-3.70239">
        <ele>215</ele>
        <time>2021-07-08T11:06:05Z</time>
      </trkpt>
      <trkpt lat="48.41234" lon="-3.70233">
        <ele>215</ele>
        <time>2021-07-08T11:06:09Z</time>
      </trkpt>
      <trkpt lat="48.41232" lon="-3.70235">
        <ele>216</ele>
        <time>2021-07-08T11:06:15Z</time>
      </trkpt>
      <trkpt lat="48.4123" lon="-3.70237">
        <ele>216</ele>
        <time>2021-07-08T11:06:20Z</time>
      </trkpt>
      <trkpt lat="48.4123" lon="-3.70238">
        <ele>216</ele>
        <time>2021-07-08T11:06:23Z</time>
      </trkpt>
      <trkpt lat="48.41226" lon="-3.70222">
        <ele>216</ele>
        <time>2021-07-08T11:07:00Z</time>
      </trkpt>
      <trkpt lat="48.41231" lon="-3.70224">
        <ele>216</ele>
        <time>2021-07-08T11:07:16Z</time>
      </trkpt>
      <trkpt lat="48.41229" lon="-3.70226">
        <ele>216</ele>
        <time>2021-07-08T11:07:24Z</time>
      </trkpt>
      <trkpt lat="48.41228" lon="-3.70226">
        <ele>217</ele>
        <time>2021-07-08T11:07:27Z</time>
      </trkpt>
      <trkpt lat="48.41231" lon="-3.70224">
        <ele>216</ele>
        <time>2021-07-08T11:08:26Z</time>
      </trkpt>
      <trkpt lat="48.41234" lon="-3.70228">
        <ele>216</ele>
        <time>2021-07-08T11:08:47Z</time>
      </trkpt>
      <trkpt lat="48.41235" lon="-3.70229">
        <ele>216</ele>
        <time>2021-07-08T11:08:48Z</time>
      </trkpt>
      <trkpt lat="48.41237" lon="-3.7023">
        <ele>216</ele>
        <time>2021-07-08T11:08:50Z</time>
      </trkpt>
      <trkpt lat="48.41239" lon="-3.70231">
        <ele>216</ele>
        <time>2021-07-08T11:08:52Z</time>
      </trkpt>
      <trkpt lat="48.41241" lon="-3.70231">
        <ele>216</ele>
        <time>2021-07-08T11:08:55Z</time>
      </trkpt>
      <trkpt lat="48.41243" lon="-3.7023">
        <ele>216</ele>
        <time>2021-07-08T11:08:57Z</time>
      </trkpt>
      <trkpt lat="48.41245" lon="-3.70229">
        <ele>216</ele>
        <time>2021-07-08T11:08:59Z</time>
      </trkpt>
      <trkpt lat="48.41248" lon="-3.70228">
        <ele>216</ele>
        <time>2021-07-08T11:09:01Z</time>
      </trkpt>
      <trkpt lat="48.4125" lon="-3.70227">
        <ele>215</ele>
        <time>2021-07-08T11:09:03Z</time>
      </trkpt>
      <trkpt lat="48.41253" lon="-3.70226">
        <ele>215</ele>
        <time>2021-07-08T11:09:05Z</time>
      </trkpt>
      <trkpt lat="48.41256" lon="-3.70226">
        <ele>216</ele>
        <time>2021-07-08T11:09:06Z</time>
      </trkpt>
      <trkpt lat="48.41258" lon="-3.70226">
        <ele>216</ele>
        <time>2021-07-08T11:09:09Z</time>
      </trkpt>
      <trkpt lat="48.41261" lon="-3.70225">
        <ele>215</ele>
        <time>2021-07-08T11:09:11Z</time>
      </trkpt>
      <trkpt lat="48.41264" lon="-3.70225">
        <ele>215</ele>
        <time>2021-07-08T11:09:13Z</time>
      </trkpt>
      <trkpt lat="48.41261" lon="-3.70224">
        <ele>215</ele>
        <time>2021-07-08T11:09:20Z</time>
      </trkpt>
      <trkpt lat="48.41258" lon="-3.70225">
        <ele>215</ele>
        <time>2021-07-08T11:09:22Z</time>
      </trkpt>
      <trkpt lat="48.41256" lon="-3.70227">
        <ele>215</ele>
        <time>2021-07-08T11:09:24Z</time>
      </trkpt>
      <trkpt lat="48.41254" lon="-3.70227">
        <ele>215</ele>
        <time>2021-07-08T11:09:26Z</time>
      </trkpt>
      <trkpt lat="48.41252" lon="-3.70226">
        <ele>215</ele>
        <time>2021-07-08T11:09:28Z</time>
      </trkpt>
      <trkpt lat="48.41249" lon="-3.70225">
        <ele>215</ele>
        <time>2021-07-08T11:09:30Z</time>
      </trkpt>
      <trkpt lat="48.41247" lon="-3.70227">
        <ele>215</ele>
        <time>2021-07-08T11:09:32Z</time>
      </trkpt>
      <trkpt lat="48.41245" lon="-3.70228">
        <ele>215</ele>
        <time>2021-07-08T11:09:34Z</time>
      </trkpt>
      <trkpt lat="48.41243" lon="-3.7023">
        <ele>215</ele>
        <time>2021-07-08T11:09:36Z</time>
      </trkpt>
      <trkpt lat="48.4124" lon="-3.70232">
        <ele>215</ele>
        <time>2021-07-08T11:09:38Z</time>
      </trkpt>
      <trkpt lat="48.41238" lon="-3.70234">
        <ele>216</ele>
        <time>2021-07-08T11:09:40Z</time>
      </trkpt>
      <trkpt lat="48.41235" lon="-3.70234">
        <ele>216</ele>
        <time>2021-07-08T11:09:42Z</time>
      </trkpt>
      <trkpt lat="48.41233" lon="-3.70232">
        <ele>216</ele>
        <time>2021-07-08T11:09:46Z</time>
      </trkpt>
      <trkpt lat="48.41231" lon="-3.7023">
        <ele>216</ele>
        <time>2021-07-08T11:09:48Z</time>
      </trkpt>
      <trkpt lat="48.4123" lon="-3.70228">
        <ele>216</ele>
        <time>2021-07-08T11:09:49Z</time>
      </trkpt>
      <trkpt lat="48.41228" lon="-3.70225">
        <ele>216</ele>
        <time>2021-07-08T11:09:53Z</time>
      </trkpt>
      <trkpt lat="48.41229" lon="-3.70223">
        <ele>217</ele>
        <time>2021-07-08T11:10:01Z</time>
      </trkpt>
      <trkpt lat="48.41228" lon="-3.70224">
        <ele>216</ele>
        <time>2021-07-08T11:10:13Z</time>
      </trkpt>
      <trkpt lat="48.41231" lon="-3.70227">
        <ele>215</ele>
        <time>2021-07-08T11:10:14Z</time>
      </trkpt>
      <trkpt lat="48.41227" lon="-3.70224">
        <ele>216</ele>
        <time>2021-07-08T11:10:16Z</time>
      </trkpt>
      <trkpt lat="48.41227" lon="-3.70223">
        <ele>216</ele>
        <time>2021-07-08T11:10:19Z</time>
      </trkpt>
      <trkpt lat="48.41232" lon="-3.70226">
        <ele>217</ele>
        <time>2021-07-08T11:10:23Z</time>
      </trkpt>
      <trkpt lat="48.41233" lon="-3.70226">
        <ele>217</ele>
        <time>2021-07-08T11:10:24Z</time>
      </trkpt>
      <trkpt lat="48.41235" lon="-3.70226">
        <ele>217</ele>
        <time>2021-07-08T11:10:27Z</time>
      </trkpt>
      <trkpt lat="48.41236" lon="-3.70225">
        <ele>216</ele>
        <time>2021-07-08T11:10:34Z</time>
      </trkpt>
      <trkpt lat="48.41231" lon="-3.70227">
        <ele>215</ele>
        <time>2021-07-08T11:11:24Z</time>
      </trkpt>
      <trkpt lat="48.41228" lon="-3.70214">
        <ele>217</ele>
        <time>2021-07-08T11:16:04Z</time>
      </trkpt>
      <trkpt lat="48.41227" lon="-3.70213">
        <ele>217</ele>
        <time>2021-07-08T11:16:04Z</time>
      </trkpt>
      <trkpt lat="48.41226" lon="-3.70211">
        <ele>217</ele>
        <time>2021-07-08T11:16:06Z</time>
      </trkpt>
      <trkpt lat="48.41224" lon="-3.70207">
        <ele>216</ele>
        <time>2021-07-08T11:16:08Z</time>
      </trkpt>
      <trkpt lat="48.41222" lon="-3.70203">
        <ele>216</ele>
        <time>2021-07-08T11:16:10Z</time>
      </trkpt>
      <trkpt lat="48.4122" lon="-3.70198">
        <ele>217</ele>
        <time>2021-07-08T11:16:12Z</time>
      </trkpt>
      <trkpt lat="48.4122" lon="-3.70196">
        <ele>217</ele>
        <time>2021-07-08T11:16:13Z</time>
      </trkpt>
      <trkpt lat="48.41219" lon="-3.70193">
        <ele>217</ele>
        <time>2021-07-08T11:16:14Z</time>
      </trkpt>
      <trkpt lat="48.41218" lon="-3.70191">
        <ele>217</ele>
        <time>2021-07-08T11:16:15Z</time>
      </trkpt>
      <trkpt lat="48.41216" lon="-3.70187">
        <ele>217</ele>
        <time>2021-07-08T11:16:17Z</time>
      </trkpt>
      <trkpt lat="48.41214" lon="-3.70183">
        <ele>217</ele>
        <time>2021-07-08T11:16:19Z</time>
      </trkpt>
      <trkpt lat="48.41213" lon="-3.7018">
        <ele>217</ele>
        <time>2021-07-08T11:16:20Z</time>
      </trkpt>
      <trkpt lat="48.41211" lon="-3.70177">
        <ele>217</ele>
        <time>2021-07-08T11:16:21Z</time>
      </trkpt>
      <trkpt lat="48.4121" lon="-3.70174">
        <ele>217</ele>
        <time>2021-07-08T11:16:22Z</time>
      </trkpt>
      <trkpt lat="48.41209" lon="-3.70171">
        <ele>217</ele>
        <time>2021-07-08T11:16:23Z</time>
      </trkpt>
      <trkpt lat="48.41207" lon="-3.70167">
        <ele>217</ele>
        <time>2021-07-08T11:16:23Z</time>
      </trkpt>
      <trkpt lat="48.41206" lon="-3.70164">
        <ele>217</ele>
        <time>2021-07-08T11:16:25Z</time>
      </trkpt>
      <trkpt lat="48.41203" lon="-3.70156">
        <ele>217</ele>
        <time>2021-07-08T11:16:26Z</time>
      </trkpt>
      <trkpt lat="48.41201" lon="-3.70153">
        <ele>217</ele>
        <time>2021-07-08T11:16:28Z</time>
      </trkpt>
      <trkpt lat="48.412" lon="-3.70149">
        <ele>217</ele>
        <time>2021-07-08T11:16:29Z</time>
      </trkpt>
      <trkpt lat="48.41198" lon="-3.70145">
        <ele>217</ele>
        <time>2021-07-08T11:16:30Z</time>
      </trkpt>
      <trkpt lat="48.41197" lon="-3.70141">
        <ele>216</ele>
        <time>2021-07-08T11:16:31Z</time>
      </trkpt>
      <trkpt lat="48.41195" lon="-3.70138">
        <ele>216</ele>
        <time>2021-07-08T11:16:32Z</time>
      </trkpt>
      <trkpt lat="48.41193" lon="-3.70134">
        <ele>216</ele>
        <time>2021-07-08T11:16:32Z</time>
      </trkpt>
      <trkpt lat="48.41192" lon="-3.7013">
        <ele>216</ele>
        <time>2021-07-08T11:16:34Z</time>
      </trkpt>
      <trkpt lat="48.4119" lon="-3.70126">
        <ele>216</ele>
        <time>2021-07-08T11:16:35Z</time>
      </trkpt>
      <trkpt lat="48.41189" lon="-3.70122">
        <ele>216</ele>
        <time>2021-07-08T11:16:36Z</time>
      </trkpt>
      <trkpt lat="48.41188" lon="-3.70118">
        <ele>216</ele>
        <time>2021-07-08T11:16:37Z</time>
      </trkpt>
      <trkpt lat="48.41187" lon="-3.70114">
        <ele>216</ele>
        <time>2021-07-08T11:16:38Z</time>
      </trkpt>
      <trkpt lat="48.41186" lon="-3.7011">
        <ele>216</ele>
        <time>2021-07-08T11:16:38Z</time>
      </trkpt>
      <trkpt lat="48.41186" lon="-3.70106">
        <ele>216</ele>
        <time>2021-07-08T11:16:40Z</time>
      </trkpt>
      <trkpt lat="48.41186" lon="-3.70101">
        <ele>216</ele>
        <time>2021-07-08T11:16:41Z</time>
      </trkpt>
      <trkpt lat="48.41185" lon="-3.70097">
        <ele>216</ele>
        <time>2021-07-08T11:16:42Z</time>
      </trkpt>
      <trkpt lat="48.41184" lon="-3.70093">
        <ele>217</ele>
        <time>2021-07-08T11:16:42Z</time>
      </trkpt>
      <trkpt lat="48.41183" lon="-3.7009">
        <ele>217</ele>
        <time>2021-07-08T11:16:44Z</time>
      </trkpt>
      <trkpt lat="48.41182" lon="-3.70087">
        <ele>217</ele>
        <time>2021-07-08T11:16:45Z</time>
      </trkpt>
      <trkpt lat="48.4118" lon="-3.70083">
        <ele>217</ele>
        <time>2021-07-08T11:16:46Z</time>
      </trkpt>
      <trkpt lat="48.41179" lon="-3.7008">
        <ele>216</ele>
        <time>2021-07-08T11:16:47Z</time>
      </trkpt>
      <trkpt lat="48.41177" lon="-3.70077">
        <ele>216</ele>
        <time>2021-07-08T11:16:48Z</time>
      </trkpt>
      <trkpt lat="48.41176" lon="-3.70073">
        <ele>216</ele>
        <time>2021-07-08T11:16:49Z</time>
      </trkpt>
      <trkpt lat="48.41174" lon="-3.70069">
        <ele>216</ele>
        <time>2021-07-08T11:16:50Z</time>
      </trkpt>
      <trkpt lat="48.41173" lon="-3.70064">
        <ele>216</ele>
        <time>2021-07-08T11:16:51Z</time>
      </trkpt>
      <trkpt lat="48.41172" lon="-3.7006">
        <ele>216</ele>
        <time>2021-07-08T11:16:52Z</time>
      </trkpt>
      <trkpt lat="48.4117" lon="-3.70054">
        <ele>216</ele>
        <time>2021-07-08T11:16:53Z</time>
      </trkpt>
      <trkpt lat="48.41168" lon="-3.70049">
        <ele>216</ele>
        <time>2021-07-08T11:16:54Z</time>
      </trkpt>
      <trkpt lat="48.41166" lon="-3.70044">
        <ele>216</ele>
        <time>2021-07-08T11:16:55Z</time>
      </trkpt>
      <trkpt lat="48.41164" lon="-3.70039">
        <ele>216</ele>
        <time>2021-07-08T11:16:56Z</time>
      </trkpt>
      <trkpt lat="48.41162" lon="-3.70034">
        <ele>216</ele>
        <time>2021-07-08T11:16:57Z</time>
      </trkpt>
      <trkpt lat="48.4116" lon="-3.7003">
        <ele>216</ele>
        <time>2021-07-08T11:16:58Z</time>
      </trkpt>
      <trkpt lat="48.41158" lon="-3.70025">
        <ele>216</ele>
        <time>2021-07-08T11:16:59Z</time>
      </trkpt>
      <trkpt lat="48.41157" lon="-3.70021">
        <ele>216</ele>
        <time>2021-07-08T11:17:00Z</time>
      </trkpt>
      <trkpt lat="48.41155" lon="-3.70017">
        <ele>215</ele>
        <time>2021-07-08T11:17:01Z</time>
      </trkpt>
      <trkpt lat="48.41154" lon="-3.70012">
        <ele>215</ele>
        <time>2021-07-08T11:17:02Z</time>
      </trkpt>
      <trkpt lat="48.41152" lon="-3.70007">
        <ele>215</ele>
        <time>2021-07-08T11:17:03Z</time>
      </trkpt>
      <trkpt lat="48.41151" lon="-3.70002">
        <ele>215</ele>
        <time>2021-07-08T11:17:04Z</time>
      </trkpt>
      <trkpt lat="48.4115" lon="-3.69996">
        <ele>215</ele>
        <time>2021-07-08T11:17:05Z</time>
      </trkpt>
      <trkpt lat="48.41148" lon="-3.69991">
        <ele>216</ele>
        <time>2021-07-08T11:17:06Z</time>
      </trkpt>
      <trkpt lat="48.41145" lon="-3.69982">
        <ele>216</ele>
        <time>2021-07-08T11:17:07Z</time>
      </trkpt>
      <trkpt lat="48.41144" lon="-3.69978">
        <ele>216</ele>
        <time>2021-07-08T11:17:09Z</time>
      </trkpt>
      <trkpt lat="48.41144" lon="-3.69973">
        <ele>215</ele>
        <time>2021-07-08T11:17:10Z</time>
      </trkpt>
      <trkpt lat="48.41143" lon="-3.69967">
        <ele>215</ele>
        <time>2021-07-08T11:17:11Z</time>
      </trkpt>
      <trkpt lat="48.41141" lon="-3.69963">
        <ele>215</ele>
        <time>2021-07-08T11:17:12Z</time>
      </trkpt>
      <trkpt lat="48.4114" lon="-3.69958">
        <ele>215</ele>
        <time>2021-07-08T11:17:13Z</time>
      </trkpt>
      <trkpt lat="48.41139" lon="-3.69954">
        <ele>215</ele>
        <time>2021-07-08T11:17:14Z</time>
      </trkpt>
      <trkpt lat="48.41137" lon="-3.69949">
        <ele>215</ele>
        <time>2021-07-08T11:17:15Z</time>
      </trkpt>
      <trkpt lat="48.41136" lon="-3.69945">
        <ele>215</ele>
        <time>2021-07-08T11:17:16Z</time>
      </trkpt>
      <trkpt lat="48.41134" lon="-3.69941">
        <ele>215</ele>
        <time>2021-07-08T11:17:17Z</time>
      </trkpt>
      <trkpt lat="48.41133" lon="-3.69935">
        <ele>215</ele>
        <time>2021-07-08T11:17:18Z</time>
      </trkpt>
      <trkpt lat="48.41131" lon="-3.6993">
        <ele>215</ele>
        <time>2021-07-08T11:17:19Z</time>
      </trkpt>
      <trkpt lat="48.41131" lon="-3.69925">
        <ele>215</ele>
        <time>2021-07-08T11:17:19Z</time>
      </trkpt>
      <trkpt lat="48.4113" lon="-3.6992">
        <ele>215</ele>
        <time>2021-07-08T11:17:21Z</time>
      </trkpt>
      <trkpt lat="48.41129" lon="-3.69915">
        <ele>215</ele>
        <time>2021-07-08T11:17:22Z</time>
      </trkpt>
      <trkpt lat="48.41128" lon="-3.6991">
        <ele>215</ele>
        <time>2021-07-08T11:17:23Z</time>
      </trkpt>
      <trkpt lat="48.41126" lon="-3.69905">
        <ele>216</ele>
        <time>2021-07-08T11:17:24Z</time>
      </trkpt>
      <trkpt lat="48.41124" lon="-3.699">
        <ele>216</ele>
        <time>2021-07-08T11:17:24Z</time>
      </trkpt>
      <trkpt lat="48.41123" lon="-3.69895">
        <ele>216</ele>
        <time>2021-07-08T11:17:26Z</time>
      </trkpt>
      <trkpt lat="48.41121" lon="-3.69889">
        <ele>216</ele>
        <time>2021-07-08T11:17:27Z</time>
      </trkpt>
      <trkpt lat="48.4112" lon="-3.69884">
        <ele>216</ele>
        <time>2021-07-08T11:17:28Z</time>
      </trkpt>
      <trkpt lat="48.41118" lon="-3.69879">
        <ele>215</ele>
        <time>2021-07-08T11:17:29Z</time>
      </trkpt>
      <trkpt lat="48.41117" lon="-3.69874">
        <ele>215</ele>
        <time>2021-07-08T11:17:30Z</time>
      </trkpt>
      <trkpt lat="48.41115" lon="-3.69869">
        <ele>216</ele>
        <time>2021-07-08T11:17:31Z</time>
      </trkpt>
      <trkpt lat="48.41113" lon="-3.69865">
        <ele>216</ele>
        <time>2021-07-08T11:17:32Z</time>
      </trkpt>
      <trkpt lat="48.41112" lon="-3.6986">
        <ele>216</ele>
        <time>2021-07-08T11:17:33Z</time>
      </trkpt>
      <trkpt lat="48.4111" lon="-3.69855">
        <ele>216</ele>
        <time>2021-07-08T11:17:34Z</time>
      </trkpt>
      <trkpt lat="48.41108" lon="-3.69851">
        <ele>215</ele>
        <time>2021-07-08T11:17:35Z</time>
      </trkpt>
      <trkpt lat="48.41107" lon="-3.69846">
        <ele>215</ele>
        <time>2021-07-08T11:17:36Z</time>
      </trkpt>
      <trkpt lat="48.41104" lon="-3.6984">
        <ele>215</ele>
        <time>2021-07-08T11:17:37Z</time>
      </trkpt>
      <trkpt lat="48.41102" lon="-3.69834">
        <ele>215</ele>
        <time>2021-07-08T11:17:38Z</time>
      </trkpt>
      <trkpt lat="48.411" lon="-3.69828">
        <ele>215</ele>
        <time>2021-07-08T11:17:39Z</time>
      </trkpt>
      <trkpt lat="48.41099" lon="-3.69823">
        <ele>215</ele>
        <time>2021-07-08T11:17:40Z</time>
      </trkpt>
      <trkpt lat="48.41097" lon="-3.69817">
        <ele>215</ele>
        <time>2021-07-08T11:17:41Z</time>
      </trkpt>
      <trkpt lat="48.41095" lon="-3.69811">
        <ele>215</ele>
        <time>2021-07-08T11:17:42Z</time>
      </trkpt>
      <trkpt lat="48.41092" lon="-3.69806">
        <ele>215</ele>
        <time>2021-07-08T11:17:43Z</time>
      </trkpt>
      <trkpt lat="48.4109" lon="-3.698">
        <ele>215</ele>
        <time>2021-07-08T11:17:44Z</time>
      </trkpt>
      <trkpt lat="48.41088" lon="-3.69795">
        <ele>216</ele>
        <time>2021-07-08T11:17:45Z</time>
      </trkpt>
      <trkpt lat="48.41086" lon="-3.69789">
        <ele>216</ele>
        <time>2021-07-08T11:17:46Z</time>
      </trkpt>
      <trkpt lat="48.41085" lon="-3.69783">
        <ele>216</ele>
        <time>2021-07-08T11:17:47Z</time>
      </trkpt>
      <trkpt lat="48.41083" lon="-3.69777">
        <ele>216</ele>
        <time>2021-07-08T11:17:48Z</time>
      </trkpt>
      <trkpt lat="48.41081" lon="-3.69771">
        <ele>216</ele>
        <time>2021-07-08T11:17:49Z</time>
      </trkpt>
      <trkpt lat="48.41079" lon="-3.69765">
        <ele>216</ele>
        <time>2021-07-08T11:17:50Z</time>
      </trkpt>
      <trkpt lat="48.41077" lon="-3.69759">
        <ele>216</ele>
        <time>2021-07-08T11:17:51Z</time>
      </trkpt>
      <trkpt lat="48.41071" lon="-3.69741">
        <ele>215</ele>
        <time>2021-07-08T11:17:54Z</time>
      </trkpt>
      <trkpt lat="48.41065" lon="-3.69724">
        <ele>215</ele>
        <time>2021-07-08T11:17:56Z</time>
      </trkpt>
      <trkpt lat="48.41057" lon="-3.69708">
        <ele>215</ele>
        <time>2021-07-08T11:18:00Z</time>
      </trkpt>
      <trkpt lat="48.41052" lon="-3.69696">
        <ele>215</ele>
        <time>2021-07-08T11:18:02Z</time>
      </trkpt>
      <trkpt lat="48.41045" lon="-3.69684">
        <ele>215</ele>
        <time>2021-07-08T11:18:04Z</time>
      </trkpt>
      <trkpt lat="48.41041" lon="-3.69671">
        <ele>215</ele>
        <time>2021-07-08T11:18:06Z</time>
      </trkpt>
      <trkpt lat="48.41036" lon="-3.69659">
        <ele>215</ele>
        <time>2021-07-08T11:18:08Z</time>
      </trkpt>
      <trkpt lat="48.41033" lon="-3.69654">
        <ele>215</ele>
        <time>2021-07-08T11:18:09Z</time>
      </trkpt>
      <trkpt lat="48.41031" lon="-3.69648">
        <ele>215</ele>
        <time>2021-07-08T11:18:10Z</time>
      </trkpt>
      <trkpt lat="48.41024" lon="-3.69634">
        <ele>215</ele>
        <time>2021-07-08T11:18:13Z</time>
      </trkpt>
      <trkpt lat="48.41015" lon="-3.6962">
        <ele>215</ele>
        <time>2021-07-08T11:18:16Z</time>
      </trkpt>
      <trkpt lat="48.41007" lon="-3.69604">
        <ele>215</ele>
        <time>2021-07-08T11:18:19Z</time>
      </trkpt>
      <trkpt lat="48.40998" lon="-3.69594">
        <ele>215</ele>
        <time>2021-07-08T11:18:21Z</time>
      </trkpt>
      <trkpt lat="48.40991" lon="-3.69584">
        <ele>215</ele>
        <time>2021-07-08T11:18:22Z</time>
      </trkpt>
      <trkpt lat="48.40983" lon="-3.69575">
        <ele>214</ele>
        <time>2021-07-08T11:18:25Z</time>
      </trkpt>
      <trkpt lat="48.40976" lon="-3.69567">
        <ele>214</ele>
        <time>2021-07-08T11:18:27Z</time>
      </trkpt>
      <trkpt lat="48.40972" lon="-3.69564">
        <ele>214</ele>
        <time>2021-07-08T11:18:28Z</time>
      </trkpt>
      <trkpt lat="48.40968" lon="-3.69561">
        <ele>214</ele>
        <time>2021-07-08T11:18:29Z</time>
      </trkpt>
      <trkpt lat="48.40964" lon="-3.69557">
        <ele>214</ele>
        <time>2021-07-08T11:18:30Z</time>
      </trkpt>
      <trkpt lat="48.4096" lon="-3.69554">
        <ele>214</ele>
        <time>2021-07-08T11:18:31Z</time>
      </trkpt>
      <trkpt lat="48.40956" lon="-3.69551">
        <ele>214</ele>
        <time>2021-07-08T11:18:32Z</time>
      </trkpt>
      <trkpt lat="48.40952" lon="-3.69547">
        <ele>214</ele>
        <time>2021-07-08T11:18:33Z</time>
      </trkpt>
      <trkpt lat="48.40944" lon="-3.6954">
        <ele>214</ele>
        <time>2021-07-08T11:18:35Z</time>
      </trkpt>
      <trkpt lat="48.4094" lon="-3.69536">
        <ele>214</ele>
        <time>2021-07-08T11:18:36Z</time>
      </trkpt>
      <trkpt lat="48.40936" lon="-3.69532">
        <ele>214</ele>
        <time>2021-07-08T11:18:37Z</time>
      </trkpt>
      <trkpt lat="48.40932" lon="-3.69528">
        <ele>214</ele>
        <time>2021-07-08T11:18:38Z</time>
      </trkpt>
      <trkpt lat="48.40927" lon="-3.69525">
        <ele>214</ele>
        <time>2021-07-08T11:18:39Z</time>
      </trkpt>
      <trkpt lat="48.40923" lon="-3.69523">
        <ele>213</ele>
        <time>2021-07-08T11:18:40Z</time>
      </trkpt>
      <trkpt lat="48.40918" lon="-3.69521">
        <ele>213</ele>
        <time>2021-07-08T11:18:41Z</time>
      </trkpt>
      <trkpt lat="48.40914" lon="-3.69518">
        <ele>214</ele>
        <time>2021-07-08T11:18:42Z</time>
      </trkpt>
      <trkpt lat="48.4091" lon="-3.69514">
        <ele>214</ele>
        <time>2021-07-08T11:18:43Z</time>
      </trkpt>
      <trkpt lat="48.40905" lon="-3.69511">
        <ele>214</ele>
        <time>2021-07-08T11:18:44Z</time>
      </trkpt>
      <trkpt lat="48.409" lon="-3.69508">
        <ele>214</ele>
        <time>2021-07-08T11:18:45Z</time>
      </trkpt>
      <trkpt lat="48.40896" lon="-3.69505">
        <ele>213</ele>
        <time>2021-07-08T11:18:46Z</time>
      </trkpt>
      <trkpt lat="48.40892" lon="-3.69502">
        <ele>213</ele>
        <time>2021-07-08T11:18:47Z</time>
      </trkpt>
      <trkpt lat="48.40887" lon="-3.69498">
        <ele>213</ele>
        <time>2021-07-08T11:18:48Z</time>
      </trkpt>
      <trkpt lat="48.40883" lon="-3.69494">
        <ele>213</ele>
        <time>2021-07-08T11:18:49Z</time>
      </trkpt>
      <trkpt lat="48.40874" lon="-3.69488">
        <ele>213</ele>
        <time>2021-07-08T11:18:51Z</time>
      </trkpt>
      <trkpt lat="48.4087" lon="-3.69485">
        <ele>213</ele>
        <time>2021-07-08T11:18:52Z</time>
      </trkpt>
      <trkpt lat="48.40861" lon="-3.6948">
        <ele>213</ele>
        <time>2021-07-08T11:18:53Z</time>
      </trkpt>
      <trkpt lat="48.40852" lon="-3.69474">
        <ele>213</ele>
        <time>2021-07-08T11:18:56Z</time>
      </trkpt>
      <trkpt lat="48.4084" lon="-3.69466">
        <ele>213</ele>
        <time>2021-07-08T11:18:59Z</time>
      </trkpt>
      <trkpt lat="48.40829" lon="-3.69457">
        <ele>213</ele>
        <time>2021-07-08T11:19:02Z</time>
      </trkpt>
      <trkpt lat="48.40816" lon="-3.69448">
        <ele>212</ele>
        <time>2021-07-08T11:19:05Z</time>
      </trkpt>
      <trkpt lat="48.40807" lon="-3.69441">
        <ele>213</ele>
        <time>2021-07-08T11:19:07Z</time>
      </trkpt>
      <trkpt lat="48.40798" lon="-3.69433">
        <ele>213</ele>
        <time>2021-07-08T11:19:09Z</time>
      </trkpt>
      <trkpt lat="48.40794" lon="-3.69427">
        <ele>213</ele>
        <time>2021-07-08T11:19:10Z</time>
      </trkpt>
      <trkpt lat="48.40789" lon="-3.69422">
        <ele>212</ele>
        <time>2021-07-08T11:19:11Z</time>
      </trkpt>
      <trkpt lat="48.40782" lon="-3.69412">
        <ele>212</ele>
        <time>2021-07-08T11:19:12Z</time>
      </trkpt>
      <trkpt lat="48.40779" lon="-3.69407">
        <ele>212</ele>
        <time>2021-07-08T11:19:14Z</time>
      </trkpt>
      <trkpt lat="48.40775" lon="-3.69402">
        <ele>212</ele>
        <time>2021-07-08T11:19:15Z</time>
      </trkpt>
      <trkpt lat="48.40772" lon="-3.69398">
        <ele>212</ele>
        <time>2021-07-08T11:19:15Z</time>
      </trkpt>
      <trkpt lat="48.40769" lon="-3.69393">
        <ele>212</ele>
        <time>2021-07-08T11:19:17Z</time>
      </trkpt>
      <trkpt lat="48.40766" lon="-3.69388">
        <ele>212</ele>
        <time>2021-07-08T11:19:18Z</time>
      </trkpt>
      <trkpt lat="48.40763" lon="-3.69382">
        <ele>212</ele>
        <time>2021-07-08T11:19:18Z</time>
      </trkpt>
      <trkpt lat="48.4076" lon="-3.69377">
        <ele>212</ele>
        <time>2021-07-08T11:19:20Z</time>
      </trkpt>
      <trkpt lat="48.40754" lon="-3.69365">
        <ele>212</ele>
        <time>2021-07-08T11:19:22Z</time>
      </trkpt>
      <trkpt lat="48.40748" lon="-3.69353">
        <ele>212</ele>
        <time>2021-07-08T11:19:24Z</time>
      </trkpt>
      <trkpt lat="48.40743" lon="-3.69342">
        <ele>212</ele>
        <time>2021-07-08T11:19:25Z</time>
      </trkpt>
      <trkpt lat="48.40736" lon="-3.69326">
        <ele>212</ele>
        <time>2021-07-08T11:19:29Z</time>
      </trkpt>
      <trkpt lat="48.40731" lon="-3.69306">
        <ele>211</ele>
        <time>2021-07-08T11:19:31Z</time>
      </trkpt>
      <trkpt lat="48.40728" lon="-3.69291">
        <ele>211</ele>
        <time>2021-07-08T11:19:34Z</time>
      </trkpt>
      <trkpt lat="48.40726" lon="-3.69276">
        <ele>211</ele>
        <time>2021-07-08T11:19:36Z</time>
      </trkpt>
      <trkpt lat="48.40725" lon="-3.6926">
        <ele>211</ele>
        <time>2021-07-08T11:19:38Z</time>
      </trkpt>
      <trkpt lat="48.40722" lon="-3.69245">
        <ele>211</ele>
        <time>2021-07-08T11:19:39Z</time>
      </trkpt>
      <trkpt lat="48.40719" lon="-3.69228">
        <ele>211</ele>
        <time>2021-07-08T11:19:42Z</time>
      </trkpt>
      <trkpt lat="48.40717" lon="-3.69211">
        <ele>211</ele>
        <time>2021-07-08T11:19:44Z</time>
      </trkpt>
      <trkpt lat="48.40715" lon="-3.69203">
        <ele>211</ele>
        <time>2021-07-08T11:19:45Z</time>
      </trkpt>
      <trkpt lat="48.40714" lon="-3.69194">
        <ele>211</ele>
        <time>2021-07-08T11:19:46Z</time>
      </trkpt>
      <trkpt lat="48.40713" lon="-3.69186">
        <ele>211</ele>
        <time>2021-07-08T11:19:47Z</time>
      </trkpt>
      <trkpt lat="48.40712" lon="-3.69178">
        <ele>211</ele>
        <time>2021-07-08T11:19:48Z</time>
      </trkpt>
      <trkpt lat="48.40711" lon="-3.6917">
        <ele>211</ele>
        <time>2021-07-08T11:19:49Z</time>
      </trkpt>
      <trkpt lat="48.4071" lon="-3.69163">
        <ele>211</ele>
        <time>2021-07-08T11:19:50Z</time>
      </trkpt>
      <trkpt lat="48.40708" lon="-3.69155">
        <ele>211</ele>
        <time>2021-07-08T11:19:51Z</time>
      </trkpt>
      <trkpt lat="48.40707" lon="-3.69148">
        <ele>211</ele>
        <time>2021-07-08T11:19:52Z</time>
      </trkpt>
      <trkpt lat="48.40704" lon="-3.69133">
        <ele>211</ele>
        <time>2021-07-08T11:19:53Z</time>
      </trkpt>
      <trkpt lat="48.40703" lon="-3.69126">
        <ele>211</ele>
        <time>2021-07-08T11:19:55Z</time>
      </trkpt>
      <trkpt lat="48.40701" lon="-3.69119">
        <ele>211</ele>
        <time>2021-07-08T11:19:56Z</time>
      </trkpt>
      <trkpt lat="48.407" lon="-3.69112">
        <ele>211</ele>
        <time>2021-07-08T11:19:57Z</time>
      </trkpt>
      <trkpt lat="48.40698" lon="-3.69106">
        <ele>211</ele>
        <time>2021-07-08T11:19:58Z</time>
      </trkpt>
      <trkpt lat="48.40697" lon="-3.69099">
        <ele>211</ele>
        <time>2021-07-08T11:19:59Z</time>
      </trkpt>
      <trkpt lat="48.40696" lon="-3.69092">
        <ele>210</ele>
        <time>2021-07-08T11:20:00Z</time>
      </trkpt>
      <trkpt lat="48.40695" lon="-3.69085">
        <ele>210</ele>
        <time>2021-07-08T11:20:01Z</time>
      </trkpt>
      <trkpt lat="48.40694" lon="-3.69078">
        <ele>210</ele>
        <time>2021-07-08T11:20:02Z</time>
      </trkpt>
      <trkpt lat="48.40692" lon="-3.69071">
        <ele>210</ele>
        <time>2021-07-08T11:20:03Z</time>
      </trkpt>
      <trkpt lat="48.40691" lon="-3.69064">
        <ele>210</ele>
        <time>2021-07-08T11:20:04Z</time>
      </trkpt>
      <trkpt lat="48.40689" lon="-3.69057">
        <ele>210</ele>
        <time>2021-07-08T11:20:05Z</time>
      </trkpt>
      <trkpt lat="48.40687" lon="-3.6905">
        <ele>210</ele>
        <time>2021-07-08T11:20:06Z</time>
      </trkpt>
      <trkpt lat="48.40684" lon="-3.69044">
        <ele>211</ele>
        <time>2021-07-08T11:20:07Z</time>
      </trkpt>
      <trkpt lat="48.40681" lon="-3.69038">
        <ele>211</ele>
        <time>2021-07-08T11:20:08Z</time>
      </trkpt>
      <trkpt lat="48.40674" lon="-3.6902">
        <ele>211</ele>
        <time>2021-07-08T11:20:11Z</time>
      </trkpt>
      <trkpt lat="48.40669" lon="-3.69008">
        <ele>211</ele>
        <time>2021-07-08T11:20:13Z</time>
      </trkpt>
      <trkpt lat="48.40662" lon="-3.68992">
        <ele>210</ele>
        <time>2021-07-08T11:20:16Z</time>
      </trkpt>
      <trkpt lat="48.40655" lon="-3.68983">
        <ele>210</ele>
        <time>2021-07-08T11:20:17Z</time>
      </trkpt>
      <trkpt lat="48.40649" lon="-3.68971">
        <ele>209</ele>
        <time>2021-07-08T11:20:20Z</time>
      </trkpt>
      <trkpt lat="48.40642" lon="-3.68962">
        <ele>209</ele>
        <time>2021-07-08T11:20:22Z</time>
      </trkpt>
      <trkpt lat="48.40637" lon="-3.68957">
        <ele>209</ele>
        <time>2021-07-08T11:20:23Z</time>
      </trkpt>
      <trkpt lat="48.40633" lon="-3.68952">
        <ele>209</ele>
        <time>2021-07-08T11:20:24Z</time>
      </trkpt>
      <trkpt lat="48.40629" lon="-3.68948">
        <ele>209</ele>
        <time>2021-07-08T11:20:25Z</time>
      </trkpt>
      <trkpt lat="48.40625" lon="-3.68944">
        <ele>209</ele>
        <time>2021-07-08T11:20:26Z</time>
      </trkpt>
      <trkpt lat="48.4062" lon="-3.6894">
        <ele>209</ele>
        <time>2021-07-08T11:20:27Z</time>
      </trkpt>
      <trkpt lat="48.40616" lon="-3.68936">
        <ele>209</ele>
        <time>2021-07-08T11:20:28Z</time>
      </trkpt>
      <trkpt lat="48.40611" lon="-3.68932">
        <ele>209</ele>
        <time>2021-07-08T11:20:29Z</time>
      </trkpt>
      <trkpt lat="48.40607" lon="-3.68928">
        <ele>209</ele>
        <time>2021-07-08T11:20:30Z</time>
      </trkpt>
      <trkpt lat="48.40602" lon="-3.68924">
        <ele>209</ele>
        <time>2021-07-08T11:20:31Z</time>
      </trkpt>
      <trkpt lat="48.40598" lon="-3.68921">
        <ele>209</ele>
        <time>2021-07-08T11:20:31Z</time>
      </trkpt>
      <trkpt lat="48.40594" lon="-3.68918">
        <ele>209</ele>
        <time>2021-07-08T11:20:33Z</time>
      </trkpt>
      <trkpt lat="48.4059" lon="-3.68915">
        <ele>208</ele>
        <time>2021-07-08T11:20:34Z</time>
      </trkpt>
      <trkpt lat="48.40586" lon="-3.68914">
        <ele>208</ele>
        <time>2021-07-08T11:20:35Z</time>
      </trkpt>
      <trkpt lat="48.40583" lon="-3.68912">
        <ele>209</ele>
        <time>2021-07-08T11:20:36Z</time>
      </trkpt>
      <trkpt lat="48.40581" lon="-3.68911">
        <ele>209</ele>
        <time>2021-07-08T11:20:37Z</time>
      </trkpt>
      <trkpt lat="48.40579" lon="-3.6891">
        <ele>209</ele>
        <time>2021-07-08T11:20:39Z</time>
      </trkpt>
      <trkpt lat="48.40579" lon="-3.6891">
        <ele>208</ele>
        <time>2021-07-08T11:20:46Z</time>
      </trkpt>
      <trkpt lat="48.40575" lon="-3.68907">
        <ele>209</ele>
        <time>2021-07-08T11:21:14Z</time>
      </trkpt>
      <trkpt lat="48.40573" lon="-3.68906">
        <ele>209</ele>
        <time>2021-07-08T11:21:16Z</time>
      </trkpt>
      <trkpt lat="48.4057" lon="-3.68904">
        <ele>209</ele>
        <time>2021-07-08T11:21:18Z</time>
      </trkpt>
      <trkpt lat="48.40567" lon="-3.68903">
        <ele>209</ele>
        <time>2021-07-08T11:21:20Z</time>
      </trkpt>
      <trkpt lat="48.40563" lon="-3.68902">
        <ele>209</ele>
        <time>2021-07-08T11:21:22Z</time>
      </trkpt>
      <trkpt lat="48.4056" lon="-3.68901">
        <ele>208</ele>
        <time>2021-07-08T11:21:23Z</time>
      </trkpt>
      <trkpt lat="48.40558" lon="-3.68901">
        <ele>208</ele>
        <time>2021-07-08T11:21:26Z</time>
      </trkpt>
      <trkpt lat="48.40555" lon="-3.689">
        <ele>208</ele>
        <time>2021-07-08T11:21:28Z</time>
      </trkpt>
      <trkpt lat="48.40553" lon="-3.689">
        <ele>209</ele>
        <time>2021-07-08T11:21:29Z</time>
      </trkpt>
      <trkpt lat="48.40551" lon="-3.68903">
        <ele>209</ele>
        <time>2021-07-08T11:21:32Z</time>
      </trkpt>
      <trkpt lat="48.4055" lon="-3.68906">
        <ele>209</ele>
        <time>2021-07-08T11:21:34Z</time>
      </trkpt>
      <trkpt lat="48.4055" lon="-3.6891">
        <ele>209</ele>
        <time>2021-07-08T11:21:36Z</time>
      </trkpt>
      <trkpt lat="48.4055" lon="-3.68913">
        <ele>208</ele>
        <time>2021-07-08T11:21:38Z</time>
      </trkpt>
      <trkpt lat="48.4055" lon="-3.68917">
        <ele>209</ele>
        <time>2021-07-08T11:21:41Z</time>
      </trkpt>
      <trkpt lat="48.4055" lon="-3.6892">
        <ele>209</ele>
        <time>2021-07-08T11:21:45Z</time>
      </trkpt>
      <trkpt lat="48.40551" lon="-3.68923">
        <ele>210</ele>
        <time>2021-07-08T11:21:52Z</time>
      </trkpt>
      <trkpt lat="48.40551" lon="-3.68923">
        <ele>210</ele>
        <time>2021-07-08T11:21:54Z</time>
      </trkpt>
      <trkpt lat="48.40551" lon="-3.68914">
        <ele>209</ele>
        <time>2021-07-08T11:24:39Z</time>
      </trkpt>
      <trkpt lat="48.4055" lon="-3.6891">
        <ele>209</ele>
        <time>2021-07-08T11:24:40Z</time>
      </trkpt>
      <trkpt lat="48.4055" lon="-3.68906">
        <ele>209</ele>
        <time>2021-07-08T11:24:41Z</time>
      </trkpt>
      <trkpt lat="48.40549" lon="-3.68902">
        <ele>209</ele>
        <time>2021-07-08T11:24:42Z</time>
      </trkpt>
      <trkpt lat="48.40546" lon="-3.68899">
        <ele>209</ele>
        <time>2021-07-08T11:24:43Z</time>
      </trkpt>
      <trkpt lat="48.40544" lon="-3.68897">
        <ele>209</ele>
        <time>2021-07-08T11:24:44Z</time>
      </trkpt>
      <trkpt lat="48.40541" lon="-3.68896">
        <ele>209</ele>
        <time>2021-07-08T11:24:45Z</time>
      </trkpt>
      <trkpt lat="48.40537" lon="-3.68896">
        <ele>209</ele>
        <time>2021-07-08T11:24:46Z</time>
      </trkpt>
      <trkpt lat="48.40534" lon="-3.68895">
        <ele>209</ele>
        <time>2021-07-08T11:24:47Z</time>
      </trkpt>
      <trkpt lat="48.40531" lon="-3.68894">
        <ele>209</ele>
        <time>2021-07-08T11:24:47Z</time>
      </trkpt>
      <trkpt lat="48.40528" lon="-3.68893">
        <ele>209</ele>
        <time>2021-07-08T11:24:49Z</time>
      </trkpt>
      <trkpt lat="48.40526" lon="-3.68893">
        <ele>209</ele>
        <time>2021-07-08T11:24:50Z</time>
      </trkpt>
      <trkpt lat="48.40523" lon="-3.68893">
        <ele>209</ele>
        <time>2021-07-08T11:24:51Z</time>
      </trkpt>
      <trkpt lat="48.4052" lon="-3.68893">
        <ele>209</ele>
        <time>2021-07-08T11:24:52Z</time>
      </trkpt>
      <trkpt lat="48.40518" lon="-3.68892">
        <ele>209</ele>
        <time>2021-07-08T11:24:53Z</time>
      </trkpt>
      <trkpt lat="48.40515" lon="-3.68892">
        <ele>209</ele>
        <time>2021-07-08T11:24:54Z</time>
      </trkpt>
      <trkpt lat="48.40512" lon="-3.68892">
        <ele>209</ele>
        <time>2021-07-08T11:24:55Z</time>
      </trkpt>
      <trkpt lat="48.40509" lon="-3.68892">
        <ele>209</ele>
        <time>2021-07-08T11:24:56Z</time>
      </trkpt>
      <trkpt lat="48.40507" lon="-3.68891">
        <ele>209</ele>
        <time>2021-07-08T11:24:57Z</time>
      </trkpt>
      <trkpt lat="48.40504" lon="-3.68891">
        <ele>209</ele>
        <time>2021-07-08T11:24:58Z</time>
      </trkpt>
      <trkpt lat="48.40501" lon="-3.6889">
        <ele>209</ele>
        <time>2021-07-08T11:24:59Z</time>
      </trkpt>
      <trkpt lat="48.40497" lon="-3.6889">
        <ele>209</ele>
        <time>2021-07-08T11:25:00Z</time>
      </trkpt>
      <trkpt lat="48.40494" lon="-3.68889">
        <ele>209</ele>
        <time>2021-07-08T11:25:01Z</time>
      </trkpt>
      <trkpt lat="48.40491" lon="-3.68888">
        <ele>209</ele>
        <time>2021-07-08T11:25:02Z</time>
      </trkpt>
      <trkpt lat="48.40488" lon="-3.68887">
        <ele>209</ele>
        <time>2021-07-08T11:25:03Z</time>
      </trkpt>
      <trkpt lat="48.40484" lon="-3.68887">
        <ele>209</ele>
        <time>2021-07-08T11:25:04Z</time>
      </trkpt>
      <trkpt lat="48.40481" lon="-3.68886">
        <ele>209</ele>
        <time>2021-07-08T11:25:05Z</time>
      </trkpt>
      <trkpt lat="48.40478" lon="-3.68886">
        <ele>209</ele>
        <time>2021-07-08T11:25:06Z</time>
      </trkpt>
      <trkpt lat="48.40474" lon="-3.68886">
        <ele>209</ele>
        <time>2021-07-08T11:25:07Z</time>
      </trkpt>
      <trkpt lat="48.40471" lon="-3.68886">
        <ele>209</ele>
        <time>2021-07-08T11:25:08Z</time>
      </trkpt>
      <trkpt lat="48.40468" lon="-3.68885">
        <ele>209</ele>
        <time>2021-07-08T11:25:09Z</time>
      </trkpt>
      <trkpt lat="48.40465" lon="-3.68885">
        <ele>209</ele>
        <time>2021-07-08T11:25:10Z</time>
      </trkpt>
      <trkpt lat="48.40462" lon="-3.68884">
        <ele>209</ele>
        <time>2021-07-08T11:25:11Z</time>
      </trkpt>
      <trkpt lat="48.40458" lon="-3.68884">
        <ele>209</ele>
        <time>2021-07-08T11:25:12Z</time>
      </trkpt>
      <trkpt lat="48.40454" lon="-3.68884">
        <ele>209</ele>
        <time>2021-07-08T11:25:13Z</time>
      </trkpt>
      <trkpt lat="48.40451" lon="-3.68883">
        <ele>209</ele>
        <time>2021-07-08T11:25:14Z</time>
      </trkpt>
      <trkpt lat="48.40448" lon="-3.68883">
        <ele>209</ele>
        <time>2021-07-08T11:25:15Z</time>
      </trkpt>
      <trkpt lat="48.40444" lon="-3.68882">
        <ele>209</ele>
        <time>2021-07-08T11:25:16Z</time>
      </trkpt>
      <trkpt lat="48.40441" lon="-3.68881">
        <ele>209</ele>
        <time>2021-07-08T11:25:17Z</time>
      </trkpt>
      <trkpt lat="48.40437" lon="-3.68881">
        <ele>209</ele>
        <time>2021-07-08T11:25:18Z</time>
      </trkpt>
      <trkpt lat="48.40434" lon="-3.6888">
        <ele>209</ele>
        <time>2021-07-08T11:25:20Z</time>
      </trkpt>
      <trkpt lat="48.4043" lon="-3.68878">
        <ele>209</ele>
        <time>2021-07-08T11:25:20Z</time>
      </trkpt>
      <trkpt lat="48.40427" lon="-3.68878">
        <ele>209</ele>
        <time>2021-07-08T11:25:21Z</time>
      </trkpt>
      <trkpt lat="48.40423" lon="-3.68876">
        <ele>209</ele>
        <time>2021-07-08T11:25:22Z</time>
      </trkpt>
      <trkpt lat="48.4042" lon="-3.68875">
        <ele>209</ele>
        <time>2021-07-08T11:25:23Z</time>
      </trkpt>
      <trkpt lat="48.40416" lon="-3.68874">
        <ele>209</ele>
        <time>2021-07-08T11:25:24Z</time>
      </trkpt>
      <trkpt lat="48.40412" lon="-3.68873">
        <ele>209</ele>
        <time>2021-07-08T11:25:25Z</time>
      </trkpt>
      <trkpt lat="48.40408" lon="-3.68873">
        <ele>209</ele>
        <time>2021-07-08T11:25:26Z</time>
      </trkpt>
      <trkpt lat="48.40404" lon="-3.68872">
        <ele>209</ele>
        <time>2021-07-08T11:25:27Z</time>
      </trkpt>
      <trkpt lat="48.404" lon="-3.68871">
        <ele>209</ele>
        <time>2021-07-08T11:25:28Z</time>
      </trkpt>
      <trkpt lat="48.40396" lon="-3.6887">
        <ele>209</ele>
        <time>2021-07-08T11:25:29Z</time>
      </trkpt>
      <trkpt lat="48.40392" lon="-3.68868">
        <ele>209</ele>
        <time>2021-07-08T11:25:30Z</time>
      </trkpt>
      <trkpt lat="48.40388" lon="-3.68867">
        <ele>209</ele>
        <time>2021-07-08T11:25:31Z</time>
      </trkpt>
      <trkpt lat="48.40385" lon="-3.68866">
        <ele>209</ele>
        <time>2021-07-08T11:25:32Z</time>
      </trkpt>
      <trkpt lat="48.40381" lon="-3.68864">
        <ele>209</ele>
        <time>2021-07-08T11:25:33Z</time>
      </trkpt>
      <trkpt lat="48.40377" lon="-3.68861">
        <ele>209</ele>
        <time>2021-07-08T11:25:34Z</time>
      </trkpt>
      <trkpt lat="48.40373" lon="-3.68859">
        <ele>209</ele>
        <time>2021-07-08T11:25:35Z</time>
      </trkpt>
      <trkpt lat="48.4037" lon="-3.68857">
        <ele>209</ele>
        <time>2021-07-08T11:25:36Z</time>
      </trkpt>
      <trkpt lat="48.40366" lon="-3.68855">
        <ele>209</ele>
        <time>2021-07-08T11:25:37Z</time>
      </trkpt>
      <trkpt lat="48.40362" lon="-3.68852">
        <ele>209</ele>
        <time>2021-07-08T11:25:37Z</time>
      </trkpt>
      <trkpt lat="48.40358" lon="-3.6885">
        <ele>209</ele>
        <time>2021-07-08T11:25:39Z</time>
      </trkpt>
      <trkpt lat="48.40355" lon="-3.68848">
        <ele>209</ele>
        <time>2021-07-08T11:25:40Z</time>
      </trkpt>
      <trkpt lat="48.40351" lon="-3.68846">
        <ele>209</ele>
        <time>2021-07-08T11:25:41Z</time>
      </trkpt>
      <trkpt lat="48.40347" lon="-3.68843">
        <ele>209</ele>
        <time>2021-07-08T11:25:42Z</time>
      </trkpt>
      <trkpt lat="48.40344" lon="-3.68841">
        <ele>209</ele>
        <time>2021-07-08T11:25:43Z</time>
      </trkpt>
      <trkpt lat="48.40341" lon="-3.68839">
        <ele>209</ele>
        <time>2021-07-08T11:25:44Z</time>
      </trkpt>
      <trkpt lat="48.40338" lon="-3.68836">
        <ele>209</ele>
        <time>2021-07-08T11:25:45Z</time>
      </trkpt>
      <trkpt lat="48.40335" lon="-3.68833">
        <ele>209</ele>
        <time>2021-07-08T11:25:46Z</time>
      </trkpt>
      <trkpt lat="48.40332" lon="-3.6883">
        <ele>209</ele>
        <time>2021-07-08T11:25:47Z</time>
      </trkpt>
      <trkpt lat="48.40329" lon="-3.68827">
        <ele>209</ele>
        <time>2021-07-08T11:25:48Z</time>
      </trkpt>
      <trkpt lat="48.40326" lon="-3.68824">
        <ele>209</ele>
        <time>2021-07-08T11:25:49Z</time>
      </trkpt>
      <trkpt lat="48.40324" lon="-3.68821">
        <ele>209</ele>
        <time>2021-07-08T11:25:50Z</time>
      </trkpt>
      <trkpt lat="48.40321" lon="-3.68819">
        <ele>209</ele>
        <time>2021-07-08T11:25:51Z</time>
      </trkpt>
      <trkpt lat="48.40318" lon="-3.68816">
        <ele>209</ele>
        <time>2021-07-08T11:25:52Z</time>
      </trkpt>
      <trkpt lat="48.40314" lon="-3.68814">
        <ele>209</ele>
        <time>2021-07-08T11:25:53Z</time>
      </trkpt>
      <trkpt lat="48.4031" lon="-3.68813">
        <ele>209</ele>
        <time>2021-07-08T11:25:54Z</time>
      </trkpt>
      <trkpt lat="48.40306" lon="-3.68811">
        <ele>209</ele>
        <time>2021-07-08T11:25:55Z</time>
      </trkpt>
      <trkpt lat="48.40303" lon="-3.68809">
        <ele>209</ele>
        <time>2021-07-08T11:25:56Z</time>
      </trkpt>
      <trkpt lat="48.403" lon="-3.68807">
        <ele>209</ele>
        <time>2021-07-08T11:25:57Z</time>
      </trkpt>
      <trkpt lat="48.40297" lon="-3.68805">
        <ele>209</ele>
        <time>2021-07-08T11:25:58Z</time>
      </trkpt>
      <trkpt lat="48.40293" lon="-3.68803">
        <ele>209</ele>
        <time>2021-07-08T11:25:59Z</time>
      </trkpt>
      <trkpt lat="48.40289" lon="-3.68801">
        <ele>209</ele>
        <time>2021-07-08T11:26:00Z</time>
      </trkpt>
      <trkpt lat="48.40286" lon="-3.68799">
        <ele>209</ele>
        <time>2021-07-08T11:26:01Z</time>
      </trkpt>
      <trkpt lat="48.40281" lon="-3.68796">
        <ele>209</ele>
        <time>2021-07-08T11:26:01Z</time>
      </trkpt>
      <trkpt lat="48.40277" lon="-3.68794">
        <ele>209</ele>
        <time>2021-07-08T11:26:03Z</time>
      </trkpt>
      <trkpt lat="48.40273" lon="-3.68791">
        <ele>209</ele>
        <time>2021-07-08T11:26:04Z</time>
      </trkpt>
      <trkpt lat="48.40269" lon="-3.68789">
        <ele>209</ele>
        <time>2021-07-08T11:26:05Z</time>
      </trkpt>
      <trkpt lat="48.40264" lon="-3.68787">
        <ele>209</ele>
        <time>2021-07-08T11:26:06Z</time>
      </trkpt>
      <trkpt lat="48.40259" lon="-3.68784">
        <ele>209</ele>
        <time>2021-07-08T11:26:07Z</time>
      </trkpt>
      <trkpt lat="48.40255" lon="-3.68782">
        <ele>209</ele>
        <time>2021-07-08T11:26:08Z</time>
      </trkpt>
      <trkpt lat="48.40251" lon="-3.68779">
        <ele>209</ele>
        <time>2021-07-08T11:26:09Z</time>
      </trkpt>
      <trkpt lat="48.40247" lon="-3.68777">
        <ele>209</ele>
        <time>2021-07-08T11:26:10Z</time>
      </trkpt>
      <trkpt lat="48.40244" lon="-3.68775">
        <ele>209</ele>
        <time>2021-07-08T11:26:11Z</time>
      </trkpt>
      <trkpt lat="48.4024" lon="-3.68772">
        <ele>209</ele>
        <time>2021-07-08T11:26:12Z</time>
      </trkpt>
      <trkpt lat="48.40236" lon="-3.6877">
        <ele>209</ele>
        <time>2021-07-08T11:26:13Z</time>
      </trkpt>
      <trkpt lat="48.40232" lon="-3.68768">
        <ele>209</ele>
        <time>2021-07-08T11:26:14Z</time>
      </trkpt>
      <trkpt lat="48.40228" lon="-3.68766">
        <ele>209</ele>
        <time>2021-07-08T11:26:15Z</time>
      </trkpt>
      <trkpt lat="48.40224" lon="-3.68764">
        <ele>209</ele>
        <time>2021-07-08T11:26:16Z</time>
      </trkpt>
      <trkpt lat="48.4022" lon="-3.68762">
        <ele>209</ele>
        <time>2021-07-08T11:26:17Z</time>
      </trkpt>
      <trkpt lat="48.40215" lon="-3.6876">
        <ele>209</ele>
        <time>2021-07-08T11:26:18Z</time>
      </trkpt>
      <trkpt lat="48.40211" lon="-3.68758">
        <ele>209</ele>
        <time>2021-07-08T11:26:19Z</time>
      </trkpt>
      <trkpt lat="48.40207" lon="-3.68756">
        <ele>209</ele>
        <time>2021-07-08T11:26:20Z</time>
      </trkpt>
      <trkpt lat="48.40203" lon="-3.68754">
        <ele>209</ele>
        <time>2021-07-08T11:26:21Z</time>
      </trkpt>
      <trkpt lat="48.40199" lon="-3.68751">
        <ele>209</ele>
        <time>2021-07-08T11:26:22Z</time>
      </trkpt>
      <trkpt lat="48.40195" lon="-3.68748">
        <ele>209</ele>
        <time>2021-07-08T11:26:23Z</time>
      </trkpt>
      <trkpt lat="48.40191" lon="-3.68746">
        <ele>209</ele>
        <time>2021-07-08T11:26:24Z</time>
      </trkpt>
      <trkpt lat="48.40187" lon="-3.68744">
        <ele>209</ele>
        <time>2021-07-08T11:26:25Z</time>
      </trkpt>
      <trkpt lat="48.40183" lon="-3.68743">
        <ele>209</ele>
        <time>2021-07-08T11:26:26Z</time>
      </trkpt>
      <trkpt lat="48.40178" lon="-3.68741">
        <ele>209</ele>
        <time>2021-07-08T11:26:27Z</time>
      </trkpt>
      <trkpt lat="48.40174" lon="-3.68739">
        <ele>209</ele>
        <time>2021-07-08T11:26:28Z</time>
      </trkpt>
      <trkpt lat="48.4017" lon="-3.68738">
        <ele>209</ele>
        <time>2021-07-08T11:26:29Z</time>
      </trkpt>
      <trkpt lat="48.40166" lon="-3.68737">
        <ele>209</ele>
        <time>2021-07-08T11:26:30Z</time>
      </trkpt>
      <trkpt lat="48.40162" lon="-3.68735">
        <ele>210</ele>
        <time>2021-07-08T11:26:31Z</time>
      </trkpt>
      <trkpt lat="48.40157" lon="-3.68733">
        <ele>210</ele>
        <time>2021-07-08T11:26:31Z</time>
      </trkpt>
      <trkpt lat="48.40153" lon="-3.68732">
        <ele>210</ele>
        <time>2021-07-08T11:26:33Z</time>
      </trkpt>
      <trkpt lat="48.40148" lon="-3.68731">
        <ele>210</ele>
        <time>2021-07-08T11:26:34Z</time>
      </trkpt>
      <trkpt lat="48.40135" lon="-3.68731">
        <ele>209</ele>
        <time>2021-07-08T11:26:37Z</time>
      </trkpt>
      <trkpt lat="48.40122" lon="-3.68732">
        <ele>209</ele>
        <time>2021-07-08T11:26:40Z</time>
      </trkpt>
      <trkpt lat="48.40109" lon="-3.68734">
        <ele>209</ele>
        <time>2021-07-08T11:26:43Z</time>
      </trkpt>
      <trkpt lat="48.40096" lon="-3.68736">
        <ele>209</ele>
        <time>2021-07-08T11:26:45Z</time>
      </trkpt>
      <trkpt lat="48.40083" lon="-3.68734">
        <ele>209</ele>
        <time>2021-07-08T11:26:49Z</time>
      </trkpt>
      <trkpt lat="48.40071" lon="-3.68732">
        <ele>209</ele>
        <time>2021-07-08T11:26:52Z</time>
      </trkpt>
      <trkpt lat="48.40062" lon="-3.68729">
        <ele>209</ele>
        <time>2021-07-08T11:26:54Z</time>
      </trkpt>
      <trkpt lat="48.40053" lon="-3.68727">
        <ele>209</ele>
        <time>2021-07-08T11:26:56Z</time>
      </trkpt>
      <trkpt lat="48.40049" lon="-3.68725">
        <ele>209</ele>
        <time>2021-07-08T11:26:57Z</time>
      </trkpt>
      <trkpt lat="48.40036" lon="-3.68721">
        <ele>208</ele>
        <time>2021-07-08T11:27:00Z</time>
      </trkpt>
      <trkpt lat="48.40026" lon="-3.6872">
        <ele>208</ele>
        <time>2021-07-08T11:27:03Z</time>
      </trkpt>
      <trkpt lat="48.40017" lon="-3.68714">
        <ele>208</ele>
        <time>2021-07-08T11:27:06Z</time>
      </trkpt>
      <trkpt lat="48.40005" lon="-3.68706">
        <ele>208</ele>
        <time>2021-07-08T11:27:09Z</time>
      </trkpt>
      <trkpt lat="48.39994" lon="-3.68698">
        <ele>208</ele>
        <time>2021-07-08T11:27:12Z</time>
      </trkpt>
      <trkpt lat="48.39983" lon="-3.6869">
        <ele>208</ele>
        <time>2021-07-08T11:27:15Z</time>
      </trkpt>
      <trkpt lat="48.39974" lon="-3.6868">
        <ele>208</ele>
        <time>2021-07-08T11:27:18Z</time>
      </trkpt>
      <trkpt lat="48.39965" lon="-3.68671">
        <ele>208</ele>
        <time>2021-07-08T11:27:21Z</time>
      </trkpt>
      <trkpt lat="48.39956" lon="-3.68661">
        <ele>208</ele>
        <time>2021-07-08T11:27:24Z</time>
      </trkpt>
      <trkpt lat="48.39946" lon="-3.68651">
        <ele>208</ele>
        <time>2021-07-08T11:27:28Z</time>
      </trkpt>
      <trkpt lat="48.39937" lon="-3.68643">
        <ele>207</ele>
        <time>2021-07-08T11:27:31Z</time>
      </trkpt>
      <trkpt lat="48.39928" lon="-3.68631">
        <ele>207</ele>
        <time>2021-07-08T11:27:34Z</time>
      </trkpt>
      <trkpt lat="48.39917" lon="-3.68621">
        <ele>208</ele>
        <time>2021-07-08T11:27:37Z</time>
      </trkpt>
      <trkpt lat="48.39908" lon="-3.68609">
        <ele>208</ele>
        <time>2021-07-08T11:27:40Z</time>
      </trkpt>
      <trkpt lat="48.39899" lon="-3.68599">
        <ele>208</ele>
        <time>2021-07-08T11:27:43Z</time>
      </trkpt>
      <trkpt lat="48.39895" lon="-3.68595">
        <ele>208</ele>
        <time>2021-07-08T11:27:44Z</time>
      </trkpt>
      <trkpt lat="48.39887" lon="-3.68588">
        <ele>207</ele>
        <time>2021-07-08T11:27:46Z</time>
      </trkpt>
      <trkpt lat="48.39882" lon="-3.68585">
        <ele>207</ele>
        <time>2021-07-08T11:27:47Z</time>
      </trkpt>
      <trkpt lat="48.39877" lon="-3.68582">
        <ele>206</ele>
        <time>2021-07-08T11:27:48Z</time>
      </trkpt>
      <trkpt lat="48.39872" lon="-3.6858">
        <ele>206</ele>
        <time>2021-07-08T11:27:49Z</time>
      </trkpt>
      <trkpt lat="48.39867" lon="-3.68578">
        <ele>206</ele>
        <time>2021-07-08T11:27:50Z</time>
      </trkpt>
      <trkpt lat="48.39862" lon="-3.68575">
        <ele>206</ele>
        <time>2021-07-08T11:27:51Z</time>
      </trkpt>
      <trkpt lat="48.39857" lon="-3.68573">
        <ele>206</ele>
        <time>2021-07-08T11:27:52Z</time>
      </trkpt>
      <trkpt lat="48.39853" lon="-3.6857">
        <ele>206</ele>
        <time>2021-07-08T11:27:53Z</time>
      </trkpt>
      <trkpt lat="48.39848" lon="-3.68569">
        <ele>206</ele>
        <time>2021-07-08T11:27:54Z</time>
      </trkpt>
      <trkpt lat="48.39843" lon="-3.68567">
        <ele>206</ele>
        <time>2021-07-08T11:27:55Z</time>
      </trkpt>
      <trkpt lat="48.39839" lon="-3.68565">
        <ele>206</ele>
        <time>2021-07-08T11:27:56Z</time>
      </trkpt>
      <trkpt lat="48.39835" lon="-3.68563">
        <ele>205</ele>
        <time>2021-07-08T11:27:57Z</time>
      </trkpt>
      <trkpt lat="48.3983" lon="-3.68562">
        <ele>205</ele>
        <time>2021-07-08T11:27:58Z</time>
      </trkpt>
      <trkpt lat="48.39826" lon="-3.6856">
        <ele>205</ele>
        <time>2021-07-08T11:27:59Z</time>
      </trkpt>
      <trkpt lat="48.39822" lon="-3.68558">
        <ele>205</ele>
        <time>2021-07-08T11:28:00Z</time>
      </trkpt>
      <trkpt lat="48.39817" lon="-3.68556">
        <ele>205</ele>
        <time>2021-07-08T11:28:01Z</time>
      </trkpt>
      <trkpt lat="48.39813" lon="-3.68555">
        <ele>205</ele>
        <time>2021-07-08T11:28:02Z</time>
      </trkpt>
      <trkpt lat="48.39808" lon="-3.68554">
        <ele>205</ele>
        <time>2021-07-08T11:28:03Z</time>
      </trkpt>
      <trkpt lat="48.39804" lon="-3.68553">
        <ele>205</ele>
        <time>2021-07-08T11:28:04Z</time>
      </trkpt>
      <trkpt lat="48.39799" lon="-3.68551">
        <ele>205</ele>
        <time>2021-07-08T11:28:05Z</time>
      </trkpt>
      <trkpt lat="48.39795" lon="-3.68549">
        <ele>206</ele>
        <time>2021-07-08T11:28:06Z</time>
      </trkpt>
      <trkpt lat="48.3979" lon="-3.68547">
        <ele>206</ele>
        <time>2021-07-08T11:28:07Z</time>
      </trkpt>
      <trkpt lat="48.39786" lon="-3.68545">
        <ele>206</ele>
        <time>2021-07-08T11:28:08Z</time>
      </trkpt>
      <trkpt lat="48.39782" lon="-3.68544">
        <ele>206</ele>
        <time>2021-07-08T11:28:09Z</time>
      </trkpt>
      <trkpt lat="48.39777" lon="-3.68542">
        <ele>206</ele>
        <time>2021-07-08T11:28:10Z</time>
      </trkpt>
      <trkpt lat="48.39773" lon="-3.68541">
        <ele>206</ele>
        <time>2021-07-08T11:28:11Z</time>
      </trkpt>
      <trkpt lat="48.39769" lon="-3.68539">
        <ele>205</ele>
        <time>2021-07-08T11:28:12Z</time>
      </trkpt>
      <trkpt lat="48.39765" lon="-3.68537">
        <ele>205</ele>
        <time>2021-07-08T11:28:13Z</time>
      </trkpt>
      <trkpt lat="48.3976" lon="-3.68537">
        <ele>205</ele>
        <time>2021-07-08T11:28:14Z</time>
      </trkpt>
      <trkpt lat="48.39749" lon="-3.68532">
        <ele>205</ele>
        <time>2021-07-08T11:28:16Z</time>
      </trkpt>
      <trkpt lat="48.39738" lon="-3.68529">
        <ele>205</ele>
        <time>2021-07-08T11:28:20Z</time>
      </trkpt>
      <trkpt lat="48.39729" lon="-3.68524">
        <ele>205</ele>
        <time>2021-07-08T11:28:22Z</time>
      </trkpt>
      <trkpt lat="48.3972" lon="-3.68521">
        <ele>205</ele>
        <time>2021-07-08T11:28:26Z</time>
      </trkpt>
      <trkpt lat="48.39709" lon="-3.68514">
        <ele>205</ele>
        <time>2021-07-08T11:28:28Z</time>
      </trkpt>
      <trkpt lat="48.39697" lon="-3.68511">
        <ele>205</ele>
        <time>2021-07-08T11:28:32Z</time>
      </trkpt>
      <trkpt lat="48.39686" lon="-3.68508">
        <ele>205</ele>
        <time>2021-07-08T11:28:35Z</time>
      </trkpt>
      <trkpt lat="48.39676" lon="-3.68503">
        <ele>205</ele>
        <time>2021-07-08T11:28:38Z</time>
      </trkpt>
      <trkpt lat="48.39666" lon="-3.68496">
        <ele>205</ele>
        <time>2021-07-08T11:28:40Z</time>
      </trkpt>
      <trkpt lat="48.39653" lon="-3.68488">
        <ele>205</ele>
        <time>2021-07-08T11:28:44Z</time>
      </trkpt>
      <trkpt lat="48.39645" lon="-3.68483">
        <ele>205</ele>
        <time>2021-07-08T11:28:46Z</time>
      </trkpt>
      <trkpt lat="48.39633" lon="-3.68477">
        <ele>205</ele>
        <time>2021-07-08T11:28:49Z</time>
      </trkpt>
      <trkpt lat="48.39624" lon="-3.6847">
        <ele>205</ele>
        <time>2021-07-08T11:28:52Z</time>
      </trkpt>
      <trkpt lat="48.39613" lon="-3.68463">
        <ele>205</ele>
        <time>2021-07-08T11:28:55Z</time>
      </trkpt>
      <trkpt lat="48.39603" lon="-3.68455">
        <ele>205</ele>
        <time>2021-07-08T11:28:58Z</time>
      </trkpt>
      <trkpt lat="48.39594" lon="-3.68448">
        <ele>205</ele>
        <time>2021-07-08T11:29:01Z</time>
      </trkpt>
      <trkpt lat="48.39583" lon="-3.6844">
        <ele>205</ele>
        <time>2021-07-08T11:29:04Z</time>
      </trkpt>
      <trkpt lat="48.3957" lon="-3.68432">
        <ele>205</ele>
        <time>2021-07-08T11:29:07Z</time>
      </trkpt>
      <trkpt lat="48.3956" lon="-3.68428">
        <ele>205</ele>
        <time>2021-07-08T11:29:09Z</time>
      </trkpt>
      <trkpt lat="48.39548" lon="-3.68421">
        <ele>205</ele>
        <time>2021-07-08T11:29:12Z</time>
      </trkpt>
      <trkpt lat="48.39536" lon="-3.68417">
        <ele>205</ele>
        <time>2021-07-08T11:29:15Z</time>
      </trkpt>
      <trkpt lat="48.39526" lon="-3.68414">
        <ele>205</ele>
        <time>2021-07-08T11:29:16Z</time>
      </trkpt>
      <trkpt lat="48.39515" lon="-3.68411">
        <ele>205</ele>
        <time>2021-07-08T11:29:19Z</time>
      </trkpt>
      <trkpt lat="48.39501" lon="-3.68406">
        <ele>205</ele>
        <time>2021-07-08T11:29:21Z</time>
      </trkpt>
      <trkpt lat="48.3949" lon="-3.68402">
        <ele>205</ele>
        <time>2021-07-08T11:29:25Z</time>
      </trkpt>
      <trkpt lat="48.39476" lon="-3.68398">
        <ele>204</ele>
        <time>2021-07-08T11:29:28Z</time>
      </trkpt>
      <trkpt lat="48.39462" lon="-3.68396">
        <ele>205</ele>
        <time>2021-07-08T11:29:32Z</time>
      </trkpt>
      <trkpt lat="48.39449" lon="-3.68396">
        <ele>204</ele>
        <time>2021-07-08T11:29:35Z</time>
      </trkpt>
      <trkpt lat="48.3944" lon="-3.68395">
        <ele>204</ele>
        <time>2021-07-08T11:29:37Z</time>
      </trkpt>
      <trkpt lat="48.39428" lon="-3.68398">
        <ele>205</ele>
        <time>2021-07-08T11:29:40Z</time>
      </trkpt>
      <trkpt lat="48.39425" lon="-3.68398">
        <ele>205</ele>
        <time>2021-07-08T11:29:41Z</time>
      </trkpt>
      <trkpt lat="48.39421" lon="-3.684">
        <ele>205</ele>
        <time>2021-07-08T11:29:41Z</time>
      </trkpt>
      <trkpt lat="48.39419" lon="-3.68401">
        <ele>205</ele>
        <time>2021-07-08T11:29:43Z</time>
      </trkpt>
      <trkpt lat="48.39415" lon="-3.68402">
        <ele>205</ele>
        <time>2021-07-08T11:29:44Z</time>
      </trkpt>
      <trkpt lat="48.39412" lon="-3.68403">
        <ele>205</ele>
        <time>2021-07-08T11:29:45Z</time>
      </trkpt>
      <trkpt lat="48.39409" lon="-3.68404">
        <ele>205</ele>
        <time>2021-07-08T11:29:46Z</time>
      </trkpt>
      <trkpt lat="48.39404" lon="-3.68405">
        <ele>205</ele>
        <time>2021-07-08T11:29:47Z</time>
      </trkpt>
      <trkpt lat="48.394" lon="-3.68406">
        <ele>205</ele>
        <time>2021-07-08T11:29:48Z</time>
      </trkpt>
      <trkpt lat="48.39396" lon="-3.68408">
        <ele>205</ele>
        <time>2021-07-08T11:29:49Z</time>
      </trkpt>
      <trkpt lat="48.39393" lon="-3.6841">
        <ele>205</ele>
        <time>2021-07-08T11:29:50Z</time>
      </trkpt>
      <trkpt lat="48.3939" lon="-3.68412">
        <ele>205</ele>
        <time>2021-07-08T11:29:51Z</time>
      </trkpt>
      <trkpt lat="48.39387" lon="-3.68413">
        <ele>204</ele>
        <time>2021-07-08T11:29:52Z</time>
      </trkpt>
      <trkpt lat="48.39384" lon="-3.68415">
        <ele>204</ele>
        <time>2021-07-08T11:29:53Z</time>
      </trkpt>
      <trkpt lat="48.39381" lon="-3.68416">
        <ele>204</ele>
        <time>2021-07-08T11:29:54Z</time>
      </trkpt>
      <trkpt lat="48.39377" lon="-3.68419">
        <ele>204</ele>
        <time>2021-07-08T11:29:55Z</time>
      </trkpt>
      <trkpt lat="48.39374" lon="-3.6842">
        <ele>204</ele>
        <time>2021-07-08T11:29:56Z</time>
      </trkpt>
      <trkpt lat="48.3937" lon="-3.68421">
        <ele>204</ele>
        <time>2021-07-08T11:29:57Z</time>
      </trkpt>
      <trkpt lat="48.39367" lon="-3.68422">
        <ele>204</ele>
        <time>2021-07-08T11:29:58Z</time>
      </trkpt>
      <trkpt lat="48.3936" lon="-3.68425">
        <ele>204</ele>
        <time>2021-07-08T11:29:59Z</time>
      </trkpt>
      <trkpt lat="48.39357" lon="-3.68426">
        <ele>204</ele>
        <time>2021-07-08T11:30:01Z</time>
      </trkpt>
      <trkpt lat="48.39354" lon="-3.68427">
        <ele>204</ele>
        <time>2021-07-08T11:30:02Z</time>
      </trkpt>
      <trkpt lat="48.39349" lon="-3.68429">
        <ele>204</ele>
        <time>2021-07-08T11:30:03Z</time>
      </trkpt>
      <trkpt lat="48.39345" lon="-3.68431">
        <ele>205</ele>
        <time>2021-07-08T11:30:04Z</time>
      </trkpt>
      <trkpt lat="48.39341" lon="-3.68433">
        <ele>205</ele>
        <time>2021-07-08T11:30:05Z</time>
      </trkpt>
      <trkpt lat="48.39334" lon="-3.68437">
        <ele>205</ele>
        <time>2021-07-08T11:30:06Z</time>
      </trkpt>
      <trkpt lat="48.39331" lon="-3.68438">
        <ele>205</ele>
        <time>2021-07-08T11:30:08Z</time>
      </trkpt>
      <trkpt lat="48.39328" lon="-3.68439">
        <ele>204</ele>
        <time>2021-07-08T11:30:09Z</time>
      </trkpt>
      <trkpt lat="48.39318" lon="-3.68445">
        <ele>204</ele>
        <time>2021-07-08T11:30:12Z</time>
      </trkpt>
      <trkpt lat="48.39306" lon="-3.68452">
        <ele>204</ele>
        <time>2021-07-08T11:30:15Z</time>
      </trkpt>
      <trkpt lat="48.39296" lon="-3.68455">
        <ele>204</ele>
        <time>2021-07-08T11:30:18Z</time>
      </trkpt>
      <trkpt lat="48.39286" lon="-3.68459">
        <ele>204</ele>
        <time>2021-07-08T11:30:21Z</time>
      </trkpt>
      <trkpt lat="48.39277" lon="-3.68463">
        <ele>204</ele>
        <time>2021-07-08T11:30:24Z</time>
      </trkpt>
      <trkpt lat="48.39267" lon="-3.68468">
        <ele>204</ele>
        <time>2021-07-08T11:30:27Z</time>
      </trkpt>
      <trkpt lat="48.39255" lon="-3.68473">
        <ele>204</ele>
        <time>2021-07-08T11:30:30Z</time>
      </trkpt>
      <trkpt lat="48.39242" lon="-3.68475">
        <ele>204</ele>
        <time>2021-07-08T11:30:33Z</time>
      </trkpt>
      <trkpt lat="48.39229" lon="-3.68481">
        <ele>204</ele>
        <time>2021-07-08T11:30:36Z</time>
      </trkpt>
      <trkpt lat="48.39225" lon="-3.68482">
        <ele>205</ele>
        <time>2021-07-08T11:30:37Z</time>
      </trkpt>
      <trkpt lat="48.39221" lon="-3.68484">
        <ele>205</ele>
        <time>2021-07-08T11:30:38Z</time>
      </trkpt>
      <trkpt lat="48.39216" lon="-3.68486">
        <ele>205</ele>
        <time>2021-07-08T11:30:39Z</time>
      </trkpt>
      <trkpt lat="48.39212" lon="-3.68487">
        <ele>205</ele>
        <time>2021-07-08T11:30:40Z</time>
      </trkpt>
      <trkpt lat="48.39207" lon="-3.68489">
        <ele>205</ele>
        <time>2021-07-08T11:30:41Z</time>
      </trkpt>
      <trkpt lat="48.39203" lon="-3.6849">
        <ele>204</ele>
        <time>2021-07-08T11:30:42Z</time>
      </trkpt>
      <trkpt lat="48.39199" lon="-3.68492">
        <ele>204</ele>
        <time>2021-07-08T11:30:43Z</time>
      </trkpt>
      <trkpt lat="48.39195" lon="-3.68494">
        <ele>204</ele>
        <time>2021-07-08T11:30:44Z</time>
      </trkpt>
      <trkpt lat="48.3919" lon="-3.68496">
        <ele>204</ele>
        <time>2021-07-08T11:30:45Z</time>
      </trkpt>
      <trkpt lat="48.39186" lon="-3.68498">
        <ele>204</ele>
        <time>2021-07-08T11:30:46Z</time>
      </trkpt>
      <trkpt lat="48.39182" lon="-3.685">
        <ele>204</ele>
        <time>2021-07-08T11:30:47Z</time>
      </trkpt>
      <trkpt lat="48.39178" lon="-3.68502">
        <ele>204</ele>
        <time>2021-07-08T11:30:48Z</time>
      </trkpt>
      <trkpt lat="48.39173" lon="-3.68504">
        <ele>204</ele>
        <time>2021-07-08T11:30:49Z</time>
      </trkpt>
      <trkpt lat="48.39169" lon="-3.68506">
        <ele>204</ele>
        <time>2021-07-08T11:30:50Z</time>
      </trkpt>
      <trkpt lat="48.39165" lon="-3.68507">
        <ele>204</ele>
        <time>2021-07-08T11:30:51Z</time>
      </trkpt>
      <trkpt lat="48.39161" lon="-3.68509">
        <ele>204</ele>
        <time>2021-07-08T11:30:52Z</time>
      </trkpt>
      <trkpt lat="48.39157" lon="-3.68511">
        <ele>203</ele>
        <time>2021-07-08T11:30:53Z</time>
      </trkpt>
      <trkpt lat="48.39154" lon="-3.68513">
        <ele>203</ele>
        <time>2021-07-08T11:30:54Z</time>
      </trkpt>
      <trkpt lat="48.3915" lon="-3.68515">
        <ele>203</ele>
        <time>2021-07-08T11:30:55Z</time>
      </trkpt>
      <trkpt lat="48.39147" lon="-3.68517">
        <ele>203</ele>
        <time>2021-07-08T11:30:56Z</time>
      </trkpt>
      <trkpt lat="48.39143" lon="-3.68518">
        <ele>203</ele>
        <time>2021-07-08T11:30:57Z</time>
      </trkpt>
      <trkpt lat="48.39139" lon="-3.6852">
        <ele>203</ele>
        <time>2021-07-08T11:30:58Z</time>
      </trkpt>
      <trkpt lat="48.39127" lon="-3.68527">
        <ele>203</ele>
        <time>2021-07-08T11:31:00Z</time>
      </trkpt>
      <trkpt lat="48.39117" lon="-3.68534">
        <ele>203</ele>
        <time>2021-07-08T11:31:04Z</time>
      </trkpt>
      <trkpt lat="48.39106" lon="-3.68541">
        <ele>204</ele>
        <time>2021-07-08T11:31:07Z</time>
      </trkpt>
      <trkpt lat="48.39096" lon="-3.68548">
        <ele>204</ele>
        <time>2021-07-08T11:31:10Z</time>
      </trkpt>
      <trkpt lat="48.39086" lon="-3.68555">
        <ele>204</ele>
        <time>2021-07-08T11:31:12Z</time>
      </trkpt>
      <trkpt lat="48.39076" lon="-3.68564">
        <ele>204</ele>
        <time>2021-07-08T11:31:16Z</time>
      </trkpt>
      <trkpt lat="48.39066" lon="-3.68574">
        <ele>204</ele>
        <time>2021-07-08T11:31:18Z</time>
      </trkpt>
      <trkpt lat="48.39056" lon="-3.68582">
        <ele>203</ele>
        <time>2021-07-08T11:31:22Z</time>
      </trkpt>
      <trkpt lat="48.39047" lon="-3.6859">
        <ele>203</ele>
        <time>2021-07-08T11:31:24Z</time>
      </trkpt>
      <trkpt lat="48.39039" lon="-3.68599">
        <ele>203</ele>
        <time>2021-07-08T11:31:28Z</time>
      </trkpt>
      <trkpt lat="48.39029" lon="-3.68606">
        <ele>203</ele>
        <time>2021-07-08T11:31:31Z</time>
      </trkpt>
      <trkpt lat="48.3902" lon="-3.68616">
        <ele>203</ele>
        <time>2021-07-08T11:31:34Z</time>
      </trkpt>
      <trkpt lat="48.39011" lon="-3.68625">
        <ele>203</ele>
        <time>2021-07-08T11:31:37Z</time>
      </trkpt>
      <trkpt lat="48.39" lon="-3.68635">
        <ele>203</ele>
        <time>2021-07-08T11:31:40Z</time>
      </trkpt>
      <trkpt lat="48.38992" lon="-3.68644">
        <ele>203</ele>
        <time>2021-07-08T11:31:43Z</time>
      </trkpt>
      <trkpt lat="48.38982" lon="-3.68653">
        <ele>203</ele>
        <time>2021-07-08T11:31:46Z</time>
      </trkpt>
      <trkpt lat="48.38974" lon="-3.6866">
        <ele>203</ele>
        <time>2021-07-08T11:31:48Z</time>
      </trkpt>
      <trkpt lat="48.38966" lon="-3.68668">
        <ele>203</ele>
        <time>2021-07-08T11:31:50Z</time>
      </trkpt>
      <trkpt lat="48.38959" lon="-3.68676">
        <ele>202</ele>
        <time>2021-07-08T11:31:52Z</time>
      </trkpt>
      <trkpt lat="48.38948" lon="-3.68688">
        <ele>202</ele>
        <time>2021-07-08T11:31:55Z</time>
      </trkpt>
      <trkpt lat="48.3894" lon="-3.68699">
        <ele>202</ele>
        <time>2021-07-08T11:31:58Z</time>
      </trkpt>
      <trkpt lat="48.38923" lon="-3.68714">
        <ele>202</ele>
        <time>2021-07-08T11:32:01Z</time>
      </trkpt>
      <trkpt lat="48.38913" lon="-3.6872">
        <ele>202</ele>
        <time>2021-07-08T11:32:04Z</time>
      </trkpt>
      <trkpt lat="48.38903" lon="-3.68726">
        <ele>202</ele>
        <time>2021-07-08T11:32:06Z</time>
      </trkpt>
      <trkpt lat="48.38894" lon="-3.68734">
        <ele>202</ele>
        <time>2021-07-08T11:32:08Z</time>
      </trkpt>
      <trkpt lat="48.38885" lon="-3.68741">
        <ele>202</ele>
        <time>2021-07-08T11:32:10Z</time>
      </trkpt>
      <trkpt lat="48.38877" lon="-3.68748">
        <ele>202</ele>
        <time>2021-07-08T11:32:12Z</time>
      </trkpt>
      <trkpt lat="48.38867" lon="-3.68759">
        <ele>202</ele>
        <time>2021-07-08T11:32:15Z</time>
      </trkpt>
      <trkpt lat="48.38856" lon="-3.68768">
        <ele>202</ele>
        <time>2021-07-08T11:32:18Z</time>
      </trkpt>
      <trkpt lat="48.38847" lon="-3.68778">
        <ele>202</ele>
        <time>2021-07-08T11:32:21Z</time>
      </trkpt>
      <trkpt lat="48.38837" lon="-3.68788">
        <ele>202</ele>
        <time>2021-07-08T11:32:24Z</time>
      </trkpt>
      <trkpt lat="48.38827" lon="-3.68799">
        <ele>201</ele>
        <time>2021-07-08T11:32:27Z</time>
      </trkpt>
      <trkpt lat="48.38814" lon="-3.68808">
        <ele>201</ele>
        <time>2021-07-08T11:32:30Z</time>
      </trkpt>
      <trkpt lat="48.38805" lon="-3.68814">
        <ele>201</ele>
        <time>2021-07-08T11:32:32Z</time>
      </trkpt>
      <trkpt lat="48.38797" lon="-3.6882">
        <ele>202</ele>
        <time>2021-07-08T11:32:34Z</time>
      </trkpt>
      <trkpt lat="48.38786" lon="-3.6883">
        <ele>202</ele>
        <time>2021-07-08T11:32:37Z</time>
      </trkpt>
      <trkpt lat="48.38778" lon="-3.68836">
        <ele>202</ele>
        <time>2021-07-08T11:32:39Z</time>
      </trkpt>
      <trkpt lat="48.38768" lon="-3.68846">
        <ele>202</ele>
        <time>2021-07-08T11:32:41Z</time>
      </trkpt>
      <trkpt lat="48.3876" lon="-3.68858">
        <ele>201</ele>
        <time>2021-07-08T11:32:45Z</time>
      </trkpt>
      <trkpt lat="48.38751" lon="-3.68864">
        <ele>201</ele>
        <time>2021-07-08T11:32:48Z</time>
      </trkpt>
      <trkpt lat="48.38741" lon="-3.6887">
        <ele>201</ele>
        <time>2021-07-08T11:32:51Z</time>
      </trkpt>
      <trkpt lat="48.38729" lon="-3.68875">
        <ele>201</ele>
        <time>2021-07-08T11:32:54Z</time>
      </trkpt>
      <trkpt lat="48.3872" lon="-3.68879">
        <ele>201</ele>
        <time>2021-07-08T11:32:56Z</time>
      </trkpt>
      <trkpt lat="48.38711" lon="-3.68884">
        <ele>201</ele>
        <time>2021-07-08T11:32:58Z</time>
      </trkpt>
      <trkpt lat="48.38702" lon="-3.68889">
        <ele>200</ele>
        <time>2021-07-08T11:32:59Z</time>
      </trkpt>
      <trkpt lat="48.3869" lon="-3.68893">
        <ele>201</ele>
        <time>2021-07-08T11:33:02Z</time>
      </trkpt>
      <trkpt lat="48.38685" lon="-3.68894">
        <ele>201</ele>
        <time>2021-07-08T11:33:03Z</time>
      </trkpt>
      <trkpt lat="48.3868" lon="-3.68895">
        <ele>201</ele>
        <time>2021-07-08T11:33:04Z</time>
      </trkpt>
      <trkpt lat="48.38675" lon="-3.68897">
        <ele>201</ele>
        <time>2021-07-08T11:33:05Z</time>
      </trkpt>
      <trkpt lat="48.38663" lon="-3.689">
        <ele>200</ele>
        <time>2021-07-08T11:33:08Z</time>
      </trkpt>
      <trkpt lat="48.38651" lon="-3.68902">
        <ele>200</ele>
        <time>2021-07-08T11:33:11Z</time>
      </trkpt>
      <trkpt lat="48.3864" lon="-3.68903">
        <ele>200</ele>
        <time>2021-07-08T11:33:13Z</time>
      </trkpt>
      <trkpt lat="48.38634" lon="-3.68904">
        <ele>200</ele>
        <time>2021-07-08T11:33:14Z</time>
      </trkpt>
      <trkpt lat="48.38628" lon="-3.68904">
        <ele>201</ele>
        <time>2021-07-08T11:33:15Z</time>
      </trkpt>
      <trkpt lat="48.38622" lon="-3.68904">
        <ele>201</ele>
        <time>2021-07-08T11:33:16Z</time>
      </trkpt>
      <trkpt lat="48.38618" lon="-3.68903">
        <ele>201</ele>
        <time>2021-07-08T11:33:17Z</time>
      </trkpt>
      <trkpt lat="48.38614" lon="-3.68901">
        <ele>201</ele>
        <time>2021-07-08T11:33:18Z</time>
      </trkpt>
      <trkpt lat="48.38609" lon="-3.689">
        <ele>201</ele>
        <time>2021-07-08T11:33:19Z</time>
      </trkpt>
      <trkpt lat="48.38605" lon="-3.68899">
        <ele>201</ele>
        <time>2021-07-08T11:33:20Z</time>
      </trkpt>
      <trkpt lat="48.38601" lon="-3.68898">
        <ele>201</ele>
        <time>2021-07-08T11:33:21Z</time>
      </trkpt>
      <trkpt lat="48.38597" lon="-3.68897">
        <ele>201</ele>
        <time>2021-07-08T11:33:22Z</time>
      </trkpt>
      <trkpt lat="48.38592" lon="-3.68895">
        <ele>200</ele>
        <time>2021-07-08T11:33:23Z</time>
      </trkpt>
      <trkpt lat="48.38588" lon="-3.68894">
        <ele>200</ele>
        <time>2021-07-08T11:33:24Z</time>
      </trkpt>
      <trkpt lat="48.38584" lon="-3.68893">
        <ele>200</ele>
        <time>2021-07-08T11:33:25Z</time>
      </trkpt>
      <trkpt lat="48.3858" lon="-3.68892">
        <ele>200</ele>
        <time>2021-07-08T11:33:26Z</time>
      </trkpt>
      <trkpt lat="48.38576" lon="-3.68892">
        <ele>200</ele>
        <time>2021-07-08T11:33:27Z</time>
      </trkpt>
      <trkpt lat="48.38572" lon="-3.68892">
        <ele>200</ele>
        <time>2021-07-08T11:33:28Z</time>
      </trkpt>
      <trkpt lat="48.38569" lon="-3.68891">
        <ele>200</ele>
        <time>2021-07-08T11:33:29Z</time>
      </trkpt>
      <trkpt lat="48.38565" lon="-3.68891">
        <ele>200</ele>
        <time>2021-07-08T11:33:30Z</time>
      </trkpt>
      <trkpt lat="48.38562" lon="-3.6889">
        <ele>200</ele>
        <time>2021-07-08T11:33:31Z</time>
      </trkpt>
      <trkpt lat="48.38559" lon="-3.68889">
        <ele>200</ele>
        <time>2021-07-08T11:33:31Z</time>
      </trkpt>
      <trkpt lat="48.38556" lon="-3.68888">
        <ele>200</ele>
        <time>2021-07-08T11:33:33Z</time>
      </trkpt>
      <trkpt lat="48.38552" lon="-3.68887">
        <ele>200</ele>
        <time>2021-07-08T11:33:34Z</time>
      </trkpt>
      <trkpt lat="48.38549" lon="-3.68887">
        <ele>200</ele>
        <time>2021-07-08T11:33:35Z</time>
      </trkpt>
      <trkpt lat="48.38546" lon="-3.68886">
        <ele>200</ele>
        <time>2021-07-08T11:33:36Z</time>
      </trkpt>
      <trkpt lat="48.38542" lon="-3.68885">
        <ele>200</ele>
        <time>2021-07-08T11:33:37Z</time>
      </trkpt>
      <trkpt lat="48.38539" lon="-3.68885">
        <ele>200</ele>
        <time>2021-07-08T11:33:37Z</time>
      </trkpt>
      <trkpt lat="48.38536" lon="-3.68885">
        <ele>200</ele>
        <time>2021-07-08T11:33:39Z</time>
      </trkpt>
      <trkpt lat="48.38532" lon="-3.68884">
        <ele>200</ele>
        <time>2021-07-08T11:33:40Z</time>
      </trkpt>
      <trkpt lat="48.38529" lon="-3.68884">
        <ele>200</ele>
        <time>2021-07-08T11:33:41Z</time>
      </trkpt>
      <trkpt lat="48.38526" lon="-3.68883">
        <ele>200</ele>
        <time>2021-07-08T11:33:42Z</time>
      </trkpt>
      <trkpt lat="48.38522" lon="-3.68883">
        <ele>200</ele>
        <time>2021-07-08T11:33:43Z</time>
      </trkpt>
      <trkpt lat="48.38519" lon="-3.68882">
        <ele>200</ele>
        <time>2021-07-08T11:33:43Z</time>
      </trkpt>
      <trkpt lat="48.38516" lon="-3.68882">
        <ele>200</ele>
        <time>2021-07-08T11:33:45Z</time>
      </trkpt>
      <trkpt lat="48.38513" lon="-3.68881">
        <ele>200</ele>
        <time>2021-07-08T11:33:46Z</time>
      </trkpt>
      <trkpt lat="48.3851" lon="-3.68881">
        <ele>200</ele>
        <time>2021-07-08T11:33:47Z</time>
      </trkpt>
      <trkpt lat="48.38507" lon="-3.68881">
        <ele>200</ele>
        <time>2021-07-08T11:33:48Z</time>
      </trkpt>
      <trkpt lat="48.38504" lon="-3.6888">
        <ele>200</ele>
        <time>2021-07-08T11:33:49Z</time>
      </trkpt>
      <trkpt lat="48.38501" lon="-3.6888">
        <ele>200</ele>
        <time>2021-07-08T11:33:50Z</time>
      </trkpt>
      <trkpt lat="48.38498" lon="-3.68881">
        <ele>200</ele>
        <time>2021-07-08T11:33:51Z</time>
      </trkpt>
      <trkpt lat="48.38496" lon="-3.68882">
        <ele>200</ele>
        <time>2021-07-08T11:33:52Z</time>
      </trkpt>
      <trkpt lat="48.38494" lon="-3.68883">
        <ele>200</ele>
        <time>2021-07-08T11:33:53Z</time>
      </trkpt>
      <trkpt lat="48.38491" lon="-3.68884">
        <ele>200</ele>
        <time>2021-07-08T11:33:54Z</time>
      </trkpt>
      <trkpt lat="48.38489" lon="-3.68884">
        <ele>200</ele>
        <time>2021-07-08T11:33:55Z</time>
      </trkpt>
      <trkpt lat="48.38486" lon="-3.68884">
        <ele>200</ele>
        <time>2021-07-08T11:33:56Z</time>
      </trkpt>
      <trkpt lat="48.38483" lon="-3.68883">
        <ele>200</ele>
        <time>2021-07-08T11:33:57Z</time>
      </trkpt>
      <trkpt lat="48.38479" lon="-3.68883">
        <ele>200</ele>
        <time>2021-07-08T11:33:58Z</time>
      </trkpt>
      <trkpt lat="48.38476" lon="-3.68882">
        <ele>200</ele>
        <time>2021-07-08T11:33:59Z</time>
      </trkpt>
      <trkpt lat="48.38473" lon="-3.68882">
        <ele>199</ele>
        <time>2021-07-08T11:34:00Z</time>
      </trkpt>
      <trkpt lat="48.38469" lon="-3.68881">
        <ele>199</ele>
        <time>2021-07-08T11:34:01Z</time>
      </trkpt>
      <trkpt lat="48.38466" lon="-3.68881">
        <ele>199</ele>
        <time>2021-07-08T11:34:02Z</time>
      </trkpt>
      <trkpt lat="48.38462" lon="-3.6888">
        <ele>199</ele>
        <time>2021-07-08T11:34:03Z</time>
      </trkpt>
      <trkpt lat="48.38458" lon="-3.68879">
        <ele>199</ele>
        <time>2021-07-08T11:34:04Z</time>
      </trkpt>
      <trkpt lat="48.38454" lon="-3.68878">
        <ele>199</ele>
        <time>2021-07-08T11:34:05Z</time>
      </trkpt>
      <trkpt lat="48.3845" lon="-3.68878">
        <ele>200</ele>
        <time>2021-07-08T11:34:06Z</time>
      </trkpt>
      <trkpt lat="48.38446" lon="-3.68877">
        <ele>200</ele>
        <time>2021-07-08T11:34:07Z</time>
      </trkpt>
      <trkpt lat="48.38442" lon="-3.68877">
        <ele>199</ele>
        <time>2021-07-08T11:34:08Z</time>
      </trkpt>
      <trkpt lat="48.38438" lon="-3.68877">
        <ele>199</ele>
        <time>2021-07-08T11:34:09Z</time>
      </trkpt>
      <trkpt lat="48.38434" lon="-3.68876">
        <ele>199</ele>
        <time>2021-07-08T11:34:10Z</time>
      </trkpt>
      <trkpt lat="48.3843" lon="-3.68876">
        <ele>199</ele>
        <time>2021-07-08T11:34:11Z</time>
      </trkpt>
      <trkpt lat="48.38425" lon="-3.68875">
        <ele>199</ele>
        <time>2021-07-08T11:34:12Z</time>
      </trkpt>
      <trkpt lat="48.38421" lon="-3.68874">
        <ele>199</ele>
        <time>2021-07-08T11:34:13Z</time>
      </trkpt>
      <trkpt lat="48.38417" lon="-3.68874">
        <ele>199</ele>
        <time>2021-07-08T11:34:14Z</time>
      </trkpt>
      <trkpt lat="48.38413" lon="-3.68873">
        <ele>199</ele>
        <time>2021-07-08T11:34:15Z</time>
      </trkpt>
      <trkpt lat="48.38409" lon="-3.68873">
        <ele>199</ele>
        <time>2021-07-08T11:34:16Z</time>
      </trkpt>
      <trkpt lat="48.38404" lon="-3.68872">
        <ele>199</ele>
        <time>2021-07-08T11:34:17Z</time>
      </trkpt>
      <trkpt lat="48.384" lon="-3.68872">
        <ele>199</ele>
        <time>2021-07-08T11:34:18Z</time>
      </trkpt>
      <trkpt lat="48.38396" lon="-3.68872">
        <ele>199</ele>
        <time>2021-07-08T11:34:19Z</time>
      </trkpt>
      <trkpt lat="48.38392" lon="-3.68871">
        <ele>199</ele>
        <time>2021-07-08T11:34:20Z</time>
      </trkpt>
      <trkpt lat="48.38387" lon="-3.68871">
        <ele>199</ele>
        <time>2021-07-08T11:34:21Z</time>
      </trkpt>
      <trkpt lat="48.38383" lon="-3.6887">
        <ele>199</ele>
        <time>2021-07-08T11:34:22Z</time>
      </trkpt>
      <trkpt lat="48.38379" lon="-3.6887">
        <ele>199</ele>
        <time>2021-07-08T11:34:23Z</time>
      </trkpt>
      <trkpt lat="48.38374" lon="-3.68869">
        <ele>199</ele>
        <time>2021-07-08T11:34:24Z</time>
      </trkpt>
      <trkpt lat="48.3837" lon="-3.68869">
        <ele>199</ele>
        <time>2021-07-08T11:34:25Z</time>
      </trkpt>
      <trkpt lat="48.38366" lon="-3.68868">
        <ele>199</ele>
        <time>2021-07-08T11:34:26Z</time>
      </trkpt>
      <trkpt lat="48.38361" lon="-3.68868">
        <ele>199</ele>
        <time>2021-07-08T11:34:27Z</time>
      </trkpt>
      <trkpt lat="48.38357" lon="-3.68867">
        <ele>199</ele>
        <time>2021-07-08T11:34:28Z</time>
      </trkpt>
      <trkpt lat="48.38352" lon="-3.68867">
        <ele>199</ele>
        <time>2021-07-08T11:34:29Z</time>
      </trkpt>
      <trkpt lat="48.38348" lon="-3.68867">
        <ele>199</ele>
        <time>2021-07-08T11:34:30Z</time>
      </trkpt>
      <trkpt lat="48.38343" lon="-3.68866">
        <ele>199</ele>
        <time>2021-07-08T11:34:31Z</time>
      </trkpt>
      <trkpt lat="48.38339" lon="-3.68866">
        <ele>199</ele>
        <time>2021-07-08T11:34:32Z</time>
      </trkpt>
      <trkpt lat="48.38335" lon="-3.68865">
        <ele>199</ele>
        <time>2021-07-08T11:34:33Z</time>
      </trkpt>
      <trkpt lat="48.38331" lon="-3.68865">
        <ele>199</ele>
        <time>2021-07-08T11:34:34Z</time>
      </trkpt>
      <trkpt lat="48.38326" lon="-3.68865">
        <ele>199</ele>
        <time>2021-07-08T11:34:35Z</time>
      </trkpt>
      <trkpt lat="48.38322" lon="-3.68864">
        <ele>199</ele>
        <time>2021-07-08T11:34:36Z</time>
      </trkpt>
      <trkpt lat="48.38318" lon="-3.68864">
        <ele>199</ele>
        <time>2021-07-08T11:34:37Z</time>
      </trkpt>
      <trkpt lat="48.38314" lon="-3.68863">
        <ele>199</ele>
        <time>2021-07-08T11:34:38Z</time>
      </trkpt>
      <trkpt lat="48.38309" lon="-3.68863">
        <ele>199</ele>
        <time>2021-07-08T11:34:39Z</time>
      </trkpt>
      <trkpt lat="48.38305" lon="-3.68862">
        <ele>199</ele>
        <time>2021-07-08T11:34:40Z</time>
      </trkpt>
      <trkpt lat="48.383" lon="-3.68862">
        <ele>199</ele>
        <time>2021-07-08T11:34:41Z</time>
      </trkpt>
      <trkpt lat="48.38295" lon="-3.68861">
        <ele>199</ele>
        <time>2021-07-08T11:34:42Z</time>
      </trkpt>
      <trkpt lat="48.38291" lon="-3.68861">
        <ele>199</ele>
        <time>2021-07-08T11:34:43Z</time>
      </trkpt>
      <trkpt lat="48.38286" lon="-3.6886">
        <ele>199</ele>
        <time>2021-07-08T11:34:44Z</time>
      </trkpt>
      <trkpt lat="48.38277" lon="-3.68859">
        <ele>199</ele>
        <time>2021-07-08T11:34:45Z</time>
      </trkpt>
      <trkpt lat="48.38273" lon="-3.68858">
        <ele>199</ele>
        <time>2021-07-08T11:34:47Z</time>
      </trkpt>
      <trkpt lat="48.38269" lon="-3.68858">
        <ele>199</ele>
        <time>2021-07-08T11:34:48Z</time>
      </trkpt>
      <trkpt lat="48.38264" lon="-3.68857">
        <ele>199</ele>
        <time>2021-07-08T11:34:49Z</time>
      </trkpt>
      <trkpt lat="48.3826" lon="-3.68856">
        <ele>199</ele>
        <time>2021-07-08T11:34:50Z</time>
      </trkpt>
      <trkpt lat="48.38256" lon="-3.68855">
        <ele>199</ele>
        <time>2021-07-08T11:34:51Z</time>
      </trkpt>
      <trkpt lat="48.38249" lon="-3.68854">
        <ele>199</ele>
        <time>2021-07-08T11:34:52Z</time>
      </trkpt>
      <trkpt lat="48.38245" lon="-3.68854">
        <ele>199</ele>
        <time>2021-07-08T11:34:54Z</time>
      </trkpt>
      <trkpt lat="48.38242" lon="-3.68853">
        <ele>199</ele>
        <time>2021-07-08T11:34:55Z</time>
      </trkpt>
      <trkpt lat="48.38238" lon="-3.68853">
        <ele>199</ele>
        <time>2021-07-08T11:34:56Z</time>
      </trkpt>
      <trkpt lat="48.38235" lon="-3.68852">
        <ele>198</ele>
        <time>2021-07-08T11:34:57Z</time>
      </trkpt>
      <trkpt lat="48.38232" lon="-3.68851">
        <ele>198</ele>
        <time>2021-07-08T11:34:58Z</time>
      </trkpt>
      <trkpt lat="48.38228" lon="-3.6885">
        <ele>198</ele>
        <time>2021-07-08T11:34:59Z</time>
      </trkpt>
      <trkpt lat="48.38225" lon="-3.68849">
        <ele>198</ele>
        <time>2021-07-08T11:35:00Z</time>
      </trkpt>
      <trkpt lat="48.38221" lon="-3.68849">
        <ele>198</ele>
        <time>2021-07-08T11:35:01Z</time>
      </trkpt>
      <trkpt lat="48.38218" lon="-3.68848">
        <ele>198</ele>
        <time>2021-07-08T11:35:02Z</time>
      </trkpt>
      <trkpt lat="48.38214" lon="-3.68848">
        <ele>198</ele>
        <time>2021-07-08T11:35:03Z</time>
      </trkpt>
      <trkpt lat="48.3821" lon="-3.68847">
        <ele>198</ele>
        <time>2021-07-08T11:35:04Z</time>
      </trkpt>
      <trkpt lat="48.38206" lon="-3.68847">
        <ele>198</ele>
        <time>2021-07-08T11:35:05Z</time>
      </trkpt>
      <trkpt lat="48.38203" lon="-3.68847">
        <ele>198</ele>
        <time>2021-07-08T11:35:06Z</time>
      </trkpt>
      <trkpt lat="48.38199" lon="-3.68846">
        <ele>198</ele>
        <time>2021-07-08T11:35:07Z</time>
      </trkpt>
      <trkpt lat="48.38195" lon="-3.68846">
        <ele>198</ele>
        <time>2021-07-08T11:35:08Z</time>
      </trkpt>
      <trkpt lat="48.3819" lon="-3.68845">
        <ele>198</ele>
        <time>2021-07-08T11:35:09Z</time>
      </trkpt>
      <trkpt lat="48.38186" lon="-3.68845">
        <ele>198</ele>
        <time>2021-07-08T11:35:09Z</time>
      </trkpt>
      <trkpt lat="48.38182" lon="-3.68844">
        <ele>198</ele>
        <time>2021-07-08T11:35:11Z</time>
      </trkpt>
      <trkpt lat="48.38178" lon="-3.68844">
        <ele>198</ele>
        <time>2021-07-08T11:35:12Z</time>
      </trkpt>
      <trkpt lat="48.38174" lon="-3.68843">
        <ele>198</ele>
        <time>2021-07-08T11:35:13Z</time>
      </trkpt>
      <trkpt lat="48.38171" lon="-3.68842">
        <ele>198</ele>
        <time>2021-07-08T11:35:14Z</time>
      </trkpt>
      <trkpt lat="48.38167" lon="-3.68842">
        <ele>197</ele>
        <time>2021-07-08T11:35:15Z</time>
      </trkpt>
      <trkpt lat="48.38163" lon="-3.68841">
        <ele>197</ele>
        <time>2021-07-08T11:35:16Z</time>
      </trkpt>
      <trkpt lat="48.38159" lon="-3.68841">
        <ele>198</ele>
        <time>2021-07-08T11:35:17Z</time>
      </trkpt>
      <trkpt lat="48.38155" lon="-3.68841">
        <ele>198</ele>
        <time>2021-07-08T11:35:18Z</time>
      </trkpt>
      <trkpt lat="48.38151" lon="-3.6884">
        <ele>198</ele>
        <time>2021-07-08T11:35:19Z</time>
      </trkpt>
      <trkpt lat="48.38147" lon="-3.6884">
        <ele>198</ele>
        <time>2021-07-08T11:35:20Z</time>
      </trkpt>
      <trkpt lat="48.38143" lon="-3.6884">
        <ele>198</ele>
        <time>2021-07-08T11:35:21Z</time>
      </trkpt>
      <trkpt lat="48.38139" lon="-3.68839">
        <ele>198</ele>
        <time>2021-07-08T11:35:22Z</time>
      </trkpt>
      <trkpt lat="48.38135" lon="-3.68839">
        <ele>198</ele>
        <time>2021-07-08T11:35:23Z</time>
      </trkpt>
      <trkpt lat="48.38131" lon="-3.68838">
        <ele>198</ele>
        <time>2021-07-08T11:35:24Z</time>
      </trkpt>
      <trkpt lat="48.38127" lon="-3.68838">
        <ele>198</ele>
        <time>2021-07-08T11:35:25Z</time>
      </trkpt>
      <trkpt lat="48.38123" lon="-3.68838">
        <ele>198</ele>
        <time>2021-07-08T11:35:26Z</time>
      </trkpt>
      <trkpt lat="48.38119" lon="-3.68838">
        <ele>198</ele>
        <time>2021-07-08T11:35:27Z</time>
      </trkpt>
      <trkpt lat="48.38115" lon="-3.68837">
        <ele>198</ele>
        <time>2021-07-08T11:35:28Z</time>
      </trkpt>
      <trkpt lat="48.38111" lon="-3.68836">
        <ele>198</ele>
        <time>2021-07-08T11:35:29Z</time>
      </trkpt>
      <trkpt lat="48.38107" lon="-3.68836">
        <ele>198</ele>
        <time>2021-07-08T11:35:30Z</time>
      </trkpt>
      <trkpt lat="48.38103" lon="-3.68836">
        <ele>198</ele>
        <time>2021-07-08T11:35:31Z</time>
      </trkpt>
      <trkpt lat="48.38099" lon="-3.68836">
        <ele>198</ele>
        <time>2021-07-08T11:35:32Z</time>
      </trkpt>
      <trkpt lat="48.38095" lon="-3.68835">
        <ele>198</ele>
        <time>2021-07-08T11:35:33Z</time>
      </trkpt>
      <trkpt lat="48.38091" lon="-3.68834">
        <ele>198</ele>
        <time>2021-07-08T11:35:34Z</time>
      </trkpt>
      <trkpt lat="48.38087" lon="-3.68833">
        <ele>198</ele>
        <time>2021-07-08T11:35:35Z</time>
      </trkpt>
      <trkpt lat="48.38082" lon="-3.68832">
        <ele>198</ele>
        <time>2021-07-08T11:35:35Z</time>
      </trkpt>
      <trkpt lat="48.38078" lon="-3.68832">
        <ele>198</ele>
        <time>2021-07-08T11:35:37Z</time>
      </trkpt>
      <trkpt lat="48.38074" lon="-3.68831">
        <ele>198</ele>
        <time>2021-07-08T11:35:38Z</time>
      </trkpt>
      <trkpt lat="48.3807" lon="-3.68831">
        <ele>198</ele>
        <time>2021-07-08T11:35:39Z</time>
      </trkpt>
      <trkpt lat="48.38066" lon="-3.6883">
        <ele>198</ele>
        <time>2021-07-08T11:35:40Z</time>
      </trkpt>
      <trkpt lat="48.38062" lon="-3.6883">
        <ele>198</ele>
        <time>2021-07-08T11:35:41Z</time>
      </trkpt>
      <trkpt lat="48.38058" lon="-3.68829">
        <ele>198</ele>
        <time>2021-07-08T11:35:42Z</time>
      </trkpt>
      <trkpt lat="48.38054" lon="-3.68829">
        <ele>198</ele>
        <time>2021-07-08T11:35:43Z</time>
      </trkpt>
      <trkpt lat="48.3805" lon="-3.68828">
        <ele>198</ele>
        <time>2021-07-08T11:35:44Z</time>
      </trkpt>
      <trkpt lat="48.38046" lon="-3.68828">
        <ele>198</ele>
        <time>2021-07-08T11:35:45Z</time>
      </trkpt>
      <trkpt lat="48.38043" lon="-3.68827">
        <ele>198</ele>
        <time>2021-07-08T11:35:46Z</time>
      </trkpt>
      <trkpt lat="48.38039" lon="-3.68827">
        <ele>198</ele>
        <time>2021-07-08T11:35:47Z</time>
      </trkpt>
      <trkpt lat="48.38036" lon="-3.68826">
        <ele>198</ele>
        <time>2021-07-08T11:35:49Z</time>
      </trkpt>
      <trkpt lat="48.38032" lon="-3.68826">
        <ele>198</ele>
        <time>2021-07-08T11:35:49Z</time>
      </trkpt>
      <trkpt lat="48.38029" lon="-3.68826">
        <ele>198</ele>
        <time>2021-07-08T11:35:50Z</time>
      </trkpt>
      <trkpt lat="48.38026" lon="-3.68825">
        <ele>198</ele>
        <time>2021-07-08T11:35:51Z</time>
      </trkpt>
      <trkpt lat="48.38024" lon="-3.68825">
        <ele>198</ele>
        <time>2021-07-08T11:35:52Z</time>
      </trkpt>
      <trkpt lat="48.38021" lon="-3.68824">
        <ele>197</ele>
        <time>2021-07-08T11:35:53Z</time>
      </trkpt>
      <trkpt lat="48.38018" lon="-3.68823">
        <ele>197</ele>
        <time>2021-07-08T11:35:54Z</time>
      </trkpt>
      <trkpt lat="48.38015" lon="-3.68822">
        <ele>197</ele>
        <time>2021-07-08T11:35:55Z</time>
      </trkpt>
      <trkpt lat="48.38013" lon="-3.68822">
        <ele>197</ele>
        <time>2021-07-08T11:35:56Z</time>
      </trkpt>
      <trkpt lat="48.3801" lon="-3.68821">
        <ele>198</ele>
        <time>2021-07-08T11:35:57Z</time>
      </trkpt>
      <trkpt lat="48.38008" lon="-3.6882">
        <ele>198</ele>
        <time>2021-07-08T11:35:58Z</time>
      </trkpt>
      <trkpt lat="48.38005" lon="-3.68819">
        <ele>198</ele>
        <time>2021-07-08T11:35:59Z</time>
      </trkpt>
      <trkpt lat="48.38003" lon="-3.68819">
        <ele>197</ele>
        <time>2021-07-08T11:36:00Z</time>
      </trkpt>
      <trkpt lat="48.38" lon="-3.68818">
        <ele>197</ele>
        <time>2021-07-08T11:36:01Z</time>
      </trkpt>
      <trkpt lat="48.37997" lon="-3.68817">
        <ele>197</ele>
        <time>2021-07-08T11:36:02Z</time>
      </trkpt>
      <trkpt lat="48.37994" lon="-3.68816">
        <ele>198</ele>
        <time>2021-07-08T11:36:03Z</time>
      </trkpt>
      <trkpt lat="48.37991" lon="-3.68815">
        <ele>198</ele>
        <time>2021-07-08T11:36:04Z</time>
      </trkpt>
      <trkpt lat="48.37988" lon="-3.68814">
        <ele>198</ele>
        <time>2021-07-08T11:36:05Z</time>
      </trkpt>
      <trkpt lat="48.37981" lon="-3.68811">
        <ele>198</ele>
        <time>2021-07-08T11:36:07Z</time>
      </trkpt>
      <trkpt lat="48.37978" lon="-3.6881">
        <ele>198</ele>
        <time>2021-07-08T11:36:08Z</time>
      </trkpt>
      <trkpt lat="48.37975" lon="-3.68808">
        <ele>198</ele>
        <time>2021-07-08T11:36:09Z</time>
      </trkpt>
      <trkpt lat="48.37972" lon="-3.68807">
        <ele>198</ele>
        <time>2021-07-08T11:36:10Z</time>
      </trkpt>
      <trkpt lat="48.37968" lon="-3.68806">
        <ele>198</ele>
        <time>2021-07-08T11:36:11Z</time>
      </trkpt>
      <trkpt lat="48.37965" lon="-3.68804">
        <ele>198</ele>
        <time>2021-07-08T11:36:12Z</time>
      </trkpt>
      <trkpt lat="48.37961" lon="-3.68802">
        <ele>198</ele>
        <time>2021-07-08T11:36:13Z</time>
      </trkpt>
      <trkpt lat="48.37958" lon="-3.688">
        <ele>198</ele>
        <time>2021-07-08T11:36:14Z</time>
      </trkpt>
      <trkpt lat="48.37954" lon="-3.68799">
        <ele>198</ele>
        <time>2021-07-08T11:36:15Z</time>
      </trkpt>
      <trkpt lat="48.37951" lon="-3.68797">
        <ele>198</ele>
        <time>2021-07-08T11:36:16Z</time>
      </trkpt>
      <trkpt lat="48.37947" lon="-3.68795">
        <ele>198</ele>
        <time>2021-07-08T11:36:17Z</time>
      </trkpt>
      <trkpt lat="48.37943" lon="-3.68793">
        <ele>198</ele>
        <time>2021-07-08T11:36:18Z</time>
      </trkpt>
      <trkpt lat="48.3794" lon="-3.68792">
        <ele>198</ele>
        <time>2021-07-08T11:36:19Z</time>
      </trkpt>
      <trkpt lat="48.37936" lon="-3.6879">
        <ele>198</ele>
        <time>2021-07-08T11:36:20Z</time>
      </trkpt>
      <trkpt lat="48.37933" lon="-3.68788">
        <ele>198</ele>
        <time>2021-07-08T11:36:21Z</time>
      </trkpt>
      <trkpt lat="48.37929" lon="-3.68786">
        <ele>198</ele>
        <time>2021-07-08T11:36:22Z</time>
      </trkpt>
      <trkpt lat="48.37926" lon="-3.68784">
        <ele>198</ele>
        <time>2021-07-08T11:36:23Z</time>
      </trkpt>
      <trkpt lat="48.37918" lon="-3.6878">
        <ele>198</ele>
        <time>2021-07-08T11:36:24Z</time>
      </trkpt>
      <trkpt lat="48.37915" lon="-3.68778">
        <ele>198</ele>
        <time>2021-07-08T11:36:26Z</time>
      </trkpt>
      <trkpt lat="48.37911" lon="-3.68776">
        <ele>198</ele>
        <time>2021-07-08T11:36:27Z</time>
      </trkpt>
      <trkpt lat="48.37908" lon="-3.68774">
        <ele>198</ele>
        <time>2021-07-08T11:36:28Z</time>
      </trkpt>
      <trkpt lat="48.37904" lon="-3.68772">
        <ele>198</ele>
        <time>2021-07-08T11:36:29Z</time>
      </trkpt>
      <trkpt lat="48.379" lon="-3.68771">
        <ele>198</ele>
        <time>2021-07-08T11:36:30Z</time>
      </trkpt>
      <trkpt lat="48.37897" lon="-3.68769">
        <ele>198</ele>
        <time>2021-07-08T11:36:31Z</time>
      </trkpt>
      <trkpt lat="48.37893" lon="-3.68767">
        <ele>198</ele>
        <time>2021-07-08T11:36:32Z</time>
      </trkpt>
      <trkpt lat="48.3789" lon="-3.68765">
        <ele>198</ele>
        <time>2021-07-08T11:36:33Z</time>
      </trkpt>
      <trkpt lat="48.37886" lon="-3.68763">
        <ele>198</ele>
        <time>2021-07-08T11:36:34Z</time>
      </trkpt>
      <trkpt lat="48.37882" lon="-3.68761">
        <ele>197</ele>
        <time>2021-07-08T11:36:35Z</time>
      </trkpt>
      <trkpt lat="48.37879" lon="-3.68759">
        <ele>197</ele>
        <time>2021-07-08T11:36:36Z</time>
      </trkpt>
      <trkpt lat="48.37875" lon="-3.68757">
        <ele>198</ele>
        <time>2021-07-08T11:36:37Z</time>
      </trkpt>
      <trkpt lat="48.37872" lon="-3.68755">
        <ele>198</ele>
        <time>2021-07-08T11:36:38Z</time>
      </trkpt>
      <trkpt lat="48.37868" lon="-3.68753">
        <ele>198</ele>
        <time>2021-07-08T11:36:39Z</time>
      </trkpt>
      <trkpt lat="48.37865" lon="-3.68752">
        <ele>198</ele>
        <time>2021-07-08T11:36:40Z</time>
      </trkpt>
      <trkpt lat="48.37861" lon="-3.68749">
        <ele>198</ele>
        <time>2021-07-08T11:36:41Z</time>
      </trkpt>
      <trkpt lat="48.37857" lon="-3.68747">
        <ele>198</ele>
        <time>2021-07-08T11:36:42Z</time>
      </trkpt>
      <trkpt lat="48.37853" lon="-3.68745">
        <ele>198</ele>
        <time>2021-07-08T11:36:43Z</time>
      </trkpt>
      <trkpt lat="48.37849" lon="-3.68743">
        <ele>198</ele>
        <time>2021-07-08T11:36:44Z</time>
      </trkpt>
      <trkpt lat="48.37845" lon="-3.68741">
        <ele>198</ele>
        <time>2021-07-08T11:36:44Z</time>
      </trkpt>
      <trkpt lat="48.37841" lon="-3.68739">
        <ele>198</ele>
        <time>2021-07-08T11:36:46Z</time>
      </trkpt>
      <trkpt lat="48.37837" lon="-3.68737">
        <ele>198</ele>
        <time>2021-07-08T11:36:47Z</time>
      </trkpt>
      <trkpt lat="48.37833" lon="-3.68734">
        <ele>198</ele>
        <time>2021-07-08T11:36:48Z</time>
      </trkpt>
      <trkpt lat="48.37829" lon="-3.68732">
        <ele>198</ele>
        <time>2021-07-08T11:36:49Z</time>
      </trkpt>
      <trkpt lat="48.37825" lon="-3.6873">
        <ele>198</ele>
        <time>2021-07-08T11:36:50Z</time>
      </trkpt>
      <trkpt lat="48.37821" lon="-3.68728">
        <ele>198</ele>
        <time>2021-07-08T11:36:51Z</time>
      </trkpt>
      <trkpt lat="48.37817" lon="-3.68726">
        <ele>197</ele>
        <time>2021-07-08T11:36:52Z</time>
      </trkpt>
      <trkpt lat="48.37814" lon="-3.68724">
        <ele>197</ele>
        <time>2021-07-08T11:36:53Z</time>
      </trkpt>
      <trkpt lat="48.3781" lon="-3.68722">
        <ele>197</ele>
        <time>2021-07-08T11:36:54Z</time>
      </trkpt>
      <trkpt lat="48.37806" lon="-3.6872">
        <ele>197</ele>
        <time>2021-07-08T11:36:55Z</time>
      </trkpt>
      <trkpt lat="48.37803" lon="-3.68718">
        <ele>197</ele>
        <time>2021-07-08T11:36:56Z</time>
      </trkpt>
      <trkpt lat="48.37799" lon="-3.68716">
        <ele>197</ele>
        <time>2021-07-08T11:36:57Z</time>
      </trkpt>
      <trkpt lat="48.37795" lon="-3.68715">
        <ele>197</ele>
        <time>2021-07-08T11:36:58Z</time>
      </trkpt>
      <trkpt lat="48.37792" lon="-3.68713">
        <ele>197</ele>
        <time>2021-07-08T11:36:59Z</time>
      </trkpt>
      <trkpt lat="48.37788" lon="-3.68711">
        <ele>197</ele>
        <time>2021-07-08T11:37:00Z</time>
      </trkpt>
      <trkpt lat="48.37784" lon="-3.68709">
        <ele>197</ele>
        <time>2021-07-08T11:37:00Z</time>
      </trkpt>
      <trkpt lat="48.3778" lon="-3.68707">
        <ele>197</ele>
        <time>2021-07-08T11:37:02Z</time>
      </trkpt>
      <trkpt lat="48.37776" lon="-3.68705">
        <ele>197</ele>
        <time>2021-07-08T11:37:03Z</time>
      </trkpt>
      <trkpt lat="48.37772" lon="-3.68702">
        <ele>197</ele>
        <time>2021-07-08T11:37:04Z</time>
      </trkpt>
      <trkpt lat="48.37768" lon="-3.687">
        <ele>197</ele>
        <time>2021-07-08T11:37:05Z</time>
      </trkpt>
      <trkpt lat="48.37764" lon="-3.68698">
        <ele>197</ele>
        <time>2021-07-08T11:37:06Z</time>
      </trkpt>
      <trkpt lat="48.3776" lon="-3.68696">
        <ele>197</ele>
        <time>2021-07-08T11:37:07Z</time>
      </trkpt>
      <trkpt lat="48.37756" lon="-3.68694">
        <ele>197</ele>
        <time>2021-07-08T11:37:08Z</time>
      </trkpt>
      <trkpt lat="48.37753" lon="-3.68692">
        <ele>197</ele>
        <time>2021-07-08T11:37:09Z</time>
      </trkpt>
      <trkpt lat="48.37749" lon="-3.6869">
        <ele>197</ele>
        <time>2021-07-08T11:37:10Z</time>
      </trkpt>
      <trkpt lat="48.37745" lon="-3.68688">
        <ele>197</ele>
        <time>2021-07-08T11:37:11Z</time>
      </trkpt>
      <trkpt lat="48.37741" lon="-3.68685">
        <ele>197</ele>
        <time>2021-07-08T11:37:12Z</time>
      </trkpt>
      <trkpt lat="48.37736" lon="-3.68683">
        <ele>197</ele>
        <time>2021-07-08T11:37:13Z</time>
      </trkpt>
      <trkpt lat="48.37732" lon="-3.6868">
        <ele>197</ele>
        <time>2021-07-08T11:37:14Z</time>
      </trkpt>
      <trkpt lat="48.37728" lon="-3.68678">
        <ele>197</ele>
        <time>2021-07-08T11:37:15Z</time>
      </trkpt>
      <trkpt lat="48.37724" lon="-3.68676">
        <ele>197</ele>
        <time>2021-07-08T11:37:16Z</time>
      </trkpt>
      <trkpt lat="48.3772" lon="-3.68674">
        <ele>197</ele>
        <time>2021-07-08T11:37:17Z</time>
      </trkpt>
      <trkpt lat="48.37716" lon="-3.68672">
        <ele>197</ele>
        <time>2021-07-08T11:37:18Z</time>
      </trkpt>
      <trkpt lat="48.37712" lon="-3.6867">
        <ele>197</ele>
        <time>2021-07-08T11:37:18Z</time>
      </trkpt>
      <trkpt lat="48.37708" lon="-3.68668">
        <ele>197</ele>
        <time>2021-07-08T11:37:20Z</time>
      </trkpt>
      <trkpt lat="48.37705" lon="-3.68666">
        <ele>197</ele>
        <time>2021-07-08T11:37:21Z</time>
      </trkpt>
      <trkpt lat="48.37702" lon="-3.68664">
        <ele>197</ele>
        <time>2021-07-08T11:37:22Z</time>
      </trkpt>
      <trkpt lat="48.37699" lon="-3.68662">
        <ele>197</ele>
        <time>2021-07-08T11:37:23Z</time>
      </trkpt>
      <trkpt lat="48.37696" lon="-3.6866">
        <ele>197</ele>
        <time>2021-07-08T11:37:24Z</time>
      </trkpt>
      <trkpt lat="48.37693" lon="-3.68658">
        <ele>197</ele>
        <time>2021-07-08T11:37:25Z</time>
      </trkpt>
      <trkpt lat="48.37689" lon="-3.68656">
        <ele>197</ele>
        <time>2021-07-08T11:37:26Z</time>
      </trkpt>
      <trkpt lat="48.37685" lon="-3.68654">
        <ele>197</ele>
        <time>2021-07-08T11:37:27Z</time>
      </trkpt>
      <trkpt lat="48.37681" lon="-3.68653">
        <ele>197</ele>
        <time>2021-07-08T11:37:28Z</time>
      </trkpt>
      <trkpt lat="48.37678" lon="-3.68651">
        <ele>197</ele>
        <time>2021-07-08T11:37:29Z</time>
      </trkpt>
      <trkpt lat="48.37675" lon="-3.68649">
        <ele>197</ele>
        <time>2021-07-08T11:37:30Z</time>
      </trkpt>
      <trkpt lat="48.37671" lon="-3.68647">
        <ele>197</ele>
        <time>2021-07-08T11:37:31Z</time>
      </trkpt>
      <trkpt lat="48.37667" lon="-3.68645">
        <ele>196</ele>
        <time>2021-07-08T11:37:32Z</time>
      </trkpt>
      <trkpt lat="48.37663" lon="-3.68643">
        <ele>196</ele>
        <time>2021-07-08T11:37:33Z</time>
      </trkpt>
      <trkpt lat="48.37659" lon="-3.68642">
        <ele>196</ele>
        <time>2021-07-08T11:37:34Z</time>
      </trkpt>
      <trkpt lat="48.37655" lon="-3.6864">
        <ele>196</ele>
        <time>2021-07-08T11:37:35Z</time>
      </trkpt>
      <trkpt lat="48.37651" lon="-3.68639">
        <ele>196</ele>
        <time>2021-07-08T11:37:36Z</time>
      </trkpt>
      <trkpt lat="48.37645" lon="-3.68637">
        <ele>196</ele>
        <time>2021-07-08T11:37:37Z</time>
      </trkpt>
      <trkpt lat="48.37641" lon="-3.68635">
        <ele>196</ele>
        <time>2021-07-08T11:37:38Z</time>
      </trkpt>
      <trkpt lat="48.37636" lon="-3.68632">
        <ele>196</ele>
        <time>2021-07-08T11:37:39Z</time>
      </trkpt>
      <trkpt lat="48.37632" lon="-3.6863">
        <ele>196</ele>
        <time>2021-07-08T11:37:40Z</time>
      </trkpt>
      <trkpt lat="48.37627" lon="-3.68627">
        <ele>196</ele>
        <time>2021-07-08T11:37:41Z</time>
      </trkpt>
      <trkpt lat="48.37623" lon="-3.68625">
        <ele>196</ele>
        <time>2021-07-08T11:37:42Z</time>
      </trkpt>
      <trkpt lat="48.3762" lon="-3.68622">
        <ele>196</ele>
        <time>2021-07-08T11:37:43Z</time>
      </trkpt>
      <trkpt lat="48.37616" lon="-3.68619">
        <ele>196</ele>
        <time>2021-07-08T11:37:44Z</time>
      </trkpt>
      <trkpt lat="48.37613" lon="-3.68616">
        <ele>196</ele>
        <time>2021-07-08T11:37:45Z</time>
      </trkpt>
      <trkpt lat="48.37609" lon="-3.68614">
        <ele>196</ele>
        <time>2021-07-08T11:37:46Z</time>
      </trkpt>
      <trkpt lat="48.37605" lon="-3.68612">
        <ele>196</ele>
        <time>2021-07-08T11:37:47Z</time>
      </trkpt>
      <trkpt lat="48.37601" lon="-3.68611">
        <ele>196</ele>
        <time>2021-07-08T11:37:48Z</time>
      </trkpt>
      <trkpt lat="48.37597" lon="-3.68609">
        <ele>196</ele>
        <time>2021-07-08T11:37:49Z</time>
      </trkpt>
      <trkpt lat="48.37593" lon="-3.68607">
        <ele>196</ele>
        <time>2021-07-08T11:37:50Z</time>
      </trkpt>
      <trkpt lat="48.37588" lon="-3.68605">
        <ele>196</ele>
        <time>2021-07-08T11:37:51Z</time>
      </trkpt>
      <trkpt lat="48.37584" lon="-3.68603">
        <ele>196</ele>
        <time>2021-07-08T11:37:52Z</time>
      </trkpt>
      <trkpt lat="48.3758" lon="-3.68601">
        <ele>196</ele>
        <time>2021-07-08T11:37:53Z</time>
      </trkpt>
      <trkpt lat="48.37576" lon="-3.68598">
        <ele>196</ele>
        <time>2021-07-08T11:37:54Z</time>
      </trkpt>
      <trkpt lat="48.37572" lon="-3.68596">
        <ele>196</ele>
        <time>2021-07-08T11:37:55Z</time>
      </trkpt>
      <trkpt lat="48.37568" lon="-3.68594">
        <ele>196</ele>
        <time>2021-07-08T11:37:56Z</time>
      </trkpt>
      <trkpt lat="48.37563" lon="-3.68591">
        <ele>196</ele>
        <time>2021-07-08T11:37:57Z</time>
      </trkpt>
      <trkpt lat="48.37559" lon="-3.68589">
        <ele>196</ele>
        <time>2021-07-08T11:37:58Z</time>
      </trkpt>
      <trkpt lat="48.37554" lon="-3.68587">
        <ele>196</ele>
        <time>2021-07-08T11:37:59Z</time>
      </trkpt>
      <trkpt lat="48.3755" lon="-3.68585">
        <ele>196</ele>
        <time>2021-07-08T11:38:00Z</time>
      </trkpt>
      <trkpt lat="48.37546" lon="-3.68583">
        <ele>196</ele>
        <time>2021-07-08T11:38:00Z</time>
      </trkpt>
      <trkpt lat="48.37542" lon="-3.6858">
        <ele>196</ele>
        <time>2021-07-08T11:38:02Z</time>
      </trkpt>
      <trkpt lat="48.37538" lon="-3.68578">
        <ele>196</ele>
        <time>2021-07-08T11:38:03Z</time>
      </trkpt>
      <trkpt lat="48.37534" lon="-3.68576">
        <ele>196</ele>
        <time>2021-07-08T11:38:04Z</time>
      </trkpt>
      <trkpt lat="48.3753" lon="-3.68574">
        <ele>196</ele>
        <time>2021-07-08T11:38:05Z</time>
      </trkpt>
      <trkpt lat="48.37526" lon="-3.68572">
        <ele>196</ele>
        <time>2021-07-08T11:38:06Z</time>
      </trkpt>
      <trkpt lat="48.37522" lon="-3.6857">
        <ele>196</ele>
        <time>2021-07-08T11:38:07Z</time>
      </trkpt>
      <trkpt lat="48.37518" lon="-3.68568">
        <ele>196</ele>
        <time>2021-07-08T11:38:08Z</time>
      </trkpt>
      <trkpt lat="48.37514" lon="-3.68566">
        <ele>195</ele>
        <time>2021-07-08T11:38:09Z</time>
      </trkpt>
      <trkpt lat="48.3751" lon="-3.68563">
        <ele>195</ele>
        <time>2021-07-08T11:38:10Z</time>
      </trkpt>
      <trkpt lat="48.37506" lon="-3.68561">
        <ele>195</ele>
        <time>2021-07-08T11:38:11Z</time>
      </trkpt>
      <trkpt lat="48.37502" lon="-3.68558">
        <ele>195</ele>
        <time>2021-07-08T11:38:12Z</time>
      </trkpt>
      <trkpt lat="48.37495" lon="-3.68554">
        <ele>195</ele>
        <time>2021-07-08T11:38:13Z</time>
      </trkpt>
      <trkpt lat="48.3749" lon="-3.68552">
        <ele>195</ele>
        <time>2021-07-08T11:38:15Z</time>
      </trkpt>
      <trkpt lat="48.37486" lon="-3.6855">
        <ele>195</ele>
        <time>2021-07-08T11:38:16Z</time>
      </trkpt>
      <trkpt lat="48.37481" lon="-3.68548">
        <ele>195</ele>
        <time>2021-07-08T11:38:17Z</time>
      </trkpt>
      <trkpt lat="48.37477" lon="-3.68546">
        <ele>195</ele>
        <time>2021-07-08T11:38:18Z</time>
      </trkpt>
      <trkpt lat="48.37473" lon="-3.68544">
        <ele>195</ele>
        <time>2021-07-08T11:38:19Z</time>
      </trkpt>
      <trkpt lat="48.37468" lon="-3.68542">
        <ele>195</ele>
        <time>2021-07-08T11:38:20Z</time>
      </trkpt>
      <trkpt lat="48.37464" lon="-3.68541">
        <ele>195</ele>
        <time>2021-07-08T11:38:21Z</time>
      </trkpt>
      <trkpt lat="48.3746" lon="-3.68539">
        <ele>195</ele>
        <time>2021-07-08T11:38:22Z</time>
      </trkpt>
      <trkpt lat="48.37456" lon="-3.68537">
        <ele>195</ele>
        <time>2021-07-08T11:38:23Z</time>
      </trkpt>
      <trkpt lat="48.37452" lon="-3.68535">
        <ele>195</ele>
        <time>2021-07-08T11:38:24Z</time>
      </trkpt>
      <trkpt lat="48.37448" lon="-3.68533">
        <ele>194</ele>
        <time>2021-07-08T11:38:25Z</time>
      </trkpt>
      <trkpt lat="48.37444" lon="-3.68531">
        <ele>194</ele>
        <time>2021-07-08T11:38:26Z</time>
      </trkpt>
      <trkpt lat="48.3744" lon="-3.6853">
        <ele>194</ele>
        <time>2021-07-08T11:38:27Z</time>
      </trkpt>
      <trkpt lat="48.37436" lon="-3.68528">
        <ele>194</ele>
        <time>2021-07-08T11:38:28Z</time>
      </trkpt>
      <trkpt lat="48.37432" lon="-3.68526">
        <ele>194</ele>
        <time>2021-07-08T11:38:29Z</time>
      </trkpt>
      <trkpt lat="48.37428" lon="-3.68523">
        <ele>194</ele>
        <time>2021-07-08T11:38:30Z</time>
      </trkpt>
      <trkpt lat="48.37424" lon="-3.68521">
        <ele>194</ele>
        <time>2021-07-08T11:38:31Z</time>
      </trkpt>
      <trkpt lat="48.3742" lon="-3.68519">
        <ele>194</ele>
        <time>2021-07-08T11:38:32Z</time>
      </trkpt>
      <trkpt lat="48.37415" lon="-3.68517">
        <ele>194</ele>
        <time>2021-07-08T11:38:33Z</time>
      </trkpt>
      <trkpt lat="48.37411" lon="-3.68515">
        <ele>194</ele>
        <time>2021-07-08T11:38:34Z</time>
      </trkpt>
      <trkpt lat="48.37407" lon="-3.68512">
        <ele>194</ele>
        <time>2021-07-08T11:38:35Z</time>
      </trkpt>
      <trkpt lat="48.37403" lon="-3.6851">
        <ele>194</ele>
        <time>2021-07-08T11:38:36Z</time>
      </trkpt>
      <trkpt lat="48.37399" lon="-3.68507">
        <ele>194</ele>
        <time>2021-07-08T11:38:37Z</time>
      </trkpt>
      <trkpt lat="48.37395" lon="-3.68504">
        <ele>194</ele>
        <time>2021-07-08T11:38:38Z</time>
      </trkpt>
      <trkpt lat="48.37392" lon="-3.68502">
        <ele>194</ele>
        <time>2021-07-08T11:38:38Z</time>
      </trkpt>
      <trkpt lat="48.37388" lon="-3.68499">
        <ele>194</ele>
        <time>2021-07-08T11:38:40Z</time>
      </trkpt>
      <trkpt lat="48.37384" lon="-3.68496">
        <ele>194</ele>
        <time>2021-07-08T11:38:41Z</time>
      </trkpt>
      <trkpt lat="48.3738" lon="-3.68492">
        <ele>194</ele>
        <time>2021-07-08T11:38:42Z</time>
      </trkpt>
      <trkpt lat="48.37376" lon="-3.68489">
        <ele>194</ele>
        <time>2021-07-08T11:38:43Z</time>
      </trkpt>
      <trkpt lat="48.37373" lon="-3.68485">
        <ele>194</ele>
        <time>2021-07-08T11:38:44Z</time>
      </trkpt>
      <trkpt lat="48.37369" lon="-3.68482">
        <ele>194</ele>
        <time>2021-07-08T11:38:45Z</time>
      </trkpt>
      <trkpt lat="48.37365" lon="-3.68478">
        <ele>194</ele>
        <time>2021-07-08T11:38:46Z</time>
      </trkpt>
      <trkpt lat="48.37362" lon="-3.68475">
        <ele>194</ele>
        <time>2021-07-08T11:38:47Z</time>
      </trkpt>
      <trkpt lat="48.37352" lon="-3.68464">
        <ele>194</ele>
        <time>2021-07-08T11:38:50Z</time>
      </trkpt>
      <trkpt lat="48.37343" lon="-3.68454">
        <ele>194</ele>
        <time>2021-07-08T11:38:53Z</time>
      </trkpt>
      <trkpt lat="48.37332" lon="-3.68442">
        <ele>194</ele>
        <time>2021-07-08T11:38:56Z</time>
      </trkpt>
      <trkpt lat="48.37325" lon="-3.68433">
        <ele>194</ele>
        <time>2021-07-08T11:38:58Z</time>
      </trkpt>
      <trkpt lat="48.37317" lon="-3.68422">
        <ele>194</ele>
        <time>2021-07-08T11:39:00Z</time>
      </trkpt>
      <trkpt lat="48.37311" lon="-3.68411">
        <ele>194</ele>
        <time>2021-07-08T11:39:02Z</time>
      </trkpt>
      <trkpt lat="48.37305" lon="-3.684">
        <ele>193</ele>
        <time>2021-07-08T11:39:03Z</time>
      </trkpt>
      <trkpt lat="48.37298" lon="-3.68384">
        <ele>193</ele>
        <time>2021-07-08T11:39:07Z</time>
      </trkpt>
      <trkpt lat="48.37292" lon="-3.68367">
        <ele>193</ele>
        <time>2021-07-08T11:39:09Z</time>
      </trkpt>
      <trkpt lat="48.37285" lon="-3.68353">
        <ele>193</ele>
        <time>2021-07-08T11:39:13Z</time>
      </trkpt>
      <trkpt lat="48.37277" lon="-3.6834">
        <ele>193</ele>
        <time>2021-07-08T11:39:15Z</time>
      </trkpt>
      <trkpt lat="48.37274" lon="-3.68331">
        <ele>193</ele>
        <time>2021-07-08T11:39:18Z</time>
      </trkpt>
      <trkpt lat="48.37273" lon="-3.68327">
        <ele>193</ele>
        <time>2021-07-08T11:39:19Z</time>
      </trkpt>
      <trkpt lat="48.37271" lon="-3.68323">
        <ele>193</ele>
        <time>2021-07-08T11:39:20Z</time>
      </trkpt>
      <trkpt lat="48.3727" lon="-3.68318">
        <ele>193</ele>
        <time>2021-07-08T11:39:21Z</time>
      </trkpt>
      <trkpt lat="48.37269" lon="-3.68313">
        <ele>193</ele>
        <time>2021-07-08T11:39:22Z</time>
      </trkpt>
      <trkpt lat="48.37267" lon="-3.68309">
        <ele>193</ele>
        <time>2021-07-08T11:39:23Z</time>
      </trkpt>
      <trkpt lat="48.37265" lon="-3.68305">
        <ele>193</ele>
        <time>2021-07-08T11:39:24Z</time>
      </trkpt>
      <trkpt lat="48.37264" lon="-3.683">
        <ele>193</ele>
        <time>2021-07-08T11:39:25Z</time>
      </trkpt>
      <trkpt lat="48.37263" lon="-3.68296">
        <ele>193</ele>
        <time>2021-07-08T11:39:26Z</time>
      </trkpt>
      <trkpt lat="48.37262" lon="-3.68291">
        <ele>193</ele>
        <time>2021-07-08T11:39:27Z</time>
      </trkpt>
      <trkpt lat="48.37261" lon="-3.68287">
        <ele>193</ele>
        <time>2021-07-08T11:39:28Z</time>
      </trkpt>
      <trkpt lat="48.3726" lon="-3.68284">
        <ele>193</ele>
        <time>2021-07-08T11:39:29Z</time>
      </trkpt>
      <trkpt lat="48.37259" lon="-3.6828">
        <ele>193</ele>
        <time>2021-07-08T11:39:30Z</time>
      </trkpt>
      <trkpt lat="48.37258" lon="-3.68277">
        <ele>193</ele>
        <time>2021-07-08T11:39:31Z</time>
      </trkpt>
      <trkpt lat="48.37255" lon="-3.68271">
        <ele>193</ele>
        <time>2021-07-08T11:39:33Z</time>
      </trkpt>
      <trkpt lat="48.3725" lon="-3.68259">
        <ele>193</ele>
        <time>2021-07-08T11:39:37Z</time>
      </trkpt>
      <trkpt lat="48.37246" lon="-3.68254">
        <ele>193</ele>
        <time>2021-07-08T11:39:39Z</time>
      </trkpt>
      <trkpt lat="48.37244" lon="-3.68251">
        <ele>193</ele>
        <time>2021-07-08T11:39:40Z</time>
      </trkpt>
      <trkpt lat="48.37243" lon="-3.68249">
        <ele>193</ele>
        <time>2021-07-08T11:39:41Z</time>
      </trkpt>
      <trkpt lat="48.37242" lon="-3.68245">
        <ele>193</ele>
        <time>2021-07-08T11:39:43Z</time>
      </trkpt>
      <trkpt lat="48.37241" lon="-3.68241">
        <ele>193</ele>
        <time>2021-07-08T11:39:45Z</time>
      </trkpt>
      <trkpt lat="48.3724" lon="-3.68237">
        <ele>193</ele>
        <time>2021-07-08T11:39:47Z</time>
      </trkpt>
      <trkpt lat="48.37239" lon="-3.68233">
        <ele>193</ele>
        <time>2021-07-08T11:39:49Z</time>
      </trkpt>
      <trkpt lat="48.37238" lon="-3.68229">
        <ele>193</ele>
        <time>2021-07-08T11:39:51Z</time>
      </trkpt>
      <trkpt lat="48.37237" lon="-3.68226">
        <ele>193</ele>
        <time>2021-07-08T11:39:53Z</time>
      </trkpt>
      <trkpt lat="48.37236" lon="-3.68222">
        <ele>193</ele>
        <time>2021-07-08T11:39:54Z</time>
      </trkpt>
      <trkpt lat="48.37234" lon="-3.68217">
        <ele>193</ele>
        <time>2021-07-08T11:39:57Z</time>
      </trkpt>
      <trkpt lat="48.37233" lon="-3.68212">
        <ele>193</ele>
        <time>2021-07-08T11:39:59Z</time>
      </trkpt>
      <trkpt lat="48.37232" lon="-3.68208">
        <ele>193</ele>
        <time>2021-07-08T11:40:01Z</time>
      </trkpt>
      <trkpt lat="48.37231" lon="-3.68206">
        <ele>193</ele>
        <time>2021-07-08T11:40:02Z</time>
      </trkpt>
      <trkpt lat="48.3723" lon="-3.68203">
        <ele>193</ele>
        <time>2021-07-08T11:40:03Z</time>
      </trkpt>
      <trkpt lat="48.3723" lon="-3.68201">
        <ele>193</ele>
        <time>2021-07-08T11:40:04Z</time>
      </trkpt>
      <trkpt lat="48.37228" lon="-3.68195">
        <ele>193</ele>
        <time>2021-07-08T11:40:05Z</time>
      </trkpt>
      <trkpt lat="48.37227" lon="-3.68193">
        <ele>193</ele>
        <time>2021-07-08T11:40:07Z</time>
      </trkpt>
      <trkpt lat="48.37226" lon="-3.6819">
        <ele>193</ele>
        <time>2021-07-08T11:40:08Z</time>
      </trkpt>
      <trkpt lat="48.37225" lon="-3.68187">
        <ele>193</ele>
        <time>2021-07-08T11:40:09Z</time>
      </trkpt>
      <trkpt lat="48.37224" lon="-3.68184">
        <ele>193</ele>
        <time>2021-07-08T11:40:10Z</time>
      </trkpt>
      <trkpt lat="48.37223" lon="-3.68181">
        <ele>193</ele>
        <time>2021-07-08T11:40:11Z</time>
      </trkpt>
      <trkpt lat="48.37221" lon="-3.68177">
        <ele>193</ele>
        <time>2021-07-08T11:40:12Z</time>
      </trkpt>
      <trkpt lat="48.3722" lon="-3.68174">
        <ele>193</ele>
        <time>2021-07-08T11:40:13Z</time>
      </trkpt>
      <trkpt lat="48.37219" lon="-3.6817">
        <ele>193</ele>
        <time>2021-07-08T11:40:13Z</time>
      </trkpt>
      <trkpt lat="48.37217" lon="-3.68166">
        <ele>193</ele>
        <time>2021-07-08T11:40:15Z</time>
      </trkpt>
      <trkpt lat="48.37216" lon="-3.68163">
        <ele>193</ele>
        <time>2021-07-08T11:40:16Z</time>
      </trkpt>
      <trkpt lat="48.37215" lon="-3.6816">
        <ele>193</ele>
        <time>2021-07-08T11:40:17Z</time>
      </trkpt>
      <trkpt lat="48.37213" lon="-3.68156">
        <ele>193</ele>
        <time>2021-07-08T11:40:18Z</time>
      </trkpt>
      <trkpt lat="48.37212" lon="-3.68153">
        <ele>193</ele>
        <time>2021-07-08T11:40:19Z</time>
      </trkpt>
      <trkpt lat="48.37211" lon="-3.6815">
        <ele>193</ele>
        <time>2021-07-08T11:40:20Z</time>
      </trkpt>
      <trkpt lat="48.3721" lon="-3.68147">
        <ele>193</ele>
        <time>2021-07-08T11:40:21Z</time>
      </trkpt>
      <trkpt lat="48.37208" lon="-3.68144">
        <ele>193</ele>
        <time>2021-07-08T11:40:22Z</time>
      </trkpt>
      <trkpt lat="48.37206" lon="-3.6814">
        <ele>193</ele>
        <time>2021-07-08T11:40:23Z</time>
      </trkpt>
      <trkpt lat="48.37205" lon="-3.68136">
        <ele>193</ele>
        <time>2021-07-08T11:40:24Z</time>
      </trkpt>
      <trkpt lat="48.37203" lon="-3.68132">
        <ele>193</ele>
        <time>2021-07-08T11:40:25Z</time>
      </trkpt>
      <trkpt lat="48.37201" lon="-3.68129">
        <ele>193</ele>
        <time>2021-07-08T11:40:26Z</time>
      </trkpt>
      <trkpt lat="48.37198" lon="-3.68126">
        <ele>193</ele>
        <time>2021-07-08T11:40:27Z</time>
      </trkpt>
      <trkpt lat="48.37196" lon="-3.68122">
        <ele>193</ele>
        <time>2021-07-08T11:40:28Z</time>
      </trkpt>
      <trkpt lat="48.37193" lon="-3.68118">
        <ele>193</ele>
        <time>2021-07-08T11:40:29Z</time>
      </trkpt>
      <trkpt lat="48.37191" lon="-3.68115">
        <ele>193</ele>
        <time>2021-07-08T11:40:30Z</time>
      </trkpt>
      <trkpt lat="48.37188" lon="-3.68111">
        <ele>193</ele>
        <time>2021-07-08T11:40:31Z</time>
      </trkpt>
      <trkpt lat="48.37186" lon="-3.68107">
        <ele>193</ele>
        <time>2021-07-08T11:40:32Z</time>
      </trkpt>
      <trkpt lat="48.37184" lon="-3.68103">
        <ele>193</ele>
        <time>2021-07-08T11:40:32Z</time>
      </trkpt>
      <trkpt lat="48.37181" lon="-3.681">
        <ele>193</ele>
        <time>2021-07-08T11:40:34Z</time>
      </trkpt>
      <trkpt lat="48.37179" lon="-3.68096">
        <ele>193</ele>
        <time>2021-07-08T11:40:35Z</time>
      </trkpt>
      <trkpt lat="48.37176" lon="-3.68092">
        <ele>193</ele>
        <time>2021-07-08T11:40:36Z</time>
      </trkpt>
      <trkpt lat="48.37173" lon="-3.68089">
        <ele>193</ele>
        <time>2021-07-08T11:40:37Z</time>
      </trkpt>
      <trkpt lat="48.3717" lon="-3.68086">
        <ele>193</ele>
        <time>2021-07-08T11:40:38Z</time>
      </trkpt>
      <trkpt lat="48.37167" lon="-3.68083">
        <ele>193</ele>
        <time>2021-07-08T11:40:39Z</time>
      </trkpt>
      <trkpt lat="48.37165" lon="-3.6808">
        <ele>193</ele>
        <time>2021-07-08T11:40:40Z</time>
      </trkpt>
      <trkpt lat="48.37162" lon="-3.68077">
        <ele>193</ele>
        <time>2021-07-08T11:40:41Z</time>
      </trkpt>
      <trkpt lat="48.3716" lon="-3.68075">
        <ele>193</ele>
        <time>2021-07-08T11:40:42Z</time>
      </trkpt>
      <trkpt lat="48.37157" lon="-3.68072">
        <ele>193</ele>
        <time>2021-07-08T11:40:43Z</time>
      </trkpt>
      <trkpt lat="48.37155" lon="-3.6807">
        <ele>193</ele>
        <time>2021-07-08T11:40:44Z</time>
      </trkpt>
      <trkpt lat="48.37151" lon="-3.68067">
        <ele>193</ele>
        <time>2021-07-08T11:40:45Z</time>
      </trkpt>
      <trkpt lat="48.37149" lon="-3.68064">
        <ele>193</ele>
        <time>2021-07-08T11:40:46Z</time>
      </trkpt>
      <trkpt lat="48.37146" lon="-3.68061">
        <ele>193</ele>
        <time>2021-07-08T11:40:47Z</time>
      </trkpt>
      <trkpt lat="48.37143" lon="-3.68059">
        <ele>193</ele>
        <time>2021-07-08T11:40:48Z</time>
      </trkpt>
      <trkpt lat="48.3714" lon="-3.68056">
        <ele>193</ele>
        <time>2021-07-08T11:40:49Z</time>
      </trkpt>
      <trkpt lat="48.37137" lon="-3.68054">
        <ele>193</ele>
        <time>2021-07-08T11:40:50Z</time>
      </trkpt>
      <trkpt lat="48.37126" lon="-3.68048">
        <ele>193</ele>
        <time>2021-07-08T11:40:53Z</time>
      </trkpt>
      <trkpt lat="48.37113" lon="-3.68045">
        <ele>192</ele>
        <time>2021-07-08T11:40:56Z</time>
      </trkpt>
      <trkpt lat="48.37101" lon="-3.68042">
        <ele>192</ele>
        <time>2021-07-08T11:40:59Z</time>
      </trkpt>
      <trkpt lat="48.37092" lon="-3.6804">
        <ele>192</ele>
        <time>2021-07-08T11:41:00Z</time>
      </trkpt>
      <trkpt lat="48.37087" lon="-3.6804">
        <ele>192</ele>
        <time>2021-07-08T11:41:02Z</time>
      </trkpt>
      <trkpt lat="48.37082" lon="-3.68039">
        <ele>192</ele>
        <time>2021-07-08T11:41:03Z</time>
      </trkpt>
      <trkpt lat="48.37078" lon="-3.68038">
        <ele>192</ele>
        <time>2021-07-08T11:41:04Z</time>
      </trkpt>
      <trkpt lat="48.37073" lon="-3.68038">
        <ele>192</ele>
        <time>2021-07-08T11:41:05Z</time>
      </trkpt>
      <trkpt lat="48.37068" lon="-3.68038">
        <ele>192</ele>
        <time>2021-07-08T11:41:06Z</time>
      </trkpt>
      <trkpt lat="48.37064" lon="-3.68038">
        <ele>192</ele>
        <time>2021-07-08T11:41:07Z</time>
      </trkpt>
      <trkpt lat="48.37059" lon="-3.68038">
        <ele>192</ele>
        <time>2021-07-08T11:41:08Z</time>
      </trkpt>
      <trkpt lat="48.37055" lon="-3.68039">
        <ele>192</ele>
        <time>2021-07-08T11:41:09Z</time>
      </trkpt>
      <trkpt lat="48.37051" lon="-3.68039">
        <ele>192</ele>
        <time>2021-07-08T11:41:10Z</time>
      </trkpt>
      <trkpt lat="48.37046" lon="-3.68039">
        <ele>192</ele>
        <time>2021-07-08T11:41:11Z</time>
      </trkpt>
      <trkpt lat="48.37042" lon="-3.6804">
        <ele>192</ele>
        <time>2021-07-08T11:41:12Z</time>
      </trkpt>
      <trkpt lat="48.37037" lon="-3.68041">
        <ele>192</ele>
        <time>2021-07-08T11:41:13Z</time>
      </trkpt>
      <trkpt lat="48.37033" lon="-3.68042">
        <ele>192</ele>
        <time>2021-07-08T11:41:14Z</time>
      </trkpt>
      <trkpt lat="48.37028" lon="-3.68042">
        <ele>192</ele>
        <time>2021-07-08T11:41:15Z</time>
      </trkpt>
      <trkpt lat="48.37024" lon="-3.68044">
        <ele>192</ele>
        <time>2021-07-08T11:41:16Z</time>
      </trkpt>
      <trkpt lat="48.3702" lon="-3.68045">
        <ele>192</ele>
        <time>2021-07-08T11:41:17Z</time>
      </trkpt>
      <trkpt lat="48.37016" lon="-3.68047">
        <ele>192</ele>
        <time>2021-07-08T11:41:18Z</time>
      </trkpt>
      <trkpt lat="48.37012" lon="-3.68048">
        <ele>192</ele>
        <time>2021-07-08T11:41:19Z</time>
      </trkpt>
      <trkpt lat="48.37008" lon="-3.6805">
        <ele>192</ele>
        <time>2021-07-08T11:41:20Z</time>
      </trkpt>
      <trkpt lat="48.37003" lon="-3.68052">
        <ele>192</ele>
        <time>2021-07-08T11:41:21Z</time>
      </trkpt>
      <trkpt lat="48.37" lon="-3.68054">
        <ele>192</ele>
        <time>2021-07-08T11:41:22Z</time>
      </trkpt>
      <trkpt lat="48.36996" lon="-3.68056">
        <ele>192</ele>
        <time>2021-07-08T11:41:23Z</time>
      </trkpt>
      <trkpt lat="48.36991" lon="-3.68059">
        <ele>192</ele>
        <time>2021-07-08T11:41:24Z</time>
      </trkpt>
      <trkpt lat="48.36987" lon="-3.68062">
        <ele>191</ele>
        <time>2021-07-08T11:41:25Z</time>
      </trkpt>
      <trkpt lat="48.36983" lon="-3.68065">
        <ele>191</ele>
        <time>2021-07-08T11:41:26Z</time>
      </trkpt>
      <trkpt lat="48.36979" lon="-3.68068">
        <ele>191</ele>
        <time>2021-07-08T11:41:27Z</time>
      </trkpt>
      <trkpt lat="48.36976" lon="-3.68071">
        <ele>191</ele>
        <time>2021-07-08T11:41:28Z</time>
      </trkpt>
      <trkpt lat="48.36972" lon="-3.68074">
        <ele>192</ele>
        <time>2021-07-08T11:41:29Z</time>
      </trkpt>
      <trkpt lat="48.36968" lon="-3.68077">
        <ele>192</ele>
        <time>2021-07-08T11:41:30Z</time>
      </trkpt>
      <trkpt lat="48.36965" lon="-3.6808">
        <ele>192</ele>
        <time>2021-07-08T11:41:31Z</time>
      </trkpt>
      <trkpt lat="48.36959" lon="-3.68087">
        <ele>192</ele>
        <time>2021-07-08T11:41:32Z</time>
      </trkpt>
      <trkpt lat="48.36956" lon="-3.6809">
        <ele>192</ele>
        <time>2021-07-08T11:41:34Z</time>
      </trkpt>
      <trkpt lat="48.36953" lon="-3.68093">
        <ele>192</ele>
        <time>2021-07-08T11:41:35Z</time>
      </trkpt>
      <trkpt lat="48.3695" lon="-3.68096">
        <ele>192</ele>
        <time>2021-07-08T11:41:36Z</time>
      </trkpt>
      <trkpt lat="48.36947" lon="-3.68099">
        <ele>192</ele>
        <time>2021-07-08T11:41:37Z</time>
      </trkpt>
      <trkpt lat="48.36937" lon="-3.6811">
        <ele>192</ele>
        <time>2021-07-08T11:41:40Z</time>
      </trkpt>
      <trkpt lat="48.36934" lon="-3.68114">
        <ele>192</ele>
        <time>2021-07-08T11:41:41Z</time>
      </trkpt>
      <trkpt lat="48.3693" lon="-3.68119">
        <ele>192</ele>
        <time>2021-07-08T11:41:42Z</time>
      </trkpt>
      <trkpt lat="48.36927" lon="-3.68124">
        <ele>192</ele>
        <time>2021-07-08T11:41:43Z</time>
      </trkpt>
      <trkpt lat="48.36923" lon="-3.68128">
        <ele>192</ele>
        <time>2021-07-08T11:41:44Z</time>
      </trkpt>
      <trkpt lat="48.3692" lon="-3.68132">
        <ele>192</ele>
        <time>2021-07-08T11:41:45Z</time>
      </trkpt>
      <trkpt lat="48.36917" lon="-3.68136">
        <ele>192</ele>
        <time>2021-07-08T11:41:46Z</time>
      </trkpt>
      <trkpt lat="48.36914" lon="-3.6814">
        <ele>192</ele>
        <time>2021-07-08T11:41:47Z</time>
      </trkpt>
      <trkpt lat="48.3691" lon="-3.68149">
        <ele>192</ele>
        <time>2021-07-08T11:41:49Z</time>
      </trkpt>
      <trkpt lat="48.36905" lon="-3.68162">
        <ele>192</ele>
        <time>2021-07-08T11:41:52Z</time>
      </trkpt>
      <trkpt lat="48.36898" lon="-3.68174">
        <ele>192</ele>
        <time>2021-07-08T11:41:55Z</time>
      </trkpt>
      <trkpt lat="48.3689" lon="-3.68182">
        <ele>192</ele>
        <time>2021-07-08T11:41:56Z</time>
      </trkpt>
      <trkpt lat="48.3688" lon="-3.68196">
        <ele>192</ele>
        <time>2021-07-08T11:42:00Z</time>
      </trkpt>
      <trkpt lat="48.36868" lon="-3.68206">
        <ele>192</ele>
        <time>2021-07-08T11:42:02Z</time>
      </trkpt>
      <trkpt lat="48.36865" lon="-3.68211">
        <ele>192</ele>
        <time>2021-07-08T11:42:02Z</time>
      </trkpt>
      <trkpt lat="48.36862" lon="-3.68216">
        <ele>192</ele>
        <time>2021-07-08T11:42:04Z</time>
      </trkpt>
      <trkpt lat="48.36859" lon="-3.6822">
        <ele>192</ele>
        <time>2021-07-08T11:42:05Z</time>
      </trkpt>
      <trkpt lat="48.36855" lon="-3.68225">
        <ele>192</ele>
        <time>2021-07-08T11:42:06Z</time>
      </trkpt>
      <trkpt lat="48.36851" lon="-3.6823">
        <ele>192</ele>
        <time>2021-07-08T11:42:07Z</time>
      </trkpt>
      <trkpt lat="48.36847" lon="-3.68234">
        <ele>192</ele>
        <time>2021-07-08T11:42:08Z</time>
      </trkpt>
      <trkpt lat="48.36843" lon="-3.68239">
        <ele>192</ele>
        <time>2021-07-08T11:42:09Z</time>
      </trkpt>
      <trkpt lat="48.36839" lon="-3.68243">
        <ele>192</ele>
        <time>2021-07-08T11:42:10Z</time>
      </trkpt>
      <trkpt lat="48.36836" lon="-3.68247">
        <ele>192</ele>
        <time>2021-07-08T11:42:11Z</time>
      </trkpt>
      <trkpt lat="48.36833" lon="-3.68252">
        <ele>192</ele>
        <time>2021-07-08T11:42:12Z</time>
      </trkpt>
      <trkpt lat="48.36829" lon="-3.68257">
        <ele>192</ele>
        <time>2021-07-08T11:42:13Z</time>
      </trkpt>
      <trkpt lat="48.36826" lon="-3.68261">
        <ele>192</ele>
        <time>2021-07-08T11:42:14Z</time>
      </trkpt>
      <trkpt lat="48.36823" lon="-3.68266">
        <ele>192</ele>
        <time>2021-07-08T11:42:14Z</time>
      </trkpt>
      <trkpt lat="48.3682" lon="-3.6827">
        <ele>192</ele>
        <time>2021-07-08T11:42:16Z</time>
      </trkpt>
      <trkpt lat="48.36817" lon="-3.68274">
        <ele>192</ele>
        <time>2021-07-08T11:42:17Z</time>
      </trkpt>
      <trkpt lat="48.36813" lon="-3.68279">
        <ele>192</ele>
        <time>2021-07-08T11:42:18Z</time>
      </trkpt>
      <trkpt lat="48.3681" lon="-3.68283">
        <ele>192</ele>
        <time>2021-07-08T11:42:19Z</time>
      </trkpt>
      <trkpt lat="48.36807" lon="-3.68287">
        <ele>192</ele>
        <time>2021-07-08T11:42:20Z</time>
      </trkpt>
      <trkpt lat="48.36804" lon="-3.68292">
        <ele>192</ele>
        <time>2021-07-08T11:42:21Z</time>
      </trkpt>
      <trkpt lat="48.36802" lon="-3.68297">
        <ele>192</ele>
        <time>2021-07-08T11:42:22Z</time>
      </trkpt>
      <trkpt lat="48.36798" lon="-3.68302">
        <ele>192</ele>
        <time>2021-07-08T11:42:22Z</time>
      </trkpt>
      <trkpt lat="48.36795" lon="-3.68306">
        <ele>192</ele>
        <time>2021-07-08T11:42:24Z</time>
      </trkpt>
      <trkpt lat="48.36792" lon="-3.68311">
        <ele>192</ele>
        <time>2021-07-08T11:42:25Z</time>
      </trkpt>
      <trkpt lat="48.36789" lon="-3.68315">
        <ele>192</ele>
        <time>2021-07-08T11:42:26Z</time>
      </trkpt>
      <trkpt lat="48.36786" lon="-3.68319">
        <ele>192</ele>
        <time>2021-07-08T11:42:26Z</time>
      </trkpt>
      <trkpt lat="48.36783" lon="-3.68323">
        <ele>192</ele>
        <time>2021-07-08T11:42:28Z</time>
      </trkpt>
      <trkpt lat="48.3678" lon="-3.68327">
        <ele>192</ele>
        <time>2021-07-08T11:42:29Z</time>
      </trkpt>
      <trkpt lat="48.36776" lon="-3.68331">
        <ele>192</ele>
        <time>2021-07-08T11:42:30Z</time>
      </trkpt>
      <trkpt lat="48.36773" lon="-3.68334">
        <ele>192</ele>
        <time>2021-07-08T11:42:31Z</time>
      </trkpt>
      <trkpt lat="48.36769" lon="-3.68338">
        <ele>192</ele>
        <time>2021-07-08T11:42:32Z</time>
      </trkpt>
      <trkpt lat="48.36766" lon="-3.68342">
        <ele>192</ele>
        <time>2021-07-08T11:42:33Z</time>
      </trkpt>
      <trkpt lat="48.36763" lon="-3.68346">
        <ele>192</ele>
        <time>2021-07-08T11:42:34Z</time>
      </trkpt>
      <trkpt lat="48.3676" lon="-3.6835">
        <ele>192</ele>
        <time>2021-07-08T11:42:35Z</time>
      </trkpt>
      <trkpt lat="48.36756" lon="-3.68354">
        <ele>192</ele>
        <time>2021-07-08T11:42:36Z</time>
      </trkpt>
      <trkpt lat="48.36753" lon="-3.68358">
        <ele>192</ele>
        <time>2021-07-08T11:42:37Z</time>
      </trkpt>
      <trkpt lat="48.36749" lon="-3.68361">
        <ele>192</ele>
        <time>2021-07-08T11:42:38Z</time>
      </trkpt>
      <trkpt lat="48.36746" lon="-3.68365">
        <ele>192</ele>
        <time>2021-07-08T11:42:39Z</time>
      </trkpt>
      <trkpt lat="48.36743" lon="-3.68369">
        <ele>192</ele>
        <time>2021-07-08T11:42:40Z</time>
      </trkpt>
      <trkpt lat="48.36739" lon="-3.68373">
        <ele>192</ele>
        <time>2021-07-08T11:42:41Z</time>
      </trkpt>
      <trkpt lat="48.36736" lon="-3.68376">
        <ele>192</ele>
        <time>2021-07-08T11:42:42Z</time>
      </trkpt>
      <trkpt lat="48.36732" lon="-3.6838">
        <ele>192</ele>
        <time>2021-07-08T11:42:43Z</time>
      </trkpt>
      <trkpt lat="48.36729" lon="-3.68383">
        <ele>191</ele>
        <time>2021-07-08T11:42:44Z</time>
      </trkpt>
      <trkpt lat="48.36725" lon="-3.68386">
        <ele>191</ele>
        <time>2021-07-08T11:42:45Z</time>
      </trkpt>
      <trkpt lat="48.36722" lon="-3.6839">
        <ele>191</ele>
        <time>2021-07-08T11:42:46Z</time>
      </trkpt>
      <trkpt lat="48.36718" lon="-3.68392">
        <ele>191</ele>
        <time>2021-07-08T11:42:47Z</time>
      </trkpt>
      <trkpt lat="48.36715" lon="-3.68396">
        <ele>191</ele>
        <time>2021-07-08T11:42:48Z</time>
      </trkpt>
      <trkpt lat="48.36712" lon="-3.68399">
        <ele>192</ele>
        <time>2021-07-08T11:42:49Z</time>
      </trkpt>
      <trkpt lat="48.36709" lon="-3.68402">
        <ele>192</ele>
        <time>2021-07-08T11:42:50Z</time>
      </trkpt>
      <trkpt lat="48.36706" lon="-3.68405">
        <ele>192</ele>
        <time>2021-07-08T11:42:51Z</time>
      </trkpt>
      <trkpt lat="48.36703" lon="-3.68407">
        <ele>192</ele>
        <time>2021-07-08T11:42:52Z</time>
      </trkpt>
      <trkpt lat="48.367" lon="-3.68409">
        <ele>192</ele>
        <time>2021-07-08T11:42:53Z</time>
      </trkpt>
      <trkpt lat="48.36698" lon="-3.68411">
        <ele>192</ele>
        <time>2021-07-08T11:42:53Z</time>
      </trkpt>
      <trkpt lat="48.36696" lon="-3.68413">
        <ele>192</ele>
        <time>2021-07-08T11:42:55Z</time>
      </trkpt>
      <trkpt lat="48.36694" lon="-3.68415">
        <ele>192</ele>
        <time>2021-07-08T11:42:56Z</time>
      </trkpt>
      <trkpt lat="48.36693" lon="-3.68417">
        <ele>192</ele>
        <time>2021-07-08T11:42:57Z</time>
      </trkpt>
      <trkpt lat="48.36692" lon="-3.6842">
        <ele>192</ele>
        <time>2021-07-08T11:42:58Z</time>
      </trkpt>
      <trkpt lat="48.3669" lon="-3.68423">
        <ele>192</ele>
        <time>2021-07-08T11:42:59Z</time>
      </trkpt>
      <trkpt lat="48.36689" lon="-3.68426">
        <ele>193</ele>
        <time>2021-07-08T11:43:02Z</time>
      </trkpt>
      <trkpt lat="48.36688" lon="-3.68428">
        <ele>193</ele>
        <time>2021-07-08T11:43:04Z</time>
      </trkpt>
      <trkpt lat="48.36687" lon="-3.68429">
        <ele>193</ele>
        <time>2021-07-08T11:43:12Z</time>
      </trkpt>
      <trkpt lat="48.36681" lon="-3.68432">
        <ele>192</ele>
        <time>2021-07-08T11:43:15Z</time>
      </trkpt>
      <trkpt lat="48.36678" lon="-3.68434">
        <ele>192</ele>
        <time>2021-07-08T11:43:16Z</time>
      </trkpt>
      <trkpt lat="48.36676" lon="-3.68436">
        <ele>192</ele>
        <time>2021-07-08T11:43:16Z</time>
      </trkpt>
      <trkpt lat="48.36673" lon="-3.68438">
        <ele>192</ele>
        <time>2021-07-08T11:43:18Z</time>
      </trkpt>
      <trkpt lat="48.3667" lon="-3.68439">
        <ele>192</ele>
        <time>2021-07-08T11:43:19Z</time>
      </trkpt>
      <trkpt lat="48.36667" lon="-3.68441">
        <ele>192</ele>
        <time>2021-07-08T11:43:20Z</time>
      </trkpt>
      <trkpt lat="48.36664" lon="-3.68443">
        <ele>192</ele>
        <time>2021-07-08T11:43:21Z</time>
      </trkpt>
      <trkpt lat="48.36661" lon="-3.68446">
        <ele>192</ele>
        <time>2021-07-08T11:43:22Z</time>
      </trkpt>
      <trkpt lat="48.36657" lon="-3.68448">
        <ele>192</ele>
        <time>2021-07-08T11:43:23Z</time>
      </trkpt>
      <trkpt lat="48.36654" lon="-3.6845">
        <ele>192</ele>
        <time>2021-07-08T11:43:24Z</time>
      </trkpt>
      <trkpt lat="48.3665" lon="-3.68452">
        <ele>192</ele>
        <time>2021-07-08T11:43:25Z</time>
      </trkpt>
      <trkpt lat="48.36647" lon="-3.68454">
        <ele>192</ele>
        <time>2021-07-08T11:43:26Z</time>
      </trkpt>
      <trkpt lat="48.36643" lon="-3.68456">
        <ele>192</ele>
        <time>2021-07-08T11:43:27Z</time>
      </trkpt>
      <trkpt lat="48.3664" lon="-3.68458">
        <ele>192</ele>
        <time>2021-07-08T11:43:28Z</time>
      </trkpt>
      <trkpt lat="48.36636" lon="-3.68459">
        <ele>192</ele>
        <time>2021-07-08T11:43:29Z</time>
      </trkpt>
      <trkpt lat="48.36632" lon="-3.6846">
        <ele>192</ele>
        <time>2021-07-08T11:43:30Z</time>
      </trkpt>
      <trkpt lat="48.36628" lon="-3.68462">
        <ele>192</ele>
        <time>2021-07-08T11:43:30Z</time>
      </trkpt>
      <trkpt lat="48.36624" lon="-3.68463">
        <ele>192</ele>
        <time>2021-07-08T11:43:32Z</time>
      </trkpt>
      <trkpt lat="48.3662" lon="-3.68465">
        <ele>192</ele>
        <time>2021-07-08T11:43:33Z</time>
      </trkpt>
      <trkpt lat="48.36617" lon="-3.68467">
        <ele>192</ele>
        <time>2021-07-08T11:43:34Z</time>
      </trkpt>
      <trkpt lat="48.36613" lon="-3.68468">
        <ele>192</ele>
        <time>2021-07-08T11:43:35Z</time>
      </trkpt>
      <trkpt lat="48.36609" lon="-3.6847">
        <ele>192</ele>
        <time>2021-07-08T11:43:36Z</time>
      </trkpt>
      <trkpt lat="48.36605" lon="-3.68472">
        <ele>192</ele>
        <time>2021-07-08T11:43:37Z</time>
      </trkpt>
      <trkpt lat="48.36601" lon="-3.68474">
        <ele>192</ele>
        <time>2021-07-08T11:43:38Z</time>
      </trkpt>
      <trkpt lat="48.36597" lon="-3.68475">
        <ele>192</ele>
        <time>2021-07-08T11:43:39Z</time>
      </trkpt>
      <trkpt lat="48.36593" lon="-3.68477">
        <ele>192</ele>
        <time>2021-07-08T11:43:40Z</time>
      </trkpt>
      <trkpt lat="48.36589" lon="-3.68479">
        <ele>192</ele>
        <time>2021-07-08T11:43:41Z</time>
      </trkpt>
      <trkpt lat="48.36585" lon="-3.68481">
        <ele>192</ele>
        <time>2021-07-08T11:43:42Z</time>
      </trkpt>
      <trkpt lat="48.36581" lon="-3.68483">
        <ele>192</ele>
        <time>2021-07-08T11:43:43Z</time>
      </trkpt>
      <trkpt lat="48.36577" lon="-3.68484">
        <ele>192</ele>
        <time>2021-07-08T11:43:44Z</time>
      </trkpt>
      <trkpt lat="48.36573" lon="-3.68486">
        <ele>192</ele>
        <time>2021-07-08T11:43:45Z</time>
      </trkpt>
      <trkpt lat="48.36569" lon="-3.68488">
        <ele>192</ele>
        <time>2021-07-08T11:43:46Z</time>
      </trkpt>
      <trkpt lat="48.36565" lon="-3.6849">
        <ele>192</ele>
        <time>2021-07-08T11:43:47Z</time>
      </trkpt>
      <trkpt lat="48.36561" lon="-3.68492">
        <ele>192</ele>
        <time>2021-07-08T11:43:48Z</time>
      </trkpt>
      <trkpt lat="48.36557" lon="-3.68494">
        <ele>192</ele>
        <time>2021-07-08T11:43:49Z</time>
      </trkpt>
      <trkpt lat="48.36553" lon="-3.68496">
        <ele>192</ele>
        <time>2021-07-08T11:43:50Z</time>
      </trkpt>
      <trkpt lat="48.36549" lon="-3.68497">
        <ele>192</ele>
        <time>2021-07-08T11:43:51Z</time>
      </trkpt>
      <trkpt lat="48.36545" lon="-3.68499">
        <ele>192</ele>
        <time>2021-07-08T11:43:52Z</time>
      </trkpt>
      <trkpt lat="48.36541" lon="-3.68501">
        <ele>192</ele>
        <time>2021-07-08T11:43:53Z</time>
      </trkpt>
      <trkpt lat="48.36537" lon="-3.68503">
        <ele>191</ele>
        <time>2021-07-08T11:43:54Z</time>
      </trkpt>
      <trkpt lat="48.36533" lon="-3.68504">
        <ele>191</ele>
        <time>2021-07-08T11:43:55Z</time>
      </trkpt>
      <trkpt lat="48.36529" lon="-3.68506">
        <ele>191</ele>
        <time>2021-07-08T11:43:56Z</time>
      </trkpt>
      <trkpt lat="48.36524" lon="-3.68507">
        <ele>191</ele>
        <time>2021-07-08T11:43:57Z</time>
      </trkpt>
      <trkpt lat="48.3652" lon="-3.68509">
        <ele>191</ele>
        <time>2021-07-08T11:43:58Z</time>
      </trkpt>
      <trkpt lat="48.36516" lon="-3.6851">
        <ele>191</ele>
        <time>2021-07-08T11:43:59Z</time>
      </trkpt>
      <trkpt lat="48.36512" lon="-3.68512">
        <ele>191</ele>
        <time>2021-07-08T11:44:00Z</time>
      </trkpt>
      <trkpt lat="48.36508" lon="-3.68514">
        <ele>191</ele>
        <time>2021-07-08T11:44:01Z</time>
      </trkpt>
      <trkpt lat="48.36504" lon="-3.68516">
        <ele>191</ele>
        <time>2021-07-08T11:44:02Z</time>
      </trkpt>
      <trkpt lat="48.365" lon="-3.68518">
        <ele>191</ele>
        <time>2021-07-08T11:44:03Z</time>
      </trkpt>
      <trkpt lat="48.36496" lon="-3.6852">
        <ele>191</ele>
        <time>2021-07-08T11:44:04Z</time>
      </trkpt>
      <trkpt lat="48.36492" lon="-3.68522">
        <ele>191</ele>
        <time>2021-07-08T11:44:05Z</time>
      </trkpt>
      <trkpt lat="48.36488" lon="-3.68524">
        <ele>191</ele>
        <time>2021-07-08T11:44:06Z</time>
      </trkpt>
      <trkpt lat="48.36484" lon="-3.68526">
        <ele>191</ele>
        <time>2021-07-08T11:44:07Z</time>
      </trkpt>
      <trkpt lat="48.3648" lon="-3.68528">
        <ele>191</ele>
        <time>2021-07-08T11:44:08Z</time>
      </trkpt>
      <trkpt lat="48.36476" lon="-3.6853">
        <ele>191</ele>
        <time>2021-07-08T11:44:09Z</time>
      </trkpt>
      <trkpt lat="48.36472" lon="-3.68532">
        <ele>191</ele>
        <time>2021-07-08T11:44:10Z</time>
      </trkpt>
      <trkpt lat="48.36468" lon="-3.68534">
        <ele>191</ele>
        <time>2021-07-08T11:44:11Z</time>
      </trkpt>
      <trkpt lat="48.36464" lon="-3.68536">
        <ele>191</ele>
        <time>2021-07-08T11:44:12Z</time>
      </trkpt>
      <trkpt lat="48.36461" lon="-3.68538">
        <ele>191</ele>
        <time>2021-07-08T11:44:13Z</time>
      </trkpt>
      <trkpt lat="48.36457" lon="-3.6854">
        <ele>191</ele>
        <time>2021-07-08T11:44:14Z</time>
      </trkpt>
      <trkpt lat="48.36453" lon="-3.68542">
        <ele>191</ele>
        <time>2021-07-08T11:44:15Z</time>
      </trkpt>
      <trkpt lat="48.36449" lon="-3.68544">
        <ele>191</ele>
        <time>2021-07-08T11:44:16Z</time>
      </trkpt>
      <trkpt lat="48.36445" lon="-3.68546">
        <ele>191</ele>
        <time>2021-07-08T11:44:17Z</time>
      </trkpt>
      <trkpt lat="48.36441" lon="-3.68547">
        <ele>191</ele>
        <time>2021-07-08T11:44:18Z</time>
      </trkpt>
      <trkpt lat="48.36438" lon="-3.68549">
        <ele>191</ele>
        <time>2021-07-08T11:44:19Z</time>
      </trkpt>
      <trkpt lat="48.36434" lon="-3.68551">
        <ele>191</ele>
        <time>2021-07-08T11:44:20Z</time>
      </trkpt>
      <trkpt lat="48.3643" lon="-3.68552">
        <ele>191</ele>
        <time>2021-07-08T11:44:21Z</time>
      </trkpt>
      <trkpt lat="48.36426" lon="-3.68554">
        <ele>191</ele>
        <time>2021-07-08T11:44:22Z</time>
      </trkpt>
      <trkpt lat="48.36422" lon="-3.68556">
        <ele>191</ele>
        <time>2021-07-08T11:44:23Z</time>
      </trkpt>
      <trkpt lat="48.36418" lon="-3.68558">
        <ele>191</ele>
        <time>2021-07-08T11:44:24Z</time>
      </trkpt>
      <trkpt lat="48.36413" lon="-3.6856">
        <ele>191</ele>
        <time>2021-07-08T11:44:25Z</time>
      </trkpt>
      <trkpt lat="48.36409" lon="-3.68562">
        <ele>191</ele>
        <time>2021-07-08T11:44:26Z</time>
      </trkpt>
      <trkpt lat="48.36405" lon="-3.68564">
        <ele>191</ele>
        <time>2021-07-08T11:44:27Z</time>
      </trkpt>
      <trkpt lat="48.36401" lon="-3.68566">
        <ele>191</ele>
        <time>2021-07-08T11:44:28Z</time>
      </trkpt>
      <trkpt lat="48.36398" lon="-3.68568">
        <ele>191</ele>
        <time>2021-07-08T11:44:29Z</time>
      </trkpt>
      <trkpt lat="48.36394" lon="-3.6857">
        <ele>191</ele>
        <time>2021-07-08T11:44:30Z</time>
      </trkpt>
      <trkpt lat="48.3639" lon="-3.68572">
        <ele>191</ele>
        <time>2021-07-08T11:44:31Z</time>
      </trkpt>
      <trkpt lat="48.36386" lon="-3.68574">
        <ele>191</ele>
        <time>2021-07-08T11:44:32Z</time>
      </trkpt>
      <trkpt lat="48.36382" lon="-3.68576">
        <ele>191</ele>
        <time>2021-07-08T11:44:33Z</time>
      </trkpt>
      <trkpt lat="48.36378" lon="-3.68578">
        <ele>191</ele>
        <time>2021-07-08T11:44:33Z</time>
      </trkpt>
      <trkpt lat="48.36374" lon="-3.68579">
        <ele>191</ele>
        <time>2021-07-08T11:44:35Z</time>
      </trkpt>
      <trkpt lat="48.3637" lon="-3.68581">
        <ele>191</ele>
        <time>2021-07-08T11:44:36Z</time>
      </trkpt>
      <trkpt lat="48.36366" lon="-3.68583">
        <ele>191</ele>
        <time>2021-07-08T11:44:37Z</time>
      </trkpt>
      <trkpt lat="48.36362" lon="-3.68585">
        <ele>191</ele>
        <time>2021-07-08T11:44:38Z</time>
      </trkpt>
      <trkpt lat="48.36358" lon="-3.68586">
        <ele>191</ele>
        <time>2021-07-08T11:44:39Z</time>
      </trkpt>
      <trkpt lat="48.36354" lon="-3.68588">
        <ele>191</ele>
        <time>2021-07-08T11:44:40Z</time>
      </trkpt>
      <trkpt lat="48.3635" lon="-3.6859">
        <ele>191</ele>
        <time>2021-07-08T11:44:41Z</time>
      </trkpt>
      <trkpt lat="48.36346" lon="-3.68592">
        <ele>191</ele>
        <time>2021-07-08T11:44:42Z</time>
      </trkpt>
      <trkpt lat="48.36342" lon="-3.68593">
        <ele>191</ele>
        <time>2021-07-08T11:44:43Z</time>
      </trkpt>
      <trkpt lat="48.36339" lon="-3.68595">
        <ele>191</ele>
        <time>2021-07-08T11:44:44Z</time>
      </trkpt>
      <trkpt lat="48.36335" lon="-3.68596">
        <ele>191</ele>
        <time>2021-07-08T11:44:45Z</time>
      </trkpt>
      <trkpt lat="48.36328" lon="-3.68599">
        <ele>191</ele>
        <time>2021-07-08T11:44:47Z</time>
      </trkpt>
      <trkpt lat="48.36324" lon="-3.686">
        <ele>191</ele>
        <time>2021-07-08T11:44:48Z</time>
      </trkpt>
      <trkpt lat="48.3632" lon="-3.68602">
        <ele>191</ele>
        <time>2021-07-08T11:44:49Z</time>
      </trkpt>
      <trkpt lat="48.36316" lon="-3.68603">
        <ele>191</ele>
        <time>2021-07-08T11:44:50Z</time>
      </trkpt>
      <trkpt lat="48.36311" lon="-3.68605">
        <ele>191</ele>
        <time>2021-07-08T11:44:51Z</time>
      </trkpt>
      <trkpt lat="48.36307" lon="-3.68606">
        <ele>190</ele>
        <time>2021-07-08T11:44:52Z</time>
      </trkpt>
      <trkpt lat="48.36303" lon="-3.68607">
        <ele>190</ele>
        <time>2021-07-08T11:44:52Z</time>
      </trkpt>
      <trkpt lat="48.36299" lon="-3.68608">
        <ele>190</ele>
        <time>2021-07-08T11:44:54Z</time>
      </trkpt>
      <trkpt lat="48.36295" lon="-3.68608">
        <ele>189</ele>
        <time>2021-07-08T11:44:55Z</time>
      </trkpt>
      <trkpt lat="48.36283" lon="-3.6861">
        <ele>190</ele>
        <time>2021-07-08T11:44:58Z</time>
      </trkpt>
      <trkpt lat="48.36272" lon="-3.68611">
        <ele>190</ele>
        <time>2021-07-08T11:45:01Z</time>
      </trkpt>
      <trkpt lat="48.36261" lon="-3.6861">
        <ele>190</ele>
        <time>2021-07-08T11:45:04Z</time>
      </trkpt>
      <trkpt lat="48.36251" lon="-3.6861">
        <ele>190</ele>
        <time>2021-07-08T11:45:07Z</time>
      </trkpt>
      <trkpt lat="48.36243" lon="-3.68609">
        <ele>190</ele>
        <time>2021-07-08T11:45:09Z</time>
      </trkpt>
      <trkpt lat="48.36239" lon="-3.68609">
        <ele>190</ele>
        <time>2021-07-08T11:45:10Z</time>
      </trkpt>
      <trkpt lat="48.36235" lon="-3.68608">
        <ele>190</ele>
        <time>2021-07-08T11:45:11Z</time>
      </trkpt>
      <trkpt lat="48.36231" lon="-3.68607">
        <ele>190</ele>
        <time>2021-07-08T11:45:12Z</time>
      </trkpt>
      <trkpt lat="48.36227" lon="-3.68607">
        <ele>190</ele>
        <time>2021-07-08T11:45:13Z</time>
      </trkpt>
      <trkpt lat="48.36223" lon="-3.68606">
        <ele>190</ele>
        <time>2021-07-08T11:45:14Z</time>
      </trkpt>
      <trkpt lat="48.36218" lon="-3.68606">
        <ele>190</ele>
        <time>2021-07-08T11:45:15Z</time>
      </trkpt>
      <trkpt lat="48.36214" lon="-3.68604">
        <ele>189</ele>
        <time>2021-07-08T11:45:16Z</time>
      </trkpt>
      <trkpt lat="48.36211" lon="-3.68603">
        <ele>189</ele>
        <time>2021-07-08T11:45:17Z</time>
      </trkpt>
      <trkpt lat="48.36207" lon="-3.68601">
        <ele>189</ele>
        <time>2021-07-08T11:45:18Z</time>
      </trkpt>
      <trkpt lat="48.36203" lon="-3.686">
        <ele>189</ele>
        <time>2021-07-08T11:45:19Z</time>
      </trkpt>
      <trkpt lat="48.36199" lon="-3.68599">
        <ele>189</ele>
        <time>2021-07-08T11:45:20Z</time>
      </trkpt>
      <trkpt lat="48.36195" lon="-3.68599">
        <ele>189</ele>
        <time>2021-07-08T11:45:21Z</time>
      </trkpt>
      <trkpt lat="48.36192" lon="-3.68597">
        <ele>189</ele>
        <time>2021-07-08T11:45:22Z</time>
      </trkpt>
      <trkpt lat="48.36189" lon="-3.68596">
        <ele>189</ele>
        <time>2021-07-08T11:45:22Z</time>
      </trkpt>
      <trkpt lat="48.36179" lon="-3.68591">
        <ele>189</ele>
        <time>2021-07-08T11:45:26Z</time>
      </trkpt>
      <trkpt lat="48.36168" lon="-3.68588">
        <ele>189</ele>
        <time>2021-07-08T11:45:28Z</time>
      </trkpt>
      <trkpt lat="48.36157" lon="-3.68585">
        <ele>189</ele>
        <time>2021-07-08T11:45:32Z</time>
      </trkpt>
      <trkpt lat="48.36145" lon="-3.68582">
        <ele>189</ele>
        <time>2021-07-08T11:45:34Z</time>
      </trkpt>
      <trkpt lat="48.36136" lon="-3.68579">
        <ele>189</ele>
        <time>2021-07-08T11:45:38Z</time>
      </trkpt>
      <trkpt lat="48.36125" lon="-3.68576">
        <ele>189</ele>
        <time>2021-07-08T11:45:40Z</time>
      </trkpt>
      <trkpt lat="48.36113" lon="-3.68571">
        <ele>189</ele>
        <time>2021-07-08T11:45:44Z</time>
      </trkpt>
      <trkpt lat="48.36102" lon="-3.68569">
        <ele>189</ele>
        <time>2021-07-08T11:45:47Z</time>
      </trkpt>
      <trkpt lat="48.36089" lon="-3.68565">
        <ele>189</ele>
        <time>2021-07-08T11:45:50Z</time>
      </trkpt>
      <trkpt lat="48.3608" lon="-3.68563">
        <ele>190</ele>
        <time>2021-07-08T11:45:53Z</time>
      </trkpt>
      <trkpt lat="48.36068" lon="-3.6856">
        <ele>189</ele>
        <time>2021-07-08T11:45:57Z</time>
      </trkpt>
      <trkpt lat="48.36058" lon="-3.68558">
        <ele>189</ele>
        <time>2021-07-08T11:46:00Z</time>
      </trkpt>
      <trkpt lat="48.36049" lon="-3.68557">
        <ele>189</ele>
        <time>2021-07-08T11:46:03Z</time>
      </trkpt>
      <trkpt lat="48.36039" lon="-3.6855">
        <ele>189</ele>
        <time>2021-07-08T11:46:06Z</time>
      </trkpt>
      <trkpt lat="48.36027" lon="-3.68541">
        <ele>189</ele>
        <time>2021-07-08T11:46:08Z</time>
      </trkpt>
      <trkpt lat="48.36019" lon="-3.68534">
        <ele>189</ele>
        <time>2021-07-08T11:46:12Z</time>
      </trkpt>
      <trkpt lat="48.36009" lon="-3.68524">
        <ele>190</ele>
        <time>2021-07-08T11:46:16Z</time>
      </trkpt>
      <trkpt lat="48.35997" lon="-3.68519">
        <ele>190</ele>
        <time>2021-07-08T11:46:19Z</time>
      </trkpt>
      <trkpt lat="48.35987" lon="-3.68519">
        <ele>189</ele>
        <time>2021-07-08T11:46:21Z</time>
      </trkpt>
      <trkpt lat="48.35978" lon="-3.68516">
        <ele>190</ele>
        <time>2021-07-08T11:46:22Z</time>
      </trkpt>
      <trkpt lat="48.35966" lon="-3.68511">
        <ele>190</ele>
        <time>2021-07-08T11:46:26Z</time>
      </trkpt>
      <trkpt lat="48.35953" lon="-3.68507">
        <ele>190</ele>
        <time>2021-07-08T11:46:29Z</time>
      </trkpt>
      <trkpt lat="48.35941" lon="-3.68504">
        <ele>190</ele>
        <time>2021-07-08T11:46:32Z</time>
      </trkpt>
      <trkpt lat="48.35854" lon="-3.68458">
        <ele>189</ele>
        <time>2021-07-08T11:46:33Z</time>
      </trkpt>
      <trkpt lat="48.35852" lon="-3.68456">
        <ele>189</ele>
        <time>2021-07-08T11:46:33Z</time>
      </trkpt>
      <trkpt lat="48.3585" lon="-3.68455">
        <ele>189</ele>
        <time>2021-07-08T11:46:35Z</time>
      </trkpt>
      <trkpt lat="48.35929" lon="-3.68499">
        <ele>189</ele>
        <time>2021-07-08T11:46:35Z</time>
      </trkpt>
      <trkpt lat="48.35848" lon="-3.68453">
        <ele>189</ele>
        <time>2021-07-08T11:46:35Z</time>
      </trkpt>
      <trkpt lat="48.35846" lon="-3.68452">
        <ele>189</ele>
        <time>2021-07-08T11:46:36Z</time>
      </trkpt>
      <trkpt lat="48.35843" lon="-3.6845">
        <ele>189</ele>
        <time>2021-07-08T11:46:37Z</time>
      </trkpt>
      <trkpt lat="48.35918" lon="-3.68493">
        <ele>189</ele>
        <time>2021-07-08T11:46:38Z</time>
      </trkpt>
      <trkpt lat="48.35841" lon="-3.68448">
        <ele>189</ele>
        <time>2021-07-08T11:46:38Z</time>
      </trkpt>
      <trkpt lat="48.35839" lon="-3.68447">
        <ele>189</ele>
        <time>2021-07-08T11:46:39Z</time>
      </trkpt>
      <trkpt lat="48.35837" lon="-3.68445">
        <ele>189</ele>
        <time>2021-07-08T11:46:41Z</time>
      </trkpt>
      <trkpt lat="48.35904" lon="-3.68487">
        <ele>189</ele>
        <time>2021-07-08T11:46:41Z</time>
      </trkpt>
      <trkpt lat="48.35835" lon="-3.68443">
        <ele>189</ele>
        <time>2021-07-08T11:46:41Z</time>
      </trkpt>
      <trkpt lat="48.35833" lon="-3.68441">
        <ele>189</ele>
        <time>2021-07-08T11:46:42Z</time>
      </trkpt>
      <trkpt lat="48.35831" lon="-3.6844">
        <ele>189</ele>
        <time>2021-07-08T11:46:43Z</time>
      </trkpt>
      <trkpt lat="48.35892" lon="-3.68482">
        <ele>188</ele>
        <time>2021-07-08T11:46:44Z</time>
      </trkpt>
      <trkpt lat="48.35829" lon="-3.68437">
        <ele>189</ele>
        <time>2021-07-08T11:46:44Z</time>
      </trkpt>
      <trkpt lat="48.35827" lon="-3.68435">
        <ele>189</ele>
        <time>2021-07-08T11:46:46Z</time>
      </trkpt>
      <trkpt lat="48.35883" lon="-3.68479">
        <ele>189</ele>
        <time>2021-07-08T11:46:46Z</time>
      </trkpt>
      <trkpt lat="48.35824" lon="-3.68433">
        <ele>189</ele>
        <time>2021-07-08T11:46:46Z</time>
      </trkpt>
      <trkpt lat="48.35879" lon="-3.68477">
        <ele>189</ele>
        <time>2021-07-08T11:46:47Z</time>
      </trkpt>
      <trkpt lat="48.35822" lon="-3.68431">
        <ele>189</ele>
        <time>2021-07-08T11:46:47Z</time>
      </trkpt>
      <trkpt lat="48.35876" lon="-3.68475">
        <ele>189</ele>
        <time>2021-07-08T11:46:48Z</time>
      </trkpt>
      <trkpt lat="48.35819" lon="-3.68429">
        <ele>188</ele>
        <time>2021-07-08T11:46:48Z</time>
      </trkpt>
      <trkpt lat="48.35872" lon="-3.68473">
        <ele>189</ele>
        <time>2021-07-08T11:46:48Z</time>
      </trkpt>
      <trkpt lat="48.35817" lon="-3.68427">
        <ele>188</ele>
        <time>2021-07-08T11:46:49Z</time>
      </trkpt>
      <trkpt lat="48.35869" lon="-3.68471">
        <ele>189</ele>
        <time>2021-07-08T11:46:50Z</time>
      </trkpt>
      <trkpt lat="48.35815" lon="-3.68424">
        <ele>188</ele>
        <time>2021-07-08T11:46:50Z</time>
      </trkpt>
      <trkpt lat="48.35866" lon="-3.68469">
        <ele>189</ele>
        <time>2021-07-08T11:46:51Z</time>
      </trkpt>
      <trkpt lat="48.35812" lon="-3.68422">
        <ele>188</ele>
        <time>2021-07-08T11:46:52Z</time>
      </trkpt>
      <trkpt lat="48.35809" lon="-3.6842">
        <ele>188</ele>
        <time>2021-07-08T11:46:52Z</time>
      </trkpt>
      <trkpt lat="48.35864" lon="-3.68467">
        <ele>189</ele>
        <time>2021-07-08T11:46:52Z</time>
      </trkpt>
      <trkpt lat="48.35862" lon="-3.68466">
        <ele>189</ele>
        <time>2021-07-08T11:46:53Z</time>
      </trkpt>
      <trkpt lat="48.35807" lon="-3.68418">
        <ele>188</ele>
        <time>2021-07-08T11:46:54Z</time>
      </trkpt>
      <trkpt lat="48.35804" lon="-3.68416">
        <ele>188</ele>
        <time>2021-07-08T11:46:54Z</time>
      </trkpt>
      <trkpt lat="48.3586" lon="-3.68465">
        <ele>190</ele>
        <time>2021-07-08T11:46:55Z</time>
      </trkpt>
      <trkpt lat="48.35801" lon="-3.68413">
        <ele>188</ele>
        <time>2021-07-08T11:46:55Z</time>
      </trkpt>
      <trkpt lat="48.35798" lon="-3.68411">
        <ele>188</ele>
        <time>2021-07-08T11:46:56Z</time>
      </trkpt>
      <trkpt lat="48.35796" lon="-3.68409">
        <ele>188</ele>
        <time>2021-07-08T11:46:57Z</time>
      </trkpt>
      <trkpt lat="48.35793" lon="-3.68406">
        <ele>188</ele>
        <time>2021-07-08T11:46:58Z</time>
      </trkpt>
      <trkpt lat="48.3579" lon="-3.68404">
        <ele>188</ele>
        <time>2021-07-08T11:46:59Z</time>
      </trkpt>
      <trkpt lat="48.35787" lon="-3.68401">
        <ele>188</ele>
        <time>2021-07-08T11:47:00Z</time>
      </trkpt>
      <trkpt lat="48.35784" lon="-3.68398">
        <ele>188</ele>
        <time>2021-07-08T11:47:01Z</time>
      </trkpt>
      <trkpt lat="48.35781" lon="-3.68396">
        <ele>188</ele>
        <time>2021-07-08T11:47:02Z</time>
      </trkpt>
      <trkpt lat="48.35859" lon="-3.68464">
        <ele>189</ele>
        <time>2021-07-08T11:47:03Z</time>
      </trkpt>
      <trkpt lat="48.35777" lon="-3.68393">
        <ele>188</ele>
        <time>2021-07-08T11:47:03Z</time>
      </trkpt>
      <trkpt lat="48.35774" lon="-3.68391">
        <ele>188</ele>
        <time>2021-07-08T11:47:04Z</time>
      </trkpt>
      <trkpt lat="48.35771" lon="-3.68388">
        <ele>188</ele>
        <time>2021-07-08T11:47:05Z</time>
      </trkpt>
      <trkpt lat="48.35767" lon="-3.68384">
        <ele>188</ele>
        <time>2021-07-08T11:47:06Z</time>
      </trkpt>
      <trkpt lat="48.35763" lon="-3.68381">
        <ele>188</ele>
        <time>2021-07-08T11:47:07Z</time>
      </trkpt>
      <trkpt lat="48.35759" lon="-3.68378">
        <ele>188</ele>
        <time>2021-07-08T11:47:08Z</time>
      </trkpt>
      <trkpt lat="48.35756" lon="-3.68375">
        <ele>188</ele>
        <time>2021-07-08T11:47:09Z</time>
      </trkpt>
      <trkpt lat="48.35753" lon="-3.68372">
        <ele>188</ele>
        <time>2021-07-08T11:47:10Z</time>
      </trkpt>
      <trkpt lat="48.35749" lon="-3.68368">
        <ele>188</ele>
        <time>2021-07-08T11:47:11Z</time>
      </trkpt>
      <trkpt lat="48.35745" lon="-3.68365">
        <ele>188</ele>
        <time>2021-07-08T11:47:13Z</time>
      </trkpt>
      <trkpt lat="48.35741" lon="-3.68362">
        <ele>188</ele>
        <time>2021-07-08T11:47:13Z</time>
      </trkpt>
      <trkpt lat="48.35737" lon="-3.68358">
        <ele>188</ele>
        <time>2021-07-08T11:47:14Z</time>
      </trkpt>
      <trkpt lat="48.35733" lon="-3.68355">
        <ele>188</ele>
        <time>2021-07-08T11:47:15Z</time>
      </trkpt>
      <trkpt lat="48.35729" lon="-3.68352">
        <ele>188</ele>
        <time>2021-07-08T11:47:16Z</time>
      </trkpt>
      <trkpt lat="48.35725" lon="-3.68349">
        <ele>188</ele>
        <time>2021-07-08T11:47:17Z</time>
      </trkpt>
      <trkpt lat="48.3572" lon="-3.68346">
        <ele>188</ele>
        <time>2021-07-08T11:47:18Z</time>
      </trkpt>
      <trkpt lat="48.35717" lon="-3.68343">
        <ele>188</ele>
        <time>2021-07-08T11:47:19Z</time>
      </trkpt>
      <trkpt lat="48.35713" lon="-3.6834">
        <ele>188</ele>
        <time>2021-07-08T11:47:20Z</time>
      </trkpt>
      <trkpt lat="48.35709" lon="-3.68337">
        <ele>188</ele>
        <time>2021-07-08T11:47:21Z</time>
      </trkpt>
      <trkpt lat="48.35705" lon="-3.68334">
        <ele>188</ele>
        <time>2021-07-08T11:47:22Z</time>
      </trkpt>
      <trkpt lat="48.35701" lon="-3.68331">
        <ele>188</ele>
        <time>2021-07-08T11:47:23Z</time>
      </trkpt>
      <trkpt lat="48.35698" lon="-3.68327">
        <ele>188</ele>
        <time>2021-07-08T11:47:24Z</time>
      </trkpt>
      <trkpt lat="48.35694" lon="-3.68324">
        <ele>188</ele>
        <time>2021-07-08T11:47:25Z</time>
      </trkpt>
      <trkpt lat="48.35691" lon="-3.68322">
        <ele>188</ele>
        <time>2021-07-08T11:47:26Z</time>
      </trkpt>
      <trkpt lat="48.35687" lon="-3.68319">
        <ele>188</ele>
        <time>2021-07-08T11:47:27Z</time>
      </trkpt>
      <trkpt lat="48.35684" lon="-3.68318">
        <ele>188</ele>
        <time>2021-07-08T11:47:28Z</time>
      </trkpt>
      <trkpt lat="48.35672" lon="-3.68311">
        <ele>188</ele>
        <time>2021-07-08T11:47:31Z</time>
      </trkpt>
      <trkpt lat="48.35667" lon="-3.68309">
        <ele>188</ele>
        <time>2021-07-08T11:47:32Z</time>
      </trkpt>
      <trkpt lat="48.35662" lon="-3.68308">
        <ele>188</ele>
        <time>2021-07-08T11:47:33Z</time>
      </trkpt>
      <trkpt lat="48.35657" lon="-3.68306">
        <ele>188</ele>
        <time>2021-07-08T11:47:34Z</time>
      </trkpt>
      <trkpt lat="48.35652" lon="-3.68305">
        <ele>188</ele>
        <time>2021-07-08T11:47:35Z</time>
      </trkpt>
      <trkpt lat="48.35647" lon="-3.68303">
        <ele>187</ele>
        <time>2021-07-08T11:47:37Z</time>
      </trkpt>
      <trkpt lat="48.35643" lon="-3.68302">
        <ele>187</ele>
        <time>2021-07-08T11:47:37Z</time>
      </trkpt>
      <trkpt lat="48.35638" lon="-3.68302">
        <ele>187</ele>
        <time>2021-07-08T11:47:38Z</time>
      </trkpt>
      <trkpt lat="48.35634" lon="-3.68301">
        <ele>187</ele>
        <time>2021-07-08T11:47:39Z</time>
      </trkpt>
      <trkpt lat="48.35629" lon="-3.683">
        <ele>188</ele>
        <time>2021-07-08T11:47:40Z</time>
      </trkpt>
      <trkpt lat="48.35625" lon="-3.68299">
        <ele>188</ele>
        <time>2021-07-08T11:47:41Z</time>
      </trkpt>
      <trkpt lat="48.3562" lon="-3.68298">
        <ele>188</ele>
        <time>2021-07-08T11:47:43Z</time>
      </trkpt>
      <trkpt lat="48.35616" lon="-3.68298">
        <ele>188</ele>
        <time>2021-07-08T11:47:43Z</time>
      </trkpt>
      <trkpt lat="48.35612" lon="-3.68297">
        <ele>188</ele>
        <time>2021-07-08T11:47:44Z</time>
      </trkpt>
      <trkpt lat="48.35607" lon="-3.68297">
        <ele>188</ele>
        <time>2021-07-08T11:47:45Z</time>
      </trkpt>
      <trkpt lat="48.35603" lon="-3.68296">
        <ele>188</ele>
        <time>2021-07-08T11:47:46Z</time>
      </trkpt>
      <trkpt lat="48.35599" lon="-3.68295">
        <ele>188</ele>
        <time>2021-07-08T11:47:47Z</time>
      </trkpt>
      <trkpt lat="48.35595" lon="-3.68295">
        <ele>188</ele>
        <time>2021-07-08T11:47:48Z</time>
      </trkpt>
      <trkpt lat="48.35591" lon="-3.68294">
        <ele>188</ele>
        <time>2021-07-08T11:47:49Z</time>
      </trkpt>
      <trkpt lat="48.35587" lon="-3.68293">
        <ele>188</ele>
        <time>2021-07-08T11:47:50Z</time>
      </trkpt>
      <trkpt lat="48.35582" lon="-3.68293">
        <ele>188</ele>
        <time>2021-07-08T11:47:51Z</time>
      </trkpt>
      <trkpt lat="48.35578" lon="-3.68292">
        <ele>187</ele>
        <time>2021-07-08T11:47:52Z</time>
      </trkpt>
      <trkpt lat="48.35574" lon="-3.68292">
        <ele>187</ele>
        <time>2021-07-08T11:47:53Z</time>
      </trkpt>
      <trkpt lat="48.35565" lon="-3.68292">
        <ele>187</ele>
        <time>2021-07-08T11:47:55Z</time>
      </trkpt>
      <trkpt lat="48.35561" lon="-3.68292">
        <ele>187</ele>
        <time>2021-07-08T11:47:56Z</time>
      </trkpt>
      <trkpt lat="48.35554" lon="-3.68293">
        <ele>187</ele>
        <time>2021-07-08T11:47:58Z</time>
      </trkpt>
      <trkpt lat="48.35542" lon="-3.68295">
        <ele>187</ele>
        <time>2021-07-08T11:48:01Z</time>
      </trkpt>
      <trkpt lat="48.35538" lon="-3.68296">
        <ele>187</ele>
        <time>2021-07-08T11:48:02Z</time>
      </trkpt>
      <trkpt lat="48.35534" lon="-3.68297">
        <ele>187</ele>
        <time>2021-07-08T11:48:03Z</time>
      </trkpt>
      <trkpt lat="48.35529" lon="-3.68297">
        <ele>187</ele>
        <time>2021-07-08T11:48:04Z</time>
      </trkpt>
      <trkpt lat="48.35526" lon="-3.68298">
        <ele>187</ele>
        <time>2021-07-08T11:48:05Z</time>
      </trkpt>
      <trkpt lat="48.35522" lon="-3.68299">
        <ele>187</ele>
        <time>2021-07-08T11:48:06Z</time>
      </trkpt>
      <trkpt lat="48.35518" lon="-3.68299">
        <ele>187</ele>
        <time>2021-07-08T11:48:07Z</time>
      </trkpt>
      <trkpt lat="48.35514" lon="-3.683">
        <ele>187</ele>
        <time>2021-07-08T11:48:08Z</time>
      </trkpt>
      <trkpt lat="48.3551" lon="-3.68301">
        <ele>187</ele>
        <time>2021-07-08T11:48:09Z</time>
      </trkpt>
      <trkpt lat="48.35506" lon="-3.68302">
        <ele>187</ele>
        <time>2021-07-08T11:48:10Z</time>
      </trkpt>
      <trkpt lat="48.35502" lon="-3.68304">
        <ele>187</ele>
        <time>2021-07-08T11:48:11Z</time>
      </trkpt>
      <trkpt lat="48.35498" lon="-3.68305">
        <ele>187</ele>
        <time>2021-07-08T11:48:12Z</time>
      </trkpt>
      <trkpt lat="48.35493" lon="-3.68307">
        <ele>188</ele>
        <time>2021-07-08T11:48:13Z</time>
      </trkpt>
      <trkpt lat="48.35489" lon="-3.68308">
        <ele>188</ele>
        <time>2021-07-08T11:48:14Z</time>
      </trkpt>
      <trkpt lat="48.35486" lon="-3.68308">
        <ele>188</ele>
        <time>2021-07-08T11:48:15Z</time>
      </trkpt>
      <trkpt lat="48.35481" lon="-3.6831">
        <ele>188</ele>
        <time>2021-07-08T11:48:16Z</time>
      </trkpt>
      <trkpt lat="48.35477" lon="-3.68311">
        <ele>188</ele>
        <time>2021-07-08T11:48:17Z</time>
      </trkpt>
      <trkpt lat="48.35473" lon="-3.68312">
        <ele>188</ele>
        <time>2021-07-08T11:48:18Z</time>
      </trkpt>
      <trkpt lat="48.35464" lon="-3.68314">
        <ele>188</ele>
        <time>2021-07-08T11:48:20Z</time>
      </trkpt>
      <trkpt lat="48.3546" lon="-3.68315">
        <ele>188</ele>
        <time>2021-07-08T11:48:21Z</time>
      </trkpt>
      <trkpt lat="48.35455" lon="-3.68316">
        <ele>188</ele>
        <time>2021-07-08T11:48:22Z</time>
      </trkpt>
      <trkpt lat="48.35451" lon="-3.68317">
        <ele>187</ele>
        <time>2021-07-08T11:48:23Z</time>
      </trkpt>
      <trkpt lat="48.35447" lon="-3.68318">
        <ele>187</ele>
        <time>2021-07-08T11:48:24Z</time>
      </trkpt>
      <trkpt lat="48.35443" lon="-3.68319">
        <ele>188</ele>
        <time>2021-07-08T11:48:25Z</time>
      </trkpt>
      <trkpt lat="48.35438" lon="-3.6832">
        <ele>188</ele>
        <time>2021-07-08T11:48:26Z</time>
      </trkpt>
      <trkpt lat="48.35434" lon="-3.68321">
        <ele>188</ele>
        <time>2021-07-08T11:48:27Z</time>
      </trkpt>
      <trkpt lat="48.3543" lon="-3.68322">
        <ele>188</ele>
        <time>2021-07-08T11:48:28Z</time>
      </trkpt>
      <trkpt lat="48.35426" lon="-3.68323">
        <ele>188</ele>
        <time>2021-07-08T11:48:29Z</time>
      </trkpt>
      <trkpt lat="48.35422" lon="-3.68324">
        <ele>187</ele>
        <time>2021-07-08T11:48:30Z</time>
      </trkpt>
      <trkpt lat="48.35417" lon="-3.68325">
        <ele>187</ele>
        <time>2021-07-08T11:48:31Z</time>
      </trkpt>
      <trkpt lat="48.35413" lon="-3.68326">
        <ele>188</ele>
        <time>2021-07-08T11:48:32Z</time>
      </trkpt>
      <trkpt lat="48.35409" lon="-3.68327">
        <ele>188</ele>
        <time>2021-07-08T11:48:33Z</time>
      </trkpt>
      <trkpt lat="48.35405" lon="-3.68328">
        <ele>188</ele>
        <time>2021-07-08T11:48:34Z</time>
      </trkpt>
      <trkpt lat="48.35401" lon="-3.6833">
        <ele>188</ele>
        <time>2021-07-08T11:48:35Z</time>
      </trkpt>
      <trkpt lat="48.35397" lon="-3.68331">
        <ele>187</ele>
        <time>2021-07-08T11:48:36Z</time>
      </trkpt>
      <trkpt lat="48.35393" lon="-3.68332">
        <ele>187</ele>
        <time>2021-07-08T11:48:38Z</time>
      </trkpt>
      <trkpt lat="48.35389" lon="-3.68334">
        <ele>187</ele>
        <time>2021-07-08T11:48:38Z</time>
      </trkpt>
      <trkpt lat="48.35385" lon="-3.68335">
        <ele>187</ele>
        <time>2021-07-08T11:48:39Z</time>
      </trkpt>
      <trkpt lat="48.35381" lon="-3.68336">
        <ele>188</ele>
        <time>2021-07-08T11:48:40Z</time>
      </trkpt>
      <trkpt lat="48.35378" lon="-3.68338">
        <ele>188</ele>
        <time>2021-07-08T11:48:41Z</time>
      </trkpt>
      <trkpt lat="48.35374" lon="-3.6834">
        <ele>188</ele>
        <time>2021-07-08T11:48:42Z</time>
      </trkpt>
      <trkpt lat="48.3537" lon="-3.68342">
        <ele>188</ele>
        <time>2021-07-08T11:48:43Z</time>
      </trkpt>
      <trkpt lat="48.35367" lon="-3.68343">
        <ele>188</ele>
        <time>2021-07-08T11:48:44Z</time>
      </trkpt>
      <trkpt lat="48.35363" lon="-3.68345">
        <ele>188</ele>
        <time>2021-07-08T11:48:45Z</time>
      </trkpt>
      <trkpt lat="48.3536" lon="-3.68347">
        <ele>188</ele>
        <time>2021-07-08T11:48:46Z</time>
      </trkpt>
      <trkpt lat="48.35357" lon="-3.68349">
        <ele>188</ele>
        <time>2021-07-08T11:48:47Z</time>
      </trkpt>
      <trkpt lat="48.35353" lon="-3.68351">
        <ele>188</ele>
        <time>2021-07-08T11:48:48Z</time>
      </trkpt>
      <trkpt lat="48.3535" lon="-3.68353">
        <ele>188</ele>
        <time>2021-07-08T11:48:49Z</time>
      </trkpt>
      <trkpt lat="48.35347" lon="-3.68355">
        <ele>188</ele>
        <time>2021-07-08T11:48:50Z</time>
      </trkpt>
      <trkpt lat="48.35344" lon="-3.68357">
        <ele>187</ele>
        <time>2021-07-08T11:48:51Z</time>
      </trkpt>
      <trkpt lat="48.35341" lon="-3.68359">
        <ele>187</ele>
        <time>2021-07-08T11:48:52Z</time>
      </trkpt>
      <trkpt lat="48.35338" lon="-3.68361">
        <ele>187</ele>
        <time>2021-07-08T11:48:53Z</time>
      </trkpt>
      <trkpt lat="48.35335" lon="-3.68363">
        <ele>187</ele>
        <time>2021-07-08T11:48:54Z</time>
      </trkpt>
      <trkpt lat="48.35332" lon="-3.68365">
        <ele>187</ele>
        <time>2021-07-08T11:48:55Z</time>
      </trkpt>
      <trkpt lat="48.35329" lon="-3.68367">
        <ele>187</ele>
        <time>2021-07-08T11:48:56Z</time>
      </trkpt>
      <trkpt lat="48.35327" lon="-3.68369">
        <ele>187</ele>
        <time>2021-07-08T11:48:58Z</time>
      </trkpt>
      <trkpt lat="48.35325" lon="-3.68371">
        <ele>187</ele>
        <time>2021-07-08T11:48:58Z</time>
      </trkpt>
      <trkpt lat="48.35322" lon="-3.68373">
        <ele>187</ele>
        <time>2021-07-08T11:48:59Z</time>
      </trkpt>
      <trkpt lat="48.3532" lon="-3.68375">
        <ele>187</ele>
        <time>2021-07-08T11:49:00Z</time>
      </trkpt>
      <trkpt lat="48.35317" lon="-3.68377">
        <ele>187</ele>
        <time>2021-07-08T11:49:01Z</time>
      </trkpt>
      <trkpt lat="48.35315" lon="-3.68379">
        <ele>187</ele>
        <time>2021-07-08T11:49:02Z</time>
      </trkpt>
      <trkpt lat="48.35312" lon="-3.68381">
        <ele>188</ele>
        <time>2021-07-08T11:49:03Z</time>
      </trkpt>
      <trkpt lat="48.3531" lon="-3.68383">
        <ele>188</ele>
        <time>2021-07-08T11:49:04Z</time>
      </trkpt>
      <trkpt lat="48.35308" lon="-3.68385">
        <ele>188</ele>
        <time>2021-07-08T11:49:05Z</time>
      </trkpt>
      <trkpt lat="48.35305" lon="-3.68387">
        <ele>188</ele>
        <time>2021-07-08T11:49:06Z</time>
      </trkpt>
      <trkpt lat="48.35303" lon="-3.68388">
        <ele>188</ele>
        <time>2021-07-08T11:49:07Z</time>
      </trkpt>
      <trkpt lat="48.35301" lon="-3.6839">
        <ele>188</ele>
        <time>2021-07-08T11:49:08Z</time>
      </trkpt>
      <trkpt lat="48.35299" lon="-3.68391">
        <ele>188</ele>
        <time>2021-07-08T11:49:09Z</time>
      </trkpt>
      <trkpt lat="48.35297" lon="-3.68392">
        <ele>188</ele>
        <time>2021-07-08T11:49:10Z</time>
      </trkpt>
      <trkpt lat="48.35295" lon="-3.68392">
        <ele>188</ele>
        <time>2021-07-08T11:49:11Z</time>
      </trkpt>
      <trkpt lat="48.35293" lon="-3.68393">
        <ele>188</ele>
        <time>2021-07-08T11:49:12Z</time>
      </trkpt>
      <trkpt lat="48.35291" lon="-3.68394">
        <ele>188</ele>
        <time>2021-07-08T11:49:13Z</time>
      </trkpt>
      <trkpt lat="48.35288" lon="-3.68395">
        <ele>188</ele>
        <time>2021-07-08T11:49:14Z</time>
      </trkpt>
      <trkpt lat="48.35286" lon="-3.68396">
        <ele>188</ele>
        <time>2021-07-08T11:49:15Z</time>
      </trkpt>
      <trkpt lat="48.35284" lon="-3.68397">
        <ele>188</ele>
        <time>2021-07-08T11:49:16Z</time>
      </trkpt>
      <trkpt lat="48.35282" lon="-3.68398">
        <ele>188</ele>
        <time>2021-07-08T11:49:17Z</time>
      </trkpt>
      <trkpt lat="48.3528" lon="-3.68399">
        <ele>188</ele>
        <time>2021-07-08T11:49:18Z</time>
      </trkpt>
      <trkpt lat="48.35278" lon="-3.684">
        <ele>188</ele>
        <time>2021-07-08T11:49:19Z</time>
      </trkpt>
      <trkpt lat="48.35276" lon="-3.684">
        <ele>188</ele>
        <time>2021-07-08T11:49:20Z</time>
      </trkpt>
      <trkpt lat="48.35274" lon="-3.684">
        <ele>188</ele>
        <time>2021-07-08T11:49:21Z</time>
      </trkpt>
      <trkpt lat="48.35272" lon="-3.68401">
        <ele>188</ele>
        <time>2021-07-08T11:49:22Z</time>
      </trkpt>
      <trkpt lat="48.3527" lon="-3.68401">
        <ele>188</ele>
        <time>2021-07-08T11:49:23Z</time>
      </trkpt>
      <trkpt lat="48.35268" lon="-3.684">
        <ele>188</ele>
        <time>2021-07-08T11:49:24Z</time>
      </trkpt>
      <trkpt lat="48.35265" lon="-3.684">
        <ele>187</ele>
        <time>2021-07-08T11:49:26Z</time>
      </trkpt>
      <trkpt lat="48.35262" lon="-3.684">
        <ele>188</ele>
        <time>2021-07-08T11:49:28Z</time>
      </trkpt>
      <trkpt lat="48.35259" lon="-3.684">
        <ele>188</ele>
        <time>2021-07-08T11:49:30Z</time>
      </trkpt>
      <trkpt lat="48.35256" lon="-3.684">
        <ele>188</ele>
        <time>2021-07-08T11:49:32Z</time>
      </trkpt>
      <trkpt lat="48.35254" lon="-3.68402">
        <ele>188</ele>
        <time>2021-07-08T11:49:34Z</time>
      </trkpt>
      <trkpt lat="48.35252" lon="-3.68404">
        <ele>188</ele>
        <time>2021-07-08T11:49:36Z</time>
      </trkpt>
      <trkpt lat="48.35249" lon="-3.68404">
        <ele>187</ele>
        <time>2021-07-08T11:49:38Z</time>
      </trkpt>
      <trkpt lat="48.35247" lon="-3.68405">
        <ele>188</ele>
        <time>2021-07-08T11:49:40Z</time>
      </trkpt>
      <trkpt lat="48.35243" lon="-3.68404">
        <ele>188</ele>
        <time>2021-07-08T11:49:42Z</time>
      </trkpt>
      <trkpt lat="48.35241" lon="-3.68404">
        <ele>188</ele>
        <time>2021-07-08T11:49:43Z</time>
      </trkpt>
      <trkpt lat="48.35239" lon="-3.68403">
        <ele>187</ele>
        <time>2021-07-08T11:49:44Z</time>
      </trkpt>
      <trkpt lat="48.35236" lon="-3.68402">
        <ele>187</ele>
        <time>2021-07-08T11:49:45Z</time>
      </trkpt>
      <trkpt lat="48.35233" lon="-3.68402">
        <ele>187</ele>
        <time>2021-07-08T11:49:46Z</time>
      </trkpt>
      <trkpt lat="48.3523" lon="-3.68401">
        <ele>187</ele>
        <time>2021-07-08T11:49:47Z</time>
      </trkpt>
      <trkpt lat="48.35228" lon="-3.68401">
        <ele>187</ele>
        <time>2021-07-08T11:49:48Z</time>
      </trkpt>
      <trkpt lat="48.35225" lon="-3.684">
        <ele>187</ele>
        <time>2021-07-08T11:49:49Z</time>
      </trkpt>
      <trkpt lat="48.35222" lon="-3.68398">
        <ele>187</ele>
        <time>2021-07-08T11:49:50Z</time>
      </trkpt>
      <trkpt lat="48.35219" lon="-3.68397">
        <ele>187</ele>
        <time>2021-07-08T11:49:51Z</time>
      </trkpt>
      <trkpt lat="48.35216" lon="-3.68395">
        <ele>187</ele>
        <time>2021-07-08T11:49:53Z</time>
      </trkpt>
      <trkpt lat="48.35213" lon="-3.68394">
        <ele>187</ele>
        <time>2021-07-08T11:49:53Z</time>
      </trkpt>
      <trkpt lat="48.3521" lon="-3.68392">
        <ele>187</ele>
        <time>2021-07-08T11:49:54Z</time>
      </trkpt>
      <trkpt lat="48.35206" lon="-3.6839">
        <ele>187</ele>
        <time>2021-07-08T11:49:55Z</time>
      </trkpt>
      <trkpt lat="48.35203" lon="-3.68388">
        <ele>187</ele>
        <time>2021-07-08T11:49:56Z</time>
      </trkpt>
      <trkpt lat="48.352" lon="-3.68386">
        <ele>187</ele>
        <time>2021-07-08T11:49:57Z</time>
      </trkpt>
      <trkpt lat="48.35196" lon="-3.68384">
        <ele>187</ele>
        <time>2021-07-08T11:49:58Z</time>
      </trkpt>
      <trkpt lat="48.35192" lon="-3.68382">
        <ele>187</ele>
        <time>2021-07-08T11:49:59Z</time>
      </trkpt>
      <trkpt lat="48.35188" lon="-3.68381">
        <ele>187</ele>
        <time>2021-07-08T11:50:00Z</time>
      </trkpt>
      <trkpt lat="48.35184" lon="-3.68379">
        <ele>187</ele>
        <time>2021-07-08T11:50:01Z</time>
      </trkpt>
      <trkpt lat="48.3518" lon="-3.68378">
        <ele>187</ele>
        <time>2021-07-08T11:50:02Z</time>
      </trkpt>
      <trkpt lat="48.35176" lon="-3.68378">
        <ele>187</ele>
        <time>2021-07-08T11:50:03Z</time>
      </trkpt>
      <trkpt lat="48.35172" lon="-3.68377">
        <ele>187</ele>
        <time>2021-07-08T11:50:04Z</time>
      </trkpt>
      <trkpt lat="48.35168" lon="-3.68376">
        <ele>187</ele>
        <time>2021-07-08T11:50:05Z</time>
      </trkpt>
      <trkpt lat="48.35164" lon="-3.68376">
        <ele>187</ele>
        <time>2021-07-08T11:50:06Z</time>
      </trkpt>
      <trkpt lat="48.3516" lon="-3.68376">
        <ele>187</ele>
        <time>2021-07-08T11:50:07Z</time>
      </trkpt>
      <trkpt lat="48.35155" lon="-3.68377">
        <ele>187</ele>
        <time>2021-07-08T11:50:08Z</time>
      </trkpt>
      <trkpt lat="48.35151" lon="-3.68378">
        <ele>187</ele>
        <time>2021-07-08T11:50:09Z</time>
      </trkpt>
      <trkpt lat="48.35147" lon="-3.68378">
        <ele>187</ele>
        <time>2021-07-08T11:50:10Z</time>
      </trkpt>
      <trkpt lat="48.35138" lon="-3.6838">
        <ele>187</ele>
        <time>2021-07-08T11:50:12Z</time>
      </trkpt>
      <trkpt lat="48.35134" lon="-3.68382">
        <ele>187</ele>
        <time>2021-07-08T11:50:13Z</time>
      </trkpt>
      <trkpt lat="48.3513" lon="-3.68383">
        <ele>187</ele>
        <time>2021-07-08T11:50:14Z</time>
      </trkpt>
      <trkpt lat="48.35126" lon="-3.68384">
        <ele>187</ele>
        <time>2021-07-08T11:50:15Z</time>
      </trkpt>
      <trkpt lat="48.35122" lon="-3.68386">
        <ele>187</ele>
        <time>2021-07-08T11:50:16Z</time>
      </trkpt>
      <trkpt lat="48.35118" lon="-3.68387">
        <ele>187</ele>
        <time>2021-07-08T11:50:17Z</time>
      </trkpt>
      <trkpt lat="48.35114" lon="-3.68388">
        <ele>187</ele>
        <time>2021-07-08T11:50:18Z</time>
      </trkpt>
      <trkpt lat="48.35111" lon="-3.6839">
        <ele>187</ele>
        <time>2021-07-08T11:50:19Z</time>
      </trkpt>
      <trkpt lat="48.35107" lon="-3.68391">
        <ele>187</ele>
        <time>2021-07-08T11:50:20Z</time>
      </trkpt>
      <trkpt lat="48.35103" lon="-3.68393">
        <ele>187</ele>
        <time>2021-07-08T11:50:21Z</time>
      </trkpt>
      <trkpt lat="48.35099" lon="-3.68394">
        <ele>187</ele>
        <time>2021-07-08T11:50:23Z</time>
      </trkpt>
      <trkpt lat="48.35095" lon="-3.68395">
        <ele>187</ele>
        <time>2021-07-08T11:50:24Z</time>
      </trkpt>
      <trkpt lat="48.35091" lon="-3.68397">
        <ele>187</ele>
        <time>2021-07-08T11:50:24Z</time>
      </trkpt>
      <trkpt lat="48.35087" lon="-3.68398">
        <ele>187</ele>
        <time>2021-07-08T11:50:25Z</time>
      </trkpt>
      <trkpt lat="48.35084" lon="-3.68399">
        <ele>187</ele>
        <time>2021-07-08T11:50:26Z</time>
      </trkpt>
      <trkpt lat="48.3508" lon="-3.68401">
        <ele>187</ele>
        <time>2021-07-08T11:50:27Z</time>
      </trkpt>
      <trkpt lat="48.35076" lon="-3.68402">
        <ele>187</ele>
        <time>2021-07-08T11:50:28Z</time>
      </trkpt>
      <trkpt lat="48.35072" lon="-3.68403">
        <ele>187</ele>
        <time>2021-07-08T11:50:30Z</time>
      </trkpt>
      <trkpt lat="48.35068" lon="-3.68405">
        <ele>187</ele>
        <time>2021-07-08T11:50:30Z</time>
      </trkpt>
      <trkpt lat="48.35063" lon="-3.68406">
        <ele>187</ele>
        <time>2021-07-08T11:50:31Z</time>
      </trkpt>
      <trkpt lat="48.35059" lon="-3.68407">
        <ele>187</ele>
        <time>2021-07-08T11:50:32Z</time>
      </trkpt>
      <trkpt lat="48.35055" lon="-3.68408">
        <ele>187</ele>
        <time>2021-07-08T11:50:33Z</time>
      </trkpt>
      <trkpt lat="48.3505" lon="-3.68408">
        <ele>187</ele>
        <time>2021-07-08T11:50:34Z</time>
      </trkpt>
      <trkpt lat="48.35046" lon="-3.68409">
        <ele>187</ele>
        <time>2021-07-08T11:50:35Z</time>
      </trkpt>
      <trkpt lat="48.35042" lon="-3.6841">
        <ele>187</ele>
        <time>2021-07-08T11:50:36Z</time>
      </trkpt>
      <trkpt lat="48.35037" lon="-3.68412">
        <ele>187</ele>
        <time>2021-07-08T11:50:37Z</time>
      </trkpt>
      <trkpt lat="48.35033" lon="-3.68413">
        <ele>187</ele>
        <time>2021-07-08T11:50:38Z</time>
      </trkpt>
      <trkpt lat="48.35029" lon="-3.68414">
        <ele>187</ele>
        <time>2021-07-08T11:50:39Z</time>
      </trkpt>
      <trkpt lat="48.35025" lon="-3.68416">
        <ele>187</ele>
        <time>2021-07-08T11:50:40Z</time>
      </trkpt>
      <trkpt lat="48.35021" lon="-3.68417">
        <ele>187</ele>
        <time>2021-07-08T11:50:41Z</time>
      </trkpt>
      <trkpt lat="48.35017" lon="-3.68418">
        <ele>187</ele>
        <time>2021-07-08T11:50:42Z</time>
      </trkpt>
      <trkpt lat="48.35012" lon="-3.68419">
        <ele>187</ele>
        <time>2021-07-08T11:50:43Z</time>
      </trkpt>
      <trkpt lat="48.35008" lon="-3.68419">
        <ele>187</ele>
        <time>2021-07-08T11:50:44Z</time>
      </trkpt>
      <trkpt lat="48.35005" lon="-3.6842">
        <ele>187</ele>
        <time>2021-07-08T11:50:45Z</time>
      </trkpt>
      <trkpt lat="48.35" lon="-3.68421">
        <ele>187</ele>
        <time>2021-07-08T11:50:46Z</time>
      </trkpt>
      <trkpt lat="48.34996" lon="-3.68422">
        <ele>187</ele>
        <time>2021-07-08T11:50:47Z</time>
      </trkpt>
      <trkpt lat="48.34992" lon="-3.68423">
        <ele>187</ele>
        <time>2021-07-08T11:50:48Z</time>
      </trkpt>
      <trkpt lat="48.34988" lon="-3.68424">
        <ele>187</ele>
        <time>2021-07-08T11:50:49Z</time>
      </trkpt>
      <trkpt lat="48.34984" lon="-3.68424">
        <ele>187</ele>
        <time>2021-07-08T11:50:50Z</time>
      </trkpt>
      <trkpt lat="48.34981" lon="-3.68425">
        <ele>187</ele>
        <time>2021-07-08T11:50:51Z</time>
      </trkpt>
      <trkpt lat="48.34977" lon="-3.68426">
        <ele>187</ele>
        <time>2021-07-08T11:50:52Z</time>
      </trkpt>
      <trkpt lat="48.34973" lon="-3.68426">
        <ele>187</ele>
        <time>2021-07-08T11:50:53Z</time>
      </trkpt>
      <trkpt lat="48.34969" lon="-3.68427">
        <ele>187</ele>
        <time>2021-07-08T11:50:54Z</time>
      </trkpt>
      <trkpt lat="48.34965" lon="-3.68428">
        <ele>187</ele>
        <time>2021-07-08T11:50:55Z</time>
      </trkpt>
      <trkpt lat="48.34961" lon="-3.68428">
        <ele>187</ele>
        <time>2021-07-08T11:50:56Z</time>
      </trkpt>
      <trkpt lat="48.34957" lon="-3.68428">
        <ele>187</ele>
        <time>2021-07-08T11:50:57Z</time>
      </trkpt>
      <trkpt lat="48.34953" lon="-3.68429">
        <ele>187</ele>
        <time>2021-07-08T11:50:58Z</time>
      </trkpt>
      <trkpt lat="48.34949" lon="-3.6843">
        <ele>187</ele>
        <time>2021-07-08T11:50:59Z</time>
      </trkpt>
      <trkpt lat="48.34946" lon="-3.6843">
        <ele>187</ele>
        <time>2021-07-08T11:51:00Z</time>
      </trkpt>
      <trkpt lat="48.34942" lon="-3.68431">
        <ele>187</ele>
        <time>2021-07-08T11:51:01Z</time>
      </trkpt>
      <trkpt lat="48.34939" lon="-3.6843">
        <ele>187</ele>
        <time>2021-07-08T11:51:02Z</time>
      </trkpt>
      <trkpt lat="48.34936" lon="-3.6843">
        <ele>187</ele>
        <time>2021-07-08T11:51:03Z</time>
      </trkpt>
      <trkpt lat="48.34932" lon="-3.68429">
        <ele>187</ele>
        <time>2021-07-08T11:51:04Z</time>
      </trkpt>
      <trkpt lat="48.3493" lon="-3.68429">
        <ele>187</ele>
        <time>2021-07-08T11:51:05Z</time>
      </trkpt>
      <trkpt lat="48.34927" lon="-3.68429">
        <ele>187</ele>
        <time>2021-07-08T11:51:06Z</time>
      </trkpt>
      <trkpt lat="48.34924" lon="-3.68429">
        <ele>187</ele>
        <time>2021-07-08T11:51:07Z</time>
      </trkpt>
      <trkpt lat="48.34921" lon="-3.6843">
        <ele>187</ele>
        <time>2021-07-08T11:51:08Z</time>
      </trkpt>
      <trkpt lat="48.34919" lon="-3.6843">
        <ele>187</ele>
        <time>2021-07-08T11:51:09Z</time>
      </trkpt>
      <trkpt lat="48.34916" lon="-3.6843">
        <ele>187</ele>
        <time>2021-07-08T11:51:11Z</time>
      </trkpt>
      <trkpt lat="48.34914" lon="-3.6843">
        <ele>187</ele>
        <time>2021-07-08T11:52:22Z</time>
      </trkpt>
      <trkpt lat="48.34913" lon="-3.68431">
        <ele>187</ele>
        <time>2021-07-08T11:52:26Z</time>
      </trkpt>
      <trkpt lat="48.34911" lon="-3.68432">
        <ele>188</ele>
        <time>2021-07-08T11:52:28Z</time>
      </trkpt>
      <trkpt lat="48.34909" lon="-3.68432">
        <ele>188</ele>
        <time>2021-07-08T11:52:30Z</time>
      </trkpt>
      <trkpt lat="48.34905" lon="-3.68432">
        <ele>188</ele>
        <time>2021-07-08T11:52:32Z</time>
      </trkpt>
      <trkpt lat="48.34903" lon="-3.68432">
        <ele>188</ele>
        <time>2021-07-08T11:52:33Z</time>
      </trkpt>
      <trkpt lat="48.349" lon="-3.68431">
        <ele>188</ele>
        <time>2021-07-08T11:52:34Z</time>
      </trkpt>
      <trkpt lat="48.34897" lon="-3.6843">
        <ele>188</ele>
        <time>2021-07-08T11:52:35Z</time>
      </trkpt>
      <trkpt lat="48.34895" lon="-3.6843">
        <ele>188</ele>
        <time>2021-07-08T11:52:36Z</time>
      </trkpt>
      <trkpt lat="48.34892" lon="-3.6843">
        <ele>188</ele>
        <time>2021-07-08T11:52:37Z</time>
      </trkpt>
      <trkpt lat="48.34889" lon="-3.6843">
        <ele>187</ele>
        <time>2021-07-08T11:52:38Z</time>
      </trkpt>
      <trkpt lat="48.34881" lon="-3.6843">
        <ele>187</ele>
        <time>2021-07-08T11:52:39Z</time>
      </trkpt>
      <trkpt lat="48.34869" lon="-3.6843">
        <ele>187</ele>
        <time>2021-07-08T11:52:43Z</time>
      </trkpt>
      <trkpt lat="48.34857" lon="-3.6843">
        <ele>187</ele>
        <time>2021-07-08T11:52:46Z</time>
      </trkpt>
      <trkpt lat="48.34844" lon="-3.6843">
        <ele>187</ele>
        <time>2021-07-08T11:52:49Z</time>
      </trkpt>
      <trkpt lat="48.3483" lon="-3.68429">
        <ele>187</ele>
        <time>2021-07-08T11:52:52Z</time>
      </trkpt>
      <trkpt lat="48.34821" lon="-3.68427">
        <ele>187</ele>
        <time>2021-07-08T11:52:54Z</time>
      </trkpt>
      <trkpt lat="48.34808" lon="-3.68425">
        <ele>187</ele>
        <time>2021-07-08T11:52:57Z</time>
      </trkpt>
      <trkpt lat="48.34803" lon="-3.68424">
        <ele>187</ele>
        <time>2021-07-08T11:52:58Z</time>
      </trkpt>
      <trkpt lat="48.34799" lon="-3.68423">
        <ele>187</ele>
        <time>2021-07-08T11:52:59Z</time>
      </trkpt>
      <trkpt lat="48.34794" lon="-3.68422">
        <ele>187</ele>
        <time>2021-07-08T11:53:00Z</time>
      </trkpt>
      <trkpt lat="48.3479" lon="-3.68422">
        <ele>187</ele>
        <time>2021-07-08T11:53:01Z</time>
      </trkpt>
      <trkpt lat="48.34786" lon="-3.6842">
        <ele>187</ele>
        <time>2021-07-08T11:53:02Z</time>
      </trkpt>
      <trkpt lat="48.34781" lon="-3.68419">
        <ele>187</ele>
        <time>2021-07-08T11:53:03Z</time>
      </trkpt>
      <trkpt lat="48.34777" lon="-3.68418">
        <ele>187</ele>
        <time>2021-07-08T11:53:05Z</time>
      </trkpt>
      <trkpt lat="48.34773" lon="-3.68417">
        <ele>187</ele>
        <time>2021-07-08T11:53:05Z</time>
      </trkpt>
      <trkpt lat="48.3476" lon="-3.68415">
        <ele>187</ele>
        <time>2021-07-08T11:53:08Z</time>
      </trkpt>
      <trkpt lat="48.34751" lon="-3.68413">
        <ele>187</ele>
        <time>2021-07-08T11:53:10Z</time>
      </trkpt>
      <trkpt lat="48.34738" lon="-3.6841">
        <ele>187</ele>
        <time>2021-07-08T11:53:13Z</time>
      </trkpt>
      <trkpt lat="48.34734" lon="-3.68408">
        <ele>187</ele>
        <time>2021-07-08T11:53:14Z</time>
      </trkpt>
      <trkpt lat="48.34721" lon="-3.68403">
        <ele>187</ele>
        <time>2021-07-08T11:53:17Z</time>
      </trkpt>
      <trkpt lat="48.34712" lon="-3.684">
        <ele>187</ele>
        <time>2021-07-08T11:53:19Z</time>
      </trkpt>
      <trkpt lat="48.347" lon="-3.68395">
        <ele>187</ele>
        <time>2021-07-08T11:53:21Z</time>
      </trkpt>
      <trkpt lat="48.34691" lon="-3.68393">
        <ele>187</ele>
        <time>2021-07-08T11:53:24Z</time>
      </trkpt>
      <trkpt lat="48.34675" lon="-3.6839">
        <ele>187</ele>
        <time>2021-07-08T11:53:27Z</time>
      </trkpt>
      <trkpt lat="48.34671" lon="-3.68388">
        <ele>187</ele>
        <time>2021-07-08T11:53:29Z</time>
      </trkpt>
      <trkpt lat="48.34667" lon="-3.68387">
        <ele>187</ele>
        <time>2021-07-08T11:53:30Z</time>
      </trkpt>
      <trkpt lat="48.34663" lon="-3.68385">
        <ele>187</ele>
        <time>2021-07-08T11:53:31Z</time>
      </trkpt>
      <trkpt lat="48.34651" lon="-3.68379">
        <ele>187</ele>
        <time>2021-07-08T11:53:33Z</time>
      </trkpt>
      <trkpt lat="48.34641" lon="-3.68375">
        <ele>187</ele>
        <time>2021-07-08T11:53:37Z</time>
      </trkpt>
      <trkpt lat="48.34632" lon="-3.68369">
        <ele>187</ele>
        <time>2021-07-08T11:53:39Z</time>
      </trkpt>
      <trkpt lat="48.34621" lon="-3.6836">
        <ele>187</ele>
        <time>2021-07-08T11:53:44Z</time>
      </trkpt>
      <trkpt lat="48.34611" lon="-3.68355">
        <ele>187</ele>
        <time>2021-07-08T11:53:46Z</time>
      </trkpt>
      <trkpt lat="48.34602" lon="-3.68349">
        <ele>187</ele>
        <time>2021-07-08T11:53:48Z</time>
      </trkpt>
      <trkpt lat="48.34592" lon="-3.68343">
        <ele>187</ele>
        <time>2021-07-08T11:53:50Z</time>
      </trkpt>
      <trkpt lat="48.34584" lon="-3.68338">
        <ele>187</ele>
        <time>2021-07-08T11:53:51Z</time>
      </trkpt>
      <trkpt lat="48.34571" lon="-3.68325">
        <ele>187</ele>
        <time>2021-07-08T11:53:55Z</time>
      </trkpt>
      <trkpt lat="48.34562" lon="-3.68317">
        <ele>187</ele>
        <time>2021-07-08T11:53:57Z</time>
      </trkpt>
      <trkpt lat="48.34555" lon="-3.68307">
        <ele>187</ele>
        <time>2021-07-08T11:53:59Z</time>
      </trkpt>
      <trkpt lat="48.34548" lon="-3.68299">
        <ele>187</ele>
        <time>2021-07-08T11:54:00Z</time>
      </trkpt>
      <trkpt lat="48.34539" lon="-3.68287">
        <ele>187</ele>
        <time>2021-07-08T11:54:04Z</time>
      </trkpt>
      <trkpt lat="48.34531" lon="-3.68276">
        <ele>187</ele>
        <time>2021-07-08T11:54:07Z</time>
      </trkpt>
      <trkpt lat="48.34521" lon="-3.68267">
        <ele>187</ele>
        <time>2021-07-08T11:54:10Z</time>
      </trkpt>
      <trkpt lat="48.34513" lon="-3.68256">
        <ele>187</ele>
        <time>2021-07-08T11:54:13Z</time>
      </trkpt>
      <trkpt lat="48.34505" lon="-3.68245">
        <ele>188</ele>
        <time>2021-07-08T11:54:16Z</time>
      </trkpt>
      <trkpt lat="48.34497" lon="-3.68235">
        <ele>187</ele>
        <time>2021-07-08T11:54:19Z</time>
      </trkpt>
      <trkpt lat="48.34485" lon="-3.68222">
        <ele>187</ele>
        <time>2021-07-08T11:54:22Z</time>
      </trkpt>
      <trkpt lat="48.34475" lon="-3.68214">
        <ele>187</ele>
        <time>2021-07-08T11:54:26Z</time>
      </trkpt>
      <trkpt lat="48.34461" lon="-3.68206">
        <ele>187</ele>
        <time>2021-07-08T11:54:28Z</time>
      </trkpt>
      <trkpt lat="48.34452" lon="-3.682">
        <ele>187</ele>
        <time>2021-07-08T11:54:31Z</time>
      </trkpt>
      <trkpt lat="48.3444" lon="-3.68193">
        <ele>187</ele>
        <time>2021-07-08T11:54:34Z</time>
      </trkpt>
      <trkpt lat="48.34428" lon="-3.68186">
        <ele>188</ele>
        <time>2021-07-08T11:54:37Z</time>
      </trkpt>
      <trkpt lat="48.34417" lon="-3.6818">
        <ele>188</ele>
        <time>2021-07-08T11:54:40Z</time>
      </trkpt>
      <trkpt lat="48.34407" lon="-3.68178">
        <ele>188</ele>
        <time>2021-07-08T11:54:43Z</time>
      </trkpt>
      <trkpt lat="48.34398" lon="-3.68174">
        <ele>188</ele>
        <time>2021-07-08T11:54:46Z</time>
      </trkpt>
      <trkpt lat="48.34387" lon="-3.6817">
        <ele>188</ele>
        <time>2021-07-08T11:54:50Z</time>
      </trkpt>
      <trkpt lat="48.34378" lon="-3.68166">
        <ele>189</ele>
        <time>2021-07-08T11:54:53Z</time>
      </trkpt>
      <trkpt lat="48.34366" lon="-3.68161">
        <ele>189</ele>
        <time>2021-07-08T11:54:57Z</time>
      </trkpt>
      <trkpt lat="48.34355" lon="-3.68157">
        <ele>188</ele>
        <time>2021-07-08T11:55:00Z</time>
      </trkpt>
      <trkpt lat="48.34342" lon="-3.68152">
        <ele>189</ele>
        <time>2021-07-08T11:55:03Z</time>
      </trkpt>
      <trkpt lat="48.34332" lon="-3.68147">
        <ele>189</ele>
        <time>2021-07-08T11:55:06Z</time>
      </trkpt>
      <trkpt lat="48.34322" lon="-3.68143">
        <ele>189</ele>
        <time>2021-07-08T11:55:09Z</time>
      </trkpt>
      <trkpt lat="48.3431" lon="-3.68137">
        <ele>189</ele>
        <time>2021-07-08T11:55:12Z</time>
      </trkpt>
      <trkpt lat="48.34299" lon="-3.68132">
        <ele>189</ele>
        <time>2021-07-08T11:55:15Z</time>
      </trkpt>
      <trkpt lat="48.34288" lon="-3.6813">
        <ele>189</ele>
        <time>2021-07-08T11:55:18Z</time>
      </trkpt>
      <trkpt lat="48.34276" lon="-3.68126">
        <ele>189</ele>
        <time>2021-07-08T11:55:21Z</time>
      </trkpt>
      <trkpt lat="48.34267" lon="-3.68124">
        <ele>189</ele>
        <time>2021-07-08T11:55:23Z</time>
      </trkpt>
      <trkpt lat="48.34257" lon="-3.6812">
        <ele>190</ele>
        <time>2021-07-08T11:55:25Z</time>
      </trkpt>
      <trkpt lat="48.34246" lon="-3.68111">
        <ele>190</ele>
        <time>2021-07-08T11:55:28Z</time>
      </trkpt>
      <trkpt lat="48.34237" lon="-3.68104">
        <ele>190</ele>
        <time>2021-07-08T11:55:31Z</time>
      </trkpt>
      <trkpt lat="48.34229" lon="-3.68095">
        <ele>190</ele>
        <time>2021-07-08T11:55:34Z</time>
      </trkpt>
      <trkpt lat="48.34215" lon="-3.68082">
        <ele>190</ele>
        <time>2021-07-08T11:55:37Z</time>
      </trkpt>
      <trkpt lat="48.34207" lon="-3.68075">
        <ele>190</ele>
        <time>2021-07-08T11:55:40Z</time>
      </trkpt>
      <trkpt lat="48.34198" lon="-3.68068">
        <ele>190</ele>
        <time>2021-07-08T11:55:42Z</time>
      </trkpt>
      <trkpt lat="48.34189" lon="-3.68061">
        <ele>190</ele>
        <time>2021-07-08T11:55:44Z</time>
      </trkpt>
      <trkpt lat="48.34185" lon="-3.68057">
        <ele>190</ele>
        <time>2021-07-08T11:55:45Z</time>
      </trkpt>
      <trkpt lat="48.34183" lon="-3.68052">
        <ele>190</ele>
        <time>2021-07-08T11:55:46Z</time>
      </trkpt>
      <trkpt lat="48.34155" lon="-3.67994">
        <ele>190</ele>
        <time>2021-07-08T11:55:47Z</time>
      </trkpt>
      <trkpt lat="48.3418" lon="-3.68048">
        <ele>190</ele>
        <time>2021-07-08T11:55:47Z</time>
      </trkpt>
      <trkpt lat="48.34154" lon="-3.67991">
        <ele>190</ele>
        <time>2021-07-08T11:55:47Z</time>
      </trkpt>
      <trkpt lat="48.34177" lon="-3.68043">
        <ele>190</ele>
        <time>2021-07-08T11:55:48Z</time>
      </trkpt>
      <trkpt lat="48.34152" lon="-3.67988">
        <ele>190</ele>
        <time>2021-07-08T11:55:49Z</time>
      </trkpt>
      <trkpt lat="48.34175" lon="-3.68039">
        <ele>190</ele>
        <time>2021-07-08T11:55:49Z</time>
      </trkpt>
      <trkpt lat="48.34151" lon="-3.67985">
        <ele>190</ele>
        <time>2021-07-08T11:55:49Z</time>
      </trkpt>
      <trkpt lat="48.34173" lon="-3.68035">
        <ele>190</ele>
        <time>2021-07-08T11:55:50Z</time>
      </trkpt>
      <trkpt lat="48.34149" lon="-3.67981">
        <ele>190</ele>
        <time>2021-07-08T11:55:50Z</time>
      </trkpt>
      <trkpt lat="48.34171" lon="-3.68031">
        <ele>190</ele>
        <time>2021-07-08T11:55:51Z</time>
      </trkpt>
      <trkpt lat="48.34147" lon="-3.67977">
        <ele>190</ele>
        <time>2021-07-08T11:55:51Z</time>
      </trkpt>
      <trkpt lat="48.34169" lon="-3.68028">
        <ele>190</ele>
        <time>2021-07-08T11:55:52Z</time>
      </trkpt>
      <trkpt lat="48.34146" lon="-3.67973">
        <ele>190</ele>
        <time>2021-07-08T11:55:52Z</time>
      </trkpt>
      <trkpt lat="48.34167" lon="-3.68024">
        <ele>190</ele>
        <time>2021-07-08T11:55:53Z</time>
      </trkpt>
      <trkpt lat="48.34145" lon="-3.67968">
        <ele>190</ele>
        <time>2021-07-08T11:55:53Z</time>
      </trkpt>
      <trkpt lat="48.34165" lon="-3.6802">
        <ele>190</ele>
        <time>2021-07-08T11:55:54Z</time>
      </trkpt>
      <trkpt lat="48.34143" lon="-3.67964">
        <ele>190</ele>
        <time>2021-07-08T11:55:54Z</time>
      </trkpt>
      <trkpt lat="48.34164" lon="-3.68017">
        <ele>190</ele>
        <time>2021-07-08T11:55:55Z</time>
      </trkpt>
      <trkpt lat="48.34142" lon="-3.67959">
        <ele>190</ele>
        <time>2021-07-08T11:55:55Z</time>
      </trkpt>
      <trkpt lat="48.34162" lon="-3.68014">
        <ele>190</ele>
        <time>2021-07-08T11:55:56Z</time>
      </trkpt>
      <trkpt lat="48.34141" lon="-3.67955">
        <ele>190</ele>
        <time>2021-07-08T11:55:57Z</time>
      </trkpt>
      <trkpt lat="48.34161" lon="-3.68012">
        <ele>190</ele>
        <time>2021-07-08T11:55:57Z</time>
      </trkpt>
      <trkpt lat="48.34139" lon="-3.6795">
        <ele>190</ele>
        <time>2021-07-08T11:55:58Z</time>
      </trkpt>
      <trkpt lat="48.3416" lon="-3.68009">
        <ele>190</ele>
        <time>2021-07-08T11:55:58Z</time>
      </trkpt>
      <trkpt lat="48.34138" lon="-3.67945">
        <ele>190</ele>
        <time>2021-07-08T11:55:58Z</time>
      </trkpt>
      <trkpt lat="48.34137" lon="-3.67939">
        <ele>190</ele>
        <time>2021-07-08T11:55:59Z</time>
      </trkpt>
      <trkpt lat="48.34158" lon="-3.68006">
        <ele>190</ele>
        <time>2021-07-08T11:56:00Z</time>
      </trkpt>
      <trkpt lat="48.34136" lon="-3.67934">
        <ele>190</ele>
        <time>2021-07-08T11:56:00Z</time>
      </trkpt>
      <trkpt lat="48.34136" lon="-3.67929">
        <ele>190</ele>
        <time>2021-07-08T11:56:01Z</time>
      </trkpt>
      <trkpt lat="48.34135" lon="-3.67924">
        <ele>190</ele>
        <time>2021-07-08T11:56:02Z</time>
      </trkpt>
      <trkpt lat="48.34134" lon="-3.67919">
        <ele>190</ele>
        <time>2021-07-08T11:56:03Z</time>
      </trkpt>
      <trkpt lat="48.34133" lon="-3.67914">
        <ele>190</ele>
        <time>2021-07-08T11:56:04Z</time>
      </trkpt>
      <trkpt lat="48.34157" lon="-3.68004">
        <ele>191</ele>
        <time>2021-07-08T11:56:06Z</time>
      </trkpt>
      <trkpt lat="48.34131" lon="-3.67904">
        <ele>190</ele>
        <time>2021-07-08T11:56:06Z</time>
      </trkpt>
      <trkpt lat="48.34131" lon="-3.679">
        <ele>190</ele>
        <time>2021-07-08T11:56:07Z</time>
      </trkpt>
      <trkpt lat="48.3413" lon="-3.67895">
        <ele>190</ele>
        <time>2021-07-08T11:56:08Z</time>
      </trkpt>
      <trkpt lat="48.3413" lon="-3.67891">
        <ele>189</ele>
        <time>2021-07-08T11:56:10Z</time>
      </trkpt>
      <trkpt lat="48.3413" lon="-3.67886">
        <ele>189</ele>
        <time>2021-07-08T11:56:11Z</time>
      </trkpt>
      <trkpt lat="48.34129" lon="-3.67882">
        <ele>189</ele>
        <time>2021-07-08T11:56:11Z</time>
      </trkpt>
      <trkpt lat="48.34129" lon="-3.67871">
        <ele>190</ele>
        <time>2021-07-08T11:56:13Z</time>
      </trkpt>
      <trkpt lat="48.34128" lon="-3.67866">
        <ele>190</ele>
        <time>2021-07-08T11:56:14Z</time>
      </trkpt>
      <trkpt lat="48.34127" lon="-3.67861">
        <ele>190</ele>
        <time>2021-07-08T11:56:15Z</time>
      </trkpt>
      <trkpt lat="48.34126" lon="-3.67855">
        <ele>190</ele>
        <time>2021-07-08T11:56:17Z</time>
      </trkpt>
      <trkpt lat="48.34126" lon="-3.6785">
        <ele>190</ele>
        <time>2021-07-08T11:56:17Z</time>
      </trkpt>
      <trkpt lat="48.34126" lon="-3.67844">
        <ele>190</ele>
        <time>2021-07-08T11:56:18Z</time>
      </trkpt>
      <trkpt lat="48.34125" lon="-3.67839">
        <ele>191</ele>
        <time>2021-07-08T11:56:19Z</time>
      </trkpt>
      <trkpt lat="48.34124" lon="-3.67833">
        <ele>191</ele>
        <time>2021-07-08T11:56:20Z</time>
      </trkpt>
      <trkpt lat="48.34124" lon="-3.67827">
        <ele>191</ele>
        <time>2021-07-08T11:56:21Z</time>
      </trkpt>
      <trkpt lat="48.34124" lon="-3.67821">
        <ele>191</ele>
        <time>2021-07-08T11:56:22Z</time>
      </trkpt>
      <trkpt lat="48.34123" lon="-3.67815">
        <ele>191</ele>
        <time>2021-07-08T11:56:23Z</time>
      </trkpt>
      <trkpt lat="48.34123" lon="-3.6781">
        <ele>191</ele>
        <time>2021-07-08T11:56:24Z</time>
      </trkpt>
      <trkpt lat="48.34122" lon="-3.67798">
        <ele>191</ele>
        <time>2021-07-08T11:56:26Z</time>
      </trkpt>
      <trkpt lat="48.34121" lon="-3.67792">
        <ele>192</ele>
        <time>2021-07-08T11:56:28Z</time>
      </trkpt>
      <trkpt lat="48.3412" lon="-3.67786">
        <ele>192</ele>
        <time>2021-07-08T11:56:29Z</time>
      </trkpt>
      <trkpt lat="48.3412" lon="-3.6778">
        <ele>192</ele>
        <time>2021-07-08T11:56:30Z</time>
      </trkpt>
      <trkpt lat="48.34119" lon="-3.67774">
        <ele>192</ele>
        <time>2021-07-08T11:56:30Z</time>
      </trkpt>
      <trkpt lat="48.34118" lon="-3.67768">
        <ele>192</ele>
        <time>2021-07-08T11:56:31Z</time>
      </trkpt>
      <trkpt lat="48.34117" lon="-3.67762">
        <ele>192</ele>
        <time>2021-07-08T11:56:32Z</time>
      </trkpt>
      <trkpt lat="48.34117" lon="-3.67757">
        <ele>192</ele>
        <time>2021-07-08T11:56:33Z</time>
      </trkpt>
      <trkpt lat="48.34116" lon="-3.67752">
        <ele>192</ele>
        <time>2021-07-08T11:56:35Z</time>
      </trkpt>
      <trkpt lat="48.34115" lon="-3.67741">
        <ele>192</ele>
        <time>2021-07-08T11:56:36Z</time>
      </trkpt>
      <trkpt lat="48.34112" lon="-3.67724">
        <ele>192</ele>
        <time>2021-07-08T11:57:45Z</time>
      </trkpt>
      <trkpt lat="48.3411" lon="-3.67713">
        <ele>192</ele>
        <time>2021-07-08T11:57:47Z</time>
      </trkpt>
      <trkpt lat="48.34108" lon="-3.67703">
        <ele>193</ele>
        <time>2021-07-08T11:57:49Z</time>
      </trkpt>
      <trkpt lat="48.34108" lon="-3.67698">
        <ele>193</ele>
        <time>2021-07-08T11:57:50Z</time>
      </trkpt>
      <trkpt lat="48.34109" lon="-3.67682">
        <ele>193</ele>
        <time>2021-07-08T11:57:53Z</time>
      </trkpt>
      <trkpt lat="48.3411" lon="-3.67676">
        <ele>193</ele>
        <time>2021-07-08T11:57:54Z</time>
      </trkpt>
      <trkpt lat="48.34112" lon="-3.67666">
        <ele>193</ele>
        <time>2021-07-08T11:57:56Z</time>
      </trkpt>
      <trkpt lat="48.34112" lon="-3.67662">
        <ele>193</ele>
        <time>2021-07-08T11:57:57Z</time>
      </trkpt>
      <trkpt lat="48.34112" lon="-3.67657">
        <ele>193</ele>
        <time>2021-07-08T11:57:58Z</time>
      </trkpt>
      <trkpt lat="48.34113" lon="-3.67651">
        <ele>193</ele>
        <time>2021-07-08T11:57:59Z</time>
      </trkpt>
      <trkpt lat="48.34113" lon="-3.67646">
        <ele>193</ele>
        <time>2021-07-08T11:58:00Z</time>
      </trkpt>
      <trkpt lat="48.34114" lon="-3.67642">
        <ele>193</ele>
        <time>2021-07-08T11:58:01Z</time>
      </trkpt>
      <trkpt lat="48.34114" lon="-3.67636">
        <ele>193</ele>
        <time>2021-07-08T11:58:02Z</time>
      </trkpt>
      <trkpt lat="48.34116" lon="-3.67632">
        <ele>193</ele>
        <time>2021-07-08T11:58:03Z</time>
      </trkpt>
      <trkpt lat="48.34117" lon="-3.67627">
        <ele>193</ele>
        <time>2021-07-08T11:58:04Z</time>
      </trkpt>
      <trkpt lat="48.34117" lon="-3.67623">
        <ele>193</ele>
        <time>2021-07-08T11:58:05Z</time>
      </trkpt>
      <trkpt lat="48.34118" lon="-3.67618">
        <ele>193</ele>
        <time>2021-07-08T11:58:06Z</time>
      </trkpt>
      <trkpt lat="48.34119" lon="-3.67614">
        <ele>193</ele>
        <time>2021-07-08T11:58:07Z</time>
      </trkpt>
      <trkpt lat="48.3412" lon="-3.67611">
        <ele>193</ele>
        <time>2021-07-08T11:58:08Z</time>
      </trkpt>
      <trkpt lat="48.3412" lon="-3.67607">
        <ele>194</ele>
        <time>2021-07-08T11:58:09Z</time>
      </trkpt>
      <trkpt lat="48.34121" lon="-3.67603">
        <ele>194</ele>
        <time>2021-07-08T11:58:10Z</time>
      </trkpt>
      <trkpt lat="48.34122" lon="-3.67599">
        <ele>194</ele>
        <time>2021-07-08T11:58:11Z</time>
      </trkpt>
      <trkpt lat="48.34123" lon="-3.67594">
        <ele>194</ele>
        <time>2021-07-08T11:58:12Z</time>
      </trkpt>
      <trkpt lat="48.34125" lon="-3.67589">
        <ele>194</ele>
        <time>2021-07-08T11:58:13Z</time>
      </trkpt>
      <trkpt lat="48.34126" lon="-3.67585">
        <ele>194</ele>
        <time>2021-07-08T11:58:14Z</time>
      </trkpt>
      <trkpt lat="48.34127" lon="-3.6758">
        <ele>194</ele>
        <time>2021-07-08T11:58:15Z</time>
      </trkpt>
      <trkpt lat="48.34128" lon="-3.67575">
        <ele>194</ele>
        <time>2021-07-08T11:58:16Z</time>
      </trkpt>
      <trkpt lat="48.3413" lon="-3.6757">
        <ele>194</ele>
        <time>2021-07-08T11:58:17Z</time>
      </trkpt>
      <trkpt lat="48.34132" lon="-3.67566">
        <ele>194</ele>
        <time>2021-07-08T11:58:18Z</time>
      </trkpt>
      <trkpt lat="48.34133" lon="-3.67563">
        <ele>194</ele>
        <time>2021-07-08T11:58:19Z</time>
      </trkpt>
      <trkpt lat="48.34135" lon="-3.67557">
        <ele>195</ele>
        <time>2021-07-08T11:58:20Z</time>
      </trkpt>
      <trkpt lat="48.34137" lon="-3.67553">
        <ele>195</ele>
        <time>2021-07-08T11:58:21Z</time>
      </trkpt>
      <trkpt lat="48.34139" lon="-3.67549">
        <ele>195</ele>
        <time>2021-07-08T11:58:22Z</time>
      </trkpt>
      <trkpt lat="48.34141" lon="-3.67544">
        <ele>195</ele>
        <time>2021-07-08T11:58:23Z</time>
      </trkpt>
      <trkpt lat="48.34143" lon="-3.6754">
        <ele>195</ele>
        <time>2021-07-08T11:58:24Z</time>
      </trkpt>
      <trkpt lat="48.34145" lon="-3.67536">
        <ele>195</ele>
        <time>2021-07-08T11:58:25Z</time>
      </trkpt>
      <trkpt lat="48.34147" lon="-3.67532">
        <ele>195</ele>
        <time>2021-07-08T11:58:26Z</time>
      </trkpt>
      <trkpt lat="48.3415" lon="-3.67529">
        <ele>195</ele>
        <time>2021-07-08T11:58:27Z</time>
      </trkpt>
      <trkpt lat="48.34151" lon="-3.67524">
        <ele>195</ele>
        <time>2021-07-08T11:58:28Z</time>
      </trkpt>
      <trkpt lat="48.34155" lon="-3.67515">
        <ele>195</ele>
        <time>2021-07-08T11:58:30Z</time>
      </trkpt>
      <trkpt lat="48.34157" lon="-3.67511">
        <ele>195</ele>
        <time>2021-07-08T11:58:31Z</time>
      </trkpt>
      <trkpt lat="48.34159" lon="-3.67506">
        <ele>195</ele>
        <time>2021-07-08T11:58:32Z</time>
      </trkpt>
      <trkpt lat="48.34161" lon="-3.67502">
        <ele>195</ele>
        <time>2021-07-08T11:58:33Z</time>
      </trkpt>
      <trkpt lat="48.34162" lon="-3.67498">
        <ele>195</ele>
        <time>2021-07-08T11:58:34Z</time>
      </trkpt>
      <trkpt lat="48.34164" lon="-3.67494">
        <ele>195</ele>
        <time>2021-07-08T11:58:35Z</time>
      </trkpt>
      <trkpt lat="48.34166" lon="-3.6749">
        <ele>196</ele>
        <time>2021-07-08T11:58:36Z</time>
      </trkpt>
      <trkpt lat="48.34168" lon="-3.67487">
        <ele>196</ele>
        <time>2021-07-08T11:58:37Z</time>
      </trkpt>
      <trkpt lat="48.3417" lon="-3.67483">
        <ele>196</ele>
        <time>2021-07-08T11:58:38Z</time>
      </trkpt>
      <trkpt lat="48.34174" lon="-3.67478">
        <ele>196</ele>
        <time>2021-07-08T11:58:39Z</time>
      </trkpt>
      <trkpt lat="48.34176" lon="-3.67474">
        <ele>196</ele>
        <time>2021-07-08T11:58:40Z</time>
      </trkpt>
      <trkpt lat="48.34178" lon="-3.6747">
        <ele>196</ele>
        <time>2021-07-08T11:58:41Z</time>
      </trkpt>
      <trkpt lat="48.3418" lon="-3.67465">
        <ele>196</ele>
        <time>2021-07-08T11:58:42Z</time>
      </trkpt>
      <trkpt lat="48.34181" lon="-3.67461">
        <ele>196</ele>
        <time>2021-07-08T11:58:43Z</time>
      </trkpt>
      <trkpt lat="48.34183" lon="-3.67458">
        <ele>196</ele>
        <time>2021-07-08T11:58:44Z</time>
      </trkpt>
      <trkpt lat="48.34186" lon="-3.67453">
        <ele>196</ele>
        <time>2021-07-08T11:58:45Z</time>
      </trkpt>
      <trkpt lat="48.34188" lon="-3.67449">
        <ele>196</ele>
        <time>2021-07-08T11:58:46Z</time>
      </trkpt>
      <trkpt lat="48.3419" lon="-3.67445">
        <ele>196</ele>
        <time>2021-07-08T11:58:47Z</time>
      </trkpt>
      <trkpt lat="48.34192" lon="-3.67441">
        <ele>196</ele>
        <time>2021-07-08T11:58:48Z</time>
      </trkpt>
      <trkpt lat="48.34194" lon="-3.67437">
        <ele>196</ele>
        <time>2021-07-08T11:58:50Z</time>
      </trkpt>
      <trkpt lat="48.34196" lon="-3.67433">
        <ele>196</ele>
        <time>2021-07-08T11:58:50Z</time>
      </trkpt>
      <trkpt lat="48.34198" lon="-3.67429">
        <ele>196</ele>
        <time>2021-07-08T11:58:51Z</time>
      </trkpt>
      <trkpt lat="48.342" lon="-3.67425">
        <ele>196</ele>
        <time>2021-07-08T11:58:52Z</time>
      </trkpt>
      <trkpt lat="48.34202" lon="-3.6742">
        <ele>196</ele>
        <time>2021-07-08T11:58:53Z</time>
      </trkpt>
      <trkpt lat="48.34204" lon="-3.67416">
        <ele>197</ele>
        <time>2021-07-08T11:58:54Z</time>
      </trkpt>
      <trkpt lat="48.34207" lon="-3.67412">
        <ele>197</ele>
        <time>2021-07-08T11:58:55Z</time>
      </trkpt>
      <trkpt lat="48.34209" lon="-3.67408">
        <ele>197</ele>
        <time>2021-07-08T11:58:56Z</time>
      </trkpt>
      <trkpt lat="48.34211" lon="-3.67404">
        <ele>197</ele>
        <time>2021-07-08T11:58:57Z</time>
      </trkpt>
      <trkpt lat="48.34213" lon="-3.674">
        <ele>197</ele>
        <time>2021-07-08T11:58:58Z</time>
      </trkpt>
      <trkpt lat="48.34215" lon="-3.67395">
        <ele>197</ele>
        <time>2021-07-08T11:58:59Z</time>
      </trkpt>
      <trkpt lat="48.34217" lon="-3.67392">
        <ele>197</ele>
        <time>2021-07-08T11:59:00Z</time>
      </trkpt>
      <trkpt lat="48.34219" lon="-3.67388">
        <ele>198</ele>
        <time>2021-07-08T11:59:01Z</time>
      </trkpt>
      <trkpt lat="48.34221" lon="-3.67384">
        <ele>198</ele>
        <time>2021-07-08T11:59:02Z</time>
      </trkpt>
      <trkpt lat="48.34223" lon="-3.67381">
        <ele>198</ele>
        <time>2021-07-08T11:59:03Z</time>
      </trkpt>
      <trkpt lat="48.34225" lon="-3.67376">
        <ele>198</ele>
        <time>2021-07-08T11:59:04Z</time>
      </trkpt>
      <trkpt lat="48.34227" lon="-3.67371">
        <ele>198</ele>
        <time>2021-07-08T11:59:05Z</time>
      </trkpt>
      <trkpt lat="48.34229" lon="-3.67366">
        <ele>198</ele>
        <time>2021-07-08T11:59:06Z</time>
      </trkpt>
      <trkpt lat="48.34233" lon="-3.67357">
        <ele>198</ele>
        <time>2021-07-08T11:59:08Z</time>
      </trkpt>
      <trkpt lat="48.34234" lon="-3.67353">
        <ele>198</ele>
        <time>2021-07-08T11:59:09Z</time>
      </trkpt>
      <trkpt lat="48.34236" lon="-3.67349">
        <ele>198</ele>
        <time>2021-07-08T11:59:10Z</time>
      </trkpt>
      <trkpt lat="48.34238" lon="-3.67344">
        <ele>199</ele>
        <time>2021-07-08T11:59:11Z</time>
      </trkpt>
      <trkpt lat="48.3424" lon="-3.67339">
        <ele>199</ele>
        <time>2021-07-08T11:59:12Z</time>
      </trkpt>
      <trkpt lat="48.34241" lon="-3.67335">
        <ele>199</ele>
        <time>2021-07-08T11:59:13Z</time>
      </trkpt>
      <trkpt lat="48.34243" lon="-3.67331">
        <ele>199</ele>
        <time>2021-07-08T11:59:14Z</time>
      </trkpt>
      <trkpt lat="48.34246" lon="-3.67327">
        <ele>199</ele>
        <time>2021-07-08T11:59:15Z</time>
      </trkpt>
      <trkpt lat="48.34248" lon="-3.67322">
        <ele>199</ele>
        <time>2021-07-08T11:59:16Z</time>
      </trkpt>
      <trkpt lat="48.3425" lon="-3.67318">
        <ele>199</ele>
        <time>2021-07-08T11:59:17Z</time>
      </trkpt>
      <trkpt lat="48.34252" lon="-3.67314">
        <ele>199</ele>
        <time>2021-07-08T11:59:18Z</time>
      </trkpt>
      <trkpt lat="48.34254" lon="-3.67309">
        <ele>199</ele>
        <time>2021-07-08T11:59:19Z</time>
      </trkpt>
      <trkpt lat="48.34255" lon="-3.67305">
        <ele>199</ele>
        <time>2021-07-08T11:59:20Z</time>
      </trkpt>
      <trkpt lat="48.34257" lon="-3.67301">
        <ele>199</ele>
        <time>2021-07-08T11:59:21Z</time>
      </trkpt>
      <trkpt lat="48.34258" lon="-3.67297">
        <ele>200</ele>
        <time>2021-07-08T11:59:22Z</time>
      </trkpt>
      <trkpt lat="48.3426" lon="-3.67293">
        <ele>200</ele>
        <time>2021-07-08T11:59:23Z</time>
      </trkpt>
      <trkpt lat="48.34261" lon="-3.67288">
        <ele>200</ele>
        <time>2021-07-08T11:59:24Z</time>
      </trkpt>
      <trkpt lat="48.34263" lon="-3.67284">
        <ele>200</ele>
        <time>2021-07-08T11:59:25Z</time>
      </trkpt>
      <trkpt lat="48.34265" lon="-3.6728">
        <ele>200</ele>
        <time>2021-07-08T11:59:26Z</time>
      </trkpt>
      <trkpt lat="48.34266" lon="-3.67275">
        <ele>200</ele>
        <time>2021-07-08T11:59:27Z</time>
      </trkpt>
      <trkpt lat="48.3427" lon="-3.67263">
        <ele>200</ele>
        <time>2021-07-08T11:59:30Z</time>
      </trkpt>
      <trkpt lat="48.34271" lon="-3.67249">
        <ele>200</ele>
        <time>2021-07-08T11:59:33Z</time>
      </trkpt>
      <trkpt lat="48.34274" lon="-3.67236">
        <ele>200</ele>
        <time>2021-07-08T11:59:36Z</time>
      </trkpt>
      <trkpt lat="48.34274" lon="-3.67231">
        <ele>200</ele>
        <time>2021-07-08T11:59:37Z</time>
      </trkpt>
      <trkpt lat="48.34275" lon="-3.67221">
        <ele>200</ele>
        <time>2021-07-08T11:59:38Z</time>
      </trkpt>
      <trkpt lat="48.34276" lon="-3.67215">
        <ele>200</ele>
        <time>2021-07-08T11:59:40Z</time>
      </trkpt>
      <trkpt lat="48.34276" lon="-3.6721">
        <ele>200</ele>
        <time>2021-07-08T11:59:41Z</time>
      </trkpt>
      <trkpt lat="48.34276" lon="-3.67205">
        <ele>200</ele>
        <time>2021-07-08T11:59:42Z</time>
      </trkpt>
      <trkpt lat="48.34276" lon="-3.672">
        <ele>201</ele>
        <time>2021-07-08T11:59:43Z</time>
      </trkpt>
      <trkpt lat="48.34276" lon="-3.67195">
        <ele>201</ele>
        <time>2021-07-08T11:59:44Z</time>
      </trkpt>
      <trkpt lat="48.34276" lon="-3.6719">
        <ele>201</ele>
        <time>2021-07-08T11:59:45Z</time>
      </trkpt>
      <trkpt lat="48.34276" lon="-3.67185">
        <ele>201</ele>
        <time>2021-07-08T11:59:46Z</time>
      </trkpt>
      <trkpt lat="48.34277" lon="-3.6718">
        <ele>201</ele>
        <time>2021-07-08T11:59:47Z</time>
      </trkpt>
      <trkpt lat="48.34277" lon="-3.67176">
        <ele>201</ele>
        <time>2021-07-08T11:59:48Z</time>
      </trkpt>
      <trkpt lat="48.34277" lon="-3.67171">
        <ele>201</ele>
        <time>2021-07-08T11:59:49Z</time>
      </trkpt>
      <trkpt lat="48.34277" lon="-3.67166">
        <ele>201</ele>
        <time>2021-07-08T11:59:50Z</time>
      </trkpt>
      <trkpt lat="48.34276" lon="-3.67161">
        <ele>201</ele>
        <time>2021-07-08T11:59:51Z</time>
      </trkpt>
      <trkpt lat="48.34276" lon="-3.67156">
        <ele>201</ele>
        <time>2021-07-08T11:59:52Z</time>
      </trkpt>
      <trkpt lat="48.34276" lon="-3.67151">
        <ele>201</ele>
        <time>2021-07-08T11:59:53Z</time>
      </trkpt>
      <trkpt lat="48.34276" lon="-3.67146">
        <ele>201</ele>
        <time>2021-07-08T11:59:54Z</time>
      </trkpt>
      <trkpt lat="48.34276" lon="-3.67141">
        <ele>201</ele>
        <time>2021-07-08T11:59:55Z</time>
      </trkpt>
      <trkpt lat="48.34276" lon="-3.67136">
        <ele>201</ele>
        <time>2021-07-08T11:59:56Z</time>
      </trkpt>
      <trkpt lat="48.34276" lon="-3.67131">
        <ele>201</ele>
        <time>2021-07-08T11:59:57Z</time>
      </trkpt>
      <trkpt lat="48.34276" lon="-3.67127">
        <ele>201</ele>
        <time>2021-07-08T11:59:58Z</time>
      </trkpt>
      <trkpt lat="48.34276" lon="-3.67122">
        <ele>201</ele>
        <time>2021-07-08T11:59:59Z</time>
      </trkpt>
      <trkpt lat="48.34276" lon="-3.67117">
        <ele>201</ele>
        <time>2021-07-08T11:59:59Z</time>
      </trkpt>
      <trkpt lat="48.34276" lon="-3.67113">
        <ele>201</ele>
        <time>2021-07-08T12:00:01Z</time>
      </trkpt>
      <trkpt lat="48.34276" lon="-3.67109">
        <ele>201</ele>
        <time>2021-07-08T12:00:02Z</time>
      </trkpt>
      <trkpt lat="48.34276" lon="-3.67104">
        <ele>202</ele>
        <time>2021-07-08T12:00:03Z</time>
      </trkpt>
      <trkpt lat="48.34275" lon="-3.671">
        <ele>202</ele>
        <time>2021-07-08T12:00:04Z</time>
      </trkpt>
      <trkpt lat="48.34275" lon="-3.67095">
        <ele>202</ele>
        <time>2021-07-08T12:00:06Z</time>
      </trkpt>
      <trkpt lat="48.34275" lon="-3.6709">
        <ele>202</ele>
        <time>2021-07-08T12:00:06Z</time>
      </trkpt>
      <trkpt lat="48.34275" lon="-3.67085">
        <ele>202</ele>
        <time>2021-07-08T12:00:07Z</time>
      </trkpt>
      <trkpt lat="48.34274" lon="-3.6708">
        <ele>202</ele>
        <time>2021-07-08T12:00:08Z</time>
      </trkpt>
      <trkpt lat="48.34274" lon="-3.67075">
        <ele>202</ele>
        <time>2021-07-08T12:00:09Z</time>
      </trkpt>
      <trkpt lat="48.34275" lon="-3.6707">
        <ele>202</ele>
        <time>2021-07-08T12:00:10Z</time>
      </trkpt>
      <trkpt lat="48.34275" lon="-3.67065">
        <ele>202</ele>
        <time>2021-07-08T12:00:11Z</time>
      </trkpt>
      <trkpt lat="48.34275" lon="-3.6706">
        <ele>202</ele>
        <time>2021-07-08T12:00:12Z</time>
      </trkpt>
      <trkpt lat="48.34275" lon="-3.67056">
        <ele>202</ele>
        <time>2021-07-08T12:00:13Z</time>
      </trkpt>
      <trkpt lat="48.34275" lon="-3.67051">
        <ele>202</ele>
        <time>2021-07-08T12:00:14Z</time>
      </trkpt>
      <trkpt lat="48.34275" lon="-3.67046">
        <ele>202</ele>
        <time>2021-07-08T12:00:15Z</time>
      </trkpt>
      <trkpt lat="48.34275" lon="-3.67042">
        <ele>202</ele>
        <time>2021-07-08T12:00:16Z</time>
      </trkpt>
      <trkpt lat="48.34275" lon="-3.67038">
        <ele>202</ele>
        <time>2021-07-08T12:00:17Z</time>
      </trkpt>
      <trkpt lat="48.34276" lon="-3.67034">
        <ele>202</ele>
        <time>2021-07-08T12:00:18Z</time>
      </trkpt>
      <trkpt lat="48.34276" lon="-3.6703">
        <ele>202</ele>
        <time>2021-07-08T12:00:19Z</time>
      </trkpt>
      <trkpt lat="48.34276" lon="-3.67026">
        <ele>202</ele>
        <time>2021-07-08T12:00:20Z</time>
      </trkpt>
      <trkpt lat="48.34276" lon="-3.67021">
        <ele>203</ele>
        <time>2021-07-08T12:00:21Z</time>
      </trkpt>
      <trkpt lat="48.34276" lon="-3.67016">
        <ele>203</ele>
        <time>2021-07-08T12:00:22Z</time>
      </trkpt>
      <trkpt lat="48.34277" lon="-3.67012">
        <ele>204</ele>
        <time>2021-07-08T12:00:23Z</time>
      </trkpt>
      <trkpt lat="48.34277" lon="-3.67007">
        <ele>204</ele>
        <time>2021-07-08T12:00:24Z</time>
      </trkpt>
      <trkpt lat="48.34278" lon="-3.67002">
        <ele>204</ele>
        <time>2021-07-08T12:00:25Z</time>
      </trkpt>
      <trkpt lat="48.34278" lon="-3.66997">
        <ele>204</ele>
        <time>2021-07-08T12:00:26Z</time>
      </trkpt>
      <trkpt lat="48.34279" lon="-3.66993">
        <ele>204</ele>
        <time>2021-07-08T12:00:27Z</time>
      </trkpt>
      <trkpt lat="48.3428" lon="-3.66988">
        <ele>204</ele>
        <time>2021-07-08T12:00:28Z</time>
      </trkpt>
      <trkpt lat="48.34282" lon="-3.66983">
        <ele>204</ele>
        <time>2021-07-08T12:00:29Z</time>
      </trkpt>
      <trkpt lat="48.34283" lon="-3.66979">
        <ele>204</ele>
        <time>2021-07-08T12:00:30Z</time>
      </trkpt>
      <trkpt lat="48.34283" lon="-3.66974">
        <ele>204</ele>
        <time>2021-07-08T12:00:31Z</time>
      </trkpt>
      <trkpt lat="48.34284" lon="-3.6697">
        <ele>204</ele>
        <time>2021-07-08T12:00:32Z</time>
      </trkpt>
      <trkpt lat="48.34285" lon="-3.66965">
        <ele>205</ele>
        <time>2021-07-08T12:00:33Z</time>
      </trkpt>
      <trkpt lat="48.34287" lon="-3.66961">
        <ele>205</ele>
        <time>2021-07-08T12:00:34Z</time>
      </trkpt>
      <trkpt lat="48.34288" lon="-3.66956">
        <ele>205</ele>
        <time>2021-07-08T12:00:35Z</time>
      </trkpt>
      <trkpt lat="48.34289" lon="-3.66951">
        <ele>205</ele>
        <time>2021-07-08T12:00:36Z</time>
      </trkpt>
      <trkpt lat="48.3429" lon="-3.66947">
        <ele>205</ele>
        <time>2021-07-08T12:00:37Z</time>
      </trkpt>
      <trkpt lat="48.34291" lon="-3.66942">
        <ele>205</ele>
        <time>2021-07-08T12:00:38Z</time>
      </trkpt>
      <trkpt lat="48.34293" lon="-3.66938">
        <ele>205</ele>
        <time>2021-07-08T12:00:39Z</time>
      </trkpt>
      <trkpt lat="48.34294" lon="-3.66933">
        <ele>205</ele>
        <time>2021-07-08T12:00:40Z</time>
      </trkpt>
      <trkpt lat="48.34295" lon="-3.66928">
        <ele>205</ele>
        <time>2021-07-08T12:00:41Z</time>
      </trkpt>
      <trkpt lat="48.34297" lon="-3.66924">
        <ele>205</ele>
        <time>2021-07-08T12:00:42Z</time>
      </trkpt>
      <trkpt lat="48.34298" lon="-3.66919">
        <ele>205</ele>
        <time>2021-07-08T12:00:43Z</time>
      </trkpt>
      <trkpt lat="48.34299" lon="-3.66914">
        <ele>205</ele>
        <time>2021-07-08T12:00:44Z</time>
      </trkpt>
      <trkpt lat="48.34301" lon="-3.6691">
        <ele>205</ele>
        <time>2021-07-08T12:00:45Z</time>
      </trkpt>
      <trkpt lat="48.34302" lon="-3.66905">
        <ele>205</ele>
        <time>2021-07-08T12:00:46Z</time>
      </trkpt>
      <trkpt lat="48.34303" lon="-3.66901">
        <ele>205</ele>
        <time>2021-07-08T12:00:47Z</time>
      </trkpt>
      <trkpt lat="48.34304" lon="-3.66896">
        <ele>205</ele>
        <time>2021-07-08T12:00:48Z</time>
      </trkpt>
      <trkpt lat="48.34306" lon="-3.66892">
        <ele>205</ele>
        <time>2021-07-08T12:00:49Z</time>
      </trkpt>
      <trkpt lat="48.34307" lon="-3.66887">
        <ele>205</ele>
        <time>2021-07-08T12:00:50Z</time>
      </trkpt>
      <trkpt lat="48.34308" lon="-3.66883">
        <ele>205</ele>
        <time>2021-07-08T12:00:51Z</time>
      </trkpt>
      <trkpt lat="48.34309" lon="-3.66879">
        <ele>205</ele>
        <time>2021-07-08T12:00:52Z</time>
      </trkpt>
      <trkpt lat="48.3431" lon="-3.66874">
        <ele>205</ele>
        <time>2021-07-08T12:00:53Z</time>
      </trkpt>
      <trkpt lat="48.34311" lon="-3.6687">
        <ele>205</ele>
        <time>2021-07-08T12:00:54Z</time>
      </trkpt>
      <trkpt lat="48.34312" lon="-3.66865">
        <ele>205</ele>
        <time>2021-07-08T12:00:55Z</time>
      </trkpt>
      <trkpt lat="48.34313" lon="-3.66861">
        <ele>205</ele>
        <time>2021-07-08T12:00:56Z</time>
      </trkpt>
      <trkpt lat="48.34313" lon="-3.66856">
        <ele>205</ele>
        <time>2021-07-08T12:00:57Z</time>
      </trkpt>
      <trkpt lat="48.34314" lon="-3.66852">
        <ele>206</ele>
        <time>2021-07-08T12:00:58Z</time>
      </trkpt>
      <trkpt lat="48.34314" lon="-3.66847">
        <ele>206</ele>
        <time>2021-07-08T12:00:59Z</time>
      </trkpt>
      <trkpt lat="48.34315" lon="-3.66843">
        <ele>206</ele>
        <time>2021-07-08T12:01:00Z</time>
      </trkpt>
      <trkpt lat="48.34315" lon="-3.66839">
        <ele>206</ele>
        <time>2021-07-08T12:01:01Z</time>
      </trkpt>
      <trkpt lat="48.34316" lon="-3.66834">
        <ele>206</ele>
        <time>2021-07-08T12:01:02Z</time>
      </trkpt>
      <trkpt lat="48.34317" lon="-3.6683">
        <ele>206</ele>
        <time>2021-07-08T12:01:03Z</time>
      </trkpt>
      <trkpt lat="48.34317" lon="-3.66825">
        <ele>206</ele>
        <time>2021-07-08T12:01:04Z</time>
      </trkpt>
      <trkpt lat="48.34317" lon="-3.66821">
        <ele>206</ele>
        <time>2021-07-08T12:01:05Z</time>
      </trkpt>
      <trkpt lat="48.34317" lon="-3.66816">
        <ele>206</ele>
        <time>2021-07-08T12:01:06Z</time>
      </trkpt>
      <trkpt lat="48.34318" lon="-3.66812">
        <ele>206</ele>
        <time>2021-07-08T12:01:07Z</time>
      </trkpt>
      <trkpt lat="48.34318" lon="-3.66809">
        <ele>207</ele>
        <time>2021-07-08T12:01:08Z</time>
      </trkpt>
      <trkpt lat="48.34318" lon="-3.66805">
        <ele>207</ele>
        <time>2021-07-08T12:01:09Z</time>
      </trkpt>
      <trkpt lat="48.34318" lon="-3.66801">
        <ele>207</ele>
        <time>2021-07-08T12:01:10Z</time>
      </trkpt>
      <trkpt lat="48.34318" lon="-3.66797">
        <ele>207</ele>
        <time>2021-07-08T12:01:11Z</time>
      </trkpt>
      <trkpt lat="48.34318" lon="-3.66792">
        <ele>207</ele>
        <time>2021-07-08T12:01:12Z</time>
      </trkpt>
      <trkpt lat="48.34318" lon="-3.66788">
        <ele>207</ele>
        <time>2021-07-08T12:01:13Z</time>
      </trkpt>
      <trkpt lat="48.34318" lon="-3.66783">
        <ele>207</ele>
        <time>2021-07-08T12:01:14Z</time>
      </trkpt>
      <trkpt lat="48.34318" lon="-3.66778">
        <ele>207</ele>
        <time>2021-07-08T12:01:15Z</time>
      </trkpt>
      <trkpt lat="48.34318" lon="-3.66773">
        <ele>207</ele>
        <time>2021-07-08T12:01:16Z</time>
      </trkpt>
      <trkpt lat="48.34318" lon="-3.66768">
        <ele>207</ele>
        <time>2021-07-08T12:01:17Z</time>
      </trkpt>
      <trkpt lat="48.34318" lon="-3.66764">
        <ele>207</ele>
        <time>2021-07-08T12:01:18Z</time>
      </trkpt>
      <trkpt lat="48.34317" lon="-3.66759">
        <ele>207</ele>
        <time>2021-07-08T12:01:19Z</time>
      </trkpt>
      <trkpt lat="48.34317" lon="-3.66754">
        <ele>207</ele>
        <time>2021-07-08T12:01:20Z</time>
      </trkpt>
      <trkpt lat="48.34316" lon="-3.66749">
        <ele>207</ele>
        <time>2021-07-08T12:01:21Z</time>
      </trkpt>
      <trkpt lat="48.34316" lon="-3.66744">
        <ele>207</ele>
        <time>2021-07-08T12:01:22Z</time>
      </trkpt>
      <trkpt lat="48.34315" lon="-3.66739">
        <ele>207</ele>
        <time>2021-07-08T12:01:23Z</time>
      </trkpt>
      <trkpt lat="48.34314" lon="-3.66735">
        <ele>206</ele>
        <time>2021-07-08T12:01:24Z</time>
      </trkpt>
      <trkpt lat="48.34314" lon="-3.6673">
        <ele>206</ele>
        <time>2021-07-08T12:01:25Z</time>
      </trkpt>
      <trkpt lat="48.34313" lon="-3.66725">
        <ele>206</ele>
        <time>2021-07-08T12:01:26Z</time>
      </trkpt>
      <trkpt lat="48.34313" lon="-3.66721">
        <ele>206</ele>
        <time>2021-07-08T12:01:27Z</time>
      </trkpt>
      <trkpt lat="48.34312" lon="-3.66716">
        <ele>207</ele>
        <time>2021-07-08T12:01:28Z</time>
      </trkpt>
      <trkpt lat="48.34311" lon="-3.66713">
        <ele>207</ele>
        <time>2021-07-08T12:01:29Z</time>
      </trkpt>
      <trkpt lat="48.34311" lon="-3.66709">
        <ele>207</ele>
        <time>2021-07-08T12:01:30Z</time>
      </trkpt>
      <trkpt lat="48.3431" lon="-3.66705">
        <ele>207</ele>
        <time>2021-07-08T12:01:31Z</time>
      </trkpt>
      <trkpt lat="48.3431" lon="-3.66701">
        <ele>207</ele>
        <time>2021-07-08T12:01:31Z</time>
      </trkpt>
      <trkpt lat="48.34308" lon="-3.66697">
        <ele>207</ele>
        <time>2021-07-08T12:01:33Z</time>
      </trkpt>
      <trkpt lat="48.34307" lon="-3.66692">
        <ele>207</ele>
        <time>2021-07-08T12:01:34Z</time>
      </trkpt>
      <trkpt lat="48.34306" lon="-3.66687">
        <ele>207</ele>
        <time>2021-07-08T12:01:35Z</time>
      </trkpt>
      <trkpt lat="48.34304" lon="-3.66682">
        <ele>207</ele>
        <time>2021-07-08T12:01:36Z</time>
      </trkpt>
      <trkpt lat="48.34303" lon="-3.66677">
        <ele>207</ele>
        <time>2021-07-08T12:01:37Z</time>
      </trkpt>
      <trkpt lat="48.34302" lon="-3.66672">
        <ele>207</ele>
        <time>2021-07-08T12:01:38Z</time>
      </trkpt>
      <trkpt lat="48.34301" lon="-3.66668">
        <ele>207</ele>
        <time>2021-07-08T12:01:39Z</time>
      </trkpt>
      <trkpt lat="48.34301" lon="-3.66663">
        <ele>207</ele>
        <time>2021-07-08T12:01:39Z</time>
      </trkpt>
      <trkpt lat="48.343" lon="-3.66659">
        <ele>207</ele>
        <time>2021-07-08T12:01:41Z</time>
      </trkpt>
      <trkpt lat="48.34299" lon="-3.66654">
        <ele>209</ele>
        <time>2021-07-08T12:01:42Z</time>
      </trkpt>
      <trkpt lat="48.34298" lon="-3.6665">
        <ele>209</ele>
        <time>2021-07-08T12:01:43Z</time>
      </trkpt>
      <trkpt lat="48.34297" lon="-3.66645">
        <ele>209</ele>
        <time>2021-07-08T12:01:44Z</time>
      </trkpt>
      <trkpt lat="48.34296" lon="-3.6664">
        <ele>209</ele>
        <time>2021-07-08T12:01:45Z</time>
      </trkpt>
      <trkpt lat="48.34296" lon="-3.66635">
        <ele>209</ele>
        <time>2021-07-08T12:01:46Z</time>
      </trkpt>
      <trkpt lat="48.34295" lon="-3.6663">
        <ele>209</ele>
        <time>2021-07-08T12:01:47Z</time>
      </trkpt>
      <trkpt lat="48.34294" lon="-3.66625">
        <ele>209</ele>
        <time>2021-07-08T12:01:48Z</time>
      </trkpt>
      <trkpt lat="48.34293" lon="-3.6662">
        <ele>209</ele>
        <time>2021-07-08T12:01:49Z</time>
      </trkpt>
      <trkpt lat="48.34292" lon="-3.66615">
        <ele>209</ele>
        <time>2021-07-08T12:01:50Z</time>
      </trkpt>
      <trkpt lat="48.34292" lon="-3.6661">
        <ele>210</ele>
        <time>2021-07-08T12:01:51Z</time>
      </trkpt>
      <trkpt lat="48.34291" lon="-3.66605">
        <ele>210</ele>
        <time>2021-07-08T12:01:52Z</time>
      </trkpt>
      <trkpt lat="48.34291" lon="-3.66601">
        <ele>210</ele>
        <time>2021-07-08T12:01:53Z</time>
      </trkpt>
      <trkpt lat="48.3429" lon="-3.66596">
        <ele>210</ele>
        <time>2021-07-08T12:01:54Z</time>
      </trkpt>
      <trkpt lat="48.34289" lon="-3.66591">
        <ele>210</ele>
        <time>2021-07-08T12:01:55Z</time>
      </trkpt>
      <trkpt lat="48.34289" lon="-3.66587">
        <ele>210</ele>
        <time>2021-07-08T12:01:56Z</time>
      </trkpt>
      <trkpt lat="48.34289" lon="-3.66583">
        <ele>210</ele>
        <time>2021-07-08T12:01:57Z</time>
      </trkpt>
      <trkpt lat="48.34288" lon="-3.66578">
        <ele>210</ele>
        <time>2021-07-08T12:01:58Z</time>
      </trkpt>
      <trkpt lat="48.34287" lon="-3.66574">
        <ele>210</ele>
        <time>2021-07-08T12:01:59Z</time>
      </trkpt>
      <trkpt lat="48.34287" lon="-3.6657">
        <ele>210</ele>
        <time>2021-07-08T12:02:00Z</time>
      </trkpt>
      <trkpt lat="48.34287" lon="-3.66567">
        <ele>210</ele>
        <time>2021-07-08T12:02:01Z</time>
      </trkpt>
      <trkpt lat="48.34287" lon="-3.66563">
        <ele>210</ele>
        <time>2021-07-08T12:02:02Z</time>
      </trkpt>
      <trkpt lat="48.34287" lon="-3.66558">
        <ele>210</ele>
        <time>2021-07-08T12:02:03Z</time>
      </trkpt>
      <trkpt lat="48.34287" lon="-3.66554">
        <ele>211</ele>
        <time>2021-07-08T12:02:04Z</time>
      </trkpt>
      <trkpt lat="48.34287" lon="-3.66549">
        <ele>211</ele>
        <time>2021-07-08T12:02:05Z</time>
      </trkpt>
      <trkpt lat="48.34287" lon="-3.66544">
        <ele>211</ele>
        <time>2021-07-08T12:02:06Z</time>
      </trkpt>
      <trkpt lat="48.34288" lon="-3.6654">
        <ele>211</ele>
        <time>2021-07-08T12:02:06Z</time>
      </trkpt>
      <trkpt lat="48.34288" lon="-3.66535">
        <ele>211</ele>
        <time>2021-07-08T12:02:08Z</time>
      </trkpt>
      <trkpt lat="48.34288" lon="-3.66531">
        <ele>211</ele>
        <time>2021-07-08T12:02:09Z</time>
      </trkpt>
      <trkpt lat="48.34288" lon="-3.66525">
        <ele>211</ele>
        <time>2021-07-08T12:02:10Z</time>
      </trkpt>
      <trkpt lat="48.34288" lon="-3.66521">
        <ele>211</ele>
        <time>2021-07-08T12:02:11Z</time>
      </trkpt>
      <trkpt lat="48.34288" lon="-3.66515">
        <ele>211</ele>
        <time>2021-07-08T12:02:12Z</time>
      </trkpt>
      <trkpt lat="48.34288" lon="-3.66509">
        <ele>211</ele>
        <time>2021-07-08T12:02:13Z</time>
      </trkpt>
      <trkpt lat="48.34288" lon="-3.66504">
        <ele>211</ele>
        <time>2021-07-08T12:02:14Z</time>
      </trkpt>
      <trkpt lat="48.34288" lon="-3.66499">
        <ele>211</ele>
        <time>2021-07-08T12:02:15Z</time>
      </trkpt>
      <trkpt lat="48.34288" lon="-3.66494">
        <ele>211</ele>
        <time>2021-07-08T12:02:16Z</time>
      </trkpt>
      <trkpt lat="48.34287" lon="-3.66488">
        <ele>211</ele>
        <time>2021-07-08T12:02:17Z</time>
      </trkpt>
      <trkpt lat="48.34287" lon="-3.66483">
        <ele>211</ele>
        <time>2021-07-08T12:02:17Z</time>
      </trkpt>
      <trkpt lat="48.34287" lon="-3.66478">
        <ele>211</ele>
        <time>2021-07-08T12:02:19Z</time>
      </trkpt>
      <trkpt lat="48.34287" lon="-3.66473">
        <ele>211</ele>
        <time>2021-07-08T12:02:20Z</time>
      </trkpt>
      <trkpt lat="48.34288" lon="-3.66468">
        <ele>211</ele>
        <time>2021-07-08T12:02:21Z</time>
      </trkpt>
      <trkpt lat="48.34288" lon="-3.66463">
        <ele>211</ele>
        <time>2021-07-08T12:02:22Z</time>
      </trkpt>
      <trkpt lat="48.34288" lon="-3.66458">
        <ele>211</ele>
        <time>2021-07-08T12:02:23Z</time>
      </trkpt>
      <trkpt lat="48.34288" lon="-3.66453">
        <ele>212</ele>
        <time>2021-07-08T12:02:24Z</time>
      </trkpt>
      <trkpt lat="48.34289" lon="-3.66448">
        <ele>212</ele>
        <time>2021-07-08T12:02:25Z</time>
      </trkpt>
      <trkpt lat="48.34289" lon="-3.66443">
        <ele>212</ele>
        <time>2021-07-08T12:02:26Z</time>
      </trkpt>
      <trkpt lat="48.34289" lon="-3.66438">
        <ele>212</ele>
        <time>2021-07-08T12:02:27Z</time>
      </trkpt>
      <trkpt lat="48.3429" lon="-3.66433">
        <ele>211</ele>
        <time>2021-07-08T12:02:28Z</time>
      </trkpt>
      <trkpt lat="48.3429" lon="-3.66428">
        <ele>211</ele>
        <time>2021-07-08T12:02:29Z</time>
      </trkpt>
      <trkpt lat="48.34291" lon="-3.66423">
        <ele>211</ele>
        <time>2021-07-08T12:02:30Z</time>
      </trkpt>
      <trkpt lat="48.34291" lon="-3.66418">
        <ele>212</ele>
        <time>2021-07-08T12:02:31Z</time>
      </trkpt>
      <trkpt lat="48.34291" lon="-3.66413">
        <ele>212</ele>
        <time>2021-07-08T12:02:31Z</time>
      </trkpt>
      <trkpt lat="48.34292" lon="-3.66408">
        <ele>212</ele>
        <time>2021-07-08T12:02:33Z</time>
      </trkpt>
      <trkpt lat="48.34292" lon="-3.66403">
        <ele>213</ele>
        <time>2021-07-08T12:02:34Z</time>
      </trkpt>
      <trkpt lat="48.34292" lon="-3.66399">
        <ele>213</ele>
        <time>2021-07-08T12:02:35Z</time>
      </trkpt>
      <trkpt lat="48.34292" lon="-3.66389">
        <ele>213</ele>
        <time>2021-07-08T12:02:37Z</time>
      </trkpt>
      <trkpt lat="48.34292" lon="-3.66384">
        <ele>213</ele>
        <time>2021-07-08T12:02:38Z</time>
      </trkpt>
      <trkpt lat="48.34293" lon="-3.6638">
        <ele>213</ele>
        <time>2021-07-08T12:02:39Z</time>
      </trkpt>
      <trkpt lat="48.34293" lon="-3.66375">
        <ele>213</ele>
        <time>2021-07-08T12:02:40Z</time>
      </trkpt>
      <trkpt lat="48.34293" lon="-3.6637">
        <ele>213</ele>
        <time>2021-07-08T12:02:41Z</time>
      </trkpt>
      <trkpt lat="48.34293" lon="-3.66365">
        <ele>213</ele>
        <time>2021-07-08T12:02:42Z</time>
      </trkpt>
      <trkpt lat="48.34293" lon="-3.6636">
        <ele>213</ele>
        <time>2021-07-08T12:02:43Z</time>
      </trkpt>
      <trkpt lat="48.34293" lon="-3.66355">
        <ele>213</ele>
        <time>2021-07-08T12:02:44Z</time>
      </trkpt>
      <trkpt lat="48.34293" lon="-3.66351">
        <ele>214</ele>
        <time>2021-07-08T12:02:45Z</time>
      </trkpt>
      <trkpt lat="48.34293" lon="-3.66346">
        <ele>214</ele>
        <time>2021-07-08T12:02:46Z</time>
      </trkpt>
      <trkpt lat="48.34294" lon="-3.66342">
        <ele>214</ele>
        <time>2021-07-08T12:02:47Z</time>
      </trkpt>
      <trkpt lat="48.34294" lon="-3.66338">
        <ele>214</ele>
        <time>2021-07-08T12:02:48Z</time>
      </trkpt>
      <trkpt lat="48.34294" lon="-3.66335">
        <ele>214</ele>
        <time>2021-07-08T12:02:48Z</time>
      </trkpt>
      <trkpt lat="48.34294" lon="-3.66331">
        <ele>214</ele>
        <time>2021-07-08T12:02:50Z</time>
      </trkpt>
      <trkpt lat="48.34294" lon="-3.66327">
        <ele>214</ele>
        <time>2021-07-08T12:02:51Z</time>
      </trkpt>
      <trkpt lat="48.34295" lon="-3.66323">
        <ele>214</ele>
        <time>2021-07-08T12:02:52Z</time>
      </trkpt>
      <trkpt lat="48.34295" lon="-3.66319">
        <ele>214</ele>
        <time>2021-07-08T12:02:53Z</time>
      </trkpt>
      <trkpt lat="48.34295" lon="-3.66315">
        <ele>214</ele>
        <time>2021-07-08T12:02:54Z</time>
      </trkpt>
      <trkpt lat="48.34296" lon="-3.66311">
        <ele>214</ele>
        <time>2021-07-08T12:02:55Z</time>
      </trkpt>
      <trkpt lat="48.34296" lon="-3.66306">
        <ele>214</ele>
        <time>2021-07-08T12:02:55Z</time>
      </trkpt>
      <trkpt lat="48.34296" lon="-3.66302">
        <ele>214</ele>
        <time>2021-07-08T12:02:57Z</time>
      </trkpt>
      <trkpt lat="48.34296" lon="-3.66298">
        <ele>214</ele>
        <time>2021-07-08T12:02:58Z</time>
      </trkpt>
      <trkpt lat="48.34296" lon="-3.66294">
        <ele>214</ele>
        <time>2021-07-08T12:02:59Z</time>
      </trkpt>
      <trkpt lat="48.34296" lon="-3.6629">
        <ele>214</ele>
        <time>2021-07-08T12:03:00Z</time>
      </trkpt>
      <trkpt lat="48.34296" lon="-3.66286">
        <ele>213</ele>
        <time>2021-07-08T12:03:01Z</time>
      </trkpt>
      <trkpt lat="48.34296" lon="-3.66282">
        <ele>213</ele>
        <time>2021-07-08T12:03:02Z</time>
      </trkpt>
      <trkpt lat="48.34296" lon="-3.66278">
        <ele>214</ele>
        <time>2021-07-08T12:03:03Z</time>
      </trkpt>
      <trkpt lat="48.34296" lon="-3.66273">
        <ele>214</ele>
        <time>2021-07-08T12:03:04Z</time>
      </trkpt>
      <trkpt lat="48.34296" lon="-3.66269">
        <ele>214</ele>
        <time>2021-07-08T12:03:05Z</time>
      </trkpt>
      <trkpt lat="48.34297" lon="-3.66265">
        <ele>214</ele>
        <time>2021-07-08T12:03:06Z</time>
      </trkpt>
      <trkpt lat="48.34297" lon="-3.66261">
        <ele>214</ele>
        <time>2021-07-08T12:03:07Z</time>
      </trkpt>
      <trkpt lat="48.34297" lon="-3.66257">
        <ele>214</ele>
        <time>2021-07-08T12:03:08Z</time>
      </trkpt>
      <trkpt lat="48.34297" lon="-3.66252">
        <ele>214</ele>
        <time>2021-07-08T12:03:09Z</time>
      </trkpt>
      <trkpt lat="48.34297" lon="-3.66248">
        <ele>214</ele>
        <time>2021-07-08T12:03:10Z</time>
      </trkpt>
      <trkpt lat="48.34298" lon="-3.66244">
        <ele>214</ele>
        <time>2021-07-08T12:03:11Z</time>
      </trkpt>
      <trkpt lat="48.34298" lon="-3.66239">
        <ele>214</ele>
        <time>2021-07-08T12:03:12Z</time>
      </trkpt>
      <trkpt lat="48.34298" lon="-3.66235">
        <ele>214</ele>
        <time>2021-07-08T12:03:13Z</time>
      </trkpt>
      <trkpt lat="48.34298" lon="-3.66231">
        <ele>214</ele>
        <time>2021-07-08T12:03:14Z</time>
      </trkpt>
      <trkpt lat="48.34299" lon="-3.66227">
        <ele>215</ele>
        <time>2021-07-08T12:03:15Z</time>
      </trkpt>
      <trkpt lat="48.34299" lon="-3.66222">
        <ele>215</ele>
        <time>2021-07-08T12:03:16Z</time>
      </trkpt>
      <trkpt lat="48.34299" lon="-3.66218">
        <ele>215</ele>
        <time>2021-07-08T12:03:17Z</time>
      </trkpt>
      <trkpt lat="48.343" lon="-3.66214">
        <ele>215</ele>
        <time>2021-07-08T12:03:18Z</time>
      </trkpt>
      <trkpt lat="48.343" lon="-3.6621">
        <ele>215</ele>
        <time>2021-07-08T12:03:19Z</time>
      </trkpt>
      <trkpt lat="48.343" lon="-3.66205">
        <ele>215</ele>
        <time>2021-07-08T12:03:20Z</time>
      </trkpt>
      <trkpt lat="48.343" lon="-3.66201">
        <ele>215</ele>
        <time>2021-07-08T12:03:21Z</time>
      </trkpt>
      <trkpt lat="48.343" lon="-3.66196">
        <ele>215</ele>
        <time>2021-07-08T12:03:22Z</time>
      </trkpt>
      <trkpt lat="48.34301" lon="-3.66192">
        <ele>215</ele>
        <time>2021-07-08T12:03:23Z</time>
      </trkpt>
      <trkpt lat="48.34301" lon="-3.66187">
        <ele>215</ele>
        <time>2021-07-08T12:03:24Z</time>
      </trkpt>
      <trkpt lat="48.34301" lon="-3.66183">
        <ele>215</ele>
        <time>2021-07-08T12:03:25Z</time>
      </trkpt>
      <trkpt lat="48.34301" lon="-3.66179">
        <ele>215</ele>
        <time>2021-07-08T12:03:26Z</time>
      </trkpt>
      <trkpt lat="48.34301" lon="-3.66174">
        <ele>215</ele>
        <time>2021-07-08T12:03:27Z</time>
      </trkpt>
      <trkpt lat="48.34301" lon="-3.6617">
        <ele>215</ele>
        <time>2021-07-08T12:03:28Z</time>
      </trkpt>
      <trkpt lat="48.34302" lon="-3.66165">
        <ele>215</ele>
        <time>2021-07-08T12:03:29Z</time>
      </trkpt>
      <trkpt lat="48.34302" lon="-3.66161">
        <ele>215</ele>
        <time>2021-07-08T12:03:30Z</time>
      </trkpt>
      <trkpt lat="48.34302" lon="-3.66156">
        <ele>215</ele>
        <time>2021-07-08T12:03:31Z</time>
      </trkpt>
      <trkpt lat="48.34302" lon="-3.66151">
        <ele>216</ele>
        <time>2021-07-08T12:03:32Z</time>
      </trkpt>
      <trkpt lat="48.34303" lon="-3.66147">
        <ele>216</ele>
        <time>2021-07-08T12:03:33Z</time>
      </trkpt>
      <trkpt lat="48.34303" lon="-3.66143">
        <ele>216</ele>
        <time>2021-07-08T12:03:34Z</time>
      </trkpt>
      <trkpt lat="48.34304" lon="-3.66138">
        <ele>217</ele>
        <time>2021-07-08T12:03:35Z</time>
      </trkpt>
      <trkpt lat="48.34304" lon="-3.66129">
        <ele>217</ele>
        <time>2021-07-08T12:03:36Z</time>
      </trkpt>
      <trkpt lat="48.34304" lon="-3.66125">
        <ele>217</ele>
        <time>2021-07-08T12:03:38Z</time>
      </trkpt>
      <trkpt lat="48.34304" lon="-3.6612">
        <ele>217</ele>
        <time>2021-07-08T12:03:39Z</time>
      </trkpt>
      <trkpt lat="48.34304" lon="-3.66116">
        <ele>217</ele>
        <time>2021-07-08T12:03:40Z</time>
      </trkpt>
      <trkpt lat="48.34304" lon="-3.66112">
        <ele>217</ele>
        <time>2021-07-08T12:03:41Z</time>
      </trkpt>
      <trkpt lat="48.34304" lon="-3.66107">
        <ele>217</ele>
        <time>2021-07-08T12:03:42Z</time>
      </trkpt>
      <trkpt lat="48.34305" lon="-3.66103">
        <ele>217</ele>
        <time>2021-07-08T12:03:43Z</time>
      </trkpt>
      <trkpt lat="48.34305" lon="-3.66099">
        <ele>217</ele>
        <time>2021-07-08T12:03:44Z</time>
      </trkpt>
      <trkpt lat="48.34305" lon="-3.66094">
        <ele>217</ele>
        <time>2021-07-08T12:03:45Z</time>
      </trkpt>
      <trkpt lat="48.34305" lon="-3.66089">
        <ele>217</ele>
        <time>2021-07-08T12:03:46Z</time>
      </trkpt>
      <trkpt lat="48.34305" lon="-3.6608">
        <ele>218</ele>
        <time>2021-07-08T12:03:47Z</time>
      </trkpt>
      <trkpt lat="48.34305" lon="-3.66075">
        <ele>218</ele>
        <time>2021-07-08T12:03:49Z</time>
      </trkpt>
      <trkpt lat="48.34305" lon="-3.6607">
        <ele>218</ele>
        <time>2021-07-08T12:03:50Z</time>
      </trkpt>
      <trkpt lat="48.34305" lon="-3.66066">
        <ele>218</ele>
        <time>2021-07-08T12:03:51Z</time>
      </trkpt>
      <trkpt lat="48.34305" lon="-3.66061">
        <ele>218</ele>
        <time>2021-07-08T12:03:52Z</time>
      </trkpt>
      <trkpt lat="48.34305" lon="-3.66056">
        <ele>218</ele>
        <time>2021-07-08T12:03:53Z</time>
      </trkpt>
      <trkpt lat="48.34304" lon="-3.66052">
        <ele>218</ele>
        <time>2021-07-08T12:03:54Z</time>
      </trkpt>
      <trkpt lat="48.34304" lon="-3.66047">
        <ele>218</ele>
        <time>2021-07-08T12:03:56Z</time>
      </trkpt>
      <trkpt lat="48.34304" lon="-3.66042">
        <ele>218</ele>
        <time>2021-07-08T12:03:56Z</time>
      </trkpt>
      <trkpt lat="48.34304" lon="-3.66038">
        <ele>218</ele>
        <time>2021-07-08T12:03:57Z</time>
      </trkpt>
      <trkpt lat="48.34304" lon="-3.66034">
        <ele>218</ele>
        <time>2021-07-08T12:03:58Z</time>
      </trkpt>
      <trkpt lat="48.34304" lon="-3.6603">
        <ele>218</ele>
        <time>2021-07-08T12:03:59Z</time>
      </trkpt>
      <trkpt lat="48.34303" lon="-3.66026">
        <ele>218</ele>
        <time>2021-07-08T12:04:00Z</time>
      </trkpt>
      <trkpt lat="48.34303" lon="-3.66021">
        <ele>218</ele>
        <time>2021-07-08T12:04:01Z</time>
      </trkpt>
      <trkpt lat="48.34302" lon="-3.66017">
        <ele>218</ele>
        <time>2021-07-08T12:04:02Z</time>
      </trkpt>
      <trkpt lat="48.34302" lon="-3.66012">
        <ele>218</ele>
        <time>2021-07-08T12:04:03Z</time>
      </trkpt>
      <trkpt lat="48.34302" lon="-3.66008">
        <ele>218</ele>
        <time>2021-07-08T12:04:04Z</time>
      </trkpt>
      <trkpt lat="48.34301" lon="-3.66003">
        <ele>219</ele>
        <time>2021-07-08T12:04:05Z</time>
      </trkpt>
      <trkpt lat="48.34301" lon="-3.65999">
        <ele>219</ele>
        <time>2021-07-08T12:04:06Z</time>
      </trkpt>
      <trkpt lat="48.343" lon="-3.65995">
        <ele>219</ele>
        <time>2021-07-08T12:04:07Z</time>
      </trkpt>
      <trkpt lat="48.34299" lon="-3.65991">
        <ele>219</ele>
        <time>2021-07-08T12:04:08Z</time>
      </trkpt>
      <trkpt lat="48.34298" lon="-3.65987">
        <ele>219</ele>
        <time>2021-07-08T12:04:09Z</time>
      </trkpt>
      <trkpt lat="48.34297" lon="-3.65982">
        <ele>219</ele>
        <time>2021-07-08T12:04:10Z</time>
      </trkpt>
      <trkpt lat="48.34296" lon="-3.65978">
        <ele>219</ele>
        <time>2021-07-08T12:04:11Z</time>
      </trkpt>
      <trkpt lat="48.34294" lon="-3.65969">
        <ele>219</ele>
        <time>2021-07-08T12:04:12Z</time>
      </trkpt>
      <trkpt lat="48.34293" lon="-3.65965">
        <ele>219</ele>
        <time>2021-07-08T12:04:14Z</time>
      </trkpt>
      <trkpt lat="48.34292" lon="-3.6596">
        <ele>219</ele>
        <time>2021-07-08T12:04:15Z</time>
      </trkpt>
      <trkpt lat="48.34291" lon="-3.65956">
        <ele>219</ele>
        <time>2021-07-08T12:04:16Z</time>
      </trkpt>
      <trkpt lat="48.34289" lon="-3.65951">
        <ele>219</ele>
        <time>2021-07-08T12:04:17Z</time>
      </trkpt>
      <trkpt lat="48.34287" lon="-3.65947">
        <ele>219</ele>
        <time>2021-07-08T12:04:18Z</time>
      </trkpt>
      <trkpt lat="48.34285" lon="-3.65942">
        <ele>219</ele>
        <time>2021-07-08T12:04:19Z</time>
      </trkpt>
      <trkpt lat="48.34284" lon="-3.65938">
        <ele>219</ele>
        <time>2021-07-08T12:04:20Z</time>
      </trkpt>
      <trkpt lat="48.34282" lon="-3.65933">
        <ele>220</ele>
        <time>2021-07-08T12:04:21Z</time>
      </trkpt>
      <trkpt lat="48.34281" lon="-3.65929">
        <ele>220</ele>
        <time>2021-07-08T12:04:22Z</time>
      </trkpt>
      <trkpt lat="48.34279" lon="-3.65924">
        <ele>220</ele>
        <time>2021-07-08T12:04:23Z</time>
      </trkpt>
      <trkpt lat="48.34278" lon="-3.65919">
        <ele>220</ele>
        <time>2021-07-08T12:04:24Z</time>
      </trkpt>
      <trkpt lat="48.34277" lon="-3.65915">
        <ele>220</ele>
        <time>2021-07-08T12:04:25Z</time>
      </trkpt>
      <trkpt lat="48.34275" lon="-3.6591">
        <ele>220</ele>
        <time>2021-07-08T12:04:26Z</time>
      </trkpt>
      <trkpt lat="48.34274" lon="-3.65905">
        <ele>220</ele>
        <time>2021-07-08T12:04:27Z</time>
      </trkpt>
      <trkpt lat="48.34272" lon="-3.65901">
        <ele>220</ele>
        <time>2021-07-08T12:04:28Z</time>
      </trkpt>
      <trkpt lat="48.34271" lon="-3.65896">
        <ele>220</ele>
        <time>2021-07-08T12:04:29Z</time>
      </trkpt>
      <trkpt lat="48.3427" lon="-3.65892">
        <ele>220</ele>
        <time>2021-07-08T12:04:30Z</time>
      </trkpt>
      <trkpt lat="48.34268" lon="-3.65889">
        <ele>220</ele>
        <time>2021-07-08T12:04:31Z</time>
      </trkpt>
      <trkpt lat="48.34267" lon="-3.65885">
        <ele>220</ele>
        <time>2021-07-08T12:04:32Z</time>
      </trkpt>
      <trkpt lat="48.34265" lon="-3.6588">
        <ele>220</ele>
        <time>2021-07-08T12:04:33Z</time>
      </trkpt>
      <trkpt lat="48.34263" lon="-3.65876">
        <ele>220</ele>
        <time>2021-07-08T12:04:34Z</time>
      </trkpt>
      <trkpt lat="48.34262" lon="-3.65872">
        <ele>221</ele>
        <time>2021-07-08T12:04:35Z</time>
      </trkpt>
      <trkpt lat="48.34261" lon="-3.65868">
        <ele>221</ele>
        <time>2021-07-08T12:04:36Z</time>
      </trkpt>
      <trkpt lat="48.34259" lon="-3.65864">
        <ele>221</ele>
        <time>2021-07-08T12:04:37Z</time>
      </trkpt>
      <trkpt lat="48.34257" lon="-3.65859">
        <ele>221</ele>
        <time>2021-07-08T12:04:37Z</time>
      </trkpt>
      <trkpt lat="48.34255" lon="-3.65855">
        <ele>221</ele>
        <time>2021-07-08T12:04:39Z</time>
      </trkpt>
      <trkpt lat="48.34254" lon="-3.6585">
        <ele>221</ele>
        <time>2021-07-08T12:04:40Z</time>
      </trkpt>
      <trkpt lat="48.34253" lon="-3.65845">
        <ele>221</ele>
        <time>2021-07-08T12:04:41Z</time>
      </trkpt>
      <trkpt lat="48.34252" lon="-3.6584">
        <ele>221</ele>
        <time>2021-07-08T12:04:42Z</time>
      </trkpt>
      <trkpt lat="48.34251" lon="-3.65835">
        <ele>221</ele>
        <time>2021-07-08T12:04:43Z</time>
      </trkpt>
      <trkpt lat="48.3425" lon="-3.65832">
        <ele>222</ele>
        <time>2021-07-08T12:04:44Z</time>
      </trkpt>
      <trkpt lat="48.34248" lon="-3.65828">
        <ele>222</ele>
        <time>2021-07-08T12:04:45Z</time>
      </trkpt>
      <trkpt lat="48.34247" lon="-3.65823">
        <ele>222</ele>
        <time>2021-07-08T12:04:46Z</time>
      </trkpt>
      <trkpt lat="48.34245" lon="-3.65819">
        <ele>222</ele>
        <time>2021-07-08T12:04:47Z</time>
      </trkpt>
      <trkpt lat="48.34244" lon="-3.65814">
        <ele>221</ele>
        <time>2021-07-08T12:04:48Z</time>
      </trkpt>
      <trkpt lat="48.34242" lon="-3.65809">
        <ele>221</ele>
        <time>2021-07-08T12:04:49Z</time>
      </trkpt>
      <trkpt lat="48.3424" lon="-3.65804">
        <ele>221</ele>
        <time>2021-07-08T12:04:50Z</time>
      </trkpt>
      <trkpt lat="48.34239" lon="-3.658">
        <ele>222</ele>
        <time>2021-07-08T12:04:51Z</time>
      </trkpt>
      <trkpt lat="48.34236" lon="-3.65791">
        <ele>222</ele>
        <time>2021-07-08T12:04:52Z</time>
      </trkpt>
      <trkpt lat="48.34234" lon="-3.65786">
        <ele>222</ele>
        <time>2021-07-08T12:04:54Z</time>
      </trkpt>
      <trkpt lat="48.34233" lon="-3.65781">
        <ele>222</ele>
        <time>2021-07-08T12:04:55Z</time>
      </trkpt>
      <trkpt lat="48.34231" lon="-3.65775">
        <ele>222</ele>
        <time>2021-07-08T12:04:56Z</time>
      </trkpt>
      <trkpt lat="48.34229" lon="-3.6577">
        <ele>222</ele>
        <time>2021-07-08T12:04:57Z</time>
      </trkpt>
      <trkpt lat="48.34228" lon="-3.65765">
        <ele>223</ele>
        <time>2021-07-08T12:04:58Z</time>
      </trkpt>
      <trkpt lat="48.34227" lon="-3.65761">
        <ele>223</ele>
        <time>2021-07-08T12:04:59Z</time>
      </trkpt>
      <trkpt lat="48.34226" lon="-3.65756">
        <ele>223</ele>
        <time>2021-07-08T12:05:00Z</time>
      </trkpt>
      <trkpt lat="48.34224" lon="-3.65752">
        <ele>223</ele>
        <time>2021-07-08T12:05:01Z</time>
      </trkpt>
      <trkpt lat="48.34223" lon="-3.65748">
        <ele>223</ele>
        <time>2021-07-08T12:05:02Z</time>
      </trkpt>
      <trkpt lat="48.34221" lon="-3.65743">
        <ele>223</ele>
        <time>2021-07-08T12:05:03Z</time>
      </trkpt>
      <trkpt lat="48.34219" lon="-3.65739">
        <ele>223</ele>
        <time>2021-07-08T12:05:04Z</time>
      </trkpt>
      <trkpt lat="48.34218" lon="-3.65735">
        <ele>223</ele>
        <time>2021-07-08T12:05:05Z</time>
      </trkpt>
      <trkpt lat="48.34216" lon="-3.65731">
        <ele>223</ele>
        <time>2021-07-08T12:05:06Z</time>
      </trkpt>
      <trkpt lat="48.34215" lon="-3.65726">
        <ele>222</ele>
        <time>2021-07-08T12:05:07Z</time>
      </trkpt>
      <trkpt lat="48.34214" lon="-3.65721">
        <ele>223</ele>
        <time>2021-07-08T12:05:08Z</time>
      </trkpt>
      <trkpt lat="48.34213" lon="-3.65717">
        <ele>223</ele>
        <time>2021-07-08T12:05:09Z</time>
      </trkpt>
      <trkpt lat="48.34211" lon="-3.65712">
        <ele>223</ele>
        <time>2021-07-08T12:05:10Z</time>
      </trkpt>
      <trkpt lat="48.34209" lon="-3.65708">
        <ele>224</ele>
        <time>2021-07-08T12:05:11Z</time>
      </trkpt>
      <trkpt lat="48.34207" lon="-3.65705">
        <ele>224</ele>
        <time>2021-07-08T12:05:12Z</time>
      </trkpt>
      <trkpt lat="48.34205" lon="-3.65701">
        <ele>224</ele>
        <time>2021-07-08T12:05:13Z</time>
      </trkpt>
      <trkpt lat="48.34201" lon="-3.65695">
        <ele>224</ele>
        <time>2021-07-08T12:05:14Z</time>
      </trkpt>
      <trkpt lat="48.342" lon="-3.65692">
        <ele>224</ele>
        <time>2021-07-08T12:05:16Z</time>
      </trkpt>
      <trkpt lat="48.34198" lon="-3.65689">
        <ele>224</ele>
        <time>2021-07-08T12:05:17Z</time>
      </trkpt>
      <trkpt lat="48.34196" lon="-3.65686">
        <ele>224</ele>
        <time>2021-07-08T12:05:18Z</time>
      </trkpt>
      <trkpt lat="48.34195" lon="-3.65683">
        <ele>224</ele>
        <time>2021-07-08T12:05:19Z</time>
      </trkpt>
      <trkpt lat="48.34194" lon="-3.65681">
        <ele>224</ele>
        <time>2021-07-08T12:05:20Z</time>
      </trkpt>
      <trkpt lat="48.34192" lon="-3.65678">
        <ele>224</ele>
        <time>2021-07-08T12:05:21Z</time>
      </trkpt>
      <trkpt lat="48.3419" lon="-3.65674">
        <ele>224</ele>
        <time>2021-07-08T12:05:22Z</time>
      </trkpt>
      <trkpt lat="48.34188" lon="-3.6567">
        <ele>224</ele>
        <time>2021-07-08T12:05:23Z</time>
      </trkpt>
      <trkpt lat="48.34183" lon="-3.6566">
        <ele>224</ele>
        <time>2021-07-08T12:05:26Z</time>
      </trkpt>
      <trkpt lat="48.34181" lon="-3.65655">
        <ele>224</ele>
        <time>2021-07-08T12:05:27Z</time>
      </trkpt>
      <trkpt lat="48.34179" lon="-3.65652">
        <ele>224</ele>
        <time>2021-07-08T12:05:28Z</time>
      </trkpt>
      <trkpt lat="48.34171" lon="-3.65638">
        <ele>225</ele>
        <time>2021-07-08T12:05:32Z</time>
      </trkpt>
      <trkpt lat="48.34168" lon="-3.65634">
        <ele>225</ele>
        <time>2021-07-08T12:05:33Z</time>
      </trkpt>
      <trkpt lat="48.34166" lon="-3.65631">
        <ele>225</ele>
        <time>2021-07-08T12:05:34Z</time>
      </trkpt>
      <trkpt lat="48.34162" lon="-3.65625">
        <ele>225</ele>
        <time>2021-07-08T12:05:36Z</time>
      </trkpt>
      <trkpt lat="48.34159" lon="-3.65623">
        <ele>225</ele>
        <time>2021-07-08T12:05:37Z</time>
      </trkpt>
      <trkpt lat="48.34157" lon="-3.65621">
        <ele>225</ele>
        <time>2021-07-08T12:05:38Z</time>
      </trkpt>
      <trkpt lat="48.34149" lon="-3.65612">
        <ele>225</ele>
        <time>2021-07-08T12:05:42Z</time>
      </trkpt>
      <trkpt lat="48.34146" lon="-3.6561">
        <ele>225</ele>
        <time>2021-07-08T12:05:43Z</time>
      </trkpt>
      <trkpt lat="48.34139" lon="-3.65604">
        <ele>225</ele>
        <time>2021-07-08T12:05:45Z</time>
      </trkpt>
      <trkpt lat="48.34135" lon="-3.65602">
        <ele>225</ele>
        <time>2021-07-08T12:05:46Z</time>
      </trkpt>
      <trkpt lat="48.34133" lon="-3.65598">
        <ele>225</ele>
        <time>2021-07-08T12:05:47Z</time>
      </trkpt>
      <trkpt lat="48.34129" lon="-3.65595">
        <ele>226</ele>
        <time>2021-07-08T12:05:48Z</time>
      </trkpt>
      <trkpt lat="48.34126" lon="-3.65593">
        <ele>226</ele>
        <time>2021-07-08T12:05:49Z</time>
      </trkpt>
      <trkpt lat="48.34123" lon="-3.6559">
        <ele>226</ele>
        <time>2021-07-08T12:05:50Z</time>
      </trkpt>
      <trkpt lat="48.3412" lon="-3.65588">
        <ele>226</ele>
        <time>2021-07-08T12:05:51Z</time>
      </trkpt>
      <trkpt lat="48.34117" lon="-3.65586">
        <ele>226</ele>
        <time>2021-07-08T12:05:52Z</time>
      </trkpt>
      <trkpt lat="48.34114" lon="-3.65583">
        <ele>226</ele>
        <time>2021-07-08T12:05:53Z</time>
      </trkpt>
      <trkpt lat="48.34111" lon="-3.6558">
        <ele>226</ele>
        <time>2021-07-08T12:05:54Z</time>
      </trkpt>
      <trkpt lat="48.34107" lon="-3.65578">
        <ele>226</ele>
        <time>2021-07-08T12:05:55Z</time>
      </trkpt>
      <trkpt lat="48.34104" lon="-3.65575">
        <ele>226</ele>
        <time>2021-07-08T12:05:56Z</time>
      </trkpt>
      <trkpt lat="48.34101" lon="-3.65573">
        <ele>226</ele>
        <time>2021-07-08T12:05:57Z</time>
      </trkpt>
      <trkpt lat="48.34098" lon="-3.65571">
        <ele>226</ele>
        <time>2021-07-08T12:05:58Z</time>
      </trkpt>
      <trkpt lat="48.34095" lon="-3.65568">
        <ele>226</ele>
        <time>2021-07-08T12:05:59Z</time>
      </trkpt>
      <trkpt lat="48.34092" lon="-3.65566">
        <ele>226</ele>
        <time>2021-07-08T12:06:00Z</time>
      </trkpt>
      <trkpt lat="48.34089" lon="-3.65563">
        <ele>227</ele>
        <time>2021-07-08T12:06:01Z</time>
      </trkpt>
      <trkpt lat="48.34086" lon="-3.65561">
        <ele>227</ele>
        <time>2021-07-08T12:06:02Z</time>
      </trkpt>
      <trkpt lat="48.34083" lon="-3.65559">
        <ele>227</ele>
        <time>2021-07-08T12:06:03Z</time>
      </trkpt>
      <trkpt lat="48.3408" lon="-3.65557">
        <ele>227</ele>
        <time>2021-07-08T12:06:04Z</time>
      </trkpt>
      <trkpt lat="48.34077" lon="-3.65555">
        <ele>227</ele>
        <time>2021-07-08T12:06:05Z</time>
      </trkpt>
      <trkpt lat="48.34075" lon="-3.65553">
        <ele>227</ele>
        <time>2021-07-08T12:06:06Z</time>
      </trkpt>
      <trkpt lat="48.34072" lon="-3.65551">
        <ele>227</ele>
        <time>2021-07-08T12:06:07Z</time>
      </trkpt>
      <trkpt lat="48.34069" lon="-3.65549">
        <ele>227</ele>
        <time>2021-07-08T12:06:08Z</time>
      </trkpt>
      <trkpt lat="48.34066" lon="-3.65546">
        <ele>227</ele>
        <time>2021-07-08T12:06:09Z</time>
      </trkpt>
      <trkpt lat="48.34063" lon="-3.65544">
        <ele>227</ele>
        <time>2021-07-08T12:06:10Z</time>
      </trkpt>
      <trkpt lat="48.3406" lon="-3.65541">
        <ele>227</ele>
        <time>2021-07-08T12:06:11Z</time>
      </trkpt>
      <trkpt lat="48.34057" lon="-3.65539">
        <ele>228</ele>
        <time>2021-07-08T12:06:12Z</time>
      </trkpt>
      <trkpt lat="48.34054" lon="-3.65537">
        <ele>228</ele>
        <time>2021-07-08T12:06:13Z</time>
      </trkpt>
      <trkpt lat="48.34051" lon="-3.65534">
        <ele>228</ele>
        <time>2021-07-08T12:06:14Z</time>
      </trkpt>
      <trkpt lat="48.34048" lon="-3.65532">
        <ele>228</ele>
        <time>2021-07-08T12:06:15Z</time>
      </trkpt>
      <trkpt lat="48.34046" lon="-3.6553">
        <ele>228</ele>
        <time>2021-07-08T12:06:16Z</time>
      </trkpt>
      <trkpt lat="48.34044" lon="-3.65528">
        <ele>228</ele>
        <time>2021-07-08T12:06:17Z</time>
      </trkpt>
      <trkpt lat="48.34041" lon="-3.65526">
        <ele>228</ele>
        <time>2021-07-08T12:06:18Z</time>
      </trkpt>
      <trkpt lat="48.34038" lon="-3.65523">
        <ele>229</ele>
        <time>2021-07-08T12:06:19Z</time>
      </trkpt>
      <trkpt lat="48.34036" lon="-3.65519">
        <ele>229</ele>
        <time>2021-07-08T12:06:20Z</time>
      </trkpt>
      <trkpt lat="48.34033" lon="-3.65516">
        <ele>229</ele>
        <time>2021-07-08T12:06:21Z</time>
      </trkpt>
      <trkpt lat="48.34031" lon="-3.65514">
        <ele>229</ele>
        <time>2021-07-08T12:06:22Z</time>
      </trkpt>
      <trkpt lat="48.34028" lon="-3.65511">
        <ele>229</ele>
        <time>2021-07-08T12:06:23Z</time>
      </trkpt>
      <trkpt lat="48.34026" lon="-3.65507">
        <ele>229</ele>
        <time>2021-07-08T12:06:24Z</time>
      </trkpt>
      <trkpt lat="48.34024" lon="-3.65504">
        <ele>229</ele>
        <time>2021-07-08T12:06:25Z</time>
      </trkpt>
      <trkpt lat="48.34023" lon="-3.65501">
        <ele>229</ele>
        <time>2021-07-08T12:06:26Z</time>
      </trkpt>
      <trkpt lat="48.34021" lon="-3.65498">
        <ele>229</ele>
        <time>2021-07-08T12:06:27Z</time>
      </trkpt>
      <trkpt lat="48.34019" lon="-3.65494">
        <ele>229</ele>
        <time>2021-07-08T12:06:28Z</time>
      </trkpt>
      <trkpt lat="48.34018" lon="-3.6549">
        <ele>229</ele>
        <time>2021-07-08T12:06:28Z</time>
      </trkpt>
      <trkpt lat="48.34016" lon="-3.65487">
        <ele>229</ele>
        <time>2021-07-08T12:06:30Z</time>
      </trkpt>
      <trkpt lat="48.34014" lon="-3.65484">
        <ele>229</ele>
        <time>2021-07-08T12:06:31Z</time>
      </trkpt>
      <trkpt lat="48.34012" lon="-3.65481">
        <ele>229</ele>
        <time>2021-07-08T12:06:32Z</time>
      </trkpt>
      <trkpt lat="48.3401" lon="-3.65478">
        <ele>229</ele>
        <time>2021-07-08T12:06:33Z</time>
      </trkpt>
      <trkpt lat="48.34006" lon="-3.65469">
        <ele>229</ele>
        <time>2021-07-08T12:06:35Z</time>
      </trkpt>
      <trkpt lat="48.34003" lon="-3.65465">
        <ele>229</ele>
        <time>2021-07-08T12:06:36Z</time>
      </trkpt>
      <trkpt lat="48.34" lon="-3.6546">
        <ele>229</ele>
        <time>2021-07-08T12:06:37Z</time>
      </trkpt>
      <trkpt lat="48.33998" lon="-3.65456">
        <ele>229</ele>
        <time>2021-07-08T12:06:38Z</time>
      </trkpt>
      <trkpt lat="48.33995" lon="-3.65452">
        <ele>230</ele>
        <time>2021-07-08T12:06:39Z</time>
      </trkpt>
      <trkpt lat="48.33993" lon="-3.65448">
        <ele>230</ele>
        <time>2021-07-08T12:06:40Z</time>
      </trkpt>
      <trkpt lat="48.33991" lon="-3.65444">
        <ele>230</ele>
        <time>2021-07-08T12:06:41Z</time>
      </trkpt>
      <trkpt lat="48.33988" lon="-3.65436">
        <ele>230</ele>
        <time>2021-07-08T12:06:42Z</time>
      </trkpt>
      <trkpt lat="48.33985" lon="-3.65432">
        <ele>230</ele>
        <time>2021-07-08T12:06:44Z</time>
      </trkpt>
      <trkpt lat="48.33983" lon="-3.65427">
        <ele>230</ele>
        <time>2021-07-08T12:06:45Z</time>
      </trkpt>
      <trkpt lat="48.33982" lon="-3.65421">
        <ele>230</ele>
        <time>2021-07-08T12:06:46Z</time>
      </trkpt>
      <trkpt lat="48.3398" lon="-3.65416">
        <ele>230</ele>
        <time>2021-07-08T12:06:47Z</time>
      </trkpt>
      <trkpt lat="48.33978" lon="-3.65411">
        <ele>230</ele>
        <time>2021-07-08T12:06:47Z</time>
      </trkpt>
      <trkpt lat="48.33977" lon="-3.65406">
        <ele>230</ele>
        <time>2021-07-08T12:06:49Z</time>
      </trkpt>
      <trkpt lat="48.33975" lon="-3.65401">
        <ele>230</ele>
        <time>2021-07-08T12:06:50Z</time>
      </trkpt>
      <trkpt lat="48.33973" lon="-3.65397">
        <ele>230</ele>
        <time>2021-07-08T12:06:51Z</time>
      </trkpt>
      <trkpt lat="48.33972" lon="-3.65392">
        <ele>230</ele>
        <time>2021-07-08T12:06:52Z</time>
      </trkpt>
      <trkpt lat="48.3397" lon="-3.65388">
        <ele>230</ele>
        <time>2021-07-08T12:06:53Z</time>
      </trkpt>
      <trkpt lat="48.33969" lon="-3.65383">
        <ele>230</ele>
        <time>2021-07-08T12:06:54Z</time>
      </trkpt>
      <trkpt lat="48.33968" lon="-3.65379">
        <ele>230</ele>
        <time>2021-07-08T12:06:55Z</time>
      </trkpt>
      <trkpt lat="48.33967" lon="-3.65374">
        <ele>230</ele>
        <time>2021-07-08T12:06:56Z</time>
      </trkpt>
      <trkpt lat="48.33966" lon="-3.65369">
        <ele>230</ele>
        <time>2021-07-08T12:06:57Z</time>
      </trkpt>
      <trkpt lat="48.33965" lon="-3.65364">
        <ele>230</ele>
        <time>2021-07-08T12:06:58Z</time>
      </trkpt>
      <trkpt lat="48.33964" lon="-3.6536">
        <ele>230</ele>
        <time>2021-07-08T12:06:59Z</time>
      </trkpt>
      <trkpt lat="48.33962" lon="-3.65355">
        <ele>230</ele>
        <time>2021-07-08T12:07:00Z</time>
      </trkpt>
      <trkpt lat="48.33961" lon="-3.6535">
        <ele>230</ele>
        <time>2021-07-08T12:07:01Z</time>
      </trkpt>
      <trkpt lat="48.3396" lon="-3.65345">
        <ele>230</ele>
        <time>2021-07-08T12:07:01Z</time>
      </trkpt>
      <trkpt lat="48.33958" lon="-3.65341">
        <ele>230</ele>
        <time>2021-07-08T12:07:03Z</time>
      </trkpt>
      <trkpt lat="48.33958" lon="-3.65336">
        <ele>230</ele>
        <time>2021-07-08T12:07:04Z</time>
      </trkpt>
      <trkpt lat="48.33957" lon="-3.65331">
        <ele>230</ele>
        <time>2021-07-08T12:07:05Z</time>
      </trkpt>
      <trkpt lat="48.33957" lon="-3.65327">
        <ele>230</ele>
        <time>2021-07-08T12:07:06Z</time>
      </trkpt>
      <trkpt lat="48.33958" lon="-3.65322">
        <ele>231</ele>
        <time>2021-07-08T12:07:07Z</time>
      </trkpt>
      <trkpt lat="48.33958" lon="-3.65317">
        <ele>231</ele>
        <time>2021-07-08T12:07:08Z</time>
      </trkpt>
      <trkpt lat="48.33958" lon="-3.65311">
        <ele>231</ele>
        <time>2021-07-08T12:07:09Z</time>
      </trkpt>
      <trkpt lat="48.33958" lon="-3.65306">
        <ele>231</ele>
        <time>2021-07-08T12:07:10Z</time>
      </trkpt>
      <trkpt lat="48.33959" lon="-3.65301">
        <ele>231</ele>
        <time>2021-07-08T12:07:11Z</time>
      </trkpt>
      <trkpt lat="48.3396" lon="-3.65294">
        <ele>231</ele>
        <time>2021-07-08T12:07:12Z</time>
      </trkpt>
      <trkpt lat="48.3396" lon="-3.65289">
        <ele>232</ele>
        <time>2021-07-08T12:07:13Z</time>
      </trkpt>
      <trkpt lat="48.33961" lon="-3.65284">
        <ele>232</ele>
        <time>2021-07-08T12:07:14Z</time>
      </trkpt>
      <trkpt lat="48.33961" lon="-3.65278">
        <ele>232</ele>
        <time>2021-07-08T12:07:14Z</time>
      </trkpt>
      <trkpt lat="48.33962" lon="-3.65273">
        <ele>232</ele>
        <time>2021-07-08T12:07:16Z</time>
      </trkpt>
      <trkpt lat="48.33962" lon="-3.65268">
        <ele>232</ele>
        <time>2021-07-08T12:07:17Z</time>
      </trkpt>
      <trkpt lat="48.33963" lon="-3.65263">
        <ele>232</ele>
        <time>2021-07-08T12:07:18Z</time>
      </trkpt>
      <trkpt lat="48.33964" lon="-3.65258">
        <ele>232</ele>
        <time>2021-07-08T12:07:19Z</time>
      </trkpt>
      <trkpt lat="48.33964" lon="-3.65253">
        <ele>232</ele>
        <time>2021-07-08T12:07:20Z</time>
      </trkpt>
      <trkpt lat="48.33965" lon="-3.65247">
        <ele>232</ele>
        <time>2021-07-08T12:07:21Z</time>
      </trkpt>
      <trkpt lat="48.33966" lon="-3.65242">
        <ele>232</ele>
        <time>2021-07-08T12:07:22Z</time>
      </trkpt>
      <trkpt lat="48.33966" lon="-3.65237">
        <ele>232</ele>
        <time>2021-07-08T12:07:23Z</time>
      </trkpt>
      <trkpt lat="48.33967" lon="-3.65232">
        <ele>232</ele>
        <time>2021-07-08T12:07:24Z</time>
      </trkpt>
      <trkpt lat="48.33968" lon="-3.65227">
        <ele>232</ele>
        <time>2021-07-08T12:07:25Z</time>
      </trkpt>
      <trkpt lat="48.33968" lon="-3.65222">
        <ele>233</ele>
        <time>2021-07-08T12:07:26Z</time>
      </trkpt>
      <trkpt lat="48.33969" lon="-3.65217">
        <ele>233</ele>
        <time>2021-07-08T12:07:27Z</time>
      </trkpt>
      <trkpt lat="48.3397" lon="-3.65212">
        <ele>233</ele>
        <time>2021-07-08T12:07:28Z</time>
      </trkpt>
      <trkpt lat="48.33971" lon="-3.65207">
        <ele>234</ele>
        <time>2021-07-08T12:07:29Z</time>
      </trkpt>
      <trkpt lat="48.33972" lon="-3.65202">
        <ele>234</ele>
        <time>2021-07-08T12:07:30Z</time>
      </trkpt>
      <trkpt lat="48.33972" lon="-3.65197">
        <ele>234</ele>
        <time>2021-07-08T12:07:31Z</time>
      </trkpt>
      <trkpt lat="48.33973" lon="-3.65193">
        <ele>234</ele>
        <time>2021-07-08T12:07:32Z</time>
      </trkpt>
      <trkpt lat="48.33974" lon="-3.65188">
        <ele>234</ele>
        <time>2021-07-08T12:07:33Z</time>
      </trkpt>
      <trkpt lat="48.33975" lon="-3.65184">
        <ele>234</ele>
        <time>2021-07-08T12:07:33Z</time>
      </trkpt>
      <trkpt lat="48.33976" lon="-3.65179">
        <ele>234</ele>
        <time>2021-07-08T12:07:35Z</time>
      </trkpt>
      <trkpt lat="48.33977" lon="-3.65175">
        <ele>234</ele>
        <time>2021-07-08T12:07:36Z</time>
      </trkpt>
      <trkpt lat="48.33977" lon="-3.6517">
        <ele>234</ele>
        <time>2021-07-08T12:07:37Z</time>
      </trkpt>
      <trkpt lat="48.33978" lon="-3.65165">
        <ele>234</ele>
        <time>2021-07-08T12:07:38Z</time>
      </trkpt>
      <trkpt lat="48.33979" lon="-3.6516">
        <ele>234</ele>
        <time>2021-07-08T12:07:39Z</time>
      </trkpt>
      <trkpt lat="48.3398" lon="-3.65155">
        <ele>234</ele>
        <time>2021-07-08T12:07:40Z</time>
      </trkpt>
      <trkpt lat="48.3398" lon="-3.6515">
        <ele>234</ele>
        <time>2021-07-08T12:07:41Z</time>
      </trkpt>
      <trkpt lat="48.33981" lon="-3.65146">
        <ele>234</ele>
        <time>2021-07-08T12:07:42Z</time>
      </trkpt>
      <trkpt lat="48.33982" lon="-3.65141">
        <ele>234</ele>
        <time>2021-07-08T12:07:43Z</time>
      </trkpt>
      <trkpt lat="48.33983" lon="-3.65136">
        <ele>234</ele>
        <time>2021-07-08T12:07:44Z</time>
      </trkpt>
      <trkpt lat="48.33983" lon="-3.65131">
        <ele>234</ele>
        <time>2021-07-08T12:07:45Z</time>
      </trkpt>
      <trkpt lat="48.33984" lon="-3.65126">
        <ele>234</ele>
        <time>2021-07-08T12:07:46Z</time>
      </trkpt>
      <trkpt lat="48.33985" lon="-3.65121">
        <ele>234</ele>
        <time>2021-07-08T12:07:47Z</time>
      </trkpt>
      <trkpt lat="48.33986" lon="-3.65117">
        <ele>234</ele>
        <time>2021-07-08T12:07:48Z</time>
      </trkpt>
      <trkpt lat="48.33987" lon="-3.65112">
        <ele>234</ele>
        <time>2021-07-08T12:07:49Z</time>
      </trkpt>
      <trkpt lat="48.33988" lon="-3.65108">
        <ele>234</ele>
        <time>2021-07-08T12:07:50Z</time>
      </trkpt>
      <trkpt lat="48.33988" lon="-3.65104">
        <ele>235</ele>
        <time>2021-07-08T12:07:51Z</time>
      </trkpt>
      <trkpt lat="48.33989" lon="-3.65099">
        <ele>235</ele>
        <time>2021-07-08T12:07:52Z</time>
      </trkpt>
      <trkpt lat="48.3399" lon="-3.65096">
        <ele>235</ele>
        <time>2021-07-08T12:07:53Z</time>
      </trkpt>
      <trkpt lat="48.33991" lon="-3.65092">
        <ele>235</ele>
        <time>2021-07-08T12:07:54Z</time>
      </trkpt>
      <trkpt lat="48.33992" lon="-3.65088">
        <ele>235</ele>
        <time>2021-07-08T12:07:55Z</time>
      </trkpt>
      <trkpt lat="48.33992" lon="-3.65084">
        <ele>235</ele>
        <time>2021-07-08T12:07:56Z</time>
      </trkpt>
      <trkpt lat="48.33993" lon="-3.65079">
        <ele>235</ele>
        <time>2021-07-08T12:07:57Z</time>
      </trkpt>
      <trkpt lat="48.33994" lon="-3.65075">
        <ele>236</ele>
        <time>2021-07-08T12:07:58Z</time>
      </trkpt>
      <trkpt lat="48.33994" lon="-3.6507">
        <ele>236</ele>
        <time>2021-07-08T12:07:59Z</time>
      </trkpt>
      <trkpt lat="48.33995" lon="-3.65066">
        <ele>236</ele>
        <time>2021-07-08T12:08:00Z</time>
      </trkpt>
      <trkpt lat="48.33996" lon="-3.65062">
        <ele>236</ele>
        <time>2021-07-08T12:08:01Z</time>
      </trkpt>
      <trkpt lat="48.33997" lon="-3.65057">
        <ele>236</ele>
        <time>2021-07-08T12:08:02Z</time>
      </trkpt>
      <trkpt lat="48.33998" lon="-3.65049">
        <ele>236</ele>
        <time>2021-07-08T12:08:04Z</time>
      </trkpt>
      <trkpt lat="48.33999" lon="-3.65045">
        <ele>236</ele>
        <time>2021-07-08T12:08:05Z</time>
      </trkpt>
      <trkpt lat="48.33999" lon="-3.65041">
        <ele>236</ele>
        <time>2021-07-08T12:08:06Z</time>
      </trkpt>
      <trkpt lat="48.34" lon="-3.65036">
        <ele>236</ele>
        <time>2021-07-08T12:08:07Z</time>
      </trkpt>
      <trkpt lat="48.34" lon="-3.65032">
        <ele>236</ele>
        <time>2021-07-08T12:08:08Z</time>
      </trkpt>
      <trkpt lat="48.34" lon="-3.65027">
        <ele>236</ele>
        <time>2021-07-08T12:08:09Z</time>
      </trkpt>
      <trkpt lat="48.34" lon="-3.65023">
        <ele>236</ele>
        <time>2021-07-08T12:08:10Z</time>
      </trkpt>
      <trkpt lat="48.34" lon="-3.65018">
        <ele>236</ele>
        <time>2021-07-08T12:08:11Z</time>
      </trkpt>
      <trkpt lat="48.34" lon="-3.65014">
        <ele>236</ele>
        <time>2021-07-08T12:08:12Z</time>
      </trkpt>
      <trkpt lat="48.34001" lon="-3.65009">
        <ele>236</ele>
        <time>2021-07-08T12:08:13Z</time>
      </trkpt>
      <trkpt lat="48.34001" lon="-3.65004">
        <ele>236</ele>
        <time>2021-07-08T12:08:14Z</time>
      </trkpt>
      <trkpt lat="48.34001" lon="-3.65">
        <ele>236</ele>
        <time>2021-07-08T12:08:15Z</time>
      </trkpt>
      <trkpt lat="48.34001" lon="-3.64995">
        <ele>237</ele>
        <time>2021-07-08T12:08:16Z</time>
      </trkpt>
      <trkpt lat="48.34001" lon="-3.64991">
        <ele>237</ele>
        <time>2021-07-08T12:08:16Z</time>
      </trkpt>
      <trkpt lat="48.34001" lon="-3.64987">
        <ele>237</ele>
        <time>2021-07-08T12:08:18Z</time>
      </trkpt>
      <trkpt lat="48.34001" lon="-3.64982">
        <ele>237</ele>
        <time>2021-07-08T12:08:19Z</time>
      </trkpt>
      <trkpt lat="48.34001" lon="-3.64978">
        <ele>237</ele>
        <time>2021-07-08T12:08:20Z</time>
      </trkpt>
      <trkpt lat="48.34001" lon="-3.64974">
        <ele>237</ele>
        <time>2021-07-08T12:08:21Z</time>
      </trkpt>
      <trkpt lat="48.34" lon="-3.64965">
        <ele>237</ele>
        <time>2021-07-08T12:08:22Z</time>
      </trkpt>
      <trkpt lat="48.34" lon="-3.64961">
        <ele>237</ele>
        <time>2021-07-08T12:08:24Z</time>
      </trkpt>
      <trkpt lat="48.34" lon="-3.64957">
        <ele>237</ele>
        <time>2021-07-08T12:08:25Z</time>
      </trkpt>
      <trkpt lat="48.34" lon="-3.64953">
        <ele>237</ele>
        <time>2021-07-08T12:08:26Z</time>
      </trkpt>
      <trkpt lat="48.34" lon="-3.64949">
        <ele>238</ele>
        <time>2021-07-08T12:08:27Z</time>
      </trkpt>
      <trkpt lat="48.33999" lon="-3.64944">
        <ele>238</ele>
        <time>2021-07-08T12:08:28Z</time>
      </trkpt>
      <trkpt lat="48.33999" lon="-3.6494">
        <ele>238</ele>
        <time>2021-07-08T12:08:29Z</time>
      </trkpt>
      <trkpt lat="48.33998" lon="-3.64936">
        <ele>238</ele>
        <time>2021-07-08T12:08:30Z</time>
      </trkpt>
      <trkpt lat="48.33998" lon="-3.64931">
        <ele>238</ele>
        <time>2021-07-08T12:08:31Z</time>
      </trkpt>
      <trkpt lat="48.33997" lon="-3.64926">
        <ele>238</ele>
        <time>2021-07-08T12:08:32Z</time>
      </trkpt>
      <trkpt lat="48.33996" lon="-3.64922">
        <ele>238</ele>
        <time>2021-07-08T12:08:33Z</time>
      </trkpt>
      <trkpt lat="48.33996" lon="-3.64918">
        <ele>238</ele>
        <time>2021-07-08T12:08:34Z</time>
      </trkpt>
      <trkpt lat="48.33995" lon="-3.64914">
        <ele>238</ele>
        <time>2021-07-08T12:08:35Z</time>
      </trkpt>
      <trkpt lat="48.33995" lon="-3.64909">
        <ele>238</ele>
        <time>2021-07-08T12:08:36Z</time>
      </trkpt>
      <trkpt lat="48.33994" lon="-3.64905">
        <ele>238</ele>
        <time>2021-07-08T12:08:37Z</time>
      </trkpt>
      <trkpt lat="48.33993" lon="-3.64901">
        <ele>238</ele>
        <time>2021-07-08T12:08:38Z</time>
      </trkpt>
      <trkpt lat="48.33992" lon="-3.64896">
        <ele>238</ele>
        <time>2021-07-08T12:08:39Z</time>
      </trkpt>
      <trkpt lat="48.33991" lon="-3.64892">
        <ele>238</ele>
        <time>2021-07-08T12:08:40Z</time>
      </trkpt>
      <trkpt lat="48.3399" lon="-3.64884">
        <ele>238</ele>
        <time>2021-07-08T12:08:42Z</time>
      </trkpt>
      <trkpt lat="48.33989" lon="-3.64881">
        <ele>238</ele>
        <time>2021-07-08T12:08:43Z</time>
      </trkpt>
      <trkpt lat="48.3399" lon="-3.64882">
        <ele>238</ele>
        <time>2021-07-08T12:08:50Z</time>
      </trkpt>
      <trkpt lat="48.33992" lon="-3.64889">
        <ele>239</ele>
        <time>2021-07-08T12:08:58Z</time>
      </trkpt>
      <trkpt lat="48.33992" lon="-3.64891">
        <ele>239</ele>
        <time>2021-07-08T12:09:00Z</time>
      </trkpt>
      <trkpt lat="48.33991" lon="-3.64892">
        <ele>239</ele>
        <time>2021-07-08T12:09:07Z</time>
      </trkpt>
      <trkpt lat="48.33992" lon="-3.6488">
        <ele>239</ele>
        <time>2021-07-08T12:12:42Z</time>
      </trkpt>
      <trkpt lat="48.33991" lon="-3.64878">
        <ele>239</ele>
        <time>2021-07-08T12:12:43Z</time>
      </trkpt>
      <trkpt lat="48.3399" lon="-3.64875">
        <ele>239</ele>
        <time>2021-07-08T12:12:43Z</time>
      </trkpt>
      <trkpt lat="48.33989" lon="-3.64872">
        <ele>239</ele>
        <time>2021-07-08T12:12:45Z</time>
      </trkpt>
      <trkpt lat="48.33989" lon="-3.64868">
        <ele>239</ele>
        <time>2021-07-08T12:12:46Z</time>
      </trkpt>
      <trkpt lat="48.33988" lon="-3.64864">
        <ele>239</ele>
        <time>2021-07-08T12:12:47Z</time>
      </trkpt>
      <trkpt lat="48.33987" lon="-3.6486">
        <ele>239</ele>
        <time>2021-07-08T12:12:48Z</time>
      </trkpt>
      <trkpt lat="48.33986" lon="-3.64856">
        <ele>239</ele>
        <time>2021-07-08T12:12:49Z</time>
      </trkpt>
      <trkpt lat="48.33984" lon="-3.64852">
        <ele>239</ele>
        <time>2021-07-08T12:12:50Z</time>
      </trkpt>
      <trkpt lat="48.33983" lon="-3.64848">
        <ele>239</ele>
        <time>2021-07-08T12:12:51Z</time>
      </trkpt>
      <trkpt lat="48.33982" lon="-3.64844">
        <ele>239</ele>
        <time>2021-07-08T12:12:52Z</time>
      </trkpt>
      <trkpt lat="48.33981" lon="-3.64841">
        <ele>239</ele>
        <time>2021-07-08T12:12:53Z</time>
      </trkpt>
      <trkpt lat="48.3398" lon="-3.64837">
        <ele>240</ele>
        <time>2021-07-08T12:12:54Z</time>
      </trkpt>
      <trkpt lat="48.33979" lon="-3.64833">
        <ele>240</ele>
        <time>2021-07-08T12:12:55Z</time>
      </trkpt>
      <trkpt lat="48.33978" lon="-3.64829">
        <ele>240</ele>
        <time>2021-07-08T12:12:56Z</time>
      </trkpt>
      <trkpt lat="48.33976" lon="-3.64826">
        <ele>240</ele>
        <time>2021-07-08T12:12:57Z</time>
      </trkpt>
      <trkpt lat="48.33975" lon="-3.64822">
        <ele>240</ele>
        <time>2021-07-08T12:12:58Z</time>
      </trkpt>
      <trkpt lat="48.33974" lon="-3.64818">
        <ele>240</ele>
        <time>2021-07-08T12:12:59Z</time>
      </trkpt>
      <trkpt lat="48.33972" lon="-3.64814">
        <ele>240</ele>
        <time>2021-07-08T12:13:00Z</time>
      </trkpt>
      <trkpt lat="48.33971" lon="-3.64811">
        <ele>240</ele>
        <time>2021-07-08T12:13:01Z</time>
      </trkpt>
      <trkpt lat="48.33969" lon="-3.64807">
        <ele>240</ele>
        <time>2021-07-08T12:13:02Z</time>
      </trkpt>
      <trkpt lat="48.33968" lon="-3.64803">
        <ele>240</ele>
        <time>2021-07-08T12:13:03Z</time>
      </trkpt>
      <trkpt lat="48.33966" lon="-3.64799">
        <ele>240</ele>
        <time>2021-07-08T12:13:04Z</time>
      </trkpt>
      <trkpt lat="48.33965" lon="-3.64795">
        <ele>240</ele>
        <time>2021-07-08T12:13:05Z</time>
      </trkpt>
      <trkpt lat="48.33963" lon="-3.64791">
        <ele>241</ele>
        <time>2021-07-08T12:13:06Z</time>
      </trkpt>
      <trkpt lat="48.33962" lon="-3.64787">
        <ele>241</ele>
        <time>2021-07-08T12:13:07Z</time>
      </trkpt>
      <trkpt lat="48.3396" lon="-3.64784">
        <ele>241</ele>
        <time>2021-07-08T12:13:08Z</time>
      </trkpt>
      <trkpt lat="48.33959" lon="-3.6478">
        <ele>241</ele>
        <time>2021-07-08T12:13:09Z</time>
      </trkpt>
      <trkpt lat="48.33957" lon="-3.64777">
        <ele>241</ele>
        <time>2021-07-08T12:13:10Z</time>
      </trkpt>
      <trkpt lat="48.33955" lon="-3.64775">
        <ele>241</ele>
        <time>2021-07-08T12:13:11Z</time>
      </trkpt>
      <trkpt lat="48.33954" lon="-3.64772">
        <ele>241</ele>
        <time>2021-07-08T12:13:12Z</time>
      </trkpt>
      <trkpt lat="48.33952" lon="-3.64768">
        <ele>241</ele>
        <time>2021-07-08T12:13:12Z</time>
      </trkpt>
      <trkpt lat="48.3395" lon="-3.64765">
        <ele>241</ele>
        <time>2021-07-08T12:13:14Z</time>
      </trkpt>
      <trkpt lat="48.33948" lon="-3.64763">
        <ele>241</ele>
        <time>2021-07-08T12:13:15Z</time>
      </trkpt>
      <trkpt lat="48.33947" lon="-3.6476">
        <ele>241</ele>
        <time>2021-07-08T12:13:16Z</time>
      </trkpt>
      <trkpt lat="48.33945" lon="-3.64756">
        <ele>241</ele>
        <time>2021-07-08T12:13:17Z</time>
      </trkpt>
      <trkpt lat="48.33944" lon="-3.64753">
        <ele>240</ele>
        <time>2021-07-08T12:13:18Z</time>
      </trkpt>
      <trkpt lat="48.33942" lon="-3.6475">
        <ele>240</ele>
        <time>2021-07-08T12:13:19Z</time>
      </trkpt>
      <trkpt lat="48.3394" lon="-3.64747">
        <ele>242</ele>
        <time>2021-07-08T12:13:20Z</time>
      </trkpt>
      <trkpt lat="48.33937" lon="-3.64742">
        <ele>242</ele>
        <time>2021-07-08T12:13:21Z</time>
      </trkpt>
      <trkpt lat="48.33935" lon="-3.64739">
        <ele>242</ele>
        <time>2021-07-08T12:13:23Z</time>
      </trkpt>
      <trkpt lat="48.33933" lon="-3.64736">
        <ele>242</ele>
        <time>2021-07-08T12:13:24Z</time>
      </trkpt>
      <trkpt lat="48.33931" lon="-3.64734">
        <ele>242</ele>
        <time>2021-07-08T12:13:25Z</time>
      </trkpt>
      <trkpt lat="48.33928" lon="-3.64731">
        <ele>241</ele>
        <time>2021-07-08T12:13:26Z</time>
      </trkpt>
      <trkpt lat="48.33926" lon="-3.64729">
        <ele>241</ele>
        <time>2021-07-08T12:13:27Z</time>
      </trkpt>
      <trkpt lat="48.33924" lon="-3.64726">
        <ele>242</ele>
        <time>2021-07-08T12:13:28Z</time>
      </trkpt>
      <trkpt lat="48.33921" lon="-3.64723">
        <ele>242</ele>
        <time>2021-07-08T12:13:29Z</time>
      </trkpt>
      <trkpt lat="48.33919" lon="-3.64719">
        <ele>242</ele>
        <time>2021-07-08T12:13:30Z</time>
      </trkpt>
      <trkpt lat="48.33916" lon="-3.64717">
        <ele>242</ele>
        <time>2021-07-08T12:13:31Z</time>
      </trkpt>
      <trkpt lat="48.33914" lon="-3.64714">
        <ele>242</ele>
        <time>2021-07-08T12:13:32Z</time>
      </trkpt>
      <trkpt lat="48.33912" lon="-3.64712">
        <ele>242</ele>
        <time>2021-07-08T12:13:33Z</time>
      </trkpt>
      <trkpt lat="48.3391" lon="-3.64709">
        <ele>242</ele>
        <time>2021-07-08T12:13:34Z</time>
      </trkpt>
      <trkpt lat="48.33909" lon="-3.64707">
        <ele>242</ele>
        <time>2021-07-08T12:13:35Z</time>
      </trkpt>
      <trkpt lat="48.33907" lon="-3.64705">
        <ele>242</ele>
        <time>2021-07-08T12:13:36Z</time>
      </trkpt>
      <trkpt lat="48.33905" lon="-3.64702">
        <ele>242</ele>
        <time>2021-07-08T12:13:36Z</time>
      </trkpt>
      <trkpt lat="48.33903" lon="-3.64699">
        <ele>242</ele>
        <time>2021-07-08T12:13:38Z</time>
      </trkpt>
      <trkpt lat="48.33901" lon="-3.64696">
        <ele>242</ele>
        <time>2021-07-08T12:13:39Z</time>
      </trkpt>
      <trkpt lat="48.33897" lon="-3.64691">
        <ele>242</ele>
        <time>2021-07-08T12:13:40Z</time>
      </trkpt>
      <trkpt lat="48.33895" lon="-3.64688">
        <ele>242</ele>
        <time>2021-07-08T12:13:42Z</time>
      </trkpt>
      <trkpt lat="48.33893" lon="-3.64685">
        <ele>242</ele>
        <time>2021-07-08T12:13:43Z</time>
      </trkpt>
      <trkpt lat="48.33891" lon="-3.64683">
        <ele>242</ele>
        <time>2021-07-08T12:13:44Z</time>
      </trkpt>
      <trkpt lat="48.33889" lon="-3.6468">
        <ele>242</ele>
        <time>2021-07-08T12:13:45Z</time>
      </trkpt>
      <trkpt lat="48.33886" lon="-3.64678">
        <ele>242</ele>
        <time>2021-07-08T12:13:46Z</time>
      </trkpt>
      <trkpt lat="48.33884" lon="-3.64675">
        <ele>242</ele>
        <time>2021-07-08T12:13:47Z</time>
      </trkpt>
      <trkpt lat="48.33881" lon="-3.64672">
        <ele>242</ele>
        <time>2021-07-08T12:13:48Z</time>
      </trkpt>
      <trkpt lat="48.33879" lon="-3.64669">
        <ele>242</ele>
        <time>2021-07-08T12:13:49Z</time>
      </trkpt>
      <trkpt lat="48.33876" lon="-3.64667">
        <ele>242</ele>
        <time>2021-07-08T12:13:50Z</time>
      </trkpt>
      <trkpt lat="48.33874" lon="-3.64664">
        <ele>243</ele>
        <time>2021-07-08T12:13:51Z</time>
      </trkpt>
      <trkpt lat="48.33872" lon="-3.64661">
        <ele>243</ele>
        <time>2021-07-08T12:13:52Z</time>
      </trkpt>
      <trkpt lat="48.3387" lon="-3.64659">
        <ele>243</ele>
        <time>2021-07-08T12:13:53Z</time>
      </trkpt>
      <trkpt lat="48.33868" lon="-3.64656">
        <ele>243</ele>
        <time>2021-07-08T12:13:54Z</time>
      </trkpt>
      <trkpt lat="48.3386" lon="-3.64646">
        <ele>243</ele>
        <time>2021-07-08T12:13:58Z</time>
      </trkpt>
      <trkpt lat="48.33852" lon="-3.64637">
        <ele>243</ele>
        <time>2021-07-08T12:14:01Z</time>
      </trkpt>
      <trkpt lat="48.33846" lon="-3.6463">
        <ele>243</ele>
        <time>2021-07-08T12:14:03Z</time>
      </trkpt>
      <trkpt lat="48.33837" lon="-3.64619">
        <ele>244</ele>
        <time>2021-07-08T12:14:07Z</time>
      </trkpt>
      <trkpt lat="48.33827" lon="-3.64609">
        <ele>244</ele>
        <time>2021-07-08T12:14:11Z</time>
      </trkpt>
      <trkpt lat="48.3382" lon="-3.64601">
        <ele>244</ele>
        <time>2021-07-08T12:14:13Z</time>
      </trkpt>
      <trkpt lat="48.33811" lon="-3.6459">
        <ele>245</ele>
        <time>2021-07-08T12:14:18Z</time>
      </trkpt>
      <trkpt lat="48.33809" lon="-3.64587">
        <ele>245</ele>
        <time>2021-07-08T12:14:18Z</time>
      </trkpt>
      <trkpt lat="48.33806" lon="-3.64584">
        <ele>245</ele>
        <time>2021-07-08T12:14:20Z</time>
      </trkpt>
      <trkpt lat="48.33804" lon="-3.64581">
        <ele>245</ele>
        <time>2021-07-08T12:14:21Z</time>
      </trkpt>
      <trkpt lat="48.33802" lon="-3.64579">
        <ele>245</ele>
        <time>2021-07-08T12:14:22Z</time>
      </trkpt>
      <trkpt lat="48.33799" lon="-3.64576">
        <ele>245</ele>
        <time>2021-07-08T12:14:23Z</time>
      </trkpt>
      <trkpt lat="48.33796" lon="-3.64573">
        <ele>245</ele>
        <time>2021-07-08T12:14:24Z</time>
      </trkpt>
      <trkpt lat="48.33794" lon="-3.6457">
        <ele>245</ele>
        <time>2021-07-08T12:14:25Z</time>
      </trkpt>
      <trkpt lat="48.33792" lon="-3.64568">
        <ele>245</ele>
        <time>2021-07-08T12:14:26Z</time>
      </trkpt>
      <trkpt lat="48.33789" lon="-3.64565">
        <ele>245</ele>
        <time>2021-07-08T12:14:26Z</time>
      </trkpt>
      <trkpt lat="48.33788" lon="-3.64562">
        <ele>245</ele>
        <time>2021-07-08T12:14:28Z</time>
      </trkpt>
      <trkpt lat="48.33786" lon="-3.6456">
        <ele>245</ele>
        <time>2021-07-08T12:14:29Z</time>
      </trkpt>
      <trkpt lat="48.33784" lon="-3.64557">
        <ele>245</ele>
        <time>2021-07-08T12:14:30Z</time>
      </trkpt>
      <trkpt lat="48.33782" lon="-3.64556">
        <ele>246</ele>
        <time>2021-07-08T12:14:31Z</time>
      </trkpt>
      <trkpt lat="48.3378" lon="-3.64555">
        <ele>246</ele>
        <time>2021-07-08T12:14:32Z</time>
      </trkpt>
      <trkpt lat="48.33779" lon="-3.64553">
        <ele>246</ele>
        <time>2021-07-08T12:14:32Z</time>
      </trkpt>
      <trkpt lat="48.33777" lon="-3.64552">
        <ele>246</ele>
        <time>2021-07-08T12:14:34Z</time>
      </trkpt>
      <trkpt lat="48.33775" lon="-3.64549">
        <ele>246</ele>
        <time>2021-07-08T12:14:35Z</time>
      </trkpt>
      <trkpt lat="48.33773" lon="-3.64546">
        <ele>246</ele>
        <time>2021-07-08T12:14:36Z</time>
      </trkpt>
      <trkpt lat="48.33772" lon="-3.64542">
        <ele>246</ele>
        <time>2021-07-08T12:14:37Z</time>
      </trkpt>
      <trkpt lat="48.3377" lon="-3.64538">
        <ele>246</ele>
        <time>2021-07-08T12:14:37Z</time>
      </trkpt>
      <trkpt lat="48.33768" lon="-3.64535">
        <ele>246</ele>
        <time>2021-07-08T12:14:39Z</time>
      </trkpt>
      <trkpt lat="48.33766" lon="-3.64533">
        <ele>246</ele>
        <time>2021-07-08T12:14:40Z</time>
      </trkpt>
      <trkpt lat="48.33763" lon="-3.6453">
        <ele>246</ele>
        <time>2021-07-08T12:14:41Z</time>
      </trkpt>
      <trkpt lat="48.33761" lon="-3.64527">
        <ele>246</ele>
        <time>2021-07-08T12:14:42Z</time>
      </trkpt>
      <trkpt lat="48.33758" lon="-3.64524">
        <ele>246</ele>
        <time>2021-07-08T12:14:43Z</time>
      </trkpt>
      <trkpt lat="48.33756" lon="-3.64521">
        <ele>246</ele>
        <time>2021-07-08T12:14:44Z</time>
      </trkpt>
      <trkpt lat="48.33753" lon="-3.64518">
        <ele>246</ele>
        <time>2021-07-08T12:14:45Z</time>
      </trkpt>
      <trkpt lat="48.33751" lon="-3.64514">
        <ele>247</ele>
        <time>2021-07-08T12:14:46Z</time>
      </trkpt>
      <trkpt lat="48.33748" lon="-3.6451">
        <ele>247</ele>
        <time>2021-07-08T12:14:47Z</time>
      </trkpt>
      <trkpt lat="48.33746" lon="-3.64507">
        <ele>247</ele>
        <time>2021-07-08T12:14:48Z</time>
      </trkpt>
      <trkpt lat="48.33743" lon="-3.64503">
        <ele>247</ele>
        <time>2021-07-08T12:14:49Z</time>
      </trkpt>
      <trkpt lat="48.33741" lon="-3.64499">
        <ele>247</ele>
        <time>2021-07-08T12:14:50Z</time>
      </trkpt>
      <trkpt lat="48.33738" lon="-3.64496">
        <ele>247</ele>
        <time>2021-07-08T12:14:50Z</time>
      </trkpt>
      <trkpt lat="48.33736" lon="-3.64492">
        <ele>247</ele>
        <time>2021-07-08T12:14:51Z</time>
      </trkpt>
      <trkpt lat="48.33733" lon="-3.64488">
        <ele>247</ele>
        <time>2021-07-08T12:14:53Z</time>
      </trkpt>
      <trkpt lat="48.33731" lon="-3.64485">
        <ele>247</ele>
        <time>2021-07-08T12:14:54Z</time>
      </trkpt>
      <trkpt lat="48.33729" lon="-3.64481">
        <ele>247</ele>
        <time>2021-07-08T12:14:55Z</time>
      </trkpt>
      <trkpt lat="48.33725" lon="-3.64474">
        <ele>247</ele>
        <time>2021-07-08T12:14:56Z</time>
      </trkpt>
      <trkpt lat="48.33723" lon="-3.6447">
        <ele>247</ele>
        <time>2021-07-08T12:14:58Z</time>
      </trkpt>
      <trkpt lat="48.33721" lon="-3.64466">
        <ele>247</ele>
        <time>2021-07-08T12:14:59Z</time>
      </trkpt>
      <trkpt lat="48.33719" lon="-3.64462">
        <ele>247</ele>
        <time>2021-07-08T12:14:59Z</time>
      </trkpt>
      <trkpt lat="48.33717" lon="-3.64458">
        <ele>247</ele>
        <time>2021-07-08T12:15:01Z</time>
      </trkpt>
      <trkpt lat="48.33715" lon="-3.64455">
        <ele>247</ele>
        <time>2021-07-08T12:15:02Z</time>
      </trkpt>
      <trkpt lat="48.33714" lon="-3.64451">
        <ele>248</ele>
        <time>2021-07-08T12:15:03Z</time>
      </trkpt>
      <trkpt lat="48.33712" lon="-3.64446">
        <ele>248</ele>
        <time>2021-07-08T12:15:04Z</time>
      </trkpt>
      <trkpt lat="48.3371" lon="-3.64442">
        <ele>248</ele>
        <time>2021-07-08T12:15:05Z</time>
      </trkpt>
      <trkpt lat="48.33709" lon="-3.64438">
        <ele>248</ele>
        <time>2021-07-08T12:15:06Z</time>
      </trkpt>
      <trkpt lat="48.33707" lon="-3.64433">
        <ele>248</ele>
        <time>2021-07-08T12:15:07Z</time>
      </trkpt>
      <trkpt lat="48.33706" lon="-3.64429">
        <ele>248</ele>
        <time>2021-07-08T12:15:08Z</time>
      </trkpt>
      <trkpt lat="48.33705" lon="-3.64425">
        <ele>248</ele>
        <time>2021-07-08T12:15:09Z</time>
      </trkpt>
      <trkpt lat="48.33703" lon="-3.6442">
        <ele>248</ele>
        <time>2021-07-08T12:15:10Z</time>
      </trkpt>
      <trkpt lat="48.33701" lon="-3.64416">
        <ele>248</ele>
        <time>2021-07-08T12:15:11Z</time>
      </trkpt>
      <trkpt lat="48.337" lon="-3.64412">
        <ele>248</ele>
        <time>2021-07-08T12:15:12Z</time>
      </trkpt>
      <trkpt lat="48.33698" lon="-3.64408">
        <ele>248</ele>
        <time>2021-07-08T12:15:13Z</time>
      </trkpt>
      <trkpt lat="48.33697" lon="-3.64404">
        <ele>248</ele>
        <time>2021-07-08T12:15:14Z</time>
      </trkpt>
      <trkpt lat="48.33695" lon="-3.64399">
        <ele>248</ele>
        <time>2021-07-08T12:15:15Z</time>
      </trkpt>
      <trkpt lat="48.33694" lon="-3.64395">
        <ele>248</ele>
        <time>2021-07-08T12:15:15Z</time>
      </trkpt>
      <trkpt lat="48.33693" lon="-3.64391">
        <ele>248</ele>
        <time>2021-07-08T12:15:17Z</time>
      </trkpt>
      <trkpt lat="48.33691" lon="-3.64386">
        <ele>248</ele>
        <time>2021-07-08T12:15:18Z</time>
      </trkpt>
      <trkpt lat="48.3369" lon="-3.64382">
        <ele>248</ele>
        <time>2021-07-08T12:15:19Z</time>
      </trkpt>
      <trkpt lat="48.33689" lon="-3.64377">
        <ele>248</ele>
        <time>2021-07-08T12:15:20Z</time>
      </trkpt>
      <trkpt lat="48.33688" lon="-3.64373">
        <ele>248</ele>
        <time>2021-07-08T12:15:21Z</time>
      </trkpt>
      <trkpt lat="48.33687" lon="-3.64369">
        <ele>249</ele>
        <time>2021-07-08T12:15:22Z</time>
      </trkpt>
      <trkpt lat="48.33686" lon="-3.64364">
        <ele>249</ele>
        <time>2021-07-08T12:15:23Z</time>
      </trkpt>
      <trkpt lat="48.33685" lon="-3.6436">
        <ele>249</ele>
        <time>2021-07-08T12:15:24Z</time>
      </trkpt>
      <trkpt lat="48.33684" lon="-3.64356">
        <ele>249</ele>
        <time>2021-07-08T12:15:25Z</time>
      </trkpt>
      <trkpt lat="48.33684" lon="-3.64352">
        <ele>249</ele>
        <time>2021-07-08T12:15:26Z</time>
      </trkpt>
      <trkpt lat="48.33683" lon="-3.64348">
        <ele>249</ele>
        <time>2021-07-08T12:15:27Z</time>
      </trkpt>
      <trkpt lat="48.33683" lon="-3.64344">
        <ele>249</ele>
        <time>2021-07-08T12:15:28Z</time>
      </trkpt>
      <trkpt lat="48.33682" lon="-3.64339">
        <ele>249</ele>
        <time>2021-07-08T12:15:29Z</time>
      </trkpt>
      <trkpt lat="48.33682" lon="-3.64335">
        <ele>249</ele>
        <time>2021-07-08T12:15:30Z</time>
      </trkpt>
      <trkpt lat="48.33681" lon="-3.6433">
        <ele>249</ele>
        <time>2021-07-08T12:15:31Z</time>
      </trkpt>
      <trkpt lat="48.33681" lon="-3.64326">
        <ele>249</ele>
        <time>2021-07-08T12:15:32Z</time>
      </trkpt>
      <trkpt lat="48.3368" lon="-3.64322">
        <ele>249</ele>
        <time>2021-07-08T12:15:33Z</time>
      </trkpt>
      <trkpt lat="48.3368" lon="-3.64318">
        <ele>249</ele>
        <time>2021-07-08T12:15:34Z</time>
      </trkpt>
      <trkpt lat="48.3368" lon="-3.64313">
        <ele>249</ele>
        <time>2021-07-08T12:15:34Z</time>
      </trkpt>
      <trkpt lat="48.33679" lon="-3.64309">
        <ele>249</ele>
        <time>2021-07-08T12:15:36Z</time>
      </trkpt>
      <trkpt lat="48.33679" lon="-3.64305">
        <ele>249</ele>
        <time>2021-07-08T12:15:37Z</time>
      </trkpt>
      <trkpt lat="48.33679" lon="-3.64301">
        <ele>250</ele>
        <time>2021-07-08T12:15:38Z</time>
      </trkpt>
      <trkpt lat="48.33679" lon="-3.64296">
        <ele>250</ele>
        <time>2021-07-08T12:15:39Z</time>
      </trkpt>
      <trkpt lat="48.33678" lon="-3.64292">
        <ele>250</ele>
        <time>2021-07-08T12:15:40Z</time>
      </trkpt>
      <trkpt lat="48.33678" lon="-3.64288">
        <ele>250</ele>
        <time>2021-07-08T12:15:41Z</time>
      </trkpt>
      <trkpt lat="48.33677" lon="-3.64283">
        <ele>250</ele>
        <time>2021-07-08T12:15:42Z</time>
      </trkpt>
      <trkpt lat="48.33677" lon="-3.64279">
        <ele>250</ele>
        <time>2021-07-08T12:15:43Z</time>
      </trkpt>
      <trkpt lat="48.33677" lon="-3.64274">
        <ele>250</ele>
        <time>2021-07-08T12:15:44Z</time>
      </trkpt>
      <trkpt lat="48.33677" lon="-3.6427">
        <ele>250</ele>
        <time>2021-07-08T12:15:45Z</time>
      </trkpt>
      <trkpt lat="48.33677" lon="-3.64266">
        <ele>250</ele>
        <time>2021-07-08T12:15:46Z</time>
      </trkpt>
      <trkpt lat="48.33677" lon="-3.64262">
        <ele>250</ele>
        <time>2021-07-08T12:15:47Z</time>
      </trkpt>
      <trkpt lat="48.33677" lon="-3.64258">
        <ele>250</ele>
        <time>2021-07-08T12:15:48Z</time>
      </trkpt>
      <trkpt lat="48.33677" lon="-3.64254">
        <ele>250</ele>
        <time>2021-07-08T12:15:49Z</time>
      </trkpt>
      <trkpt lat="48.33677" lon="-3.6425">
        <ele>250</ele>
        <time>2021-07-08T12:15:50Z</time>
      </trkpt>
      <trkpt lat="48.33678" lon="-3.64246">
        <ele>250</ele>
        <time>2021-07-08T12:15:51Z</time>
      </trkpt>
      <trkpt lat="48.33678" lon="-3.64242">
        <ele>251</ele>
        <time>2021-07-08T12:15:52Z</time>
      </trkpt>
      <trkpt lat="48.33678" lon="-3.64238">
        <ele>251</ele>
        <time>2021-07-08T12:15:53Z</time>
      </trkpt>
      <trkpt lat="48.33678" lon="-3.64235">
        <ele>252</ele>
        <time>2021-07-08T12:15:53Z</time>
      </trkpt>
      <trkpt lat="48.33678" lon="-3.64232">
        <ele>252</ele>
        <time>2021-07-08T12:15:55Z</time>
      </trkpt>
      <trkpt lat="48.33678" lon="-3.64228">
        <ele>252</ele>
        <time>2021-07-08T12:15:57Z</time>
      </trkpt>
      <trkpt lat="48.33678" lon="-3.64223">
        <ele>252</ele>
        <time>2021-07-08T12:15:59Z</time>
      </trkpt>
      <trkpt lat="48.33678" lon="-3.6422">
        <ele>252</ele>
        <time>2021-07-08T12:16:00Z</time>
      </trkpt>
      <trkpt lat="48.33679" lon="-3.64216">
        <ele>252</ele>
        <time>2021-07-08T12:16:01Z</time>
      </trkpt>
      <trkpt lat="48.33679" lon="-3.64213">
        <ele>252</ele>
        <time>2021-07-08T12:16:02Z</time>
      </trkpt>
      <trkpt lat="48.3368" lon="-3.64209">
        <ele>252</ele>
        <time>2021-07-08T12:16:03Z</time>
      </trkpt>
      <trkpt lat="48.3368" lon="-3.64205">
        <ele>252</ele>
        <time>2021-07-08T12:16:04Z</time>
      </trkpt>
      <trkpt lat="48.3368" lon="-3.642">
        <ele>252</ele>
        <time>2021-07-08T12:16:05Z</time>
      </trkpt>
      <trkpt lat="48.3368" lon="-3.64196">
        <ele>252</ele>
        <time>2021-07-08T12:16:06Z</time>
      </trkpt>
      <trkpt lat="48.33681" lon="-3.64191">
        <ele>252</ele>
        <time>2021-07-08T12:16:07Z</time>
      </trkpt>
      <trkpt lat="48.33681" lon="-3.64186">
        <ele>252</ele>
        <time>2021-07-08T12:16:08Z</time>
      </trkpt>
      <trkpt lat="48.33681" lon="-3.64181">
        <ele>252</ele>
        <time>2021-07-08T12:16:09Z</time>
      </trkpt>
      <trkpt lat="48.33681" lon="-3.64176">
        <ele>252</ele>
        <time>2021-07-08T12:16:10Z</time>
      </trkpt>
      <trkpt lat="48.33682" lon="-3.64171">
        <ele>252</ele>
        <time>2021-07-08T12:16:11Z</time>
      </trkpt>
      <trkpt lat="48.33683" lon="-3.64161">
        <ele>252</ele>
        <time>2021-07-08T12:16:13Z</time>
      </trkpt>
      <trkpt lat="48.33684" lon="-3.64156">
        <ele>252</ele>
        <time>2021-07-08T12:16:14Z</time>
      </trkpt>
      <trkpt lat="48.33684" lon="-3.64151">
        <ele>252</ele>
        <time>2021-07-08T12:16:15Z</time>
      </trkpt>
      <trkpt lat="48.33684" lon="-3.64146">
        <ele>252</ele>
        <time>2021-07-08T12:16:16Z</time>
      </trkpt>
      <trkpt lat="48.33685" lon="-3.64141">
        <ele>252</ele>
        <time>2021-07-08T12:16:17Z</time>
      </trkpt>
      <trkpt lat="48.33685" lon="-3.64136">
        <ele>252</ele>
        <time>2021-07-08T12:16:18Z</time>
      </trkpt>
      <trkpt lat="48.33685" lon="-3.64131">
        <ele>252</ele>
        <time>2021-07-08T12:16:19Z</time>
      </trkpt>
      <trkpt lat="48.33685" lon="-3.64126">
        <ele>252</ele>
        <time>2021-07-08T12:16:20Z</time>
      </trkpt>
      <trkpt lat="48.33686" lon="-3.64121">
        <ele>252</ele>
        <time>2021-07-08T12:16:21Z</time>
      </trkpt>
      <trkpt lat="48.33686" lon="-3.64116">
        <ele>252</ele>
        <time>2021-07-08T12:16:22Z</time>
      </trkpt>
      <trkpt lat="48.33686" lon="-3.64111">
        <ele>252</ele>
        <time>2021-07-08T12:16:23Z</time>
      </trkpt>
      <trkpt lat="48.33687" lon="-3.64106">
        <ele>252</ele>
        <time>2021-07-08T12:16:24Z</time>
      </trkpt>
      <trkpt lat="48.33687" lon="-3.64101">
        <ele>253</ele>
        <time>2021-07-08T12:16:25Z</time>
      </trkpt>
      <trkpt lat="48.33687" lon="-3.64096">
        <ele>253</ele>
        <time>2021-07-08T12:16:26Z</time>
      </trkpt>
      <trkpt lat="48.33688" lon="-3.64092">
        <ele>253</ele>
        <time>2021-07-08T12:16:27Z</time>
      </trkpt>
      <trkpt lat="48.33688" lon="-3.64087">
        <ele>253</ele>
        <time>2021-07-08T12:16:28Z</time>
      </trkpt>
      <trkpt lat="48.33688" lon="-3.64082">
        <ele>253</ele>
        <time>2021-07-08T12:16:29Z</time>
      </trkpt>
      <trkpt lat="48.33689" lon="-3.64077">
        <ele>253</ele>
        <time>2021-07-08T12:16:30Z</time>
      </trkpt>
      <trkpt lat="48.33689" lon="-3.64072">
        <ele>253</ele>
        <time>2021-07-08T12:16:31Z</time>
      </trkpt>
      <trkpt lat="48.3369" lon="-3.64067">
        <ele>253</ele>
        <time>2021-07-08T12:16:31Z</time>
      </trkpt>
      <trkpt lat="48.3369" lon="-3.64062">
        <ele>253</ele>
        <time>2021-07-08T12:16:32Z</time>
      </trkpt>
      <trkpt lat="48.3369" lon="-3.64058">
        <ele>254</ele>
        <time>2021-07-08T12:16:34Z</time>
      </trkpt>
      <trkpt lat="48.33691" lon="-3.64053">
        <ele>254</ele>
        <time>2021-07-08T12:16:35Z</time>
      </trkpt>
      <trkpt lat="48.33691" lon="-3.64048">
        <ele>254</ele>
        <time>2021-07-08T12:16:36Z</time>
      </trkpt>
      <trkpt lat="48.33691" lon="-3.64043">
        <ele>254</ele>
        <time>2021-07-08T12:16:37Z</time>
      </trkpt>
      <trkpt lat="48.33692" lon="-3.64039">
        <ele>254</ele>
        <time>2021-07-08T12:16:38Z</time>
      </trkpt>
      <trkpt lat="48.33692" lon="-3.64034">
        <ele>254</ele>
        <time>2021-07-08T12:16:39Z</time>
      </trkpt>
      <trkpt lat="48.33693" lon="-3.64029">
        <ele>254</ele>
        <time>2021-07-08T12:16:40Z</time>
      </trkpt>
      <trkpt lat="48.33693" lon="-3.64024">
        <ele>254</ele>
        <time>2021-07-08T12:16:41Z</time>
      </trkpt>
      <trkpt lat="48.33693" lon="-3.64019">
        <ele>254</ele>
        <time>2021-07-08T12:16:42Z</time>
      </trkpt>
      <trkpt lat="48.33694" lon="-3.64015">
        <ele>254</ele>
        <time>2021-07-08T12:16:43Z</time>
      </trkpt>
      <trkpt lat="48.33694" lon="-3.6401">
        <ele>254</ele>
        <time>2021-07-08T12:16:44Z</time>
      </trkpt>
      <trkpt lat="48.33695" lon="-3.64005">
        <ele>254</ele>
        <time>2021-07-08T12:16:45Z</time>
      </trkpt>
      <trkpt lat="48.33696" lon="-3.64">
        <ele>254</ele>
        <time>2021-07-08T12:16:46Z</time>
      </trkpt>
      <trkpt lat="48.33696" lon="-3.63996">
        <ele>254</ele>
        <time>2021-07-08T12:16:47Z</time>
      </trkpt>
      <trkpt lat="48.33696" lon="-3.63991">
        <ele>254</ele>
        <time>2021-07-08T12:16:48Z</time>
      </trkpt>
      <trkpt lat="48.33697" lon="-3.63986">
        <ele>254</ele>
        <time>2021-07-08T12:16:49Z</time>
      </trkpt>
      <trkpt lat="48.33697" lon="-3.63982">
        <ele>254</ele>
        <time>2021-07-08T12:16:50Z</time>
      </trkpt>
      <trkpt lat="48.33698" lon="-3.63977">
        <ele>254</ele>
        <time>2021-07-08T12:16:50Z</time>
      </trkpt>
      <trkpt lat="48.33698" lon="-3.63972">
        <ele>254</ele>
        <time>2021-07-08T12:16:52Z</time>
      </trkpt>
      <trkpt lat="48.33698" lon="-3.63967">
        <ele>254</ele>
        <time>2021-07-08T12:16:53Z</time>
      </trkpt>
      <trkpt lat="48.33699" lon="-3.63963">
        <ele>254</ele>
        <time>2021-07-08T12:16:54Z</time>
      </trkpt>
      <trkpt lat="48.33699" lon="-3.63958">
        <ele>254</ele>
        <time>2021-07-08T12:16:55Z</time>
      </trkpt>
      <trkpt lat="48.33698" lon="-3.63953">
        <ele>254</ele>
        <time>2021-07-08T12:16:56Z</time>
      </trkpt>
      <trkpt lat="48.33698" lon="-3.63948">
        <ele>255</ele>
        <time>2021-07-08T12:16:57Z</time>
      </trkpt>
      <trkpt lat="48.33698" lon="-3.63943">
        <ele>255</ele>
        <time>2021-07-08T12:16:58Z</time>
      </trkpt>
      <trkpt lat="48.33698" lon="-3.63939">
        <ele>255</ele>
        <time>2021-07-08T12:16:59Z</time>
      </trkpt>
      <trkpt lat="48.33698" lon="-3.63934">
        <ele>255</ele>
        <time>2021-07-08T12:17:00Z</time>
      </trkpt>
      <trkpt lat="48.33698" lon="-3.6393">
        <ele>255</ele>
        <time>2021-07-08T12:17:01Z</time>
      </trkpt>
      <trkpt lat="48.33698" lon="-3.63925">
        <ele>255</ele>
        <time>2021-07-08T12:17:02Z</time>
      </trkpt>
      <trkpt lat="48.33697" lon="-3.6392">
        <ele>255</ele>
        <time>2021-07-08T12:17:03Z</time>
      </trkpt>
      <trkpt lat="48.33697" lon="-3.63916">
        <ele>255</ele>
        <time>2021-07-08T12:17:04Z</time>
      </trkpt>
      <trkpt lat="48.33697" lon="-3.63911">
        <ele>255</ele>
        <time>2021-07-08T12:17:05Z</time>
      </trkpt>
      <trkpt lat="48.33696" lon="-3.63907">
        <ele>255</ele>
        <time>2021-07-08T12:17:06Z</time>
      </trkpt>
      <trkpt lat="48.33696" lon="-3.63902">
        <ele>256</ele>
        <time>2021-07-08T12:17:07Z</time>
      </trkpt>
      <trkpt lat="48.33695" lon="-3.63898">
        <ele>256</ele>
        <time>2021-07-08T12:17:08Z</time>
      </trkpt>
      <trkpt lat="48.33695" lon="-3.63893">
        <ele>256</ele>
        <time>2021-07-08T12:17:09Z</time>
      </trkpt>
      <trkpt lat="48.33694" lon="-3.63889">
        <ele>256</ele>
        <time>2021-07-08T12:17:09Z</time>
      </trkpt>
      <trkpt lat="48.33693" lon="-3.63884">
        <ele>256</ele>
        <time>2021-07-08T12:17:11Z</time>
      </trkpt>
      <trkpt lat="48.33692" lon="-3.63879">
        <ele>256</ele>
        <time>2021-07-08T12:17:12Z</time>
      </trkpt>
      <trkpt lat="48.3369" lon="-3.63873">
        <ele>256</ele>
        <time>2021-07-08T12:17:13Z</time>
      </trkpt>
      <trkpt lat="48.33689" lon="-3.63867">
        <ele>256</ele>
        <time>2021-07-08T12:17:14Z</time>
      </trkpt>
      <trkpt lat="48.33688" lon="-3.63862">
        <ele>256</ele>
        <time>2021-07-08T12:17:15Z</time>
      </trkpt>
      <trkpt lat="48.33687" lon="-3.63856">
        <ele>256</ele>
        <time>2021-07-08T12:17:16Z</time>
      </trkpt>
      <trkpt lat="48.33686" lon="-3.63851">
        <ele>257</ele>
        <time>2021-07-08T12:17:17Z</time>
      </trkpt>
      <trkpt lat="48.33685" lon="-3.63846">
        <ele>257</ele>
        <time>2021-07-08T12:17:18Z</time>
      </trkpt>
      <trkpt lat="48.33684" lon="-3.63842">
        <ele>257</ele>
        <time>2021-07-08T12:17:19Z</time>
      </trkpt>
      <trkpt lat="48.33683" lon="-3.63837">
        <ele>257</ele>
        <time>2021-07-08T12:17:20Z</time>
      </trkpt>
      <trkpt lat="48.33682" lon="-3.63833">
        <ele>257</ele>
        <time>2021-07-08T12:17:20Z</time>
      </trkpt>
      <trkpt lat="48.33681" lon="-3.63829">
        <ele>257</ele>
        <time>2021-07-08T12:17:22Z</time>
      </trkpt>
      <trkpt lat="48.33679" lon="-3.63825">
        <ele>257</ele>
        <time>2021-07-08T12:17:23Z</time>
      </trkpt>
      <trkpt lat="48.33678" lon="-3.6382">
        <ele>258</ele>
        <time>2021-07-08T12:17:24Z</time>
      </trkpt>
      <trkpt lat="48.33676" lon="-3.63815">
        <ele>258</ele>
        <time>2021-07-08T12:17:25Z</time>
      </trkpt>
      <trkpt lat="48.33674" lon="-3.6381">
        <ele>258</ele>
        <time>2021-07-08T12:17:26Z</time>
      </trkpt>
      <trkpt lat="48.33671" lon="-3.63805">
        <ele>258</ele>
        <time>2021-07-08T12:17:27Z</time>
      </trkpt>
      <trkpt lat="48.33669" lon="-3.638">
        <ele>258</ele>
        <time>2021-07-08T12:17:28Z</time>
      </trkpt>
      <trkpt lat="48.33667" lon="-3.63795">
        <ele>258</ele>
        <time>2021-07-08T12:17:28Z</time>
      </trkpt>
      <trkpt lat="48.33665" lon="-3.63791">
        <ele>258</ele>
        <time>2021-07-08T12:17:30Z</time>
      </trkpt>
      <trkpt lat="48.33663" lon="-3.63786">
        <ele>258</ele>
        <time>2021-07-08T12:17:31Z</time>
      </trkpt>
      <trkpt lat="48.33661" lon="-3.63781">
        <ele>258</ele>
        <time>2021-07-08T12:17:32Z</time>
      </trkpt>
      <trkpt lat="48.33659" lon="-3.63777">
        <ele>258</ele>
        <time>2021-07-08T12:17:33Z</time>
      </trkpt>
      <trkpt lat="48.33657" lon="-3.63772">
        <ele>258</ele>
        <time>2021-07-08T12:17:33Z</time>
      </trkpt>
      <trkpt lat="48.33655" lon="-3.63768">
        <ele>258</ele>
        <time>2021-07-08T12:17:35Z</time>
      </trkpt>
      <trkpt lat="48.33653" lon="-3.63763">
        <ele>258</ele>
        <time>2021-07-08T12:17:36Z</time>
      </trkpt>
      <trkpt lat="48.33651" lon="-3.63758">
        <ele>258</ele>
        <time>2021-07-08T12:17:37Z</time>
      </trkpt>
      <trkpt lat="48.3365" lon="-3.63754">
        <ele>259</ele>
        <time>2021-07-08T12:17:38Z</time>
      </trkpt>
      <trkpt lat="48.33648" lon="-3.63749">
        <ele>259</ele>
        <time>2021-07-08T12:17:39Z</time>
      </trkpt>
      <trkpt lat="48.33645" lon="-3.63744">
        <ele>259</ele>
        <time>2021-07-08T12:17:40Z</time>
      </trkpt>
      <trkpt lat="48.33643" lon="-3.6374">
        <ele>258</ele>
        <time>2021-07-08T12:17:41Z</time>
      </trkpt>
      <trkpt lat="48.33641" lon="-3.63735">
        <ele>258</ele>
        <time>2021-07-08T12:17:42Z</time>
      </trkpt>
      <trkpt lat="48.3364" lon="-3.6373">
        <ele>258</ele>
        <time>2021-07-08T12:17:43Z</time>
      </trkpt>
      <trkpt lat="48.33638" lon="-3.63726">
        <ele>258</ele>
        <time>2021-07-08T12:17:45Z</time>
      </trkpt>
      <trkpt lat="48.33636" lon="-3.63721">
        <ele>258</ele>
        <time>2021-07-08T12:17:45Z</time>
      </trkpt>
      <trkpt lat="48.33634" lon="-3.63716">
        <ele>258</ele>
        <time>2021-07-08T12:17:46Z</time>
      </trkpt>
      <trkpt lat="48.33632" lon="-3.63711">
        <ele>258</ele>
        <time>2021-07-08T12:17:47Z</time>
      </trkpt>
      <trkpt lat="48.3363" lon="-3.63707">
        <ele>258</ele>
        <time>2021-07-08T12:17:47Z</time>
      </trkpt>
      <trkpt lat="48.33628" lon="-3.63702">
        <ele>258</ele>
        <time>2021-07-08T12:17:49Z</time>
      </trkpt>
      <trkpt lat="48.33626" lon="-3.63697">
        <ele>258</ele>
        <time>2021-07-08T12:17:50Z</time>
      </trkpt>
      <trkpt lat="48.33624" lon="-3.63692">
        <ele>258</ele>
        <time>2021-07-08T12:17:51Z</time>
      </trkpt>
      <trkpt lat="48.33623" lon="-3.63687">
        <ele>258</ele>
        <time>2021-07-08T12:17:51Z</time>
      </trkpt>
      <trkpt lat="48.33621" lon="-3.63683">
        <ele>258</ele>
        <time>2021-07-08T12:17:53Z</time>
      </trkpt>
      <trkpt lat="48.33619" lon="-3.63679">
        <ele>258</ele>
        <time>2021-07-08T12:17:54Z</time>
      </trkpt>
      <trkpt lat="48.33617" lon="-3.63675">
        <ele>258</ele>
        <time>2021-07-08T12:17:55Z</time>
      </trkpt>
      <trkpt lat="48.33615" lon="-3.63672">
        <ele>258</ele>
        <time>2021-07-08T12:17:56Z</time>
      </trkpt>
      <trkpt lat="48.33613" lon="-3.63669">
        <ele>258</ele>
        <time>2021-07-08T12:17:57Z</time>
      </trkpt>
      <trkpt lat="48.33611" lon="-3.63666">
        <ele>258</ele>
        <time>2021-07-08T12:17:58Z</time>
      </trkpt>
      <trkpt lat="48.33609" lon="-3.63664">
        <ele>258</ele>
        <time>2021-07-08T12:17:58Z</time>
      </trkpt>
      <trkpt lat="48.33606" lon="-3.63662">
        <ele>258</ele>
        <time>2021-07-08T12:18:01Z</time>
      </trkpt>
      <trkpt lat="48.33604" lon="-3.63662">
        <ele>259</ele>
        <time>2021-07-08T12:18:02Z</time>
      </trkpt>
      <trkpt lat="48.33601" lon="-3.63661">
        <ele>259</ele>
        <time>2021-07-08T12:18:03Z</time>
      </trkpt>
      <trkpt lat="48.33599" lon="-3.6366">
        <ele>259</ele>
        <time>2021-07-08T12:18:04Z</time>
      </trkpt>
      <trkpt lat="48.33596" lon="-3.63658">
        <ele>259</ele>
        <time>2021-07-08T12:18:05Z</time>
      </trkpt>
      <trkpt lat="48.33592" lon="-3.63656">
        <ele>259</ele>
        <time>2021-07-08T12:18:06Z</time>
      </trkpt>
      <trkpt lat="48.33589" lon="-3.63652">
        <ele>259</ele>
        <time>2021-07-08T12:18:06Z</time>
      </trkpt>
      <trkpt lat="48.33586" lon="-3.63647">
        <ele>258</ele>
        <time>2021-07-08T12:18:08Z</time>
      </trkpt>
      <trkpt lat="48.33583" lon="-3.63643">
        <ele>258</ele>
        <time>2021-07-08T12:18:09Z</time>
      </trkpt>
      <trkpt lat="48.33581" lon="-3.63637">
        <ele>258</ele>
        <time>2021-07-08T12:18:10Z</time>
      </trkpt>
      <trkpt lat="48.33578" lon="-3.63632">
        <ele>258</ele>
        <time>2021-07-08T12:18:11Z</time>
      </trkpt>
      <trkpt lat="48.33576" lon="-3.63627">
        <ele>258</ele>
        <time>2021-07-08T12:18:12Z</time>
      </trkpt>
      <trkpt lat="48.33572" lon="-3.63622">
        <ele>258</ele>
        <time>2021-07-08T12:18:13Z</time>
      </trkpt>
      <trkpt lat="48.3357" lon="-3.63617">
        <ele>258</ele>
        <time>2021-07-08T12:18:14Z</time>
      </trkpt>
      <trkpt lat="48.33567" lon="-3.63612">
        <ele>258</ele>
        <time>2021-07-08T12:18:15Z</time>
      </trkpt>
      <trkpt lat="48.33564" lon="-3.63606">
        <ele>258</ele>
        <time>2021-07-08T12:18:16Z</time>
      </trkpt>
      <trkpt lat="48.33562" lon="-3.63601">
        <ele>258</ele>
        <time>2021-07-08T12:18:17Z</time>
      </trkpt>
      <trkpt lat="48.3356" lon="-3.63596">
        <ele>258</ele>
        <time>2021-07-08T12:18:18Z</time>
      </trkpt>
      <trkpt lat="48.33558" lon="-3.63591">
        <ele>258</ele>
        <time>2021-07-08T12:18:19Z</time>
      </trkpt>
      <trkpt lat="48.33556" lon="-3.63586">
        <ele>258</ele>
        <time>2021-07-08T12:18:20Z</time>
      </trkpt>
      <trkpt lat="48.33554" lon="-3.63581">
        <ele>258</ele>
        <time>2021-07-08T12:18:21Z</time>
      </trkpt>
      <trkpt lat="48.33552" lon="-3.63576">
        <ele>258</ele>
        <time>2021-07-08T12:18:22Z</time>
      </trkpt>
      <trkpt lat="48.3355" lon="-3.63571">
        <ele>258</ele>
        <time>2021-07-08T12:18:23Z</time>
      </trkpt>
      <trkpt lat="48.33548" lon="-3.63565">
        <ele>258</ele>
        <time>2021-07-08T12:18:24Z</time>
      </trkpt>
      <trkpt lat="48.33546" lon="-3.6356">
        <ele>258</ele>
        <time>2021-07-08T12:18:24Z</time>
      </trkpt>
      <trkpt lat="48.33544" lon="-3.63555">
        <ele>258</ele>
        <time>2021-07-08T12:18:26Z</time>
      </trkpt>
      <trkpt lat="48.33542" lon="-3.63551">
        <ele>258</ele>
        <time>2021-07-08T12:18:27Z</time>
      </trkpt>
      <trkpt lat="48.3354" lon="-3.63546">
        <ele>258</ele>
        <time>2021-07-08T12:18:28Z</time>
      </trkpt>
      <trkpt lat="48.33538" lon="-3.63541">
        <ele>258</ele>
        <time>2021-07-08T12:18:29Z</time>
      </trkpt>
      <trkpt lat="48.33536" lon="-3.63536">
        <ele>258</ele>
        <time>2021-07-08T12:18:30Z</time>
      </trkpt>
      <trkpt lat="48.33534" lon="-3.63531">
        <ele>257</ele>
        <time>2021-07-08T12:18:31Z</time>
      </trkpt>
      <trkpt lat="48.33533" lon="-3.63526">
        <ele>257</ele>
        <time>2021-07-08T12:18:32Z</time>
      </trkpt>
      <trkpt lat="48.33531" lon="-3.63522">
        <ele>259</ele>
        <time>2021-07-08T12:18:33Z</time>
      </trkpt>
      <trkpt lat="48.33529" lon="-3.63517">
        <ele>259</ele>
        <time>2021-07-08T12:18:34Z</time>
      </trkpt>
      <trkpt lat="48.33527" lon="-3.63513">
        <ele>259</ele>
        <time>2021-07-08T12:18:35Z</time>
      </trkpt>
      <trkpt lat="48.33526" lon="-3.63508">
        <ele>259</ele>
        <time>2021-07-08T12:18:36Z</time>
      </trkpt>
      <trkpt lat="48.33524" lon="-3.63504">
        <ele>259</ele>
        <time>2021-07-08T12:18:37Z</time>
      </trkpt>
      <trkpt lat="48.33522" lon="-3.635">
        <ele>259</ele>
        <time>2021-07-08T12:18:38Z</time>
      </trkpt>
      <trkpt lat="48.3352" lon="-3.63496">
        <ele>260</ele>
        <time>2021-07-08T12:18:39Z</time>
      </trkpt>
      <trkpt lat="48.33519" lon="-3.63491">
        <ele>260</ele>
        <time>2021-07-08T12:18:40Z</time>
      </trkpt>
      <trkpt lat="48.33518" lon="-3.63487">
        <ele>260</ele>
        <time>2021-07-08T12:18:41Z</time>
      </trkpt>
      <trkpt lat="48.33517" lon="-3.63483">
        <ele>260</ele>
        <time>2021-07-08T12:18:42Z</time>
      </trkpt>
      <trkpt lat="48.33517" lon="-3.63479">
        <ele>260</ele>
        <time>2021-07-08T12:18:43Z</time>
      </trkpt>
      <trkpt lat="48.33516" lon="-3.63475">
        <ele>260</ele>
        <time>2021-07-08T12:18:44Z</time>
      </trkpt>
      <trkpt lat="48.33515" lon="-3.6347">
        <ele>260</ele>
        <time>2021-07-08T12:18:44Z</time>
      </trkpt>
      <trkpt lat="48.33514" lon="-3.63466">
        <ele>260</ele>
        <time>2021-07-08T12:18:46Z</time>
      </trkpt>
      <trkpt lat="48.33513" lon="-3.63461">
        <ele>260</ele>
        <time>2021-07-08T12:18:47Z</time>
      </trkpt>
      <trkpt lat="48.33512" lon="-3.63456">
        <ele>261</ele>
        <time>2021-07-08T12:18:48Z</time>
      </trkpt>
      <trkpt lat="48.3351" lon="-3.6345">
        <ele>261</ele>
        <time>2021-07-08T12:18:49Z</time>
      </trkpt>
      <trkpt lat="48.33509" lon="-3.63445">
        <ele>261</ele>
        <time>2021-07-08T12:18:49Z</time>
      </trkpt>
      <trkpt lat="48.33507" lon="-3.63439">
        <ele>260</ele>
        <time>2021-07-08T12:18:51Z</time>
      </trkpt>
      <trkpt lat="48.33505" lon="-3.63434">
        <ele>260</ele>
        <time>2021-07-08T12:18:52Z</time>
      </trkpt>
      <trkpt lat="48.33503" lon="-3.63428">
        <ele>260</ele>
        <time>2021-07-08T12:18:53Z</time>
      </trkpt>
      <trkpt lat="48.33501" lon="-3.63423">
        <ele>260</ele>
        <time>2021-07-08T12:18:54Z</time>
      </trkpt>
      <trkpt lat="48.335" lon="-3.63417">
        <ele>260</ele>
        <time>2021-07-08T12:18:55Z</time>
      </trkpt>
      <trkpt lat="48.33498" lon="-3.63411">
        <ele>260</ele>
        <time>2021-07-08T12:18:56Z</time>
      </trkpt>
      <trkpt lat="48.33496" lon="-3.63406">
        <ele>260</ele>
        <time>2021-07-08T12:18:57Z</time>
      </trkpt>
      <trkpt lat="48.33495" lon="-3.634">
        <ele>259</ele>
        <time>2021-07-08T12:18:58Z</time>
      </trkpt>
      <trkpt lat="48.33493" lon="-3.63394">
        <ele>259</ele>
        <time>2021-07-08T12:18:59Z</time>
      </trkpt>
      <trkpt lat="48.33491" lon="-3.63388">
        <ele>259</ele>
        <time>2021-07-08T12:19:00Z</time>
      </trkpt>
      <trkpt lat="48.3349" lon="-3.63382">
        <ele>259</ele>
        <time>2021-07-08T12:19:01Z</time>
      </trkpt>
      <trkpt lat="48.33489" lon="-3.63376">
        <ele>259</ele>
        <time>2021-07-08T12:19:02Z</time>
      </trkpt>
      <trkpt lat="48.33488" lon="-3.6337">
        <ele>259</ele>
        <time>2021-07-08T12:19:03Z</time>
      </trkpt>
      <trkpt lat="48.33487" lon="-3.63364">
        <ele>259</ele>
        <time>2021-07-08T12:19:03Z</time>
      </trkpt>
      <trkpt lat="48.33486" lon="-3.63358">
        <ele>259</ele>
        <time>2021-07-08T12:19:05Z</time>
      </trkpt>
      <trkpt lat="48.33484" lon="-3.63352">
        <ele>259</ele>
        <time>2021-07-08T12:19:06Z</time>
      </trkpt>
      <trkpt lat="48.33482" lon="-3.63346">
        <ele>259</ele>
        <time>2021-07-08T12:19:07Z</time>
      </trkpt>
      <trkpt lat="48.3348" lon="-3.6334">
        <ele>259</ele>
        <time>2021-07-08T12:19:08Z</time>
      </trkpt>
      <trkpt lat="48.33478" lon="-3.63335">
        <ele>259</ele>
        <time>2021-07-08T12:19:09Z</time>
      </trkpt>
      <trkpt lat="48.33476" lon="-3.63329">
        <ele>259</ele>
        <time>2021-07-08T12:19:10Z</time>
      </trkpt>
      <trkpt lat="48.33473" lon="-3.63323">
        <ele>259</ele>
        <time>2021-07-08T12:19:11Z</time>
      </trkpt>
      <trkpt lat="48.33469" lon="-3.63318">
        <ele>259</ele>
        <time>2021-07-08T12:19:12Z</time>
      </trkpt>
      <trkpt lat="48.33466" lon="-3.63312">
        <ele>259</ele>
        <time>2021-07-08T12:19:13Z</time>
      </trkpt>
      <trkpt lat="48.33463" lon="-3.63306">
        <ele>259</ele>
        <time>2021-07-08T12:19:14Z</time>
      </trkpt>
      <trkpt lat="48.33461" lon="-3.63301">
        <ele>258</ele>
        <time>2021-07-08T12:19:15Z</time>
      </trkpt>
      <trkpt lat="48.33458" lon="-3.63295">
        <ele>258</ele>
        <time>2021-07-08T12:19:16Z</time>
      </trkpt>
      <trkpt lat="48.33456" lon="-3.6329">
        <ele>258</ele>
        <time>2021-07-08T12:19:17Z</time>
      </trkpt>
      <trkpt lat="48.33455" lon="-3.63284">
        <ele>258</ele>
        <time>2021-07-08T12:19:18Z</time>
      </trkpt>
      <trkpt lat="48.33453" lon="-3.63279">
        <ele>258</ele>
        <time>2021-07-08T12:19:19Z</time>
      </trkpt>
      <trkpt lat="48.33451" lon="-3.63273">
        <ele>258</ele>
        <time>2021-07-08T12:19:20Z</time>
      </trkpt>
      <trkpt lat="48.33449" lon="-3.63268">
        <ele>258</ele>
        <time>2021-07-08T12:19:21Z</time>
      </trkpt>
      <trkpt lat="48.33447" lon="-3.63262">
        <ele>258</ele>
        <time>2021-07-08T12:19:22Z</time>
      </trkpt>
      <trkpt lat="48.33445" lon="-3.63257">
        <ele>258</ele>
        <time>2021-07-08T12:19:22Z</time>
      </trkpt>
      <trkpt lat="48.33443" lon="-3.63251">
        <ele>258</ele>
        <time>2021-07-08T12:19:24Z</time>
      </trkpt>
      <trkpt lat="48.3344" lon="-3.63246">
        <ele>258</ele>
        <time>2021-07-08T12:19:25Z</time>
      </trkpt>
      <trkpt lat="48.33437" lon="-3.63241">
        <ele>258</ele>
        <time>2021-07-08T12:19:26Z</time>
      </trkpt>
      <trkpt lat="48.33435" lon="-3.63235">
        <ele>258</ele>
        <time>2021-07-08T12:19:27Z</time>
      </trkpt>
      <trkpt lat="48.33432" lon="-3.6323">
        <ele>258</ele>
        <time>2021-07-08T12:19:28Z</time>
      </trkpt>
      <trkpt lat="48.3343" lon="-3.63225">
        <ele>258</ele>
        <time>2021-07-08T12:19:29Z</time>
      </trkpt>
      <trkpt lat="48.33427" lon="-3.6322">
        <ele>258</ele>
        <time>2021-07-08T12:19:30Z</time>
      </trkpt>
      <trkpt lat="48.33425" lon="-3.63215">
        <ele>258</ele>
        <time>2021-07-08T12:19:31Z</time>
      </trkpt>
      <trkpt lat="48.33422" lon="-3.63209">
        <ele>258</ele>
        <time>2021-07-08T12:19:32Z</time>
      </trkpt>
      <trkpt lat="48.3342" lon="-3.63204">
        <ele>258</ele>
        <time>2021-07-08T12:19:33Z</time>
      </trkpt>
      <trkpt lat="48.33419" lon="-3.63199">
        <ele>258</ele>
        <time>2021-07-08T12:19:34Z</time>
      </trkpt>
      <trkpt lat="48.33417" lon="-3.63194">
        <ele>258</ele>
        <time>2021-07-08T12:19:35Z</time>
      </trkpt>
      <trkpt lat="48.33415" lon="-3.63189">
        <ele>258</ele>
        <time>2021-07-08T12:19:36Z</time>
      </trkpt>
      <trkpt lat="48.33413" lon="-3.63184">
        <ele>258</ele>
        <time>2021-07-08T12:19:37Z</time>
      </trkpt>
      <trkpt lat="48.33411" lon="-3.63179">
        <ele>258</ele>
        <time>2021-07-08T12:19:38Z</time>
      </trkpt>
      <trkpt lat="48.33409" lon="-3.63174">
        <ele>258</ele>
        <time>2021-07-08T12:19:39Z</time>
      </trkpt>
      <trkpt lat="48.33407" lon="-3.6317">
        <ele>258</ele>
        <time>2021-07-08T12:19:40Z</time>
      </trkpt>
      <trkpt lat="48.33405" lon="-3.63166">
        <ele>258</ele>
        <time>2021-07-08T12:19:41Z</time>
      </trkpt>
      <trkpt lat="48.33403" lon="-3.63162">
        <ele>258</ele>
        <time>2021-07-08T12:19:41Z</time>
      </trkpt>
      <trkpt lat="48.33401" lon="-3.63158">
        <ele>258</ele>
        <time>2021-07-08T12:19:43Z</time>
      </trkpt>
      <trkpt lat="48.33399" lon="-3.63153">
        <ele>259</ele>
        <time>2021-07-08T12:19:44Z</time>
      </trkpt>
      <trkpt lat="48.33398" lon="-3.63148">
        <ele>259</ele>
        <time>2021-07-08T12:19:45Z</time>
      </trkpt>
      <trkpt lat="48.33396" lon="-3.63144">
        <ele>259</ele>
        <time>2021-07-08T12:19:46Z</time>
      </trkpt>
      <trkpt lat="48.33395" lon="-3.6314">
        <ele>259</ele>
        <time>2021-07-08T12:19:47Z</time>
      </trkpt>
      <trkpt lat="48.33393" lon="-3.63136">
        <ele>259</ele>
        <time>2021-07-08T12:19:48Z</time>
      </trkpt>
      <trkpt lat="48.33391" lon="-3.63131">
        <ele>259</ele>
        <time>2021-07-08T12:19:49Z</time>
      </trkpt>
      <trkpt lat="48.33389" lon="-3.63127">
        <ele>259</ele>
        <time>2021-07-08T12:19:50Z</time>
      </trkpt>
      <trkpt lat="48.33388" lon="-3.63123">
        <ele>259</ele>
        <time>2021-07-08T12:19:51Z</time>
      </trkpt>
      <trkpt lat="48.33386" lon="-3.63119">
        <ele>259</ele>
        <time>2021-07-08T12:19:52Z</time>
      </trkpt>
      <trkpt lat="48.33384" lon="-3.63115">
        <ele>259</ele>
        <time>2021-07-08T12:19:52Z</time>
      </trkpt>
      <trkpt lat="48.33382" lon="-3.63112">
        <ele>259</ele>
        <time>2021-07-08T12:19:54Z</time>
      </trkpt>
      <trkpt lat="48.3338" lon="-3.63108">
        <ele>259</ele>
        <time>2021-07-08T12:19:55Z</time>
      </trkpt>
      <trkpt lat="48.33375" lon="-3.63101">
        <ele>259</ele>
        <time>2021-07-08T12:19:56Z</time>
      </trkpt>
      <trkpt lat="48.33373" lon="-3.63096">
        <ele>259</ele>
        <time>2021-07-08T12:19:58Z</time>
      </trkpt>
      <trkpt lat="48.33371" lon="-3.63092">
        <ele>259</ele>
        <time>2021-07-08T12:19:59Z</time>
      </trkpt>
      <trkpt lat="48.33367" lon="-3.63083">
        <ele>259</ele>
        <time>2021-07-08T12:20:00Z</time>
      </trkpt>
      <trkpt lat="48.33365" lon="-3.63079">
        <ele>260</ele>
        <time>2021-07-08T12:20:02Z</time>
      </trkpt>
      <trkpt lat="48.33362" lon="-3.63075">
        <ele>260</ele>
        <time>2021-07-08T12:20:03Z</time>
      </trkpt>
      <trkpt lat="48.3336" lon="-3.63071">
        <ele>260</ele>
        <time>2021-07-08T12:20:04Z</time>
      </trkpt>
      <trkpt lat="48.33358" lon="-3.63067">
        <ele>260</ele>
        <time>2021-07-08T12:20:05Z</time>
      </trkpt>
      <trkpt lat="48.33355" lon="-3.63064">
        <ele>260</ele>
        <time>2021-07-08T12:20:06Z</time>
      </trkpt>
      <trkpt lat="48.33353" lon="-3.6306">
        <ele>260</ele>
        <time>2021-07-08T12:20:07Z</time>
      </trkpt>
      <trkpt lat="48.3335" lon="-3.63056">
        <ele>260</ele>
        <time>2021-07-08T12:20:08Z</time>
      </trkpt>
      <trkpt lat="48.33348" lon="-3.63052">
        <ele>260</ele>
        <time>2021-07-08T12:20:09Z</time>
      </trkpt>
      <trkpt lat="48.33345" lon="-3.63048">
        <ele>260</ele>
        <time>2021-07-08T12:20:10Z</time>
      </trkpt>
      <trkpt lat="48.33343" lon="-3.63044">
        <ele>260</ele>
        <time>2021-07-08T12:20:11Z</time>
      </trkpt>
      <trkpt lat="48.3334" lon="-3.63041">
        <ele>260</ele>
        <time>2021-07-08T12:20:12Z</time>
      </trkpt>
      <trkpt lat="48.33338" lon="-3.63037">
        <ele>260</ele>
        <time>2021-07-08T12:20:13Z</time>
      </trkpt>
      <trkpt lat="48.33336" lon="-3.63033">
        <ele>260</ele>
        <time>2021-07-08T12:20:14Z</time>
      </trkpt>
      <trkpt lat="48.33334" lon="-3.6303">
        <ele>261</ele>
        <time>2021-07-08T12:20:15Z</time>
      </trkpt>
      <trkpt lat="48.33331" lon="-3.63026">
        <ele>261</ele>
        <time>2021-07-08T12:20:16Z</time>
      </trkpt>
      <trkpt lat="48.33329" lon="-3.63023">
        <ele>261</ele>
        <time>2021-07-08T12:20:17Z</time>
      </trkpt>
      <trkpt lat="48.33326" lon="-3.6302">
        <ele>261</ele>
        <time>2021-07-08T12:20:18Z</time>
      </trkpt>
      <trkpt lat="48.33324" lon="-3.63017">
        <ele>261</ele>
        <time>2021-07-08T12:20:19Z</time>
      </trkpt>
      <trkpt lat="48.33322" lon="-3.63014">
        <ele>261</ele>
        <time>2021-07-08T12:20:19Z</time>
      </trkpt>
      <trkpt lat="48.33319" lon="-3.63012">
        <ele>261</ele>
        <time>2021-07-08T12:20:21Z</time>
      </trkpt>
      <trkpt lat="48.33318" lon="-3.63009">
        <ele>261</ele>
        <time>2021-07-08T12:20:21Z</time>
      </trkpt>
      <trkpt lat="48.33316" lon="-3.63006">
        <ele>261</ele>
        <time>2021-07-08T12:20:23Z</time>
      </trkpt>
      <trkpt lat="48.33315" lon="-3.63004">
        <ele>261</ele>
        <time>2021-07-08T12:20:24Z</time>
      </trkpt>
      <trkpt lat="48.33313" lon="-3.63002">
        <ele>261</ele>
        <time>2021-07-08T12:20:25Z</time>
      </trkpt>
      <trkpt lat="48.33311" lon="-3.63">
        <ele>261</ele>
        <time>2021-07-08T12:20:26Z</time>
      </trkpt>
      <trkpt lat="48.33309" lon="-3.62998">
        <ele>261</ele>
        <time>2021-07-08T12:20:27Z</time>
      </trkpt>
      <trkpt lat="48.33308" lon="-3.62996">
        <ele>261</ele>
        <time>2021-07-08T12:20:28Z</time>
      </trkpt>
      <trkpt lat="48.33306" lon="-3.62995">
        <ele>261</ele>
        <time>2021-07-08T12:20:29Z</time>
      </trkpt>
      <trkpt lat="48.33304" lon="-3.62994">
        <ele>261</ele>
        <time>2021-07-08T12:20:30Z</time>
      </trkpt>
      <trkpt lat="48.33301" lon="-3.62991">
        <ele>262</ele>
        <time>2021-07-08T12:20:32Z</time>
      </trkpt>
      <trkpt lat="48.333" lon="-3.62989">
        <ele>262</ele>
        <time>2021-07-08T12:20:33Z</time>
      </trkpt>
      <trkpt lat="48.33298" lon="-3.62986">
        <ele>262</ele>
        <time>2021-07-08T12:20:34Z</time>
      </trkpt>
      <trkpt lat="48.33296" lon="-3.62984">
        <ele>262</ele>
        <time>2021-07-08T12:20:35Z</time>
      </trkpt>
      <trkpt lat="48.33294" lon="-3.6298">
        <ele>262</ele>
        <time>2021-07-08T12:20:36Z</time>
      </trkpt>
      <trkpt lat="48.33292" lon="-3.62978">
        <ele>262</ele>
        <time>2021-07-08T12:20:37Z</time>
      </trkpt>
      <trkpt lat="48.33288" lon="-3.62972">
        <ele>262</ele>
        <time>2021-07-08T12:20:38Z</time>
      </trkpt>
      <trkpt lat="48.33286" lon="-3.62969">
        <ele>262</ele>
        <time>2021-07-08T12:20:40Z</time>
      </trkpt>
      <trkpt lat="48.33284" lon="-3.62967">
        <ele>262</ele>
        <time>2021-07-08T12:20:40Z</time>
      </trkpt>
      <trkpt lat="48.33281" lon="-3.62964">
        <ele>262</ele>
        <time>2021-07-08T12:20:42Z</time>
      </trkpt>
      <trkpt lat="48.33278" lon="-3.62961">
        <ele>261</ele>
        <time>2021-07-08T12:20:43Z</time>
      </trkpt>
      <trkpt lat="48.33276" lon="-3.62958">
        <ele>261</ele>
        <time>2021-07-08T12:20:44Z</time>
      </trkpt>
      <trkpt lat="48.33273" lon="-3.62954">
        <ele>261</ele>
        <time>2021-07-08T12:20:45Z</time>
      </trkpt>
      <trkpt lat="48.33271" lon="-3.62951">
        <ele>261</ele>
        <time>2021-07-08T12:20:46Z</time>
      </trkpt>
      <trkpt lat="48.33268" lon="-3.62948">
        <ele>261</ele>
        <time>2021-07-08T12:20:47Z</time>
      </trkpt>
      <trkpt lat="48.33266" lon="-3.62945">
        <ele>261</ele>
        <time>2021-07-08T12:20:48Z</time>
      </trkpt>
      <trkpt lat="48.33264" lon="-3.62942">
        <ele>261</ele>
        <time>2021-07-08T12:20:49Z</time>
      </trkpt>
      <trkpt lat="48.33262" lon="-3.62939">
        <ele>261</ele>
        <time>2021-07-08T12:20:50Z</time>
      </trkpt>
      <trkpt lat="48.33259" lon="-3.62936">
        <ele>261</ele>
        <time>2021-07-08T12:20:51Z</time>
      </trkpt>
      <trkpt lat="48.33256" lon="-3.62933">
        <ele>261</ele>
        <time>2021-07-08T12:20:52Z</time>
      </trkpt>
      <trkpt lat="48.33254" lon="-3.62929">
        <ele>262</ele>
        <time>2021-07-08T12:20:53Z</time>
      </trkpt>
      <trkpt lat="48.33251" lon="-3.62925">
        <ele>262</ele>
        <time>2021-07-08T12:20:53Z</time>
      </trkpt>
      <trkpt lat="48.33249" lon="-3.62922">
        <ele>262</ele>
        <time>2021-07-08T12:20:55Z</time>
      </trkpt>
      <trkpt lat="48.33246" lon="-3.62919">
        <ele>262</ele>
        <time>2021-07-08T12:20:56Z</time>
      </trkpt>
      <trkpt lat="48.33243" lon="-3.62915">
        <ele>262</ele>
        <time>2021-07-08T12:20:57Z</time>
      </trkpt>
      <trkpt lat="48.33239" lon="-3.62908">
        <ele>262</ele>
        <time>2021-07-08T12:20:59Z</time>
      </trkpt>
      <trkpt lat="48.33236" lon="-3.62904">
        <ele>262</ele>
        <time>2021-07-08T12:20:59Z</time>
      </trkpt>
      <trkpt lat="48.33232" lon="-3.62896">
        <ele>262</ele>
        <time>2021-07-08T12:21:02Z</time>
      </trkpt>
      <trkpt lat="48.3323" lon="-3.62892">
        <ele>262</ele>
        <time>2021-07-08T12:21:03Z</time>
      </trkpt>
      <trkpt lat="48.33229" lon="-3.62889">
        <ele>262</ele>
        <time>2021-07-08T12:21:04Z</time>
      </trkpt>
      <trkpt lat="48.33226" lon="-3.62886">
        <ele>262</ele>
        <time>2021-07-08T12:21:05Z</time>
      </trkpt>
      <trkpt lat="48.33224" lon="-3.62883">
        <ele>262</ele>
        <time>2021-07-08T12:21:06Z</time>
      </trkpt>
      <trkpt lat="48.33219" lon="-3.62876">
        <ele>262</ele>
        <time>2021-07-08T12:21:08Z</time>
      </trkpt>
      <trkpt lat="48.33217" lon="-3.62873">
        <ele>262</ele>
        <time>2021-07-08T12:21:09Z</time>
      </trkpt>
      <trkpt lat="48.33214" lon="-3.6287">
        <ele>262</ele>
        <time>2021-07-08T12:21:10Z</time>
      </trkpt>
      <trkpt lat="48.3321" lon="-3.62863">
        <ele>262</ele>
        <time>2021-07-08T12:21:12Z</time>
      </trkpt>
      <trkpt lat="48.33208" lon="-3.6286">
        <ele>262</ele>
        <time>2021-07-08T12:21:13Z</time>
      </trkpt>
      <trkpt lat="48.33205" lon="-3.62855">
        <ele>262</ele>
        <time>2021-07-08T12:21:14Z</time>
      </trkpt>
      <trkpt lat="48.33203" lon="-3.6285">
        <ele>262</ele>
        <time>2021-07-08T12:21:15Z</time>
      </trkpt>
      <trkpt lat="48.33201" lon="-3.62846">
        <ele>262</ele>
        <time>2021-07-08T12:21:16Z</time>
      </trkpt>
      <trkpt lat="48.33199" lon="-3.62842">
        <ele>262</ele>
        <time>2021-07-08T12:21:17Z</time>
      </trkpt>
      <trkpt lat="48.33195" lon="-3.62835">
        <ele>262</ele>
        <time>2021-07-08T12:21:18Z</time>
      </trkpt>
      <trkpt lat="48.33193" lon="-3.62829">
        <ele>262</ele>
        <time>2021-07-08T12:21:20Z</time>
      </trkpt>
      <trkpt lat="48.33191" lon="-3.62822">
        <ele>263</ele>
        <time>2021-07-08T12:21:21Z</time>
      </trkpt>
      <trkpt lat="48.33188" lon="-3.62816">
        <ele>263</ele>
        <time>2021-07-08T12:21:22Z</time>
      </trkpt>
      <trkpt lat="48.33186" lon="-3.62811">
        <ele>263</ele>
        <time>2021-07-08T12:21:23Z</time>
      </trkpt>
      <trkpt lat="48.33181" lon="-3.62801">
        <ele>263</ele>
        <time>2021-07-08T12:21:24Z</time>
      </trkpt>
      <trkpt lat="48.33178" lon="-3.62796">
        <ele>263</ele>
        <time>2021-07-08T12:21:26Z</time>
      </trkpt>
      <trkpt lat="48.33176" lon="-3.62792">
        <ele>263</ele>
        <time>2021-07-08T12:21:27Z</time>
      </trkpt>
      <trkpt lat="48.33172" lon="-3.62787">
        <ele>263</ele>
        <time>2021-07-08T12:21:28Z</time>
      </trkpt>
      <trkpt lat="48.33169" lon="-3.62782">
        <ele>263</ele>
        <time>2021-07-08T12:21:29Z</time>
      </trkpt>
      <trkpt lat="48.33166" lon="-3.62778">
        <ele>263</ele>
        <time>2021-07-08T12:21:30Z</time>
      </trkpt>
      <trkpt lat="48.33163" lon="-3.62773">
        <ele>263</ele>
        <time>2021-07-08T12:21:31Z</time>
      </trkpt>
      <trkpt lat="48.3316" lon="-3.62769">
        <ele>263</ele>
        <time>2021-07-08T12:21:32Z</time>
      </trkpt>
      <trkpt lat="48.33158" lon="-3.62764">
        <ele>263</ele>
        <time>2021-07-08T12:21:33Z</time>
      </trkpt>
      <trkpt lat="48.33156" lon="-3.62759">
        <ele>263</ele>
        <time>2021-07-08T12:21:34Z</time>
      </trkpt>
      <trkpt lat="48.33154" lon="-3.62755">
        <ele>263</ele>
        <time>2021-07-08T12:21:35Z</time>
      </trkpt>
      <trkpt lat="48.33152" lon="-3.62751">
        <ele>263</ele>
        <time>2021-07-08T12:21:35Z</time>
      </trkpt>
      <trkpt lat="48.3315" lon="-3.62748">
        <ele>263</ele>
        <time>2021-07-08T12:21:37Z</time>
      </trkpt>
      <trkpt lat="48.33148" lon="-3.62744">
        <ele>263</ele>
        <time>2021-07-08T12:21:38Z</time>
      </trkpt>
      <trkpt lat="48.33146" lon="-3.62742">
        <ele>263</ele>
        <time>2021-07-08T12:21:39Z</time>
      </trkpt>
      <trkpt lat="48.33145" lon="-3.6274">
        <ele>263</ele>
        <time>2021-07-08T12:21:40Z</time>
      </trkpt>
      <trkpt lat="48.33143" lon="-3.62737">
        <ele>263</ele>
        <time>2021-07-08T12:21:41Z</time>
      </trkpt>
      <trkpt lat="48.33141" lon="-3.62735">
        <ele>263</ele>
        <time>2021-07-08T12:21:42Z</time>
      </trkpt>
      <trkpt lat="48.33139" lon="-3.62731">
        <ele>263</ele>
        <time>2021-07-08T12:21:43Z</time>
      </trkpt>
      <trkpt lat="48.33138" lon="-3.62728">
        <ele>263</ele>
        <time>2021-07-08T12:21:43Z</time>
      </trkpt>
      <trkpt lat="48.33137" lon="-3.62723">
        <ele>263</ele>
        <time>2021-07-08T12:21:45Z</time>
      </trkpt>
      <trkpt lat="48.33135" lon="-3.62718">
        <ele>263</ele>
        <time>2021-07-08T12:21:46Z</time>
      </trkpt>
      <trkpt lat="48.33134" lon="-3.62713">
        <ele>263</ele>
        <time>2021-07-08T12:21:47Z</time>
      </trkpt>
      <trkpt lat="48.33132" lon="-3.62708">
        <ele>263</ele>
        <time>2021-07-08T12:21:48Z</time>
      </trkpt>
      <trkpt lat="48.33131" lon="-3.62702">
        <ele>263</ele>
        <time>2021-07-08T12:21:49Z</time>
      </trkpt>
      <trkpt lat="48.33129" lon="-3.62696">
        <ele>263</ele>
        <time>2021-07-08T12:21:50Z</time>
      </trkpt>
      <trkpt lat="48.33127" lon="-3.62691">
        <ele>263</ele>
        <time>2021-07-08T12:21:51Z</time>
      </trkpt>
      <trkpt lat="48.33125" lon="-3.62685">
        <ele>263</ele>
        <time>2021-07-08T12:21:52Z</time>
      </trkpt>
      <trkpt lat="48.33123" lon="-3.62679">
        <ele>263</ele>
        <time>2021-07-08T12:21:53Z</time>
      </trkpt>
      <trkpt lat="48.33119" lon="-3.62668">
        <ele>263</ele>
        <time>2021-07-08T12:21:54Z</time>
      </trkpt>
      <trkpt lat="48.33118" lon="-3.62662">
        <ele>263</ele>
        <time>2021-07-08T12:21:56Z</time>
      </trkpt>
      <trkpt lat="48.33116" lon="-3.62656">
        <ele>263</ele>
        <time>2021-07-08T12:21:57Z</time>
      </trkpt>
      <trkpt lat="48.33114" lon="-3.6265">
        <ele>262</ele>
        <time>2021-07-08T12:21:58Z</time>
      </trkpt>
      <trkpt lat="48.33113" lon="-3.62643">
        <ele>262</ele>
        <time>2021-07-08T12:21:59Z</time>
      </trkpt>
      <trkpt lat="48.33111" lon="-3.62637">
        <ele>262</ele>
        <time>2021-07-08T12:22:00Z</time>
      </trkpt>
      <trkpt lat="48.3311" lon="-3.62631">
        <ele>262</ele>
        <time>2021-07-08T12:22:01Z</time>
      </trkpt>
      <trkpt lat="48.33108" lon="-3.62625">
        <ele>262</ele>
        <time>2021-07-08T12:22:02Z</time>
      </trkpt>
      <trkpt lat="48.33107" lon="-3.62619">
        <ele>262</ele>
        <time>2021-07-08T12:22:03Z</time>
      </trkpt>
      <trkpt lat="48.33106" lon="-3.62613">
        <ele>262</ele>
        <time>2021-07-08T12:22:04Z</time>
      </trkpt>
      <trkpt lat="48.33105" lon="-3.62607">
        <ele>262</ele>
        <time>2021-07-08T12:22:05Z</time>
      </trkpt>
      <trkpt lat="48.33104" lon="-3.626">
        <ele>262</ele>
        <time>2021-07-08T12:22:06Z</time>
      </trkpt>
      <trkpt lat="48.33103" lon="-3.62594">
        <ele>262</ele>
        <time>2021-07-08T12:22:07Z</time>
      </trkpt>
      <trkpt lat="48.33102" lon="-3.62587">
        <ele>262</ele>
        <time>2021-07-08T12:22:08Z</time>
      </trkpt>
      <trkpt lat="48.331" lon="-3.62581">
        <ele>262</ele>
        <time>2021-07-08T12:22:09Z</time>
      </trkpt>
      <trkpt lat="48.33099" lon="-3.62574">
        <ele>262</ele>
        <time>2021-07-08T12:22:10Z</time>
      </trkpt>
      <trkpt lat="48.33097" lon="-3.62567">
        <ele>262</ele>
        <time>2021-07-08T12:22:11Z</time>
      </trkpt>
      <trkpt lat="48.33096" lon="-3.62561">
        <ele>262</ele>
        <time>2021-07-08T12:22:12Z</time>
      </trkpt>
      <trkpt lat="48.33095" lon="-3.62554">
        <ele>262</ele>
        <time>2021-07-08T12:22:13Z</time>
      </trkpt>
      <trkpt lat="48.33093" lon="-3.62541">
        <ele>262</ele>
        <time>2021-07-08T12:22:15Z</time>
      </trkpt>
      <trkpt lat="48.33092" lon="-3.62534">
        <ele>262</ele>
        <time>2021-07-08T12:22:16Z</time>
      </trkpt>
      <trkpt lat="48.33091" lon="-3.62527">
        <ele>262</ele>
        <time>2021-07-08T12:22:17Z</time>
      </trkpt>
      <trkpt lat="48.33091" lon="-3.6252">
        <ele>262</ele>
        <time>2021-07-08T12:22:18Z</time>
      </trkpt>
      <trkpt lat="48.3309" lon="-3.62513">
        <ele>261</ele>
        <time>2021-07-08T12:22:19Z</time>
      </trkpt>
      <trkpt lat="48.33089" lon="-3.62505">
        <ele>261</ele>
        <time>2021-07-08T12:22:20Z</time>
      </trkpt>
      <trkpt lat="48.33088" lon="-3.62498">
        <ele>261</ele>
        <time>2021-07-08T12:22:21Z</time>
      </trkpt>
      <trkpt lat="48.33087" lon="-3.6249">
        <ele>261</ele>
        <time>2021-07-08T12:22:22Z</time>
      </trkpt>
      <trkpt lat="48.33086" lon="-3.62483">
        <ele>261</ele>
        <time>2021-07-08T12:22:23Z</time>
      </trkpt>
      <trkpt lat="48.33085" lon="-3.62475">
        <ele>261</ele>
        <time>2021-07-08T12:22:24Z</time>
      </trkpt>
      <trkpt lat="48.33084" lon="-3.62467">
        <ele>261</ele>
        <time>2021-07-08T12:22:25Z</time>
      </trkpt>
      <trkpt lat="48.33083" lon="-3.6246">
        <ele>261</ele>
        <time>2021-07-08T12:22:26Z</time>
      </trkpt>
      <trkpt lat="48.33081" lon="-3.62452">
        <ele>261</ele>
        <time>2021-07-08T12:22:27Z</time>
      </trkpt>
      <trkpt lat="48.3308" lon="-3.62444">
        <ele>261</ele>
        <time>2021-07-08T12:22:28Z</time>
      </trkpt>
      <trkpt lat="48.33079" lon="-3.62437">
        <ele>261</ele>
        <time>2021-07-08T12:22:29Z</time>
      </trkpt>
      <trkpt lat="48.33079" lon="-3.6243">
        <ele>261</ele>
        <time>2021-07-08T12:22:30Z</time>
      </trkpt>
      <trkpt lat="48.33078" lon="-3.62422">
        <ele>261</ele>
        <time>2021-07-08T12:22:31Z</time>
      </trkpt>
      <trkpt lat="48.33077" lon="-3.62414">
        <ele>261</ele>
        <time>2021-07-08T12:22:32Z</time>
      </trkpt>
      <trkpt lat="48.33076" lon="-3.62407">
        <ele>261</ele>
        <time>2021-07-08T12:22:34Z</time>
      </trkpt>
      <trkpt lat="48.33075" lon="-3.62399">
        <ele>261</ele>
        <time>2021-07-08T12:22:34Z</time>
      </trkpt>
      <trkpt lat="48.33074" lon="-3.62392">
        <ele>261</ele>
        <time>2021-07-08T12:22:35Z</time>
      </trkpt>
      <trkpt lat="48.33073" lon="-3.62384">
        <ele>261</ele>
        <time>2021-07-08T12:22:36Z</time>
      </trkpt>
      <trkpt lat="48.33072" lon="-3.62376">
        <ele>261</ele>
        <time>2021-07-08T12:22:37Z</time>
      </trkpt>
      <trkpt lat="48.33072" lon="-3.62369">
        <ele>261</ele>
        <time>2021-07-08T12:22:38Z</time>
      </trkpt>
      <trkpt lat="48.33071" lon="-3.62362">
        <ele>261</ele>
        <time>2021-07-08T12:22:39Z</time>
      </trkpt>
      <trkpt lat="48.3307" lon="-3.62354">
        <ele>261</ele>
        <time>2021-07-08T12:22:40Z</time>
      </trkpt>
      <trkpt lat="48.33069" lon="-3.62347">
        <ele>261</ele>
        <time>2021-07-08T12:22:41Z</time>
      </trkpt>
      <trkpt lat="48.33068" lon="-3.62339">
        <ele>261</ele>
        <time>2021-07-08T12:22:42Z</time>
      </trkpt>
      <trkpt lat="48.33067" lon="-3.62332">
        <ele>261</ele>
        <time>2021-07-08T12:22:43Z</time>
      </trkpt>
      <trkpt lat="48.33065" lon="-3.62324">
        <ele>261</ele>
        <time>2021-07-08T12:22:44Z</time>
      </trkpt>
      <trkpt lat="48.33063" lon="-3.62309">
        <ele>261</ele>
        <time>2021-07-08T12:22:45Z</time>
      </trkpt>
      <trkpt lat="48.33062" lon="-3.62302">
        <ele>260</ele>
        <time>2021-07-08T12:22:47Z</time>
      </trkpt>
      <trkpt lat="48.33061" lon="-3.62295">
        <ele>260</ele>
        <time>2021-07-08T12:22:48Z</time>
      </trkpt>
      <trkpt lat="48.3306" lon="-3.62288">
        <ele>260</ele>
        <time>2021-07-08T12:22:49Z</time>
      </trkpt>
      <trkpt lat="48.33059" lon="-3.62281">
        <ele>260</ele>
        <time>2021-07-08T12:22:50Z</time>
      </trkpt>
      <trkpt lat="48.33058" lon="-3.62273">
        <ele>260</ele>
        <time>2021-07-08T12:22:51Z</time>
      </trkpt>
      <trkpt lat="48.33057" lon="-3.62266">
        <ele>260</ele>
        <time>2021-07-08T12:22:53Z</time>
      </trkpt>
      <trkpt lat="48.33057" lon="-3.6226">
        <ele>260</ele>
        <time>2021-07-08T12:22:53Z</time>
      </trkpt>
      <trkpt lat="48.33056" lon="-3.62253">
        <ele>260</ele>
        <time>2021-07-08T12:22:54Z</time>
      </trkpt>
      <trkpt lat="48.33056" lon="-3.62246">
        <ele>260</ele>
        <time>2021-07-08T12:22:55Z</time>
      </trkpt>
      <trkpt lat="48.33056" lon="-3.6224">
        <ele>260</ele>
        <time>2021-07-08T12:22:56Z</time>
      </trkpt>
      <trkpt lat="48.33055" lon="-3.62234">
        <ele>260</ele>
        <time>2021-07-08T12:22:57Z</time>
      </trkpt>
      <trkpt lat="48.33055" lon="-3.62227">
        <ele>260</ele>
        <time>2021-07-08T12:22:58Z</time>
      </trkpt>
      <trkpt lat="48.33054" lon="-3.62221">
        <ele>259</ele>
        <time>2021-07-08T12:22:59Z</time>
      </trkpt>
      <trkpt lat="48.33053" lon="-3.62214">
        <ele>259</ele>
        <time>2021-07-08T12:23:00Z</time>
      </trkpt>
      <trkpt lat="48.33053" lon="-3.62207">
        <ele>259</ele>
        <time>2021-07-08T12:23:01Z</time>
      </trkpt>
      <trkpt lat="48.33052" lon="-3.622">
        <ele>259</ele>
        <time>2021-07-08T12:23:02Z</time>
      </trkpt>
      <trkpt lat="48.33051" lon="-3.62193">
        <ele>259</ele>
        <time>2021-07-08T12:23:03Z</time>
      </trkpt>
      <trkpt lat="48.3305" lon="-3.62186">
        <ele>258</ele>
        <time>2021-07-08T12:23:04Z</time>
      </trkpt>
      <trkpt lat="48.33049" lon="-3.62179">
        <ele>258</ele>
        <time>2021-07-08T12:23:04Z</time>
      </trkpt>
      <trkpt lat="48.33048" lon="-3.62171">
        <ele>258</ele>
        <time>2021-07-08T12:23:06Z</time>
      </trkpt>
      <trkpt lat="48.33047" lon="-3.62164">
        <ele>258</ele>
        <time>2021-07-08T12:23:07Z</time>
      </trkpt>
      <trkpt lat="48.33046" lon="-3.62158">
        <ele>258</ele>
        <time>2021-07-08T12:23:08Z</time>
      </trkpt>
      <trkpt lat="48.33045" lon="-3.62151">
        <ele>258</ele>
        <time>2021-07-08T12:23:09Z</time>
      </trkpt>
      <trkpt lat="48.33043" lon="-3.62144">
        <ele>258</ele>
        <time>2021-07-08T12:23:10Z</time>
      </trkpt>
      <trkpt lat="48.33043" lon="-3.62137">
        <ele>258</ele>
        <time>2021-07-08T12:23:12Z</time>
      </trkpt>
      <trkpt lat="48.33042" lon="-3.6213">
        <ele>258</ele>
        <time>2021-07-08T12:23:12Z</time>
      </trkpt>
      <trkpt lat="48.33041" lon="-3.62122">
        <ele>258</ele>
        <time>2021-07-08T12:23:13Z</time>
      </trkpt>
      <trkpt lat="48.3304" lon="-3.62114">
        <ele>258</ele>
        <time>2021-07-08T12:23:14Z</time>
      </trkpt>
      <trkpt lat="48.33039" lon="-3.62107">
        <ele>258</ele>
        <time>2021-07-08T12:23:15Z</time>
      </trkpt>
      <trkpt lat="48.33038" lon="-3.62099">
        <ele>258</ele>
        <time>2021-07-08T12:23:16Z</time>
      </trkpt>
      <trkpt lat="48.33037" lon="-3.62092">
        <ele>258</ele>
        <time>2021-07-08T12:23:17Z</time>
      </trkpt>
      <trkpt lat="48.33037" lon="-3.62085">
        <ele>258</ele>
        <time>2021-07-08T12:23:18Z</time>
      </trkpt>
      <trkpt lat="48.33035" lon="-3.62078">
        <ele>258</ele>
        <time>2021-07-08T12:23:19Z</time>
      </trkpt>
      <trkpt lat="48.33035" lon="-3.62071">
        <ele>258</ele>
        <time>2021-07-08T12:23:20Z</time>
      </trkpt>
      <trkpt lat="48.33034" lon="-3.62065">
        <ele>258</ele>
        <time>2021-07-08T12:23:21Z</time>
      </trkpt>
      <trkpt lat="48.33033" lon="-3.62058">
        <ele>258</ele>
        <time>2021-07-08T12:23:22Z</time>
      </trkpt>
      <trkpt lat="48.33033" lon="-3.62051">
        <ele>258</ele>
        <time>2021-07-08T12:23:23Z</time>
      </trkpt>
      <trkpt lat="48.33033" lon="-3.62044">
        <ele>258</ele>
        <time>2021-07-08T12:23:24Z</time>
      </trkpt>
      <trkpt lat="48.33032" lon="-3.62038">
        <ele>258</ele>
        <time>2021-07-08T12:23:25Z</time>
      </trkpt>
      <trkpt lat="48.33032" lon="-3.62031">
        <ele>258</ele>
        <time>2021-07-08T12:23:26Z</time>
      </trkpt>
      <trkpt lat="48.3303" lon="-3.62016">
        <ele>258</ele>
        <time>2021-07-08T12:23:28Z</time>
      </trkpt>
      <trkpt lat="48.33029" lon="-3.62003">
        <ele>258</ele>
        <time>2021-07-08T12:23:30Z</time>
      </trkpt>
      <trkpt lat="48.33028" lon="-3.61988">
        <ele>258</ele>
        <time>2021-07-08T12:23:32Z</time>
      </trkpt>
      <trkpt lat="48.33026" lon="-3.61972">
        <ele>257</ele>
        <time>2021-07-08T12:23:34Z</time>
      </trkpt>
      <trkpt lat="48.33025" lon="-3.61964">
        <ele>257</ele>
        <time>2021-07-08T12:23:35Z</time>
      </trkpt>
      <trkpt lat="48.33023" lon="-3.61956">
        <ele>257</ele>
        <time>2021-07-08T12:23:36Z</time>
      </trkpt>
      <trkpt lat="48.33021" lon="-3.61942">
        <ele>257</ele>
        <time>2021-07-08T12:23:38Z</time>
      </trkpt>
      <trkpt lat="48.33018" lon="-3.61924">
        <ele>257</ele>
        <time>2021-07-08T12:23:40Z</time>
      </trkpt>
      <trkpt lat="48.33017" lon="-3.61915">
        <ele>257</ele>
        <time>2021-07-08T12:23:41Z</time>
      </trkpt>
      <trkpt lat="48.33016" lon="-3.61907">
        <ele>257</ele>
        <time>2021-07-08T12:23:42Z</time>
      </trkpt>
      <trkpt lat="48.33015" lon="-3.61899">
        <ele>257</ele>
        <time>2021-07-08T12:23:43Z</time>
      </trkpt>
      <trkpt lat="48.33013" lon="-3.61892">
        <ele>257</ele>
        <time>2021-07-08T12:23:44Z</time>
      </trkpt>
      <trkpt lat="48.33012" lon="-3.61886">
        <ele>257</ele>
        <time>2021-07-08T12:23:45Z</time>
      </trkpt>
      <trkpt lat="48.33011" lon="-3.6188">
        <ele>257</ele>
        <time>2021-07-08T12:23:46Z</time>
      </trkpt>
      <trkpt lat="48.33011" lon="-3.61873">
        <ele>257</ele>
        <time>2021-07-08T12:23:47Z</time>
      </trkpt>
      <trkpt lat="48.3301" lon="-3.61866">
        <ele>257</ele>
        <time>2021-07-08T12:23:48Z</time>
      </trkpt>
      <trkpt lat="48.33009" lon="-3.6186">
        <ele>257</ele>
        <time>2021-07-08T12:23:49Z</time>
      </trkpt>
      <trkpt lat="48.33008" lon="-3.61853">
        <ele>257</ele>
        <time>2021-07-08T12:23:50Z</time>
      </trkpt>
      <trkpt lat="48.33006" lon="-3.61847">
        <ele>257</ele>
        <time>2021-07-08T12:23:51Z</time>
      </trkpt>
      <trkpt lat="48.33006" lon="-3.61841">
        <ele>257</ele>
        <time>2021-07-08T12:23:52Z</time>
      </trkpt>
      <trkpt lat="48.33005" lon="-3.61834">
        <ele>257</ele>
        <time>2021-07-08T12:23:53Z</time>
      </trkpt>
      <trkpt lat="48.33004" lon="-3.61829">
        <ele>257</ele>
        <time>2021-07-08T12:23:54Z</time>
      </trkpt>
      <trkpt lat="48.33003" lon="-3.61823">
        <ele>257</ele>
        <time>2021-07-08T12:23:55Z</time>
      </trkpt>
      <trkpt lat="48.33002" lon="-3.61817">
        <ele>257</ele>
        <time>2021-07-08T12:23:56Z</time>
      </trkpt>
      <trkpt lat="48.33001" lon="-3.61812">
        <ele>257</ele>
        <time>2021-07-08T12:23:57Z</time>
      </trkpt>
      <trkpt lat="48.33" lon="-3.61806">
        <ele>257</ele>
        <time>2021-07-08T12:23:58Z</time>
      </trkpt>
      <trkpt lat="48.32999" lon="-3.618">
        <ele>258</ele>
        <time>2021-07-08T12:23:59Z</time>
      </trkpt>
      <trkpt lat="48.32999" lon="-3.61794">
        <ele>258</ele>
        <time>2021-07-08T12:24:00Z</time>
      </trkpt>
      <trkpt lat="48.32998" lon="-3.61788">
        <ele>258</ele>
        <time>2021-07-08T12:24:01Z</time>
      </trkpt>
      <trkpt lat="48.32997" lon="-3.61782">
        <ele>258</ele>
        <time>2021-07-08T12:24:02Z</time>
      </trkpt>
      <trkpt lat="48.32996" lon="-3.61776">
        <ele>258</ele>
        <time>2021-07-08T12:24:03Z</time>
      </trkpt>
      <trkpt lat="48.32995" lon="-3.6177">
        <ele>258</ele>
        <time>2021-07-08T12:24:04Z</time>
      </trkpt>
      <trkpt lat="48.32995" lon="-3.61764">
        <ele>257</ele>
        <time>2021-07-08T12:24:05Z</time>
      </trkpt>
      <trkpt lat="48.32994" lon="-3.61758">
        <ele>257</ele>
        <time>2021-07-08T12:24:06Z</time>
      </trkpt>
      <trkpt lat="48.32993" lon="-3.61745">
        <ele>257</ele>
        <time>2021-07-08T12:24:07Z</time>
      </trkpt>
      <trkpt lat="48.32992" lon="-3.61739">
        <ele>257</ele>
        <time>2021-07-08T12:24:09Z</time>
      </trkpt>
      <trkpt lat="48.32991" lon="-3.61733">
        <ele>257</ele>
        <time>2021-07-08T12:24:10Z</time>
      </trkpt>
      <trkpt lat="48.3299" lon="-3.61726">
        <ele>257</ele>
        <time>2021-07-08T12:24:11Z</time>
      </trkpt>
      <trkpt lat="48.3299" lon="-3.6172">
        <ele>257</ele>
        <time>2021-07-08T12:24:12Z</time>
      </trkpt>
      <trkpt lat="48.32989" lon="-3.61713">
        <ele>257</ele>
        <time>2021-07-08T12:24:13Z</time>
      </trkpt>
      <trkpt lat="48.32988" lon="-3.61707">
        <ele>257</ele>
        <time>2021-07-08T12:24:14Z</time>
      </trkpt>
      <trkpt lat="48.32987" lon="-3.61701">
        <ele>257</ele>
        <time>2021-07-08T12:24:15Z</time>
      </trkpt>
      <trkpt lat="48.32987" lon="-3.61694">
        <ele>257</ele>
        <time>2021-07-08T12:24:16Z</time>
      </trkpt>
      <trkpt lat="48.32986" lon="-3.61688">
        <ele>257</ele>
        <time>2021-07-08T12:24:17Z</time>
      </trkpt>
      <trkpt lat="48.32985" lon="-3.61682">
        <ele>257</ele>
        <time>2021-07-08T12:24:18Z</time>
      </trkpt>
      <trkpt lat="48.32984" lon="-3.61676">
        <ele>257</ele>
        <time>2021-07-08T12:24:19Z</time>
      </trkpt>
      <trkpt lat="48.32984" lon="-3.6167">
        <ele>257</ele>
        <time>2021-07-08T12:24:20Z</time>
      </trkpt>
      <trkpt lat="48.32983" lon="-3.61664">
        <ele>257</ele>
        <time>2021-07-08T12:24:21Z</time>
      </trkpt>
      <trkpt lat="48.32981" lon="-3.61658">
        <ele>257</ele>
        <time>2021-07-08T12:24:22Z</time>
      </trkpt>
      <trkpt lat="48.3298" lon="-3.61651">
        <ele>257</ele>
        <time>2021-07-08T12:24:23Z</time>
      </trkpt>
      <trkpt lat="48.3298" lon="-3.61644">
        <ele>257</ele>
        <time>2021-07-08T12:24:24Z</time>
      </trkpt>
      <trkpt lat="48.32979" lon="-3.61638">
        <ele>257</ele>
        <time>2021-07-08T12:24:24Z</time>
      </trkpt>
      <trkpt lat="48.32978" lon="-3.61631">
        <ele>257</ele>
        <time>2021-07-08T12:24:26Z</time>
      </trkpt>
      <trkpt lat="48.32978" lon="-3.61624">
        <ele>257</ele>
        <time>2021-07-08T12:24:27Z</time>
      </trkpt>
      <trkpt lat="48.32977" lon="-3.61618">
        <ele>257</ele>
        <time>2021-07-08T12:24:28Z</time>
      </trkpt>
      <trkpt lat="48.32976" lon="-3.61611">
        <ele>257</ele>
        <time>2021-07-08T12:24:29Z</time>
      </trkpt>
      <trkpt lat="48.32975" lon="-3.61604">
        <ele>257</ele>
        <time>2021-07-08T12:24:30Z</time>
      </trkpt>
      <trkpt lat="48.32974" lon="-3.61597">
        <ele>257</ele>
        <time>2021-07-08T12:24:31Z</time>
      </trkpt>
      <trkpt lat="48.32973" lon="-3.61591">
        <ele>257</ele>
        <time>2021-07-08T12:24:32Z</time>
      </trkpt>
      <trkpt lat="48.32972" lon="-3.61584">
        <ele>257</ele>
        <time>2021-07-08T12:24:33Z</time>
      </trkpt>
      <trkpt lat="48.32971" lon="-3.61578">
        <ele>257</ele>
        <time>2021-07-08T12:24:34Z</time>
      </trkpt>
      <trkpt lat="48.3297" lon="-3.61572">
        <ele>257</ele>
        <time>2021-07-08T12:24:35Z</time>
      </trkpt>
      <trkpt lat="48.3297" lon="-3.61565">
        <ele>257</ele>
        <time>2021-07-08T12:24:36Z</time>
      </trkpt>
      <trkpt lat="48.32969" lon="-3.61559">
        <ele>257</ele>
        <time>2021-07-08T12:24:37Z</time>
      </trkpt>
      <trkpt lat="48.32968" lon="-3.61553">
        <ele>257</ele>
        <time>2021-07-08T12:24:38Z</time>
      </trkpt>
      <trkpt lat="48.32967" lon="-3.61547">
        <ele>257</ele>
        <time>2021-07-08T12:24:39Z</time>
      </trkpt>
      <trkpt lat="48.32966" lon="-3.6154">
        <ele>257</ele>
        <time>2021-07-08T12:24:40Z</time>
      </trkpt>
      <trkpt lat="48.32966" lon="-3.61534">
        <ele>257</ele>
        <time>2021-07-08T12:24:41Z</time>
      </trkpt>
      <trkpt lat="48.32965" lon="-3.61528">
        <ele>257</ele>
        <time>2021-07-08T12:24:42Z</time>
      </trkpt>
      <trkpt lat="48.32964" lon="-3.61521">
        <ele>257</ele>
        <time>2021-07-08T12:24:43Z</time>
      </trkpt>
      <trkpt lat="48.32963" lon="-3.61514">
        <ele>257</ele>
        <time>2021-07-08T12:24:44Z</time>
      </trkpt>
      <trkpt lat="48.32962" lon="-3.61508">
        <ele>257</ele>
        <time>2021-07-08T12:24:45Z</time>
      </trkpt>
      <trkpt lat="48.32961" lon="-3.61501">
        <ele>257</ele>
        <time>2021-07-08T12:24:45Z</time>
      </trkpt>
      <trkpt lat="48.3296" lon="-3.61495">
        <ele>257</ele>
        <time>2021-07-08T12:24:47Z</time>
      </trkpt>
      <trkpt lat="48.32959" lon="-3.61488">
        <ele>257</ele>
        <time>2021-07-08T12:24:48Z</time>
      </trkpt>
      <trkpt lat="48.32958" lon="-3.61482">
        <ele>257</ele>
        <time>2021-07-08T12:24:49Z</time>
      </trkpt>
      <trkpt lat="48.32957" lon="-3.61475">
        <ele>257</ele>
        <time>2021-07-08T12:24:50Z</time>
      </trkpt>
      <trkpt lat="48.32957" lon="-3.61469">
        <ele>257</ele>
        <time>2021-07-08T12:24:51Z</time>
      </trkpt>
      <trkpt lat="48.32956" lon="-3.61462">
        <ele>256</ele>
        <time>2021-07-08T12:24:52Z</time>
      </trkpt>
      <trkpt lat="48.32956" lon="-3.61456">
        <ele>256</ele>
        <time>2021-07-08T12:24:53Z</time>
      </trkpt>
      <trkpt lat="48.32955" lon="-3.6145">
        <ele>256</ele>
        <time>2021-07-08T12:24:54Z</time>
      </trkpt>
      <trkpt lat="48.32955" lon="-3.61444">
        <ele>256</ele>
        <time>2021-07-08T12:24:55Z</time>
      </trkpt>
      <trkpt lat="48.32954" lon="-3.61439">
        <ele>256</ele>
        <time>2021-07-08T12:24:56Z</time>
      </trkpt>
      <trkpt lat="48.32953" lon="-3.61433">
        <ele>256</ele>
        <time>2021-07-08T12:24:57Z</time>
      </trkpt>
      <trkpt lat="48.32952" lon="-3.61428">
        <ele>256</ele>
        <time>2021-07-08T12:24:58Z</time>
      </trkpt>
      <trkpt lat="48.32951" lon="-3.61422">
        <ele>256</ele>
        <time>2021-07-08T12:24:59Z</time>
      </trkpt>
      <trkpt lat="48.32951" lon="-3.61416">
        <ele>256</ele>
        <time>2021-07-08T12:25:00Z</time>
      </trkpt>
      <trkpt lat="48.32951" lon="-3.61411">
        <ele>256</ele>
        <time>2021-07-08T12:25:01Z</time>
      </trkpt>
      <trkpt lat="48.3295" lon="-3.61405">
        <ele>256</ele>
        <time>2021-07-08T12:25:02Z</time>
      </trkpt>
      <trkpt lat="48.3295" lon="-3.614">
        <ele>256</ele>
        <time>2021-07-08T12:25:03Z</time>
      </trkpt>
      <trkpt lat="48.32949" lon="-3.61395">
        <ele>256</ele>
        <time>2021-07-08T12:25:04Z</time>
      </trkpt>
      <trkpt lat="48.32948" lon="-3.61389">
        <ele>256</ele>
        <time>2021-07-08T12:25:04Z</time>
      </trkpt>
      <trkpt lat="48.32948" lon="-3.61383">
        <ele>256</ele>
        <time>2021-07-08T12:25:06Z</time>
      </trkpt>
      <trkpt lat="48.32947" lon="-3.61377">
        <ele>257</ele>
        <time>2021-07-08T12:25:07Z</time>
      </trkpt>
      <trkpt lat="48.32946" lon="-3.61372">
        <ele>257</ele>
        <time>2021-07-08T12:25:08Z</time>
      </trkpt>
      <trkpt lat="48.32945" lon="-3.61366">
        <ele>257</ele>
        <time>2021-07-08T12:25:09Z</time>
      </trkpt>
      <trkpt lat="48.32944" lon="-3.6136">
        <ele>257</ele>
        <time>2021-07-08T12:25:10Z</time>
      </trkpt>
      <trkpt lat="48.32943" lon="-3.61354">
        <ele>257</ele>
        <time>2021-07-08T12:25:11Z</time>
      </trkpt>
      <trkpt lat="48.32942" lon="-3.61348">
        <ele>257</ele>
        <time>2021-07-08T12:25:12Z</time>
      </trkpt>
      <trkpt lat="48.32942" lon="-3.61342">
        <ele>257</ele>
        <time>2021-07-08T12:25:13Z</time>
      </trkpt>
      <trkpt lat="48.32941" lon="-3.61336">
        <ele>257</ele>
        <time>2021-07-08T12:25:14Z</time>
      </trkpt>
      <trkpt lat="48.3294" lon="-3.6133">
        <ele>258</ele>
        <time>2021-07-08T12:25:15Z</time>
      </trkpt>
      <trkpt lat="48.3294" lon="-3.61324">
        <ele>258</ele>
        <time>2021-07-08T12:25:16Z</time>
      </trkpt>
      <trkpt lat="48.32939" lon="-3.61317">
        <ele>258</ele>
        <time>2021-07-08T12:25:17Z</time>
      </trkpt>
      <trkpt lat="48.32939" lon="-3.61311">
        <ele>258</ele>
        <time>2021-07-08T12:25:18Z</time>
      </trkpt>
      <trkpt lat="48.32938" lon="-3.61305">
        <ele>257</ele>
        <time>2021-07-08T12:25:19Z</time>
      </trkpt>
      <trkpt lat="48.32937" lon="-3.61299">
        <ele>257</ele>
        <time>2021-07-08T12:25:20Z</time>
      </trkpt>
      <trkpt lat="48.32937" lon="-3.61294">
        <ele>257</ele>
        <time>2021-07-08T12:25:21Z</time>
      </trkpt>
      <trkpt lat="48.32936" lon="-3.61288">
        <ele>257</ele>
        <time>2021-07-08T12:25:22Z</time>
      </trkpt>
      <trkpt lat="48.32935" lon="-3.61283">
        <ele>257</ele>
        <time>2021-07-08T12:25:22Z</time>
      </trkpt>
      <trkpt lat="48.32935" lon="-3.61277">
        <ele>257</ele>
        <time>2021-07-08T12:25:23Z</time>
      </trkpt>
      <trkpt lat="48.32934" lon="-3.61271">
        <ele>257</ele>
        <time>2021-07-08T12:25:25Z</time>
      </trkpt>
      <trkpt lat="48.32933" lon="-3.61264">
        <ele>257</ele>
        <time>2021-07-08T12:25:26Z</time>
      </trkpt>
      <trkpt lat="48.32932" lon="-3.61256">
        <ele>257</ele>
        <time>2021-07-08T12:25:27Z</time>
      </trkpt>
      <trkpt lat="48.32931" lon="-3.61249">
        <ele>257</ele>
        <time>2021-07-08T12:25:28Z</time>
      </trkpt>
      <trkpt lat="48.3293" lon="-3.61241">
        <ele>257</ele>
        <time>2021-07-08T12:25:29Z</time>
      </trkpt>
      <trkpt lat="48.32928" lon="-3.61234">
        <ele>257</ele>
        <time>2021-07-08T12:25:30Z</time>
      </trkpt>
      <trkpt lat="48.32927" lon="-3.61227">
        <ele>256</ele>
        <time>2021-07-08T12:25:31Z</time>
      </trkpt>
      <trkpt lat="48.32927" lon="-3.6122">
        <ele>256</ele>
        <time>2021-07-08T12:25:32Z</time>
      </trkpt>
      <trkpt lat="48.32926" lon="-3.61213">
        <ele>257</ele>
        <time>2021-07-08T12:25:33Z</time>
      </trkpt>
      <trkpt lat="48.32925" lon="-3.61206">
        <ele>257</ele>
        <time>2021-07-08T12:25:34Z</time>
      </trkpt>
      <trkpt lat="48.32923" lon="-3.61193">
        <ele>257</ele>
        <time>2021-07-08T12:25:35Z</time>
      </trkpt>
      <trkpt lat="48.32922" lon="-3.61186">
        <ele>257</ele>
        <time>2021-07-08T12:25:37Z</time>
      </trkpt>
      <trkpt lat="48.32921" lon="-3.61178">
        <ele>257</ele>
        <time>2021-07-08T12:25:38Z</time>
      </trkpt>
      <trkpt lat="48.3292" lon="-3.61171">
        <ele>256</ele>
        <time>2021-07-08T12:25:39Z</time>
      </trkpt>
      <trkpt lat="48.32919" lon="-3.61164">
        <ele>256</ele>
        <time>2021-07-08T12:25:40Z</time>
      </trkpt>
      <trkpt lat="48.32918" lon="-3.61157">
        <ele>256</ele>
        <time>2021-07-08T12:25:41Z</time>
      </trkpt>
      <trkpt lat="48.32916" lon="-3.61144">
        <ele>256</ele>
        <time>2021-07-08T12:25:42Z</time>
      </trkpt>
      <trkpt lat="48.32916" lon="-3.61138">
        <ele>256</ele>
        <time>2021-07-08T12:25:44Z</time>
      </trkpt>
      <trkpt lat="48.32915" lon="-3.61134">
        <ele>256</ele>
        <time>2021-07-08T12:25:45Z</time>
      </trkpt>
      <trkpt lat="48.32914" lon="-3.6113">
        <ele>256</ele>
        <time>2021-07-08T12:25:46Z</time>
      </trkpt>
      <trkpt lat="48.32914" lon="-3.61126">
        <ele>256</ele>
        <time>2021-07-08T12:25:47Z</time>
      </trkpt>
      <trkpt lat="48.32914" lon="-3.61122">
        <ele>256</ele>
        <time>2021-07-08T12:25:48Z</time>
      </trkpt>
      <trkpt lat="48.32913" lon="-3.61118">
        <ele>256</ele>
        <time>2021-07-08T12:25:48Z</time>
      </trkpt>
      <trkpt lat="48.32913" lon="-3.61114">
        <ele>256</ele>
        <time>2021-07-08T12:25:50Z</time>
      </trkpt>
      <trkpt lat="48.32912" lon="-3.61109">
        <ele>256</ele>
        <time>2021-07-08T12:25:51Z</time>
      </trkpt>
      <trkpt lat="48.32912" lon="-3.61104">
        <ele>256</ele>
        <time>2021-07-08T12:25:52Z</time>
      </trkpt>
      <trkpt lat="48.32911" lon="-3.61099">
        <ele>256</ele>
        <time>2021-07-08T12:25:53Z</time>
      </trkpt>
      <trkpt lat="48.3291" lon="-3.61093">
        <ele>256</ele>
        <time>2021-07-08T12:25:54Z</time>
      </trkpt>
      <trkpt lat="48.32909" lon="-3.61087">
        <ele>256</ele>
        <time>2021-07-08T12:25:55Z</time>
      </trkpt>
      <trkpt lat="48.32908" lon="-3.61081">
        <ele>256</ele>
        <time>2021-07-08T12:25:56Z</time>
      </trkpt>
      <trkpt lat="48.32908" lon="-3.61075">
        <ele>256</ele>
        <time>2021-07-08T12:25:57Z</time>
      </trkpt>
      <trkpt lat="48.32907" lon="-3.61068">
        <ele>256</ele>
        <time>2021-07-08T12:25:58Z</time>
      </trkpt>
      <trkpt lat="48.32906" lon="-3.61061">
        <ele>255</ele>
        <time>2021-07-08T12:25:59Z</time>
      </trkpt>
      <trkpt lat="48.32905" lon="-3.61055">
        <ele>255</ele>
        <time>2021-07-08T12:26:00Z</time>
      </trkpt>
      <trkpt lat="48.32904" lon="-3.61048">
        <ele>255</ele>
        <time>2021-07-08T12:26:01Z</time>
      </trkpt>
      <trkpt lat="48.32903" lon="-3.61042">
        <ele>255</ele>
        <time>2021-07-08T12:26:02Z</time>
      </trkpt>
      <trkpt lat="48.32903" lon="-3.61035">
        <ele>255</ele>
        <time>2021-07-08T12:26:03Z</time>
      </trkpt>
      <trkpt lat="48.32902" lon="-3.61028">
        <ele>255</ele>
        <time>2021-07-08T12:26:04Z</time>
      </trkpt>
      <trkpt lat="48.32901" lon="-3.6102">
        <ele>255</ele>
        <time>2021-07-08T12:26:05Z</time>
      </trkpt>
      <trkpt lat="48.32899" lon="-3.61013">
        <ele>254</ele>
        <time>2021-07-08T12:26:06Z</time>
      </trkpt>
      <trkpt lat="48.32898" lon="-3.61005">
        <ele>254</ele>
        <time>2021-07-08T12:26:07Z</time>
      </trkpt>
      <trkpt lat="48.32898" lon="-3.60998">
        <ele>254</ele>
        <time>2021-07-08T12:26:08Z</time>
      </trkpt>
      <trkpt lat="48.32897" lon="-3.60991">
        <ele>254</ele>
        <time>2021-07-08T12:26:09Z</time>
      </trkpt>
      <trkpt lat="48.32895" lon="-3.60983">
        <ele>254</ele>
        <time>2021-07-08T12:26:10Z</time>
      </trkpt>
      <trkpt lat="48.32894" lon="-3.60976">
        <ele>254</ele>
        <time>2021-07-08T12:26:11Z</time>
      </trkpt>
      <trkpt lat="48.32894" lon="-3.60969">
        <ele>254</ele>
        <time>2021-07-08T12:26:12Z</time>
      </trkpt>
      <trkpt lat="48.32893" lon="-3.60962">
        <ele>254</ele>
        <time>2021-07-08T12:26:13Z</time>
      </trkpt>
      <trkpt lat="48.32892" lon="-3.60954">
        <ele>254</ele>
        <time>2021-07-08T12:26:14Z</time>
      </trkpt>
      <trkpt lat="48.32891" lon="-3.60947">
        <ele>254</ele>
        <time>2021-07-08T12:26:15Z</time>
      </trkpt>
      <trkpt lat="48.3289" lon="-3.60939">
        <ele>254</ele>
        <time>2021-07-08T12:26:16Z</time>
      </trkpt>
      <trkpt lat="48.32889" lon="-3.60932">
        <ele>254</ele>
        <time>2021-07-08T12:26:17Z</time>
      </trkpt>
      <trkpt lat="48.32888" lon="-3.60924">
        <ele>254</ele>
        <time>2021-07-08T12:26:18Z</time>
      </trkpt>
      <trkpt lat="48.32887" lon="-3.60916">
        <ele>254</ele>
        <time>2021-07-08T12:26:19Z</time>
      </trkpt>
      <trkpt lat="48.32886" lon="-3.60909">
        <ele>254</ele>
        <time>2021-07-08T12:26:20Z</time>
      </trkpt>
      <trkpt lat="48.32884" lon="-3.60894">
        <ele>254</ele>
        <time>2021-07-08T12:26:22Z</time>
      </trkpt>
      <trkpt lat="48.32883" lon="-3.60886">
        <ele>254</ele>
        <time>2021-07-08T12:26:23Z</time>
      </trkpt>
      <trkpt lat="48.32882" lon="-3.60879">
        <ele>254</ele>
        <time>2021-07-08T12:26:24Z</time>
      </trkpt>
      <trkpt lat="48.32881" lon="-3.60872">
        <ele>254</ele>
        <time>2021-07-08T12:26:25Z</time>
      </trkpt>
      <trkpt lat="48.3288" lon="-3.60864">
        <ele>254</ele>
        <time>2021-07-08T12:26:26Z</time>
      </trkpt>
      <trkpt lat="48.32879" lon="-3.60857">
        <ele>254</ele>
        <time>2021-07-08T12:26:27Z</time>
      </trkpt>
      <trkpt lat="48.32878" lon="-3.6085">
        <ele>254</ele>
        <time>2021-07-08T12:26:28Z</time>
      </trkpt>
      <trkpt lat="48.32877" lon="-3.60843">
        <ele>254</ele>
        <time>2021-07-08T12:26:29Z</time>
      </trkpt>
      <trkpt lat="48.32877" lon="-3.60835">
        <ele>254</ele>
        <time>2021-07-08T12:26:30Z</time>
      </trkpt>
      <trkpt lat="48.32876" lon="-3.60828">
        <ele>254</ele>
        <time>2021-07-08T12:26:31Z</time>
      </trkpt>
      <trkpt lat="48.32876" lon="-3.60821">
        <ele>254</ele>
        <time>2021-07-08T12:26:32Z</time>
      </trkpt>
      <trkpt lat="48.32875" lon="-3.60814">
        <ele>254</ele>
        <time>2021-07-08T12:26:33Z</time>
      </trkpt>
      <trkpt lat="48.32874" lon="-3.60807">
        <ele>253</ele>
        <time>2021-07-08T12:26:34Z</time>
      </trkpt>
      <trkpt lat="48.32873" lon="-3.608">
        <ele>253</ele>
        <time>2021-07-08T12:26:35Z</time>
      </trkpt>
      <trkpt lat="48.32872" lon="-3.60793">
        <ele>253</ele>
        <time>2021-07-08T12:26:36Z</time>
      </trkpt>
      <trkpt lat="48.32872" lon="-3.60786">
        <ele>253</ele>
        <time>2021-07-08T12:26:37Z</time>
      </trkpt>
      <trkpt lat="48.32871" lon="-3.60779">
        <ele>253</ele>
        <time>2021-07-08T12:26:38Z</time>
      </trkpt>
      <trkpt lat="48.3287" lon="-3.60773">
        <ele>252</ele>
        <time>2021-07-08T12:26:39Z</time>
      </trkpt>
      <trkpt lat="48.3287" lon="-3.60767">
        <ele>252</ele>
        <time>2021-07-08T12:26:41Z</time>
      </trkpt>
      <trkpt lat="48.32869" lon="-3.6076">
        <ele>252</ele>
        <time>2021-07-08T12:26:41Z</time>
      </trkpt>
      <trkpt lat="48.32869" lon="-3.60754">
        <ele>252</ele>
        <time>2021-07-08T12:26:42Z</time>
      </trkpt>
      <trkpt lat="48.32868" lon="-3.60747">
        <ele>252</ele>
        <time>2021-07-08T12:26:43Z</time>
      </trkpt>
      <trkpt lat="48.32867" lon="-3.6074">
        <ele>252</ele>
        <time>2021-07-08T12:26:44Z</time>
      </trkpt>
      <trkpt lat="48.32866" lon="-3.60734">
        <ele>252</ele>
        <time>2021-07-08T12:26:45Z</time>
      </trkpt>
      <trkpt lat="48.32865" lon="-3.60727">
        <ele>252</ele>
        <time>2021-07-08T12:26:46Z</time>
      </trkpt>
      <trkpt lat="48.32863" lon="-3.6072">
        <ele>252</ele>
        <time>2021-07-08T12:26:47Z</time>
      </trkpt>
      <trkpt lat="48.32862" lon="-3.60712">
        <ele>251</ele>
        <time>2021-07-08T12:26:48Z</time>
      </trkpt>
      <trkpt lat="48.32861" lon="-3.60705">
        <ele>251</ele>
        <time>2021-07-08T12:26:49Z</time>
      </trkpt>
      <trkpt lat="48.32859" lon="-3.60697">
        <ele>252</ele>
        <time>2021-07-08T12:26:50Z</time>
      </trkpt>
      <trkpt lat="48.32859" lon="-3.60691">
        <ele>252</ele>
        <time>2021-07-08T12:26:51Z</time>
      </trkpt>
      <trkpt lat="48.32858" lon="-3.60684">
        <ele>252</ele>
        <time>2021-07-08T12:26:52Z</time>
      </trkpt>
      <trkpt lat="48.32857" lon="-3.60678">
        <ele>252</ele>
        <time>2021-07-08T12:26:53Z</time>
      </trkpt>
      <trkpt lat="48.32857" lon="-3.60673">
        <ele>252</ele>
        <time>2021-07-08T12:26:54Z</time>
      </trkpt>
      <trkpt lat="48.32856" lon="-3.60667">
        <ele>252</ele>
        <time>2021-07-08T12:26:55Z</time>
      </trkpt>
      <trkpt lat="48.32855" lon="-3.60662">
        <ele>252</ele>
        <time>2021-07-08T12:26:56Z</time>
      </trkpt>
      <trkpt lat="48.32854" lon="-3.60656">
        <ele>251</ele>
        <time>2021-07-08T12:26:57Z</time>
      </trkpt>
      <trkpt lat="48.32853" lon="-3.6065">
        <ele>251</ele>
        <time>2021-07-08T12:26:58Z</time>
      </trkpt>
      <trkpt lat="48.32852" lon="-3.60644">
        <ele>251</ele>
        <time>2021-07-08T12:27:00Z</time>
      </trkpt>
      <trkpt lat="48.32852" lon="-3.60638">
        <ele>251</ele>
        <time>2021-07-08T12:27:00Z</time>
      </trkpt>
      <trkpt lat="48.3285" lon="-3.60632">
        <ele>251</ele>
        <time>2021-07-08T12:27:01Z</time>
      </trkpt>
      <trkpt lat="48.3285" lon="-3.60626">
        <ele>251</ele>
        <time>2021-07-08T12:27:02Z</time>
      </trkpt>
      <trkpt lat="48.32849" lon="-3.6062">
        <ele>251</ele>
        <time>2021-07-08T12:27:03Z</time>
      </trkpt>
      <trkpt lat="48.32848" lon="-3.60614">
        <ele>250</ele>
        <time>2021-07-08T12:27:04Z</time>
      </trkpt>
      <trkpt lat="48.32847" lon="-3.60608">
        <ele>250</ele>
        <time>2021-07-08T12:27:05Z</time>
      </trkpt>
      <trkpt lat="48.32845" lon="-3.60602">
        <ele>250</ele>
        <time>2021-07-08T12:27:06Z</time>
      </trkpt>
      <trkpt lat="48.32844" lon="-3.60596">
        <ele>250</ele>
        <time>2021-07-08T12:27:07Z</time>
      </trkpt>
      <trkpt lat="48.32842" lon="-3.60591">
        <ele>250</ele>
        <time>2021-07-08T12:27:08Z</time>
      </trkpt>
      <trkpt lat="48.32841" lon="-3.60586">
        <ele>249</ele>
        <time>2021-07-08T12:27:09Z</time>
      </trkpt>
      <trkpt lat="48.32839" lon="-3.60581">
        <ele>249</ele>
        <time>2021-07-08T12:27:10Z</time>
      </trkpt>
      <trkpt lat="48.32838" lon="-3.60575">
        <ele>249</ele>
        <time>2021-07-08T12:27:11Z</time>
      </trkpt>
      <trkpt lat="48.32836" lon="-3.6057">
        <ele>249</ele>
        <time>2021-07-08T12:27:12Z</time>
      </trkpt>
      <trkpt lat="48.32835" lon="-3.60565">
        <ele>249</ele>
        <time>2021-07-08T12:27:13Z</time>
      </trkpt>
      <trkpt lat="48.32834" lon="-3.6056">
        <ele>249</ele>
        <time>2021-07-08T12:27:14Z</time>
      </trkpt>
      <trkpt lat="48.32832" lon="-3.60554">
        <ele>249</ele>
        <time>2021-07-08T12:27:15Z</time>
      </trkpt>
      <trkpt lat="48.3283" lon="-3.60549">
        <ele>248</ele>
        <time>2021-07-08T12:27:16Z</time>
      </trkpt>
      <trkpt lat="48.32827" lon="-3.60538">
        <ele>249</ele>
        <time>2021-07-08T12:27:18Z</time>
      </trkpt>
      <trkpt lat="48.32825" lon="-3.60534">
        <ele>249</ele>
        <time>2021-07-08T12:27:19Z</time>
      </trkpt>
      <trkpt lat="48.32823" lon="-3.60529">
        <ele>249</ele>
        <time>2021-07-08T12:27:20Z</time>
      </trkpt>
      <trkpt lat="48.32821" lon="-3.60524">
        <ele>249</ele>
        <time>2021-07-08T12:27:21Z</time>
      </trkpt>
      <trkpt lat="48.3282" lon="-3.6052">
        <ele>249</ele>
        <time>2021-07-08T12:27:22Z</time>
      </trkpt>
      <trkpt lat="48.32818" lon="-3.60516">
        <ele>249</ele>
        <time>2021-07-08T12:27:22Z</time>
      </trkpt>
      <trkpt lat="48.32815" lon="-3.60512">
        <ele>249</ele>
        <time>2021-07-08T12:27:24Z</time>
      </trkpt>
      <trkpt lat="48.32813" lon="-3.60507">
        <ele>249</ele>
        <time>2021-07-08T12:27:25Z</time>
      </trkpt>
      <trkpt lat="48.3281" lon="-3.60502">
        <ele>249</ele>
        <time>2021-07-08T12:27:26Z</time>
      </trkpt>
      <trkpt lat="48.32808" lon="-3.60497">
        <ele>249</ele>
        <time>2021-07-08T12:27:27Z</time>
      </trkpt>
      <trkpt lat="48.32806" lon="-3.60493">
        <ele>249</ele>
        <time>2021-07-08T12:27:28Z</time>
      </trkpt>
      <trkpt lat="48.32804" lon="-3.60489">
        <ele>248</ele>
        <time>2021-07-08T12:27:29Z</time>
      </trkpt>
      <trkpt lat="48.32804" lon="-3.6049">
        <ele>248</ele>
        <time>2021-07-08T12:27:42Z</time>
      </trkpt>
      <trkpt lat="48.32804" lon="-3.60489">
        <ele>249</ele>
        <time>2021-07-08T12:55:03Z</time>
      </trkpt>
      <trkpt lat="48.32805" lon="-3.60488">
        <ele>249</ele>
        <time>2021-07-08T12:55:08Z</time>
      </trkpt>
      <trkpt lat="48.32805" lon="-3.60487">
        <ele>250</ele>
        <time>2021-07-08T12:55:15Z</time>
      </trkpt>
      <trkpt lat="48.32801" lon="-3.60491">
        <ele>249</ele>
        <time>2021-07-08T12:55:21Z</time>
      </trkpt>
      <trkpt lat="48.328" lon="-3.60492">
        <ele>249</ele>
        <time>2021-07-08T12:55:30Z</time>
      </trkpt>
      <trkpt lat="48.32804" lon="-3.60489">
        <ele>249</ele>
        <time>2021-07-08T12:56:14Z</time>
      </trkpt>
      <trkpt lat="48.32796" lon="-3.6048">
        <ele>250</ele>
        <time>2021-07-08T12:59:00Z</time>
      </trkpt>
      <trkpt lat="48.32793" lon="-3.60477">
        <ele>250</ele>
        <time>2021-07-08T12:59:00Z</time>
      </trkpt>
      <trkpt lat="48.32791" lon="-3.60474">
        <ele>250</ele>
        <time>2021-07-08T12:59:01Z</time>
      </trkpt>
      <trkpt lat="48.32789" lon="-3.60471">
        <ele>250</ele>
        <time>2021-07-08T12:59:02Z</time>
      </trkpt>
      <trkpt lat="48.32786" lon="-3.60468">
        <ele>250</ele>
        <time>2021-07-08T12:59:03Z</time>
      </trkpt>
      <trkpt lat="48.32783" lon="-3.60465">
        <ele>250</ele>
        <time>2021-07-08T12:59:05Z</time>
      </trkpt>
      <trkpt lat="48.32781" lon="-3.60462">
        <ele>250</ele>
        <time>2021-07-08T12:59:06Z</time>
      </trkpt>
      <trkpt lat="48.32777" lon="-3.60459">
        <ele>249</ele>
        <time>2021-07-08T12:59:06Z</time>
      </trkpt>
      <trkpt lat="48.32774" lon="-3.60455">
        <ele>249</ele>
        <time>2021-07-08T12:59:07Z</time>
      </trkpt>
      <trkpt lat="48.32771" lon="-3.60452">
        <ele>248</ele>
        <time>2021-07-08T12:59:08Z</time>
      </trkpt>
      <trkpt lat="48.32768" lon="-3.60449">
        <ele>248</ele>
        <time>2021-07-08T12:59:09Z</time>
      </trkpt>
      <trkpt lat="48.32764" lon="-3.60445">
        <ele>249</ele>
        <time>2021-07-08T12:59:10Z</time>
      </trkpt>
      <trkpt lat="48.3276" lon="-3.60442">
        <ele>249</ele>
        <time>2021-07-08T12:59:11Z</time>
      </trkpt>
      <trkpt lat="48.32757" lon="-3.60439">
        <ele>249</ele>
        <time>2021-07-08T12:59:12Z</time>
      </trkpt>
      <trkpt lat="48.32753" lon="-3.60435">
        <ele>249</ele>
        <time>2021-07-08T12:59:13Z</time>
      </trkpt>
      <trkpt lat="48.32749" lon="-3.60431">
        <ele>249</ele>
        <time>2021-07-08T12:59:14Z</time>
      </trkpt>
      <trkpt lat="48.32745" lon="-3.60428">
        <ele>248</ele>
        <time>2021-07-08T12:59:15Z</time>
      </trkpt>
      <trkpt lat="48.32741" lon="-3.60424">
        <ele>248</ele>
        <time>2021-07-08T12:59:16Z</time>
      </trkpt>
      <trkpt lat="48.32737" lon="-3.60421">
        <ele>248</ele>
        <time>2021-07-08T12:59:17Z</time>
      </trkpt>
      <trkpt lat="48.32733" lon="-3.60419">
        <ele>248</ele>
        <time>2021-07-08T12:59:18Z</time>
      </trkpt>
      <trkpt lat="48.32723" lon="-3.60415">
        <ele>248</ele>
        <time>2021-07-08T12:59:19Z</time>
      </trkpt>
      <trkpt lat="48.32718" lon="-3.60413">
        <ele>248</ele>
        <time>2021-07-08T12:59:21Z</time>
      </trkpt>
      <trkpt lat="48.32712" lon="-3.60411">
        <ele>248</ele>
        <time>2021-07-08T12:59:22Z</time>
      </trkpt>
      <trkpt lat="48.32706" lon="-3.60409">
        <ele>248</ele>
        <time>2021-07-08T12:59:23Z</time>
      </trkpt>
      <trkpt lat="48.32701" lon="-3.60407">
        <ele>248</ele>
        <time>2021-07-08T12:59:24Z</time>
      </trkpt>
      <trkpt lat="48.32696" lon="-3.60406">
        <ele>248</ele>
        <time>2021-07-08T12:59:25Z</time>
      </trkpt>
      <trkpt lat="48.3269" lon="-3.60404">
        <ele>248</ele>
        <time>2021-07-08T12:59:26Z</time>
      </trkpt>
      <trkpt lat="48.32685" lon="-3.60403">
        <ele>248</ele>
        <time>2021-07-08T12:59:27Z</time>
      </trkpt>
      <trkpt lat="48.3268" lon="-3.60401">
        <ele>248</ele>
        <time>2021-07-08T12:59:28Z</time>
      </trkpt>
      <trkpt lat="48.32675" lon="-3.604">
        <ele>248</ele>
        <time>2021-07-08T12:59:29Z</time>
      </trkpt>
      <trkpt lat="48.32671" lon="-3.60399">
        <ele>248</ele>
        <time>2021-07-08T12:59:30Z</time>
      </trkpt>
      <trkpt lat="48.32667" lon="-3.60397">
        <ele>247</ele>
        <time>2021-07-08T12:59:31Z</time>
      </trkpt>
      <trkpt lat="48.32662" lon="-3.60396">
        <ele>247</ele>
        <time>2021-07-08T12:59:32Z</time>
      </trkpt>
      <trkpt lat="48.32658" lon="-3.60395">
        <ele>247</ele>
        <time>2021-07-08T12:59:33Z</time>
      </trkpt>
      <trkpt lat="48.32653" lon="-3.60393">
        <ele>247</ele>
        <time>2021-07-08T12:59:34Z</time>
      </trkpt>
      <trkpt lat="48.32649" lon="-3.60391">
        <ele>247</ele>
        <time>2021-07-08T12:59:35Z</time>
      </trkpt>
      <trkpt lat="48.32644" lon="-3.60389">
        <ele>247</ele>
        <time>2021-07-08T12:59:36Z</time>
      </trkpt>
      <trkpt lat="48.3264" lon="-3.60386">
        <ele>247</ele>
        <time>2021-07-08T12:59:37Z</time>
      </trkpt>
      <trkpt lat="48.3263" lon="-3.6038">
        <ele>247</ele>
        <time>2021-07-08T12:59:38Z</time>
      </trkpt>
      <trkpt lat="48.32625" lon="-3.60377">
        <ele>247</ele>
        <time>2021-07-08T12:59:40Z</time>
      </trkpt>
      <trkpt lat="48.3262" lon="-3.60374">
        <ele>247</ele>
        <time>2021-07-08T12:59:41Z</time>
      </trkpt>
      <trkpt lat="48.32616" lon="-3.6037">
        <ele>247</ele>
        <time>2021-07-08T12:59:42Z</time>
      </trkpt>
      <trkpt lat="48.32612" lon="-3.60367">
        <ele>247</ele>
        <time>2021-07-08T12:59:43Z</time>
      </trkpt>
      <trkpt lat="48.32604" lon="-3.60361">
        <ele>245</ele>
        <time>2021-07-08T12:59:45Z</time>
      </trkpt>
      <trkpt lat="48.32596" lon="-3.60354">
        <ele>244</ele>
        <time>2021-07-08T12:59:47Z</time>
      </trkpt>
      <trkpt lat="48.32593" lon="-3.6035">
        <ele>244</ele>
        <time>2021-07-08T12:59:49Z</time>
      </trkpt>
      <trkpt lat="48.32589" lon="-3.60345">
        <ele>244</ele>
        <time>2021-07-08T12:59:49Z</time>
      </trkpt>
      <trkpt lat="48.32584" lon="-3.6034">
        <ele>244</ele>
        <time>2021-07-08T12:59:50Z</time>
      </trkpt>
      <trkpt lat="48.3258" lon="-3.60334">
        <ele>244</ele>
        <time>2021-07-08T12:59:51Z</time>
      </trkpt>
      <trkpt lat="48.32576" lon="-3.60328">
        <ele>244</ele>
        <time>2021-07-08T12:59:52Z</time>
      </trkpt>
      <trkpt lat="48.32573" lon="-3.60322">
        <ele>244</ele>
        <time>2021-07-08T12:59:53Z</time>
      </trkpt>
      <trkpt lat="48.32569" lon="-3.60317">
        <ele>244</ele>
        <time>2021-07-08T12:59:54Z</time>
      </trkpt>
      <trkpt lat="48.32565" lon="-3.60311">
        <ele>244</ele>
        <time>2021-07-08T12:59:55Z</time>
      </trkpt>
      <trkpt lat="48.32562" lon="-3.60305">
        <ele>244</ele>
        <time>2021-07-08T12:59:56Z</time>
      </trkpt>
      <trkpt lat="48.32555" lon="-3.60292">
        <ele>243</ele>
        <time>2021-07-08T12:59:58Z</time>
      </trkpt>
      <trkpt lat="48.32552" lon="-3.60286">
        <ele>243</ele>
        <time>2021-07-08T12:59:59Z</time>
      </trkpt>
      <trkpt lat="48.3255" lon="-3.6028">
        <ele>243</ele>
        <time>2021-07-08T13:00:00Z</time>
      </trkpt>
      <trkpt lat="48.32547" lon="-3.60274">
        <ele>243</ele>
        <time>2021-07-08T13:00:01Z</time>
      </trkpt>
      <trkpt lat="48.32544" lon="-3.60268">
        <ele>243</ele>
        <time>2021-07-08T13:00:02Z</time>
      </trkpt>
      <trkpt lat="48.32542" lon="-3.60261">
        <ele>243</ele>
        <time>2021-07-08T13:00:03Z</time>
      </trkpt>
      <trkpt lat="48.3254" lon="-3.60254">
        <ele>243</ele>
        <time>2021-07-08T13:00:04Z</time>
      </trkpt>
      <trkpt lat="48.32538" lon="-3.60248">
        <ele>243</ele>
        <time>2021-07-08T13:00:05Z</time>
      </trkpt>
      <trkpt lat="48.32536" lon="-3.60242">
        <ele>243</ele>
        <time>2021-07-08T13:00:06Z</time>
      </trkpt>
      <trkpt lat="48.32531" lon="-3.60225">
        <ele>243</ele>
        <time>2021-07-08T13:00:09Z</time>
      </trkpt>
      <trkpt lat="48.32526" lon="-3.60206">
        <ele>242</ele>
        <time>2021-07-08T13:00:12Z</time>
      </trkpt>
      <trkpt lat="48.32522" lon="-3.60193">
        <ele>242</ele>
        <time>2021-07-08T13:00:14Z</time>
      </trkpt>
      <trkpt lat="48.32518" lon="-3.60174">
        <ele>242</ele>
        <time>2021-07-08T13:00:17Z</time>
      </trkpt>
      <trkpt lat="48.32515" lon="-3.60157">
        <ele>242</ele>
        <time>2021-07-08T13:00:19Z</time>
      </trkpt>
      <trkpt lat="48.32512" lon="-3.60141">
        <ele>242</ele>
        <time>2021-07-08T13:00:21Z</time>
      </trkpt>
      <trkpt lat="48.3251" lon="-3.60127">
        <ele>242</ele>
        <time>2021-07-08T13:00:23Z</time>
      </trkpt>
      <trkpt lat="48.32506" lon="-3.60113">
        <ele>241</ele>
        <time>2021-07-08T13:00:25Z</time>
      </trkpt>
      <trkpt lat="48.32503" lon="-3.60099">
        <ele>241</ele>
        <time>2021-07-08T13:00:27Z</time>
      </trkpt>
      <trkpt lat="48.325" lon="-3.60085">
        <ele>241</ele>
        <time>2021-07-08T13:00:29Z</time>
      </trkpt>
      <trkpt lat="48.32496" lon="-3.60069">
        <ele>241</ele>
        <time>2021-07-08T13:00:31Z</time>
      </trkpt>
      <trkpt lat="48.3249" lon="-3.60055">
        <ele>240</ele>
        <time>2021-07-08T13:00:33Z</time>
      </trkpt>
      <trkpt lat="48.32479" lon="-3.60035">
        <ele>240</ele>
        <time>2021-07-08T13:00:35Z</time>
      </trkpt>
      <trkpt lat="48.32471" lon="-3.60024">
        <ele>240</ele>
        <time>2021-07-08T13:00:38Z</time>
      </trkpt>
      <trkpt lat="48.32464" lon="-3.60013">
        <ele>239</ele>
        <time>2021-07-08T13:00:40Z</time>
      </trkpt>
      <trkpt lat="48.32456" lon="-3.60003">
        <ele>239</ele>
        <time>2021-07-08T13:00:42Z</time>
      </trkpt>
      <trkpt lat="48.32447" lon="-3.59992">
        <ele>239</ele>
        <time>2021-07-08T13:00:44Z</time>
      </trkpt>
      <trkpt lat="48.32443" lon="-3.59987">
        <ele>238</ele>
        <time>2021-07-08T13:00:45Z</time>
      </trkpt>
      <trkpt lat="48.32439" lon="-3.59982">
        <ele>238</ele>
        <time>2021-07-08T13:00:46Z</time>
      </trkpt>
      <trkpt lat="48.32435" lon="-3.59977">
        <ele>238</ele>
        <time>2021-07-08T13:00:47Z</time>
      </trkpt>
      <trkpt lat="48.32425" lon="-3.59964">
        <ele>237</ele>
        <time>2021-07-08T13:00:50Z</time>
      </trkpt>
      <trkpt lat="48.32417" lon="-3.59953">
        <ele>237</ele>
        <time>2021-07-08T13:00:52Z</time>
      </trkpt>
      <trkpt lat="48.32406" lon="-3.59941">
        <ele>237</ele>
        <time>2021-07-08T13:00:55Z</time>
      </trkpt>
      <trkpt lat="48.32403" lon="-3.59936">
        <ele>237</ele>
        <time>2021-07-08T13:00:56Z</time>
      </trkpt>
      <trkpt lat="48.32396" lon="-3.59925">
        <ele>236</ele>
        <time>2021-07-08T13:00:58Z</time>
      </trkpt>
      <trkpt lat="48.32392" lon="-3.59919">
        <ele>236</ele>
        <time>2021-07-08T13:00:59Z</time>
      </trkpt>
      <trkpt lat="48.32388" lon="-3.59913">
        <ele>236</ele>
        <time>2021-07-08T13:01:00Z</time>
      </trkpt>
      <trkpt lat="48.32385" lon="-3.59908">
        <ele>236</ele>
        <time>2021-07-08T13:01:01Z</time>
      </trkpt>
      <trkpt lat="48.32381" lon="-3.59904">
        <ele>236</ele>
        <time>2021-07-08T13:01:01Z</time>
      </trkpt>
      <trkpt lat="48.32374" lon="-3.59894">
        <ele>236</ele>
        <time>2021-07-08T13:01:04Z</time>
      </trkpt>
      <trkpt lat="48.32365" lon="-3.59883">
        <ele>236</ele>
        <time>2021-07-08T13:01:06Z</time>
      </trkpt>
      <trkpt lat="48.32361" lon="-3.59877">
        <ele>236</ele>
        <time>2021-07-08T13:01:07Z</time>
      </trkpt>
      <trkpt lat="48.32357" lon="-3.59872">
        <ele>236</ele>
        <time>2021-07-08T13:01:08Z</time>
      </trkpt>
      <trkpt lat="48.32354" lon="-3.59867">
        <ele>236</ele>
        <time>2021-07-08T13:01:09Z</time>
      </trkpt>
      <trkpt lat="48.3235" lon="-3.59862">
        <ele>236</ele>
        <time>2021-07-08T13:01:10Z</time>
      </trkpt>
      <trkpt lat="48.32346" lon="-3.59856">
        <ele>236</ele>
        <time>2021-07-08T13:01:11Z</time>
      </trkpt>
      <trkpt lat="48.32343" lon="-3.5985">
        <ele>236</ele>
        <time>2021-07-08T13:01:12Z</time>
      </trkpt>
      <trkpt lat="48.32335" lon="-3.59841">
        <ele>236</ele>
        <time>2021-07-08T13:01:13Z</time>
      </trkpt>
      <trkpt lat="48.32332" lon="-3.59836">
        <ele>236</ele>
        <time>2021-07-08T13:01:15Z</time>
      </trkpt>
      <trkpt lat="48.32328" lon="-3.59831">
        <ele>235</ele>
        <time>2021-07-08T13:01:16Z</time>
      </trkpt>
      <trkpt lat="48.32324" lon="-3.59826">
        <ele>235</ele>
        <time>2021-07-08T13:01:17Z</time>
      </trkpt>
      <trkpt lat="48.3232" lon="-3.59822">
        <ele>235</ele>
        <time>2021-07-08T13:01:18Z</time>
      </trkpt>
      <trkpt lat="48.32315" lon="-3.59817">
        <ele>235</ele>
        <time>2021-07-08T13:01:19Z</time>
      </trkpt>
      <trkpt lat="48.32311" lon="-3.59812">
        <ele>235</ele>
        <time>2021-07-08T13:01:20Z</time>
      </trkpt>
      <trkpt lat="48.32307" lon="-3.59807">
        <ele>235</ele>
        <time>2021-07-08T13:01:21Z</time>
      </trkpt>
      <trkpt lat="48.32303" lon="-3.59802">
        <ele>235</ele>
        <time>2021-07-08T13:01:22Z</time>
      </trkpt>
      <trkpt lat="48.32296" lon="-3.59793">
        <ele>234</ele>
        <time>2021-07-08T13:01:24Z</time>
      </trkpt>
      <trkpt lat="48.32289" lon="-3.59784">
        <ele>234</ele>
        <time>2021-07-08T13:01:26Z</time>
      </trkpt>
      <trkpt lat="48.32281" lon="-3.59776">
        <ele>234</ele>
        <time>2021-07-08T13:01:28Z</time>
      </trkpt>
      <trkpt lat="48.32277" lon="-3.59771">
        <ele>234</ele>
        <time>2021-07-08T13:01:29Z</time>
      </trkpt>
      <trkpt lat="48.32273" lon="-3.59766">
        <ele>234</ele>
        <time>2021-07-08T13:01:30Z</time>
      </trkpt>
      <trkpt lat="48.32269" lon="-3.59761">
        <ele>234</ele>
        <time>2021-07-08T13:01:31Z</time>
      </trkpt>
      <trkpt lat="48.3226" lon="-3.59752">
        <ele>234</ele>
        <time>2021-07-08T13:01:32Z</time>
      </trkpt>
      <trkpt lat="48.32257" lon="-3.59747">
        <ele>233</ele>
        <time>2021-07-08T13:01:34Z</time>
      </trkpt>
      <trkpt lat="48.32253" lon="-3.59743">
        <ele>233</ele>
        <time>2021-07-08T13:01:35Z</time>
      </trkpt>
      <trkpt lat="48.32249" lon="-3.59737">
        <ele>233</ele>
        <time>2021-07-08T13:01:36Z</time>
      </trkpt>
      <trkpt lat="48.32245" lon="-3.59733">
        <ele>233</ele>
        <time>2021-07-08T13:01:37Z</time>
      </trkpt>
      <trkpt lat="48.32241" lon="-3.59727">
        <ele>233</ele>
        <time>2021-07-08T13:01:38Z</time>
      </trkpt>
      <trkpt lat="48.32236" lon="-3.59722">
        <ele>232</ele>
        <time>2021-07-08T13:01:39Z</time>
      </trkpt>
      <trkpt lat="48.32232" lon="-3.59718">
        <ele>232</ele>
        <time>2021-07-08T13:01:40Z</time>
      </trkpt>
      <trkpt lat="48.32228" lon="-3.59713">
        <ele>232</ele>
        <time>2021-07-08T13:01:41Z</time>
      </trkpt>
      <trkpt lat="48.32224" lon="-3.5971">
        <ele>232</ele>
        <time>2021-07-08T13:01:42Z</time>
      </trkpt>
      <trkpt lat="48.32215" lon="-3.59701">
        <ele>232</ele>
        <time>2021-07-08T13:01:43Z</time>
      </trkpt>
      <trkpt lat="48.3221" lon="-3.59698">
        <ele>232</ele>
        <time>2021-07-08T13:01:45Z</time>
      </trkpt>
      <trkpt lat="48.32206" lon="-3.59695">
        <ele>232</ele>
        <time>2021-07-08T13:01:46Z</time>
      </trkpt>
      <trkpt lat="48.32201" lon="-3.59693">
        <ele>231</ele>
        <time>2021-07-08T13:01:47Z</time>
      </trkpt>
      <trkpt lat="48.32189" lon="-3.59687">
        <ele>231</ele>
        <time>2021-07-08T13:01:50Z</time>
      </trkpt>
      <trkpt lat="48.32181" lon="-3.59685">
        <ele>231</ele>
        <time>2021-07-08T13:01:51Z</time>
      </trkpt>
      <trkpt lat="48.32174" lon="-3.59683">
        <ele>231</ele>
        <time>2021-07-08T13:01:54Z</time>
      </trkpt>
      <trkpt lat="48.32171" lon="-3.59682">
        <ele>231</ele>
        <time>2021-07-08T13:01:55Z</time>
      </trkpt>
      <trkpt lat="48.32167" lon="-3.59681">
        <ele>230</ele>
        <time>2021-07-08T13:01:56Z</time>
      </trkpt>
      <trkpt lat="48.32164" lon="-3.59681">
        <ele>230</ele>
        <time>2021-07-08T13:01:57Z</time>
      </trkpt>
      <trkpt lat="48.32162" lon="-3.5968">
        <ele>230</ele>
        <time>2021-07-08T13:01:58Z</time>
      </trkpt>
      <trkpt lat="48.32159" lon="-3.59681">
        <ele>230</ele>
        <time>2021-07-08T13:01:59Z</time>
      </trkpt>
      <trkpt lat="48.32156" lon="-3.59681">
        <ele>230</ele>
        <time>2021-07-08T13:02:00Z</time>
      </trkpt>
      <trkpt lat="48.32153" lon="-3.5968">
        <ele>230</ele>
        <time>2021-07-08T13:02:01Z</time>
      </trkpt>
      <trkpt lat="48.3215" lon="-3.59679">
        <ele>230</ele>
        <time>2021-07-08T13:02:02Z</time>
      </trkpt>
      <trkpt lat="48.32147" lon="-3.59679">
        <ele>230</ele>
        <time>2021-07-08T13:02:03Z</time>
      </trkpt>
      <trkpt lat="48.32143" lon="-3.59679">
        <ele>230</ele>
        <time>2021-07-08T13:02:04Z</time>
      </trkpt>
      <trkpt lat="48.3214" lon="-3.5968">
        <ele>230</ele>
        <time>2021-07-08T13:02:05Z</time>
      </trkpt>
      <trkpt lat="48.32137" lon="-3.59679">
        <ele>230</ele>
        <time>2021-07-08T13:02:06Z</time>
      </trkpt>
      <trkpt lat="48.32134" lon="-3.59679">
        <ele>230</ele>
        <time>2021-07-08T13:02:07Z</time>
      </trkpt>
      <trkpt lat="48.32132" lon="-3.59679">
        <ele>230</ele>
        <time>2021-07-08T13:02:08Z</time>
      </trkpt>
      <trkpt lat="48.32129" lon="-3.59678">
        <ele>230</ele>
        <time>2021-07-08T13:02:09Z</time>
      </trkpt>
      <trkpt lat="48.32127" lon="-3.59679">
        <ele>230</ele>
        <time>2021-07-08T13:02:10Z</time>
      </trkpt>
      <trkpt lat="48.32125" lon="-3.59679">
        <ele>230</ele>
        <time>2021-07-08T13:02:11Z</time>
      </trkpt>
      <trkpt lat="48.32122" lon="-3.59679">
        <ele>230</ele>
        <time>2021-07-08T13:02:13Z</time>
      </trkpt>
      <trkpt lat="48.32119" lon="-3.5968">
        <ele>230</ele>
        <time>2021-07-08T13:02:15Z</time>
      </trkpt>
      <trkpt lat="48.32117" lon="-3.5968">
        <ele>230</ele>
        <time>2021-07-08T13:02:17Z</time>
      </trkpt>
      <trkpt lat="48.32116" lon="-3.5968">
        <ele>230</ele>
        <time>2021-07-08T13:02:26Z</time>
      </trkpt>
      <trkpt lat="48.32107" lon="-3.59684">
        <ele>230</ele>
        <time>2021-07-08T13:02:50Z</time>
      </trkpt>
      <trkpt lat="48.32104" lon="-3.59686">
        <ele>230</ele>
        <time>2021-07-08T13:02:52Z</time>
      </trkpt>
      <trkpt lat="48.32103" lon="-3.59687">
        <ele>230</ele>
        <time>2021-07-08T13:02:53Z</time>
      </trkpt>
      <trkpt lat="48.32101" lon="-3.59687">
        <ele>230</ele>
        <time>2021-07-08T13:02:54Z</time>
      </trkpt>
      <trkpt lat="48.32098" lon="-3.59688">
        <ele>230</ele>
        <time>2021-07-08T13:02:55Z</time>
      </trkpt>
      <trkpt lat="48.32096" lon="-3.59689">
        <ele>230</ele>
        <time>2021-07-08T13:02:56Z</time>
      </trkpt>
      <trkpt lat="48.32094" lon="-3.5969">
        <ele>230</ele>
        <time>2021-07-08T13:02:57Z</time>
      </trkpt>
      <trkpt lat="48.32092" lon="-3.59692">
        <ele>230</ele>
        <time>2021-07-08T13:02:58Z</time>
      </trkpt>
      <trkpt lat="48.32089" lon="-3.59693">
        <ele>230</ele>
        <time>2021-07-08T13:02:59Z</time>
      </trkpt>
      <trkpt lat="48.32086" lon="-3.59694">
        <ele>230</ele>
        <time>2021-07-08T13:03:00Z</time>
      </trkpt>
      <trkpt lat="48.32083" lon="-3.59695">
        <ele>231</ele>
        <time>2021-07-08T13:03:01Z</time>
      </trkpt>
      <trkpt lat="48.3208" lon="-3.59697">
        <ele>231</ele>
        <time>2021-07-08T13:03:02Z</time>
      </trkpt>
      <trkpt lat="48.32077" lon="-3.59698">
        <ele>231</ele>
        <time>2021-07-08T13:03:03Z</time>
      </trkpt>
      <trkpt lat="48.32075" lon="-3.597">
        <ele>231</ele>
        <time>2021-07-08T13:03:04Z</time>
      </trkpt>
      <trkpt lat="48.32072" lon="-3.59701">
        <ele>231</ele>
        <time>2021-07-08T13:03:05Z</time>
      </trkpt>
      <trkpt lat="48.32069" lon="-3.59703">
        <ele>231</ele>
        <time>2021-07-08T13:03:06Z</time>
      </trkpt>
      <trkpt lat="48.32066" lon="-3.59705">
        <ele>231</ele>
        <time>2021-07-08T13:03:07Z</time>
      </trkpt>
      <trkpt lat="48.32064" lon="-3.59706">
        <ele>231</ele>
        <time>2021-07-08T13:03:08Z</time>
      </trkpt>
      <trkpt lat="48.32061" lon="-3.59708">
        <ele>231</ele>
        <time>2021-07-08T13:03:09Z</time>
      </trkpt>
      <trkpt lat="48.32056" lon="-3.59712">
        <ele>231</ele>
        <time>2021-07-08T13:03:10Z</time>
      </trkpt>
      <trkpt lat="48.32053" lon="-3.59714">
        <ele>231</ele>
        <time>2021-07-08T13:03:12Z</time>
      </trkpt>
      <trkpt lat="48.32051" lon="-3.59716">
        <ele>231</ele>
        <time>2021-07-08T13:03:13Z</time>
      </trkpt>
      <trkpt lat="48.32048" lon="-3.59718">
        <ele>231</ele>
        <time>2021-07-08T13:03:14Z</time>
      </trkpt>
      <trkpt lat="48.32044" lon="-3.59722">
        <ele>232</ele>
        <time>2021-07-08T13:03:15Z</time>
      </trkpt>
      <trkpt lat="48.32041" lon="-3.59724">
        <ele>232</ele>
        <time>2021-07-08T13:03:17Z</time>
      </trkpt>
      <trkpt lat="48.32039" lon="-3.59726">
        <ele>232</ele>
        <time>2021-07-08T13:03:18Z</time>
      </trkpt>
      <trkpt lat="48.32037" lon="-3.59727">
        <ele>232</ele>
        <time>2021-07-08T13:03:19Z</time>
      </trkpt>
      <trkpt lat="48.32035" lon="-3.59729">
        <ele>231</ele>
        <time>2021-07-08T13:03:20Z</time>
      </trkpt>
      <trkpt lat="48.32032" lon="-3.59731">
        <ele>231</ele>
        <time>2021-07-08T13:03:21Z</time>
      </trkpt>
      <trkpt lat="48.32029" lon="-3.59734">
        <ele>231</ele>
        <time>2021-07-08T13:03:22Z</time>
      </trkpt>
      <trkpt lat="48.32027" lon="-3.59737">
        <ele>231</ele>
        <time>2021-07-08T13:03:23Z</time>
      </trkpt>
      <trkpt lat="48.32024" lon="-3.59739">
        <ele>231</ele>
        <time>2021-07-08T13:03:24Z</time>
      </trkpt>
      <trkpt lat="48.32022" lon="-3.59742">
        <ele>232</ele>
        <time>2021-07-08T13:03:25Z</time>
      </trkpt>
      <trkpt lat="48.32019" lon="-3.59745">
        <ele>232</ele>
        <time>2021-07-08T13:03:26Z</time>
      </trkpt>
      <trkpt lat="48.32017" lon="-3.59747">
        <ele>232</ele>
        <time>2021-07-08T13:03:27Z</time>
      </trkpt>
      <trkpt lat="48.32014" lon="-3.5975">
        <ele>232</ele>
        <time>2021-07-08T13:03:28Z</time>
      </trkpt>
      <trkpt lat="48.32011" lon="-3.59753">
        <ele>232</ele>
        <time>2021-07-08T13:03:29Z</time>
      </trkpt>
      <trkpt lat="48.32008" lon="-3.59756">
        <ele>232</ele>
        <time>2021-07-08T13:03:30Z</time>
      </trkpt>
      <trkpt lat="48.32006" lon="-3.59758">
        <ele>232</ele>
        <time>2021-07-08T13:03:31Z</time>
      </trkpt>
      <trkpt lat="48.32003" lon="-3.59761">
        <ele>232</ele>
        <time>2021-07-08T13:03:32Z</time>
      </trkpt>
      <trkpt lat="48.32001" lon="-3.59764">
        <ele>232</ele>
        <time>2021-07-08T13:03:33Z</time>
      </trkpt>
      <trkpt lat="48.31998" lon="-3.59766">
        <ele>232</ele>
        <time>2021-07-08T13:03:34Z</time>
      </trkpt>
      <trkpt lat="48.31996" lon="-3.59769">
        <ele>232</ele>
        <time>2021-07-08T13:03:35Z</time>
      </trkpt>
      <trkpt lat="48.31994" lon="-3.59771">
        <ele>232</ele>
        <time>2021-07-08T13:03:36Z</time>
      </trkpt>
      <trkpt lat="48.31991" lon="-3.59773">
        <ele>232</ele>
        <time>2021-07-08T13:03:37Z</time>
      </trkpt>
      <trkpt lat="48.31989" lon="-3.59775">
        <ele>232</ele>
        <time>2021-07-08T13:03:38Z</time>
      </trkpt>
      <trkpt lat="48.31986" lon="-3.59778">
        <ele>232</ele>
        <time>2021-07-08T13:03:39Z</time>
      </trkpt>
      <trkpt lat="48.31984" lon="-3.5978">
        <ele>232</ele>
        <time>2021-07-08T13:03:40Z</time>
      </trkpt>
      <trkpt lat="48.31981" lon="-3.59782">
        <ele>233</ele>
        <time>2021-07-08T13:03:41Z</time>
      </trkpt>
      <trkpt lat="48.31978" lon="-3.59785">
        <ele>233</ele>
        <time>2021-07-08T13:03:42Z</time>
      </trkpt>
      <trkpt lat="48.31975" lon="-3.59787">
        <ele>233</ele>
        <time>2021-07-08T13:03:43Z</time>
      </trkpt>
      <trkpt lat="48.31972" lon="-3.5979">
        <ele>233</ele>
        <time>2021-07-08T13:03:44Z</time>
      </trkpt>
      <trkpt lat="48.31969" lon="-3.59793">
        <ele>233</ele>
        <time>2021-07-08T13:03:45Z</time>
      </trkpt>
      <trkpt lat="48.31966" lon="-3.59796">
        <ele>233</ele>
        <time>2021-07-08T13:03:46Z</time>
      </trkpt>
      <trkpt lat="48.31963" lon="-3.59798">
        <ele>233</ele>
        <time>2021-07-08T13:03:47Z</time>
      </trkpt>
      <trkpt lat="48.31959" lon="-3.59803">
        <ele>233</ele>
        <time>2021-07-08T13:03:48Z</time>
      </trkpt>
      <trkpt lat="48.31957" lon="-3.59805">
        <ele>233</ele>
        <time>2021-07-08T13:03:50Z</time>
      </trkpt>
      <trkpt lat="48.31955" lon="-3.59806">
        <ele>233</ele>
        <time>2021-07-08T13:03:51Z</time>
      </trkpt>
      <trkpt lat="48.31953" lon="-3.59808">
        <ele>233</ele>
        <time>2021-07-08T13:03:52Z</time>
      </trkpt>
      <trkpt lat="48.3195" lon="-3.59811">
        <ele>233</ele>
        <time>2021-07-08T13:03:53Z</time>
      </trkpt>
      <trkpt lat="48.31947" lon="-3.59813">
        <ele>233</ele>
        <time>2021-07-08T13:03:54Z</time>
      </trkpt>
      <trkpt lat="48.31942" lon="-3.59818">
        <ele>233</ele>
        <time>2021-07-08T13:03:56Z</time>
      </trkpt>
      <trkpt lat="48.31938" lon="-3.5982">
        <ele>233</ele>
        <time>2021-07-08T13:03:57Z</time>
      </trkpt>
      <trkpt lat="48.31935" lon="-3.59823">
        <ele>233</ele>
        <time>2021-07-08T13:03:58Z</time>
      </trkpt>
      <trkpt lat="48.31933" lon="-3.59826">
        <ele>233</ele>
        <time>2021-07-08T13:03:59Z</time>
      </trkpt>
      <trkpt lat="48.3193" lon="-3.59829">
        <ele>233</ele>
        <time>2021-07-08T13:04:00Z</time>
      </trkpt>
      <trkpt lat="48.31917" lon="-3.59842">
        <ele>233</ele>
        <time>2021-07-08T13:04:04Z</time>
      </trkpt>
      <trkpt lat="48.31908" lon="-3.59851">
        <ele>233</ele>
        <time>2021-07-08T13:04:09Z</time>
      </trkpt>
      <trkpt lat="48.31899" lon="-3.59859">
        <ele>234</ele>
        <time>2021-07-08T13:04:12Z</time>
      </trkpt>
      <trkpt lat="48.31892" lon="-3.59867">
        <ele>234</ele>
        <time>2021-07-08T13:04:14Z</time>
      </trkpt>
      <trkpt lat="48.31889" lon="-3.5987">
        <ele>234</ele>
        <time>2021-07-08T13:04:15Z</time>
      </trkpt>
      <trkpt lat="48.31886" lon="-3.59872">
        <ele>234</ele>
        <time>2021-07-08T13:04:16Z</time>
      </trkpt>
      <trkpt lat="48.31883" lon="-3.59874">
        <ele>234</ele>
        <time>2021-07-08T13:04:17Z</time>
      </trkpt>
      <trkpt lat="48.3188" lon="-3.59876">
        <ele>234</ele>
        <time>2021-07-08T13:04:18Z</time>
      </trkpt>
      <trkpt lat="48.31877" lon="-3.59879">
        <ele>234</ele>
        <time>2021-07-08T13:04:19Z</time>
      </trkpt>
      <trkpt lat="48.31874" lon="-3.59881">
        <ele>234</ele>
        <time>2021-07-08T13:04:20Z</time>
      </trkpt>
      <trkpt lat="48.31871" lon="-3.59883">
        <ele>235</ele>
        <time>2021-07-08T13:04:21Z</time>
      </trkpt>
      <trkpt lat="48.31867" lon="-3.59886">
        <ele>235</ele>
        <time>2021-07-08T13:04:22Z</time>
      </trkpt>
      <trkpt lat="48.31865" lon="-3.5989">
        <ele>235</ele>
        <time>2021-07-08T13:04:23Z</time>
      </trkpt>
      <trkpt lat="48.31863" lon="-3.59893">
        <ele>235</ele>
        <time>2021-07-08T13:04:24Z</time>
      </trkpt>
      <trkpt lat="48.3186" lon="-3.59897">
        <ele>235</ele>
        <time>2021-07-08T13:04:25Z</time>
      </trkpt>
      <trkpt lat="48.31857" lon="-3.599">
        <ele>234</ele>
        <time>2021-07-08T13:04:26Z</time>
      </trkpt>
      <trkpt lat="48.31854" lon="-3.59903">
        <ele>234</ele>
        <time>2021-07-08T13:04:27Z</time>
      </trkpt>
      <trkpt lat="48.31851" lon="-3.59906">
        <ele>234</ele>
        <time>2021-07-08T13:04:28Z</time>
      </trkpt>
      <trkpt lat="48.31849" lon="-3.59909">
        <ele>234</ele>
        <time>2021-07-08T13:04:29Z</time>
      </trkpt>
      <trkpt lat="48.31846" lon="-3.59912">
        <ele>234</ele>
        <time>2021-07-08T13:04:31Z</time>
      </trkpt>
      <trkpt lat="48.31844" lon="-3.59914">
        <ele>234</ele>
        <time>2021-07-08T13:04:31Z</time>
      </trkpt>
      <trkpt lat="48.31839" lon="-3.59918">
        <ele>234</ele>
        <time>2021-07-08T13:04:33Z</time>
      </trkpt>
      <trkpt lat="48.31831" lon="-3.59925">
        <ele>235</ele>
        <time>2021-07-08T13:04:36Z</time>
      </trkpt>
      <trkpt lat="48.31821" lon="-3.59935">
        <ele>235</ele>
        <time>2021-07-08T13:04:39Z</time>
      </trkpt>
      <trkpt lat="48.31812" lon="-3.59943">
        <ele>235</ele>
        <time>2021-07-08T13:04:42Z</time>
      </trkpt>
      <trkpt lat="48.31808" lon="-3.59946">
        <ele>235</ele>
        <time>2021-07-08T13:04:43Z</time>
      </trkpt>
      <trkpt lat="48.31805" lon="-3.59949">
        <ele>235</ele>
        <time>2021-07-08T13:04:44Z</time>
      </trkpt>
      <trkpt lat="48.31802" lon="-3.59951">
        <ele>235</ele>
        <time>2021-07-08T13:04:45Z</time>
      </trkpt>
      <trkpt lat="48.31799" lon="-3.59953">
        <ele>235</ele>
        <time>2021-07-08T13:04:46Z</time>
      </trkpt>
      <trkpt lat="48.31791" lon="-3.59959">
        <ele>235</ele>
        <time>2021-07-08T13:04:49Z</time>
      </trkpt>
      <trkpt lat="48.31779" lon="-3.59966">
        <ele>235</ele>
        <time>2021-07-08T13:04:52Z</time>
      </trkpt>
      <trkpt lat="48.31772" lon="-3.5997">
        <ele>235</ele>
        <time>2021-07-08T13:04:55Z</time>
      </trkpt>
      <trkpt lat="48.31764" lon="-3.59974">
        <ele>236</ele>
        <time>2021-07-08T13:04:57Z</time>
      </trkpt>
      <trkpt lat="48.31761" lon="-3.59976">
        <ele>236</ele>
        <time>2021-07-08T13:04:58Z</time>
      </trkpt>
      <trkpt lat="48.31757" lon="-3.59977">
        <ele>235</ele>
        <time>2021-07-08T13:04:59Z</time>
      </trkpt>
      <trkpt lat="48.31753" lon="-3.59979">
        <ele>235</ele>
        <time>2021-07-08T13:05:00Z</time>
      </trkpt>
      <trkpt lat="48.31749" lon="-3.5998">
        <ele>236</ele>
        <time>2021-07-08T13:05:01Z</time>
      </trkpt>
      <trkpt lat="48.31746" lon="-3.59981">
        <ele>236</ele>
        <time>2021-07-08T13:05:02Z</time>
      </trkpt>
      <trkpt lat="48.31743" lon="-3.59982">
        <ele>236</ele>
        <time>2021-07-08T13:05:03Z</time>
      </trkpt>
      <trkpt lat="48.3174" lon="-3.59982">
        <ele>236</ele>
        <time>2021-07-08T13:05:04Z</time>
      </trkpt>
      <trkpt lat="48.31737" lon="-3.59983">
        <ele>236</ele>
        <time>2021-07-08T13:05:05Z</time>
      </trkpt>
      <trkpt lat="48.31733" lon="-3.59983">
        <ele>236</ele>
        <time>2021-07-08T13:05:06Z</time>
      </trkpt>
      <trkpt lat="48.31729" lon="-3.59984">
        <ele>236</ele>
        <time>2021-07-08T13:05:07Z</time>
      </trkpt>
      <trkpt lat="48.31725" lon="-3.59985">
        <ele>236</ele>
        <time>2021-07-08T13:05:08Z</time>
      </trkpt>
      <trkpt lat="48.3172" lon="-3.59987">
        <ele>236</ele>
        <time>2021-07-08T13:05:09Z</time>
      </trkpt>
      <trkpt lat="48.31716" lon="-3.59987">
        <ele>236</ele>
        <time>2021-07-08T13:05:10Z</time>
      </trkpt>
      <trkpt lat="48.31712" lon="-3.59988">
        <ele>236</ele>
        <time>2021-07-08T13:05:11Z</time>
      </trkpt>
      <trkpt lat="48.31709" lon="-3.59989">
        <ele>236</ele>
        <time>2021-07-08T13:05:12Z</time>
      </trkpt>
      <trkpt lat="48.31705" lon="-3.59989">
        <ele>236</ele>
        <time>2021-07-08T13:05:13Z</time>
      </trkpt>
      <trkpt lat="48.31702" lon="-3.5999">
        <ele>236</ele>
        <time>2021-07-08T13:05:14Z</time>
      </trkpt>
      <trkpt lat="48.31698" lon="-3.5999">
        <ele>236</ele>
        <time>2021-07-08T13:05:15Z</time>
      </trkpt>
      <trkpt lat="48.31696" lon="-3.5999">
        <ele>236</ele>
        <time>2021-07-08T13:05:16Z</time>
      </trkpt>
      <trkpt lat="48.31692" lon="-3.5999">
        <ele>236</ele>
        <time>2021-07-08T13:05:17Z</time>
      </trkpt>
      <trkpt lat="48.31689" lon="-3.5999">
        <ele>236</ele>
        <time>2021-07-08T13:05:18Z</time>
      </trkpt>
      <trkpt lat="48.31686" lon="-3.5999">
        <ele>236</ele>
        <time>2021-07-08T13:05:19Z</time>
      </trkpt>
      <trkpt lat="48.31682" lon="-3.5999">
        <ele>235</ele>
        <time>2021-07-08T13:05:20Z</time>
      </trkpt>
      <trkpt lat="48.31679" lon="-3.59989">
        <ele>235</ele>
        <time>2021-07-08T13:05:21Z</time>
      </trkpt>
      <trkpt lat="48.31676" lon="-3.59989">
        <ele>235</ele>
        <time>2021-07-08T13:05:22Z</time>
      </trkpt>
      <trkpt lat="48.31668" lon="-3.59988">
        <ele>235</ele>
        <time>2021-07-08T13:05:23Z</time>
      </trkpt>
      <trkpt lat="48.31664" lon="-3.59988">
        <ele>235</ele>
        <time>2021-07-08T13:05:25Z</time>
      </trkpt>
      <trkpt lat="48.31651" lon="-3.59986">
        <ele>236</ele>
        <time>2021-07-08T13:05:28Z</time>
      </trkpt>
      <trkpt lat="48.31646" lon="-3.59986">
        <ele>236</ele>
        <time>2021-07-08T13:05:29Z</time>
      </trkpt>
      <trkpt lat="48.31641" lon="-3.59985">
        <ele>236</ele>
        <time>2021-07-08T13:05:30Z</time>
      </trkpt>
      <trkpt lat="48.31637" lon="-3.59985">
        <ele>236</ele>
        <time>2021-07-08T13:05:31Z</time>
      </trkpt>
      <trkpt lat="48.31633" lon="-3.59984">
        <ele>236</ele>
        <time>2021-07-08T13:05:32Z</time>
      </trkpt>
      <trkpt lat="48.31629" lon="-3.59983">
        <ele>236</ele>
        <time>2021-07-08T13:05:33Z</time>
      </trkpt>
      <trkpt lat="48.31625" lon="-3.59981">
        <ele>236</ele>
        <time>2021-07-08T13:05:34Z</time>
      </trkpt>
      <trkpt lat="48.31621" lon="-3.59979">
        <ele>236</ele>
        <time>2021-07-08T13:05:35Z</time>
      </trkpt>
      <trkpt lat="48.31617" lon="-3.59978">
        <ele>236</ele>
        <time>2021-07-08T13:05:36Z</time>
      </trkpt>
      <trkpt lat="48.31613" lon="-3.59976">
        <ele>236</ele>
        <time>2021-07-08T13:05:37Z</time>
      </trkpt>
      <trkpt lat="48.31609" lon="-3.59974">
        <ele>236</ele>
        <time>2021-07-08T13:05:38Z</time>
      </trkpt>
      <trkpt lat="48.31605" lon="-3.59973">
        <ele>236</ele>
        <time>2021-07-08T13:05:39Z</time>
      </trkpt>
      <trkpt lat="48.31601" lon="-3.59971">
        <ele>236</ele>
        <time>2021-07-08T13:05:40Z</time>
      </trkpt>
      <trkpt lat="48.31597" lon="-3.59969">
        <ele>236</ele>
        <time>2021-07-08T13:05:41Z</time>
      </trkpt>
      <trkpt lat="48.3159" lon="-3.59965">
        <ele>236</ele>
        <time>2021-07-08T13:05:42Z</time>
      </trkpt>
      <trkpt lat="48.31586" lon="-3.59962">
        <ele>236</ele>
        <time>2021-07-08T13:05:44Z</time>
      </trkpt>
      <trkpt lat="48.31583" lon="-3.5996">
        <ele>236</ele>
        <time>2021-07-08T13:05:45Z</time>
      </trkpt>
      <trkpt lat="48.31579" lon="-3.59957">
        <ele>236</ele>
        <time>2021-07-08T13:05:46Z</time>
      </trkpt>
      <trkpt lat="48.31575" lon="-3.59954">
        <ele>236</ele>
        <time>2021-07-08T13:05:47Z</time>
      </trkpt>
      <trkpt lat="48.31571" lon="-3.59951">
        <ele>236</ele>
        <time>2021-07-08T13:05:48Z</time>
      </trkpt>
      <trkpt lat="48.31568" lon="-3.59949">
        <ele>236</ele>
        <time>2021-07-08T13:05:49Z</time>
      </trkpt>
      <trkpt lat="48.31564" lon="-3.59946">
        <ele>236</ele>
        <time>2021-07-08T13:05:50Z</time>
      </trkpt>
      <trkpt lat="48.3156" lon="-3.59943">
        <ele>236</ele>
        <time>2021-07-08T13:05:51Z</time>
      </trkpt>
      <trkpt lat="48.31557" lon="-3.5994">
        <ele>236</ele>
        <time>2021-07-08T13:05:52Z</time>
      </trkpt>
      <trkpt lat="48.31553" lon="-3.59937">
        <ele>236</ele>
        <time>2021-07-08T13:05:53Z</time>
      </trkpt>
      <trkpt lat="48.3155" lon="-3.59934">
        <ele>236</ele>
        <time>2021-07-08T13:05:54Z</time>
      </trkpt>
      <trkpt lat="48.31546" lon="-3.59931">
        <ele>236</ele>
        <time>2021-07-08T13:05:55Z</time>
      </trkpt>
      <trkpt lat="48.31543" lon="-3.59928">
        <ele>236</ele>
        <time>2021-07-08T13:05:56Z</time>
      </trkpt>
      <trkpt lat="48.31539" lon="-3.59925">
        <ele>236</ele>
        <time>2021-07-08T13:05:57Z</time>
      </trkpt>
      <trkpt lat="48.31536" lon="-3.59921">
        <ele>236</ele>
        <time>2021-07-08T13:05:58Z</time>
      </trkpt>
      <trkpt lat="48.31532" lon="-3.59918">
        <ele>236</ele>
        <time>2021-07-08T13:05:59Z</time>
      </trkpt>
      <trkpt lat="48.31529" lon="-3.59914">
        <ele>236</ele>
        <time>2021-07-08T13:06:00Z</time>
      </trkpt>
      <trkpt lat="48.31522" lon="-3.59907">
        <ele>236</ele>
        <time>2021-07-08T13:06:01Z</time>
      </trkpt>
      <trkpt lat="48.31519" lon="-3.59904">
        <ele>236</ele>
        <time>2021-07-08T13:06:03Z</time>
      </trkpt>
      <trkpt lat="48.31515" lon="-3.599">
        <ele>236</ele>
        <time>2021-07-08T13:06:04Z</time>
      </trkpt>
      <trkpt lat="48.31512" lon="-3.59896">
        <ele>236</ele>
        <time>2021-07-08T13:06:05Z</time>
      </trkpt>
      <trkpt lat="48.31509" lon="-3.59892">
        <ele>236</ele>
        <time>2021-07-08T13:06:06Z</time>
      </trkpt>
      <trkpt lat="48.31506" lon="-3.59888">
        <ele>236</ele>
        <time>2021-07-08T13:06:07Z</time>
      </trkpt>
      <trkpt lat="48.31503" lon="-3.59884">
        <ele>236</ele>
        <time>2021-07-08T13:06:08Z</time>
      </trkpt>
      <trkpt lat="48.315" lon="-3.5988">
        <ele>236</ele>
        <time>2021-07-08T13:06:09Z</time>
      </trkpt>
      <trkpt lat="48.31497" lon="-3.59876">
        <ele>236</ele>
        <time>2021-07-08T13:06:10Z</time>
      </trkpt>
      <trkpt lat="48.31494" lon="-3.59872">
        <ele>236</ele>
        <time>2021-07-08T13:06:11Z</time>
      </trkpt>
      <trkpt lat="48.31492" lon="-3.59869">
        <ele>236</ele>
        <time>2021-07-08T13:06:12Z</time>
      </trkpt>
      <trkpt lat="48.31489" lon="-3.59865">
        <ele>236</ele>
        <time>2021-07-08T13:06:13Z</time>
      </trkpt>
      <trkpt lat="48.31487" lon="-3.5986">
        <ele>236</ele>
        <time>2021-07-08T13:06:14Z</time>
      </trkpt>
      <trkpt lat="48.31484" lon="-3.59855">
        <ele>236</ele>
        <time>2021-07-08T13:06:15Z</time>
      </trkpt>
      <trkpt lat="48.31481" lon="-3.59851">
        <ele>236</ele>
        <time>2021-07-08T13:06:16Z</time>
      </trkpt>
      <trkpt lat="48.31479" lon="-3.59846">
        <ele>236</ele>
        <time>2021-07-08T13:06:17Z</time>
      </trkpt>
      <trkpt lat="48.31476" lon="-3.59841">
        <ele>236</ele>
        <time>2021-07-08T13:06:18Z</time>
      </trkpt>
      <trkpt lat="48.31473" lon="-3.59836">
        <ele>236</ele>
        <time>2021-07-08T13:06:19Z</time>
      </trkpt>
      <trkpt lat="48.31468" lon="-3.59826">
        <ele>236</ele>
        <time>2021-07-08T13:06:20Z</time>
      </trkpt>
      <trkpt lat="48.31465" lon="-3.5982">
        <ele>236</ele>
        <time>2021-07-08T13:06:22Z</time>
      </trkpt>
      <trkpt lat="48.31463" lon="-3.59814">
        <ele>235</ele>
        <time>2021-07-08T13:06:23Z</time>
      </trkpt>
      <trkpt lat="48.3146" lon="-3.59809">
        <ele>235</ele>
        <time>2021-07-08T13:06:24Z</time>
      </trkpt>
      <trkpt lat="48.31458" lon="-3.59803">
        <ele>235</ele>
        <time>2021-07-08T13:06:25Z</time>
      </trkpt>
      <trkpt lat="48.31456" lon="-3.59797">
        <ele>235</ele>
        <time>2021-07-08T13:06:26Z</time>
      </trkpt>
      <trkpt lat="48.31454" lon="-3.59792">
        <ele>235</ele>
        <time>2021-07-08T13:06:27Z</time>
      </trkpt>
      <trkpt lat="48.31452" lon="-3.59786">
        <ele>235</ele>
        <time>2021-07-08T13:06:28Z</time>
      </trkpt>
      <trkpt lat="48.3145" lon="-3.5978">
        <ele>235</ele>
        <time>2021-07-08T13:06:29Z</time>
      </trkpt>
      <trkpt lat="48.31448" lon="-3.59775">
        <ele>236</ele>
        <time>2021-07-08T13:06:30Z</time>
      </trkpt>
      <trkpt lat="48.31445" lon="-3.59768">
        <ele>236</ele>
        <time>2021-07-08T13:06:31Z</time>
      </trkpt>
      <trkpt lat="48.31443" lon="-3.59762">
        <ele>236</ele>
        <time>2021-07-08T13:06:32Z</time>
      </trkpt>
      <trkpt lat="48.31441" lon="-3.59756">
        <ele>236</ele>
        <time>2021-07-08T13:06:33Z</time>
      </trkpt>
      <trkpt lat="48.31439" lon="-3.5975">
        <ele>236</ele>
        <time>2021-07-08T13:06:34Z</time>
      </trkpt>
      <trkpt lat="48.31437" lon="-3.59743">
        <ele>236</ele>
        <time>2021-07-08T13:06:35Z</time>
      </trkpt>
      <trkpt lat="48.31435" lon="-3.59737">
        <ele>236</ele>
        <time>2021-07-08T13:06:36Z</time>
      </trkpt>
      <trkpt lat="48.31433" lon="-3.59732">
        <ele>236</ele>
        <time>2021-07-08T13:06:37Z</time>
      </trkpt>
      <trkpt lat="48.31431" lon="-3.59726">
        <ele>236</ele>
        <time>2021-07-08T13:06:38Z</time>
      </trkpt>
      <trkpt lat="48.3143" lon="-3.5972">
        <ele>235</ele>
        <time>2021-07-08T13:06:39Z</time>
      </trkpt>
      <trkpt lat="48.31428" lon="-3.59714">
        <ele>235</ele>
        <time>2021-07-08T13:06:40Z</time>
      </trkpt>
      <trkpt lat="48.31427" lon="-3.59708">
        <ele>235</ele>
        <time>2021-07-08T13:06:41Z</time>
      </trkpt>
      <trkpt lat="48.31425" lon="-3.59702">
        <ele>235</ele>
        <time>2021-07-08T13:06:42Z</time>
      </trkpt>
      <trkpt lat="48.31424" lon="-3.59696">
        <ele>235</ele>
        <time>2021-07-08T13:06:43Z</time>
      </trkpt>
      <trkpt lat="48.31422" lon="-3.5969">
        <ele>234</ele>
        <time>2021-07-08T13:06:44Z</time>
      </trkpt>
      <trkpt lat="48.31421" lon="-3.59683">
        <ele>234</ele>
        <time>2021-07-08T13:06:45Z</time>
      </trkpt>
      <trkpt lat="48.31419" lon="-3.59677">
        <ele>234</ele>
        <time>2021-07-08T13:06:46Z</time>
      </trkpt>
      <trkpt lat="48.31418" lon="-3.59671">
        <ele>234</ele>
        <time>2021-07-08T13:06:47Z</time>
      </trkpt>
      <trkpt lat="48.31416" lon="-3.59664">
        <ele>234</ele>
        <time>2021-07-08T13:06:48Z</time>
      </trkpt>
      <trkpt lat="48.31415" lon="-3.59658">
        <ele>234</ele>
        <time>2021-07-08T13:06:49Z</time>
      </trkpt>
      <trkpt lat="48.31413" lon="-3.59651">
        <ele>234</ele>
        <time>2021-07-08T13:06:50Z</time>
      </trkpt>
      <trkpt lat="48.31412" lon="-3.59645">
        <ele>234</ele>
        <time>2021-07-08T13:06:51Z</time>
      </trkpt>
      <trkpt lat="48.3141" lon="-3.59639">
        <ele>234</ele>
        <time>2021-07-08T13:06:52Z</time>
      </trkpt>
      <trkpt lat="48.31408" lon="-3.59632">
        <ele>234</ele>
        <time>2021-07-08T13:06:53Z</time>
      </trkpt>
      <trkpt lat="48.31407" lon="-3.59626">
        <ele>234</ele>
        <time>2021-07-08T13:06:54Z</time>
      </trkpt>
      <trkpt lat="48.31405" lon="-3.59619">
        <ele>234</ele>
        <time>2021-07-08T13:06:55Z</time>
      </trkpt>
      <trkpt lat="48.31403" lon="-3.59613">
        <ele>234</ele>
        <time>2021-07-08T13:06:56Z</time>
      </trkpt>
      <trkpt lat="48.31402" lon="-3.59607">
        <ele>234</ele>
        <time>2021-07-08T13:06:57Z</time>
      </trkpt>
      <trkpt lat="48.314" lon="-3.596">
        <ele>234</ele>
        <time>2021-07-08T13:06:58Z</time>
      </trkpt>
      <trkpt lat="48.31399" lon="-3.59594">
        <ele>234</ele>
        <time>2021-07-08T13:06:59Z</time>
      </trkpt>
      <trkpt lat="48.31397" lon="-3.59588">
        <ele>234</ele>
        <time>2021-07-08T13:07:00Z</time>
      </trkpt>
      <trkpt lat="48.31396" lon="-3.59582">
        <ele>234</ele>
        <time>2021-07-08T13:07:01Z</time>
      </trkpt>
      <trkpt lat="48.31395" lon="-3.59576">
        <ele>234</ele>
        <time>2021-07-08T13:07:02Z</time>
      </trkpt>
      <trkpt lat="48.31393" lon="-3.5957">
        <ele>234</ele>
        <time>2021-07-08T13:07:03Z</time>
      </trkpt>
      <trkpt lat="48.31392" lon="-3.59563">
        <ele>234</ele>
        <time>2021-07-08T13:07:04Z</time>
      </trkpt>
      <trkpt lat="48.3139" lon="-3.59557">
        <ele>234</ele>
        <time>2021-07-08T13:07:05Z</time>
      </trkpt>
      <trkpt lat="48.31389" lon="-3.5955">
        <ele>234</ele>
        <time>2021-07-08T13:07:06Z</time>
      </trkpt>
      <trkpt lat="48.31387" lon="-3.59544">
        <ele>234</ele>
        <time>2021-07-08T13:07:07Z</time>
      </trkpt>
      <trkpt lat="48.31386" lon="-3.59537">
        <ele>234</ele>
        <time>2021-07-08T13:07:08Z</time>
      </trkpt>
      <trkpt lat="48.31385" lon="-3.59532">
        <ele>234</ele>
        <time>2021-07-08T13:07:09Z</time>
      </trkpt>
      <trkpt lat="48.31384" lon="-3.59526">
        <ele>234</ele>
        <time>2021-07-08T13:07:10Z</time>
      </trkpt>
      <trkpt lat="48.31382" lon="-3.5952">
        <ele>234</ele>
        <time>2021-07-08T13:07:11Z</time>
      </trkpt>
      <trkpt lat="48.3138" lon="-3.59514">
        <ele>234</ele>
        <time>2021-07-08T13:07:12Z</time>
      </trkpt>
      <trkpt lat="48.31379" lon="-3.59508">
        <ele>234</ele>
        <time>2021-07-08T13:07:13Z</time>
      </trkpt>
      <trkpt lat="48.31377" lon="-3.59501">
        <ele>234</ele>
        <time>2021-07-08T13:07:14Z</time>
      </trkpt>
      <trkpt lat="48.31375" lon="-3.59495">
        <ele>234</ele>
        <time>2021-07-08T13:07:15Z</time>
      </trkpt>
      <trkpt lat="48.31373" lon="-3.59487">
        <ele>234</ele>
        <time>2021-07-08T13:07:16Z</time>
      </trkpt>
      <trkpt lat="48.31371" lon="-3.5948">
        <ele>234</ele>
        <time>2021-07-08T13:07:17Z</time>
      </trkpt>
      <trkpt lat="48.3137" lon="-3.59473">
        <ele>234</ele>
        <time>2021-07-08T13:07:18Z</time>
      </trkpt>
      <trkpt lat="48.31369" lon="-3.59468">
        <ele>234</ele>
        <time>2021-07-08T13:07:19Z</time>
      </trkpt>
      <trkpt lat="48.31367" lon="-3.59462">
        <ele>234</ele>
        <time>2021-07-08T13:07:20Z</time>
      </trkpt>
      <trkpt lat="48.31366" lon="-3.59456">
        <ele>234</ele>
        <time>2021-07-08T13:07:21Z</time>
      </trkpt>
      <trkpt lat="48.31364" lon="-3.5945">
        <ele>234</ele>
        <time>2021-07-08T13:07:22Z</time>
      </trkpt>
      <trkpt lat="48.31363" lon="-3.59444">
        <ele>234</ele>
        <time>2021-07-08T13:07:23Z</time>
      </trkpt>
      <trkpt lat="48.31361" lon="-3.59437">
        <ele>234</ele>
        <time>2021-07-08T13:07:24Z</time>
      </trkpt>
      <trkpt lat="48.3136" lon="-3.59431">
        <ele>234</ele>
        <time>2021-07-08T13:07:25Z</time>
      </trkpt>
      <trkpt lat="48.31359" lon="-3.59426">
        <ele>234</ele>
        <time>2021-07-08T13:07:26Z</time>
      </trkpt>
      <trkpt lat="48.31357" lon="-3.5942">
        <ele>234</ele>
        <time>2021-07-08T13:07:27Z</time>
      </trkpt>
      <trkpt lat="48.31356" lon="-3.59414">
        <ele>235</ele>
        <time>2021-07-08T13:07:28Z</time>
      </trkpt>
      <trkpt lat="48.31354" lon="-3.59408">
        <ele>235</ele>
        <time>2021-07-08T13:07:29Z</time>
      </trkpt>
      <trkpt lat="48.31353" lon="-3.59402">
        <ele>235</ele>
        <time>2021-07-08T13:07:30Z</time>
      </trkpt>
      <trkpt lat="48.31351" lon="-3.59397">
        <ele>235</ele>
        <time>2021-07-08T13:07:31Z</time>
      </trkpt>
      <trkpt lat="48.3135" lon="-3.59391">
        <ele>235</ele>
        <time>2021-07-08T13:07:32Z</time>
      </trkpt>
      <trkpt lat="48.31348" lon="-3.59386">
        <ele>235</ele>
        <time>2021-07-08T13:07:33Z</time>
      </trkpt>
      <trkpt lat="48.31347" lon="-3.5938">
        <ele>235</ele>
        <time>2021-07-08T13:07:34Z</time>
      </trkpt>
      <trkpt lat="48.31346" lon="-3.59375">
        <ele>235</ele>
        <time>2021-07-08T13:07:35Z</time>
      </trkpt>
      <trkpt lat="48.31343" lon="-3.59364">
        <ele>235</ele>
        <time>2021-07-08T13:07:36Z</time>
      </trkpt>
      <trkpt lat="48.31342" lon="-3.59359">
        <ele>235</ele>
        <time>2021-07-08T13:07:38Z</time>
      </trkpt>
      <trkpt lat="48.31341" lon="-3.59354">
        <ele>235</ele>
        <time>2021-07-08T13:07:39Z</time>
      </trkpt>
      <trkpt lat="48.31339" lon="-3.59349">
        <ele>235</ele>
        <time>2021-07-08T13:07:40Z</time>
      </trkpt>
      <trkpt lat="48.31339" lon="-3.59344">
        <ele>235</ele>
        <time>2021-07-08T13:07:41Z</time>
      </trkpt>
      <trkpt lat="48.31337" lon="-3.59339">
        <ele>235</ele>
        <time>2021-07-08T13:07:42Z</time>
      </trkpt>
      <trkpt lat="48.31335" lon="-3.59329">
        <ele>235</ele>
        <time>2021-07-08T13:07:43Z</time>
      </trkpt>
      <trkpt lat="48.31334" lon="-3.59324">
        <ele>235</ele>
        <time>2021-07-08T13:07:45Z</time>
      </trkpt>
      <trkpt lat="48.31333" lon="-3.59319">
        <ele>235</ele>
        <time>2021-07-08T13:07:46Z</time>
      </trkpt>
      <trkpt lat="48.31332" lon="-3.59314">
        <ele>235</ele>
        <time>2021-07-08T13:07:47Z</time>
      </trkpt>
      <trkpt lat="48.31331" lon="-3.59309">
        <ele>235</ele>
        <time>2021-07-08T13:07:48Z</time>
      </trkpt>
      <trkpt lat="48.3133" lon="-3.59304">
        <ele>235</ele>
        <time>2021-07-08T13:07:50Z</time>
      </trkpt>
      <trkpt lat="48.31329" lon="-3.59299">
        <ele>235</ele>
        <time>2021-07-08T13:07:50Z</time>
      </trkpt>
      <trkpt lat="48.31328" lon="-3.59294">
        <ele>235</ele>
        <time>2021-07-08T13:07:51Z</time>
      </trkpt>
      <trkpt lat="48.31326" lon="-3.59289">
        <ele>235</ele>
        <time>2021-07-08T13:07:52Z</time>
      </trkpt>
      <trkpt lat="48.31325" lon="-3.59283">
        <ele>235</ele>
        <time>2021-07-08T13:07:53Z</time>
      </trkpt>
      <trkpt lat="48.31323" lon="-3.59278">
        <ele>235</ele>
        <time>2021-07-08T13:07:54Z</time>
      </trkpt>
      <trkpt lat="48.3132" lon="-3.59268">
        <ele>235</ele>
        <time>2021-07-08T13:07:56Z</time>
      </trkpt>
      <trkpt lat="48.31319" lon="-3.59263">
        <ele>235</ele>
        <time>2021-07-08T13:07:57Z</time>
      </trkpt>
      <trkpt lat="48.31317" lon="-3.59258">
        <ele>235</ele>
        <time>2021-07-08T13:07:58Z</time>
      </trkpt>
      <trkpt lat="48.31316" lon="-3.59253">
        <ele>235</ele>
        <time>2021-07-08T13:07:59Z</time>
      </trkpt>
      <trkpt lat="48.31315" lon="-3.59248">
        <ele>235</ele>
        <time>2021-07-08T13:08:00Z</time>
      </trkpt>
      <trkpt lat="48.31314" lon="-3.59242">
        <ele>235</ele>
        <time>2021-07-08T13:08:01Z</time>
      </trkpt>
      <trkpt lat="48.31312" lon="-3.59237">
        <ele>235</ele>
        <time>2021-07-08T13:08:02Z</time>
      </trkpt>
      <trkpt lat="48.31311" lon="-3.59232">
        <ele>235</ele>
        <time>2021-07-08T13:08:03Z</time>
      </trkpt>
      <trkpt lat="48.3131" lon="-3.59227">
        <ele>235</ele>
        <time>2021-07-08T13:08:04Z</time>
      </trkpt>
      <trkpt lat="48.31308" lon="-3.59222">
        <ele>235</ele>
        <time>2021-07-08T13:08:05Z</time>
      </trkpt>
      <trkpt lat="48.31307" lon="-3.59217">
        <ele>235</ele>
        <time>2021-07-08T13:08:06Z</time>
      </trkpt>
      <trkpt lat="48.31306" lon="-3.59213">
        <ele>235</ele>
        <time>2021-07-08T13:08:07Z</time>
      </trkpt>
      <trkpt lat="48.31305" lon="-3.59208">
        <ele>235</ele>
        <time>2021-07-08T13:08:08Z</time>
      </trkpt>
      <trkpt lat="48.31304" lon="-3.59203">
        <ele>236</ele>
        <time>2021-07-08T13:08:09Z</time>
      </trkpt>
      <trkpt lat="48.31302" lon="-3.59199">
        <ele>236</ele>
        <time>2021-07-08T13:08:10Z</time>
      </trkpt>
      <trkpt lat="48.31301" lon="-3.59193">
        <ele>236</ele>
        <time>2021-07-08T13:08:11Z</time>
      </trkpt>
      <trkpt lat="48.313" lon="-3.59188">
        <ele>236</ele>
        <time>2021-07-08T13:08:12Z</time>
      </trkpt>
      <trkpt lat="48.31298" lon="-3.59182">
        <ele>236</ele>
        <time>2021-07-08T13:08:13Z</time>
      </trkpt>
      <trkpt lat="48.31295" lon="-3.59171">
        <ele>236</ele>
        <time>2021-07-08T13:08:14Z</time>
      </trkpt>
      <trkpt lat="48.31294" lon="-3.59165">
        <ele>236</ele>
        <time>2021-07-08T13:08:16Z</time>
      </trkpt>
      <trkpt lat="48.31292" lon="-3.5916">
        <ele>236</ele>
        <time>2021-07-08T13:08:17Z</time>
      </trkpt>
      <trkpt lat="48.31291" lon="-3.59154">
        <ele>236</ele>
        <time>2021-07-08T13:08:18Z</time>
      </trkpt>
      <trkpt lat="48.3129" lon="-3.59149">
        <ele>236</ele>
        <time>2021-07-08T13:08:19Z</time>
      </trkpt>
      <trkpt lat="48.31289" lon="-3.59144">
        <ele>236</ele>
        <time>2021-07-08T13:08:20Z</time>
      </trkpt>
      <trkpt lat="48.31287" lon="-3.59139">
        <ele>236</ele>
        <time>2021-07-08T13:08:21Z</time>
      </trkpt>
      <trkpt lat="48.31286" lon="-3.59133">
        <ele>236</ele>
        <time>2021-07-08T13:08:22Z</time>
      </trkpt>
      <trkpt lat="48.31285" lon="-3.59128">
        <ele>236</ele>
        <time>2021-07-08T13:08:23Z</time>
      </trkpt>
      <trkpt lat="48.31284" lon="-3.59123">
        <ele>236</ele>
        <time>2021-07-08T13:08:24Z</time>
      </trkpt>
      <trkpt lat="48.31283" lon="-3.59118">
        <ele>236</ele>
        <time>2021-07-08T13:08:25Z</time>
      </trkpt>
      <trkpt lat="48.31281" lon="-3.59113">
        <ele>236</ele>
        <time>2021-07-08T13:08:26Z</time>
      </trkpt>
      <trkpt lat="48.3128" lon="-3.59109">
        <ele>236</ele>
        <time>2021-07-08T13:08:27Z</time>
      </trkpt>
      <trkpt lat="48.31279" lon="-3.59104">
        <ele>236</ele>
        <time>2021-07-08T13:08:28Z</time>
      </trkpt>
      <trkpt lat="48.31277" lon="-3.59099">
        <ele>236</ele>
        <time>2021-07-08T13:08:29Z</time>
      </trkpt>
      <trkpt lat="48.31275" lon="-3.5909">
        <ele>236</ele>
        <time>2021-07-08T13:08:31Z</time>
      </trkpt>
      <trkpt lat="48.31274" lon="-3.59085">
        <ele>236</ele>
        <time>2021-07-08T13:08:32Z</time>
      </trkpt>
      <trkpt lat="48.31273" lon="-3.59081">
        <ele>236</ele>
        <time>2021-07-08T13:08:33Z</time>
      </trkpt>
      <trkpt lat="48.31272" lon="-3.59076">
        <ele>236</ele>
        <time>2021-07-08T13:08:33Z</time>
      </trkpt>
      <trkpt lat="48.31271" lon="-3.59071">
        <ele>236</ele>
        <time>2021-07-08T13:08:35Z</time>
      </trkpt>
      <trkpt lat="48.31269" lon="-3.59066">
        <ele>236</ele>
        <time>2021-07-08T13:08:36Z</time>
      </trkpt>
      <trkpt lat="48.31268" lon="-3.5906">
        <ele>236</ele>
        <time>2021-07-08T13:08:37Z</time>
      </trkpt>
      <trkpt lat="48.31267" lon="-3.59055">
        <ele>236</ele>
        <time>2021-07-08T13:08:38Z</time>
      </trkpt>
      <trkpt lat="48.31265" lon="-3.5905">
        <ele>236</ele>
        <time>2021-07-08T13:08:39Z</time>
      </trkpt>
      <trkpt lat="48.31264" lon="-3.59045">
        <ele>236</ele>
        <time>2021-07-08T13:08:40Z</time>
      </trkpt>
      <trkpt lat="48.31262" lon="-3.5904">
        <ele>236</ele>
        <time>2021-07-08T13:08:41Z</time>
      </trkpt>
      <trkpt lat="48.31261" lon="-3.59036">
        <ele>236</ele>
        <time>2021-07-08T13:08:42Z</time>
      </trkpt>
      <trkpt lat="48.3126" lon="-3.59031">
        <ele>236</ele>
        <time>2021-07-08T13:08:43Z</time>
      </trkpt>
      <trkpt lat="48.31259" lon="-3.59027">
        <ele>236</ele>
        <time>2021-07-08T13:08:44Z</time>
      </trkpt>
      <trkpt lat="48.31258" lon="-3.59023">
        <ele>236</ele>
        <time>2021-07-08T13:08:45Z</time>
      </trkpt>
      <trkpt lat="48.31258" lon="-3.59018">
        <ele>236</ele>
        <time>2021-07-08T13:08:46Z</time>
      </trkpt>
      <trkpt lat="48.31255" lon="-3.59005">
        <ele>236</ele>
        <time>2021-07-08T13:08:49Z</time>
      </trkpt>
      <trkpt lat="48.31254" lon="-3.59001">
        <ele>236</ele>
        <time>2021-07-08T13:08:50Z</time>
      </trkpt>
      <trkpt lat="48.31254" lon="-3.58997">
        <ele>236</ele>
        <time>2021-07-08T13:08:51Z</time>
      </trkpt>
      <trkpt lat="48.31253" lon="-3.58992">
        <ele>236</ele>
        <time>2021-07-08T13:08:52Z</time>
      </trkpt>
      <trkpt lat="48.31252" lon="-3.58987">
        <ele>236</ele>
        <time>2021-07-08T13:08:53Z</time>
      </trkpt>
      <trkpt lat="48.31251" lon="-3.58982">
        <ele>236</ele>
        <time>2021-07-08T13:08:54Z</time>
      </trkpt>
      <trkpt lat="48.31249" lon="-3.58976">
        <ele>236</ele>
        <time>2021-07-08T13:08:55Z</time>
      </trkpt>
      <trkpt lat="48.31247" lon="-3.5897">
        <ele>236</ele>
        <time>2021-07-08T13:08:56Z</time>
      </trkpt>
      <trkpt lat="48.31246" lon="-3.58965">
        <ele>237</ele>
        <time>2021-07-08T13:08:57Z</time>
      </trkpt>
      <trkpt lat="48.31244" lon="-3.58959">
        <ele>237</ele>
        <time>2021-07-08T13:08:58Z</time>
      </trkpt>
      <trkpt lat="48.31242" lon="-3.58954">
        <ele>237</ele>
        <time>2021-07-08T13:08:59Z</time>
      </trkpt>
      <trkpt lat="48.31241" lon="-3.58948">
        <ele>237</ele>
        <time>2021-07-08T13:09:00Z</time>
      </trkpt>
      <trkpt lat="48.31239" lon="-3.58943">
        <ele>237</ele>
        <time>2021-07-08T13:09:01Z</time>
      </trkpt>
      <trkpt lat="48.31237" lon="-3.58938">
        <ele>237</ele>
        <time>2021-07-08T13:09:02Z</time>
      </trkpt>
      <trkpt lat="48.31235" lon="-3.58933">
        <ele>237</ele>
        <time>2021-07-08T13:09:03Z</time>
      </trkpt>
      <trkpt lat="48.31234" lon="-3.58927">
        <ele>237</ele>
        <time>2021-07-08T13:09:04Z</time>
      </trkpt>
      <trkpt lat="48.31232" lon="-3.58923">
        <ele>237</ele>
        <time>2021-07-08T13:09:05Z</time>
      </trkpt>
      <trkpt lat="48.31231" lon="-3.58918">
        <ele>237</ele>
        <time>2021-07-08T13:09:06Z</time>
      </trkpt>
      <trkpt lat="48.31229" lon="-3.58914">
        <ele>237</ele>
        <time>2021-07-08T13:09:07Z</time>
      </trkpt>
      <trkpt lat="48.31228" lon="-3.58909">
        <ele>237</ele>
        <time>2021-07-08T13:09:08Z</time>
      </trkpt>
      <trkpt lat="48.31228" lon="-3.58904">
        <ele>237</ele>
        <time>2021-07-08T13:09:09Z</time>
      </trkpt>
      <trkpt lat="48.31227" lon="-3.58899">
        <ele>237</ele>
        <time>2021-07-08T13:09:10Z</time>
      </trkpt>
      <trkpt lat="48.31226" lon="-3.58893">
        <ele>237</ele>
        <time>2021-07-08T13:09:11Z</time>
      </trkpt>
      <trkpt lat="48.31225" lon="-3.58889">
        <ele>237</ele>
        <time>2021-07-08T13:09:12Z</time>
      </trkpt>
      <trkpt lat="48.31224" lon="-3.58884">
        <ele>237</ele>
        <time>2021-07-08T13:09:13Z</time>
      </trkpt>
      <trkpt lat="48.31223" lon="-3.58879">
        <ele>237</ele>
        <time>2021-07-08T13:09:14Z</time>
      </trkpt>
      <trkpt lat="48.31222" lon="-3.58875">
        <ele>237</ele>
        <time>2021-07-08T13:09:15Z</time>
      </trkpt>
      <trkpt lat="48.3122" lon="-3.58871">
        <ele>237</ele>
        <time>2021-07-08T13:09:16Z</time>
      </trkpt>
      <trkpt lat="48.31219" lon="-3.58866">
        <ele>238</ele>
        <time>2021-07-08T13:09:17Z</time>
      </trkpt>
      <trkpt lat="48.31217" lon="-3.58862">
        <ele>238</ele>
        <time>2021-07-08T13:09:18Z</time>
      </trkpt>
      <trkpt lat="48.31215" lon="-3.58857">
        <ele>238</ele>
        <time>2021-07-08T13:09:19Z</time>
      </trkpt>
      <trkpt lat="48.31214" lon="-3.58852">
        <ele>239</ele>
        <time>2021-07-08T13:09:20Z</time>
      </trkpt>
      <trkpt lat="48.31213" lon="-3.58847">
        <ele>239</ele>
        <time>2021-07-08T13:09:21Z</time>
      </trkpt>
      <trkpt lat="48.31212" lon="-3.58843">
        <ele>239</ele>
        <time>2021-07-08T13:09:22Z</time>
      </trkpt>
      <trkpt lat="48.31211" lon="-3.58839">
        <ele>239</ele>
        <time>2021-07-08T13:09:23Z</time>
      </trkpt>
      <trkpt lat="48.3121" lon="-3.58835">
        <ele>239</ele>
        <time>2021-07-08T13:09:24Z</time>
      </trkpt>
      <trkpt lat="48.31209" lon="-3.58831">
        <ele>239</ele>
        <time>2021-07-08T13:09:25Z</time>
      </trkpt>
      <trkpt lat="48.31208" lon="-3.58827">
        <ele>239</ele>
        <time>2021-07-08T13:09:26Z</time>
      </trkpt>
      <trkpt lat="48.31207" lon="-3.58823">
        <ele>239</ele>
        <time>2021-07-08T13:09:27Z</time>
      </trkpt>
      <trkpt lat="48.31206" lon="-3.58819">
        <ele>239</ele>
        <time>2021-07-08T13:09:28Z</time>
      </trkpt>
      <trkpt lat="48.31205" lon="-3.58815">
        <ele>239</ele>
        <time>2021-07-08T13:09:29Z</time>
      </trkpt>
      <trkpt lat="48.31204" lon="-3.58811">
        <ele>239</ele>
        <time>2021-07-08T13:09:30Z</time>
      </trkpt>
      <trkpt lat="48.31203" lon="-3.58807">
        <ele>239</ele>
        <time>2021-07-08T13:09:31Z</time>
      </trkpt>
      <trkpt lat="48.31202" lon="-3.58802">
        <ele>239</ele>
        <time>2021-07-08T13:09:32Z</time>
      </trkpt>
      <trkpt lat="48.312" lon="-3.58798">
        <ele>239</ele>
        <time>2021-07-08T13:09:33Z</time>
      </trkpt>
      <trkpt lat="48.31198" lon="-3.5879">
        <ele>239</ele>
        <time>2021-07-08T13:09:34Z</time>
      </trkpt>
      <trkpt lat="48.31197" lon="-3.58785">
        <ele>239</ele>
        <time>2021-07-08T13:09:36Z</time>
      </trkpt>
      <trkpt lat="48.31196" lon="-3.58781">
        <ele>239</ele>
        <time>2021-07-08T13:09:37Z</time>
      </trkpt>
      <trkpt lat="48.31195" lon="-3.58776">
        <ele>239</ele>
        <time>2021-07-08T13:09:38Z</time>
      </trkpt>
      <trkpt lat="48.31194" lon="-3.58771">
        <ele>239</ele>
        <time>2021-07-08T13:09:39Z</time>
      </trkpt>
      <trkpt lat="48.31193" lon="-3.58767">
        <ele>239</ele>
        <time>2021-07-08T13:09:40Z</time>
      </trkpt>
      <trkpt lat="48.31191" lon="-3.58762">
        <ele>239</ele>
        <time>2021-07-08T13:09:41Z</time>
      </trkpt>
      <trkpt lat="48.3119" lon="-3.58757">
        <ele>239</ele>
        <time>2021-07-08T13:09:42Z</time>
      </trkpt>
      <trkpt lat="48.31189" lon="-3.58752">
        <ele>239</ele>
        <time>2021-07-08T13:09:43Z</time>
      </trkpt>
      <trkpt lat="48.31188" lon="-3.58747">
        <ele>239</ele>
        <time>2021-07-08T13:09:44Z</time>
      </trkpt>
      <trkpt lat="48.31186" lon="-3.58742">
        <ele>239</ele>
        <time>2021-07-08T13:09:45Z</time>
      </trkpt>
      <trkpt lat="48.31185" lon="-3.58737">
        <ele>239</ele>
        <time>2021-07-08T13:09:46Z</time>
      </trkpt>
      <trkpt lat="48.31184" lon="-3.58731">
        <ele>239</ele>
        <time>2021-07-08T13:09:47Z</time>
      </trkpt>
      <trkpt lat="48.31183" lon="-3.58726">
        <ele>239</ele>
        <time>2021-07-08T13:09:48Z</time>
      </trkpt>
      <trkpt lat="48.31181" lon="-3.58717">
        <ele>239</ele>
        <time>2021-07-08T13:09:50Z</time>
      </trkpt>
      <trkpt lat="48.3118" lon="-3.58712">
        <ele>239</ele>
        <time>2021-07-08T13:09:51Z</time>
      </trkpt>
      <trkpt lat="48.31179" lon="-3.58707">
        <ele>239</ele>
        <time>2021-07-08T13:09:52Z</time>
      </trkpt>
      <trkpt lat="48.31178" lon="-3.58703">
        <ele>239</ele>
        <time>2021-07-08T13:09:53Z</time>
      </trkpt>
      <trkpt lat="48.31177" lon="-3.58699">
        <ele>239</ele>
        <time>2021-07-08T13:09:54Z</time>
      </trkpt>
      <trkpt lat="48.31176" lon="-3.58695">
        <ele>239</ele>
        <time>2021-07-08T13:09:55Z</time>
      </trkpt>
      <trkpt lat="48.31175" lon="-3.5869">
        <ele>239</ele>
        <time>2021-07-08T13:09:56Z</time>
      </trkpt>
      <trkpt lat="48.31174" lon="-3.5868">
        <ele>239</ele>
        <time>2021-07-08T13:09:58Z</time>
      </trkpt>
      <trkpt lat="48.31171" lon="-3.5867">
        <ele>239</ele>
        <time>2021-07-08T13:10:00Z</time>
      </trkpt>
      <trkpt lat="48.31169" lon="-3.58665">
        <ele>239</ele>
        <time>2021-07-08T13:10:01Z</time>
      </trkpt>
      <trkpt lat="48.31168" lon="-3.58661">
        <ele>239</ele>
        <time>2021-07-08T13:10:02Z</time>
      </trkpt>
      <trkpt lat="48.31166" lon="-3.58657">
        <ele>239</ele>
        <time>2021-07-08T13:10:03Z</time>
      </trkpt>
      <trkpt lat="48.31165" lon="-3.58653">
        <ele>239</ele>
        <time>2021-07-08T13:10:03Z</time>
      </trkpt>
      <trkpt lat="48.31165" lon="-3.5865">
        <ele>239</ele>
        <time>2021-07-08T13:10:05Z</time>
      </trkpt>
      <trkpt lat="48.31164" lon="-3.58645">
        <ele>239</ele>
        <time>2021-07-08T13:10:06Z</time>
      </trkpt>
      <trkpt lat="48.31163" lon="-3.58641">
        <ele>239</ele>
        <time>2021-07-08T13:10:07Z</time>
      </trkpt>
      <trkpt lat="48.31162" lon="-3.58636">
        <ele>239</ele>
        <time>2021-07-08T13:10:08Z</time>
      </trkpt>
      <trkpt lat="48.31161" lon="-3.58632">
        <ele>239</ele>
        <time>2021-07-08T13:10:10Z</time>
      </trkpt>
      <trkpt lat="48.3116" lon="-3.58629">
        <ele>239</ele>
        <time>2021-07-08T13:10:10Z</time>
      </trkpt>
      <trkpt lat="48.3116" lon="-3.58626">
        <ele>239</ele>
        <time>2021-07-08T13:10:11Z</time>
      </trkpt>
      <trkpt lat="48.31159" lon="-3.58622">
        <ele>240</ele>
        <time>2021-07-08T13:10:13Z</time>
      </trkpt>
      <trkpt lat="48.31158" lon="-3.5862">
        <ele>239</ele>
        <time>2021-07-08T13:10:22Z</time>
      </trkpt>
      <trkpt lat="48.31156" lon="-3.58614">
        <ele>239</ele>
        <time>2021-07-08T13:10:23Z</time>
      </trkpt>
      <trkpt lat="48.31154" lon="-3.58607">
        <ele>239</ele>
        <time>2021-07-08T13:10:25Z</time>
      </trkpt>
      <trkpt lat="48.31153" lon="-3.58603">
        <ele>239</ele>
        <time>2021-07-08T13:10:26Z</time>
      </trkpt>
      <trkpt lat="48.31152" lon="-3.58598">
        <ele>239</ele>
        <time>2021-07-08T13:10:27Z</time>
      </trkpt>
      <trkpt lat="48.3115" lon="-3.58593">
        <ele>239</ele>
        <time>2021-07-08T13:10:28Z</time>
      </trkpt>
      <trkpt lat="48.31149" lon="-3.58589">
        <ele>239</ele>
        <time>2021-07-08T13:10:29Z</time>
      </trkpt>
      <trkpt lat="48.31148" lon="-3.58584">
        <ele>239</ele>
        <time>2021-07-08T13:10:30Z</time>
      </trkpt>
      <trkpt lat="48.31147" lon="-3.58579">
        <ele>239</ele>
        <time>2021-07-08T13:10:31Z</time>
      </trkpt>
      <trkpt lat="48.31147" lon="-3.58574">
        <ele>239</ele>
        <time>2021-07-08T13:10:32Z</time>
      </trkpt>
      <trkpt lat="48.31146" lon="-3.58569">
        <ele>239</ele>
        <time>2021-07-08T13:10:33Z</time>
      </trkpt>
      <trkpt lat="48.31145" lon="-3.58564">
        <ele>239</ele>
        <time>2021-07-08T13:10:34Z</time>
      </trkpt>
      <trkpt lat="48.31143" lon="-3.58557">
        <ele>239</ele>
        <time>2021-07-08T13:10:35Z</time>
      </trkpt>
      <trkpt lat="48.31141" lon="-3.58551">
        <ele>239</ele>
        <time>2021-07-08T13:10:36Z</time>
      </trkpt>
      <trkpt lat="48.31139" lon="-3.58544">
        <ele>239</ele>
        <time>2021-07-08T13:10:37Z</time>
      </trkpt>
      <trkpt lat="48.31138" lon="-3.58538">
        <ele>239</ele>
        <time>2021-07-08T13:10:38Z</time>
      </trkpt>
      <trkpt lat="48.31136" lon="-3.58532">
        <ele>239</ele>
        <time>2021-07-08T13:10:39Z</time>
      </trkpt>
      <trkpt lat="48.31134" lon="-3.58521">
        <ele>239</ele>
        <time>2021-07-08T13:10:41Z</time>
      </trkpt>
      <trkpt lat="48.31133" lon="-3.58515">
        <ele>239</ele>
        <time>2021-07-08T13:10:42Z</time>
      </trkpt>
      <trkpt lat="48.31131" lon="-3.58509">
        <ele>239</ele>
        <time>2021-07-08T13:10:43Z</time>
      </trkpt>
      <trkpt lat="48.3113" lon="-3.58503">
        <ele>239</ele>
        <time>2021-07-08T13:10:44Z</time>
      </trkpt>
      <trkpt lat="48.31126" lon="-3.58489">
        <ele>239</ele>
        <time>2021-07-08T13:10:45Z</time>
      </trkpt>
      <trkpt lat="48.31125" lon="-3.58483">
        <ele>238</ele>
        <time>2021-07-08T13:10:47Z</time>
      </trkpt>
      <trkpt lat="48.31123" lon="-3.58476">
        <ele>238</ele>
        <time>2021-07-08T13:10:48Z</time>
      </trkpt>
      <trkpt lat="48.31121" lon="-3.58469">
        <ele>238</ele>
        <time>2021-07-08T13:10:49Z</time>
      </trkpt>
      <trkpt lat="48.31119" lon="-3.58463">
        <ele>238</ele>
        <time>2021-07-08T13:10:50Z</time>
      </trkpt>
      <trkpt lat="48.31118" lon="-3.58457">
        <ele>238</ele>
        <time>2021-07-08T13:10:51Z</time>
      </trkpt>
      <trkpt lat="48.31117" lon="-3.5845">
        <ele>238</ele>
        <time>2021-07-08T13:10:53Z</time>
      </trkpt>
      <trkpt lat="48.31116" lon="-3.58444">
        <ele>238</ele>
        <time>2021-07-08T13:10:54Z</time>
      </trkpt>
      <trkpt lat="48.31114" lon="-3.58438">
        <ele>238</ele>
        <time>2021-07-08T13:10:54Z</time>
      </trkpt>
      <trkpt lat="48.31113" lon="-3.58431">
        <ele>238</ele>
        <time>2021-07-08T13:10:55Z</time>
      </trkpt>
      <trkpt lat="48.31111" lon="-3.58425">
        <ele>238</ele>
        <time>2021-07-08T13:10:56Z</time>
      </trkpt>
      <trkpt lat="48.3111" lon="-3.5842">
        <ele>238</ele>
        <time>2021-07-08T13:10:57Z</time>
      </trkpt>
      <trkpt lat="48.31109" lon="-3.58414">
        <ele>238</ele>
        <time>2021-07-08T13:10:58Z</time>
      </trkpt>
      <trkpt lat="48.31107" lon="-3.58408">
        <ele>238</ele>
        <time>2021-07-08T13:10:59Z</time>
      </trkpt>
      <trkpt lat="48.31106" lon="-3.58402">
        <ele>238</ele>
        <time>2021-07-08T13:11:00Z</time>
      </trkpt>
      <trkpt lat="48.31105" lon="-3.58396">
        <ele>238</ele>
        <time>2021-07-08T13:11:01Z</time>
      </trkpt>
      <trkpt lat="48.31103" lon="-3.5839">
        <ele>238</ele>
        <time>2021-07-08T13:11:02Z</time>
      </trkpt>
      <trkpt lat="48.31102" lon="-3.58385">
        <ele>238</ele>
        <time>2021-07-08T13:11:03Z</time>
      </trkpt>
      <trkpt lat="48.31098" lon="-3.58373">
        <ele>238</ele>
        <time>2021-07-08T13:11:05Z</time>
      </trkpt>
      <trkpt lat="48.31097" lon="-3.58367">
        <ele>238</ele>
        <time>2021-07-08T13:11:06Z</time>
      </trkpt>
      <trkpt lat="48.31095" lon="-3.58361">
        <ele>238</ele>
        <time>2021-07-08T13:11:07Z</time>
      </trkpt>
      <trkpt lat="48.31093" lon="-3.58355">
        <ele>238</ele>
        <time>2021-07-08T13:11:08Z</time>
      </trkpt>
      <trkpt lat="48.31092" lon="-3.58349">
        <ele>238</ele>
        <time>2021-07-08T13:11:09Z</time>
      </trkpt>
      <trkpt lat="48.3109" lon="-3.58343">
        <ele>238</ele>
        <time>2021-07-08T13:11:10Z</time>
      </trkpt>
      <trkpt lat="48.31089" lon="-3.58336">
        <ele>238</ele>
        <time>2021-07-08T13:11:11Z</time>
      </trkpt>
      <trkpt lat="48.31087" lon="-3.5833">
        <ele>238</ele>
        <time>2021-07-08T13:11:12Z</time>
      </trkpt>
      <trkpt lat="48.31086" lon="-3.58324">
        <ele>238</ele>
        <time>2021-07-08T13:11:13Z</time>
      </trkpt>
      <trkpt lat="48.31084" lon="-3.58318">
        <ele>238</ele>
        <time>2021-07-08T13:11:14Z</time>
      </trkpt>
      <trkpt lat="48.31082" lon="-3.58313">
        <ele>238</ele>
        <time>2021-07-08T13:11:15Z</time>
      </trkpt>
      <trkpt lat="48.31081" lon="-3.58307">
        <ele>238</ele>
        <time>2021-07-08T13:11:16Z</time>
      </trkpt>
      <trkpt lat="48.3108" lon="-3.58302">
        <ele>238</ele>
        <time>2021-07-08T13:11:17Z</time>
      </trkpt>
      <trkpt lat="48.31078" lon="-3.58296">
        <ele>238</ele>
        <time>2021-07-08T13:11:18Z</time>
      </trkpt>
      <trkpt lat="48.31077" lon="-3.5829">
        <ele>238</ele>
        <time>2021-07-08T13:11:19Z</time>
      </trkpt>
      <trkpt lat="48.31076" lon="-3.58284">
        <ele>238</ele>
        <time>2021-07-08T13:11:20Z</time>
      </trkpt>
      <trkpt lat="48.31075" lon="-3.58278">
        <ele>238</ele>
        <time>2021-07-08T13:11:21Z</time>
      </trkpt>
      <trkpt lat="48.31074" lon="-3.58273">
        <ele>238</ele>
        <time>2021-07-08T13:11:22Z</time>
      </trkpt>
      <trkpt lat="48.31073" lon="-3.58268">
        <ele>238</ele>
        <time>2021-07-08T13:11:23Z</time>
      </trkpt>
      <trkpt lat="48.31071" lon="-3.58262">
        <ele>238</ele>
        <time>2021-07-08T13:11:24Z</time>
      </trkpt>
      <trkpt lat="48.31069" lon="-3.58258">
        <ele>238</ele>
        <time>2021-07-08T13:11:25Z</time>
      </trkpt>
      <trkpt lat="48.31067" lon="-3.58252">
        <ele>238</ele>
        <time>2021-07-08T13:11:26Z</time>
      </trkpt>
      <trkpt lat="48.31066" lon="-3.58247">
        <ele>238</ele>
        <time>2021-07-08T13:11:27Z</time>
      </trkpt>
      <trkpt lat="48.31065" lon="-3.58242">
        <ele>238</ele>
        <time>2021-07-08T13:11:28Z</time>
      </trkpt>
      <trkpt lat="48.31062" lon="-3.58225">
        <ele>238</ele>
        <time>2021-07-08T13:11:31Z</time>
      </trkpt>
      <trkpt lat="48.31056" lon="-3.58208">
        <ele>237</ele>
        <time>2021-07-08T13:11:34Z</time>
      </trkpt>
      <trkpt lat="48.31054" lon="-3.58201">
        <ele>237</ele>
        <time>2021-07-08T13:11:35Z</time>
      </trkpt>
      <trkpt lat="48.3105" lon="-3.58187">
        <ele>237</ele>
        <time>2021-07-08T13:11:37Z</time>
      </trkpt>
      <trkpt lat="48.31047" lon="-3.58174">
        <ele>237</ele>
        <time>2021-07-08T13:11:39Z</time>
      </trkpt>
      <trkpt lat="48.31046" lon="-3.58167">
        <ele>237</ele>
        <time>2021-07-08T13:11:40Z</time>
      </trkpt>
      <trkpt lat="48.31044" lon="-3.58161">
        <ele>237</ele>
        <time>2021-07-08T13:11:41Z</time>
      </trkpt>
      <trkpt lat="48.31042" lon="-3.58155">
        <ele>237</ele>
        <time>2021-07-08T13:11:42Z</time>
      </trkpt>
      <trkpt lat="48.31041" lon="-3.5815">
        <ele>237</ele>
        <time>2021-07-08T13:11:43Z</time>
      </trkpt>
      <trkpt lat="48.31039" lon="-3.58145">
        <ele>237</ele>
        <time>2021-07-08T13:11:44Z</time>
      </trkpt>
      <trkpt lat="48.31038" lon="-3.5814">
        <ele>237</ele>
        <time>2021-07-08T13:11:45Z</time>
      </trkpt>
      <trkpt lat="48.31034" lon="-3.58123">
        <ele>237</ele>
        <time>2021-07-08T13:11:48Z</time>
      </trkpt>
      <trkpt lat="48.31031" lon="-3.58109">
        <ele>237</ele>
        <time>2021-07-08T13:11:50Z</time>
      </trkpt>
      <trkpt lat="48.31029" lon="-3.58096">
        <ele>237</ele>
        <time>2021-07-08T13:11:52Z</time>
      </trkpt>
      <trkpt lat="48.31027" lon="-3.5809">
        <ele>237</ele>
        <time>2021-07-08T13:11:53Z</time>
      </trkpt>
      <trkpt lat="48.31026" lon="-3.58083">
        <ele>237</ele>
        <time>2021-07-08T13:11:54Z</time>
      </trkpt>
      <trkpt lat="48.31024" lon="-3.58076">
        <ele>237</ele>
        <time>2021-07-08T13:11:55Z</time>
      </trkpt>
      <trkpt lat="48.31022" lon="-3.5807">
        <ele>237</ele>
        <time>2021-07-08T13:11:56Z</time>
      </trkpt>
      <trkpt lat="48.3102" lon="-3.58063">
        <ele>237</ele>
        <time>2021-07-08T13:11:57Z</time>
      </trkpt>
      <trkpt lat="48.31019" lon="-3.58056">
        <ele>237</ele>
        <time>2021-07-08T13:11:58Z</time>
      </trkpt>
      <trkpt lat="48.31017" lon="-3.5805">
        <ele>237</ele>
        <time>2021-07-08T13:11:59Z</time>
      </trkpt>
      <trkpt lat="48.31016" lon="-3.58044">
        <ele>237</ele>
        <time>2021-07-08T13:12:00Z</time>
      </trkpt>
      <trkpt lat="48.31013" lon="-3.58031">
        <ele>237</ele>
        <time>2021-07-08T13:12:02Z</time>
      </trkpt>
      <trkpt lat="48.31011" lon="-3.58024">
        <ele>237</ele>
        <time>2021-07-08T13:12:03Z</time>
      </trkpt>
      <trkpt lat="48.31009" lon="-3.58019">
        <ele>237</ele>
        <time>2021-07-08T13:12:04Z</time>
      </trkpt>
      <trkpt lat="48.31008" lon="-3.58013">
        <ele>237</ele>
        <time>2021-07-08T13:12:05Z</time>
      </trkpt>
      <trkpt lat="48.31007" lon="-3.58007">
        <ele>237</ele>
        <time>2021-07-08T13:12:06Z</time>
      </trkpt>
      <trkpt lat="48.31005" lon="-3.58">
        <ele>237</ele>
        <time>2021-07-08T13:12:07Z</time>
      </trkpt>
      <trkpt lat="48.31003" lon="-3.57994">
        <ele>237</ele>
        <time>2021-07-08T13:12:08Z</time>
      </trkpt>
      <trkpt lat="48.31002" lon="-3.57987">
        <ele>237</ele>
        <time>2021-07-08T13:12:09Z</time>
      </trkpt>
      <trkpt lat="48.31" lon="-3.57981">
        <ele>237</ele>
        <time>2021-07-08T13:12:10Z</time>
      </trkpt>
      <trkpt lat="48.30999" lon="-3.57974">
        <ele>237</ele>
        <time>2021-07-08T13:12:11Z</time>
      </trkpt>
      <trkpt lat="48.30997" lon="-3.57968">
        <ele>237</ele>
        <time>2021-07-08T13:12:12Z</time>
      </trkpt>
      <trkpt lat="48.30996" lon="-3.57961">
        <ele>237</ele>
        <time>2021-07-08T13:12:13Z</time>
      </trkpt>
      <trkpt lat="48.30994" lon="-3.57955">
        <ele>237</ele>
        <time>2021-07-08T13:12:14Z</time>
      </trkpt>
      <trkpt lat="48.30993" lon="-3.57948">
        <ele>237</ele>
        <time>2021-07-08T13:12:15Z</time>
      </trkpt>
      <trkpt lat="48.30991" lon="-3.57942">
        <ele>237</ele>
        <time>2021-07-08T13:12:16Z</time>
      </trkpt>
      <trkpt lat="48.30989" lon="-3.57936">
        <ele>237</ele>
        <time>2021-07-08T13:12:17Z</time>
      </trkpt>
      <trkpt lat="48.30988" lon="-3.5793">
        <ele>237</ele>
        <time>2021-07-08T13:12:18Z</time>
      </trkpt>
      <trkpt lat="48.30987" lon="-3.57925">
        <ele>237</ele>
        <time>2021-07-08T13:12:19Z</time>
      </trkpt>
      <trkpt lat="48.30985" lon="-3.57919">
        <ele>237</ele>
        <time>2021-07-08T13:12:20Z</time>
      </trkpt>
      <trkpt lat="48.30984" lon="-3.57912">
        <ele>237</ele>
        <time>2021-07-08T13:12:21Z</time>
      </trkpt>
      <trkpt lat="48.30982" lon="-3.57907">
        <ele>237</ele>
        <time>2021-07-08T13:12:22Z</time>
      </trkpt>
      <trkpt lat="48.30981" lon="-3.57901">
        <ele>237</ele>
        <time>2021-07-08T13:12:23Z</time>
      </trkpt>
      <trkpt lat="48.30979" lon="-3.57895">
        <ele>237</ele>
        <time>2021-07-08T13:12:24Z</time>
      </trkpt>
      <trkpt lat="48.30978" lon="-3.5789">
        <ele>237</ele>
        <time>2021-07-08T13:12:25Z</time>
      </trkpt>
      <trkpt lat="48.30976" lon="-3.57885">
        <ele>237</ele>
        <time>2021-07-08T13:12:26Z</time>
      </trkpt>
      <trkpt lat="48.30975" lon="-3.5788">
        <ele>237</ele>
        <time>2021-07-08T13:12:27Z</time>
      </trkpt>
      <trkpt lat="48.30973" lon="-3.57874">
        <ele>237</ele>
        <time>2021-07-08T13:12:28Z</time>
      </trkpt>
      <trkpt lat="48.30971" lon="-3.57868">
        <ele>237</ele>
        <time>2021-07-08T13:12:29Z</time>
      </trkpt>
      <trkpt lat="48.30967" lon="-3.57856">
        <ele>236</ele>
        <time>2021-07-08T13:12:31Z</time>
      </trkpt>
      <trkpt lat="48.30963" lon="-3.57843">
        <ele>236</ele>
        <time>2021-07-08T13:12:33Z</time>
      </trkpt>
      <trkpt lat="48.30959" lon="-3.57831">
        <ele>236</ele>
        <time>2021-07-08T13:12:35Z</time>
      </trkpt>
      <trkpt lat="48.30955" lon="-3.57817">
        <ele>236</ele>
        <time>2021-07-08T13:12:37Z</time>
      </trkpt>
      <trkpt lat="48.30951" lon="-3.57802">
        <ele>236</ele>
        <time>2021-07-08T13:12:39Z</time>
      </trkpt>
      <trkpt lat="48.30946" lon="-3.57788">
        <ele>236</ele>
        <time>2021-07-08T13:12:41Z</time>
      </trkpt>
      <trkpt lat="48.30941" lon="-3.57774">
        <ele>236</ele>
        <time>2021-07-08T13:12:43Z</time>
      </trkpt>
      <trkpt lat="48.30937" lon="-3.5776">
        <ele>236</ele>
        <time>2021-07-08T13:12:45Z</time>
      </trkpt>
      <trkpt lat="48.3093" lon="-3.57746">
        <ele>236</ele>
        <time>2021-07-08T13:12:47Z</time>
      </trkpt>
      <trkpt lat="48.30928" lon="-3.5774">
        <ele>235</ele>
        <time>2021-07-08T13:12:48Z</time>
      </trkpt>
      <trkpt lat="48.30925" lon="-3.57734">
        <ele>235</ele>
        <time>2021-07-08T13:12:49Z</time>
      </trkpt>
      <trkpt lat="48.30922" lon="-3.57728">
        <ele>234</ele>
        <time>2021-07-08T13:12:50Z</time>
      </trkpt>
      <trkpt lat="48.30919" lon="-3.57722">
        <ele>234</ele>
        <time>2021-07-08T13:12:51Z</time>
      </trkpt>
      <trkpt lat="48.30912" lon="-3.57706">
        <ele>234</ele>
        <time>2021-07-08T13:12:54Z</time>
      </trkpt>
      <trkpt lat="48.30903" lon="-3.57686">
        <ele>234</ele>
        <time>2021-07-08T13:12:56Z</time>
      </trkpt>
      <trkpt lat="48.309" lon="-3.5768">
        <ele>234</ele>
        <time>2021-07-08T13:12:58Z</time>
      </trkpt>
      <trkpt lat="48.30897" lon="-3.57673">
        <ele>234</ele>
        <time>2021-07-08T13:12:59Z</time>
      </trkpt>
      <trkpt lat="48.30895" lon="-3.57667">
        <ele>234</ele>
        <time>2021-07-08T13:13:00Z</time>
      </trkpt>
      <trkpt lat="48.30892" lon="-3.5766">
        <ele>234</ele>
        <time>2021-07-08T13:13:01Z</time>
      </trkpt>
      <trkpt lat="48.3089" lon="-3.57654">
        <ele>233</ele>
        <time>2021-07-08T13:13:02Z</time>
      </trkpt>
      <trkpt lat="48.30888" lon="-3.57648">
        <ele>233</ele>
        <time>2021-07-08T13:13:03Z</time>
      </trkpt>
      <trkpt lat="48.30885" lon="-3.57642">
        <ele>233</ele>
        <time>2021-07-08T13:13:04Z</time>
      </trkpt>
      <trkpt lat="48.30883" lon="-3.57637">
        <ele>233</ele>
        <time>2021-07-08T13:13:05Z</time>
      </trkpt>
      <trkpt lat="48.30881" lon="-3.57632">
        <ele>233</ele>
        <time>2021-07-08T13:13:06Z</time>
      </trkpt>
      <trkpt lat="48.30879" lon="-3.57627">
        <ele>233</ele>
        <time>2021-07-08T13:13:07Z</time>
      </trkpt>
      <trkpt lat="48.30877" lon="-3.57622">
        <ele>233</ele>
        <time>2021-07-08T13:13:08Z</time>
      </trkpt>
      <trkpt lat="48.30876" lon="-3.57618">
        <ele>234</ele>
        <time>2021-07-08T13:13:09Z</time>
      </trkpt>
      <trkpt lat="48.30874" lon="-3.57615">
        <ele>234</ele>
        <time>2021-07-08T13:13:10Z</time>
      </trkpt>
      <trkpt lat="48.30873" lon="-3.5761">
        <ele>234</ele>
        <time>2021-07-08T13:13:11Z</time>
      </trkpt>
      <trkpt lat="48.30871" lon="-3.57605">
        <ele>234</ele>
        <time>2021-07-08T13:13:12Z</time>
      </trkpt>
      <trkpt lat="48.30869" lon="-3.57601">
        <ele>234</ele>
        <time>2021-07-08T13:13:13Z</time>
      </trkpt>
      <trkpt lat="48.30867" lon="-3.57597">
        <ele>234</ele>
        <time>2021-07-08T13:13:14Z</time>
      </trkpt>
      <trkpt lat="48.30865" lon="-3.57593">
        <ele>234</ele>
        <time>2021-07-08T13:13:15Z</time>
      </trkpt>
      <trkpt lat="48.30864" lon="-3.57589">
        <ele>234</ele>
        <time>2021-07-08T13:13:16Z</time>
      </trkpt>
      <trkpt lat="48.3086" lon="-3.5758">
        <ele>235</ele>
        <time>2021-07-08T13:13:17Z</time>
      </trkpt>
      <trkpt lat="48.30858" lon="-3.57575">
        <ele>235</ele>
        <time>2021-07-08T13:13:19Z</time>
      </trkpt>
      <trkpt lat="48.30856" lon="-3.57571">
        <ele>235</ele>
        <time>2021-07-08T13:13:20Z</time>
      </trkpt>
      <trkpt lat="48.30855" lon="-3.57568">
        <ele>235</ele>
        <time>2021-07-08T13:13:21Z</time>
      </trkpt>
      <trkpt lat="48.30853" lon="-3.57566">
        <ele>235</ele>
        <time>2021-07-08T13:13:22Z</time>
      </trkpt>
      <trkpt lat="48.30852" lon="-3.57564">
        <ele>236</ele>
        <time>2021-07-08T13:13:33Z</time>
      </trkpt>
      <trkpt lat="48.30847" lon="-3.57553">
        <ele>236</ele>
        <time>2021-07-08T13:13:45Z</time>
      </trkpt>
      <trkpt lat="48.30845" lon="-3.57549">
        <ele>236</ele>
        <time>2021-07-08T13:13:46Z</time>
      </trkpt>
      <trkpt lat="48.30843" lon="-3.57543">
        <ele>236</ele>
        <time>2021-07-08T13:13:47Z</time>
      </trkpt>
      <trkpt lat="48.3084" lon="-3.57537">
        <ele>236</ele>
        <time>2021-07-08T13:13:48Z</time>
      </trkpt>
      <trkpt lat="48.30837" lon="-3.5753">
        <ele>236</ele>
        <time>2021-07-08T13:13:49Z</time>
      </trkpt>
      <trkpt lat="48.30834" lon="-3.57522">
        <ele>236</ele>
        <time>2021-07-08T13:13:50Z</time>
      </trkpt>
      <trkpt lat="48.3083" lon="-3.57514">
        <ele>234</ele>
        <time>2021-07-08T13:13:51Z</time>
      </trkpt>
      <trkpt lat="48.30826" lon="-3.57506">
        <ele>234</ele>
        <time>2021-07-08T13:13:52Z</time>
      </trkpt>
      <trkpt lat="48.30822" lon="-3.57498">
        <ele>233</ele>
        <time>2021-07-08T13:13:53Z</time>
      </trkpt>
      <trkpt lat="48.30818" lon="-3.5749">
        <ele>233</ele>
        <time>2021-07-08T13:13:54Z</time>
      </trkpt>
      <trkpt lat="48.30814" lon="-3.57481">
        <ele>233</ele>
        <time>2021-07-08T13:13:55Z</time>
      </trkpt>
      <trkpt lat="48.30809" lon="-3.57472">
        <ele>233</ele>
        <time>2021-07-08T13:13:56Z</time>
      </trkpt>
      <trkpt lat="48.30805" lon="-3.57463">
        <ele>231</ele>
        <time>2021-07-08T13:13:57Z</time>
      </trkpt>
      <trkpt lat="48.30801" lon="-3.57454">
        <ele>231</ele>
        <time>2021-07-08T13:13:58Z</time>
      </trkpt>
      <trkpt lat="48.30796" lon="-3.57445">
        <ele>230</ele>
        <time>2021-07-08T13:13:59Z</time>
      </trkpt>
      <trkpt lat="48.30792" lon="-3.57435">
        <ele>230</ele>
        <time>2021-07-08T13:14:00Z</time>
      </trkpt>
      <trkpt lat="48.30788" lon="-3.57426">
        <ele>230</ele>
        <time>2021-07-08T13:14:02Z</time>
      </trkpt>
      <trkpt lat="48.30784" lon="-3.57418">
        <ele>230</ele>
        <time>2021-07-08T13:14:03Z</time>
      </trkpt>
      <trkpt lat="48.3078" lon="-3.57409">
        <ele>230</ele>
        <time>2021-07-08T13:14:03Z</time>
      </trkpt>
      <trkpt lat="48.30776" lon="-3.574">
        <ele>229</ele>
        <time>2021-07-08T13:14:04Z</time>
      </trkpt>
      <trkpt lat="48.30769" lon="-3.57385">
        <ele>229</ele>
        <time>2021-07-08T13:14:05Z</time>
      </trkpt>
      <trkpt lat="48.30767" lon="-3.57377">
        <ele>228</ele>
        <time>2021-07-08T13:14:07Z</time>
      </trkpt>
      <trkpt lat="48.30763" lon="-3.57369">
        <ele>228</ele>
        <time>2021-07-08T13:14:08Z</time>
      </trkpt>
      <trkpt lat="48.30759" lon="-3.57362">
        <ele>228</ele>
        <time>2021-07-08T13:14:09Z</time>
      </trkpt>
      <trkpt lat="48.30755" lon="-3.57354">
        <ele>228</ele>
        <time>2021-07-08T13:14:10Z</time>
      </trkpt>
      <trkpt lat="48.30751" lon="-3.57346">
        <ele>228</ele>
        <time>2021-07-08T13:14:11Z</time>
      </trkpt>
      <trkpt lat="48.30746" lon="-3.57339">
        <ele>228</ele>
        <time>2021-07-08T13:14:12Z</time>
      </trkpt>
      <trkpt lat="48.30743" lon="-3.57332">
        <ele>228</ele>
        <time>2021-07-08T13:14:13Z</time>
      </trkpt>
      <trkpt lat="48.30739" lon="-3.57325">
        <ele>228</ele>
        <time>2021-07-08T13:14:14Z</time>
      </trkpt>
      <trkpt lat="48.30736" lon="-3.57318">
        <ele>228</ele>
        <time>2021-07-08T13:14:15Z</time>
      </trkpt>
      <trkpt lat="48.30732" lon="-3.57311">
        <ele>227</ele>
        <time>2021-07-08T13:14:16Z</time>
      </trkpt>
      <trkpt lat="48.30728" lon="-3.57305">
        <ele>227</ele>
        <time>2021-07-08T13:14:17Z</time>
      </trkpt>
      <trkpt lat="48.30724" lon="-3.57298">
        <ele>226</ele>
        <time>2021-07-08T13:14:18Z</time>
      </trkpt>
      <trkpt lat="48.30719" lon="-3.57292">
        <ele>226</ele>
        <time>2021-07-08T13:14:19Z</time>
      </trkpt>
      <trkpt lat="48.30714" lon="-3.57286">
        <ele>226</ele>
        <time>2021-07-08T13:14:20Z</time>
      </trkpt>
      <trkpt lat="48.30709" lon="-3.57281">
        <ele>226</ele>
        <time>2021-07-08T13:14:21Z</time>
      </trkpt>
      <trkpt lat="48.30705" lon="-3.57275">
        <ele>226</ele>
        <time>2021-07-08T13:14:22Z</time>
      </trkpt>
      <trkpt lat="48.30701" lon="-3.57269">
        <ele>226</ele>
        <time>2021-07-08T13:14:23Z</time>
      </trkpt>
      <trkpt lat="48.30697" lon="-3.57263">
        <ele>226</ele>
        <time>2021-07-08T13:14:24Z</time>
      </trkpt>
      <trkpt lat="48.30692" lon="-3.57258">
        <ele>226</ele>
        <time>2021-07-08T13:14:25Z</time>
      </trkpt>
      <trkpt lat="48.30687" lon="-3.57254">
        <ele>226</ele>
        <time>2021-07-08T13:14:26Z</time>
      </trkpt>
      <trkpt lat="48.30682" lon="-3.57249">
        <ele>225</ele>
        <time>2021-07-08T13:14:27Z</time>
      </trkpt>
      <trkpt lat="48.30677" lon="-3.57245">
        <ele>225</ele>
        <time>2021-07-08T13:14:28Z</time>
      </trkpt>
      <trkpt lat="48.30672" lon="-3.57241">
        <ele>225</ele>
        <time>2021-07-08T13:14:29Z</time>
      </trkpt>
      <trkpt lat="48.30667" lon="-3.57237">
        <ele>225</ele>
        <time>2021-07-08T13:14:30Z</time>
      </trkpt>
      <trkpt lat="48.30663" lon="-3.57233">
        <ele>225</ele>
        <time>2021-07-08T13:14:31Z</time>
      </trkpt>
      <trkpt lat="48.30658" lon="-3.57229">
        <ele>225</ele>
        <time>2021-07-08T13:14:32Z</time>
      </trkpt>
      <trkpt lat="48.30652" lon="-3.57226">
        <ele>225</ele>
        <time>2021-07-08T13:14:33Z</time>
      </trkpt>
      <trkpt lat="48.30647" lon="-3.57223">
        <ele>225</ele>
        <time>2021-07-08T13:14:34Z</time>
      </trkpt>
      <trkpt lat="48.30643" lon="-3.5722">
        <ele>225</ele>
        <time>2021-07-08T13:14:35Z</time>
      </trkpt>
      <trkpt lat="48.30638" lon="-3.57218">
        <ele>224</ele>
        <time>2021-07-08T13:14:36Z</time>
      </trkpt>
      <trkpt lat="48.30633" lon="-3.57216">
        <ele>224</ele>
        <time>2021-07-08T13:14:37Z</time>
      </trkpt>
      <trkpt lat="48.30628" lon="-3.57214">
        <ele>224</ele>
        <time>2021-07-08T13:14:38Z</time>
      </trkpt>
      <trkpt lat="48.30623" lon="-3.57212">
        <ele>224</ele>
        <time>2021-07-08T13:14:39Z</time>
      </trkpt>
      <trkpt lat="48.30619" lon="-3.5721">
        <ele>224</ele>
        <time>2021-07-08T13:14:40Z</time>
      </trkpt>
      <trkpt lat="48.30614" lon="-3.57208">
        <ele>224</ele>
        <time>2021-07-08T13:14:41Z</time>
      </trkpt>
      <trkpt lat="48.30609" lon="-3.57206">
        <ele>224</ele>
        <time>2021-07-08T13:14:42Z</time>
      </trkpt>
      <trkpt lat="48.306" lon="-3.57203">
        <ele>224</ele>
        <time>2021-07-08T13:14:43Z</time>
      </trkpt>
      <trkpt lat="48.30595" lon="-3.57202">
        <ele>224</ele>
        <time>2021-07-08T13:14:45Z</time>
      </trkpt>
      <trkpt lat="48.3059" lon="-3.57201">
        <ele>224</ele>
        <time>2021-07-08T13:14:46Z</time>
      </trkpt>
      <trkpt lat="48.30585" lon="-3.57201">
        <ele>224</ele>
        <time>2021-07-08T13:14:47Z</time>
      </trkpt>
      <trkpt lat="48.3058" lon="-3.57201">
        <ele>224</ele>
        <time>2021-07-08T13:14:48Z</time>
      </trkpt>
      <trkpt lat="48.30575" lon="-3.57202">
        <ele>223</ele>
        <time>2021-07-08T13:14:49Z</time>
      </trkpt>
      <trkpt lat="48.30571" lon="-3.57201">
        <ele>223</ele>
        <time>2021-07-08T13:14:50Z</time>
      </trkpt>
      <trkpt lat="48.30566" lon="-3.57201">
        <ele>223</ele>
        <time>2021-07-08T13:14:51Z</time>
      </trkpt>
      <trkpt lat="48.30561" lon="-3.57201">
        <ele>223</ele>
        <time>2021-07-08T13:14:52Z</time>
      </trkpt>
      <trkpt lat="48.30556" lon="-3.57201">
        <ele>223</ele>
        <time>2021-07-08T13:14:53Z</time>
      </trkpt>
      <trkpt lat="48.30551" lon="-3.57202">
        <ele>223</ele>
        <time>2021-07-08T13:14:54Z</time>
      </trkpt>
      <trkpt lat="48.30547" lon="-3.57202">
        <ele>222</ele>
        <time>2021-07-08T13:14:55Z</time>
      </trkpt>
      <trkpt lat="48.30542" lon="-3.57201">
        <ele>222</ele>
        <time>2021-07-08T13:14:56Z</time>
      </trkpt>
      <trkpt lat="48.30538" lon="-3.57202">
        <ele>222</ele>
        <time>2021-07-08T13:14:57Z</time>
      </trkpt>
      <trkpt lat="48.30532" lon="-3.57202">
        <ele>222</ele>
        <time>2021-07-08T13:14:58Z</time>
      </trkpt>
      <trkpt lat="48.30527" lon="-3.57202">
        <ele>222</ele>
        <time>2021-07-08T13:14:59Z</time>
      </trkpt>
      <trkpt lat="48.30522" lon="-3.57202">
        <ele>222</ele>
        <time>2021-07-08T13:15:00Z</time>
      </trkpt>
      <trkpt lat="48.30517" lon="-3.57201">
        <ele>222</ele>
        <time>2021-07-08T13:15:01Z</time>
      </trkpt>
      <trkpt lat="48.30512" lon="-3.57201">
        <ele>222</ele>
        <time>2021-07-08T13:15:02Z</time>
      </trkpt>
      <trkpt lat="48.30506" lon="-3.57201">
        <ele>222</ele>
        <time>2021-07-08T13:15:03Z</time>
      </trkpt>
      <trkpt lat="48.30501" lon="-3.57201">
        <ele>221</ele>
        <time>2021-07-08T13:15:05Z</time>
      </trkpt>
      <trkpt lat="48.30496" lon="-3.572">
        <ele>221</ele>
        <time>2021-07-08T13:15:05Z</time>
      </trkpt>
      <trkpt lat="48.30491" lon="-3.57199">
        <ele>221</ele>
        <time>2021-07-08T13:15:06Z</time>
      </trkpt>
      <trkpt lat="48.30487" lon="-3.57198">
        <ele>220</ele>
        <time>2021-07-08T13:15:07Z</time>
      </trkpt>
      <trkpt lat="48.30482" lon="-3.57198">
        <ele>220</ele>
        <time>2021-07-08T13:15:08Z</time>
      </trkpt>
      <trkpt lat="48.30472" lon="-3.57198">
        <ele>219</ele>
        <time>2021-07-08T13:15:10Z</time>
      </trkpt>
      <trkpt lat="48.30462" lon="-3.57198">
        <ele>219</ele>
        <time>2021-07-08T13:15:12Z</time>
      </trkpt>
      <trkpt lat="48.30452" lon="-3.57195">
        <ele>218</ele>
        <time>2021-07-08T13:15:14Z</time>
      </trkpt>
      <trkpt lat="48.30441" lon="-3.57192">
        <ele>218</ele>
        <time>2021-07-08T13:15:16Z</time>
      </trkpt>
      <trkpt lat="48.30432" lon="-3.57189">
        <ele>218</ele>
        <time>2021-07-08T13:15:18Z</time>
      </trkpt>
      <trkpt lat="48.30422" lon="-3.57184">
        <ele>218</ele>
        <time>2021-07-08T13:15:20Z</time>
      </trkpt>
      <trkpt lat="48.30413" lon="-3.57178">
        <ele>218</ele>
        <time>2021-07-08T13:15:21Z</time>
      </trkpt>
      <trkpt lat="48.30405" lon="-3.57171">
        <ele>218</ele>
        <time>2021-07-08T13:15:24Z</time>
      </trkpt>
      <trkpt lat="48.30397" lon="-3.57162">
        <ele>218</ele>
        <time>2021-07-08T13:15:26Z</time>
      </trkpt>
      <trkpt lat="48.30393" lon="-3.57158">
        <ele>218</ele>
        <time>2021-07-08T13:15:27Z</time>
      </trkpt>
      <trkpt lat="48.30389" lon="-3.57154">
        <ele>218</ele>
        <time>2021-07-08T13:15:28Z</time>
      </trkpt>
      <trkpt lat="48.30385" lon="-3.5715">
        <ele>218</ele>
        <time>2021-07-08T13:15:29Z</time>
      </trkpt>
      <trkpt lat="48.30381" lon="-3.57146">
        <ele>218</ele>
        <time>2021-07-08T13:15:30Z</time>
      </trkpt>
      <trkpt lat="48.30376" lon="-3.57142">
        <ele>218</ele>
        <time>2021-07-08T13:15:31Z</time>
      </trkpt>
      <trkpt lat="48.30372" lon="-3.57137">
        <ele>218</ele>
        <time>2021-07-08T13:15:32Z</time>
      </trkpt>
      <trkpt lat="48.30368" lon="-3.57132">
        <ele>218</ele>
        <time>2021-07-08T13:15:33Z</time>
      </trkpt>
      <trkpt lat="48.30365" lon="-3.57127">
        <ele>217</ele>
        <time>2021-07-08T13:15:35Z</time>
      </trkpt>
      <trkpt lat="48.30361" lon="-3.57121">
        <ele>217</ele>
        <time>2021-07-08T13:15:36Z</time>
      </trkpt>
      <trkpt lat="48.30358" lon="-3.57116">
        <ele>217</ele>
        <time>2021-07-08T13:15:36Z</time>
      </trkpt>
      <trkpt lat="48.30355" lon="-3.57111">
        <ele>217</ele>
        <time>2021-07-08T13:15:37Z</time>
      </trkpt>
      <trkpt lat="48.30352" lon="-3.57105">
        <ele>217</ele>
        <time>2021-07-08T13:15:38Z</time>
      </trkpt>
      <trkpt lat="48.3035" lon="-3.571">
        <ele>217</ele>
        <time>2021-07-08T13:15:39Z</time>
      </trkpt>
      <trkpt lat="48.30347" lon="-3.57094">
        <ele>217</ele>
        <time>2021-07-08T13:15:40Z</time>
      </trkpt>
      <trkpt lat="48.30344" lon="-3.57088">
        <ele>217</ele>
        <time>2021-07-08T13:15:41Z</time>
      </trkpt>
      <trkpt lat="48.30342" lon="-3.57082">
        <ele>217</ele>
        <time>2021-07-08T13:15:42Z</time>
      </trkpt>
      <trkpt lat="48.30339" lon="-3.57077">
        <ele>217</ele>
        <time>2021-07-08T13:15:43Z</time>
      </trkpt>
      <trkpt lat="48.30337" lon="-3.57071">
        <ele>217</ele>
        <time>2021-07-08T13:15:44Z</time>
      </trkpt>
      <trkpt lat="48.30335" lon="-3.57064">
        <ele>217</ele>
        <time>2021-07-08T13:15:45Z</time>
      </trkpt>
      <trkpt lat="48.30332" lon="-3.57058">
        <ele>217</ele>
        <time>2021-07-08T13:15:46Z</time>
      </trkpt>
      <trkpt lat="48.3033" lon="-3.57052">
        <ele>216</ele>
        <time>2021-07-08T13:15:47Z</time>
      </trkpt>
      <trkpt lat="48.30327" lon="-3.57046">
        <ele>216</ele>
        <time>2021-07-08T13:15:48Z</time>
      </trkpt>
      <trkpt lat="48.30325" lon="-3.57038">
        <ele>216</ele>
        <time>2021-07-08T13:15:49Z</time>
      </trkpt>
      <trkpt lat="48.30323" lon="-3.57032">
        <ele>215</ele>
        <time>2021-07-08T13:15:50Z</time>
      </trkpt>
      <trkpt lat="48.30322" lon="-3.57025">
        <ele>215</ele>
        <time>2021-07-08T13:15:51Z</time>
      </trkpt>
      <trkpt lat="48.3032" lon="-3.5702">
        <ele>215</ele>
        <time>2021-07-08T13:15:52Z</time>
      </trkpt>
      <trkpt lat="48.30319" lon="-3.57014">
        <ele>215</ele>
        <time>2021-07-08T13:15:53Z</time>
      </trkpt>
      <trkpt lat="48.30318" lon="-3.57009">
        <ele>215</ele>
        <time>2021-07-08T13:15:54Z</time>
      </trkpt>
      <trkpt lat="48.30316" lon="-3.57004">
        <ele>215</ele>
        <time>2021-07-08T13:15:55Z</time>
      </trkpt>
      <trkpt lat="48.30315" lon="-3.56998">
        <ele>215</ele>
        <time>2021-07-08T13:15:56Z</time>
      </trkpt>
      <trkpt lat="48.30314" lon="-3.56993">
        <ele>215</ele>
        <time>2021-07-08T13:15:57Z</time>
      </trkpt>
      <trkpt lat="48.30312" lon="-3.56988">
        <ele>215</ele>
        <time>2021-07-08T13:15:58Z</time>
      </trkpt>
      <trkpt lat="48.30309" lon="-3.56977">
        <ele>215</ele>
        <time>2021-07-08T13:16:00Z</time>
      </trkpt>
      <trkpt lat="48.30304" lon="-3.56964">
        <ele>215</ele>
        <time>2021-07-08T13:16:02Z</time>
      </trkpt>
      <trkpt lat="48.30302" lon="-3.56957">
        <ele>214</ele>
        <time>2021-07-08T13:16:03Z</time>
      </trkpt>
      <trkpt lat="48.303" lon="-3.5695">
        <ele>214</ele>
        <time>2021-07-08T13:16:04Z</time>
      </trkpt>
      <trkpt lat="48.30298" lon="-3.56944">
        <ele>213</ele>
        <time>2021-07-08T13:16:05Z</time>
      </trkpt>
      <trkpt lat="48.30296" lon="-3.56938">
        <ele>213</ele>
        <time>2021-07-08T13:16:06Z</time>
      </trkpt>
      <trkpt lat="48.30295" lon="-3.56932">
        <ele>213</ele>
        <time>2021-07-08T13:16:07Z</time>
      </trkpt>
      <trkpt lat="48.30293" lon="-3.56927">
        <ele>214</ele>
        <time>2021-07-08T13:16:08Z</time>
      </trkpt>
      <trkpt lat="48.30292" lon="-3.56922">
        <ele>214</ele>
        <time>2021-07-08T13:16:09Z</time>
      </trkpt>
      <trkpt lat="48.3029" lon="-3.56917">
        <ele>214</ele>
        <time>2021-07-08T13:16:10Z</time>
      </trkpt>
      <trkpt lat="48.30287" lon="-3.56905">
        <ele>214</ele>
        <time>2021-07-08T13:16:12Z</time>
      </trkpt>
      <trkpt lat="48.30285" lon="-3.56899">
        <ele>214</ele>
        <time>2021-07-08T13:16:13Z</time>
      </trkpt>
      <trkpt lat="48.30284" lon="-3.56892">
        <ele>213</ele>
        <time>2021-07-08T13:16:14Z</time>
      </trkpt>
      <trkpt lat="48.30283" lon="-3.56888">
        <ele>213</ele>
        <time>2021-07-08T13:16:15Z</time>
      </trkpt>
      <trkpt lat="48.30282" lon="-3.56885">
        <ele>213</ele>
        <time>2021-07-08T13:16:16Z</time>
      </trkpt>
      <trkpt lat="48.30281" lon="-3.56883">
        <ele>214</ele>
        <time>2021-07-08T13:16:26Z</time>
      </trkpt>
      <trkpt lat="48.30281" lon="-3.56875">
        <ele>213</ele>
        <time>2021-07-08T13:16:46Z</time>
      </trkpt>
      <trkpt lat="48.30281" lon="-3.56871">
        <ele>213</ele>
        <time>2021-07-08T13:16:46Z</time>
      </trkpt>
      <trkpt lat="48.30281" lon="-3.56868">
        <ele>214</ele>
        <time>2021-07-08T13:16:48Z</time>
      </trkpt>
      <trkpt lat="48.3028" lon="-3.56865">
        <ele>214</ele>
        <time>2021-07-08T13:16:49Z</time>
      </trkpt>
      <trkpt lat="48.30279" lon="-3.56861">
        <ele>214</ele>
        <time>2021-07-08T13:16:50Z</time>
      </trkpt>
      <trkpt lat="48.30278" lon="-3.56857">
        <ele>214</ele>
        <time>2021-07-08T13:16:52Z</time>
      </trkpt>
      <trkpt lat="48.30277" lon="-3.56854">
        <ele>214</ele>
        <time>2021-07-08T13:16:52Z</time>
      </trkpt>
      <trkpt lat="48.30276" lon="-3.5685">
        <ele>214</ele>
        <time>2021-07-08T13:16:53Z</time>
      </trkpt>
      <trkpt lat="48.30275" lon="-3.56846">
        <ele>214</ele>
        <time>2021-07-08T13:16:54Z</time>
      </trkpt>
      <trkpt lat="48.30274" lon="-3.56843">
        <ele>213</ele>
        <time>2021-07-08T13:16:55Z</time>
      </trkpt>
      <trkpt lat="48.30273" lon="-3.56839">
        <ele>213</ele>
        <time>2021-07-08T13:16:56Z</time>
      </trkpt>
      <trkpt lat="48.30273" lon="-3.56836">
        <ele>213</ele>
        <time>2021-07-08T13:16:57Z</time>
      </trkpt>
      <trkpt lat="48.3027" lon="-3.56834">
        <ele>212</ele>
        <time>2021-07-08T13:16:59Z</time>
      </trkpt>
      <trkpt lat="48.30269" lon="-3.5683">
        <ele>212</ele>
        <time>2021-07-08T13:17:01Z</time>
      </trkpt>
      <trkpt lat="48.30267" lon="-3.56824">
        <ele>212</ele>
        <time>2021-07-08T13:17:02Z</time>
      </trkpt>
      <trkpt lat="48.30266" lon="-3.5682">
        <ele>212</ele>
        <time>2021-07-08T13:17:04Z</time>
      </trkpt>
      <trkpt lat="48.30265" lon="-3.56817">
        <ele>212</ele>
        <time>2021-07-08T13:17:05Z</time>
      </trkpt>
      <trkpt lat="48.30265" lon="-3.56813">
        <ele>212</ele>
        <time>2021-07-08T13:17:06Z</time>
      </trkpt>
      <trkpt lat="48.30264" lon="-3.56809">
        <ele>212</ele>
        <time>2021-07-08T13:17:07Z</time>
      </trkpt>
      <trkpt lat="48.30263" lon="-3.56805">
        <ele>212</ele>
        <time>2021-07-08T13:17:08Z</time>
      </trkpt>
      <trkpt lat="48.30262" lon="-3.56801">
        <ele>211</ele>
        <time>2021-07-08T13:17:09Z</time>
      </trkpt>
      <trkpt lat="48.3026" lon="-3.56796">
        <ele>211</ele>
        <time>2021-07-08T13:17:10Z</time>
      </trkpt>
      <trkpt lat="48.30259" lon="-3.56791">
        <ele>211</ele>
        <time>2021-07-08T13:17:11Z</time>
      </trkpt>
      <trkpt lat="48.30258" lon="-3.56786">
        <ele>211</ele>
        <time>2021-07-08T13:17:12Z</time>
      </trkpt>
      <trkpt lat="48.30256" lon="-3.56781">
        <ele>211</ele>
        <time>2021-07-08T13:17:13Z</time>
      </trkpt>
      <trkpt lat="48.30255" lon="-3.56775">
        <ele>211</ele>
        <time>2021-07-08T13:17:14Z</time>
      </trkpt>
      <trkpt lat="48.30254" lon="-3.5677">
        <ele>211</ele>
        <time>2021-07-08T13:17:15Z</time>
      </trkpt>
      <trkpt lat="48.30252" lon="-3.56764">
        <ele>211</ele>
        <time>2021-07-08T13:17:16Z</time>
      </trkpt>
      <trkpt lat="48.30251" lon="-3.56758">
        <ele>211</ele>
        <time>2021-07-08T13:17:17Z</time>
      </trkpt>
      <trkpt lat="48.3025" lon="-3.56753">
        <ele>211</ele>
        <time>2021-07-08T13:17:18Z</time>
      </trkpt>
      <trkpt lat="48.30249" lon="-3.56747">
        <ele>211</ele>
        <time>2021-07-08T13:17:19Z</time>
      </trkpt>
      <trkpt lat="48.30247" lon="-3.56741">
        <ele>211</ele>
        <time>2021-07-08T13:17:20Z</time>
      </trkpt>
      <trkpt lat="48.30246" lon="-3.56735">
        <ele>211</ele>
        <time>2021-07-08T13:17:21Z</time>
      </trkpt>
      <trkpt lat="48.30244" lon="-3.56729">
        <ele>211</ele>
        <time>2021-07-08T13:17:22Z</time>
      </trkpt>
      <trkpt lat="48.30242" lon="-3.56723">
        <ele>211</ele>
        <time>2021-07-08T13:17:23Z</time>
      </trkpt>
      <trkpt lat="48.30239" lon="-3.56711">
        <ele>211</ele>
        <time>2021-07-08T13:17:25Z</time>
      </trkpt>
      <trkpt lat="48.30237" lon="-3.56705">
        <ele>210</ele>
        <time>2021-07-08T13:17:26Z</time>
      </trkpt>
      <trkpt lat="48.30236" lon="-3.56698">
        <ele>210</ele>
        <time>2021-07-08T13:17:27Z</time>
      </trkpt>
      <trkpt lat="48.30234" lon="-3.56692">
        <ele>210</ele>
        <time>2021-07-08T13:17:27Z</time>
      </trkpt>
      <trkpt lat="48.30232" lon="-3.56686">
        <ele>210</ele>
        <time>2021-07-08T13:17:29Z</time>
      </trkpt>
      <trkpt lat="48.3023" lon="-3.5668">
        <ele>210</ele>
        <time>2021-07-08T13:17:30Z</time>
      </trkpt>
      <trkpt lat="48.30228" lon="-3.56674">
        <ele>210</ele>
        <time>2021-07-08T13:17:31Z</time>
      </trkpt>
      <trkpt lat="48.30226" lon="-3.56668">
        <ele>210</ele>
        <time>2021-07-08T13:17:32Z</time>
      </trkpt>
      <trkpt lat="48.30225" lon="-3.56663">
        <ele>210</ele>
        <time>2021-07-08T13:17:33Z</time>
      </trkpt>
      <trkpt lat="48.30223" lon="-3.56657">
        <ele>210</ele>
        <time>2021-07-08T13:17:34Z</time>
      </trkpt>
      <trkpt lat="48.30221" lon="-3.56651">
        <ele>210</ele>
        <time>2021-07-08T13:17:35Z</time>
      </trkpt>
      <trkpt lat="48.30219" lon="-3.56645">
        <ele>210</ele>
        <time>2021-07-08T13:17:36Z</time>
      </trkpt>
      <trkpt lat="48.30217" lon="-3.5664">
        <ele>209</ele>
        <time>2021-07-08T13:17:37Z</time>
      </trkpt>
      <trkpt lat="48.30215" lon="-3.56634">
        <ele>209</ele>
        <time>2021-07-08T13:17:38Z</time>
      </trkpt>
      <trkpt lat="48.30213" lon="-3.56629">
        <ele>209</ele>
        <time>2021-07-08T13:17:39Z</time>
      </trkpt>
      <trkpt lat="48.30211" lon="-3.56624">
        <ele>209</ele>
        <time>2021-07-08T13:17:40Z</time>
      </trkpt>
      <trkpt lat="48.30209" lon="-3.56619">
        <ele>209</ele>
        <time>2021-07-08T13:17:41Z</time>
      </trkpt>
      <trkpt lat="48.30207" lon="-3.56614">
        <ele>209</ele>
        <time>2021-07-08T13:17:42Z</time>
      </trkpt>
      <trkpt lat="48.30203" lon="-3.56603">
        <ele>209</ele>
        <time>2021-07-08T13:17:43Z</time>
      </trkpt>
      <trkpt lat="48.302" lon="-3.56598">
        <ele>209</ele>
        <time>2021-07-08T13:17:45Z</time>
      </trkpt>
      <trkpt lat="48.30198" lon="-3.56593">
        <ele>209</ele>
        <time>2021-07-08T13:17:46Z</time>
      </trkpt>
      <trkpt lat="48.30195" lon="-3.56588">
        <ele>209</ele>
        <time>2021-07-08T13:17:47Z</time>
      </trkpt>
      <trkpt lat="48.30193" lon="-3.56582">
        <ele>209</ele>
        <time>2021-07-08T13:17:48Z</time>
      </trkpt>
      <trkpt lat="48.3019" lon="-3.56577">
        <ele>208</ele>
        <time>2021-07-08T13:17:49Z</time>
      </trkpt>
      <trkpt lat="48.30188" lon="-3.56572">
        <ele>208</ele>
        <time>2021-07-08T13:17:50Z</time>
      </trkpt>
      <trkpt lat="48.30185" lon="-3.56567">
        <ele>208</ele>
        <time>2021-07-08T13:17:51Z</time>
      </trkpt>
      <trkpt lat="48.30183" lon="-3.56561">
        <ele>208</ele>
        <time>2021-07-08T13:17:52Z</time>
      </trkpt>
      <trkpt lat="48.3018" lon="-3.56556">
        <ele>208</ele>
        <time>2021-07-08T13:17:53Z</time>
      </trkpt>
      <trkpt lat="48.30177" lon="-3.56551">
        <ele>207</ele>
        <time>2021-07-08T13:17:54Z</time>
      </trkpt>
      <trkpt lat="48.30174" lon="-3.56546">
        <ele>207</ele>
        <time>2021-07-08T13:17:55Z</time>
      </trkpt>
      <trkpt lat="48.30171" lon="-3.56541">
        <ele>207</ele>
        <time>2021-07-08T13:17:56Z</time>
      </trkpt>
      <trkpt lat="48.30168" lon="-3.56536">
        <ele>207</ele>
        <time>2021-07-08T13:17:57Z</time>
      </trkpt>
      <trkpt lat="48.30165" lon="-3.56531">
        <ele>207</ele>
        <time>2021-07-08T13:17:58Z</time>
      </trkpt>
      <trkpt lat="48.30162" lon="-3.56526">
        <ele>207</ele>
        <time>2021-07-08T13:17:59Z</time>
      </trkpt>
      <trkpt lat="48.30159" lon="-3.56521">
        <ele>207</ele>
        <time>2021-07-08T13:18:00Z</time>
      </trkpt>
      <trkpt lat="48.30156" lon="-3.56516">
        <ele>206</ele>
        <time>2021-07-08T13:18:01Z</time>
      </trkpt>
      <trkpt lat="48.30149" lon="-3.56506">
        <ele>206</ele>
        <time>2021-07-08T13:18:02Z</time>
      </trkpt>
      <trkpt lat="48.30145" lon="-3.56501">
        <ele>206</ele>
        <time>2021-07-08T13:18:04Z</time>
      </trkpt>
      <trkpt lat="48.30142" lon="-3.56496">
        <ele>206</ele>
        <time>2021-07-08T13:18:05Z</time>
      </trkpt>
      <trkpt lat="48.30139" lon="-3.56491">
        <ele>206</ele>
        <time>2021-07-08T13:18:06Z</time>
      </trkpt>
      <trkpt lat="48.30135" lon="-3.56486">
        <ele>205</ele>
        <time>2021-07-08T13:18:07Z</time>
      </trkpt>
      <trkpt lat="48.30132" lon="-3.5648">
        <ele>205</ele>
        <time>2021-07-08T13:18:08Z</time>
      </trkpt>
      <trkpt lat="48.30128" lon="-3.56475">
        <ele>205</ele>
        <time>2021-07-08T13:18:09Z</time>
      </trkpt>
      <trkpt lat="48.30125" lon="-3.56469">
        <ele>205</ele>
        <time>2021-07-08T13:18:10Z</time>
      </trkpt>
      <trkpt lat="48.30121" lon="-3.56464">
        <ele>205</ele>
        <time>2021-07-08T13:18:11Z</time>
      </trkpt>
      <trkpt lat="48.30118" lon="-3.56458">
        <ele>205</ele>
        <time>2021-07-08T13:18:12Z</time>
      </trkpt>
      <trkpt lat="48.30114" lon="-3.56453">
        <ele>205</ele>
        <time>2021-07-08T13:18:13Z</time>
      </trkpt>
      <trkpt lat="48.30111" lon="-3.56448">
        <ele>205</ele>
        <time>2021-07-08T13:18:14Z</time>
      </trkpt>
      <trkpt lat="48.30108" lon="-3.56443">
        <ele>205</ele>
        <time>2021-07-08T13:18:15Z</time>
      </trkpt>
      <trkpt lat="48.30104" lon="-3.56437">
        <ele>205</ele>
        <time>2021-07-08T13:18:16Z</time>
      </trkpt>
      <trkpt lat="48.30101" lon="-3.56431">
        <ele>205</ele>
        <time>2021-07-08T13:18:17Z</time>
      </trkpt>
      <trkpt lat="48.30097" lon="-3.56425">
        <ele>205</ele>
        <time>2021-07-08T13:18:18Z</time>
      </trkpt>
      <trkpt lat="48.30093" lon="-3.56419">
        <ele>205</ele>
        <time>2021-07-08T13:18:19Z</time>
      </trkpt>
      <trkpt lat="48.3009" lon="-3.56413">
        <ele>205</ele>
        <time>2021-07-08T13:18:20Z</time>
      </trkpt>
      <trkpt lat="48.30082" lon="-3.56402">
        <ele>205</ele>
        <time>2021-07-08T13:18:21Z</time>
      </trkpt>
      <trkpt lat="48.30079" lon="-3.56396">
        <ele>205</ele>
        <time>2021-07-08T13:18:23Z</time>
      </trkpt>
      <trkpt lat="48.30075" lon="-3.56391">
        <ele>205</ele>
        <time>2021-07-08T13:18:24Z</time>
      </trkpt>
      <trkpt lat="48.30071" lon="-3.56386">
        <ele>205</ele>
        <time>2021-07-08T13:18:25Z</time>
      </trkpt>
      <trkpt lat="48.30067" lon="-3.56381">
        <ele>205</ele>
        <time>2021-07-08T13:18:26Z</time>
      </trkpt>
      <trkpt lat="48.30064" lon="-3.56375">
        <ele>204</ele>
        <time>2021-07-08T13:18:27Z</time>
      </trkpt>
      <trkpt lat="48.3006" lon="-3.5637">
        <ele>204</ele>
        <time>2021-07-08T13:18:28Z</time>
      </trkpt>
      <trkpt lat="48.30057" lon="-3.56364">
        <ele>203</ele>
        <time>2021-07-08T13:18:29Z</time>
      </trkpt>
      <trkpt lat="48.30053" lon="-3.56359">
        <ele>203</ele>
        <time>2021-07-08T13:18:30Z</time>
      </trkpt>
      <trkpt lat="48.3005" lon="-3.56354">
        <ele>203</ele>
        <time>2021-07-08T13:18:31Z</time>
      </trkpt>
      <trkpt lat="48.30047" lon="-3.56349">
        <ele>203</ele>
        <time>2021-07-08T13:18:32Z</time>
      </trkpt>
      <trkpt lat="48.30044" lon="-3.56344">
        <ele>203</ele>
        <time>2021-07-08T13:18:33Z</time>
      </trkpt>
      <trkpt lat="48.3004" lon="-3.56339">
        <ele>203</ele>
        <time>2021-07-08T13:18:34Z</time>
      </trkpt>
      <trkpt lat="48.30034" lon="-3.5633">
        <ele>203</ele>
        <time>2021-07-08T13:18:36Z</time>
      </trkpt>
      <trkpt lat="48.30024" lon="-3.56316">
        <ele>203</ele>
        <time>2021-07-08T13:18:39Z</time>
      </trkpt>
      <trkpt lat="48.30014" lon="-3.56302">
        <ele>202</ele>
        <time>2021-07-08T13:18:42Z</time>
      </trkpt>
      <trkpt lat="48.30011" lon="-3.56297">
        <ele>202</ele>
        <time>2021-07-08T13:18:43Z</time>
      </trkpt>
      <trkpt lat="48.30007" lon="-3.56291">
        <ele>202</ele>
        <time>2021-07-08T13:18:44Z</time>
      </trkpt>
      <trkpt lat="48.30004" lon="-3.56285">
        <ele>202</ele>
        <time>2021-07-08T13:18:45Z</time>
      </trkpt>
      <trkpt lat="48.3" lon="-3.5628">
        <ele>202</ele>
        <time>2021-07-08T13:18:46Z</time>
      </trkpt>
      <trkpt lat="48.29997" lon="-3.56274">
        <ele>202</ele>
        <time>2021-07-08T13:18:47Z</time>
      </trkpt>
      <trkpt lat="48.29993" lon="-3.56267">
        <ele>202</ele>
        <time>2021-07-08T13:18:48Z</time>
      </trkpt>
      <trkpt lat="48.29985" lon="-3.56255">
        <ele>201</ele>
        <time>2021-07-08T13:18:50Z</time>
      </trkpt>
      <trkpt lat="48.29982" lon="-3.56248">
        <ele>201</ele>
        <time>2021-07-08T13:18:51Z</time>
      </trkpt>
      <trkpt lat="48.29978" lon="-3.56243">
        <ele>201</ele>
        <time>2021-07-08T13:18:52Z</time>
      </trkpt>
      <trkpt lat="48.29974" lon="-3.56237">
        <ele>201</ele>
        <time>2021-07-08T13:18:53Z</time>
      </trkpt>
      <trkpt lat="48.2997" lon="-3.56231">
        <ele>200</ele>
        <time>2021-07-08T13:18:54Z</time>
      </trkpt>
      <trkpt lat="48.29967" lon="-3.56225">
        <ele>200</ele>
        <time>2021-07-08T13:18:55Z</time>
      </trkpt>
      <trkpt lat="48.29963" lon="-3.5622">
        <ele>200</ele>
        <time>2021-07-08T13:18:56Z</time>
      </trkpt>
      <trkpt lat="48.29959" lon="-3.56214">
        <ele>200</ele>
        <time>2021-07-08T13:18:57Z</time>
      </trkpt>
      <trkpt lat="48.29955" lon="-3.56208">
        <ele>200</ele>
        <time>2021-07-08T13:18:58Z</time>
      </trkpt>
      <trkpt lat="48.29947" lon="-3.56197">
        <ele>200</ele>
        <time>2021-07-08T13:19:00Z</time>
      </trkpt>
      <trkpt lat="48.29944" lon="-3.56192">
        <ele>200</ele>
        <time>2021-07-08T13:19:01Z</time>
      </trkpt>
      <trkpt lat="48.2994" lon="-3.56186">
        <ele>200</ele>
        <time>2021-07-08T13:19:02Z</time>
      </trkpt>
      <trkpt lat="48.29936" lon="-3.56181">
        <ele>200</ele>
        <time>2021-07-08T13:19:03Z</time>
      </trkpt>
      <trkpt lat="48.29933" lon="-3.56176">
        <ele>200</ele>
        <time>2021-07-08T13:19:04Z</time>
      </trkpt>
      <trkpt lat="48.2993" lon="-3.56171">
        <ele>200</ele>
        <time>2021-07-08T13:19:05Z</time>
      </trkpt>
      <trkpt lat="48.29923" lon="-3.56161">
        <ele>199</ele>
        <time>2021-07-08T13:19:07Z</time>
      </trkpt>
      <trkpt lat="48.2992" lon="-3.56156">
        <ele>199</ele>
        <time>2021-07-08T13:19:08Z</time>
      </trkpt>
      <trkpt lat="48.29912" lon="-3.56145">
        <ele>199</ele>
        <time>2021-07-08T13:19:10Z</time>
      </trkpt>
      <trkpt lat="48.29905" lon="-3.56133">
        <ele>199</ele>
        <time>2021-07-08T13:19:12Z</time>
      </trkpt>
      <trkpt lat="48.29898" lon="-3.56122">
        <ele>199</ele>
        <time>2021-07-08T13:19:14Z</time>
      </trkpt>
      <trkpt lat="48.29891" lon="-3.56111">
        <ele>199</ele>
        <time>2021-07-08T13:19:16Z</time>
      </trkpt>
      <trkpt lat="48.29887" lon="-3.56105">
        <ele>199</ele>
        <time>2021-07-08T13:19:17Z</time>
      </trkpt>
      <trkpt lat="48.29882" lon="-3.56097">
        <ele>199</ele>
        <time>2021-07-08T13:19:18Z</time>
      </trkpt>
      <trkpt lat="48.29878" lon="-3.56091">
        <ele>199</ele>
        <time>2021-07-08T13:19:19Z</time>
      </trkpt>
      <trkpt lat="48.29875" lon="-3.56085">
        <ele>198</ele>
        <time>2021-07-08T13:19:20Z</time>
      </trkpt>
      <trkpt lat="48.29867" lon="-3.56073">
        <ele>198</ele>
        <time>2021-07-08T13:19:22Z</time>
      </trkpt>
      <trkpt lat="48.29863" lon="-3.56067">
        <ele>197</ele>
        <time>2021-07-08T13:19:23Z</time>
      </trkpt>
      <trkpt lat="48.29856" lon="-3.56055">
        <ele>197</ele>
        <time>2021-07-08T13:19:25Z</time>
      </trkpt>
      <trkpt lat="48.29848" lon="-3.56044">
        <ele>197</ele>
        <time>2021-07-08T13:19:27Z</time>
      </trkpt>
      <trkpt lat="48.2984" lon="-3.56031">
        <ele>197</ele>
        <time>2021-07-08T13:19:29Z</time>
      </trkpt>
      <trkpt lat="48.29835" lon="-3.56024">
        <ele>197</ele>
        <time>2021-07-08T13:19:30Z</time>
      </trkpt>
      <trkpt lat="48.29831" lon="-3.56018">
        <ele>197</ele>
        <time>2021-07-08T13:19:31Z</time>
      </trkpt>
      <trkpt lat="48.29828" lon="-3.56013">
        <ele>197</ele>
        <time>2021-07-08T13:19:32Z</time>
      </trkpt>
      <trkpt lat="48.29824" lon="-3.56007">
        <ele>197</ele>
        <time>2021-07-08T13:19:33Z</time>
      </trkpt>
      <trkpt lat="48.2982" lon="-3.56001">
        <ele>197</ele>
        <time>2021-07-08T13:19:34Z</time>
      </trkpt>
      <trkpt lat="48.29817" lon="-3.55997">
        <ele>197</ele>
        <time>2021-07-08T13:19:35Z</time>
      </trkpt>
      <trkpt lat="48.29815" lon="-3.55993">
        <ele>197</ele>
        <time>2021-07-08T13:19:36Z</time>
      </trkpt>
      <trkpt lat="48.2981" lon="-3.55985">
        <ele>196</ele>
        <time>2021-07-08T13:19:38Z</time>
      </trkpt>
      <trkpt lat="48.29808" lon="-3.55981">
        <ele>196</ele>
        <time>2021-07-08T13:19:39Z</time>
      </trkpt>
      <trkpt lat="48.29806" lon="-3.55977">
        <ele>196</ele>
        <time>2021-07-08T13:19:40Z</time>
      </trkpt>
      <trkpt lat="48.29803" lon="-3.55974">
        <ele>195</ele>
        <time>2021-07-08T13:19:41Z</time>
      </trkpt>
      <trkpt lat="48.29801" lon="-3.5597">
        <ele>195</ele>
        <time>2021-07-08T13:19:42Z</time>
      </trkpt>
      <trkpt lat="48.29796" lon="-3.55964">
        <ele>195</ele>
        <time>2021-07-08T13:19:44Z</time>
      </trkpt>
      <trkpt lat="48.29794" lon="-3.5596">
        <ele>195</ele>
        <time>2021-07-08T13:19:45Z</time>
      </trkpt>
      <trkpt lat="48.2979" lon="-3.55956">
        <ele>195</ele>
        <time>2021-07-08T13:19:45Z</time>
      </trkpt>
      <trkpt lat="48.29787" lon="-3.55951">
        <ele>195</ele>
        <time>2021-07-08T13:19:47Z</time>
      </trkpt>
      <trkpt lat="48.29785" lon="-3.55946">
        <ele>195</ele>
        <time>2021-07-08T13:19:48Z</time>
      </trkpt>
      <trkpt lat="48.29782" lon="-3.55941">
        <ele>195</ele>
        <time>2021-07-08T13:19:49Z</time>
      </trkpt>
      <trkpt lat="48.29779" lon="-3.55936">
        <ele>194</ele>
        <time>2021-07-08T13:19:50Z</time>
      </trkpt>
      <trkpt lat="48.29772" lon="-3.55926">
        <ele>194</ele>
        <time>2021-07-08T13:19:51Z</time>
      </trkpt>
      <trkpt lat="48.29769" lon="-3.55921">
        <ele>194</ele>
        <time>2021-07-08T13:19:53Z</time>
      </trkpt>
      <trkpt lat="48.29765" lon="-3.55917">
        <ele>194</ele>
        <time>2021-07-08T13:19:54Z</time>
      </trkpt>
      <trkpt lat="48.29762" lon="-3.55911">
        <ele>194</ele>
        <time>2021-07-08T13:19:55Z</time>
      </trkpt>
      <trkpt lat="48.29755" lon="-3.55902">
        <ele>194</ele>
        <time>2021-07-08T13:19:56Z</time>
      </trkpt>
      <trkpt lat="48.29752" lon="-3.55897">
        <ele>194</ele>
        <time>2021-07-08T13:19:58Z</time>
      </trkpt>
      <trkpt lat="48.29748" lon="-3.55892">
        <ele>194</ele>
        <time>2021-07-08T13:19:59Z</time>
      </trkpt>
      <trkpt lat="48.29745" lon="-3.55888">
        <ele>194</ele>
        <time>2021-07-08T13:20:00Z</time>
      </trkpt>
      <trkpt lat="48.29742" lon="-3.55883">
        <ele>194</ele>
        <time>2021-07-08T13:20:01Z</time>
      </trkpt>
      <trkpt lat="48.2974" lon="-3.55879">
        <ele>194</ele>
        <time>2021-07-08T13:20:02Z</time>
      </trkpt>
      <trkpt lat="48.29736" lon="-3.55875">
        <ele>194</ele>
        <time>2021-07-08T13:20:03Z</time>
      </trkpt>
      <trkpt lat="48.29733" lon="-3.55871">
        <ele>194</ele>
        <time>2021-07-08T13:20:04Z</time>
      </trkpt>
      <trkpt lat="48.29731" lon="-3.55867">
        <ele>194</ele>
        <time>2021-07-08T13:20:05Z</time>
      </trkpt>
      <trkpt lat="48.29728" lon="-3.55863">
        <ele>194</ele>
        <time>2021-07-08T13:20:06Z</time>
      </trkpt>
      <trkpt lat="48.29725" lon="-3.55859">
        <ele>194</ele>
        <time>2021-07-08T13:20:07Z</time>
      </trkpt>
      <trkpt lat="48.29723" lon="-3.55855">
        <ele>194</ele>
        <time>2021-07-08T13:20:08Z</time>
      </trkpt>
      <trkpt lat="48.29721" lon="-3.55851">
        <ele>193</ele>
        <time>2021-07-08T13:20:09Z</time>
      </trkpt>
      <trkpt lat="48.29718" lon="-3.55848">
        <ele>193</ele>
        <time>2021-07-08T13:20:10Z</time>
      </trkpt>
      <trkpt lat="48.29716" lon="-3.55844">
        <ele>193</ele>
        <time>2021-07-08T13:20:11Z</time>
      </trkpt>
      <trkpt lat="48.29714" lon="-3.55841">
        <ele>193</ele>
        <time>2021-07-08T13:20:12Z</time>
      </trkpt>
      <trkpt lat="48.29667" lon="-3.5577">
        <ele>195</ele>
        <time>2021-07-08T13:20:12Z</time>
      </trkpt>
      <trkpt lat="48.29666" lon="-3.55768">
        <ele>195</ele>
        <time>2021-07-08T13:20:13Z</time>
      </trkpt>
      <trkpt lat="48.29711" lon="-3.55838">
        <ele>193</ele>
        <time>2021-07-08T13:20:13Z</time>
      </trkpt>
      <trkpt lat="48.29665" lon="-3.55765">
        <ele>195</ele>
        <time>2021-07-08T13:20:13Z</time>
      </trkpt>
      <trkpt lat="48.29709" lon="-3.55835">
        <ele>193</ele>
        <time>2021-07-08T13:20:14Z</time>
      </trkpt>
      <trkpt lat="48.29663" lon="-3.55763">
        <ele>195</ele>
        <time>2021-07-08T13:20:15Z</time>
      </trkpt>
      <trkpt lat="48.29662" lon="-3.55761">
        <ele>195</ele>
        <time>2021-07-08T13:20:15Z</time>
      </trkpt>
      <trkpt lat="48.29704" lon="-3.55828">
        <ele>193</ele>
        <time>2021-07-08T13:20:16Z</time>
      </trkpt>
      <trkpt lat="48.29661" lon="-3.55758">
        <ele>195</ele>
        <time>2021-07-08T13:20:17Z</time>
      </trkpt>
      <trkpt lat="48.29702" lon="-3.55824">
        <ele>193</ele>
        <time>2021-07-08T13:20:17Z</time>
      </trkpt>
      <trkpt lat="48.29659" lon="-3.55755">
        <ele>195</ele>
        <time>2021-07-08T13:20:18Z</time>
      </trkpt>
      <trkpt lat="48.297" lon="-3.55821">
        <ele>193</ele>
        <time>2021-07-08T13:20:18Z</time>
      </trkpt>
      <trkpt lat="48.29656" lon="-3.55752">
        <ele>195</ele>
        <time>2021-07-08T13:20:19Z</time>
      </trkpt>
      <trkpt lat="48.29698" lon="-3.55818">
        <ele>193</ele>
        <time>2021-07-08T13:20:19Z</time>
      </trkpt>
      <trkpt lat="48.29654" lon="-3.55749">
        <ele>195</ele>
        <time>2021-07-08T13:20:20Z</time>
      </trkpt>
      <trkpt lat="48.29696" lon="-3.55815">
        <ele>193</ele>
        <time>2021-07-08T13:20:20Z</time>
      </trkpt>
      <trkpt lat="48.29652" lon="-3.55746">
        <ele>195</ele>
        <time>2021-07-08T13:20:20Z</time>
      </trkpt>
      <trkpt lat="48.29694" lon="-3.55811">
        <ele>193</ele>
        <time>2021-07-08T13:20:21Z</time>
      </trkpt>
      <trkpt lat="48.2965" lon="-3.55743">
        <ele>195</ele>
        <time>2021-07-08T13:20:22Z</time>
      </trkpt>
      <trkpt lat="48.29692" lon="-3.55808">
        <ele>193</ele>
        <time>2021-07-08T13:20:22Z</time>
      </trkpt>
      <trkpt lat="48.29648" lon="-3.5574">
        <ele>195</ele>
        <time>2021-07-08T13:20:22Z</time>
      </trkpt>
      <trkpt lat="48.2969" lon="-3.55805">
        <ele>193</ele>
        <time>2021-07-08T13:20:23Z</time>
      </trkpt>
      <trkpt lat="48.29646" lon="-3.55737">
        <ele>195</ele>
        <time>2021-07-08T13:20:24Z</time>
      </trkpt>
      <trkpt lat="48.29688" lon="-3.55802">
        <ele>193</ele>
        <time>2021-07-08T13:20:24Z</time>
      </trkpt>
      <trkpt lat="48.29644" lon="-3.55734">
        <ele>196</ele>
        <time>2021-07-08T13:20:25Z</time>
      </trkpt>
      <trkpt lat="48.29686" lon="-3.55799">
        <ele>193</ele>
        <time>2021-07-08T13:20:25Z</time>
      </trkpt>
      <trkpt lat="48.29642" lon="-3.55731">
        <ele>196</ele>
        <time>2021-07-08T13:20:25Z</time>
      </trkpt>
      <trkpt lat="48.29684" lon="-3.55797">
        <ele>193</ele>
        <time>2021-07-08T13:20:26Z</time>
      </trkpt>
      <trkpt lat="48.2964" lon="-3.55728">
        <ele>196</ele>
        <time>2021-07-08T13:20:27Z</time>
      </trkpt>
      <trkpt lat="48.29683" lon="-3.55795">
        <ele>193</ele>
        <time>2021-07-08T13:20:27Z</time>
      </trkpt>
      <trkpt lat="48.29638" lon="-3.55725">
        <ele>196</ele>
        <time>2021-07-08T13:20:28Z</time>
      </trkpt>
      <trkpt lat="48.29681" lon="-3.55792">
        <ele>193</ele>
        <time>2021-07-08T13:20:28Z</time>
      </trkpt>
      <trkpt lat="48.29636" lon="-3.55722">
        <ele>196</ele>
        <time>2021-07-08T13:20:29Z</time>
      </trkpt>
      <trkpt lat="48.2968" lon="-3.55789">
        <ele>193</ele>
        <time>2021-07-08T13:20:29Z</time>
      </trkpt>
      <trkpt lat="48.29634" lon="-3.55719">
        <ele>196</ele>
        <time>2021-07-08T13:20:29Z</time>
      </trkpt>
      <trkpt lat="48.29678" lon="-3.55787">
        <ele>193</ele>
        <time>2021-07-08T13:20:30Z</time>
      </trkpt>
      <trkpt lat="48.29632" lon="-3.55715">
        <ele>196</ele>
        <time>2021-07-08T13:20:31Z</time>
      </trkpt>
      <trkpt lat="48.29676" lon="-3.55784">
        <ele>194</ele>
        <time>2021-07-08T13:20:31Z</time>
      </trkpt>
      <trkpt lat="48.2963" lon="-3.55712">
        <ele>196</ele>
        <time>2021-07-08T13:20:32Z</time>
      </trkpt>
      <trkpt lat="48.29628" lon="-3.55709">
        <ele>196</ele>
        <time>2021-07-08T13:20:32Z</time>
      </trkpt>
      <trkpt lat="48.29675" lon="-3.55781">
        <ele>194</ele>
        <time>2021-07-08T13:20:33Z</time>
      </trkpt>
      <trkpt lat="48.29626" lon="-3.55706">
        <ele>196</ele>
        <time>2021-07-08T13:20:34Z</time>
      </trkpt>
      <trkpt lat="48.29624" lon="-3.55703">
        <ele>196</ele>
        <time>2021-07-08T13:20:34Z</time>
      </trkpt>
      <trkpt lat="48.29622" lon="-3.557">
        <ele>196</ele>
        <time>2021-07-08T13:20:35Z</time>
      </trkpt>
      <trkpt lat="48.29621" lon="-3.55697">
        <ele>196</ele>
        <time>2021-07-08T13:20:37Z</time>
      </trkpt>
      <trkpt lat="48.29619" lon="-3.55694">
        <ele>196</ele>
        <time>2021-07-08T13:20:38Z</time>
      </trkpt>
      <trkpt lat="48.29618" lon="-3.55691">
        <ele>196</ele>
        <time>2021-07-08T13:20:39Z</time>
      </trkpt>
      <trkpt lat="48.29616" lon="-3.55688">
        <ele>197</ele>
        <time>2021-07-08T13:20:39Z</time>
      </trkpt>
      <trkpt lat="48.29614" lon="-3.55686">
        <ele>197</ele>
        <time>2021-07-08T13:20:41Z</time>
      </trkpt>
      <trkpt lat="48.29612" lon="-3.55683">
        <ele>197</ele>
        <time>2021-07-08T13:20:41Z</time>
      </trkpt>
      <trkpt lat="48.2961" lon="-3.5568">
        <ele>197</ele>
        <time>2021-07-08T13:20:43Z</time>
      </trkpt>
      <trkpt lat="48.29674" lon="-3.55781">
        <ele>194</ele>
        <time>2021-07-08T13:20:43Z</time>
      </trkpt>
      <trkpt lat="48.29608" lon="-3.55677">
        <ele>197</ele>
        <time>2021-07-08T13:20:44Z</time>
      </trkpt>
      <trkpt lat="48.29607" lon="-3.55674">
        <ele>197</ele>
        <time>2021-07-08T13:20:45Z</time>
      </trkpt>
      <trkpt lat="48.29605" lon="-3.55671">
        <ele>197</ele>
        <time>2021-07-08T13:20:45Z</time>
      </trkpt>
      <trkpt lat="48.29603" lon="-3.55668">
        <ele>197</ele>
        <time>2021-07-08T13:20:47Z</time>
      </trkpt>
      <trkpt lat="48.29601" lon="-3.55665">
        <ele>197</ele>
        <time>2021-07-08T13:20:47Z</time>
      </trkpt>
      <trkpt lat="48.29599" lon="-3.55662">
        <ele>197</ele>
        <time>2021-07-08T13:20:48Z</time>
      </trkpt>
      <trkpt lat="48.29597" lon="-3.55659">
        <ele>197</ele>
        <time>2021-07-08T13:20:50Z</time>
      </trkpt>
      <trkpt lat="48.29595" lon="-3.55656">
        <ele>197</ele>
        <time>2021-07-08T13:20:51Z</time>
      </trkpt>
      <trkpt lat="48.29593" lon="-3.55654">
        <ele>197</ele>
        <time>2021-07-08T13:20:52Z</time>
      </trkpt>
      <trkpt lat="48.29591" lon="-3.55651">
        <ele>197</ele>
        <time>2021-07-08T13:20:53Z</time>
      </trkpt>
      <trkpt lat="48.29589" lon="-3.55648">
        <ele>197</ele>
        <time>2021-07-08T13:20:54Z</time>
      </trkpt>
      <trkpt lat="48.29587" lon="-3.55645">
        <ele>198</ele>
        <time>2021-07-08T13:20:55Z</time>
      </trkpt>
      <trkpt lat="48.29585" lon="-3.55643">
        <ele>198</ele>
        <time>2021-07-08T13:20:56Z</time>
      </trkpt>
      <trkpt lat="48.29583" lon="-3.5564">
        <ele>198</ele>
        <time>2021-07-08T13:20:57Z</time>
      </trkpt>
      <trkpt lat="48.29581" lon="-3.55637">
        <ele>198</ele>
        <time>2021-07-08T13:20:58Z</time>
      </trkpt>
      <trkpt lat="48.2958" lon="-3.55634">
        <ele>198</ele>
        <time>2021-07-08T13:20:59Z</time>
      </trkpt>
      <trkpt lat="48.29578" lon="-3.55631">
        <ele>198</ele>
        <time>2021-07-08T13:21:00Z</time>
      </trkpt>
      <trkpt lat="48.29576" lon="-3.55628">
        <ele>198</ele>
        <time>2021-07-08T13:21:01Z</time>
      </trkpt>
      <trkpt lat="48.29574" lon="-3.55625">
        <ele>198</ele>
        <time>2021-07-08T13:21:02Z</time>
      </trkpt>
      <trkpt lat="48.29572" lon="-3.55622">
        <ele>198</ele>
        <time>2021-07-08T13:21:03Z</time>
      </trkpt>
      <trkpt lat="48.2957" lon="-3.55619">
        <ele>198</ele>
        <time>2021-07-08T13:21:04Z</time>
      </trkpt>
      <trkpt lat="48.29568" lon="-3.55617">
        <ele>198</ele>
        <time>2021-07-08T13:21:05Z</time>
      </trkpt>
      <trkpt lat="48.29565" lon="-3.55615">
        <ele>198</ele>
        <time>2021-07-08T13:21:06Z</time>
      </trkpt>
      <trkpt lat="48.29562" lon="-3.55613">
        <ele>198</ele>
        <time>2021-07-08T13:21:07Z</time>
      </trkpt>
      <trkpt lat="48.29559" lon="-3.55612">
        <ele>198</ele>
        <time>2021-07-08T13:21:08Z</time>
      </trkpt>
      <trkpt lat="48.29557" lon="-3.55611">
        <ele>198</ele>
        <time>2021-07-08T13:21:08Z</time>
      </trkpt>
      <trkpt lat="48.29554" lon="-3.5561">
        <ele>198</ele>
        <time>2021-07-08T13:21:10Z</time>
      </trkpt>
      <trkpt lat="48.29552" lon="-3.55608">
        <ele>198</ele>
        <time>2021-07-08T13:21:11Z</time>
      </trkpt>
      <trkpt lat="48.29549" lon="-3.55606">
        <ele>199</ele>
        <time>2021-07-08T13:21:12Z</time>
      </trkpt>
      <trkpt lat="48.29547" lon="-3.55604">
        <ele>199</ele>
        <time>2021-07-08T13:21:13Z</time>
      </trkpt>
      <trkpt lat="48.29545" lon="-3.55601">
        <ele>199</ele>
        <time>2021-07-08T13:21:14Z</time>
      </trkpt>
      <trkpt lat="48.29543" lon="-3.55599">
        <ele>199</ele>
        <time>2021-07-08T13:21:15Z</time>
      </trkpt>
      <trkpt lat="48.29541" lon="-3.55597">
        <ele>199</ele>
        <time>2021-07-08T13:21:15Z</time>
      </trkpt>
      <trkpt lat="48.29539" lon="-3.55594">
        <ele>199</ele>
        <time>2021-07-08T13:21:16Z</time>
      </trkpt>
      <trkpt lat="48.29536" lon="-3.55591">
        <ele>199</ele>
        <time>2021-07-08T13:21:17Z</time>
      </trkpt>
      <trkpt lat="48.29534" lon="-3.55588">
        <ele>199</ele>
        <time>2021-07-08T13:21:18Z</time>
      </trkpt>
      <trkpt lat="48.29532" lon="-3.55585">
        <ele>199</ele>
        <time>2021-07-08T13:21:19Z</time>
      </trkpt>
      <trkpt lat="48.2953" lon="-3.55582">
        <ele>199</ele>
        <time>2021-07-08T13:21:21Z</time>
      </trkpt>
      <trkpt lat="48.29527" lon="-3.55579">
        <ele>199</ele>
        <time>2021-07-08T13:21:21Z</time>
      </trkpt>
      <trkpt lat="48.29525" lon="-3.55576">
        <ele>199</ele>
        <time>2021-07-08T13:21:22Z</time>
      </trkpt>
      <trkpt lat="48.29523" lon="-3.55573">
        <ele>199</ele>
        <time>2021-07-08T13:21:23Z</time>
      </trkpt>
      <trkpt lat="48.29521" lon="-3.5557">
        <ele>199</ele>
        <time>2021-07-08T13:21:24Z</time>
      </trkpt>
      <trkpt lat="48.29519" lon="-3.55567">
        <ele>199</ele>
        <time>2021-07-08T13:21:26Z</time>
      </trkpt>
      <trkpt lat="48.29517" lon="-3.55563">
        <ele>199</ele>
        <time>2021-07-08T13:21:27Z</time>
      </trkpt>
      <trkpt lat="48.29514" lon="-3.5556">
        <ele>199</ele>
        <time>2021-07-08T13:21:28Z</time>
      </trkpt>
      <trkpt lat="48.29512" lon="-3.55556">
        <ele>199</ele>
        <time>2021-07-08T13:21:29Z</time>
      </trkpt>
      <trkpt lat="48.29509" lon="-3.55553">
        <ele>199</ele>
        <time>2021-07-08T13:21:30Z</time>
      </trkpt>
      <trkpt lat="48.29507" lon="-3.55549">
        <ele>199</ele>
        <time>2021-07-08T13:21:31Z</time>
      </trkpt>
      <trkpt lat="48.29504" lon="-3.55546">
        <ele>199</ele>
        <time>2021-07-08T13:21:32Z</time>
      </trkpt>
      <trkpt lat="48.29501" lon="-3.55543">
        <ele>199</ele>
        <time>2021-07-08T13:21:33Z</time>
      </trkpt>
      <trkpt lat="48.29499" lon="-3.5554">
        <ele>199</ele>
        <time>2021-07-08T13:21:34Z</time>
      </trkpt>
      <trkpt lat="48.29497" lon="-3.55538">
        <ele>198</ele>
        <time>2021-07-08T13:21:35Z</time>
      </trkpt>
      <trkpt lat="48.29495" lon="-3.55536">
        <ele>198</ele>
        <time>2021-07-08T13:21:36Z</time>
      </trkpt>
      <trkpt lat="48.29492" lon="-3.55534">
        <ele>198</ele>
        <time>2021-07-08T13:21:38Z</time>
      </trkpt>
      <trkpt lat="48.29488" lon="-3.55535">
        <ele>198</ele>
        <time>2021-07-08T13:21:39Z</time>
      </trkpt>
      <trkpt lat="48.29486" lon="-3.55536">
        <ele>197</ele>
        <time>2021-07-08T13:21:41Z</time>
      </trkpt>
      <trkpt lat="48.29483" lon="-3.55537">
        <ele>197</ele>
        <time>2021-07-08T13:21:42Z</time>
      </trkpt>
      <trkpt lat="48.2948" lon="-3.55538">
        <ele>197</ele>
        <time>2021-07-08T13:21:43Z</time>
      </trkpt>
      <trkpt lat="48.29475" lon="-3.55536">
        <ele>197</ele>
        <time>2021-07-08T13:21:44Z</time>
      </trkpt>
      <trkpt lat="48.29473" lon="-3.55532">
        <ele>196</ele>
        <time>2021-07-08T13:21:46Z</time>
      </trkpt>
      <trkpt lat="48.29471" lon="-3.55528">
        <ele>196</ele>
        <time>2021-07-08T13:21:47Z</time>
      </trkpt>
      <trkpt lat="48.2947" lon="-3.55523">
        <ele>196</ele>
        <time>2021-07-08T13:21:48Z</time>
      </trkpt>
      <trkpt lat="48.29469" lon="-3.55518">
        <ele>196</ele>
        <time>2021-07-08T13:21:49Z</time>
      </trkpt>
      <trkpt lat="48.29467" lon="-3.55512">
        <ele>196</ele>
        <time>2021-07-08T13:21:50Z</time>
      </trkpt>
      <trkpt lat="48.29466" lon="-3.55507">
        <ele>196</ele>
        <time>2021-07-08T13:21:50Z</time>
      </trkpt>
      <trkpt lat="48.29464" lon="-3.55501">
        <ele>196</ele>
        <time>2021-07-08T13:21:51Z</time>
      </trkpt>
      <trkpt lat="48.29463" lon="-3.55496">
        <ele>195</ele>
        <time>2021-07-08T13:21:52Z</time>
      </trkpt>
      <trkpt lat="48.29461" lon="-3.55491">
        <ele>195</ele>
        <time>2021-07-08T13:21:54Z</time>
      </trkpt>
      <trkpt lat="48.29459" lon="-3.55485">
        <ele>195</ele>
        <time>2021-07-08T13:21:55Z</time>
      </trkpt>
      <trkpt lat="48.29458" lon="-3.55481">
        <ele>195</ele>
        <time>2021-07-08T13:21:56Z</time>
      </trkpt>
      <trkpt lat="48.29456" lon="-3.55476">
        <ele>195</ele>
        <time>2021-07-08T13:21:57Z</time>
      </trkpt>
      <trkpt lat="48.29455" lon="-3.55473">
        <ele>195</ele>
        <time>2021-07-08T13:21:58Z</time>
      </trkpt>
      <trkpt lat="48.29454" lon="-3.5547">
        <ele>195</ele>
        <time>2021-07-08T13:21:59Z</time>
      </trkpt>
      <trkpt lat="48.29452" lon="-3.55467">
        <ele>195</ele>
        <time>2021-07-08T13:21:59Z</time>
      </trkpt>
      <trkpt lat="48.29451" lon="-3.55465">
        <ele>195</ele>
        <time>2021-07-08T13:22:00Z</time>
      </trkpt>
      <trkpt lat="48.29449" lon="-3.55464">
        <ele>195</ele>
        <time>2021-07-08T13:22:02Z</time>
      </trkpt>
      <trkpt lat="48.2944" lon="-3.55468">
        <ele>194</ele>
        <time>2021-07-08T13:22:58Z</time>
      </trkpt>
      <trkpt lat="48.29435" lon="-3.5547">
        <ele>194</ele>
        <time>2021-07-08T13:22:59Z</time>
      </trkpt>
      <trkpt lat="48.29432" lon="-3.55471">
        <ele>194</ele>
        <time>2021-07-08T13:23:01Z</time>
      </trkpt>
      <trkpt lat="48.29429" lon="-3.55472">
        <ele>194</ele>
        <time>2021-07-08T13:23:02Z</time>
      </trkpt>
      <trkpt lat="48.29426" lon="-3.55474">
        <ele>194</ele>
        <time>2021-07-08T13:23:03Z</time>
      </trkpt>
      <trkpt lat="48.29423" lon="-3.55475">
        <ele>194</ele>
        <time>2021-07-08T13:23:04Z</time>
      </trkpt>
      <trkpt lat="48.2942" lon="-3.55477">
        <ele>194</ele>
        <time>2021-07-08T13:23:05Z</time>
      </trkpt>
      <trkpt lat="48.29417" lon="-3.55478">
        <ele>194</ele>
        <time>2021-07-08T13:23:06Z</time>
      </trkpt>
      <trkpt lat="48.29414" lon="-3.5548">
        <ele>193</ele>
        <time>2021-07-08T13:23:07Z</time>
      </trkpt>
      <trkpt lat="48.2941" lon="-3.55482">
        <ele>193</ele>
        <time>2021-07-08T13:23:07Z</time>
      </trkpt>
      <trkpt lat="48.29406" lon="-3.55483">
        <ele>193</ele>
        <time>2021-07-08T13:23:08Z</time>
      </trkpt>
      <trkpt lat="48.29403" lon="-3.55485">
        <ele>194</ele>
        <time>2021-07-08T13:23:09Z</time>
      </trkpt>
      <trkpt lat="48.29399" lon="-3.55487">
        <ele>194</ele>
        <time>2021-07-08T13:23:11Z</time>
      </trkpt>
      <trkpt lat="48.29395" lon="-3.55489">
        <ele>194</ele>
        <time>2021-07-08T13:23:11Z</time>
      </trkpt>
      <trkpt lat="48.29392" lon="-3.55491">
        <ele>194</ele>
        <time>2021-07-08T13:23:12Z</time>
      </trkpt>
      <trkpt lat="48.29388" lon="-3.55493">
        <ele>193</ele>
        <time>2021-07-08T13:23:14Z</time>
      </trkpt>
      <trkpt lat="48.29385" lon="-3.55495">
        <ele>193</ele>
        <time>2021-07-08T13:23:14Z</time>
      </trkpt>
      <trkpt lat="48.29382" lon="-3.55497">
        <ele>193</ele>
        <time>2021-07-08T13:23:15Z</time>
      </trkpt>
      <trkpt lat="48.29378" lon="-3.55498">
        <ele>193</ele>
        <time>2021-07-08T13:23:17Z</time>
      </trkpt>
      <trkpt lat="48.29449" lon="-3.55464">
        <ele>194</ele>
        <time>2021-07-08T13:23:17Z</time>
      </trkpt>
      <trkpt lat="48.29372" lon="-3.55502">
        <ele>193</ele>
        <time>2021-07-08T13:23:18Z</time>
      </trkpt>
      <trkpt lat="48.29369" lon="-3.55503">
        <ele>193</ele>
        <time>2021-07-08T13:23:20Z</time>
      </trkpt>
      <trkpt lat="48.29366" lon="-3.55505">
        <ele>193</ele>
        <time>2021-07-08T13:23:21Z</time>
      </trkpt>
      <trkpt lat="48.29363" lon="-3.55506">
        <ele>193</ele>
        <time>2021-07-08T13:23:22Z</time>
      </trkpt>
      <trkpt lat="48.2936" lon="-3.55508">
        <ele>193</ele>
        <time>2021-07-08T13:23:22Z</time>
      </trkpt>
      <trkpt lat="48.29357" lon="-3.5551">
        <ele>193</ele>
        <time>2021-07-08T13:23:23Z</time>
      </trkpt>
      <trkpt lat="48.29354" lon="-3.55512">
        <ele>193</ele>
        <time>2021-07-08T13:23:25Z</time>
      </trkpt>
      <trkpt lat="48.29351" lon="-3.55514">
        <ele>193</ele>
        <time>2021-07-08T13:23:26Z</time>
      </trkpt>
      <trkpt lat="48.29348" lon="-3.55515">
        <ele>193</ele>
        <time>2021-07-08T13:23:27Z</time>
      </trkpt>
      <trkpt lat="48.29345" lon="-3.55517">
        <ele>193</ele>
        <time>2021-07-08T13:23:28Z</time>
      </trkpt>
      <trkpt lat="48.29342" lon="-3.55519">
        <ele>193</ele>
        <time>2021-07-08T13:23:28Z</time>
      </trkpt>
      <trkpt lat="48.29339" lon="-3.55521">
        <ele>193</ele>
        <time>2021-07-08T13:23:30Z</time>
      </trkpt>
      <trkpt lat="48.29336" lon="-3.55523">
        <ele>193</ele>
        <time>2021-07-08T13:23:31Z</time>
      </trkpt>
      <trkpt lat="48.29333" lon="-3.55526">
        <ele>193</ele>
        <time>2021-07-08T13:23:32Z</time>
      </trkpt>
      <trkpt lat="48.2933" lon="-3.55528">
        <ele>193</ele>
        <time>2021-07-08T13:23:32Z</time>
      </trkpt>
      <trkpt lat="48.29328" lon="-3.5553">
        <ele>193</ele>
        <time>2021-07-08T13:23:34Z</time>
      </trkpt>
      <trkpt lat="48.29325" lon="-3.55532">
        <ele>193</ele>
        <time>2021-07-08T13:23:35Z</time>
      </trkpt>
      <trkpt lat="48.29322" lon="-3.55534">
        <ele>193</ele>
        <time>2021-07-08T13:23:36Z</time>
      </trkpt>
      <trkpt lat="48.29317" lon="-3.55538">
        <ele>193</ele>
        <time>2021-07-08T13:23:37Z</time>
      </trkpt>
      <trkpt lat="48.29314" lon="-3.55541">
        <ele>193</ele>
        <time>2021-07-08T13:23:39Z</time>
      </trkpt>
      <trkpt lat="48.29311" lon="-3.55543">
        <ele>193</ele>
        <time>2021-07-08T13:23:40Z</time>
      </trkpt>
      <trkpt lat="48.29309" lon="-3.55546">
        <ele>193</ele>
        <time>2021-07-08T13:23:41Z</time>
      </trkpt>
      <trkpt lat="48.29306" lon="-3.55548">
        <ele>193</ele>
        <time>2021-07-08T13:23:41Z</time>
      </trkpt>
      <trkpt lat="48.29304" lon="-3.5555">
        <ele>194</ele>
        <time>2021-07-08T13:23:42Z</time>
      </trkpt>
      <trkpt lat="48.29302" lon="-3.55553">
        <ele>194</ele>
        <time>2021-07-08T13:23:43Z</time>
      </trkpt>
      <trkpt lat="48.293" lon="-3.55555">
        <ele>194</ele>
        <time>2021-07-08T13:23:45Z</time>
      </trkpt>
      <trkpt lat="48.29298" lon="-3.55558">
        <ele>194</ele>
        <time>2021-07-08T13:23:46Z</time>
      </trkpt>
      <trkpt lat="48.29296" lon="-3.55561">
        <ele>194</ele>
        <time>2021-07-08T13:23:47Z</time>
      </trkpt>
      <trkpt lat="48.29295" lon="-3.55563">
        <ele>195</ele>
        <time>2021-07-08T13:23:48Z</time>
      </trkpt>
      <trkpt lat="48.29293" lon="-3.55566">
        <ele>195</ele>
        <time>2021-07-08T13:23:49Z</time>
      </trkpt>
      <trkpt lat="48.29292" lon="-3.55569">
        <ele>195</ele>
        <time>2021-07-08T13:23:50Z</time>
      </trkpt>
      <trkpt lat="48.29291" lon="-3.55572">
        <ele>195</ele>
        <time>2021-07-08T13:23:50Z</time>
      </trkpt>
      <trkpt lat="48.29289" lon="-3.55575">
        <ele>195</ele>
        <time>2021-07-08T13:23:52Z</time>
      </trkpt>
      <trkpt lat="48.29287" lon="-3.55578">
        <ele>195</ele>
        <time>2021-07-08T13:23:53Z</time>
      </trkpt>
      <trkpt lat="48.29286" lon="-3.55581">
        <ele>195</ele>
        <time>2021-07-08T13:23:53Z</time>
      </trkpt>
      <trkpt lat="48.29284" lon="-3.55583">
        <ele>195</ele>
        <time>2021-07-08T13:23:54Z</time>
      </trkpt>
      <trkpt lat="48.29279" lon="-3.55587">
        <ele>195</ele>
        <time>2021-07-08T13:23:56Z</time>
      </trkpt>
      <trkpt lat="48.29277" lon="-3.55589">
        <ele>195</ele>
        <time>2021-07-08T13:23:58Z</time>
      </trkpt>
      <trkpt lat="48.29274" lon="-3.55589">
        <ele>195</ele>
        <time>2021-07-08T13:23:58Z</time>
      </trkpt>
      <trkpt lat="48.2927" lon="-3.55589">
        <ele>195</ele>
        <time>2021-07-08T13:24:00Z</time>
      </trkpt>
      <trkpt lat="48.29267" lon="-3.5559">
        <ele>195</ele>
        <time>2021-07-08T13:24:00Z</time>
      </trkpt>
      <trkpt lat="48.29264" lon="-3.5559">
        <ele>195</ele>
        <time>2021-07-08T13:24:01Z</time>
      </trkpt>
      <trkpt lat="48.2926" lon="-3.5559">
        <ele>195</ele>
        <time>2021-07-08T13:24:03Z</time>
      </trkpt>
      <trkpt lat="48.29257" lon="-3.5559">
        <ele>195</ele>
        <time>2021-07-08T13:24:04Z</time>
      </trkpt>
      <trkpt lat="48.29254" lon="-3.55589">
        <ele>195</ele>
        <time>2021-07-08T13:24:04Z</time>
      </trkpt>
      <trkpt lat="48.29251" lon="-3.55589">
        <ele>195</ele>
        <time>2021-07-08T13:24:06Z</time>
      </trkpt>
      <trkpt lat="48.29248" lon="-3.55589">
        <ele>195</ele>
        <time>2021-07-08T13:24:07Z</time>
      </trkpt>
      <trkpt lat="48.29245" lon="-3.55589">
        <ele>195</ele>
        <time>2021-07-08T13:24:08Z</time>
      </trkpt>
      <trkpt lat="48.29242" lon="-3.55589">
        <ele>195</ele>
        <time>2021-07-08T13:24:08Z</time>
      </trkpt>
      <trkpt lat="48.29239" lon="-3.55589">
        <ele>196</ele>
        <time>2021-07-08T13:24:09Z</time>
      </trkpt>
      <trkpt lat="48.29236" lon="-3.55589">
        <ele>196</ele>
        <time>2021-07-08T13:24:11Z</time>
      </trkpt>
      <trkpt lat="48.29233" lon="-3.5559">
        <ele>196</ele>
        <time>2021-07-08T13:24:12Z</time>
      </trkpt>
      <trkpt lat="48.29231" lon="-3.5559">
        <ele>196</ele>
        <time>2021-07-08T13:24:13Z</time>
      </trkpt>
      <trkpt lat="48.29228" lon="-3.55591">
        <ele>196</ele>
        <time>2021-07-08T13:24:14Z</time>
      </trkpt>
      <trkpt lat="48.29225" lon="-3.55591">
        <ele>196</ele>
        <time>2021-07-08T13:24:15Z</time>
      </trkpt>
      <trkpt lat="48.29222" lon="-3.55592">
        <ele>196</ele>
        <time>2021-07-08T13:24:15Z</time>
      </trkpt>
      <trkpt lat="48.29219" lon="-3.55593">
        <ele>196</ele>
        <time>2021-07-08T13:24:17Z</time>
      </trkpt>
      <trkpt lat="48.29217" lon="-3.55593">
        <ele>196</ele>
        <time>2021-07-08T13:24:17Z</time>
      </trkpt>
      <trkpt lat="48.29214" lon="-3.55594">
        <ele>197</ele>
        <time>2021-07-08T13:24:18Z</time>
      </trkpt>
      <trkpt lat="48.29211" lon="-3.55595">
        <ele>197</ele>
        <time>2021-07-08T13:24:19Z</time>
      </trkpt>
      <trkpt lat="48.29209" lon="-3.55596">
        <ele>197</ele>
        <time>2021-07-08T13:24:21Z</time>
      </trkpt>
      <trkpt lat="48.29206" lon="-3.55596">
        <ele>197</ele>
        <time>2021-07-08T13:24:22Z</time>
      </trkpt>
      <trkpt lat="48.29203" lon="-3.55597">
        <ele>197</ele>
        <time>2021-07-08T13:24:22Z</time>
      </trkpt>
      <trkpt lat="48.29201" lon="-3.55599">
        <ele>197</ele>
        <time>2021-07-08T13:24:23Z</time>
      </trkpt>
      <trkpt lat="48.29198" lon="-3.556">
        <ele>197</ele>
        <time>2021-07-08T13:24:24Z</time>
      </trkpt>
      <trkpt lat="48.29196" lon="-3.55601">
        <ele>197</ele>
        <time>2021-07-08T13:24:26Z</time>
      </trkpt>
      <trkpt lat="48.29193" lon="-3.55602">
        <ele>197</ele>
        <time>2021-07-08T13:24:27Z</time>
      </trkpt>
      <trkpt lat="48.2919" lon="-3.55603">
        <ele>198</ele>
        <time>2021-07-08T13:24:27Z</time>
      </trkpt>
      <trkpt lat="48.29188" lon="-3.55605">
        <ele>198</ele>
        <time>2021-07-08T13:24:28Z</time>
      </trkpt>
      <trkpt lat="48.29185" lon="-3.55606">
        <ele>198</ele>
        <time>2021-07-08T13:24:29Z</time>
      </trkpt>
      <trkpt lat="48.29182" lon="-3.55607">
        <ele>198</ele>
        <time>2021-07-08T13:24:31Z</time>
      </trkpt>
      <trkpt lat="48.2918" lon="-3.55608">
        <ele>198</ele>
        <time>2021-07-08T13:24:31Z</time>
      </trkpt>
      <trkpt lat="48.29177" lon="-3.5561">
        <ele>198</ele>
        <time>2021-07-08T13:24:32Z</time>
      </trkpt>
      <trkpt lat="48.29172" lon="-3.55612">
        <ele>198</ele>
        <time>2021-07-08T13:24:34Z</time>
      </trkpt>
      <trkpt lat="48.29169" lon="-3.55613">
        <ele>198</ele>
        <time>2021-07-08T13:24:36Z</time>
      </trkpt>
      <trkpt lat="48.29167" lon="-3.55614">
        <ele>199</ele>
        <time>2021-07-08T13:24:37Z</time>
      </trkpt>
      <trkpt lat="48.29164" lon="-3.55615">
        <ele>199</ele>
        <time>2021-07-08T13:24:37Z</time>
      </trkpt>
      <trkpt lat="48.29162" lon="-3.55616">
        <ele>199</ele>
        <time>2021-07-08T13:24:39Z</time>
      </trkpt>
      <trkpt lat="48.29159" lon="-3.55616">
        <ele>199</ele>
        <time>2021-07-08T13:24:39Z</time>
      </trkpt>
      <trkpt lat="48.29157" lon="-3.55618">
        <ele>199</ele>
        <time>2021-07-08T13:24:40Z</time>
      </trkpt>
      <trkpt lat="48.29154" lon="-3.55619">
        <ele>198</ele>
        <time>2021-07-08T13:24:41Z</time>
      </trkpt>
      <trkpt lat="48.29151" lon="-3.5562">
        <ele>198</ele>
        <time>2021-07-08T13:24:42Z</time>
      </trkpt>
      <trkpt lat="48.29149" lon="-3.55621">
        <ele>198</ele>
        <time>2021-07-08T13:24:43Z</time>
      </trkpt>
      <trkpt lat="48.29146" lon="-3.55622">
        <ele>199</ele>
        <time>2021-07-08T13:24:44Z</time>
      </trkpt>
      <trkpt lat="48.29143" lon="-3.55622">
        <ele>199</ele>
        <time>2021-07-08T13:24:45Z</time>
      </trkpt>
      <trkpt lat="48.29141" lon="-3.55623">
        <ele>199</ele>
        <time>2021-07-08T13:24:46Z</time>
      </trkpt>
      <trkpt lat="48.29138" lon="-3.55624">
        <ele>199</ele>
        <time>2021-07-08T13:24:47Z</time>
      </trkpt>
      <trkpt lat="48.29136" lon="-3.55626">
        <ele>199</ele>
        <time>2021-07-08T13:24:48Z</time>
      </trkpt>
      <trkpt lat="48.29133" lon="-3.55627">
        <ele>199</ele>
        <time>2021-07-08T13:24:50Z</time>
      </trkpt>
      <trkpt lat="48.29131" lon="-3.55627">
        <ele>199</ele>
        <time>2021-07-08T13:24:50Z</time>
      </trkpt>
      <trkpt lat="48.29128" lon="-3.55629">
        <ele>199</ele>
        <time>2021-07-08T13:24:51Z</time>
      </trkpt>
      <trkpt lat="48.29123" lon="-3.55631">
        <ele>199</ele>
        <time>2021-07-08T13:24:53Z</time>
      </trkpt>
      <trkpt lat="48.29121" lon="-3.55632">
        <ele>199</ele>
        <time>2021-07-08T13:24:54Z</time>
      </trkpt>
      <trkpt lat="48.29118" lon="-3.55633">
        <ele>199</ele>
        <time>2021-07-08T13:24:55Z</time>
      </trkpt>
      <trkpt lat="48.29116" lon="-3.55634">
        <ele>199</ele>
        <time>2021-07-08T13:24:57Z</time>
      </trkpt>
      <trkpt lat="48.29114" lon="-3.55634">
        <ele>199</ele>
        <time>2021-07-08T13:24:58Z</time>
      </trkpt>
      <trkpt lat="48.29112" lon="-3.55635">
        <ele>199</ele>
        <time>2021-07-08T13:24:59Z</time>
      </trkpt>
      <trkpt lat="48.2911" lon="-3.55635">
        <ele>200</ele>
        <time>2021-07-08T13:25:00Z</time>
      </trkpt>
      <trkpt lat="48.29108" lon="-3.55636">
        <ele>200</ele>
        <time>2021-07-08T13:25:00Z</time>
      </trkpt>
      <trkpt lat="48.29106" lon="-3.55637">
        <ele>200</ele>
        <time>2021-07-08T13:25:02Z</time>
      </trkpt>
      <trkpt lat="48.29104" lon="-3.55637">
        <ele>200</ele>
        <time>2021-07-08T13:25:03Z</time>
      </trkpt>
      <trkpt lat="48.29102" lon="-3.55639">
        <ele>200</ele>
        <time>2021-07-08T13:25:04Z</time>
      </trkpt>
      <trkpt lat="48.29099" lon="-3.5564">
        <ele>200</ele>
        <time>2021-07-08T13:25:04Z</time>
      </trkpt>
      <trkpt lat="48.29097" lon="-3.55641">
        <ele>200</ele>
        <time>2021-07-08T13:25:05Z</time>
      </trkpt>
      <trkpt lat="48.29095" lon="-3.55642">
        <ele>200</ele>
        <time>2021-07-08T13:25:06Z</time>
      </trkpt>
      <trkpt lat="48.29092" lon="-3.55643">
        <ele>200</ele>
        <time>2021-07-08T13:25:07Z</time>
      </trkpt>
      <trkpt lat="48.29089" lon="-3.55644">
        <ele>200</ele>
        <time>2021-07-08T13:25:09Z</time>
      </trkpt>
      <trkpt lat="48.29087" lon="-3.55646">
        <ele>200</ele>
        <time>2021-07-08T13:25:10Z</time>
      </trkpt>
      <trkpt lat="48.29084" lon="-3.55647">
        <ele>200</ele>
        <time>2021-07-08T13:25:11Z</time>
      </trkpt>
      <trkpt lat="48.29081" lon="-3.5565">
        <ele>200</ele>
        <time>2021-07-08T13:25:12Z</time>
      </trkpt>
      <trkpt lat="48.29079" lon="-3.55651">
        <ele>200</ele>
        <time>2021-07-08T13:25:13Z</time>
      </trkpt>
      <trkpt lat="48.29077" lon="-3.55652">
        <ele>200</ele>
        <time>2021-07-08T13:25:15Z</time>
      </trkpt>
      <trkpt lat="48.29075" lon="-3.55653">
        <ele>200</ele>
        <time>2021-07-08T13:25:15Z</time>
      </trkpt>
      <trkpt lat="48.29073" lon="-3.55654">
        <ele>200</ele>
        <time>2021-07-08T13:25:17Z</time>
      </trkpt>
      <trkpt lat="48.29071" lon="-3.55656">
        <ele>201</ele>
        <time>2021-07-08T13:25:17Z</time>
      </trkpt>
      <trkpt lat="48.29069" lon="-3.55657">
        <ele>201</ele>
        <time>2021-07-08T13:25:19Z</time>
      </trkpt>
      <trkpt lat="48.29066" lon="-3.55658">
        <ele>201</ele>
        <time>2021-07-08T13:25:20Z</time>
      </trkpt>
      <trkpt lat="48.29064" lon="-3.55658">
        <ele>201</ele>
        <time>2021-07-08T13:25:21Z</time>
      </trkpt>
      <trkpt lat="48.29061" lon="-3.55659">
        <ele>201</ele>
        <time>2021-07-08T13:25:21Z</time>
      </trkpt>
      <trkpt lat="48.29059" lon="-3.55659">
        <ele>201</ele>
        <time>2021-07-08T13:25:23Z</time>
      </trkpt>
      <trkpt lat="48.29056" lon="-3.5566">
        <ele>201</ele>
        <time>2021-07-08T13:25:23Z</time>
      </trkpt>
      <trkpt lat="48.29054" lon="-3.55661">
        <ele>201</ele>
        <time>2021-07-08T13:25:24Z</time>
      </trkpt>
      <trkpt lat="48.29051" lon="-3.55661">
        <ele>201</ele>
        <time>2021-07-08T13:25:25Z</time>
      </trkpt>
      <trkpt lat="48.29049" lon="-3.55662">
        <ele>201</ele>
        <time>2021-07-08T13:25:26Z</time>
      </trkpt>
      <trkpt lat="48.29046" lon="-3.55662">
        <ele>201</ele>
        <time>2021-07-08T13:25:28Z</time>
      </trkpt>
      <trkpt lat="48.29044" lon="-3.55663">
        <ele>201</ele>
        <time>2021-07-08T13:25:29Z</time>
      </trkpt>
      <trkpt lat="48.29042" lon="-3.55664">
        <ele>201</ele>
        <time>2021-07-08T13:25:30Z</time>
      </trkpt>
      <trkpt lat="48.29037" lon="-3.55666">
        <ele>201</ele>
        <time>2021-07-08T13:25:31Z</time>
      </trkpt>
      <trkpt lat="48.29034" lon="-3.55667">
        <ele>201</ele>
        <time>2021-07-08T13:25:32Z</time>
      </trkpt>
      <trkpt lat="48.29032" lon="-3.55667">
        <ele>201</ele>
        <time>2021-07-08T13:25:34Z</time>
      </trkpt>
      <trkpt lat="48.2903" lon="-3.55668">
        <ele>201</ele>
        <time>2021-07-08T13:25:35Z</time>
      </trkpt>
      <trkpt lat="48.29027" lon="-3.55669">
        <ele>201</ele>
        <time>2021-07-08T13:25:36Z</time>
      </trkpt>
      <trkpt lat="48.29025" lon="-3.5567">
        <ele>201</ele>
        <time>2021-07-08T13:25:37Z</time>
      </trkpt>
      <trkpt lat="48.29023" lon="-3.55671">
        <ele>201</ele>
        <time>2021-07-08T13:25:38Z</time>
      </trkpt>
      <trkpt lat="48.29021" lon="-3.55672">
        <ele>201</ele>
        <time>2021-07-08T13:25:39Z</time>
      </trkpt>
      <trkpt lat="48.29018" lon="-3.55673">
        <ele>201</ele>
        <time>2021-07-08T13:25:40Z</time>
      </trkpt>
      <trkpt lat="48.29016" lon="-3.55674">
        <ele>201</ele>
        <time>2021-07-08T13:25:40Z</time>
      </trkpt>
      <trkpt lat="48.29014" lon="-3.55675">
        <ele>201</ele>
        <time>2021-07-08T13:25:41Z</time>
      </trkpt>
      <trkpt lat="48.29011" lon="-3.55676">
        <ele>201</ele>
        <time>2021-07-08T13:25:42Z</time>
      </trkpt>
      <trkpt lat="48.29009" lon="-3.55677">
        <ele>201</ele>
        <time>2021-07-08T13:25:43Z</time>
      </trkpt>
      <trkpt lat="48.29007" lon="-3.55678">
        <ele>201</ele>
        <time>2021-07-08T13:25:44Z</time>
      </trkpt>
      <trkpt lat="48.29005" lon="-3.5568">
        <ele>202</ele>
        <time>2021-07-08T13:25:46Z</time>
      </trkpt>
      <trkpt lat="48.29002" lon="-3.55681">
        <ele>202</ele>
        <time>2021-07-08T13:25:47Z</time>
      </trkpt>
      <trkpt lat="48.29" lon="-3.55682">
        <ele>202</ele>
        <time>2021-07-08T13:25:47Z</time>
      </trkpt>
      <trkpt lat="48.28998" lon="-3.55683">
        <ele>202</ele>
        <time>2021-07-08T13:25:48Z</time>
      </trkpt>
      <trkpt lat="48.28996" lon="-3.55684">
        <ele>202</ele>
        <time>2021-07-08T13:25:50Z</time>
      </trkpt>
      <trkpt lat="48.28994" lon="-3.55685">
        <ele>202</ele>
        <time>2021-07-08T13:25:51Z</time>
      </trkpt>
      <trkpt lat="48.28992" lon="-3.55686">
        <ele>202</ele>
        <time>2021-07-08T13:25:51Z</time>
      </trkpt>
      <trkpt lat="48.2899" lon="-3.55687">
        <ele>202</ele>
        <time>2021-07-08T13:25:53Z</time>
      </trkpt>
      <trkpt lat="48.28988" lon="-3.55688">
        <ele>202</ele>
        <time>2021-07-08T13:25:54Z</time>
      </trkpt>
      <trkpt lat="48.28986" lon="-3.55689">
        <ele>203</ele>
        <time>2021-07-08T13:25:55Z</time>
      </trkpt>
      <trkpt lat="48.28984" lon="-3.55691">
        <ele>203</ele>
        <time>2021-07-08T13:25:56Z</time>
      </trkpt>
      <trkpt lat="48.28981" lon="-3.55692">
        <ele>203</ele>
        <time>2021-07-08T13:25:57Z</time>
      </trkpt>
      <trkpt lat="48.28979" lon="-3.55693">
        <ele>203</ele>
        <time>2021-07-08T13:25:57Z</time>
      </trkpt>
      <trkpt lat="48.28977" lon="-3.55694">
        <ele>203</ele>
        <time>2021-07-08T13:25:58Z</time>
      </trkpt>
      <trkpt lat="48.28975" lon="-3.55695">
        <ele>204</ele>
        <time>2021-07-08T13:25:59Z</time>
      </trkpt>
      <trkpt lat="48.28973" lon="-3.55696">
        <ele>204</ele>
        <time>2021-07-08T13:26:01Z</time>
      </trkpt>
      <trkpt lat="48.28971" lon="-3.55698">
        <ele>204</ele>
        <time>2021-07-08T13:26:01Z</time>
      </trkpt>
      <trkpt lat="48.28969" lon="-3.55699">
        <ele>204</ele>
        <time>2021-07-08T13:26:03Z</time>
      </trkpt>
      <trkpt lat="48.28966" lon="-3.557">
        <ele>204</ele>
        <time>2021-07-08T13:26:04Z</time>
      </trkpt>
      <trkpt lat="48.28964" lon="-3.55701">
        <ele>204</ele>
        <time>2021-07-08T13:26:04Z</time>
      </trkpt>
      <trkpt lat="48.28962" lon="-3.55702">
        <ele>204</ele>
        <time>2021-07-08T13:26:06Z</time>
      </trkpt>
      <trkpt lat="48.2896" lon="-3.55703">
        <ele>204</ele>
        <time>2021-07-08T13:26:07Z</time>
      </trkpt>
      <trkpt lat="48.28958" lon="-3.55705">
        <ele>204</ele>
        <time>2021-07-08T13:26:08Z</time>
      </trkpt>
      <trkpt lat="48.28956" lon="-3.55706">
        <ele>204</ele>
        <time>2021-07-08T13:26:09Z</time>
      </trkpt>
      <trkpt lat="48.28954" lon="-3.55707">
        <ele>204</ele>
        <time>2021-07-08T13:26:10Z</time>
      </trkpt>
      <trkpt lat="48.28951" lon="-3.55709">
        <ele>204</ele>
        <time>2021-07-08T13:26:10Z</time>
      </trkpt>
      <trkpt lat="48.28949" lon="-3.5571">
        <ele>205</ele>
        <time>2021-07-08T13:26:12Z</time>
      </trkpt>
      <trkpt lat="48.28947" lon="-3.55711">
        <ele>205</ele>
        <time>2021-07-08T13:26:12Z</time>
      </trkpt>
      <trkpt lat="48.28945" lon="-3.55712">
        <ele>205</ele>
        <time>2021-07-08T13:26:13Z</time>
      </trkpt>
      <trkpt lat="48.28943" lon="-3.55713">
        <ele>205</ele>
        <time>2021-07-08T13:26:14Z</time>
      </trkpt>
      <trkpt lat="48.28941" lon="-3.55715">
        <ele>205</ele>
        <time>2021-07-08T13:26:15Z</time>
      </trkpt>
      <trkpt lat="48.28937" lon="-3.55717">
        <ele>205</ele>
        <time>2021-07-08T13:26:17Z</time>
      </trkpt>
      <trkpt lat="48.28935" lon="-3.55719">
        <ele>205</ele>
        <time>2021-07-08T13:26:18Z</time>
      </trkpt>
      <trkpt lat="48.28932" lon="-3.5572">
        <ele>205</ele>
        <time>2021-07-08T13:26:20Z</time>
      </trkpt>
      <trkpt lat="48.2893" lon="-3.55721">
        <ele>205</ele>
        <time>2021-07-08T13:26:20Z</time>
      </trkpt>
      <trkpt lat="48.28928" lon="-3.55723">
        <ele>205</ele>
        <time>2021-07-08T13:26:22Z</time>
      </trkpt>
      <trkpt lat="48.28926" lon="-3.55724">
        <ele>205</ele>
        <time>2021-07-08T13:26:22Z</time>
      </trkpt>
      <trkpt lat="48.28924" lon="-3.55726">
        <ele>205</ele>
        <time>2021-07-08T13:26:23Z</time>
      </trkpt>
      <trkpt lat="48.28922" lon="-3.55727">
        <ele>205</ele>
        <time>2021-07-08T13:26:24Z</time>
      </trkpt>
      <trkpt lat="48.2892" lon="-3.55729">
        <ele>205</ele>
        <time>2021-07-08T13:26:26Z</time>
      </trkpt>
      <trkpt lat="48.28918" lon="-3.5573">
        <ele>205</ele>
        <time>2021-07-08T13:26:26Z</time>
      </trkpt>
      <trkpt lat="48.28914" lon="-3.55733">
        <ele>205</ele>
        <time>2021-07-08T13:26:28Z</time>
      </trkpt>
      <trkpt lat="48.28912" lon="-3.55735">
        <ele>205</ele>
        <time>2021-07-08T13:26:30Z</time>
      </trkpt>
      <trkpt lat="48.2891" lon="-3.55736">
        <ele>205</ele>
        <time>2021-07-08T13:26:31Z</time>
      </trkpt>
      <trkpt lat="48.28908" lon="-3.55737">
        <ele>205</ele>
        <time>2021-07-08T13:26:32Z</time>
      </trkpt>
      <trkpt lat="48.28906" lon="-3.55739">
        <ele>206</ele>
        <time>2021-07-08T13:26:33Z</time>
      </trkpt>
      <trkpt lat="48.28904" lon="-3.5574">
        <ele>206</ele>
        <time>2021-07-08T13:26:34Z</time>
      </trkpt>
      <trkpt lat="48.28902" lon="-3.55742">
        <ele>206</ele>
        <time>2021-07-08T13:26:35Z</time>
      </trkpt>
      <trkpt lat="48.289" lon="-3.55743">
        <ele>206</ele>
        <time>2021-07-08T13:26:36Z</time>
      </trkpt>
      <trkpt lat="48.28898" lon="-3.55745">
        <ele>206</ele>
        <time>2021-07-08T13:26:36Z</time>
      </trkpt>
      <trkpt lat="48.28896" lon="-3.55747">
        <ele>206</ele>
        <time>2021-07-08T13:26:37Z</time>
      </trkpt>
      <trkpt lat="48.28894" lon="-3.55748">
        <ele>206</ele>
        <time>2021-07-08T13:26:38Z</time>
      </trkpt>
      <trkpt lat="48.28892" lon="-3.5575">
        <ele>206</ele>
        <time>2021-07-08T13:26:39Z</time>
      </trkpt>
      <trkpt lat="48.2889" lon="-3.55752">
        <ele>206</ele>
        <time>2021-07-08T13:26:41Z</time>
      </trkpt>
      <trkpt lat="48.28888" lon="-3.55753">
        <ele>207</ele>
        <time>2021-07-08T13:26:41Z</time>
      </trkpt>
      <trkpt lat="48.28886" lon="-3.55755">
        <ele>207</ele>
        <time>2021-07-08T13:26:43Z</time>
      </trkpt>
      <trkpt lat="48.28884" lon="-3.55757">
        <ele>207</ele>
        <time>2021-07-08T13:26:44Z</time>
      </trkpt>
      <trkpt lat="48.28883" lon="-3.55758">
        <ele>207</ele>
        <time>2021-07-08T13:26:45Z</time>
      </trkpt>
      <trkpt lat="48.28881" lon="-3.5576">
        <ele>207</ele>
        <time>2021-07-08T13:26:46Z</time>
      </trkpt>
      <trkpt lat="48.28879" lon="-3.55762">
        <ele>207</ele>
        <time>2021-07-08T13:26:47Z</time>
      </trkpt>
      <trkpt lat="48.28877" lon="-3.55764">
        <ele>207</ele>
        <time>2021-07-08T13:26:48Z</time>
      </trkpt>
      <trkpt lat="48.28875" lon="-3.55766">
        <ele>207</ele>
        <time>2021-07-08T13:26:49Z</time>
      </trkpt>
      <trkpt lat="48.28873" lon="-3.55767">
        <ele>207</ele>
        <time>2021-07-08T13:26:50Z</time>
      </trkpt>
      <trkpt lat="48.28871" lon="-3.55769">
        <ele>207</ele>
        <time>2021-07-08T13:26:51Z</time>
      </trkpt>
      <trkpt lat="48.28869" lon="-3.55771">
        <ele>207</ele>
        <time>2021-07-08T13:26:52Z</time>
      </trkpt>
      <trkpt lat="48.28868" lon="-3.55773">
        <ele>207</ele>
        <time>2021-07-08T13:26:53Z</time>
      </trkpt>
      <trkpt lat="48.28866" lon="-3.55775">
        <ele>207</ele>
        <time>2021-07-08T13:26:53Z</time>
      </trkpt>
      <trkpt lat="48.28864" lon="-3.55776">
        <ele>208</ele>
        <time>2021-07-08T13:26:54Z</time>
      </trkpt>
      <trkpt lat="48.28862" lon="-3.55778">
        <ele>208</ele>
        <time>2021-07-08T13:26:56Z</time>
      </trkpt>
      <trkpt lat="48.28861" lon="-3.5578">
        <ele>208</ele>
        <time>2021-07-08T13:26:57Z</time>
      </trkpt>
      <trkpt lat="48.28859" lon="-3.55782">
        <ele>208</ele>
        <time>2021-07-08T13:26:58Z</time>
      </trkpt>
      <trkpt lat="48.28857" lon="-3.55783">
        <ele>208</ele>
        <time>2021-07-08T13:26:59Z</time>
      </trkpt>
      <trkpt lat="48.28856" lon="-3.55785">
        <ele>208</ele>
        <time>2021-07-08T13:27:00Z</time>
      </trkpt>
      <trkpt lat="48.28854" lon="-3.55787">
        <ele>208</ele>
        <time>2021-07-08T13:27:01Z</time>
      </trkpt>
      <trkpt lat="48.28852" lon="-3.55788">
        <ele>208</ele>
        <time>2021-07-08T13:27:02Z</time>
      </trkpt>
      <trkpt lat="48.2885" lon="-3.5579">
        <ele>208</ele>
        <time>2021-07-08T13:27:03Z</time>
      </trkpt>
      <trkpt lat="48.28848" lon="-3.55791">
        <ele>208</ele>
        <time>2021-07-08T13:27:04Z</time>
      </trkpt>
      <trkpt lat="48.28847" lon="-3.55793">
        <ele>208</ele>
        <time>2021-07-08T13:27:05Z</time>
      </trkpt>
      <trkpt lat="48.28845" lon="-3.55795">
        <ele>208</ele>
        <time>2021-07-08T13:27:06Z</time>
      </trkpt>
      <trkpt lat="48.28843" lon="-3.55796">
        <ele>208</ele>
        <time>2021-07-08T13:27:07Z</time>
      </trkpt>
      <trkpt lat="48.28842" lon="-3.55798">
        <ele>208</ele>
        <time>2021-07-08T13:27:07Z</time>
      </trkpt>
      <trkpt lat="48.2884" lon="-3.558">
        <ele>209</ele>
        <time>2021-07-08T13:27:09Z</time>
      </trkpt>
      <trkpt lat="48.28838" lon="-3.55802">
        <ele>209</ele>
        <time>2021-07-08T13:27:10Z</time>
      </trkpt>
      <trkpt lat="48.28837" lon="-3.55803">
        <ele>209</ele>
        <time>2021-07-08T13:27:11Z</time>
      </trkpt>
      <trkpt lat="48.28835" lon="-3.55805">
        <ele>209</ele>
        <time>2021-07-08T13:27:12Z</time>
      </trkpt>
      <trkpt lat="48.28834" lon="-3.55807">
        <ele>209</ele>
        <time>2021-07-08T13:27:13Z</time>
      </trkpt>
      <trkpt lat="48.28832" lon="-3.55809">
        <ele>209</ele>
        <time>2021-07-08T13:27:14Z</time>
      </trkpt>
      <trkpt lat="48.28831" lon="-3.55811">
        <ele>211</ele>
        <time>2021-07-08T13:27:15Z</time>
      </trkpt>
      <trkpt lat="48.2883" lon="-3.55814">
        <ele>211</ele>
        <time>2021-07-08T13:27:16Z</time>
      </trkpt>
      <trkpt lat="48.28829" lon="-3.55816">
        <ele>211</ele>
        <time>2021-07-08T13:27:17Z</time>
      </trkpt>
      <trkpt lat="48.28827" lon="-3.55819">
        <ele>211</ele>
        <time>2021-07-08T13:27:18Z</time>
      </trkpt>
      <trkpt lat="48.28826" lon="-3.55821">
        <ele>211</ele>
        <time>2021-07-08T13:27:19Z</time>
      </trkpt>
      <trkpt lat="48.28825" lon="-3.55824">
        <ele>211</ele>
        <time>2021-07-08T13:27:20Z</time>
      </trkpt>
      <trkpt lat="48.28824" lon="-3.55827">
        <ele>211</ele>
        <time>2021-07-08T13:27:21Z</time>
      </trkpt>
      <trkpt lat="48.28822" lon="-3.55829">
        <ele>211</ele>
        <time>2021-07-08T13:27:22Z</time>
      </trkpt>
      <trkpt lat="48.28821" lon="-3.55831">
        <ele>211</ele>
        <time>2021-07-08T13:27:22Z</time>
      </trkpt>
      <trkpt lat="48.2882" lon="-3.55834">
        <ele>211</ele>
        <time>2021-07-08T13:27:24Z</time>
      </trkpt>
      <trkpt lat="48.28819" lon="-3.55836">
        <ele>211</ele>
        <time>2021-07-08T13:27:25Z</time>
      </trkpt>
      <trkpt lat="48.28818" lon="-3.55839">
        <ele>211</ele>
        <time>2021-07-08T13:27:26Z</time>
      </trkpt>
      <trkpt lat="48.28817" lon="-3.55842">
        <ele>211</ele>
        <time>2021-07-08T13:27:26Z</time>
      </trkpt>
      <trkpt lat="48.28816" lon="-3.55844">
        <ele>211</ele>
        <time>2021-07-08T13:27:27Z</time>
      </trkpt>
      <trkpt lat="48.28815" lon="-3.55847">
        <ele>211</ele>
        <time>2021-07-08T13:27:29Z</time>
      </trkpt>
      <trkpt lat="48.28814" lon="-3.5585">
        <ele>211</ele>
        <time>2021-07-08T13:27:29Z</time>
      </trkpt>
      <trkpt lat="48.28813" lon="-3.55853">
        <ele>211</ele>
        <time>2021-07-08T13:27:31Z</time>
      </trkpt>
      <trkpt lat="48.28812" lon="-3.55856">
        <ele>211</ele>
        <time>2021-07-08T13:27:32Z</time>
      </trkpt>
      <trkpt lat="48.2881" lon="-3.55859">
        <ele>211</ele>
        <time>2021-07-08T13:27:33Z</time>
      </trkpt>
      <trkpt lat="48.28809" lon="-3.55863">
        <ele>211</ele>
        <time>2021-07-08T13:27:34Z</time>
      </trkpt>
      <trkpt lat="48.28809" lon="-3.55866">
        <ele>211</ele>
        <time>2021-07-08T13:27:35Z</time>
      </trkpt>
      <trkpt lat="48.28807" lon="-3.55869">
        <ele>211</ele>
        <time>2021-07-08T13:27:36Z</time>
      </trkpt>
      <trkpt lat="48.28806" lon="-3.55872">
        <ele>211</ele>
        <time>2021-07-08T13:27:37Z</time>
      </trkpt>
      <trkpt lat="48.28805" lon="-3.55875">
        <ele>212</ele>
        <time>2021-07-08T13:27:37Z</time>
      </trkpt>
      <trkpt lat="48.28804" lon="-3.55878">
        <ele>212</ele>
        <time>2021-07-08T13:27:38Z</time>
      </trkpt>
      <trkpt lat="48.28803" lon="-3.55881">
        <ele>212</ele>
        <time>2021-07-08T13:27:40Z</time>
      </trkpt>
      <trkpt lat="48.28802" lon="-3.55884">
        <ele>212</ele>
        <time>2021-07-08T13:27:41Z</time>
      </trkpt>
      <trkpt lat="48.28801" lon="-3.55887">
        <ele>211</ele>
        <time>2021-07-08T13:27:42Z</time>
      </trkpt>
      <trkpt lat="48.28799" lon="-3.5589">
        <ele>211</ele>
        <time>2021-07-08T13:27:42Z</time>
      </trkpt>
      <trkpt lat="48.28798" lon="-3.55893">
        <ele>211</ele>
        <time>2021-07-08T13:27:44Z</time>
      </trkpt>
      <trkpt lat="48.28796" lon="-3.55896">
        <ele>211</ele>
        <time>2021-07-08T13:27:45Z</time>
      </trkpt>
      <trkpt lat="48.28795" lon="-3.559">
        <ele>213</ele>
        <time>2021-07-08T13:27:46Z</time>
      </trkpt>
      <trkpt lat="48.28794" lon="-3.55903">
        <ele>213</ele>
        <time>2021-07-08T13:27:47Z</time>
      </trkpt>
      <trkpt lat="48.28792" lon="-3.55906">
        <ele>213</ele>
        <time>2021-07-08T13:27:48Z</time>
      </trkpt>
      <trkpt lat="48.28791" lon="-3.55909">
        <ele>213</ele>
        <time>2021-07-08T13:27:49Z</time>
      </trkpt>
      <trkpt lat="48.2879" lon="-3.55912">
        <ele>213</ele>
        <time>2021-07-08T13:27:49Z</time>
      </trkpt>
      <trkpt lat="48.28788" lon="-3.55916">
        <ele>213</ele>
        <time>2021-07-08T13:27:51Z</time>
      </trkpt>
      <trkpt lat="48.28787" lon="-3.55919">
        <ele>213</ele>
        <time>2021-07-08T13:27:52Z</time>
      </trkpt>
      <trkpt lat="48.28786" lon="-3.55922">
        <ele>213</ele>
        <time>2021-07-08T13:27:53Z</time>
      </trkpt>
      <trkpt lat="48.28783" lon="-3.55929">
        <ele>214</ele>
        <time>2021-07-08T13:27:54Z</time>
      </trkpt>
      <trkpt lat="48.28782" lon="-3.55932">
        <ele>214</ele>
        <time>2021-07-08T13:27:56Z</time>
      </trkpt>
      <trkpt lat="48.28781" lon="-3.55935">
        <ele>214</ele>
        <time>2021-07-08T13:27:56Z</time>
      </trkpt>
      <trkpt lat="48.2878" lon="-3.55938">
        <ele>214</ele>
        <time>2021-07-08T13:27:58Z</time>
      </trkpt>
      <trkpt lat="48.28779" lon="-3.55941">
        <ele>214</ele>
        <time>2021-07-08T13:27:59Z</time>
      </trkpt>
      <trkpt lat="48.28778" lon="-3.55944">
        <ele>214</ele>
        <time>2021-07-08T13:28:00Z</time>
      </trkpt>
      <trkpt lat="48.28777" lon="-3.55947">
        <ele>214</ele>
        <time>2021-07-08T13:28:01Z</time>
      </trkpt>
      <trkpt lat="48.28776" lon="-3.5595">
        <ele>214</ele>
        <time>2021-07-08T13:28:02Z</time>
      </trkpt>
      <trkpt lat="48.28774" lon="-3.55956">
        <ele>214</ele>
        <time>2021-07-08T13:28:04Z</time>
      </trkpt>
      <trkpt lat="48.28773" lon="-3.55959">
        <ele>214</ele>
        <time>2021-07-08T13:28:04Z</time>
      </trkpt>
      <trkpt lat="48.28772" lon="-3.55963">
        <ele>214</ele>
        <time>2021-07-08T13:28:06Z</time>
      </trkpt>
      <trkpt lat="48.2877" lon="-3.55965">
        <ele>215</ele>
        <time>2021-07-08T13:28:06Z</time>
      </trkpt>
      <trkpt lat="48.28769" lon="-3.55968">
        <ele>215</ele>
        <time>2021-07-08T13:28:07Z</time>
      </trkpt>
      <trkpt lat="48.28768" lon="-3.5597">
        <ele>215</ele>
        <time>2021-07-08T13:28:09Z</time>
      </trkpt>
      <trkpt lat="48.28766" lon="-3.55973">
        <ele>215</ele>
        <time>2021-07-08T13:28:10Z</time>
      </trkpt>
      <trkpt lat="48.28764" lon="-3.55977">
        <ele>214</ele>
        <time>2021-07-08T13:28:11Z</time>
      </trkpt>
      <trkpt lat="48.28762" lon="-3.5598">
        <ele>214</ele>
        <time>2021-07-08T13:28:12Z</time>
      </trkpt>
      <trkpt lat="48.2876" lon="-3.55982">
        <ele>214</ele>
        <time>2021-07-08T13:28:12Z</time>
      </trkpt>
      <trkpt lat="48.28759" lon="-3.55985">
        <ele>215</ele>
        <time>2021-07-08T13:28:14Z</time>
      </trkpt>
      <trkpt lat="48.28757" lon="-3.55988">
        <ele>216</ele>
        <time>2021-07-08T13:28:15Z</time>
      </trkpt>
      <trkpt lat="48.28756" lon="-3.55991">
        <ele>216</ele>
        <time>2021-07-08T13:28:16Z</time>
      </trkpt>
      <trkpt lat="48.28755" lon="-3.55993">
        <ele>216</ele>
        <time>2021-07-08T13:28:17Z</time>
      </trkpt>
      <trkpt lat="48.28754" lon="-3.55996">
        <ele>216</ele>
        <time>2021-07-08T13:28:17Z</time>
      </trkpt>
      <trkpt lat="48.28752" lon="-3.55999">
        <ele>216</ele>
        <time>2021-07-08T13:28:18Z</time>
      </trkpt>
      <trkpt lat="48.28751" lon="-3.56002">
        <ele>216</ele>
        <time>2021-07-08T13:28:19Z</time>
      </trkpt>
      <trkpt lat="48.2875" lon="-3.56005">
        <ele>216</ele>
        <time>2021-07-08T13:28:21Z</time>
      </trkpt>
      <trkpt lat="48.28749" lon="-3.56008">
        <ele>216</ele>
        <time>2021-07-08T13:28:22Z</time>
      </trkpt>
      <trkpt lat="48.28747" lon="-3.56012">
        <ele>216</ele>
        <time>2021-07-08T13:28:22Z</time>
      </trkpt>
      <trkpt lat="48.28745" lon="-3.56015">
        <ele>216</ele>
        <time>2021-07-08T13:28:23Z</time>
      </trkpt>
      <trkpt lat="48.28744" lon="-3.56018">
        <ele>216</ele>
        <time>2021-07-08T13:28:24Z</time>
      </trkpt>
      <trkpt lat="48.28742" lon="-3.56022">
        <ele>216</ele>
        <time>2021-07-08T13:28:26Z</time>
      </trkpt>
      <trkpt lat="48.28741" lon="-3.56025">
        <ele>216</ele>
        <time>2021-07-08T13:28:26Z</time>
      </trkpt>
      <trkpt lat="48.28739" lon="-3.56028">
        <ele>216</ele>
        <time>2021-07-08T13:28:28Z</time>
      </trkpt>
      <trkpt lat="48.28738" lon="-3.56032">
        <ele>217</ele>
        <time>2021-07-08T13:28:29Z</time>
      </trkpt>
      <trkpt lat="48.28737" lon="-3.56035">
        <ele>217</ele>
        <time>2021-07-08T13:28:30Z</time>
      </trkpt>
      <trkpt lat="48.28736" lon="-3.56038">
        <ele>217</ele>
        <time>2021-07-08T13:28:31Z</time>
      </trkpt>
      <trkpt lat="48.28734" lon="-3.56041">
        <ele>217</ele>
        <time>2021-07-08T13:28:31Z</time>
      </trkpt>
      <trkpt lat="48.28732" lon="-3.56044">
        <ele>217</ele>
        <time>2021-07-08T13:28:32Z</time>
      </trkpt>
      <trkpt lat="48.28731" lon="-3.56047">
        <ele>217</ele>
        <time>2021-07-08T13:28:33Z</time>
      </trkpt>
      <trkpt lat="48.28729" lon="-3.5605">
        <ele>217</ele>
        <time>2021-07-08T13:28:35Z</time>
      </trkpt>
      <trkpt lat="48.28728" lon="-3.56054">
        <ele>217</ele>
        <time>2021-07-08T13:28:35Z</time>
      </trkpt>
      <trkpt lat="48.28726" lon="-3.56057">
        <ele>217</ele>
        <time>2021-07-08T13:28:36Z</time>
      </trkpt>
      <trkpt lat="48.28724" lon="-3.56061">
        <ele>217</ele>
        <time>2021-07-08T13:28:37Z</time>
      </trkpt>
      <trkpt lat="48.28722" lon="-3.56065">
        <ele>217</ele>
        <time>2021-07-08T13:28:38Z</time>
      </trkpt>
      <trkpt lat="48.2872" lon="-3.56069">
        <ele>217</ele>
        <time>2021-07-08T13:28:39Z</time>
      </trkpt>
      <trkpt lat="48.28718" lon="-3.56073">
        <ele>217</ele>
        <time>2021-07-08T13:28:41Z</time>
      </trkpt>
      <trkpt lat="48.28717" lon="-3.56078">
        <ele>217</ele>
        <time>2021-07-08T13:28:42Z</time>
      </trkpt>
      <trkpt lat="48.28715" lon="-3.56082">
        <ele>217</ele>
        <time>2021-07-08T13:28:43Z</time>
      </trkpt>
      <trkpt lat="48.28713" lon="-3.56087">
        <ele>217</ele>
        <time>2021-07-08T13:28:44Z</time>
      </trkpt>
      <trkpt lat="48.28711" lon="-3.56091">
        <ele>217</ele>
        <time>2021-07-08T13:28:45Z</time>
      </trkpt>
      <trkpt lat="48.28709" lon="-3.56095">
        <ele>217</ele>
        <time>2021-07-08T13:28:46Z</time>
      </trkpt>
      <trkpt lat="48.28705" lon="-3.56104">
        <ele>217</ele>
        <time>2021-07-08T13:28:47Z</time>
      </trkpt>
      <trkpt lat="48.28702" lon="-3.56109">
        <ele>217</ele>
        <time>2021-07-08T13:28:49Z</time>
      </trkpt>
      <trkpt lat="48.287" lon="-3.56114">
        <ele>217</ele>
        <time>2021-07-08T13:28:50Z</time>
      </trkpt>
      <trkpt lat="48.28697" lon="-3.56118">
        <ele>217</ele>
        <time>2021-07-08T13:28:51Z</time>
      </trkpt>
      <trkpt lat="48.28695" lon="-3.56123">
        <ele>217</ele>
        <time>2021-07-08T13:28:52Z</time>
      </trkpt>
      <trkpt lat="48.28692" lon="-3.56127">
        <ele>217</ele>
        <time>2021-07-08T13:28:53Z</time>
      </trkpt>
      <trkpt lat="48.28686" lon="-3.56135">
        <ele>217</ele>
        <time>2021-07-08T13:28:54Z</time>
      </trkpt>
      <trkpt lat="48.28683" lon="-3.56139">
        <ele>216</ele>
        <time>2021-07-08T13:28:56Z</time>
      </trkpt>
      <trkpt lat="48.2868" lon="-3.56144">
        <ele>216</ele>
        <time>2021-07-08T13:28:57Z</time>
      </trkpt>
      <trkpt lat="48.28677" lon="-3.56148">
        <ele>216</ele>
        <time>2021-07-08T13:28:58Z</time>
      </trkpt>
      <trkpt lat="48.28674" lon="-3.56152">
        <ele>216</ele>
        <time>2021-07-08T13:28:59Z</time>
      </trkpt>
      <trkpt lat="48.28668" lon="-3.5616">
        <ele>216</ele>
        <time>2021-07-08T13:29:01Z</time>
      </trkpt>
      <trkpt lat="48.28666" lon="-3.56164">
        <ele>217</ele>
        <time>2021-07-08T13:29:02Z</time>
      </trkpt>
      <trkpt lat="48.28663" lon="-3.56168">
        <ele>217</ele>
        <time>2021-07-08T13:29:03Z</time>
      </trkpt>
      <trkpt lat="48.2866" lon="-3.56172">
        <ele>217</ele>
        <time>2021-07-08T13:29:04Z</time>
      </trkpt>
      <trkpt lat="48.28657" lon="-3.56176">
        <ele>217</ele>
        <time>2021-07-08T13:29:05Z</time>
      </trkpt>
      <trkpt lat="48.28654" lon="-3.56179">
        <ele>217</ele>
        <time>2021-07-08T13:29:05Z</time>
      </trkpt>
      <trkpt lat="48.28651" lon="-3.56183">
        <ele>217</ele>
        <time>2021-07-08T13:29:07Z</time>
      </trkpt>
      <trkpt lat="48.28648" lon="-3.56187">
        <ele>217</ele>
        <time>2021-07-08T13:29:07Z</time>
      </trkpt>
      <trkpt lat="48.28645" lon="-3.5619">
        <ele>217</ele>
        <time>2021-07-08T13:29:08Z</time>
      </trkpt>
      <trkpt lat="48.28641" lon="-3.56193">
        <ele>217</ele>
        <time>2021-07-08T13:29:09Z</time>
      </trkpt>
      <trkpt lat="48.28638" lon="-3.56196">
        <ele>217</ele>
        <time>2021-07-08T13:29:10Z</time>
      </trkpt>
      <trkpt lat="48.28635" lon="-3.56199">
        <ele>217</ele>
        <time>2021-07-08T13:29:11Z</time>
      </trkpt>
      <trkpt lat="48.28632" lon="-3.56202">
        <ele>217</ele>
        <time>2021-07-08T13:29:12Z</time>
      </trkpt>
      <trkpt lat="48.28628" lon="-3.56204">
        <ele>218</ele>
        <time>2021-07-08T13:29:13Z</time>
      </trkpt>
      <trkpt lat="48.28625" lon="-3.56207">
        <ele>218</ele>
        <time>2021-07-08T13:29:14Z</time>
      </trkpt>
      <trkpt lat="48.28622" lon="-3.56209">
        <ele>218</ele>
        <time>2021-07-08T13:29:15Z</time>
      </trkpt>
      <trkpt lat="48.28619" lon="-3.5621">
        <ele>218</ele>
        <time>2021-07-08T13:29:16Z</time>
      </trkpt>
      <trkpt lat="48.28615" lon="-3.56212">
        <ele>218</ele>
        <time>2021-07-08T13:29:17Z</time>
      </trkpt>
      <trkpt lat="48.28612" lon="-3.56213">
        <ele>218</ele>
        <time>2021-07-08T13:29:19Z</time>
      </trkpt>
      <trkpt lat="48.28608" lon="-3.56213">
        <ele>218</ele>
        <time>2021-07-08T13:29:19Z</time>
      </trkpt>
      <trkpt lat="48.28605" lon="-3.56214">
        <ele>218</ele>
        <time>2021-07-08T13:29:20Z</time>
      </trkpt>
      <trkpt lat="48.28601" lon="-3.56215">
        <ele>218</ele>
        <time>2021-07-08T13:29:21Z</time>
      </trkpt>
      <trkpt lat="48.28597" lon="-3.56215">
        <ele>218</ele>
        <time>2021-07-08T13:29:22Z</time>
      </trkpt>
      <trkpt lat="48.28594" lon="-3.56215">
        <ele>218</ele>
        <time>2021-07-08T13:29:24Z</time>
      </trkpt>
      <trkpt lat="48.2859" lon="-3.56216">
        <ele>218</ele>
        <time>2021-07-08T13:29:24Z</time>
      </trkpt>
      <trkpt lat="48.28586" lon="-3.56216">
        <ele>218</ele>
        <time>2021-07-08T13:29:25Z</time>
      </trkpt>
      <trkpt lat="48.28583" lon="-3.56216">
        <ele>218</ele>
        <time>2021-07-08T13:29:27Z</time>
      </trkpt>
      <trkpt lat="48.28579" lon="-3.56217">
        <ele>218</ele>
        <time>2021-07-08T13:29:27Z</time>
      </trkpt>
      <trkpt lat="48.28576" lon="-3.56217">
        <ele>218</ele>
        <time>2021-07-08T13:29:28Z</time>
      </trkpt>
      <trkpt lat="48.28572" lon="-3.56216">
        <ele>218</ele>
        <time>2021-07-08T13:29:30Z</time>
      </trkpt>
      <trkpt lat="48.28568" lon="-3.56216">
        <ele>218</ele>
        <time>2021-07-08T13:29:31Z</time>
      </trkpt>
      <trkpt lat="48.28565" lon="-3.56216">
        <ele>218</ele>
        <time>2021-07-08T13:29:31Z</time>
      </trkpt>
      <trkpt lat="48.28561" lon="-3.56215">
        <ele>218</ele>
        <time>2021-07-08T13:29:33Z</time>
      </trkpt>
      <trkpt lat="48.28558" lon="-3.56215">
        <ele>218</ele>
        <time>2021-07-08T13:29:34Z</time>
      </trkpt>
      <trkpt lat="48.28554" lon="-3.56214">
        <ele>218</ele>
        <time>2021-07-08T13:29:35Z</time>
      </trkpt>
      <trkpt lat="48.2855" lon="-3.56214">
        <ele>218</ele>
        <time>2021-07-08T13:29:35Z</time>
      </trkpt>
      <trkpt lat="48.28546" lon="-3.56213">
        <ele>218</ele>
        <time>2021-07-08T13:29:36Z</time>
      </trkpt>
      <trkpt lat="48.28539" lon="-3.56212">
        <ele>219</ele>
        <time>2021-07-08T13:29:38Z</time>
      </trkpt>
      <trkpt lat="48.28536" lon="-3.56211">
        <ele>219</ele>
        <time>2021-07-08T13:29:40Z</time>
      </trkpt>
      <trkpt lat="48.28532" lon="-3.56211">
        <ele>219</ele>
        <time>2021-07-08T13:29:40Z</time>
      </trkpt>
      <trkpt lat="48.28529" lon="-3.5621">
        <ele>219</ele>
        <time>2021-07-08T13:29:41Z</time>
      </trkpt>
      <trkpt lat="48.28525" lon="-3.5621">
        <ele>219</ele>
        <time>2021-07-08T13:29:43Z</time>
      </trkpt>
      <trkpt lat="48.28522" lon="-3.56209">
        <ele>219</ele>
        <time>2021-07-08T13:29:44Z</time>
      </trkpt>
      <trkpt lat="48.28518" lon="-3.56209">
        <ele>219</ele>
        <time>2021-07-08T13:29:45Z</time>
      </trkpt>
      <trkpt lat="48.28515" lon="-3.56208">
        <ele>220</ele>
        <time>2021-07-08T13:29:46Z</time>
      </trkpt>
      <trkpt lat="48.28511" lon="-3.56208">
        <ele>220</ele>
        <time>2021-07-08T13:29:46Z</time>
      </trkpt>
      <trkpt lat="48.28508" lon="-3.56207">
        <ele>220</ele>
        <time>2021-07-08T13:29:47Z</time>
      </trkpt>
      <trkpt lat="48.28505" lon="-3.56207">
        <ele>220</ele>
        <time>2021-07-08T13:29:48Z</time>
      </trkpt>
      <trkpt lat="48.28501" lon="-3.56206">
        <ele>220</ele>
        <time>2021-07-08T13:29:49Z</time>
      </trkpt>
      <trkpt lat="48.28498" lon="-3.56205">
        <ele>220</ele>
        <time>2021-07-08T13:29:50Z</time>
      </trkpt>
      <trkpt lat="48.28495" lon="-3.56205">
        <ele>220</ele>
        <time>2021-07-08T13:29:52Z</time>
      </trkpt>
      <trkpt lat="48.28492" lon="-3.56204">
        <ele>220</ele>
        <time>2021-07-08T13:29:53Z</time>
      </trkpt>
      <trkpt lat="48.28488" lon="-3.56203">
        <ele>220</ele>
        <time>2021-07-08T13:29:54Z</time>
      </trkpt>
      <trkpt lat="48.28485" lon="-3.56203">
        <ele>220</ele>
        <time>2021-07-08T13:29:55Z</time>
      </trkpt>
      <trkpt lat="48.28482" lon="-3.56202">
        <ele>220</ele>
        <time>2021-07-08T13:29:56Z</time>
      </trkpt>
      <trkpt lat="48.28476" lon="-3.56202">
        <ele>220</ele>
        <time>2021-07-08T13:29:57Z</time>
      </trkpt>
      <trkpt lat="48.28473" lon="-3.56202">
        <ele>220</ele>
        <time>2021-07-08T13:29:58Z</time>
      </trkpt>
      <trkpt lat="48.2847" lon="-3.56203">
        <ele>220</ele>
        <time>2021-07-08T13:29:59Z</time>
      </trkpt>
      <trkpt lat="48.28467" lon="-3.56203">
        <ele>220</ele>
        <time>2021-07-08T13:30:01Z</time>
      </trkpt>
      <trkpt lat="48.28463" lon="-3.56203">
        <ele>221</ele>
        <time>2021-07-08T13:30:02Z</time>
      </trkpt>
      <trkpt lat="48.2846" lon="-3.56204">
        <ele>221</ele>
        <time>2021-07-08T13:30:03Z</time>
      </trkpt>
      <trkpt lat="48.28457" lon="-3.56204">
        <ele>221</ele>
        <time>2021-07-08T13:30:04Z</time>
      </trkpt>
      <trkpt lat="48.28454" lon="-3.56205">
        <ele>221</ele>
        <time>2021-07-08T13:30:05Z</time>
      </trkpt>
      <trkpt lat="48.28452" lon="-3.56205">
        <ele>221</ele>
        <time>2021-07-08T13:30:06Z</time>
      </trkpt>
      <trkpt lat="48.28449" lon="-3.56206">
        <ele>221</ele>
        <time>2021-07-08T13:30:06Z</time>
      </trkpt>
      <trkpt lat="48.28446" lon="-3.56207">
        <ele>221</ele>
        <time>2021-07-08T13:30:07Z</time>
      </trkpt>
      <trkpt lat="48.28443" lon="-3.56207">
        <ele>221</ele>
        <time>2021-07-08T13:30:09Z</time>
      </trkpt>
      <trkpt lat="48.2844" lon="-3.56208">
        <ele>221</ele>
        <time>2021-07-08T13:30:10Z</time>
      </trkpt>
      <trkpt lat="48.28437" lon="-3.56208">
        <ele>222</ele>
        <time>2021-07-08T13:30:11Z</time>
      </trkpt>
      <trkpt lat="48.28435" lon="-3.56209">
        <ele>222</ele>
        <time>2021-07-08T13:30:12Z</time>
      </trkpt>
      <trkpt lat="48.28432" lon="-3.5621">
        <ele>222</ele>
        <time>2021-07-08T13:30:13Z</time>
      </trkpt>
      <trkpt lat="48.28429" lon="-3.56211">
        <ele>222</ele>
        <time>2021-07-08T13:30:13Z</time>
      </trkpt>
      <trkpt lat="48.28427" lon="-3.56212">
        <ele>222</ele>
        <time>2021-07-08T13:30:14Z</time>
      </trkpt>
      <trkpt lat="48.28424" lon="-3.56213">
        <ele>222</ele>
        <time>2021-07-08T13:30:16Z</time>
      </trkpt>
      <trkpt lat="48.28422" lon="-3.56214">
        <ele>222</ele>
        <time>2021-07-08T13:30:17Z</time>
      </trkpt>
      <trkpt lat="48.2842" lon="-3.56215">
        <ele>222</ele>
        <time>2021-07-08T13:30:17Z</time>
      </trkpt>
      <trkpt lat="48.28418" lon="-3.56215">
        <ele>222</ele>
        <time>2021-07-08T13:30:18Z</time>
      </trkpt>
      <trkpt lat="48.28415" lon="-3.56215">
        <ele>222</ele>
        <time>2021-07-08T13:30:21Z</time>
      </trkpt>
      <trkpt lat="48.28413" lon="-3.56216">
        <ele>222</ele>
        <time>2021-07-08T13:30:23Z</time>
      </trkpt>
      <trkpt lat="48.2841" lon="-3.56214">
        <ele>223</ele>
        <time>2021-07-08T13:31:36Z</time>
      </trkpt>
      <trkpt lat="48.28409" lon="-3.56212">
        <ele>223</ele>
        <time>2021-07-08T13:31:37Z</time>
      </trkpt>
      <trkpt lat="48.28407" lon="-3.5621">
        <ele>223</ele>
        <time>2021-07-08T13:31:38Z</time>
      </trkpt>
      <trkpt lat="48.28406" lon="-3.56207">
        <ele>223</ele>
        <time>2021-07-08T13:31:39Z</time>
      </trkpt>
      <trkpt lat="48.28406" lon="-3.56198">
        <ele>222</ele>
        <time>2021-07-08T13:31:40Z</time>
      </trkpt>
      <trkpt lat="48.28406" lon="-3.56193">
        <ele>222</ele>
        <time>2021-07-08T13:31:42Z</time>
      </trkpt>
      <trkpt lat="48.28405" lon="-3.56188">
        <ele>222</ele>
        <time>2021-07-08T13:31:43Z</time>
      </trkpt>
      <trkpt lat="48.28403" lon="-3.56184">
        <ele>222</ele>
        <time>2021-07-08T13:31:44Z</time>
      </trkpt>
      <trkpt lat="48.284" lon="-3.56181">
        <ele>222</ele>
        <time>2021-07-08T13:31:45Z</time>
      </trkpt>
      <trkpt lat="48.28396" lon="-3.56178">
        <ele>222</ele>
        <time>2021-07-08T13:31:46Z</time>
      </trkpt>
      <trkpt lat="48.28393" lon="-3.56176">
        <ele>222</ele>
        <time>2021-07-08T13:31:47Z</time>
      </trkpt>
      <trkpt lat="48.28389" lon="-3.56175">
        <ele>222</ele>
        <time>2021-07-08T13:31:48Z</time>
      </trkpt>
      <trkpt lat="48.28385" lon="-3.56176">
        <ele>222</ele>
        <time>2021-07-08T13:31:49Z</time>
      </trkpt>
      <trkpt lat="48.28381" lon="-3.56176">
        <ele>222</ele>
        <time>2021-07-08T13:31:50Z</time>
      </trkpt>
      <trkpt lat="48.28377" lon="-3.56177">
        <ele>222</ele>
        <time>2021-07-08T13:31:51Z</time>
      </trkpt>
      <trkpt lat="48.28374" lon="-3.56178">
        <ele>222</ele>
        <time>2021-07-08T13:31:52Z</time>
      </trkpt>
      <trkpt lat="48.28371" lon="-3.56178">
        <ele>222</ele>
        <time>2021-07-08T13:31:53Z</time>
      </trkpt>
      <trkpt lat="48.28368" lon="-3.56179">
        <ele>222</ele>
        <time>2021-07-08T13:31:54Z</time>
      </trkpt>
      <trkpt lat="48.28364" lon="-3.5618">
        <ele>222</ele>
        <time>2021-07-08T13:31:55Z</time>
      </trkpt>
      <trkpt lat="48.28361" lon="-3.56181">
        <ele>222</ele>
        <time>2021-07-08T13:31:56Z</time>
      </trkpt>
      <trkpt lat="48.28358" lon="-3.56181">
        <ele>222</ele>
        <time>2021-07-08T13:31:57Z</time>
      </trkpt>
      <trkpt lat="48.28355" lon="-3.56182">
        <ele>222</ele>
        <time>2021-07-08T13:31:58Z</time>
      </trkpt>
      <trkpt lat="48.28352" lon="-3.56183">
        <ele>222</ele>
        <time>2021-07-08T13:32:00Z</time>
      </trkpt>
      <trkpt lat="48.28349" lon="-3.56184">
        <ele>222</ele>
        <time>2021-07-08T13:32:00Z</time>
      </trkpt>
      <trkpt lat="48.28345" lon="-3.56185">
        <ele>222</ele>
        <time>2021-07-08T13:32:01Z</time>
      </trkpt>
      <trkpt lat="48.28342" lon="-3.56186">
        <ele>222</ele>
        <time>2021-07-08T13:32:02Z</time>
      </trkpt>
      <trkpt lat="48.28339" lon="-3.56186">
        <ele>222</ele>
        <time>2021-07-08T13:32:03Z</time>
      </trkpt>
      <trkpt lat="48.28336" lon="-3.56187">
        <ele>221</ele>
        <time>2021-07-08T13:32:04Z</time>
      </trkpt>
      <trkpt lat="48.28333" lon="-3.56188">
        <ele>221</ele>
        <time>2021-07-08T13:32:05Z</time>
      </trkpt>
      <trkpt lat="48.2833" lon="-3.56188">
        <ele>222</ele>
        <time>2021-07-08T13:32:06Z</time>
      </trkpt>
      <trkpt lat="48.28327" lon="-3.56188">
        <ele>222</ele>
        <time>2021-07-08T13:32:07Z</time>
      </trkpt>
      <trkpt lat="48.28323" lon="-3.56189">
        <ele>222</ele>
        <time>2021-07-08T13:32:08Z</time>
      </trkpt>
      <trkpt lat="48.28321" lon="-3.56189">
        <ele>222</ele>
        <time>2021-07-08T13:32:09Z</time>
      </trkpt>
      <trkpt lat="48.28318" lon="-3.5619">
        <ele>222</ele>
        <time>2021-07-08T13:32:10Z</time>
      </trkpt>
      <trkpt lat="48.28315" lon="-3.56191">
        <ele>222</ele>
        <time>2021-07-08T13:32:11Z</time>
      </trkpt>
      <trkpt lat="48.28312" lon="-3.56191">
        <ele>222</ele>
        <time>2021-07-08T13:32:12Z</time>
      </trkpt>
      <trkpt lat="48.28309" lon="-3.56192">
        <ele>222</ele>
        <time>2021-07-08T13:32:13Z</time>
      </trkpt>
      <trkpt lat="48.28306" lon="-3.56193">
        <ele>222</ele>
        <time>2021-07-08T13:32:14Z</time>
      </trkpt>
      <trkpt lat="48.28303" lon="-3.56193">
        <ele>222</ele>
        <time>2021-07-08T13:32:15Z</time>
      </trkpt>
      <trkpt lat="48.283" lon="-3.56193">
        <ele>222</ele>
        <time>2021-07-08T13:32:16Z</time>
      </trkpt>
      <trkpt lat="48.28297" lon="-3.56194">
        <ele>222</ele>
        <time>2021-07-08T13:32:17Z</time>
      </trkpt>
      <trkpt lat="48.28294" lon="-3.56194">
        <ele>222</ele>
        <time>2021-07-08T13:32:18Z</time>
      </trkpt>
      <trkpt lat="48.28291" lon="-3.56194">
        <ele>222</ele>
        <time>2021-07-08T13:32:19Z</time>
      </trkpt>
      <trkpt lat="48.28288" lon="-3.56194">
        <ele>222</ele>
        <time>2021-07-08T13:32:20Z</time>
      </trkpt>
      <trkpt lat="48.28285" lon="-3.56194">
        <ele>222</ele>
        <time>2021-07-08T13:32:21Z</time>
      </trkpt>
      <trkpt lat="48.28282" lon="-3.56194">
        <ele>222</ele>
        <time>2021-07-08T13:32:22Z</time>
      </trkpt>
      <trkpt lat="48.28279" lon="-3.56194">
        <ele>222</ele>
        <time>2021-07-08T13:32:23Z</time>
      </trkpt>
      <trkpt lat="48.28276" lon="-3.56194">
        <ele>223</ele>
        <time>2021-07-08T13:32:24Z</time>
      </trkpt>
      <trkpt lat="48.28274" lon="-3.56193">
        <ele>223</ele>
        <time>2021-07-08T13:32:25Z</time>
      </trkpt>
      <trkpt lat="48.28271" lon="-3.56192">
        <ele>223</ele>
        <time>2021-07-08T13:32:26Z</time>
      </trkpt>
      <trkpt lat="48.28269" lon="-3.56192">
        <ele>223</ele>
        <time>2021-07-08T13:32:27Z</time>
      </trkpt>
      <trkpt lat="48.28266" lon="-3.56192">
        <ele>223</ele>
        <time>2021-07-08T13:32:28Z</time>
      </trkpt>
      <trkpt lat="48.28264" lon="-3.56193">
        <ele>223</ele>
        <time>2021-07-08T13:32:29Z</time>
      </trkpt>
      <trkpt lat="48.28261" lon="-3.56193">
        <ele>223</ele>
        <time>2021-07-08T13:32:30Z</time>
      </trkpt>
      <trkpt lat="48.28259" lon="-3.56193">
        <ele>224</ele>
        <time>2021-07-08T13:32:31Z</time>
      </trkpt>
      <trkpt lat="48.28256" lon="-3.56193">
        <ele>224</ele>
        <time>2021-07-08T13:32:32Z</time>
      </trkpt>
      <trkpt lat="48.28254" lon="-3.56193">
        <ele>224</ele>
        <time>2021-07-08T13:32:33Z</time>
      </trkpt>
      <trkpt lat="48.28251" lon="-3.56193">
        <ele>224</ele>
        <time>2021-07-08T13:32:34Z</time>
      </trkpt>
      <trkpt lat="48.28249" lon="-3.56193">
        <ele>224</ele>
        <time>2021-07-08T13:32:35Z</time>
      </trkpt>
      <trkpt lat="48.28246" lon="-3.56194">
        <ele>224</ele>
        <time>2021-07-08T13:32:36Z</time>
      </trkpt>
      <trkpt lat="48.28244" lon="-3.56195">
        <ele>224</ele>
        <time>2021-07-08T13:32:37Z</time>
      </trkpt>
      <trkpt lat="48.28242" lon="-3.56196">
        <ele>224</ele>
        <time>2021-07-08T13:32:38Z</time>
      </trkpt>
      <trkpt lat="48.2824" lon="-3.56197">
        <ele>224</ele>
        <time>2021-07-08T13:32:39Z</time>
      </trkpt>
      <trkpt lat="48.28238" lon="-3.56198">
        <ele>224</ele>
        <time>2021-07-08T13:32:40Z</time>
      </trkpt>
      <trkpt lat="48.28236" lon="-3.56197">
        <ele>224</ele>
        <time>2021-07-08T13:32:41Z</time>
      </trkpt>
      <trkpt lat="48.28233" lon="-3.56197">
        <ele>224</ele>
        <time>2021-07-08T13:32:42Z</time>
      </trkpt>
      <trkpt lat="48.28231" lon="-3.56197">
        <ele>224</ele>
        <time>2021-07-08T13:32:43Z</time>
      </trkpt>
      <trkpt lat="48.28229" lon="-3.56196">
        <ele>224</ele>
        <time>2021-07-08T13:32:44Z</time>
      </trkpt>
      <trkpt lat="48.28226" lon="-3.56196">
        <ele>224</ele>
        <time>2021-07-08T13:32:45Z</time>
      </trkpt>
      <trkpt lat="48.28224" lon="-3.56196">
        <ele>225</ele>
        <time>2021-07-08T13:32:46Z</time>
      </trkpt>
      <trkpt lat="48.28221" lon="-3.56196">
        <ele>225</ele>
        <time>2021-07-08T13:32:47Z</time>
      </trkpt>
      <trkpt lat="48.28219" lon="-3.56195">
        <ele>225</ele>
        <time>2021-07-08T13:32:48Z</time>
      </trkpt>
      <trkpt lat="48.28216" lon="-3.56195">
        <ele>225</ele>
        <time>2021-07-08T13:32:49Z</time>
      </trkpt>
      <trkpt lat="48.28214" lon="-3.56195">
        <ele>225</ele>
        <time>2021-07-08T13:32:50Z</time>
      </trkpt>
      <trkpt lat="48.28212" lon="-3.56194">
        <ele>225</ele>
        <time>2021-07-08T13:32:51Z</time>
      </trkpt>
      <trkpt lat="48.28209" lon="-3.56194">
        <ele>225</ele>
        <time>2021-07-08T13:32:52Z</time>
      </trkpt>
      <trkpt lat="48.28207" lon="-3.56194">
        <ele>225</ele>
        <time>2021-07-08T13:32:53Z</time>
      </trkpt>
      <trkpt lat="48.28204" lon="-3.56194">
        <ele>225</ele>
        <time>2021-07-08T13:32:54Z</time>
      </trkpt>
      <trkpt lat="48.28202" lon="-3.56193">
        <ele>225</ele>
        <time>2021-07-08T13:32:55Z</time>
      </trkpt>
      <trkpt lat="48.282" lon="-3.56192">
        <ele>226</ele>
        <time>2021-07-08T13:32:56Z</time>
      </trkpt>
      <trkpt lat="48.28197" lon="-3.56192">
        <ele>226</ele>
        <time>2021-07-08T13:32:57Z</time>
      </trkpt>
      <trkpt lat="48.28195" lon="-3.56192">
        <ele>226</ele>
        <time>2021-07-08T13:32:58Z</time>
      </trkpt>
      <trkpt lat="48.28192" lon="-3.56191">
        <ele>226</ele>
        <time>2021-07-08T13:32:59Z</time>
      </trkpt>
      <trkpt lat="48.2819" lon="-3.56191">
        <ele>226</ele>
        <time>2021-07-08T13:33:00Z</time>
      </trkpt>
      <trkpt lat="48.28187" lon="-3.5619">
        <ele>226</ele>
        <time>2021-07-08T13:33:01Z</time>
      </trkpt>
      <trkpt lat="48.28185" lon="-3.5619">
        <ele>226</ele>
        <time>2021-07-08T13:33:02Z</time>
      </trkpt>
      <trkpt lat="48.28183" lon="-3.56189">
        <ele>226</ele>
        <time>2021-07-08T13:33:03Z</time>
      </trkpt>
      <trkpt lat="48.2818" lon="-3.56189">
        <ele>226</ele>
        <time>2021-07-08T13:33:04Z</time>
      </trkpt>
      <trkpt lat="48.28178" lon="-3.56188">
        <ele>226</ele>
        <time>2021-07-08T13:33:05Z</time>
      </trkpt>
      <trkpt lat="48.28176" lon="-3.56188">
        <ele>227</ele>
        <time>2021-07-08T13:33:06Z</time>
      </trkpt>
      <trkpt lat="48.28173" lon="-3.56187">
        <ele>227</ele>
        <time>2021-07-08T13:33:07Z</time>
      </trkpt>
      <trkpt lat="48.28171" lon="-3.56187">
        <ele>227</ele>
        <time>2021-07-08T13:33:08Z</time>
      </trkpt>
      <trkpt lat="48.28169" lon="-3.56186">
        <ele>227</ele>
        <time>2021-07-08T13:33:09Z</time>
      </trkpt>
      <trkpt lat="48.28167" lon="-3.56185">
        <ele>227</ele>
        <time>2021-07-08T13:33:10Z</time>
      </trkpt>
      <trkpt lat="48.28164" lon="-3.56186">
        <ele>227</ele>
        <time>2021-07-08T13:33:11Z</time>
      </trkpt>
      <trkpt lat="48.28162" lon="-3.56185">
        <ele>227</ele>
        <time>2021-07-08T13:33:12Z</time>
      </trkpt>
      <trkpt lat="48.28159" lon="-3.56185">
        <ele>228</ele>
        <time>2021-07-08T13:33:13Z</time>
      </trkpt>
      <trkpt lat="48.28157" lon="-3.56185">
        <ele>228</ele>
        <time>2021-07-08T13:33:14Z</time>
      </trkpt>
      <trkpt lat="48.28154" lon="-3.56184">
        <ele>228</ele>
        <time>2021-07-08T13:33:16Z</time>
      </trkpt>
      <trkpt lat="48.28152" lon="-3.56183">
        <ele>228</ele>
        <time>2021-07-08T13:33:16Z</time>
      </trkpt>
      <trkpt lat="48.2815" lon="-3.56183">
        <ele>228</ele>
        <time>2021-07-08T13:33:17Z</time>
      </trkpt>
      <trkpt lat="48.28147" lon="-3.56182">
        <ele>228</ele>
        <time>2021-07-08T13:33:18Z</time>
      </trkpt>
      <trkpt lat="48.28145" lon="-3.56182">
        <ele>228</ele>
        <time>2021-07-08T13:33:19Z</time>
      </trkpt>
      <trkpt lat="48.28142" lon="-3.56181">
        <ele>228</ele>
        <time>2021-07-08T13:33:20Z</time>
      </trkpt>
      <trkpt lat="48.2814" lon="-3.56181">
        <ele>228</ele>
        <time>2021-07-08T13:33:21Z</time>
      </trkpt>
      <trkpt lat="48.28138" lon="-3.56181">
        <ele>228</ele>
        <time>2021-07-08T13:33:22Z</time>
      </trkpt>
      <trkpt lat="48.28135" lon="-3.56181">
        <ele>228</ele>
        <time>2021-07-08T13:33:23Z</time>
      </trkpt>
      <trkpt lat="48.2813" lon="-3.5618">
        <ele>228</ele>
        <time>2021-07-08T13:33:24Z</time>
      </trkpt>
      <trkpt lat="48.28128" lon="-3.5618">
        <ele>229</ele>
        <time>2021-07-08T13:33:26Z</time>
      </trkpt>
      <trkpt lat="48.28126" lon="-3.56179">
        <ele>229</ele>
        <time>2021-07-08T13:33:27Z</time>
      </trkpt>
      <trkpt lat="48.28123" lon="-3.56178">
        <ele>229</ele>
        <time>2021-07-08T13:33:28Z</time>
      </trkpt>
      <trkpt lat="48.28121" lon="-3.56177">
        <ele>229</ele>
        <time>2021-07-08T13:33:29Z</time>
      </trkpt>
      <trkpt lat="48.28118" lon="-3.56176">
        <ele>229</ele>
        <time>2021-07-08T13:33:30Z</time>
      </trkpt>
      <trkpt lat="48.28116" lon="-3.56175">
        <ele>229</ele>
        <time>2021-07-08T13:33:31Z</time>
      </trkpt>
      <trkpt lat="48.28113" lon="-3.56174">
        <ele>229</ele>
        <time>2021-07-08T13:33:32Z</time>
      </trkpt>
      <trkpt lat="48.28111" lon="-3.56173">
        <ele>229</ele>
        <time>2021-07-08T13:33:33Z</time>
      </trkpt>
      <trkpt lat="48.28106" lon="-3.56172">
        <ele>229</ele>
        <time>2021-07-08T13:33:34Z</time>
      </trkpt>
      <trkpt lat="48.28104" lon="-3.56171">
        <ele>230</ele>
        <time>2021-07-08T13:33:36Z</time>
      </trkpt>
      <trkpt lat="48.28101" lon="-3.5617">
        <ele>230</ele>
        <time>2021-07-08T13:33:37Z</time>
      </trkpt>
      <trkpt lat="48.28099" lon="-3.5617">
        <ele>230</ele>
        <time>2021-07-08T13:33:38Z</time>
      </trkpt>
      <trkpt lat="48.28096" lon="-3.56169">
        <ele>230</ele>
        <time>2021-07-08T13:33:39Z</time>
      </trkpt>
      <trkpt lat="48.28093" lon="-3.56169">
        <ele>230</ele>
        <time>2021-07-08T13:33:40Z</time>
      </trkpt>
      <trkpt lat="48.28091" lon="-3.56168">
        <ele>230</ele>
        <time>2021-07-08T13:33:41Z</time>
      </trkpt>
      <trkpt lat="48.28088" lon="-3.56167">
        <ele>230</ele>
        <time>2021-07-08T13:33:42Z</time>
      </trkpt>
      <trkpt lat="48.28086" lon="-3.56167">
        <ele>230</ele>
        <time>2021-07-08T13:33:43Z</time>
      </trkpt>
      <trkpt lat="48.28084" lon="-3.56166">
        <ele>230</ele>
        <time>2021-07-08T13:33:44Z</time>
      </trkpt>
      <trkpt lat="48.28081" lon="-3.56166">
        <ele>230</ele>
        <time>2021-07-08T13:33:45Z</time>
      </trkpt>
      <trkpt lat="48.28079" lon="-3.56165">
        <ele>230</ele>
        <time>2021-07-08T13:33:46Z</time>
      </trkpt>
      <trkpt lat="48.28076" lon="-3.56165">
        <ele>231</ele>
        <time>2021-07-08T13:33:47Z</time>
      </trkpt>
      <trkpt lat="48.28074" lon="-3.56164">
        <ele>231</ele>
        <time>2021-07-08T13:33:48Z</time>
      </trkpt>
      <trkpt lat="48.28071" lon="-3.56164">
        <ele>231</ele>
        <time>2021-07-08T13:33:49Z</time>
      </trkpt>
      <trkpt lat="48.28069" lon="-3.56164">
        <ele>231</ele>
        <time>2021-07-08T13:33:50Z</time>
      </trkpt>
      <trkpt lat="48.28066" lon="-3.56165">
        <ele>231</ele>
        <time>2021-07-08T13:33:51Z</time>
      </trkpt>
      <trkpt lat="48.28064" lon="-3.56165">
        <ele>231</ele>
        <time>2021-07-08T13:33:52Z</time>
      </trkpt>
      <trkpt lat="48.28059" lon="-3.56166">
        <ele>231</ele>
        <time>2021-07-08T13:33:54Z</time>
      </trkpt>
      <trkpt lat="48.28056" lon="-3.56166">
        <ele>232</ele>
        <time>2021-07-08T13:33:55Z</time>
      </trkpt>
      <trkpt lat="48.28054" lon="-3.56166">
        <ele>232</ele>
        <time>2021-07-08T13:33:56Z</time>
      </trkpt>
      <trkpt lat="48.28052" lon="-3.56165">
        <ele>232</ele>
        <time>2021-07-08T13:33:57Z</time>
      </trkpt>
      <trkpt lat="48.28049" lon="-3.56164">
        <ele>232</ele>
        <time>2021-07-08T13:33:58Z</time>
      </trkpt>
      <trkpt lat="48.28047" lon="-3.56163">
        <ele>232</ele>
        <time>2021-07-08T13:33:59Z</time>
      </trkpt>
      <trkpt lat="48.28045" lon="-3.56162">
        <ele>232</ele>
        <time>2021-07-08T13:34:00Z</time>
      </trkpt>
      <trkpt lat="48.28042" lon="-3.56161">
        <ele>232</ele>
        <time>2021-07-08T13:34:01Z</time>
      </trkpt>
      <trkpt lat="48.2804" lon="-3.5616">
        <ele>232</ele>
        <time>2021-07-08T13:34:02Z</time>
      </trkpt>
      <trkpt lat="48.28037" lon="-3.5616">
        <ele>233</ele>
        <time>2021-07-08T13:34:03Z</time>
      </trkpt>
      <trkpt lat="48.28034" lon="-3.56159">
        <ele>233</ele>
        <time>2021-07-08T13:34:04Z</time>
      </trkpt>
      <trkpt lat="48.28032" lon="-3.56159">
        <ele>233</ele>
        <time>2021-07-08T13:34:05Z</time>
      </trkpt>
      <trkpt lat="48.28029" lon="-3.56159">
        <ele>233</ele>
        <time>2021-07-08T13:34:06Z</time>
      </trkpt>
      <trkpt lat="48.28027" lon="-3.56158">
        <ele>233</ele>
        <time>2021-07-08T13:34:07Z</time>
      </trkpt>
      <trkpt lat="48.28024" lon="-3.56158">
        <ele>233</ele>
        <time>2021-07-08T13:34:08Z</time>
      </trkpt>
      <trkpt lat="48.28022" lon="-3.56157">
        <ele>233</ele>
        <time>2021-07-08T13:34:09Z</time>
      </trkpt>
      <trkpt lat="48.28019" lon="-3.56157">
        <ele>234</ele>
        <time>2021-07-08T13:34:10Z</time>
      </trkpt>
      <trkpt lat="48.28016" lon="-3.56157">
        <ele>234</ele>
        <time>2021-07-08T13:34:11Z</time>
      </trkpt>
      <trkpt lat="48.28011" lon="-3.56157">
        <ele>234</ele>
        <time>2021-07-08T13:34:12Z</time>
      </trkpt>
      <trkpt lat="48.28009" lon="-3.56156">
        <ele>234</ele>
        <time>2021-07-08T13:34:14Z</time>
      </trkpt>
      <trkpt lat="48.28006" lon="-3.56156">
        <ele>234</ele>
        <time>2021-07-08T13:34:15Z</time>
      </trkpt>
      <trkpt lat="48.28004" lon="-3.56156">
        <ele>235</ele>
        <time>2021-07-08T13:34:16Z</time>
      </trkpt>
      <trkpt lat="48.28001" lon="-3.56155">
        <ele>235</ele>
        <time>2021-07-08T13:34:17Z</time>
      </trkpt>
      <trkpt lat="48.27999" lon="-3.56155">
        <ele>235</ele>
        <time>2021-07-08T13:34:18Z</time>
      </trkpt>
      <trkpt lat="48.27996" lon="-3.56155">
        <ele>235</ele>
        <time>2021-07-08T13:34:19Z</time>
      </trkpt>
      <trkpt lat="48.27994" lon="-3.56154">
        <ele>235</ele>
        <time>2021-07-08T13:34:20Z</time>
      </trkpt>
      <trkpt lat="48.27991" lon="-3.56154">
        <ele>235</ele>
        <time>2021-07-08T13:34:21Z</time>
      </trkpt>
      <trkpt lat="48.27989" lon="-3.56152">
        <ele>235</ele>
        <time>2021-07-08T13:34:22Z</time>
      </trkpt>
      <trkpt lat="48.27987" lon="-3.56151">
        <ele>236</ele>
        <time>2021-07-08T13:34:23Z</time>
      </trkpt>
      <trkpt lat="48.27984" lon="-3.5615">
        <ele>236</ele>
        <time>2021-07-08T13:34:24Z</time>
      </trkpt>
      <trkpt lat="48.27982" lon="-3.5615">
        <ele>236</ele>
        <time>2021-07-08T13:34:25Z</time>
      </trkpt>
      <trkpt lat="48.2798" lon="-3.56149">
        <ele>236</ele>
        <time>2021-07-08T13:34:26Z</time>
      </trkpt>
      <trkpt lat="48.27978" lon="-3.56148">
        <ele>236</ele>
        <time>2021-07-08T13:34:27Z</time>
      </trkpt>
      <trkpt lat="48.27975" lon="-3.56148">
        <ele>236</ele>
        <time>2021-07-08T13:34:28Z</time>
      </trkpt>
      <trkpt lat="48.27973" lon="-3.56147">
        <ele>236</ele>
        <time>2021-07-08T13:34:29Z</time>
      </trkpt>
      <trkpt lat="48.27971" lon="-3.56147">
        <ele>236</ele>
        <time>2021-07-08T13:34:30Z</time>
      </trkpt>
      <trkpt lat="48.27967" lon="-3.56146">
        <ele>236</ele>
        <time>2021-07-08T13:34:31Z</time>
      </trkpt>
      <trkpt lat="48.27965" lon="-3.56146">
        <ele>236</ele>
        <time>2021-07-08T13:34:33Z</time>
      </trkpt>
      <trkpt lat="48.27963" lon="-3.56146">
        <ele>236</ele>
        <time>2021-07-08T13:34:34Z</time>
      </trkpt>
      <trkpt lat="48.2796" lon="-3.56145">
        <ele>236</ele>
        <time>2021-07-08T13:34:35Z</time>
      </trkpt>
      <trkpt lat="48.27958" lon="-3.56145">
        <ele>236</ele>
        <time>2021-07-08T13:34:36Z</time>
      </trkpt>
      <trkpt lat="48.27955" lon="-3.56145">
        <ele>236</ele>
        <time>2021-07-08T13:34:37Z</time>
      </trkpt>
      <trkpt lat="48.27953" lon="-3.56144">
        <ele>236</ele>
        <time>2021-07-08T13:34:38Z</time>
      </trkpt>
      <trkpt lat="48.2795" lon="-3.56143">
        <ele>236</ele>
        <time>2021-07-08T13:34:39Z</time>
      </trkpt>
      <trkpt lat="48.27948" lon="-3.56142">
        <ele>236</ele>
        <time>2021-07-08T13:34:40Z</time>
      </trkpt>
      <trkpt lat="48.27946" lon="-3.56142">
        <ele>236</ele>
        <time>2021-07-08T13:34:41Z</time>
      </trkpt>
      <trkpt lat="48.27943" lon="-3.56142">
        <ele>237</ele>
        <time>2021-07-08T13:34:42Z</time>
      </trkpt>
      <trkpt lat="48.27941" lon="-3.56143">
        <ele>237</ele>
        <time>2021-07-08T13:34:43Z</time>
      </trkpt>
      <trkpt lat="48.27938" lon="-3.56144">
        <ele>237</ele>
        <time>2021-07-08T13:34:44Z</time>
      </trkpt>
      <trkpt lat="48.27936" lon="-3.56145">
        <ele>237</ele>
        <time>2021-07-08T13:34:45Z</time>
      </trkpt>
      <trkpt lat="48.27933" lon="-3.56147">
        <ele>237</ele>
        <time>2021-07-08T13:34:46Z</time>
      </trkpt>
      <trkpt lat="48.27931" lon="-3.5615">
        <ele>237</ele>
        <time>2021-07-08T13:34:47Z</time>
      </trkpt>
      <trkpt lat="48.27928" lon="-3.56152">
        <ele>237</ele>
        <time>2021-07-08T13:34:48Z</time>
      </trkpt>
      <trkpt lat="48.27926" lon="-3.56155">
        <ele>237</ele>
        <time>2021-07-08T13:34:49Z</time>
      </trkpt>
      <trkpt lat="48.27923" lon="-3.56158">
        <ele>237</ele>
        <time>2021-07-08T13:34:50Z</time>
      </trkpt>
      <trkpt lat="48.27921" lon="-3.56161">
        <ele>237</ele>
        <time>2021-07-08T13:34:51Z</time>
      </trkpt>
      <trkpt lat="48.27915" lon="-3.56168">
        <ele>237</ele>
        <time>2021-07-08T13:34:53Z</time>
      </trkpt>
      <trkpt lat="48.27912" lon="-3.56172">
        <ele>237</ele>
        <time>2021-07-08T13:34:54Z</time>
      </trkpt>
      <trkpt lat="48.2791" lon="-3.56175">
        <ele>237</ele>
        <time>2021-07-08T13:34:55Z</time>
      </trkpt>
      <trkpt lat="48.27907" lon="-3.56179">
        <ele>237</ele>
        <time>2021-07-08T13:34:56Z</time>
      </trkpt>
      <trkpt lat="48.27903" lon="-3.56183">
        <ele>237</ele>
        <time>2021-07-08T13:34:57Z</time>
      </trkpt>
      <trkpt lat="48.279" lon="-3.56186">
        <ele>237</ele>
        <time>2021-07-08T13:34:58Z</time>
      </trkpt>
      <trkpt lat="48.27897" lon="-3.5619">
        <ele>237</ele>
        <time>2021-07-08T13:34:59Z</time>
      </trkpt>
      <trkpt lat="48.27894" lon="-3.56194">
        <ele>237</ele>
        <time>2021-07-08T13:35:00Z</time>
      </trkpt>
      <trkpt lat="48.27891" lon="-3.56197">
        <ele>236</ele>
        <time>2021-07-08T13:35:01Z</time>
      </trkpt>
      <trkpt lat="48.27887" lon="-3.56201">
        <ele>236</ele>
        <time>2021-07-08T13:35:02Z</time>
      </trkpt>
      <trkpt lat="48.27884" lon="-3.56205">
        <ele>236</ele>
        <time>2021-07-08T13:35:03Z</time>
      </trkpt>
      <trkpt lat="48.27881" lon="-3.56209">
        <ele>236</ele>
        <time>2021-07-08T13:35:04Z</time>
      </trkpt>
      <trkpt lat="48.27877" lon="-3.56214">
        <ele>236</ele>
        <time>2021-07-08T13:35:05Z</time>
      </trkpt>
      <trkpt lat="48.27874" lon="-3.56218">
        <ele>236</ele>
        <time>2021-07-08T13:35:06Z</time>
      </trkpt>
      <trkpt lat="48.27871" lon="-3.56223">
        <ele>236</ele>
        <time>2021-07-08T13:35:07Z</time>
      </trkpt>
      <trkpt lat="48.27867" lon="-3.56227">
        <ele>236</ele>
        <time>2021-07-08T13:35:08Z</time>
      </trkpt>
      <trkpt lat="48.2786" lon="-3.56236">
        <ele>236</ele>
        <time>2021-07-08T13:35:09Z</time>
      </trkpt>
      <trkpt lat="48.27857" lon="-3.56241">
        <ele>236</ele>
        <time>2021-07-08T13:35:11Z</time>
      </trkpt>
      <trkpt lat="48.27853" lon="-3.56245">
        <ele>236</ele>
        <time>2021-07-08T13:35:12Z</time>
      </trkpt>
      <trkpt lat="48.2785" lon="-3.56249">
        <ele>236</ele>
        <time>2021-07-08T13:35:13Z</time>
      </trkpt>
      <trkpt lat="48.27847" lon="-3.56253">
        <ele>236</ele>
        <time>2021-07-08T13:35:14Z</time>
      </trkpt>
      <trkpt lat="48.27844" lon="-3.56257">
        <ele>236</ele>
        <time>2021-07-08T13:35:15Z</time>
      </trkpt>
      <trkpt lat="48.27841" lon="-3.56261">
        <ele>236</ele>
        <time>2021-07-08T13:35:16Z</time>
      </trkpt>
      <trkpt lat="48.27838" lon="-3.56265">
        <ele>236</ele>
        <time>2021-07-08T13:35:17Z</time>
      </trkpt>
      <trkpt lat="48.27834" lon="-3.56269">
        <ele>236</ele>
        <time>2021-07-08T13:35:19Z</time>
      </trkpt>
      <trkpt lat="48.27831" lon="-3.56272">
        <ele>236</ele>
        <time>2021-07-08T13:35:19Z</time>
      </trkpt>
      <trkpt lat="48.27828" lon="-3.56275">
        <ele>236</ele>
        <time>2021-07-08T13:35:20Z</time>
      </trkpt>
      <trkpt lat="48.27825" lon="-3.56278">
        <ele>236</ele>
        <time>2021-07-08T13:35:21Z</time>
      </trkpt>
      <trkpt lat="48.27821" lon="-3.56281">
        <ele>236</ele>
        <time>2021-07-08T13:35:22Z</time>
      </trkpt>
      <trkpt lat="48.27818" lon="-3.56283">
        <ele>236</ele>
        <time>2021-07-08T13:35:23Z</time>
      </trkpt>
      <trkpt lat="48.27815" lon="-3.56286">
        <ele>236</ele>
        <time>2021-07-08T13:35:24Z</time>
      </trkpt>
      <trkpt lat="48.27811" lon="-3.56289">
        <ele>236</ele>
        <time>2021-07-08T13:35:25Z</time>
      </trkpt>
      <trkpt lat="48.27808" lon="-3.56291">
        <ele>236</ele>
        <time>2021-07-08T13:35:26Z</time>
      </trkpt>
      <trkpt lat="48.27805" lon="-3.56294">
        <ele>236</ele>
        <time>2021-07-08T13:35:27Z</time>
      </trkpt>
      <trkpt lat="48.27798" lon="-3.56301">
        <ele>236</ele>
        <time>2021-07-08T13:35:28Z</time>
      </trkpt>
      <trkpt lat="48.27794" lon="-3.56305">
        <ele>236</ele>
        <time>2021-07-08T13:35:30Z</time>
      </trkpt>
      <trkpt lat="48.27791" lon="-3.56308">
        <ele>236</ele>
        <time>2021-07-08T13:35:31Z</time>
      </trkpt>
      <trkpt lat="48.27787" lon="-3.56313">
        <ele>236</ele>
        <time>2021-07-08T13:35:32Z</time>
      </trkpt>
      <trkpt lat="48.27784" lon="-3.56317">
        <ele>236</ele>
        <time>2021-07-08T13:35:33Z</time>
      </trkpt>
      <trkpt lat="48.2778" lon="-3.56321">
        <ele>236</ele>
        <time>2021-07-08T13:35:34Z</time>
      </trkpt>
      <trkpt lat="48.27776" lon="-3.56326">
        <ele>236</ele>
        <time>2021-07-08T13:35:35Z</time>
      </trkpt>
      <trkpt lat="48.27773" lon="-3.56331">
        <ele>236</ele>
        <time>2021-07-08T13:35:36Z</time>
      </trkpt>
      <trkpt lat="48.2777" lon="-3.56336">
        <ele>236</ele>
        <time>2021-07-08T13:35:37Z</time>
      </trkpt>
      <trkpt lat="48.27766" lon="-3.5634">
        <ele>236</ele>
        <time>2021-07-08T13:35:38Z</time>
      </trkpt>
      <trkpt lat="48.27763" lon="-3.56345">
        <ele>236</ele>
        <time>2021-07-08T13:35:39Z</time>
      </trkpt>
      <trkpt lat="48.27759" lon="-3.5635">
        <ele>236</ele>
        <time>2021-07-08T13:35:40Z</time>
      </trkpt>
      <trkpt lat="48.27755" lon="-3.56354">
        <ele>236</ele>
        <time>2021-07-08T13:35:42Z</time>
      </trkpt>
      <trkpt lat="48.27752" lon="-3.56359">
        <ele>236</ele>
        <time>2021-07-08T13:35:42Z</time>
      </trkpt>
      <trkpt lat="48.27748" lon="-3.56363">
        <ele>235</ele>
        <time>2021-07-08T13:35:43Z</time>
      </trkpt>
      <trkpt lat="48.27745" lon="-3.56367">
        <ele>235</ele>
        <time>2021-07-08T13:35:44Z</time>
      </trkpt>
      <trkpt lat="48.27741" lon="-3.56372">
        <ele>234</ele>
        <time>2021-07-08T13:35:45Z</time>
      </trkpt>
      <trkpt lat="48.27737" lon="-3.56376">
        <ele>234</ele>
        <time>2021-07-08T13:35:46Z</time>
      </trkpt>
      <trkpt lat="48.2773" lon="-3.56385">
        <ele>233</ele>
        <time>2021-07-08T13:35:48Z</time>
      </trkpt>
      <trkpt lat="48.27727" lon="-3.56389">
        <ele>233</ele>
        <time>2021-07-08T13:35:49Z</time>
      </trkpt>
      <trkpt lat="48.27724" lon="-3.56393">
        <ele>233</ele>
        <time>2021-07-08T13:35:50Z</time>
      </trkpt>
      <trkpt lat="48.2772" lon="-3.56396">
        <ele>233</ele>
        <time>2021-07-08T13:35:51Z</time>
      </trkpt>
      <trkpt lat="48.27717" lon="-3.56399">
        <ele>233</ele>
        <time>2021-07-08T13:35:52Z</time>
      </trkpt>
      <trkpt lat="48.27715" lon="-3.56401">
        <ele>233</ele>
        <time>2021-07-08T13:35:53Z</time>
      </trkpt>
      <trkpt lat="48.27712" lon="-3.56403">
        <ele>233</ele>
        <time>2021-07-08T13:35:54Z</time>
      </trkpt>
      <trkpt lat="48.27711" lon="-3.56404">
        <ele>233</ele>
        <time>2021-07-08T13:35:55Z</time>
      </trkpt>
      <trkpt lat="48.27707" lon="-3.56404">
        <ele>233</ele>
        <time>2021-07-08T13:35:57Z</time>
      </trkpt>
      <trkpt lat="48.27704" lon="-3.56404">
        <ele>233</ele>
        <time>2021-07-08T13:35:58Z</time>
      </trkpt>
      <trkpt lat="48.27701" lon="-3.56404">
        <ele>233</ele>
        <time>2021-07-08T13:35:59Z</time>
      </trkpt>
      <trkpt lat="48.27698" lon="-3.56404">
        <ele>233</ele>
        <time>2021-07-08T13:36:00Z</time>
      </trkpt>
      <trkpt lat="48.27694" lon="-3.56404">
        <ele>233</ele>
        <time>2021-07-08T13:36:01Z</time>
      </trkpt>
      <trkpt lat="48.2769" lon="-3.56405">
        <ele>233</ele>
        <time>2021-07-08T13:36:02Z</time>
      </trkpt>
      <trkpt lat="48.27687" lon="-3.56406">
        <ele>233</ele>
        <time>2021-07-08T13:36:03Z</time>
      </trkpt>
      <trkpt lat="48.27683" lon="-3.56407">
        <ele>233</ele>
        <time>2021-07-08T13:36:04Z</time>
      </trkpt>
      <trkpt lat="48.2768" lon="-3.56408">
        <ele>233</ele>
        <time>2021-07-08T13:36:05Z</time>
      </trkpt>
      <trkpt lat="48.27676" lon="-3.56409">
        <ele>233</ele>
        <time>2021-07-08T13:36:06Z</time>
      </trkpt>
      <trkpt lat="48.27673" lon="-3.5641">
        <ele>233</ele>
        <time>2021-07-08T13:36:07Z</time>
      </trkpt>
      <trkpt lat="48.27669" lon="-3.56411">
        <ele>233</ele>
        <time>2021-07-08T13:36:08Z</time>
      </trkpt>
      <trkpt lat="48.27665" lon="-3.56412">
        <ele>233</ele>
        <time>2021-07-08T13:36:09Z</time>
      </trkpt>
      <trkpt lat="48.27661" lon="-3.56413">
        <ele>232</ele>
        <time>2021-07-08T13:36:10Z</time>
      </trkpt>
      <trkpt lat="48.27657" lon="-3.56415">
        <ele>232</ele>
        <time>2021-07-08T13:36:11Z</time>
      </trkpt>
      <trkpt lat="48.27653" lon="-3.56416">
        <ele>232</ele>
        <time>2021-07-08T13:36:12Z</time>
      </trkpt>
      <trkpt lat="48.27649" lon="-3.56418">
        <ele>232</ele>
        <time>2021-07-08T13:36:13Z</time>
      </trkpt>
      <trkpt lat="48.27646" lon="-3.56419">
        <ele>232</ele>
        <time>2021-07-08T13:36:14Z</time>
      </trkpt>
      <trkpt lat="48.27642" lon="-3.56421">
        <ele>232</ele>
        <time>2021-07-08T13:36:15Z</time>
      </trkpt>
      <trkpt lat="48.27638" lon="-3.56423">
        <ele>232</ele>
        <time>2021-07-08T13:36:16Z</time>
      </trkpt>
      <trkpt lat="48.27635" lon="-3.56426">
        <ele>231</ele>
        <time>2021-07-08T13:36:17Z</time>
      </trkpt>
      <trkpt lat="48.27631" lon="-3.56427">
        <ele>231</ele>
        <time>2021-07-08T13:36:18Z</time>
      </trkpt>
      <trkpt lat="48.27628" lon="-3.56429">
        <ele>230</ele>
        <time>2021-07-08T13:36:19Z</time>
      </trkpt>
      <trkpt lat="48.27625" lon="-3.5643">
        <ele>230</ele>
        <time>2021-07-08T13:36:20Z</time>
      </trkpt>
      <trkpt lat="48.27622" lon="-3.56431">
        <ele>230</ele>
        <time>2021-07-08T13:36:21Z</time>
      </trkpt>
      <trkpt lat="48.2762" lon="-3.56432">
        <ele>230</ele>
        <time>2021-07-08T13:36:22Z</time>
      </trkpt>
      <trkpt lat="48.27617" lon="-3.56432">
        <ele>230</ele>
        <time>2021-07-08T13:36:23Z</time>
      </trkpt>
      <trkpt lat="48.27614" lon="-3.56432">
        <ele>230</ele>
        <time>2021-07-08T13:36:24Z</time>
      </trkpt>
      <trkpt lat="48.27611" lon="-3.56433">
        <ele>230</ele>
        <time>2021-07-08T13:36:25Z</time>
      </trkpt>
      <trkpt lat="48.27607" lon="-3.56434">
        <ele>230</ele>
        <time>2021-07-08T13:36:26Z</time>
      </trkpt>
      <trkpt lat="48.27604" lon="-3.56436">
        <ele>230</ele>
        <time>2021-07-08T13:36:27Z</time>
      </trkpt>
      <trkpt lat="48.27601" lon="-3.56437">
        <ele>230</ele>
        <time>2021-07-08T13:36:28Z</time>
      </trkpt>
      <trkpt lat="48.27597" lon="-3.56439">
        <ele>230</ele>
        <time>2021-07-08T13:36:29Z</time>
      </trkpt>
      <trkpt lat="48.27594" lon="-3.5644">
        <ele>230</ele>
        <time>2021-07-08T13:36:30Z</time>
      </trkpt>
      <trkpt lat="48.2759" lon="-3.56441">
        <ele>230</ele>
        <time>2021-07-08T13:36:31Z</time>
      </trkpt>
      <trkpt lat="48.27586" lon="-3.56442">
        <ele>230</ele>
        <time>2021-07-08T13:36:32Z</time>
      </trkpt>
      <trkpt lat="48.27582" lon="-3.56443">
        <ele>230</ele>
        <time>2021-07-08T13:36:33Z</time>
      </trkpt>
      <trkpt lat="48.27579" lon="-3.56444">
        <ele>230</ele>
        <time>2021-07-08T13:36:34Z</time>
      </trkpt>
      <trkpt lat="48.27575" lon="-3.56445">
        <ele>230</ele>
        <time>2021-07-08T13:36:35Z</time>
      </trkpt>
      <trkpt lat="48.27571" lon="-3.56445">
        <ele>230</ele>
        <time>2021-07-08T13:36:37Z</time>
      </trkpt>
      <trkpt lat="48.27567" lon="-3.56445">
        <ele>230</ele>
        <time>2021-07-08T13:36:37Z</time>
      </trkpt>
      <trkpt lat="48.27563" lon="-3.56446">
        <ele>230</ele>
        <time>2021-07-08T13:36:38Z</time>
      </trkpt>
      <trkpt lat="48.27559" lon="-3.56446">
        <ele>230</ele>
        <time>2021-07-08T13:36:39Z</time>
      </trkpt>
      <trkpt lat="48.27555" lon="-3.56447">
        <ele>230</ele>
        <time>2021-07-08T13:36:40Z</time>
      </trkpt>
      <trkpt lat="48.27551" lon="-3.56447">
        <ele>230</ele>
        <time>2021-07-08T13:36:41Z</time>
      </trkpt>
      <trkpt lat="48.27547" lon="-3.56448">
        <ele>230</ele>
        <time>2021-07-08T13:36:42Z</time>
      </trkpt>
      <trkpt lat="48.27543" lon="-3.56449">
        <ele>230</ele>
        <time>2021-07-08T13:36:43Z</time>
      </trkpt>
      <trkpt lat="48.2754" lon="-3.56449">
        <ele>230</ele>
        <time>2021-07-08T13:36:44Z</time>
      </trkpt>
      <trkpt lat="48.27536" lon="-3.56449">
        <ele>230</ele>
        <time>2021-07-08T13:36:45Z</time>
      </trkpt>
      <trkpt lat="48.27533" lon="-3.56449">
        <ele>230</ele>
        <time>2021-07-08T13:36:46Z</time>
      </trkpt>
      <trkpt lat="48.2753" lon="-3.56449">
        <ele>230</ele>
        <time>2021-07-08T13:36:47Z</time>
      </trkpt>
      <trkpt lat="48.27527" lon="-3.56449">
        <ele>230</ele>
        <time>2021-07-08T13:36:49Z</time>
      </trkpt>
      <trkpt lat="48.27524" lon="-3.5645">
        <ele>230</ele>
        <time>2021-07-08T13:36:49Z</time>
      </trkpt>
      <trkpt lat="48.27521" lon="-3.5645">
        <ele>230</ele>
        <time>2021-07-08T13:36:50Z</time>
      </trkpt>
      <trkpt lat="48.27518" lon="-3.56451">
        <ele>230</ele>
        <time>2021-07-08T13:36:51Z</time>
      </trkpt>
      <trkpt lat="48.27516" lon="-3.56452">
        <ele>230</ele>
        <time>2021-07-08T13:36:52Z</time>
      </trkpt>
      <trkpt lat="48.27513" lon="-3.56453">
        <ele>230</ele>
        <time>2021-07-08T13:36:53Z</time>
      </trkpt>
      <trkpt lat="48.2751" lon="-3.56455">
        <ele>231</ele>
        <time>2021-07-08T13:36:54Z</time>
      </trkpt>
      <trkpt lat="48.27507" lon="-3.56456">
        <ele>231</ele>
        <time>2021-07-08T13:36:55Z</time>
      </trkpt>
      <trkpt lat="48.27504" lon="-3.56457">
        <ele>231</ele>
        <time>2021-07-08T13:36:56Z</time>
      </trkpt>
      <trkpt lat="48.27502" lon="-3.56459">
        <ele>231</ele>
        <time>2021-07-08T13:36:57Z</time>
      </trkpt>
      <trkpt lat="48.27499" lon="-3.56462">
        <ele>231</ele>
        <time>2021-07-08T13:36:58Z</time>
      </trkpt>
      <trkpt lat="48.27497" lon="-3.56464">
        <ele>231</ele>
        <time>2021-07-08T13:36:59Z</time>
      </trkpt>
      <trkpt lat="48.27495" lon="-3.56468">
        <ele>231</ele>
        <time>2021-07-08T13:37:00Z</time>
      </trkpt>
      <trkpt lat="48.27493" lon="-3.56472">
        <ele>231</ele>
        <time>2021-07-08T13:37:01Z</time>
      </trkpt>
      <trkpt lat="48.27491" lon="-3.56475">
        <ele>231</ele>
        <time>2021-07-08T13:37:02Z</time>
      </trkpt>
      <trkpt lat="48.2749" lon="-3.56479">
        <ele>231</ele>
        <time>2021-07-08T13:37:03Z</time>
      </trkpt>
      <trkpt lat="48.27488" lon="-3.56483">
        <ele>231</ele>
        <time>2021-07-08T13:37:04Z</time>
      </trkpt>
      <trkpt lat="48.27485" lon="-3.56492">
        <ele>231</ele>
        <time>2021-07-08T13:37:05Z</time>
      </trkpt>
      <trkpt lat="48.27483" lon="-3.56497">
        <ele>229</ele>
        <time>2021-07-08T13:37:07Z</time>
      </trkpt>
      <trkpt lat="48.27481" lon="-3.56501">
        <ele>229</ele>
        <time>2021-07-08T13:37:08Z</time>
      </trkpt>
      <trkpt lat="48.27479" lon="-3.56506">
        <ele>228</ele>
        <time>2021-07-08T13:37:09Z</time>
      </trkpt>
      <trkpt lat="48.27477" lon="-3.56512">
        <ele>228</ele>
        <time>2021-07-08T13:37:10Z</time>
      </trkpt>
      <trkpt lat="48.27476" lon="-3.56517">
        <ele>228</ele>
        <time>2021-07-08T13:37:11Z</time>
      </trkpt>
      <trkpt lat="48.27475" lon="-3.56524">
        <ele>228</ele>
        <time>2021-07-08T13:37:12Z</time>
      </trkpt>
      <trkpt lat="48.27475" lon="-3.5653">
        <ele>228</ele>
        <time>2021-07-08T13:37:13Z</time>
      </trkpt>
      <trkpt lat="48.27475" lon="-3.56537">
        <ele>228</ele>
        <time>2021-07-08T13:37:14Z</time>
      </trkpt>
      <trkpt lat="48.27475" lon="-3.56544">
        <ele>228</ele>
        <time>2021-07-08T13:37:15Z</time>
      </trkpt>
      <trkpt lat="48.27475" lon="-3.5655">
        <ele>227</ele>
        <time>2021-07-08T13:37:16Z</time>
      </trkpt>
      <trkpt lat="48.27475" lon="-3.56557">
        <ele>227</ele>
        <time>2021-07-08T13:37:17Z</time>
      </trkpt>
      <trkpt lat="48.27475" lon="-3.56563">
        <ele>227</ele>
        <time>2021-07-08T13:37:18Z</time>
      </trkpt>
      <trkpt lat="48.27474" lon="-3.56568">
        <ele>227</ele>
        <time>2021-07-08T13:37:19Z</time>
      </trkpt>
      <trkpt lat="48.27474" lon="-3.56573">
        <ele>227</ele>
        <time>2021-07-08T13:37:20Z</time>
      </trkpt>
      <trkpt lat="48.27473" lon="-3.56576">
        <ele>227</ele>
        <time>2021-07-08T13:37:21Z</time>
      </trkpt>
      <trkpt lat="48.27472" lon="-3.56582">
        <ele>227</ele>
        <time>2021-07-08T13:37:22Z</time>
      </trkpt>
      <trkpt lat="48.27469" lon="-3.56585">
        <ele>228</ele>
        <time>2021-07-08T13:37:25Z</time>
      </trkpt>
      <trkpt lat="48.27467" lon="-3.56585">
        <ele>228</ele>
        <time>2021-07-08T13:37:26Z</time>
      </trkpt>
      <trkpt lat="48.27465" lon="-3.56585">
        <ele>228</ele>
        <time>2021-07-08T13:37:27Z</time>
      </trkpt>
      <trkpt lat="48.27462" lon="-3.56584">
        <ele>228</ele>
        <time>2021-07-08T13:37:28Z</time>
      </trkpt>
      <trkpt lat="48.27458" lon="-3.56584">
        <ele>227</ele>
        <time>2021-07-08T13:37:29Z</time>
      </trkpt>
      <trkpt lat="48.27454" lon="-3.56583">
        <ele>227</ele>
        <time>2021-07-08T13:37:30Z</time>
      </trkpt>
      <trkpt lat="48.27449" lon="-3.56583">
        <ele>227</ele>
        <time>2021-07-08T13:37:31Z</time>
      </trkpt>
      <trkpt lat="48.27444" lon="-3.56583">
        <ele>226</ele>
        <time>2021-07-08T13:37:32Z</time>
      </trkpt>
      <trkpt lat="48.27439" lon="-3.56582">
        <ele>226</ele>
        <time>2021-07-08T13:37:33Z</time>
      </trkpt>
      <trkpt lat="48.27434" lon="-3.56582">
        <ele>226</ele>
        <time>2021-07-08T13:37:34Z</time>
      </trkpt>
      <trkpt lat="48.27428" lon="-3.56581">
        <ele>226</ele>
        <time>2021-07-08T13:37:35Z</time>
      </trkpt>
      <trkpt lat="48.27423" lon="-3.56581">
        <ele>225</ele>
        <time>2021-07-08T13:37:36Z</time>
      </trkpt>
      <trkpt lat="48.27418" lon="-3.5658">
        <ele>225</ele>
        <time>2021-07-08T13:37:37Z</time>
      </trkpt>
      <trkpt lat="48.27412" lon="-3.56579">
        <ele>225</ele>
        <time>2021-07-08T13:37:38Z</time>
      </trkpt>
      <trkpt lat="48.27407" lon="-3.56577">
        <ele>224</ele>
        <time>2021-07-08T13:37:39Z</time>
      </trkpt>
      <trkpt lat="48.27402" lon="-3.56576">
        <ele>224</ele>
        <time>2021-07-08T13:37:40Z</time>
      </trkpt>
      <trkpt lat="48.27391" lon="-3.56573">
        <ele>224</ele>
        <time>2021-07-08T13:37:41Z</time>
      </trkpt>
      <trkpt lat="48.27385" lon="-3.56572">
        <ele>224</ele>
        <time>2021-07-08T13:37:43Z</time>
      </trkpt>
      <trkpt lat="48.2738" lon="-3.5657">
        <ele>224</ele>
        <time>2021-07-08T13:37:44Z</time>
      </trkpt>
      <trkpt lat="48.27375" lon="-3.56568">
        <ele>223</ele>
        <time>2021-07-08T13:37:45Z</time>
      </trkpt>
      <trkpt lat="48.2737" lon="-3.56566">
        <ele>223</ele>
        <time>2021-07-08T13:37:46Z</time>
      </trkpt>
      <trkpt lat="48.27365" lon="-3.56563">
        <ele>222</ele>
        <time>2021-07-08T13:37:47Z</time>
      </trkpt>
      <trkpt lat="48.27361" lon="-3.5656">
        <ele>222</ele>
        <time>2021-07-08T13:37:48Z</time>
      </trkpt>
      <trkpt lat="48.27356" lon="-3.56558">
        <ele>222</ele>
        <time>2021-07-08T13:37:49Z</time>
      </trkpt>
      <trkpt lat="48.27351" lon="-3.56555">
        <ele>222</ele>
        <time>2021-07-08T13:37:50Z</time>
      </trkpt>
      <trkpt lat="48.27346" lon="-3.56553">
        <ele>222</ele>
        <time>2021-07-08T13:37:51Z</time>
      </trkpt>
      <trkpt lat="48.27341" lon="-3.5655">
        <ele>221</ele>
        <time>2021-07-08T13:37:52Z</time>
      </trkpt>
      <trkpt lat="48.27337" lon="-3.56547">
        <ele>221</ele>
        <time>2021-07-08T13:37:53Z</time>
      </trkpt>
      <trkpt lat="48.27332" lon="-3.56545">
        <ele>220</ele>
        <time>2021-07-08T13:37:54Z</time>
      </trkpt>
      <trkpt lat="48.27328" lon="-3.56543">
        <ele>220</ele>
        <time>2021-07-08T13:37:55Z</time>
      </trkpt>
      <trkpt lat="48.27325" lon="-3.5654">
        <ele>220</ele>
        <time>2021-07-08T13:37:56Z</time>
      </trkpt>
      <trkpt lat="48.27322" lon="-3.56538">
        <ele>220</ele>
        <time>2021-07-08T13:37:57Z</time>
      </trkpt>
      <trkpt lat="48.2732" lon="-3.56537">
        <ele>220</ele>
        <time>2021-07-08T13:37:58Z</time>
      </trkpt>
      <trkpt lat="48.27318" lon="-3.56535">
        <ele>220</ele>
        <time>2021-07-08T13:37:59Z</time>
      </trkpt>
      <trkpt lat="48.27314" lon="-3.56532">
        <ele>220</ele>
        <time>2021-07-08T13:38:00Z</time>
      </trkpt>
      <trkpt lat="48.27312" lon="-3.5653">
        <ele>220</ele>
        <time>2021-07-08T13:38:02Z</time>
      </trkpt>
      <trkpt lat="48.27311" lon="-3.56526">
        <ele>220</ele>
        <time>2021-07-08T13:38:04Z</time>
      </trkpt>
      <trkpt lat="48.27316" lon="-3.56521">
        <ele>219</ele>
        <time>2021-07-08T13:38:06Z</time>
      </trkpt>
      <trkpt lat="48.27319" lon="-3.56515">
        <ele>219</ele>
        <time>2021-07-08T13:38:07Z</time>
      </trkpt>
      <trkpt lat="48.2732" lon="-3.56512">
        <ele>219</ele>
        <time>2021-07-08T13:38:08Z</time>
      </trkpt>
      <trkpt lat="48.2732" lon="-3.56509">
        <ele>219</ele>
        <time>2021-07-08T13:38:09Z</time>
      </trkpt>
      <trkpt lat="48.27318" lon="-3.56505">
        <ele>220</ele>
        <time>2021-07-08T13:38:12Z</time>
      </trkpt>
      <trkpt lat="48.27317" lon="-3.56503">
        <ele>220</ele>
        <time>2021-07-08T13:38:12Z</time>
      </trkpt>
      <trkpt lat="48.27315" lon="-3.565">
        <ele>220</ele>
        <time>2021-07-08T13:38:14Z</time>
      </trkpt>
      <trkpt lat="48.2731" lon="-3.56525">
        <ele>219</ele>
        <time>2021-07-08T13:38:14Z</time>
      </trkpt>
      <trkpt lat="48.27314" lon="-3.56497">
        <ele>220</ele>
        <time>2021-07-08T13:38:15Z</time>
      </trkpt>
      <trkpt lat="48.27313" lon="-3.56495">
        <ele>220</ele>
        <time>2021-07-08T13:38:15Z</time>
      </trkpt>
      <trkpt lat="48.27312" lon="-3.56493">
        <ele>220</ele>
        <time>2021-07-08T13:38:16Z</time>
      </trkpt>
      <trkpt lat="48.27311" lon="-3.5649">
        <ele>221</ele>
        <time>2021-07-08T13:38:19Z</time>
      </trkpt>
      <trkpt lat="48.27309" lon="-3.56487">
        <ele>221</ele>
        <time>2021-07-08T13:38:20Z</time>
      </trkpt>
      <trkpt lat="48.27307" lon="-3.56485">
        <ele>221</ele>
        <time>2021-07-08T13:38:22Z</time>
      </trkpt>
      <trkpt lat="48.27306" lon="-3.56483">
        <ele>221</ele>
        <time>2021-07-08T13:38:23Z</time>
      </trkpt>
      <trkpt lat="48.27305" lon="-3.56478">
        <ele>220</ele>
        <time>2021-07-08T13:38:25Z</time>
      </trkpt>
      <trkpt lat="48.27305" lon="-3.56473">
        <ele>220</ele>
        <time>2021-07-08T13:38:26Z</time>
      </trkpt>
      <trkpt lat="48.27306" lon="-3.5647">
        <ele>220</ele>
        <time>2021-07-08T13:38:27Z</time>
      </trkpt>
      <trkpt lat="48.27307" lon="-3.56467">
        <ele>220</ele>
        <time>2021-07-08T13:38:29Z</time>
      </trkpt>
      <trkpt lat="48.27308" lon="-3.56464">
        <ele>220</ele>
        <time>2021-07-08T13:38:29Z</time>
      </trkpt>
      <trkpt lat="48.27309" lon="-3.5646">
        <ele>220</ele>
        <time>2021-07-08T13:38:30Z</time>
      </trkpt>
      <trkpt lat="48.2731" lon="-3.56456">
        <ele>220</ele>
        <time>2021-07-08T13:38:32Z</time>
      </trkpt>
      <trkpt lat="48.27311" lon="-3.56452">
        <ele>221</ele>
        <time>2021-07-08T13:38:33Z</time>
      </trkpt>
      <trkpt lat="48.27312" lon="-3.56448">
        <ele>221</ele>
        <time>2021-07-08T13:38:33Z</time>
      </trkpt>
      <trkpt lat="48.27313" lon="-3.56444">
        <ele>221</ele>
        <time>2021-07-08T13:38:34Z</time>
      </trkpt>
      <trkpt lat="48.27314" lon="-3.5644">
        <ele>221</ele>
        <time>2021-07-08T13:38:35Z</time>
      </trkpt>
      <trkpt lat="48.27315" lon="-3.56436">
        <ele>221</ele>
        <time>2021-07-08T13:38:37Z</time>
      </trkpt>
      <trkpt lat="48.27316" lon="-3.56432">
        <ele>222</ele>
        <time>2021-07-08T13:38:38Z</time>
      </trkpt>
      <trkpt lat="48.27317" lon="-3.56429">
        <ele>222</ele>
        <time>2021-07-08T13:38:39Z</time>
      </trkpt>
      <trkpt lat="48.27318" lon="-3.56425">
        <ele>223</ele>
        <time>2021-07-08T13:38:39Z</time>
      </trkpt>
      <trkpt lat="48.27319" lon="-3.56421">
        <ele>223</ele>
        <time>2021-07-08T13:38:41Z</time>
      </trkpt>
      <trkpt lat="48.2732" lon="-3.56418">
        <ele>223</ele>
        <time>2021-07-08T13:38:42Z</time>
      </trkpt>
      <trkpt lat="48.27321" lon="-3.56414">
        <ele>223</ele>
        <time>2021-07-08T13:38:43Z</time>
      </trkpt>
      <trkpt lat="48.27322" lon="-3.5641">
        <ele>223</ele>
        <time>2021-07-08T13:38:43Z</time>
      </trkpt>
      <trkpt lat="48.27322" lon="-3.56406">
        <ele>223</ele>
        <time>2021-07-08T13:38:45Z</time>
      </trkpt>
      <trkpt lat="48.27323" lon="-3.56403">
        <ele>223</ele>
        <time>2021-07-08T13:38:45Z</time>
      </trkpt>
      <trkpt lat="48.27324" lon="-3.56399">
        <ele>223</ele>
        <time>2021-07-08T13:38:46Z</time>
      </trkpt>
      <trkpt lat="48.27325" lon="-3.56395">
        <ele>224</ele>
        <time>2021-07-08T13:38:48Z</time>
      </trkpt>
      <trkpt lat="48.27325" lon="-3.56391">
        <ele>224</ele>
        <time>2021-07-08T13:38:49Z</time>
      </trkpt>
      <trkpt lat="48.27326" lon="-3.56387">
        <ele>224</ele>
        <time>2021-07-08T13:38:50Z</time>
      </trkpt>
      <trkpt lat="48.27328" lon="-3.56379">
        <ele>224</ele>
        <time>2021-07-08T13:38:51Z</time>
      </trkpt>
      <trkpt lat="48.27329" lon="-3.56375">
        <ele>224</ele>
        <time>2021-07-08T13:38:52Z</time>
      </trkpt>
      <trkpt lat="48.2733" lon="-3.56371">
        <ele>224</ele>
        <time>2021-07-08T13:38:54Z</time>
      </trkpt>
      <trkpt lat="48.27331" lon="-3.56367">
        <ele>224</ele>
        <time>2021-07-08T13:38:55Z</time>
      </trkpt>
      <trkpt lat="48.27332" lon="-3.56363">
        <ele>224</ele>
        <time>2021-07-08T13:38:56Z</time>
      </trkpt>
      <trkpt lat="48.27333" lon="-3.5636">
        <ele>224</ele>
        <time>2021-07-08T13:38:57Z</time>
      </trkpt>
      <trkpt lat="48.27334" lon="-3.56356">
        <ele>224</ele>
        <time>2021-07-08T13:38:57Z</time>
      </trkpt>
      <trkpt lat="48.27334" lon="-3.56352">
        <ele>225</ele>
        <time>2021-07-08T13:38:58Z</time>
      </trkpt>
      <trkpt lat="48.27335" lon="-3.56348">
        <ele>225</ele>
        <time>2021-07-08T13:38:59Z</time>
      </trkpt>
      <trkpt lat="48.27336" lon="-3.56344">
        <ele>226</ele>
        <time>2021-07-08T13:39:00Z</time>
      </trkpt>
      <trkpt lat="48.27337" lon="-3.56341">
        <ele>226</ele>
        <time>2021-07-08T13:39:01Z</time>
      </trkpt>
      <trkpt lat="48.27338" lon="-3.56337">
        <ele>226</ele>
        <time>2021-07-08T13:39:02Z</time>
      </trkpt>
      <trkpt lat="48.27339" lon="-3.56333">
        <ele>226</ele>
        <time>2021-07-08T13:39:04Z</time>
      </trkpt>
      <trkpt lat="48.2734" lon="-3.5633">
        <ele>226</ele>
        <time>2021-07-08T13:39:04Z</time>
      </trkpt>
      <trkpt lat="48.2734" lon="-3.56326">
        <ele>226</ele>
        <time>2021-07-08T13:39:05Z</time>
      </trkpt>
      <trkpt lat="48.27341" lon="-3.56322">
        <ele>226</ele>
        <time>2021-07-08T13:39:06Z</time>
      </trkpt>
      <trkpt lat="48.27342" lon="-3.56319">
        <ele>226</ele>
        <time>2021-07-08T13:39:07Z</time>
      </trkpt>
      <trkpt lat="48.27343" lon="-3.56315">
        <ele>226</ele>
        <time>2021-07-08T13:39:09Z</time>
      </trkpt>
      <trkpt lat="48.27343" lon="-3.56311">
        <ele>226</ele>
        <time>2021-07-08T13:39:10Z</time>
      </trkpt>
      <trkpt lat="48.27344" lon="-3.56306">
        <ele>226</ele>
        <time>2021-07-08T13:39:11Z</time>
      </trkpt>
      <trkpt lat="48.27345" lon="-3.56302">
        <ele>226</ele>
        <time>2021-07-08T13:39:12Z</time>
      </trkpt>
      <trkpt lat="48.27346" lon="-3.56298">
        <ele>227</ele>
        <time>2021-07-08T13:39:13Z</time>
      </trkpt>
      <trkpt lat="48.27347" lon="-3.56294">
        <ele>227</ele>
        <time>2021-07-08T13:39:13Z</time>
      </trkpt>
      <trkpt lat="48.27348" lon="-3.56291">
        <ele>227</ele>
        <time>2021-07-08T13:39:14Z</time>
      </trkpt>
      <trkpt lat="48.27348" lon="-3.56287">
        <ele>227</ele>
        <time>2021-07-08T13:39:16Z</time>
      </trkpt>
      <trkpt lat="48.27349" lon="-3.56283">
        <ele>227</ele>
        <time>2021-07-08T13:39:16Z</time>
      </trkpt>
      <trkpt lat="48.2735" lon="-3.56279">
        <ele>227</ele>
        <time>2021-07-08T13:39:17Z</time>
      </trkpt>
      <trkpt lat="48.27351" lon="-3.56276">
        <ele>227</ele>
        <time>2021-07-08T13:39:18Z</time>
      </trkpt>
      <trkpt lat="48.27352" lon="-3.56272">
        <ele>227</ele>
        <time>2021-07-08T13:39:19Z</time>
      </trkpt>
      <trkpt lat="48.27352" lon="-3.56268">
        <ele>227</ele>
        <time>2021-07-08T13:39:20Z</time>
      </trkpt>
      <trkpt lat="48.27353" lon="-3.56265">
        <ele>228</ele>
        <time>2021-07-08T13:39:22Z</time>
      </trkpt>
      <trkpt lat="48.27354" lon="-3.56261">
        <ele>228</ele>
        <time>2021-07-08T13:39:23Z</time>
      </trkpt>
      <trkpt lat="48.27355" lon="-3.56257">
        <ele>228</ele>
        <time>2021-07-08T13:39:24Z</time>
      </trkpt>
      <trkpt lat="48.27355" lon="-3.56254">
        <ele>229</ele>
        <time>2021-07-08T13:39:24Z</time>
      </trkpt>
      <trkpt lat="48.27356" lon="-3.5625">
        <ele>229</ele>
        <time>2021-07-08T13:39:26Z</time>
      </trkpt>
      <trkpt lat="48.27355" lon="-3.56246">
        <ele>229</ele>
        <time>2021-07-08T13:39:26Z</time>
      </trkpt>
      <trkpt lat="48.27355" lon="-3.56243">
        <ele>229</ele>
        <time>2021-07-08T13:39:27Z</time>
      </trkpt>
      <trkpt lat="48.27353" lon="-3.5624">
        <ele>229</ele>
        <time>2021-07-08T13:39:29Z</time>
      </trkpt>
      <trkpt lat="48.27351" lon="-3.56237">
        <ele>230</ele>
        <time>2021-07-08T13:39:30Z</time>
      </trkpt>
      <trkpt lat="48.2735" lon="-3.56234">
        <ele>230</ele>
        <time>2021-07-08T13:39:31Z</time>
      </trkpt>
      <trkpt lat="48.2735" lon="-3.56231">
        <ele>230</ele>
        <time>2021-07-08T13:39:31Z</time>
      </trkpt>
      <trkpt lat="48.27351" lon="-3.56228">
        <ele>230</ele>
        <time>2021-07-08T13:39:32Z</time>
      </trkpt>
      <trkpt lat="48.27351" lon="-3.56224">
        <ele>230</ele>
        <time>2021-07-08T13:39:34Z</time>
      </trkpt>
      <trkpt lat="48.27352" lon="-3.56221">
        <ele>230</ele>
        <time>2021-07-08T13:39:35Z</time>
      </trkpt>
      <trkpt lat="48.27352" lon="-3.56217">
        <ele>230</ele>
        <time>2021-07-08T13:39:36Z</time>
      </trkpt>
      <trkpt lat="48.2735" lon="-3.56215">
        <ele>230</ele>
        <time>2021-07-08T13:39:37Z</time>
      </trkpt>
      <trkpt lat="48.27348" lon="-3.56213">
        <ele>230</ele>
        <time>2021-07-08T13:39:37Z</time>
      </trkpt>
      <trkpt lat="48.27346" lon="-3.56211">
        <ele>230</ele>
        <time>2021-07-08T13:39:39Z</time>
      </trkpt>
      <trkpt lat="48.27343" lon="-3.56209">
        <ele>230</ele>
        <time>2021-07-08T13:39:40Z</time>
      </trkpt>
      <trkpt lat="48.27341" lon="-3.56207">
        <ele>230</ele>
        <time>2021-07-08T13:39:41Z</time>
      </trkpt>
      <trkpt lat="48.27338" lon="-3.56205">
        <ele>230</ele>
        <time>2021-07-08T13:39:42Z</time>
      </trkpt>
      <trkpt lat="48.27336" lon="-3.56202">
        <ele>230</ele>
        <time>2021-07-08T13:39:43Z</time>
      </trkpt>
      <trkpt lat="48.2733" lon="-3.56197">
        <ele>230</ele>
        <time>2021-07-08T13:39:44Z</time>
      </trkpt>
      <trkpt lat="48.27328" lon="-3.56193">
        <ele>230</ele>
        <time>2021-07-08T13:39:46Z</time>
      </trkpt>
      <trkpt lat="48.27325" lon="-3.5619">
        <ele>229</ele>
        <time>2021-07-08T13:39:47Z</time>
      </trkpt>
      <trkpt lat="48.27323" lon="-3.56187">
        <ele>229</ele>
        <time>2021-07-08T13:39:48Z</time>
      </trkpt>
      <trkpt lat="48.2732" lon="-3.56184">
        <ele>229</ele>
        <time>2021-07-08T13:39:49Z</time>
      </trkpt>
      <trkpt lat="48.27317" lon="-3.56181">
        <ele>229</ele>
        <time>2021-07-08T13:39:50Z</time>
      </trkpt>
      <trkpt lat="48.27315" lon="-3.56178">
        <ele>229</ele>
        <time>2021-07-08T13:39:51Z</time>
      </trkpt>
      <trkpt lat="48.27312" lon="-3.56176">
        <ele>229</ele>
        <time>2021-07-08T13:39:52Z</time>
      </trkpt>
      <trkpt lat="48.27309" lon="-3.56174">
        <ele>229</ele>
        <time>2021-07-08T13:39:53Z</time>
      </trkpt>
      <trkpt lat="48.27306" lon="-3.56172">
        <ele>229</ele>
        <time>2021-07-08T13:39:53Z</time>
      </trkpt>
      <trkpt lat="48.27302" lon="-3.56171">
        <ele>229</ele>
        <time>2021-07-08T13:39:54Z</time>
      </trkpt>
      <trkpt lat="48.27299" lon="-3.56169">
        <ele>229</ele>
        <time>2021-07-08T13:39:56Z</time>
      </trkpt>
      <trkpt lat="48.27295" lon="-3.56168">
        <ele>229</ele>
        <time>2021-07-08T13:39:57Z</time>
      </trkpt>
      <trkpt lat="48.27291" lon="-3.56167">
        <ele>229</ele>
        <time>2021-07-08T13:39:57Z</time>
      </trkpt>
      <trkpt lat="48.27287" lon="-3.56166">
        <ele>229</ele>
        <time>2021-07-08T13:39:58Z</time>
      </trkpt>
      <trkpt lat="48.27283" lon="-3.56166">
        <ele>229</ele>
        <time>2021-07-08T13:39:59Z</time>
      </trkpt>
      <trkpt lat="48.27276" lon="-3.56167">
        <ele>229</ele>
        <time>2021-07-08T13:40:01Z</time>
      </trkpt>
      <trkpt lat="48.27273" lon="-3.56168">
        <ele>229</ele>
        <time>2021-07-08T13:40:03Z</time>
      </trkpt>
      <trkpt lat="48.2727" lon="-3.56169">
        <ele>229</ele>
        <time>2021-07-08T13:40:04Z</time>
      </trkpt>
      <trkpt lat="48.27266" lon="-3.5617">
        <ele>229</ele>
        <time>2021-07-08T13:40:05Z</time>
      </trkpt>
      <trkpt lat="48.27261" lon="-3.56171">
        <ele>227</ele>
        <time>2021-07-08T13:40:05Z</time>
      </trkpt>
      <trkpt lat="48.27257" lon="-3.56171">
        <ele>226</ele>
        <time>2021-07-08T13:40:07Z</time>
      </trkpt>
      <trkpt lat="48.27252" lon="-3.5617">
        <ele>226</ele>
        <time>2021-07-08T13:40:07Z</time>
      </trkpt>
      <trkpt lat="48.27248" lon="-3.5617">
        <ele>226</ele>
        <time>2021-07-08T13:40:09Z</time>
      </trkpt>
      <trkpt lat="48.27243" lon="-3.56171">
        <ele>226</ele>
        <time>2021-07-08T13:40:10Z</time>
      </trkpt>
      <trkpt lat="48.27239" lon="-3.56171">
        <ele>226</ele>
        <time>2021-07-08T13:40:11Z</time>
      </trkpt>
      <trkpt lat="48.27235" lon="-3.56171">
        <ele>226</ele>
        <time>2021-07-08T13:40:12Z</time>
      </trkpt>
      <trkpt lat="48.27231" lon="-3.56171">
        <ele>226</ele>
        <time>2021-07-08T13:40:13Z</time>
      </trkpt>
      <trkpt lat="48.27227" lon="-3.56171">
        <ele>226</ele>
        <time>2021-07-08T13:40:13Z</time>
      </trkpt>
      <trkpt lat="48.27223" lon="-3.56172">
        <ele>226</ele>
        <time>2021-07-08T13:40:14Z</time>
      </trkpt>
      <trkpt lat="48.27219" lon="-3.56171">
        <ele>226</ele>
        <time>2021-07-08T13:40:15Z</time>
      </trkpt>
      <trkpt lat="48.27214" lon="-3.56172">
        <ele>226</ele>
        <time>2021-07-08T13:40:16Z</time>
      </trkpt>
      <trkpt lat="48.27209" lon="-3.56172">
        <ele>226</ele>
        <time>2021-07-08T13:40:18Z</time>
      </trkpt>
      <trkpt lat="48.27205" lon="-3.56173">
        <ele>226</ele>
        <time>2021-07-08T13:40:18Z</time>
      </trkpt>
      <trkpt lat="48.27201" lon="-3.56173">
        <ele>226</ele>
        <time>2021-07-08T13:40:20Z</time>
      </trkpt>
      <trkpt lat="48.27188" lon="-3.56175">
        <ele>225</ele>
        <time>2021-07-08T13:41:28Z</time>
      </trkpt>
      <trkpt lat="48.27178" lon="-3.56178">
        <ele>225</ele>
        <time>2021-07-08T13:41:30Z</time>
      </trkpt>
      <trkpt lat="48.27167" lon="-3.56182">
        <ele>225</ele>
        <time>2021-07-08T13:41:32Z</time>
      </trkpt>
      <trkpt lat="48.27162" lon="-3.56184">
        <ele>225</ele>
        <time>2021-07-08T13:41:33Z</time>
      </trkpt>
      <trkpt lat="48.27157" lon="-3.56186">
        <ele>224</ele>
        <time>2021-07-08T13:41:34Z</time>
      </trkpt>
      <trkpt lat="48.27151" lon="-3.56188">
        <ele>224</ele>
        <time>2021-07-08T13:41:35Z</time>
      </trkpt>
      <trkpt lat="48.27146" lon="-3.5619">
        <ele>224</ele>
        <time>2021-07-08T13:41:36Z</time>
      </trkpt>
      <trkpt lat="48.27141" lon="-3.56193">
        <ele>224</ele>
        <time>2021-07-08T13:41:37Z</time>
      </trkpt>
      <trkpt lat="48.27136" lon="-3.56196">
        <ele>224</ele>
        <time>2021-07-08T13:41:38Z</time>
      </trkpt>
      <trkpt lat="48.27131" lon="-3.56198">
        <ele>224</ele>
        <time>2021-07-08T13:41:39Z</time>
      </trkpt>
      <trkpt lat="48.27126" lon="-3.56201">
        <ele>224</ele>
        <time>2021-07-08T13:41:40Z</time>
      </trkpt>
      <trkpt lat="48.27122" lon="-3.56204">
        <ele>224</ele>
        <time>2021-07-08T13:41:41Z</time>
      </trkpt>
      <trkpt lat="48.27117" lon="-3.56207">
        <ele>224</ele>
        <time>2021-07-08T13:41:42Z</time>
      </trkpt>
      <trkpt lat="48.27112" lon="-3.5621">
        <ele>224</ele>
        <time>2021-07-08T13:41:44Z</time>
      </trkpt>
      <trkpt lat="48.27103" lon="-3.56216">
        <ele>224</ele>
        <time>2021-07-08T13:41:44Z</time>
      </trkpt>
      <trkpt lat="48.27099" lon="-3.56219">
        <ele>224</ele>
        <time>2021-07-08T13:41:46Z</time>
      </trkpt>
      <trkpt lat="48.27095" lon="-3.56221">
        <ele>224</ele>
        <time>2021-07-08T13:41:47Z</time>
      </trkpt>
      <trkpt lat="48.27091" lon="-3.56224">
        <ele>224</ele>
        <time>2021-07-08T13:41:48Z</time>
      </trkpt>
      <trkpt lat="48.27086" lon="-3.56226">
        <ele>224</ele>
        <time>2021-07-08T13:41:49Z</time>
      </trkpt>
      <trkpt lat="48.27082" lon="-3.56229">
        <ele>224</ele>
        <time>2021-07-08T13:41:50Z</time>
      </trkpt>
      <trkpt lat="48.27078" lon="-3.56231">
        <ele>224</ele>
        <time>2021-07-08T13:41:51Z</time>
      </trkpt>
      <trkpt lat="48.27074" lon="-3.56234">
        <ele>224</ele>
        <time>2021-07-08T13:41:52Z</time>
      </trkpt>
      <trkpt lat="48.2707" lon="-3.56236">
        <ele>224</ele>
        <time>2021-07-08T13:41:53Z</time>
      </trkpt>
      <trkpt lat="48.27066" lon="-3.56238">
        <ele>224</ele>
        <time>2021-07-08T13:41:54Z</time>
      </trkpt>
      <trkpt lat="48.27062" lon="-3.56241">
        <ele>224</ele>
        <time>2021-07-08T13:41:55Z</time>
      </trkpt>
      <trkpt lat="48.27059" lon="-3.56243">
        <ele>224</ele>
        <time>2021-07-08T13:41:56Z</time>
      </trkpt>
      <trkpt lat="48.27056" lon="-3.56244">
        <ele>224</ele>
        <time>2021-07-08T13:41:57Z</time>
      </trkpt>
      <trkpt lat="48.27053" lon="-3.56245">
        <ele>224</ele>
        <time>2021-07-08T13:41:58Z</time>
      </trkpt>
      <trkpt lat="48.27051" lon="-3.56247">
        <ele>223</ele>
        <time>2021-07-08T13:41:59Z</time>
      </trkpt>
      <trkpt lat="48.27049" lon="-3.56248">
        <ele>223</ele>
        <time>2021-07-08T13:42:00Z</time>
      </trkpt>
      <trkpt lat="48.27047" lon="-3.56249">
        <ele>223</ele>
        <time>2021-07-08T13:42:02Z</time>
      </trkpt>
      <trkpt lat="48.27047" lon="-3.56248">
        <ele>223</ele>
        <time>2021-07-08T13:42:11Z</time>
      </trkpt>
      <trkpt lat="48.2704" lon="-3.56251">
        <ele>224</ele>
        <time>2021-07-08T13:42:28Z</time>
      </trkpt>
      <trkpt lat="48.27036" lon="-3.56255">
        <ele>224</ele>
        <time>2021-07-08T13:42:29Z</time>
      </trkpt>
      <trkpt lat="48.27034" lon="-3.56257">
        <ele>224</ele>
        <time>2021-07-08T13:42:30Z</time>
      </trkpt>
      <trkpt lat="48.27032" lon="-3.56259">
        <ele>224</ele>
        <time>2021-07-08T13:42:31Z</time>
      </trkpt>
      <trkpt lat="48.27029" lon="-3.56262">
        <ele>224</ele>
        <time>2021-07-08T13:42:32Z</time>
      </trkpt>
      <trkpt lat="48.27026" lon="-3.56264">
        <ele>224</ele>
        <time>2021-07-08T13:42:33Z</time>
      </trkpt>
      <trkpt lat="48.27023" lon="-3.56265">
        <ele>224</ele>
        <time>2021-07-08T13:42:34Z</time>
      </trkpt>
      <trkpt lat="48.2702" lon="-3.56266">
        <ele>224</ele>
        <time>2021-07-08T13:42:35Z</time>
      </trkpt>
      <trkpt lat="48.27017" lon="-3.56267">
        <ele>224</ele>
        <time>2021-07-08T13:42:37Z</time>
      </trkpt>
      <trkpt lat="48.27007" lon="-3.56274">
        <ele>224</ele>
        <time>2021-07-08T13:42:39Z</time>
      </trkpt>
      <trkpt lat="48.27004" lon="-3.56276">
        <ele>224</ele>
        <time>2021-07-08T13:42:40Z</time>
      </trkpt>
      <trkpt lat="48.27001" lon="-3.56277">
        <ele>224</ele>
        <time>2021-07-08T13:42:41Z</time>
      </trkpt>
      <trkpt lat="48.26998" lon="-3.56279">
        <ele>224</ele>
        <time>2021-07-08T13:42:42Z</time>
      </trkpt>
      <trkpt lat="48.26994" lon="-3.5628">
        <ele>224</ele>
        <time>2021-07-08T13:42:43Z</time>
      </trkpt>
      <trkpt lat="48.26986" lon="-3.56284">
        <ele>224</ele>
        <time>2021-07-08T13:42:45Z</time>
      </trkpt>
      <trkpt lat="48.26983" lon="-3.56286">
        <ele>224</ele>
        <time>2021-07-08T13:42:46Z</time>
      </trkpt>
      <trkpt lat="48.26975" lon="-3.5629">
        <ele>224</ele>
        <time>2021-07-08T13:42:48Z</time>
      </trkpt>
      <trkpt lat="48.26971" lon="-3.56292">
        <ele>224</ele>
        <time>2021-07-08T13:42:49Z</time>
      </trkpt>
      <trkpt lat="48.26967" lon="-3.56294">
        <ele>224</ele>
        <time>2021-07-08T13:42:50Z</time>
      </trkpt>
      <trkpt lat="48.26963" lon="-3.56297">
        <ele>224</ele>
        <time>2021-07-08T13:42:51Z</time>
      </trkpt>
      <trkpt lat="48.2696" lon="-3.56299">
        <ele>224</ele>
        <time>2021-07-08T13:42:52Z</time>
      </trkpt>
      <trkpt lat="48.26957" lon="-3.56301">
        <ele>224</ele>
        <time>2021-07-08T13:42:53Z</time>
      </trkpt>
      <trkpt lat="48.26954" lon="-3.56303">
        <ele>224</ele>
        <time>2021-07-08T13:42:54Z</time>
      </trkpt>
      <trkpt lat="48.26949" lon="-3.56306">
        <ele>224</ele>
        <time>2021-07-08T13:42:55Z</time>
      </trkpt>
      <trkpt lat="48.26946" lon="-3.56308">
        <ele>224</ele>
        <time>2021-07-08T13:42:56Z</time>
      </trkpt>
      <trkpt lat="48.26942" lon="-3.56311">
        <ele>224</ele>
        <time>2021-07-08T13:42:57Z</time>
      </trkpt>
      <trkpt lat="48.26939" lon="-3.56313">
        <ele>224</ele>
        <time>2021-07-08T13:42:58Z</time>
      </trkpt>
      <trkpt lat="48.26936" lon="-3.56315">
        <ele>224</ele>
        <time>2021-07-08T13:42:59Z</time>
      </trkpt>
      <trkpt lat="48.26932" lon="-3.56317">
        <ele>224</ele>
        <time>2021-07-08T13:43:00Z</time>
      </trkpt>
      <trkpt lat="48.26929" lon="-3.56318">
        <ele>224</ele>
        <time>2021-07-08T13:43:01Z</time>
      </trkpt>
      <trkpt lat="48.26925" lon="-3.5632">
        <ele>224</ele>
        <time>2021-07-08T13:43:02Z</time>
      </trkpt>
      <trkpt lat="48.26922" lon="-3.56322">
        <ele>224</ele>
        <time>2021-07-08T13:43:03Z</time>
      </trkpt>
      <trkpt lat="48.26918" lon="-3.56324">
        <ele>224</ele>
        <time>2021-07-08T13:43:04Z</time>
      </trkpt>
      <trkpt lat="48.26915" lon="-3.56326">
        <ele>224</ele>
        <time>2021-07-08T13:43:05Z</time>
      </trkpt>
      <trkpt lat="48.26911" lon="-3.56329">
        <ele>224</ele>
        <time>2021-07-08T13:43:06Z</time>
      </trkpt>
      <trkpt lat="48.26907" lon="-3.56331">
        <ele>224</ele>
        <time>2021-07-08T13:43:07Z</time>
      </trkpt>
      <trkpt lat="48.26904" lon="-3.56332">
        <ele>224</ele>
        <time>2021-07-08T13:43:08Z</time>
      </trkpt>
      <trkpt lat="48.26902" lon="-3.56333">
        <ele>225</ele>
        <time>2021-07-08T13:43:09Z</time>
      </trkpt>
      <trkpt lat="48.26899" lon="-3.56335">
        <ele>225</ele>
        <time>2021-07-08T13:43:10Z</time>
      </trkpt>
      <trkpt lat="48.26896" lon="-3.56336">
        <ele>225</ele>
        <time>2021-07-08T13:43:11Z</time>
      </trkpt>
      <trkpt lat="48.26887" lon="-3.56342">
        <ele>225</ele>
        <time>2021-07-08T13:43:14Z</time>
      </trkpt>
      <trkpt lat="48.26876" lon="-3.5635">
        <ele>225</ele>
        <time>2021-07-08T13:43:17Z</time>
      </trkpt>
      <trkpt lat="48.26866" lon="-3.56356">
        <ele>225</ele>
        <time>2021-07-08T13:43:20Z</time>
      </trkpt>
      <trkpt lat="48.26857" lon="-3.56363">
        <ele>225</ele>
        <time>2021-07-08T13:43:23Z</time>
      </trkpt>
      <trkpt lat="48.26847" lon="-3.56367">
        <ele>226</ele>
        <time>2021-07-08T13:43:25Z</time>
      </trkpt>
      <trkpt lat="48.2684" lon="-3.56371">
        <ele>226</ele>
        <time>2021-07-08T13:43:28Z</time>
      </trkpt>
      <trkpt lat="48.26831" lon="-3.56375">
        <ele>226</ele>
        <time>2021-07-08T13:43:31Z</time>
      </trkpt>
      <trkpt lat="48.26827" lon="-3.56377">
        <ele>226</ele>
        <time>2021-07-08T13:43:32Z</time>
      </trkpt>
      <trkpt lat="48.26824" lon="-3.56379">
        <ele>226</ele>
        <time>2021-07-08T13:43:33Z</time>
      </trkpt>
      <trkpt lat="48.2682" lon="-3.56381">
        <ele>225</ele>
        <time>2021-07-08T13:43:34Z</time>
      </trkpt>
      <trkpt lat="48.26811" lon="-3.56387">
        <ele>226</ele>
        <time>2021-07-08T13:43:36Z</time>
      </trkpt>
      <trkpt lat="48.26807" lon="-3.5639">
        <ele>226</ele>
        <time>2021-07-08T13:43:37Z</time>
      </trkpt>
      <trkpt lat="48.26803" lon="-3.56393">
        <ele>226</ele>
        <time>2021-07-08T13:43:38Z</time>
      </trkpt>
      <trkpt lat="48.26799" lon="-3.56397">
        <ele>226</ele>
        <time>2021-07-08T13:43:39Z</time>
      </trkpt>
      <trkpt lat="48.26795" lon="-3.564">
        <ele>226</ele>
        <time>2021-07-08T13:43:40Z</time>
      </trkpt>
      <trkpt lat="48.26792" lon="-3.56402">
        <ele>226</ele>
        <time>2021-07-08T13:43:41Z</time>
      </trkpt>
      <trkpt lat="48.26788" lon="-3.56405">
        <ele>226</ele>
        <time>2021-07-08T13:43:42Z</time>
      </trkpt>
      <trkpt lat="48.26785" lon="-3.56407">
        <ele>226</ele>
        <time>2021-07-08T13:43:44Z</time>
      </trkpt>
      <trkpt lat="48.26778" lon="-3.56414">
        <ele>226</ele>
        <time>2021-07-08T13:43:44Z</time>
      </trkpt>
      <trkpt lat="48.26774" lon="-3.56418">
        <ele>225</ele>
        <time>2021-07-08T13:43:46Z</time>
      </trkpt>
      <trkpt lat="48.26771" lon="-3.56421">
        <ele>225</ele>
        <time>2021-07-08T13:43:47Z</time>
      </trkpt>
      <trkpt lat="48.26768" lon="-3.56424">
        <ele>225</ele>
        <time>2021-07-08T13:43:48Z</time>
      </trkpt>
      <trkpt lat="48.26764" lon="-3.56427">
        <ele>225</ele>
        <time>2021-07-08T13:43:49Z</time>
      </trkpt>
      <trkpt lat="48.26761" lon="-3.56431">
        <ele>225</ele>
        <time>2021-07-08T13:43:50Z</time>
      </trkpt>
      <trkpt lat="48.26758" lon="-3.56435">
        <ele>225</ele>
        <time>2021-07-08T13:43:51Z</time>
      </trkpt>
      <trkpt lat="48.26755" lon="-3.56439">
        <ele>226</ele>
        <time>2021-07-08T13:43:52Z</time>
      </trkpt>
      <trkpt lat="48.26746" lon="-3.5645">
        <ele>226</ele>
        <time>2021-07-08T13:43:55Z</time>
      </trkpt>
      <trkpt lat="48.26743" lon="-3.56454">
        <ele>226</ele>
        <time>2021-07-08T13:43:57Z</time>
      </trkpt>
      <trkpt lat="48.26736" lon="-3.56463">
        <ele>226</ele>
        <time>2021-07-08T13:43:59Z</time>
      </trkpt>
      <trkpt lat="48.26728" lon="-3.56474">
        <ele>226</ele>
        <time>2021-07-08T13:44:02Z</time>
      </trkpt>
      <trkpt lat="48.2672" lon="-3.56488">
        <ele>226</ele>
        <time>2021-07-08T13:44:05Z</time>
      </trkpt>
      <trkpt lat="48.26715" lon="-3.56495">
        <ele>226</ele>
        <time>2021-07-08T13:44:07Z</time>
      </trkpt>
      <trkpt lat="48.2671" lon="-3.56501">
        <ele>226</ele>
        <time>2021-07-08T13:44:09Z</time>
      </trkpt>
      <trkpt lat="48.26709" lon="-3.56505">
        <ele>226</ele>
        <time>2021-07-08T13:44:10Z</time>
      </trkpt>
      <trkpt lat="48.26707" lon="-3.56509">
        <ele>226</ele>
        <time>2021-07-08T13:44:11Z</time>
      </trkpt>
      <trkpt lat="48.267" lon="-3.56523">
        <ele>226</ele>
        <time>2021-07-08T13:44:14Z</time>
      </trkpt>
      <trkpt lat="48.26694" lon="-3.56534">
        <ele>226</ele>
        <time>2021-07-08T13:44:16Z</time>
      </trkpt>
      <trkpt lat="48.26691" lon="-3.56539">
        <ele>226</ele>
        <time>2021-07-08T13:44:17Z</time>
      </trkpt>
      <trkpt lat="48.26687" lon="-3.56549">
        <ele>226</ele>
        <time>2021-07-08T13:44:19Z</time>
      </trkpt>
      <trkpt lat="48.26685" lon="-3.56555">
        <ele>226</ele>
        <time>2021-07-08T13:44:20Z</time>
      </trkpt>
      <trkpt lat="48.26682" lon="-3.56559">
        <ele>226</ele>
        <time>2021-07-08T13:44:21Z</time>
      </trkpt>
      <trkpt lat="48.2668" lon="-3.56564">
        <ele>226</ele>
        <time>2021-07-08T13:44:23Z</time>
      </trkpt>
      <trkpt lat="48.26678" lon="-3.5657">
        <ele>226</ele>
        <time>2021-07-08T13:44:23Z</time>
      </trkpt>
      <trkpt lat="48.26677" lon="-3.56575">
        <ele>226</ele>
        <time>2021-07-08T13:44:24Z</time>
      </trkpt>
      <trkpt lat="48.26675" lon="-3.5658">
        <ele>227</ele>
        <time>2021-07-08T13:44:25Z</time>
      </trkpt>
      <trkpt lat="48.26674" lon="-3.56585">
        <ele>227</ele>
        <time>2021-07-08T13:44:26Z</time>
      </trkpt>
      <trkpt lat="48.26672" lon="-3.56591">
        <ele>227</ele>
        <time>2021-07-08T13:44:27Z</time>
      </trkpt>
      <trkpt lat="48.26671" lon="-3.56596">
        <ele>227</ele>
        <time>2021-07-08T13:44:28Z</time>
      </trkpt>
      <trkpt lat="48.26669" lon="-3.56601">
        <ele>227</ele>
        <time>2021-07-08T13:44:29Z</time>
      </trkpt>
      <trkpt lat="48.26668" lon="-3.56606">
        <ele>227</ele>
        <time>2021-07-08T13:44:30Z</time>
      </trkpt>
      <trkpt lat="48.26667" lon="-3.56612">
        <ele>227</ele>
        <time>2021-07-08T13:44:31Z</time>
      </trkpt>
      <trkpt lat="48.26666" lon="-3.56617">
        <ele>227</ele>
        <time>2021-07-08T13:44:32Z</time>
      </trkpt>
      <trkpt lat="48.26664" lon="-3.56622">
        <ele>227</ele>
        <time>2021-07-08T13:44:33Z</time>
      </trkpt>
      <trkpt lat="48.26663" lon="-3.56628">
        <ele>227</ele>
        <time>2021-07-08T13:44:34Z</time>
      </trkpt>
      <trkpt lat="48.26661" lon="-3.56633">
        <ele>227</ele>
        <time>2021-07-08T13:44:35Z</time>
      </trkpt>
      <trkpt lat="48.2666" lon="-3.56638">
        <ele>228</ele>
        <time>2021-07-08T13:44:36Z</time>
      </trkpt>
      <trkpt lat="48.26659" lon="-3.56642">
        <ele>228</ele>
        <time>2021-07-08T13:44:37Z</time>
      </trkpt>
      <trkpt lat="48.26657" lon="-3.56646">
        <ele>229</ele>
        <time>2021-07-08T13:44:38Z</time>
      </trkpt>
      <trkpt lat="48.26656" lon="-3.56651">
        <ele>229</ele>
        <time>2021-07-08T13:44:39Z</time>
      </trkpt>
      <trkpt lat="48.26654" lon="-3.56656">
        <ele>229</ele>
        <time>2021-07-08T13:44:40Z</time>
      </trkpt>
      <trkpt lat="48.26652" lon="-3.56665">
        <ele>229</ele>
        <time>2021-07-08T13:44:42Z</time>
      </trkpt>
      <trkpt lat="48.26651" lon="-3.5667">
        <ele>229</ele>
        <time>2021-07-08T13:44:43Z</time>
      </trkpt>
      <trkpt lat="48.26647" lon="-3.56685">
        <ele>229</ele>
        <time>2021-07-08T13:44:46Z</time>
      </trkpt>
      <trkpt lat="48.26644" lon="-3.56699">
        <ele>228</ele>
        <time>2021-07-08T13:44:49Z</time>
      </trkpt>
      <trkpt lat="48.2664" lon="-3.56715">
        <ele>229</ele>
        <time>2021-07-08T13:44:52Z</time>
      </trkpt>
      <trkpt lat="48.26639" lon="-3.5672">
        <ele>229</ele>
        <time>2021-07-08T13:44:53Z</time>
      </trkpt>
      <trkpt lat="48.26638" lon="-3.56725">
        <ele>229</ele>
        <time>2021-07-08T13:44:54Z</time>
      </trkpt>
      <trkpt lat="48.26637" lon="-3.56729">
        <ele>229</ele>
        <time>2021-07-08T13:44:55Z</time>
      </trkpt>
      <trkpt lat="48.26636" lon="-3.56733">
        <ele>230</ele>
        <time>2021-07-08T13:44:56Z</time>
      </trkpt>
      <trkpt lat="48.26635" lon="-3.56737">
        <ele>230</ele>
        <time>2021-07-08T13:44:57Z</time>
      </trkpt>
      <trkpt lat="48.26634" lon="-3.5674">
        <ele>230</ele>
        <time>2021-07-08T13:44:58Z</time>
      </trkpt>
      <trkpt lat="48.26633" lon="-3.56743">
        <ele>230</ele>
        <time>2021-07-08T13:44:59Z</time>
      </trkpt>
      <trkpt lat="48.26633" lon="-3.56745">
        <ele>230</ele>
        <time>2021-07-08T13:45:09Z</time>
      </trkpt>
      <trkpt lat="48.26627" lon="-3.5676">
        <ele>230</ele>
        <time>2021-07-08T13:45:19Z</time>
      </trkpt>
      <trkpt lat="48.26626" lon="-3.56764">
        <ele>230</ele>
        <time>2021-07-08T13:45:20Z</time>
      </trkpt>
      <trkpt lat="48.26624" lon="-3.56768">
        <ele>230</ele>
        <time>2021-07-08T13:45:21Z</time>
      </trkpt>
      <trkpt lat="48.26623" lon="-3.56773">
        <ele>230</ele>
        <time>2021-07-08T13:45:22Z</time>
      </trkpt>
      <trkpt lat="48.26622" lon="-3.56778">
        <ele>230</ele>
        <time>2021-07-08T13:45:23Z</time>
      </trkpt>
      <trkpt lat="48.26621" lon="-3.56783">
        <ele>230</ele>
        <time>2021-07-08T13:45:24Z</time>
      </trkpt>
      <trkpt lat="48.26619" lon="-3.56788">
        <ele>230</ele>
        <time>2021-07-08T13:45:25Z</time>
      </trkpt>
      <trkpt lat="48.26618" lon="-3.56793">
        <ele>230</ele>
        <time>2021-07-08T13:45:26Z</time>
      </trkpt>
      <trkpt lat="48.26617" lon="-3.56799">
        <ele>230</ele>
        <time>2021-07-08T13:45:27Z</time>
      </trkpt>
      <trkpt lat="48.26616" lon="-3.56804">
        <ele>230</ele>
        <time>2021-07-08T13:45:28Z</time>
      </trkpt>
      <trkpt lat="48.26614" lon="-3.56809">
        <ele>230</ele>
        <time>2021-07-08T13:45:29Z</time>
      </trkpt>
      <trkpt lat="48.26613" lon="-3.56815">
        <ele>231</ele>
        <time>2021-07-08T13:45:30Z</time>
      </trkpt>
      <trkpt lat="48.26612" lon="-3.5682">
        <ele>231</ele>
        <time>2021-07-08T13:45:31Z</time>
      </trkpt>
      <trkpt lat="48.2661" lon="-3.56826">
        <ele>231</ele>
        <time>2021-07-08T13:45:32Z</time>
      </trkpt>
      <trkpt lat="48.26609" lon="-3.56831">
        <ele>231</ele>
        <time>2021-07-08T13:45:33Z</time>
      </trkpt>
      <trkpt lat="48.26608" lon="-3.56836">
        <ele>231</ele>
        <time>2021-07-08T13:45:34Z</time>
      </trkpt>
      <trkpt lat="48.26606" lon="-3.5684">
        <ele>231</ele>
        <time>2021-07-08T13:45:35Z</time>
      </trkpt>
      <trkpt lat="48.26605" lon="-3.56844">
        <ele>231</ele>
        <time>2021-07-08T13:45:36Z</time>
      </trkpt>
      <trkpt lat="48.26604" lon="-3.56849">
        <ele>231</ele>
        <time>2021-07-08T13:45:37Z</time>
      </trkpt>
      <trkpt lat="48.26602" lon="-3.56853">
        <ele>231</ele>
        <time>2021-07-08T13:45:38Z</time>
      </trkpt>
      <trkpt lat="48.26596" lon="-3.56867">
        <ele>231</ele>
        <time>2021-07-08T13:45:41Z</time>
      </trkpt>
      <trkpt lat="48.26595" lon="-3.56872">
        <ele>231</ele>
        <time>2021-07-08T13:45:43Z</time>
      </trkpt>
      <trkpt lat="48.26593" lon="-3.56877">
        <ele>231</ele>
        <time>2021-07-08T13:45:43Z</time>
      </trkpt>
      <trkpt lat="48.26592" lon="-3.56882">
        <ele>232</ele>
        <time>2021-07-08T13:45:44Z</time>
      </trkpt>
      <trkpt lat="48.2659" lon="-3.56887">
        <ele>232</ele>
        <time>2021-07-08T13:45:45Z</time>
      </trkpt>
      <trkpt lat="48.26588" lon="-3.56891">
        <ele>233</ele>
        <time>2021-07-08T13:45:46Z</time>
      </trkpt>
      <trkpt lat="48.26587" lon="-3.56897">
        <ele>233</ele>
        <time>2021-07-08T13:45:47Z</time>
      </trkpt>
      <trkpt lat="48.26585" lon="-3.56909">
        <ele>233</ele>
        <time>2021-07-08T13:45:49Z</time>
      </trkpt>
      <trkpt lat="48.26583" lon="-3.56915">
        <ele>232</ele>
        <time>2021-07-08T13:45:50Z</time>
      </trkpt>
      <trkpt lat="48.26582" lon="-3.56922">
        <ele>232</ele>
        <time>2021-07-08T13:45:51Z</time>
      </trkpt>
      <trkpt lat="48.26581" lon="-3.56929">
        <ele>232</ele>
        <time>2021-07-08T13:45:52Z</time>
      </trkpt>
      <trkpt lat="48.26579" lon="-3.56936">
        <ele>232</ele>
        <time>2021-07-08T13:45:53Z</time>
      </trkpt>
      <trkpt lat="48.26578" lon="-3.56942">
        <ele>232</ele>
        <time>2021-07-08T13:45:54Z</time>
      </trkpt>
      <trkpt lat="48.26577" lon="-3.56949">
        <ele>232</ele>
        <time>2021-07-08T13:45:55Z</time>
      </trkpt>
      <trkpt lat="48.26576" lon="-3.56956">
        <ele>232</ele>
        <time>2021-07-08T13:45:56Z</time>
      </trkpt>
      <trkpt lat="48.26574" lon="-3.56962">
        <ele>232</ele>
        <time>2021-07-08T13:45:57Z</time>
      </trkpt>
      <trkpt lat="48.26572" lon="-3.56969">
        <ele>232</ele>
        <time>2021-07-08T13:45:58Z</time>
      </trkpt>
      <trkpt lat="48.2657" lon="-3.56975">
        <ele>232</ele>
        <time>2021-07-08T13:45:59Z</time>
      </trkpt>
      <trkpt lat="48.26568" lon="-3.56981">
        <ele>232</ele>
        <time>2021-07-08T13:46:00Z</time>
      </trkpt>
      <trkpt lat="48.26567" lon="-3.56987">
        <ele>232</ele>
        <time>2021-07-08T13:46:01Z</time>
      </trkpt>
      <trkpt lat="48.26565" lon="-3.56993">
        <ele>232</ele>
        <time>2021-07-08T13:46:02Z</time>
      </trkpt>
      <trkpt lat="48.26563" lon="-3.56999">
        <ele>232</ele>
        <time>2021-07-08T13:46:03Z</time>
      </trkpt>
      <trkpt lat="48.26562" lon="-3.57005">
        <ele>232</ele>
        <time>2021-07-08T13:46:04Z</time>
      </trkpt>
      <trkpt lat="48.26561" lon="-3.57012">
        <ele>232</ele>
        <time>2021-07-08T13:46:05Z</time>
      </trkpt>
      <trkpt lat="48.26559" lon="-3.57019">
        <ele>232</ele>
        <time>2021-07-08T13:46:06Z</time>
      </trkpt>
      <trkpt lat="48.26557" lon="-3.57026">
        <ele>232</ele>
        <time>2021-07-08T13:46:07Z</time>
      </trkpt>
      <trkpt lat="48.26556" lon="-3.57033">
        <ele>233</ele>
        <time>2021-07-08T13:46:08Z</time>
      </trkpt>
      <trkpt lat="48.26554" lon="-3.5704">
        <ele>233</ele>
        <time>2021-07-08T13:46:09Z</time>
      </trkpt>
      <trkpt lat="48.26552" lon="-3.57046">
        <ele>233</ele>
        <time>2021-07-08T13:46:10Z</time>
      </trkpt>
      <trkpt lat="48.2655" lon="-3.57053">
        <ele>233</ele>
        <time>2021-07-08T13:46:11Z</time>
      </trkpt>
      <trkpt lat="48.26548" lon="-3.57059">
        <ele>233</ele>
        <time>2021-07-08T13:46:12Z</time>
      </trkpt>
      <trkpt lat="48.26546" lon="-3.57066">
        <ele>233</ele>
        <time>2021-07-08T13:46:13Z</time>
      </trkpt>
      <trkpt lat="48.26544" lon="-3.57073">
        <ele>233</ele>
        <time>2021-07-08T13:46:14Z</time>
      </trkpt>
      <trkpt lat="48.26542" lon="-3.5708">
        <ele>233</ele>
        <time>2021-07-08T13:46:15Z</time>
      </trkpt>
      <trkpt lat="48.2654" lon="-3.57086">
        <ele>232</ele>
        <time>2021-07-08T13:46:16Z</time>
      </trkpt>
      <trkpt lat="48.26537" lon="-3.57093">
        <ele>232</ele>
        <time>2021-07-08T13:46:17Z</time>
      </trkpt>
      <trkpt lat="48.26535" lon="-3.571">
        <ele>231</ele>
        <time>2021-07-08T13:46:18Z</time>
      </trkpt>
      <trkpt lat="48.26533" lon="-3.57107">
        <ele>231</ele>
        <time>2021-07-08T13:46:19Z</time>
      </trkpt>
      <trkpt lat="48.26531" lon="-3.57113">
        <ele>232</ele>
        <time>2021-07-08T13:46:20Z</time>
      </trkpt>
      <trkpt lat="48.26529" lon="-3.5712">
        <ele>232</ele>
        <time>2021-07-08T13:46:21Z</time>
      </trkpt>
      <trkpt lat="48.26528" lon="-3.57126">
        <ele>232</ele>
        <time>2021-07-08T13:46:22Z</time>
      </trkpt>
      <trkpt lat="48.26526" lon="-3.57131">
        <ele>232</ele>
        <time>2021-07-08T13:46:23Z</time>
      </trkpt>
      <trkpt lat="48.26525" lon="-3.57136">
        <ele>232</ele>
        <time>2021-07-08T13:46:24Z</time>
      </trkpt>
      <trkpt lat="48.26523" lon="-3.57141">
        <ele>232</ele>
        <time>2021-07-08T13:46:25Z</time>
      </trkpt>
      <trkpt lat="48.26522" lon="-3.57145">
        <ele>232</ele>
        <time>2021-07-08T13:46:26Z</time>
      </trkpt>
      <trkpt lat="48.26521" lon="-3.57149">
        <ele>232</ele>
        <time>2021-07-08T13:46:27Z</time>
      </trkpt>
      <trkpt lat="48.2652" lon="-3.57152">
        <ele>231</ele>
        <time>2021-07-08T13:46:28Z</time>
      </trkpt>
      <trkpt lat="48.26518" lon="-3.57155">
        <ele>231</ele>
        <time>2021-07-08T13:46:29Z</time>
      </trkpt>
      <trkpt lat="48.26517" lon="-3.57158">
        <ele>231</ele>
        <time>2021-07-08T13:46:30Z</time>
      </trkpt>
      <trkpt lat="48.26515" lon="-3.5716">
        <ele>231</ele>
        <time>2021-07-08T13:46:31Z</time>
      </trkpt>
      <trkpt lat="48.26513" lon="-3.57164">
        <ele>231</ele>
        <time>2021-07-08T13:46:32Z</time>
      </trkpt>
      <trkpt lat="48.2651" lon="-3.57168">
        <ele>231</ele>
        <time>2021-07-08T13:46:33Z</time>
      </trkpt>
      <trkpt lat="48.26508" lon="-3.57171">
        <ele>231</ele>
        <time>2021-07-08T13:46:34Z</time>
      </trkpt>
      <trkpt lat="48.26506" lon="-3.57175">
        <ele>231</ele>
        <time>2021-07-08T13:46:35Z</time>
      </trkpt>
      <trkpt lat="48.26503" lon="-3.57179">
        <ele>231</ele>
        <time>2021-07-08T13:46:36Z</time>
      </trkpt>
      <trkpt lat="48.26501" lon="-3.57183">
        <ele>231</ele>
        <time>2021-07-08T13:46:37Z</time>
      </trkpt>
      <trkpt lat="48.26499" lon="-3.57186">
        <ele>231</ele>
        <time>2021-07-08T13:46:38Z</time>
      </trkpt>
      <trkpt lat="48.26496" lon="-3.5719">
        <ele>231</ele>
        <time>2021-07-08T13:46:39Z</time>
      </trkpt>
      <trkpt lat="48.26494" lon="-3.57194">
        <ele>230</ele>
        <time>2021-07-08T13:46:40Z</time>
      </trkpt>
      <trkpt lat="48.26491" lon="-3.57198">
        <ele>230</ele>
        <time>2021-07-08T13:46:41Z</time>
      </trkpt>
      <trkpt lat="48.26489" lon="-3.57203">
        <ele>231</ele>
        <time>2021-07-08T13:46:42Z</time>
      </trkpt>
      <trkpt lat="48.26486" lon="-3.57207">
        <ele>231</ele>
        <time>2021-07-08T13:46:43Z</time>
      </trkpt>
      <trkpt lat="48.26483" lon="-3.57212">
        <ele>231</ele>
        <time>2021-07-08T13:46:44Z</time>
      </trkpt>
      <trkpt lat="48.26481" lon="-3.57216">
        <ele>231</ele>
        <time>2021-07-08T13:46:45Z</time>
      </trkpt>
      <trkpt lat="48.26478" lon="-3.5722">
        <ele>231</ele>
        <time>2021-07-08T13:46:46Z</time>
      </trkpt>
      <trkpt lat="48.26468" lon="-3.57234">
        <ele>230</ele>
        <time>2021-07-08T13:46:49Z</time>
      </trkpt>
      <trkpt lat="48.26465" lon="-3.57239">
        <ele>230</ele>
        <time>2021-07-08T13:46:50Z</time>
      </trkpt>
      <trkpt lat="48.26462" lon="-3.57244">
        <ele>230</ele>
        <time>2021-07-08T13:46:51Z</time>
      </trkpt>
      <trkpt lat="48.26452" lon="-3.57258">
        <ele>230</ele>
        <time>2021-07-08T13:46:54Z</time>
      </trkpt>
      <trkpt lat="48.26445" lon="-3.57269">
        <ele>230</ele>
        <time>2021-07-08T13:46:56Z</time>
      </trkpt>
      <trkpt lat="48.26439" lon="-3.57278">
        <ele>230</ele>
        <time>2021-07-08T13:46:58Z</time>
      </trkpt>
      <trkpt lat="48.26432" lon="-3.57288">
        <ele>230</ele>
        <time>2021-07-08T13:47:00Z</time>
      </trkpt>
      <trkpt lat="48.26424" lon="-3.57299">
        <ele>230</ele>
        <time>2021-07-08T13:47:02Z</time>
      </trkpt>
      <trkpt lat="48.26415" lon="-3.5731">
        <ele>230</ele>
        <time>2021-07-08T13:47:04Z</time>
      </trkpt>
      <trkpt lat="48.26406" lon="-3.57321">
        <ele>229</ele>
        <time>2021-07-08T13:47:06Z</time>
      </trkpt>
      <trkpt lat="48.26402" lon="-3.57327">
        <ele>229</ele>
        <time>2021-07-08T13:47:07Z</time>
      </trkpt>
      <trkpt lat="48.26398" lon="-3.57332">
        <ele>230</ele>
        <time>2021-07-08T13:47:08Z</time>
      </trkpt>
      <trkpt lat="48.26394" lon="-3.57337">
        <ele>230</ele>
        <time>2021-07-08T13:47:09Z</time>
      </trkpt>
      <trkpt lat="48.2639" lon="-3.57342">
        <ele>230</ele>
        <time>2021-07-08T13:47:10Z</time>
      </trkpt>
      <trkpt lat="48.26387" lon="-3.57347">
        <ele>230</ele>
        <time>2021-07-08T13:47:11Z</time>
      </trkpt>
      <trkpt lat="48.26383" lon="-3.57351">
        <ele>230</ele>
        <time>2021-07-08T13:47:13Z</time>
      </trkpt>
      <trkpt lat="48.2638" lon="-3.57355">
        <ele>230</ele>
        <time>2021-07-08T13:47:14Z</time>
      </trkpt>
      <trkpt lat="48.26376" lon="-3.57359">
        <ele>230</ele>
        <time>2021-07-08T13:47:14Z</time>
      </trkpt>
      <trkpt lat="48.26369" lon="-3.57368">
        <ele>230</ele>
        <time>2021-07-08T13:47:16Z</time>
      </trkpt>
      <trkpt lat="48.26365" lon="-3.57373">
        <ele>230</ele>
        <time>2021-07-08T13:47:17Z</time>
      </trkpt>
      <trkpt lat="48.26355" lon="-3.57386">
        <ele>230</ele>
        <time>2021-07-08T13:47:20Z</time>
      </trkpt>
      <trkpt lat="48.26346" lon="-3.57397">
        <ele>230</ele>
        <time>2021-07-08T13:47:22Z</time>
      </trkpt>
      <trkpt lat="48.26338" lon="-3.57409">
        <ele>229</ele>
        <time>2021-07-08T13:47:24Z</time>
      </trkpt>
      <trkpt lat="48.26334" lon="-3.57414">
        <ele>229</ele>
        <time>2021-07-08T13:47:25Z</time>
      </trkpt>
      <trkpt lat="48.26329" lon="-3.57418">
        <ele>229</ele>
        <time>2021-07-08T13:47:26Z</time>
      </trkpt>
      <trkpt lat="48.26326" lon="-3.57423">
        <ele>229</ele>
        <time>2021-07-08T13:47:27Z</time>
      </trkpt>
      <trkpt lat="48.26321" lon="-3.57427">
        <ele>229</ele>
        <time>2021-07-08T13:47:28Z</time>
      </trkpt>
      <trkpt lat="48.26317" lon="-3.57433">
        <ele>229</ele>
        <time>2021-07-08T13:47:29Z</time>
      </trkpt>
      <trkpt lat="48.26313" lon="-3.57439">
        <ele>229</ele>
        <time>2021-07-08T13:47:30Z</time>
      </trkpt>
      <trkpt lat="48.2631" lon="-3.57443">
        <ele>229</ele>
        <time>2021-07-08T13:47:31Z</time>
      </trkpt>
      <trkpt lat="48.26306" lon="-3.57448">
        <ele>229</ele>
        <time>2021-07-08T13:47:32Z</time>
      </trkpt>
      <trkpt lat="48.26302" lon="-3.57453">
        <ele>229</ele>
        <time>2021-07-08T13:47:33Z</time>
      </trkpt>
      <trkpt lat="48.26295" lon="-3.57462">
        <ele>229</ele>
        <time>2021-07-08T13:47:35Z</time>
      </trkpt>
      <trkpt lat="48.26291" lon="-3.57467">
        <ele>228</ele>
        <time>2021-07-08T13:47:36Z</time>
      </trkpt>
      <trkpt lat="48.26287" lon="-3.57473">
        <ele>228</ele>
        <time>2021-07-08T13:47:37Z</time>
      </trkpt>
      <trkpt lat="48.26283" lon="-3.57478">
        <ele>228</ele>
        <time>2021-07-08T13:47:38Z</time>
      </trkpt>
      <trkpt lat="48.26279" lon="-3.57483">
        <ele>228</ele>
        <time>2021-07-08T13:47:39Z</time>
      </trkpt>
      <trkpt lat="48.26275" lon="-3.57487">
        <ele>228</ele>
        <time>2021-07-08T13:47:40Z</time>
      </trkpt>
      <trkpt lat="48.26268" lon="-3.57497">
        <ele>229</ele>
        <time>2021-07-08T13:47:42Z</time>
      </trkpt>
      <trkpt lat="48.26261" lon="-3.57507">
        <ele>229</ele>
        <time>2021-07-08T13:47:44Z</time>
      </trkpt>
      <trkpt lat="48.26257" lon="-3.57512">
        <ele>229</ele>
        <time>2021-07-08T13:47:45Z</time>
      </trkpt>
      <trkpt lat="48.26253" lon="-3.57517">
        <ele>228</ele>
        <time>2021-07-08T13:47:46Z</time>
      </trkpt>
      <trkpt lat="48.26249" lon="-3.57522">
        <ele>228</ele>
        <time>2021-07-08T13:47:47Z</time>
      </trkpt>
      <trkpt lat="48.26245" lon="-3.57526">
        <ele>228</ele>
        <time>2021-07-08T13:47:48Z</time>
      </trkpt>
      <trkpt lat="48.26242" lon="-3.57531">
        <ele>228</ele>
        <time>2021-07-08T13:47:49Z</time>
      </trkpt>
      <trkpt lat="48.26238" lon="-3.57536">
        <ele>228</ele>
        <time>2021-07-08T13:47:50Z</time>
      </trkpt>
      <trkpt lat="48.26234" lon="-3.5754">
        <ele>228</ele>
        <time>2021-07-08T13:47:51Z</time>
      </trkpt>
      <trkpt lat="48.26231" lon="-3.57545">
        <ele>227</ele>
        <time>2021-07-08T13:47:52Z</time>
      </trkpt>
      <trkpt lat="48.26223" lon="-3.57554">
        <ele>227</ele>
        <time>2021-07-08T13:47:54Z</time>
      </trkpt>
      <trkpt lat="48.2622" lon="-3.57559">
        <ele>228</ele>
        <time>2021-07-08T13:47:55Z</time>
      </trkpt>
      <trkpt lat="48.26216" lon="-3.57563">
        <ele>228</ele>
        <time>2021-07-08T13:47:56Z</time>
      </trkpt>
      <trkpt lat="48.26212" lon="-3.57567">
        <ele>228</ele>
        <time>2021-07-08T13:47:57Z</time>
      </trkpt>
      <trkpt lat="48.26208" lon="-3.57572">
        <ele>228</ele>
        <time>2021-07-08T13:47:58Z</time>
      </trkpt>
      <trkpt lat="48.26205" lon="-3.57576">
        <ele>227</ele>
        <time>2021-07-08T13:47:59Z</time>
      </trkpt>
      <trkpt lat="48.26201" lon="-3.57581">
        <ele>228</ele>
        <time>2021-07-08T13:48:00Z</time>
      </trkpt>
      <trkpt lat="48.26198" lon="-3.57585">
        <ele>228</ele>
        <time>2021-07-08T13:48:01Z</time>
      </trkpt>
      <trkpt lat="48.26194" lon="-3.57589">
        <ele>228</ele>
        <time>2021-07-08T13:48:02Z</time>
      </trkpt>
      <trkpt lat="48.26191" lon="-3.57594">
        <ele>228</ele>
        <time>2021-07-08T13:48:03Z</time>
      </trkpt>
      <trkpt lat="48.26188" lon="-3.57598">
        <ele>228</ele>
        <time>2021-07-08T13:48:04Z</time>
      </trkpt>
      <trkpt lat="48.26184" lon="-3.57603">
        <ele>228</ele>
        <time>2021-07-08T13:48:05Z</time>
      </trkpt>
      <trkpt lat="48.26181" lon="-3.57607">
        <ele>228</ele>
        <time>2021-07-08T13:48:06Z</time>
      </trkpt>
      <trkpt lat="48.26178" lon="-3.57611">
        <ele>228</ele>
        <time>2021-07-08T13:48:07Z</time>
      </trkpt>
      <trkpt lat="48.26175" lon="-3.57615">
        <ele>228</ele>
        <time>2021-07-08T13:48:08Z</time>
      </trkpt>
      <trkpt lat="48.26172" lon="-3.57618">
        <ele>228</ele>
        <time>2021-07-08T13:48:09Z</time>
      </trkpt>
      <trkpt lat="48.2617" lon="-3.57622">
        <ele>228</ele>
        <time>2021-07-08T13:48:10Z</time>
      </trkpt>
      <trkpt lat="48.26167" lon="-3.57625">
        <ele>228</ele>
        <time>2021-07-08T13:48:11Z</time>
      </trkpt>
      <trkpt lat="48.2616" lon="-3.57633">
        <ele>228</ele>
        <time>2021-07-08T13:48:13Z</time>
      </trkpt>
      <trkpt lat="48.26157" lon="-3.57638">
        <ele>228</ele>
        <time>2021-07-08T13:48:14Z</time>
      </trkpt>
      <trkpt lat="48.26155" lon="-3.57642">
        <ele>228</ele>
        <time>2021-07-08T13:48:16Z</time>
      </trkpt>
      <trkpt lat="48.26152" lon="-3.57646">
        <ele>228</ele>
        <time>2021-07-08T13:48:16Z</time>
      </trkpt>
      <trkpt lat="48.2615" lon="-3.57649">
        <ele>228</ele>
        <time>2021-07-08T13:48:17Z</time>
      </trkpt>
      <trkpt lat="48.26147" lon="-3.57652">
        <ele>228</ele>
        <time>2021-07-08T13:48:18Z</time>
      </trkpt>
      <trkpt lat="48.26144" lon="-3.57654">
        <ele>228</ele>
        <time>2021-07-08T13:48:19Z</time>
      </trkpt>
      <trkpt lat="48.26142" lon="-3.57656">
        <ele>228</ele>
        <time>2021-07-08T13:48:20Z</time>
      </trkpt>
      <trkpt lat="48.2614" lon="-3.57658">
        <ele>228</ele>
        <time>2021-07-08T13:48:21Z</time>
      </trkpt>
      <trkpt lat="48.26138" lon="-3.57661">
        <ele>229</ele>
        <time>2021-07-08T13:48:22Z</time>
      </trkpt>
      <trkpt lat="48.26136" lon="-3.57663">
        <ele>229</ele>
        <time>2021-07-08T13:48:23Z</time>
      </trkpt>
      <trkpt lat="48.26133" lon="-3.57666">
        <ele>229</ele>
        <time>2021-07-08T13:48:24Z</time>
      </trkpt>
      <trkpt lat="48.2613" lon="-3.57669">
        <ele>229</ele>
        <time>2021-07-08T13:48:25Z</time>
      </trkpt>
      <trkpt lat="48.26127" lon="-3.57673">
        <ele>229</ele>
        <time>2021-07-08T13:48:26Z</time>
      </trkpt>
      <trkpt lat="48.26124" lon="-3.57676">
        <ele>229</ele>
        <time>2021-07-08T13:48:27Z</time>
      </trkpt>
      <trkpt lat="48.26121" lon="-3.57679">
        <ele>228</ele>
        <time>2021-07-08T13:48:28Z</time>
      </trkpt>
      <trkpt lat="48.26119" lon="-3.57683">
        <ele>228</ele>
        <time>2021-07-08T13:48:29Z</time>
      </trkpt>
      <trkpt lat="48.26116" lon="-3.57686">
        <ele>228</ele>
        <time>2021-07-08T13:48:31Z</time>
      </trkpt>
      <trkpt lat="48.26113" lon="-3.5769">
        <ele>228</ele>
        <time>2021-07-08T13:48:31Z</time>
      </trkpt>
      <trkpt lat="48.26107" lon="-3.57698">
        <ele>228</ele>
        <time>2021-07-08T13:48:33Z</time>
      </trkpt>
      <trkpt lat="48.26098" lon="-3.57709">
        <ele>228</ele>
        <time>2021-07-08T13:48:36Z</time>
      </trkpt>
      <trkpt lat="48.26091" lon="-3.57717">
        <ele>228</ele>
        <time>2021-07-08T13:48:38Z</time>
      </trkpt>
      <trkpt lat="48.26087" lon="-3.57721">
        <ele>228</ele>
        <time>2021-07-08T13:48:39Z</time>
      </trkpt>
      <trkpt lat="48.26083" lon="-3.57726">
        <ele>228</ele>
        <time>2021-07-08T13:48:40Z</time>
      </trkpt>
      <trkpt lat="48.26079" lon="-3.5773">
        <ele>228</ele>
        <time>2021-07-08T13:48:41Z</time>
      </trkpt>
      <trkpt lat="48.26075" lon="-3.57735">
        <ele>228</ele>
        <time>2021-07-08T13:48:43Z</time>
      </trkpt>
      <trkpt lat="48.26072" lon="-3.57739">
        <ele>228</ele>
        <time>2021-07-08T13:48:43Z</time>
      </trkpt>
      <trkpt lat="48.26069" lon="-3.57744">
        <ele>228</ele>
        <time>2021-07-08T13:48:44Z</time>
      </trkpt>
      <trkpt lat="48.26061" lon="-3.57752">
        <ele>228</ele>
        <time>2021-07-08T13:48:46Z</time>
      </trkpt>
      <trkpt lat="48.26058" lon="-3.57757">
        <ele>227</ele>
        <time>2021-07-08T13:48:47Z</time>
      </trkpt>
      <trkpt lat="48.26054" lon="-3.57763">
        <ele>227</ele>
        <time>2021-07-08T13:48:48Z</time>
      </trkpt>
      <trkpt lat="48.2605" lon="-3.57768">
        <ele>227</ele>
        <time>2021-07-08T13:48:49Z</time>
      </trkpt>
      <trkpt lat="48.26046" lon="-3.57773">
        <ele>227</ele>
        <time>2021-07-08T13:48:50Z</time>
      </trkpt>
      <trkpt lat="48.26042" lon="-3.57778">
        <ele>227</ele>
        <time>2021-07-08T13:48:51Z</time>
      </trkpt>
      <trkpt lat="48.26038" lon="-3.57784">
        <ele>227</ele>
        <time>2021-07-08T13:48:52Z</time>
      </trkpt>
      <trkpt lat="48.26034" lon="-3.57789">
        <ele>227</ele>
        <time>2021-07-08T13:48:53Z</time>
      </trkpt>
      <trkpt lat="48.26031" lon="-3.57795">
        <ele>227</ele>
        <time>2021-07-08T13:48:54Z</time>
      </trkpt>
      <trkpt lat="48.26028" lon="-3.578">
        <ele>227</ele>
        <time>2021-07-08T13:48:55Z</time>
      </trkpt>
      <trkpt lat="48.26025" lon="-3.57805">
        <ele>227</ele>
        <time>2021-07-08T13:48:56Z</time>
      </trkpt>
      <trkpt lat="48.26022" lon="-3.57809">
        <ele>226</ele>
        <time>2021-07-08T13:48:57Z</time>
      </trkpt>
      <trkpt lat="48.26019" lon="-3.57813">
        <ele>226</ele>
        <time>2021-07-08T13:48:58Z</time>
      </trkpt>
      <trkpt lat="48.26017" lon="-3.57818">
        <ele>226</ele>
        <time>2021-07-08T13:48:59Z</time>
      </trkpt>
      <trkpt lat="48.26015" lon="-3.57823">
        <ele>226</ele>
        <time>2021-07-08T13:49:01Z</time>
      </trkpt>
      <trkpt lat="48.26013" lon="-3.57829">
        <ele>226</ele>
        <time>2021-07-08T13:49:01Z</time>
      </trkpt>
      <trkpt lat="48.26011" lon="-3.57834">
        <ele>226</ele>
        <time>2021-07-08T13:49:02Z</time>
      </trkpt>
      <trkpt lat="48.26009" lon="-3.5784">
        <ele>226</ele>
        <time>2021-07-08T13:49:03Z</time>
      </trkpt>
      <trkpt lat="48.26008" lon="-3.57846">
        <ele>226</ele>
        <time>2021-07-08T13:49:04Z</time>
      </trkpt>
      <trkpt lat="48.26007" lon="-3.57853">
        <ele>226</ele>
        <time>2021-07-08T13:49:05Z</time>
      </trkpt>
      <trkpt lat="48.26005" lon="-3.57859">
        <ele>226</ele>
        <time>2021-07-08T13:49:06Z</time>
      </trkpt>
      <trkpt lat="48.26004" lon="-3.57864">
        <ele>226</ele>
        <time>2021-07-08T13:49:07Z</time>
      </trkpt>
      <trkpt lat="48.26002" lon="-3.57869">
        <ele>226</ele>
        <time>2021-07-08T13:49:08Z</time>
      </trkpt>
      <trkpt lat="48.26" lon="-3.57875">
        <ele>225</ele>
        <time>2021-07-08T13:49:09Z</time>
      </trkpt>
      <trkpt lat="48.26" lon="-3.57879">
        <ele>225</ele>
        <time>2021-07-08T13:49:10Z</time>
      </trkpt>
      <trkpt lat="48.25999" lon="-3.57889">
        <ele>225</ele>
        <time>2021-07-08T13:49:12Z</time>
      </trkpt>
      <trkpt lat="48.25998" lon="-3.57893">
        <ele>225</ele>
        <time>2021-07-08T13:49:13Z</time>
      </trkpt>
      <trkpt lat="48.25998" lon="-3.57898">
        <ele>225</ele>
        <time>2021-07-08T13:49:14Z</time>
      </trkpt>
      <trkpt lat="48.25998" lon="-3.57907">
        <ele>226</ele>
        <time>2021-07-08T13:49:16Z</time>
      </trkpt>
      <trkpt lat="48.25998" lon="-3.57911">
        <ele>226</ele>
        <time>2021-07-08T13:49:17Z</time>
      </trkpt>
      <trkpt lat="48.25998" lon="-3.57916">
        <ele>226</ele>
        <time>2021-07-08T13:49:18Z</time>
      </trkpt>
      <trkpt lat="48.25998" lon="-3.57921">
        <ele>226</ele>
        <time>2021-07-08T13:49:19Z</time>
      </trkpt>
      <trkpt lat="48.25999" lon="-3.57924">
        <ele>225</ele>
        <time>2021-07-08T13:49:20Z</time>
      </trkpt>
      <trkpt lat="48.25999" lon="-3.57928">
        <ele>225</ele>
        <time>2021-07-08T13:49:22Z</time>
      </trkpt>
      <trkpt lat="48.25998" lon="-3.57932">
        <ele>225</ele>
        <time>2021-07-08T13:49:28Z</time>
      </trkpt>
      <trkpt lat="48.25997" lon="-3.57934">
        <ele>225</ele>
        <time>2021-07-08T13:49:30Z</time>
      </trkpt>
      <trkpt lat="48.25992" lon="-3.57935">
        <ele>225</ele>
        <time>2021-07-08T13:49:31Z</time>
      </trkpt>
      <trkpt lat="48.25986" lon="-3.57935">
        <ele>225</ele>
        <time>2021-07-08T13:49:33Z</time>
      </trkpt>
      <trkpt lat="48.25983" lon="-3.57934">
        <ele>225</ele>
        <time>2021-07-08T13:49:34Z</time>
      </trkpt>
      <trkpt lat="48.2598" lon="-3.57933">
        <ele>225</ele>
        <time>2021-07-08T13:49:35Z</time>
      </trkpt>
      <trkpt lat="48.25978" lon="-3.57932">
        <ele>226</ele>
        <time>2021-07-08T13:49:36Z</time>
      </trkpt>
      <trkpt lat="48.25975" lon="-3.57931">
        <ele>226</ele>
        <time>2021-07-08T13:49:37Z</time>
      </trkpt>
      <trkpt lat="48.25962" lon="-3.57935">
        <ele>226</ele>
        <time>2021-07-08T13:49:40Z</time>
      </trkpt>
      <trkpt lat="48.25956" lon="-3.57937">
        <ele>226</ele>
        <time>2021-07-08T13:49:41Z</time>
      </trkpt>
      <trkpt lat="48.25951" lon="-3.57939">
        <ele>226</ele>
        <time>2021-07-08T13:49:42Z</time>
      </trkpt>
      <trkpt lat="48.25947" lon="-3.57938">
        <ele>226</ele>
        <time>2021-07-08T13:49:43Z</time>
      </trkpt>
      <trkpt lat="48.25944" lon="-3.57935">
        <ele>226</ele>
        <time>2021-07-08T13:49:44Z</time>
      </trkpt>
      <trkpt lat="48.25942" lon="-3.57932">
        <ele>226</ele>
        <time>2021-07-08T13:49:45Z</time>
      </trkpt>
      <trkpt lat="48.25941" lon="-3.57927">
        <ele>226</ele>
        <time>2021-07-08T13:49:46Z</time>
      </trkpt>
      <trkpt lat="48.2594" lon="-3.57921">
        <ele>226</ele>
        <time>2021-07-08T13:49:47Z</time>
      </trkpt>
      <trkpt lat="48.2594" lon="-3.57915">
        <ele>226</ele>
        <time>2021-07-08T13:49:48Z</time>
      </trkpt>
      <trkpt lat="48.25941" lon="-3.57909">
        <ele>225</ele>
        <time>2021-07-08T13:49:49Z</time>
      </trkpt>
      <trkpt lat="48.25942" lon="-3.57902">
        <ele>225</ele>
        <time>2021-07-08T13:49:50Z</time>
      </trkpt>
      <trkpt lat="48.25946" lon="-3.5789">
        <ele>225</ele>
        <time>2021-07-08T13:49:52Z</time>
      </trkpt>
      <trkpt lat="48.25948" lon="-3.57883">
        <ele>225</ele>
        <time>2021-07-08T13:49:53Z</time>
      </trkpt>
      <trkpt lat="48.2595" lon="-3.57878">
        <ele>224</ele>
        <time>2021-07-08T13:49:54Z</time>
      </trkpt>
      <trkpt lat="48.2595" lon="-3.57869">
        <ele>224</ele>
        <time>2021-07-08T13:49:55Z</time>
      </trkpt>
      <trkpt lat="48.25948" lon="-3.57866">
        <ele>224</ele>
        <time>2021-07-08T13:49:57Z</time>
      </trkpt>
      <trkpt lat="48.25945" lon="-3.57865">
        <ele>224</ele>
        <time>2021-07-08T13:49:58Z</time>
      </trkpt>
      <trkpt lat="48.25943" lon="-3.57864">
        <ele>222</ele>
        <time>2021-07-08T13:49:59Z</time>
      </trkpt>
      <trkpt lat="48.25939" lon="-3.57866">
        <ele>222</ele>
        <time>2021-07-08T13:50:00Z</time>
      </trkpt>
      <trkpt lat="48.25936" lon="-3.57867">
        <ele>222</ele>
        <time>2021-07-08T13:50:01Z</time>
      </trkpt>
      <trkpt lat="48.25932" lon="-3.57868">
        <ele>222</ele>
        <time>2021-07-08T13:50:02Z</time>
      </trkpt>
      <trkpt lat="48.25929" lon="-3.5787">
        <ele>222</ele>
        <time>2021-07-08T13:50:03Z</time>
      </trkpt>
      <trkpt lat="48.25925" lon="-3.57871">
        <ele>222</ele>
        <time>2021-07-08T13:50:04Z</time>
      </trkpt>
      <trkpt lat="48.25921" lon="-3.57873">
        <ele>222</ele>
        <time>2021-07-08T13:50:05Z</time>
      </trkpt>
      <trkpt lat="48.25916" lon="-3.57874">
        <ele>222</ele>
        <time>2021-07-08T13:50:06Z</time>
      </trkpt>
      <trkpt lat="48.25912" lon="-3.57876">
        <ele>222</ele>
        <time>2021-07-08T13:50:07Z</time>
      </trkpt>
      <trkpt lat="48.25908" lon="-3.57877">
        <ele>222</ele>
        <time>2021-07-08T13:50:08Z</time>
      </trkpt>
      <trkpt lat="48.25904" lon="-3.57878">
        <ele>222</ele>
        <time>2021-07-08T13:50:09Z</time>
      </trkpt>
      <trkpt lat="48.25899" lon="-3.57879">
        <ele>222</ele>
        <time>2021-07-08T13:50:10Z</time>
      </trkpt>
      <trkpt lat="48.25894" lon="-3.5788">
        <ele>222</ele>
        <time>2021-07-08T13:50:11Z</time>
      </trkpt>
      <trkpt lat="48.25889" lon="-3.57881">
        <ele>222</ele>
        <time>2021-07-08T13:50:12Z</time>
      </trkpt>
      <trkpt lat="48.25884" lon="-3.57882">
        <ele>222</ele>
        <time>2021-07-08T13:50:13Z</time>
      </trkpt>
      <trkpt lat="48.25879" lon="-3.57882">
        <ele>222</ele>
        <time>2021-07-08T13:50:14Z</time>
      </trkpt>
      <trkpt lat="48.25874" lon="-3.57883">
        <ele>222</ele>
        <time>2021-07-08T13:50:15Z</time>
      </trkpt>
      <trkpt lat="48.2587" lon="-3.57882">
        <ele>222</ele>
        <time>2021-07-08T13:50:16Z</time>
      </trkpt>
      <trkpt lat="48.25865" lon="-3.57882">
        <ele>222</ele>
        <time>2021-07-08T13:50:17Z</time>
      </trkpt>
      <trkpt lat="48.2586" lon="-3.57881">
        <ele>222</ele>
        <time>2021-07-08T13:50:18Z</time>
      </trkpt>
      <trkpt lat="48.25855" lon="-3.57881">
        <ele>222</ele>
        <time>2021-07-08T13:50:19Z</time>
      </trkpt>
      <trkpt lat="48.25851" lon="-3.57879">
        <ele>222</ele>
        <time>2021-07-08T13:50:20Z</time>
      </trkpt>
      <trkpt lat="48.25847" lon="-3.57879">
        <ele>221</ele>
        <time>2021-07-08T13:50:21Z</time>
      </trkpt>
      <trkpt lat="48.25843" lon="-3.57878">
        <ele>221</ele>
        <time>2021-07-08T13:50:22Z</time>
      </trkpt>
      <trkpt lat="48.2584" lon="-3.57877">
        <ele>221</ele>
        <time>2021-07-08T13:50:23Z</time>
      </trkpt>
      <trkpt lat="48.25837" lon="-3.57878">
        <ele>221</ele>
        <time>2021-07-08T13:50:24Z</time>
      </trkpt>
      <trkpt lat="48.25833" lon="-3.57877">
        <ele>221</ele>
        <time>2021-07-08T13:50:25Z</time>
      </trkpt>
      <trkpt lat="48.25829" lon="-3.57877">
        <ele>221</ele>
        <time>2021-07-08T13:50:26Z</time>
      </trkpt>
      <trkpt lat="48.25824" lon="-3.57875">
        <ele>221</ele>
        <time>2021-07-08T13:50:27Z</time>
      </trkpt>
      <trkpt lat="48.25818" lon="-3.57872">
        <ele>221</ele>
        <time>2021-07-08T13:50:28Z</time>
      </trkpt>
      <trkpt lat="48.25808" lon="-3.57869">
        <ele>220</ele>
        <time>2021-07-08T13:50:30Z</time>
      </trkpt>
      <trkpt lat="48.25803" lon="-3.57866">
        <ele>220</ele>
        <time>2021-07-08T13:50:31Z</time>
      </trkpt>
      <trkpt lat="48.25797" lon="-3.57863">
        <ele>220</ele>
        <time>2021-07-08T13:50:32Z</time>
      </trkpt>
      <trkpt lat="48.25792" lon="-3.5786">
        <ele>220</ele>
        <time>2021-07-08T13:50:33Z</time>
      </trkpt>
      <trkpt lat="48.25787" lon="-3.57856">
        <ele>220</ele>
        <time>2021-07-08T13:50:34Z</time>
      </trkpt>
      <trkpt lat="48.25783" lon="-3.57853">
        <ele>219</ele>
        <time>2021-07-08T13:50:35Z</time>
      </trkpt>
      <trkpt lat="48.25778" lon="-3.5785">
        <ele>219</ele>
        <time>2021-07-08T13:50:36Z</time>
      </trkpt>
      <trkpt lat="48.25774" lon="-3.57848">
        <ele>219</ele>
        <time>2021-07-08T13:50:37Z</time>
      </trkpt>
      <trkpt lat="48.2577" lon="-3.57846">
        <ele>219</ele>
        <time>2021-07-08T13:50:38Z</time>
      </trkpt>
      <trkpt lat="48.25765" lon="-3.57843">
        <ele>219</ele>
        <time>2021-07-08T13:50:39Z</time>
      </trkpt>
      <trkpt lat="48.25756" lon="-3.57837">
        <ele>219</ele>
        <time>2021-07-08T13:50:41Z</time>
      </trkpt>
      <trkpt lat="48.25752" lon="-3.57833">
        <ele>218</ele>
        <time>2021-07-08T13:50:42Z</time>
      </trkpt>
      <trkpt lat="48.25747" lon="-3.5783">
        <ele>218</ele>
        <time>2021-07-08T13:50:43Z</time>
      </trkpt>
      <trkpt lat="48.25738" lon="-3.57825">
        <ele>218</ele>
        <time>2021-07-08T13:50:45Z</time>
      </trkpt>
      <trkpt lat="48.25728" lon="-3.5782">
        <ele>218</ele>
        <time>2021-07-08T13:50:47Z</time>
      </trkpt>
      <trkpt lat="48.25717" lon="-3.57816">
        <ele>218</ele>
        <time>2021-07-08T13:50:49Z</time>
      </trkpt>
      <trkpt lat="48.25706" lon="-3.57812">
        <ele>218</ele>
        <time>2021-07-08T13:50:51Z</time>
      </trkpt>
      <trkpt lat="48.25695" lon="-3.57809">
        <ele>218</ele>
        <time>2021-07-08T13:50:53Z</time>
      </trkpt>
      <trkpt lat="48.25689" lon="-3.57808">
        <ele>218</ele>
        <time>2021-07-08T13:50:54Z</time>
      </trkpt>
      <trkpt lat="48.25683" lon="-3.57806">
        <ele>218</ele>
        <time>2021-07-08T13:50:55Z</time>
      </trkpt>
      <trkpt lat="48.25678" lon="-3.57805">
        <ele>218</ele>
        <time>2021-07-08T13:50:56Z</time>
      </trkpt>
      <trkpt lat="48.25673" lon="-3.57804">
        <ele>218</ele>
        <time>2021-07-08T13:50:57Z</time>
      </trkpt>
      <trkpt lat="48.25663" lon="-3.57803">
        <ele>218</ele>
        <time>2021-07-08T13:50:59Z</time>
      </trkpt>
      <trkpt lat="48.25657" lon="-3.57802">
        <ele>217</ele>
        <time>2021-07-08T13:51:00Z</time>
      </trkpt>
      <trkpt lat="48.25652" lon="-3.57802">
        <ele>217</ele>
        <time>2021-07-08T13:51:01Z</time>
      </trkpt>
      <trkpt lat="48.25647" lon="-3.57802">
        <ele>217</ele>
        <time>2021-07-08T13:51:02Z</time>
      </trkpt>
      <trkpt lat="48.25642" lon="-3.57802">
        <ele>217</ele>
        <time>2021-07-08T13:51:03Z</time>
      </trkpt>
      <trkpt lat="48.25636" lon="-3.57803">
        <ele>217</ele>
        <time>2021-07-08T13:51:04Z</time>
      </trkpt>
      <trkpt lat="48.25631" lon="-3.57803">
        <ele>217</ele>
        <time>2021-07-08T13:51:05Z</time>
      </trkpt>
      <trkpt lat="48.25627" lon="-3.57803">
        <ele>216</ele>
        <time>2021-07-08T13:51:06Z</time>
      </trkpt>
      <trkpt lat="48.25616" lon="-3.57805">
        <ele>216</ele>
        <time>2021-07-08T13:51:08Z</time>
      </trkpt>
      <trkpt lat="48.2561" lon="-3.57806">
        <ele>216</ele>
        <time>2021-07-08T13:51:09Z</time>
      </trkpt>
      <trkpt lat="48.25605" lon="-3.57808">
        <ele>216</ele>
        <time>2021-07-08T13:51:10Z</time>
      </trkpt>
      <trkpt lat="48.25601" lon="-3.57811">
        <ele>216</ele>
        <time>2021-07-08T13:51:11Z</time>
      </trkpt>
      <trkpt lat="48.25595" lon="-3.57812">
        <ele>216</ele>
        <time>2021-07-08T13:51:12Z</time>
      </trkpt>
      <trkpt lat="48.25591" lon="-3.57813">
        <ele>216</ele>
        <time>2021-07-08T13:51:13Z</time>
      </trkpt>
      <trkpt lat="48.25586" lon="-3.57814">
        <ele>215</ele>
        <time>2021-07-08T13:51:14Z</time>
      </trkpt>
      <trkpt lat="48.25582" lon="-3.57816">
        <ele>215</ele>
        <time>2021-07-08T13:51:15Z</time>
      </trkpt>
      <trkpt lat="48.25578" lon="-3.57817">
        <ele>215</ele>
        <time>2021-07-08T13:51:16Z</time>
      </trkpt>
      <trkpt lat="48.25574" lon="-3.57819">
        <ele>215</ele>
        <time>2021-07-08T13:51:17Z</time>
      </trkpt>
      <trkpt lat="48.2557" lon="-3.57821">
        <ele>215</ele>
        <time>2021-07-08T13:51:19Z</time>
      </trkpt>
      <trkpt lat="48.25566" lon="-3.57823">
        <ele>215</ele>
        <time>2021-07-08T13:51:19Z</time>
      </trkpt>
      <trkpt lat="48.25562" lon="-3.57825">
        <ele>214</ele>
        <time>2021-07-08T13:51:20Z</time>
      </trkpt>
      <trkpt lat="48.25558" lon="-3.57826">
        <ele>214</ele>
        <time>2021-07-08T13:51:21Z</time>
      </trkpt>
      <trkpt lat="48.25555" lon="-3.57828">
        <ele>213</ele>
        <time>2021-07-08T13:51:22Z</time>
      </trkpt>
      <trkpt lat="48.25542" lon="-3.57836">
        <ele>214</ele>
        <time>2021-07-08T13:51:25Z</time>
      </trkpt>
      <trkpt lat="48.25533" lon="-3.57844">
        <ele>214</ele>
        <time>2021-07-08T13:51:27Z</time>
      </trkpt>
      <trkpt lat="48.25524" lon="-3.5785">
        <ele>213</ele>
        <time>2021-07-08T13:51:29Z</time>
      </trkpt>
      <trkpt lat="48.2552" lon="-3.57854">
        <ele>213</ele>
        <time>2021-07-08T13:51:30Z</time>
      </trkpt>
      <trkpt lat="48.25515" lon="-3.57859">
        <ele>213</ele>
        <time>2021-07-08T13:51:31Z</time>
      </trkpt>
      <trkpt lat="48.25511" lon="-3.57862">
        <ele>213</ele>
        <time>2021-07-08T13:51:32Z</time>
      </trkpt>
      <trkpt lat="48.25508" lon="-3.57865">
        <ele>213</ele>
        <time>2021-07-08T13:51:33Z</time>
      </trkpt>
      <trkpt lat="48.25504" lon="-3.57868">
        <ele>212</ele>
        <time>2021-07-08T13:51:34Z</time>
      </trkpt>
      <trkpt lat="48.25503" lon="-3.57871">
        <ele>212</ele>
        <time>2021-07-08T13:51:35Z</time>
      </trkpt>
      <trkpt lat="48.25502" lon="-3.5787">
        <ele>212</ele>
        <time>2021-07-08T13:51:46Z</time>
      </trkpt>
      <trkpt lat="48.25496" lon="-3.57873">
        <ele>212</ele>
        <time>2021-07-08T13:52:01Z</time>
      </trkpt>
      <trkpt lat="48.25492" lon="-3.57878">
        <ele>212</ele>
        <time>2021-07-08T13:52:02Z</time>
      </trkpt>
      <trkpt lat="48.25489" lon="-3.57881">
        <ele>211</ele>
        <time>2021-07-08T13:52:03Z</time>
      </trkpt>
      <trkpt lat="48.25486" lon="-3.57884">
        <ele>211</ele>
        <time>2021-07-08T13:52:04Z</time>
      </trkpt>
      <trkpt lat="48.25483" lon="-3.57887">
        <ele>211</ele>
        <time>2021-07-08T13:52:05Z</time>
      </trkpt>
      <trkpt lat="48.25481" lon="-3.57889">
        <ele>211</ele>
        <time>2021-07-08T13:52:06Z</time>
      </trkpt>
      <trkpt lat="48.25478" lon="-3.57892">
        <ele>211</ele>
        <time>2021-07-08T13:52:08Z</time>
      </trkpt>
      <trkpt lat="48.25475" lon="-3.57895">
        <ele>211</ele>
        <time>2021-07-08T13:52:08Z</time>
      </trkpt>
      <trkpt lat="48.25473" lon="-3.57897">
        <ele>211</ele>
        <time>2021-07-08T13:52:09Z</time>
      </trkpt>
      <trkpt lat="48.2547" lon="-3.579">
        <ele>211</ele>
        <time>2021-07-08T13:52:10Z</time>
      </trkpt>
      <trkpt lat="48.25468" lon="-3.57902">
        <ele>210</ele>
        <time>2021-07-08T13:52:11Z</time>
      </trkpt>
      <trkpt lat="48.25466" lon="-3.57905">
        <ele>210</ele>
        <time>2021-07-08T13:52:12Z</time>
      </trkpt>
      <trkpt lat="48.25464" lon="-3.57908">
        <ele>209</ele>
        <time>2021-07-08T13:52:13Z</time>
      </trkpt>
      <trkpt lat="48.25463" lon="-3.5791">
        <ele>209</ele>
        <time>2021-07-08T13:52:14Z</time>
      </trkpt>
      <trkpt lat="48.25461" lon="-3.57912">
        <ele>208</ele>
        <time>2021-07-08T13:52:15Z</time>
      </trkpt>
      <trkpt lat="48.25459" lon="-3.57915">
        <ele>207</ele>
        <time>2021-07-08T13:52:17Z</time>
      </trkpt>
      <trkpt lat="48.25457" lon="-3.57917">
        <ele>207</ele>
        <time>2021-07-08T13:52:19Z</time>
      </trkpt>
      <trkpt lat="48.25455" lon="-3.57918">
        <ele>207</ele>
        <time>2021-07-08T13:52:20Z</time>
      </trkpt>
      <trkpt lat="48.25453" lon="-3.57919">
        <ele>207</ele>
        <time>2021-07-08T13:52:21Z</time>
      </trkpt>
      <trkpt lat="48.2545" lon="-3.57919">
        <ele>207</ele>
        <time>2021-07-08T13:52:22Z</time>
      </trkpt>
      <trkpt lat="48.25446" lon="-3.57921">
        <ele>207</ele>
        <time>2021-07-08T13:52:23Z</time>
      </trkpt>
      <trkpt lat="48.25442" lon="-3.57924">
        <ele>207</ele>
        <time>2021-07-08T13:52:24Z</time>
      </trkpt>
      <trkpt lat="48.25438" lon="-3.57927">
        <ele>207</ele>
        <time>2021-07-08T13:52:25Z</time>
      </trkpt>
      <trkpt lat="48.25435" lon="-3.5793">
        <ele>207</ele>
        <time>2021-07-08T13:52:26Z</time>
      </trkpt>
      <trkpt lat="48.25432" lon="-3.57934">
        <ele>207</ele>
        <time>2021-07-08T13:52:27Z</time>
      </trkpt>
      <trkpt lat="48.2543" lon="-3.57937">
        <ele>207</ele>
        <time>2021-07-08T13:52:28Z</time>
      </trkpt>
      <trkpt lat="48.25427" lon="-3.5794">
        <ele>208</ele>
        <time>2021-07-08T13:52:29Z</time>
      </trkpt>
      <trkpt lat="48.25424" lon="-3.57943">
        <ele>209</ele>
        <time>2021-07-08T13:52:30Z</time>
      </trkpt>
      <trkpt lat="48.25422" lon="-3.57946">
        <ele>209</ele>
        <time>2021-07-08T13:52:31Z</time>
      </trkpt>
      <trkpt lat="48.25419" lon="-3.57948">
        <ele>209</ele>
        <time>2021-07-08T13:52:32Z</time>
      </trkpt>
      <trkpt lat="48.25415" lon="-3.57951">
        <ele>209</ele>
        <time>2021-07-08T13:52:33Z</time>
      </trkpt>
      <trkpt lat="48.25413" lon="-3.57953">
        <ele>210</ele>
        <time>2021-07-08T13:52:34Z</time>
      </trkpt>
      <trkpt lat="48.25409" lon="-3.57955">
        <ele>210</ele>
        <time>2021-07-08T13:52:35Z</time>
      </trkpt>
      <trkpt lat="48.25406" lon="-3.57957">
        <ele>210</ele>
        <time>2021-07-08T13:52:36Z</time>
      </trkpt>
      <trkpt lat="48.25403" lon="-3.5796">
        <ele>210</ele>
        <time>2021-07-08T13:52:37Z</time>
      </trkpt>
      <trkpt lat="48.254" lon="-3.57963">
        <ele>210</ele>
        <time>2021-07-08T13:52:38Z</time>
      </trkpt>
      <trkpt lat="48.25396" lon="-3.57965">
        <ele>210</ele>
        <time>2021-07-08T13:52:39Z</time>
      </trkpt>
      <trkpt lat="48.25393" lon="-3.57968">
        <ele>210</ele>
        <time>2021-07-08T13:52:40Z</time>
      </trkpt>
      <trkpt lat="48.25389" lon="-3.57972">
        <ele>210</ele>
        <time>2021-07-08T13:52:41Z</time>
      </trkpt>
      <trkpt lat="48.25385" lon="-3.57975">
        <ele>210</ele>
        <time>2021-07-08T13:52:42Z</time>
      </trkpt>
      <trkpt lat="48.25382" lon="-3.57979">
        <ele>210</ele>
        <time>2021-07-08T13:52:43Z</time>
      </trkpt>
      <trkpt lat="48.25378" lon="-3.57982">
        <ele>209</ele>
        <time>2021-07-08T13:52:44Z</time>
      </trkpt>
      <trkpt lat="48.25374" lon="-3.57986">
        <ele>209</ele>
        <time>2021-07-08T13:52:45Z</time>
      </trkpt>
      <trkpt lat="48.2537" lon="-3.57989">
        <ele>209</ele>
        <time>2021-07-08T13:52:46Z</time>
      </trkpt>
      <trkpt lat="48.25366" lon="-3.57993">
        <ele>209</ele>
        <time>2021-07-08T13:52:47Z</time>
      </trkpt>
      <trkpt lat="48.25361" lon="-3.57997">
        <ele>209</ele>
        <time>2021-07-08T13:52:48Z</time>
      </trkpt>
      <trkpt lat="48.25357" lon="-3.58001">
        <ele>209</ele>
        <time>2021-07-08T13:52:49Z</time>
      </trkpt>
      <trkpt lat="48.25353" lon="-3.58005">
        <ele>209</ele>
        <time>2021-07-08T13:52:50Z</time>
      </trkpt>
      <trkpt lat="48.25348" lon="-3.58009">
        <ele>209</ele>
        <time>2021-07-08T13:52:51Z</time>
      </trkpt>
      <trkpt lat="48.25343" lon="-3.58013">
        <ele>209</ele>
        <time>2021-07-08T13:52:52Z</time>
      </trkpt>
      <trkpt lat="48.25339" lon="-3.58017">
        <ele>208</ele>
        <time>2021-07-08T13:52:53Z</time>
      </trkpt>
      <trkpt lat="48.25334" lon="-3.58021">
        <ele>208</ele>
        <time>2021-07-08T13:52:55Z</time>
      </trkpt>
      <trkpt lat="48.25329" lon="-3.58025">
        <ele>208</ele>
        <time>2021-07-08T13:52:55Z</time>
      </trkpt>
      <trkpt lat="48.25325" lon="-3.58029">
        <ele>208</ele>
        <time>2021-07-08T13:52:56Z</time>
      </trkpt>
      <trkpt lat="48.2532" lon="-3.58033">
        <ele>208</ele>
        <time>2021-07-08T13:52:57Z</time>
      </trkpt>
      <trkpt lat="48.25311" lon="-3.58041">
        <ele>208</ele>
        <time>2021-07-08T13:52:59Z</time>
      </trkpt>
      <trkpt lat="48.25306" lon="-3.58046">
        <ele>208</ele>
        <time>2021-07-08T13:53:00Z</time>
      </trkpt>
      <trkpt lat="48.25302" lon="-3.58049">
        <ele>208</ele>
        <time>2021-07-08T13:53:01Z</time>
      </trkpt>
      <trkpt lat="48.25297" lon="-3.58053">
        <ele>207</ele>
        <time>2021-07-08T13:53:02Z</time>
      </trkpt>
      <trkpt lat="48.25292" lon="-3.58057">
        <ele>207</ele>
        <time>2021-07-08T13:53:03Z</time>
      </trkpt>
      <trkpt lat="48.25288" lon="-3.58061">
        <ele>207</ele>
        <time>2021-07-08T13:53:04Z</time>
      </trkpt>
      <trkpt lat="48.25283" lon="-3.58065">
        <ele>207</ele>
        <time>2021-07-08T13:53:05Z</time>
      </trkpt>
      <trkpt lat="48.25279" lon="-3.58069">
        <ele>207</ele>
        <time>2021-07-08T13:53:06Z</time>
      </trkpt>
      <trkpt lat="48.25275" lon="-3.58073">
        <ele>207</ele>
        <time>2021-07-08T13:53:07Z</time>
      </trkpt>
      <trkpt lat="48.25271" lon="-3.58077">
        <ele>207</ele>
        <time>2021-07-08T13:53:08Z</time>
      </trkpt>
      <trkpt lat="48.25266" lon="-3.58081">
        <ele>207</ele>
        <time>2021-07-08T13:53:09Z</time>
      </trkpt>
      <trkpt lat="48.25261" lon="-3.58085">
        <ele>206</ele>
        <time>2021-07-08T13:53:10Z</time>
      </trkpt>
      <trkpt lat="48.25257" lon="-3.5809">
        <ele>206</ele>
        <time>2021-07-08T13:53:11Z</time>
      </trkpt>
      <trkpt lat="48.25253" lon="-3.58095">
        <ele>206</ele>
        <time>2021-07-08T13:53:12Z</time>
      </trkpt>
      <trkpt lat="48.25248" lon="-3.58099">
        <ele>206</ele>
        <time>2021-07-08T13:53:13Z</time>
      </trkpt>
      <trkpt lat="48.25244" lon="-3.58104">
        <ele>206</ele>
        <time>2021-07-08T13:53:14Z</time>
      </trkpt>
      <trkpt lat="48.2524" lon="-3.58109">
        <ele>206</ele>
        <time>2021-07-08T13:53:15Z</time>
      </trkpt>
      <trkpt lat="48.25236" lon="-3.58114">
        <ele>206</ele>
        <time>2021-07-08T13:53:16Z</time>
      </trkpt>
      <trkpt lat="48.25232" lon="-3.58118">
        <ele>205</ele>
        <time>2021-07-08T13:53:17Z</time>
      </trkpt>
      <trkpt lat="48.25228" lon="-3.58124">
        <ele>205</ele>
        <time>2021-07-08T13:53:18Z</time>
      </trkpt>
      <trkpt lat="48.25225" lon="-3.58129">
        <ele>205</ele>
        <time>2021-07-08T13:53:19Z</time>
      </trkpt>
      <trkpt lat="48.25221" lon="-3.58134">
        <ele>205</ele>
        <time>2021-07-08T13:53:20Z</time>
      </trkpt>
      <trkpt lat="48.25212" lon="-3.58144">
        <ele>205</ele>
        <time>2021-07-08T13:53:22Z</time>
      </trkpt>
      <trkpt lat="48.25205" lon="-3.58155">
        <ele>205</ele>
        <time>2021-07-08T13:53:24Z</time>
      </trkpt>
      <trkpt lat="48.25198" lon="-3.58166">
        <ele>205</ele>
        <time>2021-07-08T13:53:26Z</time>
      </trkpt>
      <trkpt lat="48.2519" lon="-3.58179">
        <ele>205</ele>
        <time>2021-07-08T13:53:28Z</time>
      </trkpt>
      <trkpt lat="48.25181" lon="-3.58192">
        <ele>205</ele>
        <time>2021-07-08T13:53:30Z</time>
      </trkpt>
      <trkpt lat="48.25173" lon="-3.58205">
        <ele>204</ele>
        <time>2021-07-08T13:53:32Z</time>
      </trkpt>
      <trkpt lat="48.2517" lon="-3.5821">
        <ele>204</ele>
        <time>2021-07-08T13:53:33Z</time>
      </trkpt>
      <trkpt lat="48.25166" lon="-3.58216">
        <ele>204</ele>
        <time>2021-07-08T13:53:34Z</time>
      </trkpt>
      <trkpt lat="48.25163" lon="-3.58222">
        <ele>204</ele>
        <time>2021-07-08T13:53:35Z</time>
      </trkpt>
      <trkpt lat="48.25159" lon="-3.58227">
        <ele>204</ele>
        <time>2021-07-08T13:53:36Z</time>
      </trkpt>
      <trkpt lat="48.25156" lon="-3.58232">
        <ele>204</ele>
        <time>2021-07-08T13:53:37Z</time>
      </trkpt>
      <trkpt lat="48.25152" lon="-3.58237">
        <ele>204</ele>
        <time>2021-07-08T13:53:38Z</time>
      </trkpt>
      <trkpt lat="48.25149" lon="-3.58243">
        <ele>203</ele>
        <time>2021-07-08T13:53:39Z</time>
      </trkpt>
      <trkpt lat="48.25146" lon="-3.58248">
        <ele>203</ele>
        <time>2021-07-08T13:53:40Z</time>
      </trkpt>
      <trkpt lat="48.25143" lon="-3.58253">
        <ele>202</ele>
        <time>2021-07-08T13:53:41Z</time>
      </trkpt>
      <trkpt lat="48.2514" lon="-3.58259">
        <ele>202</ele>
        <time>2021-07-08T13:53:42Z</time>
      </trkpt>
      <trkpt lat="48.25137" lon="-3.58264">
        <ele>202</ele>
        <time>2021-07-08T13:53:43Z</time>
      </trkpt>
      <trkpt lat="48.25133" lon="-3.58269">
        <ele>202</ele>
        <time>2021-07-08T13:53:44Z</time>
      </trkpt>
      <trkpt lat="48.2513" lon="-3.58274">
        <ele>202</ele>
        <time>2021-07-08T13:53:45Z</time>
      </trkpt>
      <trkpt lat="48.25126" lon="-3.58279">
        <ele>202</ele>
        <time>2021-07-08T13:53:46Z</time>
      </trkpt>
      <trkpt lat="48.25123" lon="-3.58284">
        <ele>202</ele>
        <time>2021-07-08T13:53:47Z</time>
      </trkpt>
      <trkpt lat="48.2512" lon="-3.58289">
        <ele>202</ele>
        <time>2021-07-08T13:53:48Z</time>
      </trkpt>
      <trkpt lat="48.25117" lon="-3.58293">
        <ele>202</ele>
        <time>2021-07-08T13:53:49Z</time>
      </trkpt>
      <trkpt lat="48.25114" lon="-3.58297">
        <ele>202</ele>
        <time>2021-07-08T13:53:50Z</time>
      </trkpt>
      <trkpt lat="48.25111" lon="-3.58301">
        <ele>201</ele>
        <time>2021-07-08T13:53:51Z</time>
      </trkpt>
      <trkpt lat="48.25108" lon="-3.58305">
        <ele>201</ele>
        <time>2021-07-08T13:53:52Z</time>
      </trkpt>
      <trkpt lat="48.25104" lon="-3.58309">
        <ele>201</ele>
        <time>2021-07-08T13:53:53Z</time>
      </trkpt>
      <trkpt lat="48.25097" lon="-3.58315">
        <ele>201</ele>
        <time>2021-07-08T13:53:55Z</time>
      </trkpt>
      <trkpt lat="48.25093" lon="-3.58319">
        <ele>201</ele>
        <time>2021-07-08T13:53:56Z</time>
      </trkpt>
      <trkpt lat="48.25089" lon="-3.58322">
        <ele>201</ele>
        <time>2021-07-08T13:53:57Z</time>
      </trkpt>
      <trkpt lat="48.25085" lon="-3.58324">
        <ele>201</ele>
        <time>2021-07-08T13:53:58Z</time>
      </trkpt>
      <trkpt lat="48.25081" lon="-3.58327">
        <ele>201</ele>
        <time>2021-07-08T13:53:59Z</time>
      </trkpt>
      <trkpt lat="48.25078" lon="-3.58329">
        <ele>200</ele>
        <time>2021-07-08T13:54:00Z</time>
      </trkpt>
      <trkpt lat="48.25074" lon="-3.58331">
        <ele>200</ele>
        <time>2021-07-08T13:54:01Z</time>
      </trkpt>
      <trkpt lat="48.25072" lon="-3.58333">
        <ele>200</ele>
        <time>2021-07-08T13:54:02Z</time>
      </trkpt>
      <trkpt lat="48.2507" lon="-3.58334">
        <ele>201</ele>
        <time>2021-07-08T13:54:03Z</time>
      </trkpt>
      <trkpt lat="48.25068" lon="-3.58335">
        <ele>201</ele>
        <time>2021-07-08T13:54:04Z</time>
      </trkpt>
      <trkpt lat="48.25066" lon="-3.58335">
        <ele>201</ele>
        <time>2021-07-08T13:54:06Z</time>
      </trkpt>
      <trkpt lat="48.25066" lon="-3.58335">
        <ele>200</ele>
        <time>2021-07-08T13:54:14Z</time>
      </trkpt>
      <trkpt lat="48.25058" lon="-3.58337">
        <ele>200</ele>
        <time>2021-07-08T13:54:31Z</time>
      </trkpt>
      <trkpt lat="48.25054" lon="-3.5834">
        <ele>200</ele>
        <time>2021-07-08T13:54:33Z</time>
      </trkpt>
      <trkpt lat="48.25052" lon="-3.58341">
        <ele>200</ele>
        <time>2021-07-08T13:54:34Z</time>
      </trkpt>
      <trkpt lat="48.2505" lon="-3.58342">
        <ele>200</ele>
        <time>2021-07-08T13:54:35Z</time>
      </trkpt>
      <trkpt lat="48.25047" lon="-3.58343">
        <ele>199</ele>
        <time>2021-07-08T13:54:37Z</time>
      </trkpt>
      <trkpt lat="48.25045" lon="-3.58342">
        <ele>199</ele>
        <time>2021-07-08T13:54:38Z</time>
      </trkpt>
      <trkpt lat="48.25042" lon="-3.58343">
        <ele>199</ele>
        <time>2021-07-08T13:54:39Z</time>
      </trkpt>
      <trkpt lat="48.2504" lon="-3.58344">
        <ele>199</ele>
        <time>2021-07-08T13:54:40Z</time>
      </trkpt>
      <trkpt lat="48.25037" lon="-3.58345">
        <ele>199</ele>
        <time>2021-07-08T13:54:41Z</time>
      </trkpt>
      <trkpt lat="48.25034" lon="-3.58346">
        <ele>199</ele>
        <time>2021-07-08T13:54:42Z</time>
      </trkpt>
      <trkpt lat="48.2503" lon="-3.58346">
        <ele>199</ele>
        <time>2021-07-08T13:54:43Z</time>
      </trkpt>
      <trkpt lat="48.25027" lon="-3.58347">
        <ele>199</ele>
        <time>2021-07-08T13:54:44Z</time>
      </trkpt>
      <trkpt lat="48.25023" lon="-3.58347">
        <ele>199</ele>
        <time>2021-07-08T13:54:45Z</time>
      </trkpt>
      <trkpt lat="48.25019" lon="-3.58348">
        <ele>199</ele>
        <time>2021-07-08T13:54:46Z</time>
      </trkpt>
      <trkpt lat="48.25015" lon="-3.58349">
        <ele>199</ele>
        <time>2021-07-08T13:54:47Z</time>
      </trkpt>
      <trkpt lat="48.25011" lon="-3.58349">
        <ele>199</ele>
        <time>2021-07-08T13:54:48Z</time>
      </trkpt>
      <trkpt lat="48.25006" lon="-3.58349">
        <ele>199</ele>
        <time>2021-07-08T13:54:49Z</time>
      </trkpt>
      <trkpt lat="48.25002" lon="-3.5835">
        <ele>199</ele>
        <time>2021-07-08T13:54:50Z</time>
      </trkpt>
      <trkpt lat="48.24993" lon="-3.58349">
        <ele>199</ele>
        <time>2021-07-08T13:54:52Z</time>
      </trkpt>
      <trkpt lat="48.24988" lon="-3.58349">
        <ele>199</ele>
        <time>2021-07-08T13:54:53Z</time>
      </trkpt>
      <trkpt lat="48.24983" lon="-3.58349">
        <ele>199</ele>
        <time>2021-07-08T13:54:54Z</time>
      </trkpt>
      <trkpt lat="48.24978" lon="-3.58348">
        <ele>199</ele>
        <time>2021-07-08T13:54:55Z</time>
      </trkpt>
      <trkpt lat="48.24973" lon="-3.58347">
        <ele>199</ele>
        <time>2021-07-08T13:54:56Z</time>
      </trkpt>
      <trkpt lat="48.24968" lon="-3.58345">
        <ele>198</ele>
        <time>2021-07-08T13:54:57Z</time>
      </trkpt>
      <trkpt lat="48.24963" lon="-3.58343">
        <ele>198</ele>
        <time>2021-07-08T13:54:58Z</time>
      </trkpt>
      <trkpt lat="48.24958" lon="-3.58341">
        <ele>197</ele>
        <time>2021-07-08T13:54:59Z</time>
      </trkpt>
      <trkpt lat="48.24953" lon="-3.58338">
        <ele>197</ele>
        <time>2021-07-08T13:55:00Z</time>
      </trkpt>
      <trkpt lat="48.24947" lon="-3.58336">
        <ele>197</ele>
        <time>2021-07-08T13:55:01Z</time>
      </trkpt>
      <trkpt lat="48.24942" lon="-3.58333">
        <ele>197</ele>
        <time>2021-07-08T13:55:02Z</time>
      </trkpt>
      <trkpt lat="48.24936" lon="-3.5833">
        <ele>197</ele>
        <time>2021-07-08T13:55:03Z</time>
      </trkpt>
      <trkpt lat="48.24931" lon="-3.58327">
        <ele>197</ele>
        <time>2021-07-08T13:55:04Z</time>
      </trkpt>
      <trkpt lat="48.24926" lon="-3.58325">
        <ele>197</ele>
        <time>2021-07-08T13:55:05Z</time>
      </trkpt>
      <trkpt lat="48.24921" lon="-3.58322">
        <ele>197</ele>
        <time>2021-07-08T13:55:06Z</time>
      </trkpt>
      <trkpt lat="48.24916" lon="-3.58319">
        <ele>197</ele>
        <time>2021-07-08T13:55:07Z</time>
      </trkpt>
      <trkpt lat="48.24911" lon="-3.58316">
        <ele>197</ele>
        <time>2021-07-08T13:55:08Z</time>
      </trkpt>
      <trkpt lat="48.24906" lon="-3.58314">
        <ele>197</ele>
        <time>2021-07-08T13:55:09Z</time>
      </trkpt>
      <trkpt lat="48.24901" lon="-3.58311">
        <ele>196</ele>
        <time>2021-07-08T13:55:11Z</time>
      </trkpt>
      <trkpt lat="48.24896" lon="-3.58308">
        <ele>196</ele>
        <time>2021-07-08T13:55:11Z</time>
      </trkpt>
      <trkpt lat="48.24891" lon="-3.58306">
        <ele>196</ele>
        <time>2021-07-08T13:55:12Z</time>
      </trkpt>
      <trkpt lat="48.24886" lon="-3.58303">
        <ele>196</ele>
        <time>2021-07-08T13:55:13Z</time>
      </trkpt>
      <trkpt lat="48.2488" lon="-3.58301">
        <ele>196</ele>
        <time>2021-07-08T13:55:14Z</time>
      </trkpt>
      <trkpt lat="48.24875" lon="-3.58299">
        <ele>196</ele>
        <time>2021-07-08T13:55:16Z</time>
      </trkpt>
      <trkpt lat="48.2487" lon="-3.58298">
        <ele>196</ele>
        <time>2021-07-08T13:55:17Z</time>
      </trkpt>
      <trkpt lat="48.24865" lon="-3.58297">
        <ele>196</ele>
        <time>2021-07-08T13:55:17Z</time>
      </trkpt>
      <trkpt lat="48.24859" lon="-3.58296">
        <ele>196</ele>
        <time>2021-07-08T13:55:18Z</time>
      </trkpt>
      <trkpt lat="48.24854" lon="-3.58295">
        <ele>196</ele>
        <time>2021-07-08T13:55:19Z</time>
      </trkpt>
      <trkpt lat="48.24849" lon="-3.58295">
        <ele>196</ele>
        <time>2021-07-08T13:55:20Z</time>
      </trkpt>
      <trkpt lat="48.24843" lon="-3.58294">
        <ele>196</ele>
        <time>2021-07-08T13:55:21Z</time>
      </trkpt>
      <trkpt lat="48.24838" lon="-3.58294">
        <ele>196</ele>
        <time>2021-07-08T13:55:22Z</time>
      </trkpt>
      <trkpt lat="48.24833" lon="-3.58294">
        <ele>196</ele>
        <time>2021-07-08T13:55:23Z</time>
      </trkpt>
      <trkpt lat="48.24827" lon="-3.58293">
        <ele>196</ele>
        <time>2021-07-08T13:55:24Z</time>
      </trkpt>
      <trkpt lat="48.24822" lon="-3.58294">
        <ele>196</ele>
        <time>2021-07-08T13:55:25Z</time>
      </trkpt>
      <trkpt lat="48.24817" lon="-3.58294">
        <ele>195</ele>
        <time>2021-07-08T13:55:26Z</time>
      </trkpt>
      <trkpt lat="48.24812" lon="-3.58295">
        <ele>195</ele>
        <time>2021-07-08T13:55:27Z</time>
      </trkpt>
      <trkpt lat="48.24808" lon="-3.58296">
        <ele>195</ele>
        <time>2021-07-08T13:55:28Z</time>
      </trkpt>
      <trkpt lat="48.24803" lon="-3.58298">
        <ele>195</ele>
        <time>2021-07-08T13:55:29Z</time>
      </trkpt>
      <trkpt lat="48.24797" lon="-3.58299">
        <ele>194</ele>
        <time>2021-07-08T13:55:30Z</time>
      </trkpt>
      <trkpt lat="48.24792" lon="-3.58302">
        <ele>194</ele>
        <time>2021-07-08T13:55:31Z</time>
      </trkpt>
      <trkpt lat="48.24786" lon="-3.58305">
        <ele>194</ele>
        <time>2021-07-08T13:55:32Z</time>
      </trkpt>
      <trkpt lat="48.24781" lon="-3.58307">
        <ele>194</ele>
        <time>2021-07-08T13:55:33Z</time>
      </trkpt>
      <trkpt lat="48.24777" lon="-3.5831">
        <ele>194</ele>
        <time>2021-07-08T13:55:34Z</time>
      </trkpt>
      <trkpt lat="48.24772" lon="-3.58313">
        <ele>194</ele>
        <time>2021-07-08T13:55:35Z</time>
      </trkpt>
      <trkpt lat="48.24767" lon="-3.58317">
        <ele>194</ele>
        <time>2021-07-08T13:55:36Z</time>
      </trkpt>
      <trkpt lat="48.24762" lon="-3.5832">
        <ele>193</ele>
        <time>2021-07-08T13:55:37Z</time>
      </trkpt>
      <trkpt lat="48.24757" lon="-3.58324">
        <ele>193</ele>
        <time>2021-07-08T13:55:38Z</time>
      </trkpt>
      <trkpt lat="48.24752" lon="-3.58328">
        <ele>193</ele>
        <time>2021-07-08T13:55:39Z</time>
      </trkpt>
      <trkpt lat="48.24747" lon="-3.58331">
        <ele>193</ele>
        <time>2021-07-08T13:55:40Z</time>
      </trkpt>
      <trkpt lat="48.24743" lon="-3.58334">
        <ele>193</ele>
        <time>2021-07-08T13:55:41Z</time>
      </trkpt>
      <trkpt lat="48.24738" lon="-3.58338">
        <ele>193</ele>
        <time>2021-07-08T13:55:42Z</time>
      </trkpt>
      <trkpt lat="48.24734" lon="-3.58342">
        <ele>193</ele>
        <time>2021-07-08T13:55:43Z</time>
      </trkpt>
      <trkpt lat="48.24729" lon="-3.58345">
        <ele>193</ele>
        <time>2021-07-08T13:55:44Z</time>
      </trkpt>
      <trkpt lat="48.24725" lon="-3.58348">
        <ele>193</ele>
        <time>2021-07-08T13:55:45Z</time>
      </trkpt>
      <trkpt lat="48.2472" lon="-3.58352">
        <ele>193</ele>
        <time>2021-07-08T13:55:46Z</time>
      </trkpt>
      <trkpt lat="48.24716" lon="-3.58355">
        <ele>193</ele>
        <time>2021-07-08T13:55:47Z</time>
      </trkpt>
      <trkpt lat="48.24712" lon="-3.58359">
        <ele>192</ele>
        <time>2021-07-08T13:55:48Z</time>
      </trkpt>
      <trkpt lat="48.24707" lon="-3.58362">
        <ele>192</ele>
        <time>2021-07-08T13:55:49Z</time>
      </trkpt>
      <trkpt lat="48.24703" lon="-3.58366">
        <ele>192</ele>
        <time>2021-07-08T13:55:50Z</time>
      </trkpt>
      <trkpt lat="48.24699" lon="-3.5837">
        <ele>192</ele>
        <time>2021-07-08T13:55:51Z</time>
      </trkpt>
      <trkpt lat="48.24695" lon="-3.58373">
        <ele>192</ele>
        <time>2021-07-08T13:55:52Z</time>
      </trkpt>
      <trkpt lat="48.24691" lon="-3.58375">
        <ele>191</ele>
        <time>2021-07-08T13:55:53Z</time>
      </trkpt>
      <trkpt lat="48.24688" lon="-3.58379">
        <ele>191</ele>
        <time>2021-07-08T13:55:54Z</time>
      </trkpt>
      <trkpt lat="48.24676" lon="-3.58388">
        <ele>191</ele>
        <time>2021-07-08T13:55:57Z</time>
      </trkpt>
      <trkpt lat="48.24671" lon="-3.58392">
        <ele>191</ele>
        <time>2021-07-08T13:55:58Z</time>
      </trkpt>
      <trkpt lat="48.24666" lon="-3.58395">
        <ele>190</ele>
        <time>2021-07-08T13:55:59Z</time>
      </trkpt>
      <trkpt lat="48.24662" lon="-3.58399">
        <ele>190</ele>
        <time>2021-07-08T13:56:00Z</time>
      </trkpt>
      <trkpt lat="48.24658" lon="-3.58403">
        <ele>190</ele>
        <time>2021-07-08T13:56:01Z</time>
      </trkpt>
      <trkpt lat="48.24653" lon="-3.58407">
        <ele>190</ele>
        <time>2021-07-08T13:56:02Z</time>
      </trkpt>
      <trkpt lat="48.24649" lon="-3.58412">
        <ele>190</ele>
        <time>2021-07-08T13:56:03Z</time>
      </trkpt>
      <trkpt lat="48.24645" lon="-3.58415">
        <ele>190</ele>
        <time>2021-07-08T13:56:04Z</time>
      </trkpt>
      <trkpt lat="48.24642" lon="-3.58419">
        <ele>190</ele>
        <time>2021-07-08T13:56:05Z</time>
      </trkpt>
      <trkpt lat="48.24638" lon="-3.58422">
        <ele>190</ele>
        <time>2021-07-08T13:56:06Z</time>
      </trkpt>
      <trkpt lat="48.24634" lon="-3.58426">
        <ele>190</ele>
        <time>2021-07-08T13:56:07Z</time>
      </trkpt>
      <trkpt lat="48.24631" lon="-3.58431">
        <ele>189</ele>
        <time>2021-07-08T13:56:08Z</time>
      </trkpt>
      <trkpt lat="48.24627" lon="-3.58435">
        <ele>189</ele>
        <time>2021-07-08T13:56:09Z</time>
      </trkpt>
      <trkpt lat="48.24624" lon="-3.58438">
        <ele>189</ele>
        <time>2021-07-08T13:56:10Z</time>
      </trkpt>
      <trkpt lat="48.24621" lon="-3.58442">
        <ele>189</ele>
        <time>2021-07-08T13:56:11Z</time>
      </trkpt>
      <trkpt lat="48.24618" lon="-3.58445">
        <ele>189</ele>
        <time>2021-07-08T13:56:12Z</time>
      </trkpt>
      <trkpt lat="48.24615" lon="-3.5845">
        <ele>189</ele>
        <time>2021-07-08T13:56:13Z</time>
      </trkpt>
      <trkpt lat="48.24612" lon="-3.58454">
        <ele>188</ele>
        <time>2021-07-08T13:56:14Z</time>
      </trkpt>
      <trkpt lat="48.24609" lon="-3.58458">
        <ele>188</ele>
        <time>2021-07-08T13:56:15Z</time>
      </trkpt>
      <trkpt lat="48.24606" lon="-3.58462">
        <ele>188</ele>
        <time>2021-07-08T13:56:17Z</time>
      </trkpt>
      <trkpt lat="48.24603" lon="-3.58467">
        <ele>189</ele>
        <time>2021-07-08T13:56:17Z</time>
      </trkpt>
      <trkpt lat="48.246" lon="-3.58471">
        <ele>189</ele>
        <time>2021-07-08T13:56:18Z</time>
      </trkpt>
      <trkpt lat="48.24597" lon="-3.58476">
        <ele>189</ele>
        <time>2021-07-08T13:56:19Z</time>
      </trkpt>
      <trkpt lat="48.24595" lon="-3.58482">
        <ele>189</ele>
        <time>2021-07-08T13:56:20Z</time>
      </trkpt>
      <trkpt lat="48.24591" lon="-3.58488">
        <ele>189</ele>
        <time>2021-07-08T13:56:21Z</time>
      </trkpt>
      <trkpt lat="48.24589" lon="-3.58494">
        <ele>189</ele>
        <time>2021-07-08T13:56:22Z</time>
      </trkpt>
      <trkpt lat="48.24587" lon="-3.585">
        <ele>189</ele>
        <time>2021-07-08T13:56:23Z</time>
      </trkpt>
      <trkpt lat="48.24585" lon="-3.58506">
        <ele>189</ele>
        <time>2021-07-08T13:56:24Z</time>
      </trkpt>
      <trkpt lat="48.24582" lon="-3.58512">
        <ele>189</ele>
        <time>2021-07-08T13:56:25Z</time>
      </trkpt>
      <trkpt lat="48.24548" lon="-3.58583">
        <ele>186</ele>
        <time>2021-07-08T13:56:25Z</time>
      </trkpt>
      <trkpt lat="48.2458" lon="-3.58518">
        <ele>188</ele>
        <time>2021-07-08T13:56:26Z</time>
      </trkpt>
      <trkpt lat="48.24546" lon="-3.58587">
        <ele>186</ele>
        <time>2021-07-08T13:56:26Z</time>
      </trkpt>
      <trkpt lat="48.24577" lon="-3.58524">
        <ele>188</ele>
        <time>2021-07-08T13:56:27Z</time>
      </trkpt>
      <trkpt lat="48.24544" lon="-3.5859">
        <ele>186</ele>
        <time>2021-07-08T13:56:28Z</time>
      </trkpt>
      <trkpt lat="48.24574" lon="-3.58531">
        <ele>188</ele>
        <time>2021-07-08T13:56:28Z</time>
      </trkpt>
      <trkpt lat="48.24543" lon="-3.58593">
        <ele>186</ele>
        <time>2021-07-08T13:56:29Z</time>
      </trkpt>
      <trkpt lat="48.24571" lon="-3.58537">
        <ele>188</ele>
        <time>2021-07-08T13:56:29Z</time>
      </trkpt>
      <trkpt lat="48.24542" lon="-3.58596">
        <ele>186</ele>
        <time>2021-07-08T13:56:30Z</time>
      </trkpt>
      <trkpt lat="48.24568" lon="-3.58543">
        <ele>187</ele>
        <time>2021-07-08T13:56:30Z</time>
      </trkpt>
      <trkpt lat="48.2454" lon="-3.58599">
        <ele>186</ele>
        <time>2021-07-08T13:56:30Z</time>
      </trkpt>
      <trkpt lat="48.24565" lon="-3.58549">
        <ele>187</ele>
        <time>2021-07-08T13:56:31Z</time>
      </trkpt>
      <trkpt lat="48.24539" lon="-3.58602">
        <ele>186</ele>
        <time>2021-07-08T13:56:32Z</time>
      </trkpt>
      <trkpt lat="48.24562" lon="-3.58555">
        <ele>187</ele>
        <time>2021-07-08T13:56:32Z</time>
      </trkpt>
      <trkpt lat="48.24536" lon="-3.58606">
        <ele>185</ele>
        <time>2021-07-08T13:56:32Z</time>
      </trkpt>
      <trkpt lat="48.24559" lon="-3.5856">
        <ele>187</ele>
        <time>2021-07-08T13:56:33Z</time>
      </trkpt>
      <trkpt lat="48.24534" lon="-3.58611">
        <ele>185</ele>
        <time>2021-07-08T13:56:33Z</time>
      </trkpt>
      <trkpt lat="48.24557" lon="-3.58566">
        <ele>187</ele>
        <time>2021-07-08T13:56:34Z</time>
      </trkpt>
      <trkpt lat="48.2453" lon="-3.58617">
        <ele>185</ele>
        <time>2021-07-08T13:56:34Z</time>
      </trkpt>
      <trkpt lat="48.24555" lon="-3.58571">
        <ele>187</ele>
        <time>2021-07-08T13:56:35Z</time>
      </trkpt>
      <trkpt lat="48.24528" lon="-3.58622">
        <ele>185</ele>
        <time>2021-07-08T13:56:35Z</time>
      </trkpt>
      <trkpt lat="48.24554" lon="-3.58575">
        <ele>187</ele>
        <time>2021-07-08T13:56:36Z</time>
      </trkpt>
      <trkpt lat="48.24525" lon="-3.58626">
        <ele>185</ele>
        <time>2021-07-08T13:56:36Z</time>
      </trkpt>
      <trkpt lat="48.24523" lon="-3.58631">
        <ele>185</ele>
        <time>2021-07-08T13:56:37Z</time>
      </trkpt>
      <trkpt lat="48.24521" lon="-3.58636">
        <ele>185</ele>
        <time>2021-07-08T13:56:39Z</time>
      </trkpt>
      <trkpt lat="48.24553" lon="-3.58577">
        <ele>187</ele>
        <time>2021-07-08T13:56:39Z</time>
      </trkpt>
      <trkpt lat="48.24519" lon="-3.58641">
        <ele>185</ele>
        <time>2021-07-08T13:56:39Z</time>
      </trkpt>
      <trkpt lat="48.24515" lon="-3.5865">
        <ele>185</ele>
        <time>2021-07-08T13:56:42Z</time>
      </trkpt>
      <trkpt lat="48.24513" lon="-3.58655">
        <ele>185</ele>
        <time>2021-07-08T13:56:43Z</time>
      </trkpt>
      <trkpt lat="48.24511" lon="-3.58659">
        <ele>185</ele>
        <time>2021-07-08T13:56:44Z</time>
      </trkpt>
      <trkpt lat="48.24509" lon="-3.58666">
        <ele>185</ele>
        <time>2021-07-08T13:56:46Z</time>
      </trkpt>
      <trkpt lat="48.24508" lon="-3.58669">
        <ele>185</ele>
        <time>2021-07-08T13:56:47Z</time>
      </trkpt>
      <trkpt lat="48.24553" lon="-3.58577">
        <ele>187</ele>
        <time>2021-07-08T13:56:47Z</time>
      </trkpt>
      <trkpt lat="48.24507" lon="-3.58672">
        <ele>185</ele>
        <time>2021-07-08T13:56:47Z</time>
      </trkpt>
      <trkpt lat="48.24506" lon="-3.58672">
        <ele>185</ele>
        <time>2021-07-08T13:58:02Z</time>
      </trkpt>
      <trkpt lat="48.24502" lon="-3.58679">
        <ele>185</ele>
        <time>2021-07-08T13:58:09Z</time>
      </trkpt>
      <trkpt lat="48.24501" lon="-3.58682">
        <ele>185</ele>
        <time>2021-07-08T13:58:11Z</time>
      </trkpt>
      <trkpt lat="48.24499" lon="-3.58684">
        <ele>185</ele>
        <time>2021-07-08T13:58:11Z</time>
      </trkpt>
      <trkpt lat="48.24498" lon="-3.58689">
        <ele>185</ele>
        <time>2021-07-08T13:58:13Z</time>
      </trkpt>
      <trkpt lat="48.24496" lon="-3.58691">
        <ele>185</ele>
        <time>2021-07-08T13:58:14Z</time>
      </trkpt>
      <trkpt lat="48.24495" lon="-3.58693">
        <ele>185</ele>
        <time>2021-07-08T13:58:15Z</time>
      </trkpt>
      <trkpt lat="48.24493" lon="-3.58696">
        <ele>186</ele>
        <time>2021-07-08T13:58:16Z</time>
      </trkpt>
      <trkpt lat="48.24491" lon="-3.58698">
        <ele>186</ele>
        <time>2021-07-08T13:58:17Z</time>
      </trkpt>
      <trkpt lat="48.24489" lon="-3.58702">
        <ele>186</ele>
        <time>2021-07-08T13:58:18Z</time>
      </trkpt>
      <trkpt lat="48.24488" lon="-3.58705">
        <ele>186</ele>
        <time>2021-07-08T13:58:19Z</time>
      </trkpt>
      <trkpt lat="48.24486" lon="-3.58708">
        <ele>185</ele>
        <time>2021-07-08T13:58:20Z</time>
      </trkpt>
      <trkpt lat="48.24485" lon="-3.58712">
        <ele>185</ele>
        <time>2021-07-08T13:58:21Z</time>
      </trkpt>
      <trkpt lat="48.24483" lon="-3.58716">
        <ele>185</ele>
        <time>2021-07-08T13:58:22Z</time>
      </trkpt>
      <trkpt lat="48.24482" lon="-3.5872">
        <ele>185</ele>
        <time>2021-07-08T13:58:23Z</time>
      </trkpt>
      <trkpt lat="48.2448" lon="-3.58724">
        <ele>185</ele>
        <time>2021-07-08T13:58:24Z</time>
      </trkpt>
      <trkpt lat="48.24477" lon="-3.58728">
        <ele>186</ele>
        <time>2021-07-08T13:58:25Z</time>
      </trkpt>
      <trkpt lat="48.24475" lon="-3.58732">
        <ele>186</ele>
        <time>2021-07-08T13:58:26Z</time>
      </trkpt>
      <trkpt lat="48.24473" lon="-3.58737">
        <ele>186</ele>
        <time>2021-07-08T13:58:27Z</time>
      </trkpt>
      <trkpt lat="48.24469" lon="-3.58747">
        <ele>186</ele>
        <time>2021-07-08T13:58:29Z</time>
      </trkpt>
      <trkpt lat="48.24467" lon="-3.58752">
        <ele>186</ele>
        <time>2021-07-08T13:58:30Z</time>
      </trkpt>
      <trkpt lat="48.24464" lon="-3.58758">
        <ele>186</ele>
        <time>2021-07-08T13:58:31Z</time>
      </trkpt>
      <trkpt lat="48.24461" lon="-3.58762">
        <ele>185</ele>
        <time>2021-07-08T13:58:32Z</time>
      </trkpt>
      <trkpt lat="48.24458" lon="-3.58766">
        <ele>185</ele>
        <time>2021-07-08T13:58:33Z</time>
      </trkpt>
      <trkpt lat="48.24455" lon="-3.5877">
        <ele>185</ele>
        <time>2021-07-08T13:58:34Z</time>
      </trkpt>
      <trkpt lat="48.24453" lon="-3.58775">
        <ele>185</ele>
        <time>2021-07-08T13:58:35Z</time>
      </trkpt>
      <trkpt lat="48.24451" lon="-3.58779">
        <ele>186</ele>
        <time>2021-07-08T13:58:36Z</time>
      </trkpt>
      <trkpt lat="48.24448" lon="-3.58784">
        <ele>186</ele>
        <time>2021-07-08T13:58:37Z</time>
      </trkpt>
      <trkpt lat="48.24446" lon="-3.5879">
        <ele>186</ele>
        <time>2021-07-08T13:58:38Z</time>
      </trkpt>
      <trkpt lat="48.24445" lon="-3.58795">
        <ele>186</ele>
        <time>2021-07-08T13:58:39Z</time>
      </trkpt>
      <trkpt lat="48.24443" lon="-3.58801">
        <ele>186</ele>
        <time>2021-07-08T13:58:40Z</time>
      </trkpt>
      <trkpt lat="48.24441" lon="-3.58806">
        <ele>186</ele>
        <time>2021-07-08T13:58:41Z</time>
      </trkpt>
      <trkpt lat="48.24438" lon="-3.58812">
        <ele>186</ele>
        <time>2021-07-08T13:58:42Z</time>
      </trkpt>
      <trkpt lat="48.24436" lon="-3.58817">
        <ele>186</ele>
        <time>2021-07-08T13:58:43Z</time>
      </trkpt>
      <trkpt lat="48.24434" lon="-3.58822">
        <ele>186</ele>
        <time>2021-07-08T13:58:44Z</time>
      </trkpt>
      <trkpt lat="48.24431" lon="-3.58828">
        <ele>186</ele>
        <time>2021-07-08T13:58:45Z</time>
      </trkpt>
      <trkpt lat="48.24429" lon="-3.58833">
        <ele>186</ele>
        <time>2021-07-08T13:58:46Z</time>
      </trkpt>
      <trkpt lat="48.24424" lon="-3.58843">
        <ele>186</ele>
        <time>2021-07-08T13:58:48Z</time>
      </trkpt>
      <trkpt lat="48.24421" lon="-3.58848">
        <ele>186</ele>
        <time>2021-07-08T13:58:49Z</time>
      </trkpt>
      <trkpt lat="48.24419" lon="-3.58853">
        <ele>186</ele>
        <time>2021-07-08T13:58:50Z</time>
      </trkpt>
      <trkpt lat="48.24417" lon="-3.58858">
        <ele>186</ele>
        <time>2021-07-08T13:58:51Z</time>
      </trkpt>
      <trkpt lat="48.24414" lon="-3.58863">
        <ele>185</ele>
        <time>2021-07-08T13:58:52Z</time>
      </trkpt>
      <trkpt lat="48.24412" lon="-3.58868">
        <ele>185</ele>
        <time>2021-07-08T13:58:53Z</time>
      </trkpt>
      <trkpt lat="48.24409" lon="-3.58873">
        <ele>185</ele>
        <time>2021-07-08T13:58:54Z</time>
      </trkpt>
      <trkpt lat="48.24406" lon="-3.58879">
        <ele>185</ele>
        <time>2021-07-08T13:58:55Z</time>
      </trkpt>
      <trkpt lat="48.24404" lon="-3.58884">
        <ele>185</ele>
        <time>2021-07-08T13:58:56Z</time>
      </trkpt>
      <trkpt lat="48.24399" lon="-3.58897">
        <ele>184</ele>
        <time>2021-07-08T13:58:58Z</time>
      </trkpt>
      <trkpt lat="48.2439" lon="-3.58913">
        <ele>184</ele>
        <time>2021-07-08T13:59:01Z</time>
      </trkpt>
      <trkpt lat="48.24384" lon="-3.58924">
        <ele>184</ele>
        <time>2021-07-08T13:59:03Z</time>
      </trkpt>
      <trkpt lat="48.24378" lon="-3.58937">
        <ele>184</ele>
        <time>2021-07-08T13:59:05Z</time>
      </trkpt>
      <trkpt lat="48.24372" lon="-3.5895">
        <ele>183</ele>
        <time>2021-07-08T13:59:07Z</time>
      </trkpt>
      <trkpt lat="48.24367" lon="-3.58961">
        <ele>183</ele>
        <time>2021-07-08T13:59:09Z</time>
      </trkpt>
      <trkpt lat="48.24359" lon="-3.58977">
        <ele>183</ele>
        <time>2021-07-08T13:59:12Z</time>
      </trkpt>
      <trkpt lat="48.24354" lon="-3.5899">
        <ele>183</ele>
        <time>2021-07-08T13:59:14Z</time>
      </trkpt>
      <trkpt lat="48.24348" lon="-3.59003">
        <ele>182</ele>
        <time>2021-07-08T13:59:16Z</time>
      </trkpt>
      <trkpt lat="48.24344" lon="-3.5901">
        <ele>182</ele>
        <time>2021-07-08T13:59:17Z</time>
      </trkpt>
      <trkpt lat="48.24341" lon="-3.59016">
        <ele>182</ele>
        <time>2021-07-08T13:59:18Z</time>
      </trkpt>
      <trkpt lat="48.24338" lon="-3.59023">
        <ele>182</ele>
        <time>2021-07-08T13:59:19Z</time>
      </trkpt>
      <trkpt lat="48.24332" lon="-3.59039">
        <ele>181</ele>
        <time>2021-07-08T13:59:21Z</time>
      </trkpt>
      <trkpt lat="48.24326" lon="-3.59053">
        <ele>181</ele>
        <time>2021-07-08T13:59:23Z</time>
      </trkpt>
      <trkpt lat="48.24318" lon="-3.59069">
        <ele>181</ele>
        <time>2021-07-08T13:59:25Z</time>
      </trkpt>
      <trkpt lat="48.24311" lon="-3.59084">
        <ele>181</ele>
        <time>2021-07-08T13:59:27Z</time>
      </trkpt>
      <trkpt lat="48.24304" lon="-3.59098">
        <ele>181</ele>
        <time>2021-07-08T13:59:29Z</time>
      </trkpt>
      <trkpt lat="48.24297" lon="-3.59114">
        <ele>180</ele>
        <time>2021-07-08T13:59:31Z</time>
      </trkpt>
      <trkpt lat="48.24295" lon="-3.59122">
        <ele>180</ele>
        <time>2021-07-08T13:59:32Z</time>
      </trkpt>
      <trkpt lat="48.24292" lon="-3.59129">
        <ele>180</ele>
        <time>2021-07-08T13:59:33Z</time>
      </trkpt>
      <trkpt lat="48.24289" lon="-3.59136">
        <ele>180</ele>
        <time>2021-07-08T13:59:34Z</time>
      </trkpt>
      <trkpt lat="48.24287" lon="-3.59144">
        <ele>180</ele>
        <time>2021-07-08T13:59:35Z</time>
      </trkpt>
      <trkpt lat="48.24284" lon="-3.59151">
        <ele>180</ele>
        <time>2021-07-08T13:59:37Z</time>
      </trkpt>
      <trkpt lat="48.24282" lon="-3.59157">
        <ele>180</ele>
        <time>2021-07-08T13:59:37Z</time>
      </trkpt>
      <trkpt lat="48.2428" lon="-3.59164">
        <ele>180</ele>
        <time>2021-07-08T13:59:38Z</time>
      </trkpt>
      <trkpt lat="48.24277" lon="-3.59171">
        <ele>179</ele>
        <time>2021-07-08T13:59:39Z</time>
      </trkpt>
      <trkpt lat="48.24276" lon="-3.59177">
        <ele>179</ele>
        <time>2021-07-08T13:59:40Z</time>
      </trkpt>
      <trkpt lat="48.24274" lon="-3.59184">
        <ele>179</ele>
        <time>2021-07-08T13:59:41Z</time>
      </trkpt>
      <trkpt lat="48.24272" lon="-3.59191">
        <ele>179</ele>
        <time>2021-07-08T13:59:42Z</time>
      </trkpt>
      <trkpt lat="48.24271" lon="-3.59198">
        <ele>179</ele>
        <time>2021-07-08T13:59:43Z</time>
      </trkpt>
      <trkpt lat="48.2427" lon="-3.59205">
        <ele>179</ele>
        <time>2021-07-08T13:59:44Z</time>
      </trkpt>
      <trkpt lat="48.24269" lon="-3.59212">
        <ele>179</ele>
        <time>2021-07-08T13:59:45Z</time>
      </trkpt>
      <trkpt lat="48.24267" lon="-3.5922">
        <ele>179</ele>
        <time>2021-07-08T13:59:46Z</time>
      </trkpt>
      <trkpt lat="48.24267" lon="-3.59225">
        <ele>179</ele>
        <time>2021-07-08T13:59:47Z</time>
      </trkpt>
      <trkpt lat="48.24267" lon="-3.59232">
        <ele>179</ele>
        <time>2021-07-08T13:59:48Z</time>
      </trkpt>
      <trkpt lat="48.24267" lon="-3.59238">
        <ele>178</ele>
        <time>2021-07-08T13:59:49Z</time>
      </trkpt>
      <trkpt lat="48.24267" lon="-3.59246">
        <ele>178</ele>
        <time>2021-07-08T13:59:50Z</time>
      </trkpt>
      <trkpt lat="48.24267" lon="-3.59253">
        <ele>178</ele>
        <time>2021-07-08T13:59:51Z</time>
      </trkpt>
      <trkpt lat="48.24267" lon="-3.5926">
        <ele>178</ele>
        <time>2021-07-08T13:59:52Z</time>
      </trkpt>
      <trkpt lat="48.24267" lon="-3.59267">
        <ele>178</ele>
        <time>2021-07-08T13:59:53Z</time>
      </trkpt>
      <trkpt lat="48.24267" lon="-3.59275">
        <ele>178</ele>
        <time>2021-07-08T13:59:54Z</time>
      </trkpt>
      <trkpt lat="48.24268" lon="-3.59282">
        <ele>178</ele>
        <time>2021-07-08T13:59:55Z</time>
      </trkpt>
      <trkpt lat="48.24268" lon="-3.5929">
        <ele>178</ele>
        <time>2021-07-08T13:59:56Z</time>
      </trkpt>
      <trkpt lat="48.24269" lon="-3.59297">
        <ele>177</ele>
        <time>2021-07-08T13:59:57Z</time>
      </trkpt>
      <trkpt lat="48.24271" lon="-3.59311">
        <ele>177</ele>
        <time>2021-07-08T13:59:59Z</time>
      </trkpt>
      <trkpt lat="48.24272" lon="-3.59317">
        <ele>178</ele>
        <time>2021-07-08T14:00:00Z</time>
      </trkpt>
      <trkpt lat="48.24272" lon="-3.59325">
        <ele>178</ele>
        <time>2021-07-08T14:00:01Z</time>
      </trkpt>
      <trkpt lat="48.24273" lon="-3.59331">
        <ele>178</ele>
        <time>2021-07-08T14:00:02Z</time>
      </trkpt>
      <trkpt lat="48.24274" lon="-3.59346">
        <ele>178</ele>
        <time>2021-07-08T14:00:04Z</time>
      </trkpt>
      <trkpt lat="48.24275" lon="-3.59352">
        <ele>178</ele>
        <time>2021-07-08T14:00:05Z</time>
      </trkpt>
      <trkpt lat="48.24276" lon="-3.59367">
        <ele>177</ele>
        <time>2021-07-08T14:00:07Z</time>
      </trkpt>
      <trkpt lat="48.24277" lon="-3.59374">
        <ele>177</ele>
        <time>2021-07-08T14:00:08Z</time>
      </trkpt>
      <trkpt lat="48.24278" lon="-3.59381">
        <ele>177</ele>
        <time>2021-07-08T14:00:09Z</time>
      </trkpt>
      <trkpt lat="48.24279" lon="-3.59388">
        <ele>177</ele>
        <time>2021-07-08T14:00:10Z</time>
      </trkpt>
      <trkpt lat="48.24279" lon="-3.59395">
        <ele>177</ele>
        <time>2021-07-08T14:00:11Z</time>
      </trkpt>
      <trkpt lat="48.24281" lon="-3.59402">
        <ele>177</ele>
        <time>2021-07-08T14:00:12Z</time>
      </trkpt>
      <trkpt lat="48.24282" lon="-3.59408">
        <ele>176</ele>
        <time>2021-07-08T14:00:13Z</time>
      </trkpt>
      <trkpt lat="48.24283" lon="-3.59415">
        <ele>176</ele>
        <time>2021-07-08T14:00:14Z</time>
      </trkpt>
      <trkpt lat="48.24284" lon="-3.59421">
        <ele>176</ele>
        <time>2021-07-08T14:00:15Z</time>
      </trkpt>
      <trkpt lat="48.24285" lon="-3.59428">
        <ele>176</ele>
        <time>2021-07-08T14:00:16Z</time>
      </trkpt>
      <trkpt lat="48.24287" lon="-3.59435">
        <ele>176</ele>
        <time>2021-07-08T14:00:17Z</time>
      </trkpt>
      <trkpt lat="48.24289" lon="-3.59442">
        <ele>176</ele>
        <time>2021-07-08T14:00:18Z</time>
      </trkpt>
      <trkpt lat="48.24291" lon="-3.5945">
        <ele>176</ele>
        <time>2021-07-08T14:00:19Z</time>
      </trkpt>
      <trkpt lat="48.24293" lon="-3.59457">
        <ele>176</ele>
        <time>2021-07-08T14:00:20Z</time>
      </trkpt>
      <trkpt lat="48.24294" lon="-3.59463">
        <ele>176</ele>
        <time>2021-07-08T14:00:21Z</time>
      </trkpt>
      <trkpt lat="48.24297" lon="-3.59472">
        <ele>175</ele>
        <time>2021-07-08T14:00:23Z</time>
      </trkpt>
      <trkpt lat="48.24298" lon="-3.59476">
        <ele>175</ele>
        <time>2021-07-08T14:00:24Z</time>
      </trkpt>
      <trkpt lat="48.24299" lon="-3.59479">
        <ele>175</ele>
        <time>2021-07-08T14:00:25Z</time>
      </trkpt>
      <trkpt lat="48.243" lon="-3.59482">
        <ele>175</ele>
        <time>2021-07-08T14:00:26Z</time>
      </trkpt>
      <trkpt lat="48.24302" lon="-3.59485">
        <ele>175</ele>
        <time>2021-07-08T14:00:28Z</time>
      </trkpt>
      <trkpt lat="48.24301" lon="-3.59497">
        <ele>174</ele>
        <time>2021-07-08T14:00:31Z</time>
      </trkpt>
      <trkpt lat="48.24302" lon="-3.59502">
        <ele>174</ele>
        <time>2021-07-08T14:00:33Z</time>
      </trkpt>
      <trkpt lat="48.24303" lon="-3.59505">
        <ele>174</ele>
        <time>2021-07-08T14:00:34Z</time>
      </trkpt>
      <trkpt lat="48.24304" lon="-3.59509">
        <ele>174</ele>
        <time>2021-07-08T14:00:35Z</time>
      </trkpt>
      <trkpt lat="48.24304" lon="-3.59513">
        <ele>174</ele>
        <time>2021-07-08T14:00:36Z</time>
      </trkpt>
      <trkpt lat="48.24305" lon="-3.59517">
        <ele>174</ele>
        <time>2021-07-08T14:00:36Z</time>
      </trkpt>
      <trkpt lat="48.24302" lon="-3.59486">
        <ele>174</ele>
        <time>2021-07-08T14:00:37Z</time>
      </trkpt>
      <trkpt lat="48.24306" lon="-3.5952">
        <ele>174</ele>
        <time>2021-07-08T14:00:38Z</time>
      </trkpt>
      <trkpt lat="48.24307" lon="-3.59524">
        <ele>174</ele>
        <time>2021-07-08T14:00:38Z</time>
      </trkpt>
      <trkpt lat="48.24308" lon="-3.59527">
        <ele>174</ele>
        <time>2021-07-08T14:00:39Z</time>
      </trkpt>
      <trkpt lat="48.24309" lon="-3.59531">
        <ele>174</ele>
        <time>2021-07-08T14:00:40Z</time>
      </trkpt>
      <trkpt lat="48.24309" lon="-3.59537">
        <ele>174</ele>
        <time>2021-07-08T14:00:42Z</time>
      </trkpt>
      <trkpt lat="48.2431" lon="-3.59542">
        <ele>174</ele>
        <time>2021-07-08T14:00:42Z</time>
      </trkpt>
      <trkpt lat="48.2431" lon="-3.59553">
        <ele>174</ele>
        <time>2021-07-08T14:00:44Z</time>
      </trkpt>
      <trkpt lat="48.2431" lon="-3.59558">
        <ele>174</ele>
        <time>2021-07-08T14:00:46Z</time>
      </trkpt>
      <trkpt lat="48.24309" lon="-3.59573">
        <ele>174</ele>
        <time>2021-07-08T14:01:54Z</time>
      </trkpt>
      <trkpt lat="48.24307" lon="-3.5959">
        <ele>173</ele>
        <time>2021-07-08T14:01:57Z</time>
      </trkpt>
      <trkpt lat="48.24307" lon="-3.59604">
        <ele>173</ele>
        <time>2021-07-08T14:01:59Z</time>
      </trkpt>
      <trkpt lat="48.24309" lon="-3.59619">
        <ele>174</ele>
        <time>2021-07-08T14:02:01Z</time>
      </trkpt>
      <trkpt lat="48.24309" lon="-3.59626">
        <ele>174</ele>
        <time>2021-07-08T14:02:02Z</time>
      </trkpt>
      <trkpt lat="48.24309" lon="-3.59632">
        <ele>174</ele>
        <time>2021-07-08T14:02:03Z</time>
      </trkpt>
      <trkpt lat="48.24309" lon="-3.59645">
        <ele>174</ele>
        <time>2021-07-08T14:02:05Z</time>
      </trkpt>
      <trkpt lat="48.24308" lon="-3.59652">
        <ele>173</ele>
        <time>2021-07-08T14:02:06Z</time>
      </trkpt>
      <trkpt lat="48.24308" lon="-3.59658">
        <ele>173</ele>
        <time>2021-07-08T14:02:07Z</time>
      </trkpt>
      <trkpt lat="48.24308" lon="-3.59665">
        <ele>173</ele>
        <time>2021-07-08T14:02:08Z</time>
      </trkpt>
      <trkpt lat="48.24307" lon="-3.59671">
        <ele>173</ele>
        <time>2021-07-08T14:02:09Z</time>
      </trkpt>
      <trkpt lat="48.24306" lon="-3.59677">
        <ele>173</ele>
        <time>2021-07-08T14:02:10Z</time>
      </trkpt>
      <trkpt lat="48.24306" lon="-3.59683">
        <ele>173</ele>
        <time>2021-07-08T14:02:11Z</time>
      </trkpt>
      <trkpt lat="48.24304" lon="-3.5969">
        <ele>173</ele>
        <time>2021-07-08T14:02:12Z</time>
      </trkpt>
      <trkpt lat="48.24303" lon="-3.59696">
        <ele>173</ele>
        <time>2021-07-08T14:02:13Z</time>
      </trkpt>
      <trkpt lat="48.24302" lon="-3.59702">
        <ele>173</ele>
        <time>2021-07-08T14:02:14Z</time>
      </trkpt>
      <trkpt lat="48.243" lon="-3.59714">
        <ele>173</ele>
        <time>2021-07-08T14:02:16Z</time>
      </trkpt>
      <trkpt lat="48.24299" lon="-3.59719">
        <ele>173</ele>
        <time>2021-07-08T14:02:17Z</time>
      </trkpt>
      <trkpt lat="48.24297" lon="-3.59725">
        <ele>173</ele>
        <time>2021-07-08T14:02:18Z</time>
      </trkpt>
      <trkpt lat="48.24295" lon="-3.5973">
        <ele>173</ele>
        <time>2021-07-08T14:02:19Z</time>
      </trkpt>
      <trkpt lat="48.24294" lon="-3.59735">
        <ele>173</ele>
        <time>2021-07-08T14:02:20Z</time>
      </trkpt>
      <trkpt lat="48.24292" lon="-3.5974">
        <ele>173</ele>
        <time>2021-07-08T14:02:21Z</time>
      </trkpt>
      <trkpt lat="48.2429" lon="-3.59744">
        <ele>172</ele>
        <time>2021-07-08T14:02:22Z</time>
      </trkpt>
      <trkpt lat="48.24288" lon="-3.59748">
        <ele>172</ele>
        <time>2021-07-08T14:02:23Z</time>
      </trkpt>
      <trkpt lat="48.24287" lon="-3.59752">
        <ele>173</ele>
        <time>2021-07-08T14:02:24Z</time>
      </trkpt>
      <trkpt lat="48.24284" lon="-3.59756">
        <ele>173</ele>
        <time>2021-07-08T14:02:25Z</time>
      </trkpt>
      <trkpt lat="48.24277" lon="-3.59769">
        <ele>174</ele>
        <time>2021-07-08T14:02:28Z</time>
      </trkpt>
      <trkpt lat="48.24271" lon="-3.59783">
        <ele>174</ele>
        <time>2021-07-08T14:02:31Z</time>
      </trkpt>
      <trkpt lat="48.24265" lon="-3.59796">
        <ele>174</ele>
        <time>2021-07-08T14:02:34Z</time>
      </trkpt>
      <trkpt lat="48.24259" lon="-3.59807">
        <ele>174</ele>
        <time>2021-07-08T14:02:37Z</time>
      </trkpt>
      <trkpt lat="48.24251" lon="-3.5982">
        <ele>172</ele>
        <time>2021-07-08T14:02:40Z</time>
      </trkpt>
      <trkpt lat="48.24243" lon="-3.59834">
        <ele>172</ele>
        <time>2021-07-08T14:02:43Z</time>
      </trkpt>
      <trkpt lat="48.24239" lon="-3.59842">
        <ele>172</ele>
        <time>2021-07-08T14:02:45Z</time>
      </trkpt>
      <trkpt lat="48.24235" lon="-3.59852">
        <ele>173</ele>
        <time>2021-07-08T14:02:47Z</time>
      </trkpt>
      <trkpt lat="48.24233" lon="-3.59857">
        <ele>173</ele>
        <time>2021-07-08T14:02:48Z</time>
      </trkpt>
      <trkpt lat="48.24229" lon="-3.59866">
        <ele>173</ele>
        <time>2021-07-08T14:02:50Z</time>
      </trkpt>
      <trkpt lat="48.24227" lon="-3.5987">
        <ele>173</ele>
        <time>2021-07-08T14:02:51Z</time>
      </trkpt>
      <trkpt lat="48.24224" lon="-3.59874">
        <ele>173</ele>
        <time>2021-07-08T14:02:52Z</time>
      </trkpt>
      <trkpt lat="48.24219" lon="-3.59883">
        <ele>173</ele>
        <time>2021-07-08T14:02:54Z</time>
      </trkpt>
      <trkpt lat="48.24216" lon="-3.59888">
        <ele>173</ele>
        <time>2021-07-08T14:02:55Z</time>
      </trkpt>
      <trkpt lat="48.24212" lon="-3.59894">
        <ele>173</ele>
        <time>2021-07-08T14:02:56Z</time>
      </trkpt>
      <trkpt lat="48.24208" lon="-3.59899">
        <ele>173</ele>
        <time>2021-07-08T14:02:57Z</time>
      </trkpt>
      <trkpt lat="48.24205" lon="-3.59903">
        <ele>173</ele>
        <time>2021-07-08T14:02:58Z</time>
      </trkpt>
      <trkpt lat="48.24203" lon="-3.59907">
        <ele>173</ele>
        <time>2021-07-08T14:02:59Z</time>
      </trkpt>
      <trkpt lat="48.24201" lon="-3.59911">
        <ele>173</ele>
        <time>2021-07-08T14:03:01Z</time>
      </trkpt>
      <trkpt lat="48.24198" lon="-3.59916">
        <ele>173</ele>
        <time>2021-07-08T14:03:01Z</time>
      </trkpt>
      <trkpt lat="48.24196" lon="-3.5992">
        <ele>173</ele>
        <time>2021-07-08T14:03:02Z</time>
      </trkpt>
      <trkpt lat="48.24194" lon="-3.59924">
        <ele>173</ele>
        <time>2021-07-08T14:03:03Z</time>
      </trkpt>
      <trkpt lat="48.24192" lon="-3.59928">
        <ele>173</ele>
        <time>2021-07-08T14:03:04Z</time>
      </trkpt>
      <trkpt lat="48.2419" lon="-3.59932">
        <ele>173</ele>
        <time>2021-07-08T14:03:05Z</time>
      </trkpt>
      <trkpt lat="48.24188" lon="-3.59935">
        <ele>173</ele>
        <time>2021-07-08T14:03:06Z</time>
      </trkpt>
      <trkpt lat="48.24186" lon="-3.59939">
        <ele>173</ele>
        <time>2021-07-08T14:03:07Z</time>
      </trkpt>
      <trkpt lat="48.24184" lon="-3.59943">
        <ele>173</ele>
        <time>2021-07-08T14:03:08Z</time>
      </trkpt>
      <trkpt lat="48.24182" lon="-3.59946">
        <ele>172</ele>
        <time>2021-07-08T14:03:09Z</time>
      </trkpt>
      <trkpt lat="48.2418" lon="-3.5995">
        <ele>172</ele>
        <time>2021-07-08T14:03:10Z</time>
      </trkpt>
      <trkpt lat="48.24177" lon="-3.59955">
        <ele>173</ele>
        <time>2021-07-08T14:03:11Z</time>
      </trkpt>
      <trkpt lat="48.24174" lon="-3.59959">
        <ele>173</ele>
        <time>2021-07-08T14:03:12Z</time>
      </trkpt>
      <trkpt lat="48.24172" lon="-3.59963">
        <ele>173</ele>
        <time>2021-07-08T14:03:13Z</time>
      </trkpt>
      <trkpt lat="48.24169" lon="-3.59968">
        <ele>173</ele>
        <time>2021-07-08T14:03:14Z</time>
      </trkpt>
      <trkpt lat="48.24167" lon="-3.59972">
        <ele>173</ele>
        <time>2021-07-08T14:03:15Z</time>
      </trkpt>
      <trkpt lat="48.24165" lon="-3.59976">
        <ele>173</ele>
        <time>2021-07-08T14:03:16Z</time>
      </trkpt>
      <trkpt lat="48.24162" lon="-3.5998">
        <ele>173</ele>
        <time>2021-07-08T14:03:17Z</time>
      </trkpt>
      <trkpt lat="48.2416" lon="-3.59984">
        <ele>173</ele>
        <time>2021-07-08T14:03:18Z</time>
      </trkpt>
      <trkpt lat="48.24157" lon="-3.59988">
        <ele>173</ele>
        <time>2021-07-08T14:03:19Z</time>
      </trkpt>
      <trkpt lat="48.24155" lon="-3.59992">
        <ele>173</ele>
        <time>2021-07-08T14:03:20Z</time>
      </trkpt>
      <trkpt lat="48.24153" lon="-3.59995">
        <ele>173</ele>
        <time>2021-07-08T14:03:21Z</time>
      </trkpt>
      <trkpt lat="48.24151" lon="-3.59999">
        <ele>173</ele>
        <time>2021-07-08T14:03:22Z</time>
      </trkpt>
      <trkpt lat="48.24149" lon="-3.60002">
        <ele>174</ele>
        <time>2021-07-08T14:03:23Z</time>
      </trkpt>
      <trkpt lat="48.24148" lon="-3.60005">
        <ele>174</ele>
        <time>2021-07-08T14:03:24Z</time>
      </trkpt>
      <trkpt lat="48.24146" lon="-3.60009">
        <ele>174</ele>
        <time>2021-07-08T14:03:25Z</time>
      </trkpt>
      <trkpt lat="48.24145" lon="-3.60012">
        <ele>174</ele>
        <time>2021-07-08T14:03:26Z</time>
      </trkpt>
      <trkpt lat="48.24143" lon="-3.60015">
        <ele>174</ele>
        <time>2021-07-08T14:03:27Z</time>
      </trkpt>
      <trkpt lat="48.24142" lon="-3.60018">
        <ele>174</ele>
        <time>2021-07-08T14:03:28Z</time>
      </trkpt>
      <trkpt lat="48.24141" lon="-3.6002">
        <ele>174</ele>
        <time>2021-07-08T14:03:29Z</time>
      </trkpt>
      <trkpt lat="48.24139" lon="-3.60023">
        <ele>174</ele>
        <time>2021-07-08T14:03:30Z</time>
      </trkpt>
      <trkpt lat="48.24138" lon="-3.60025">
        <ele>174</ele>
        <time>2021-07-08T14:03:32Z</time>
      </trkpt>
      <trkpt lat="48.24137" lon="-3.60028">
        <ele>174</ele>
        <time>2021-07-08T14:03:32Z</time>
      </trkpt>
      <trkpt lat="48.24136" lon="-3.6003">
        <ele>175</ele>
        <time>2021-07-08T14:03:33Z</time>
      </trkpt>
      <trkpt lat="48.24135" lon="-3.60032">
        <ele>175</ele>
        <time>2021-07-08T14:03:34Z</time>
      </trkpt>
      <trkpt lat="48.24133" lon="-3.60037">
        <ele>175</ele>
        <time>2021-07-08T14:03:36Z</time>
      </trkpt>
      <trkpt lat="48.24131" lon="-3.60042">
        <ele>175</ele>
        <time>2021-07-08T14:03:38Z</time>
      </trkpt>
      <trkpt lat="48.2413" lon="-3.60045">
        <ele>176</ele>
        <time>2021-07-08T14:03:40Z</time>
      </trkpt>
      <trkpt lat="48.24129" lon="-3.60045">
        <ele>176</ele>
        <time>2021-07-08T14:03:49Z</time>
      </trkpt>
      <trkpt lat="48.24122" lon="-3.60042">
        <ele>176</ele>
        <time>2021-07-08T14:03:58Z</time>
      </trkpt>
      <trkpt lat="48.24119" lon="-3.60042">
        <ele>176</ele>
        <time>2021-07-08T14:03:59Z</time>
      </trkpt>
      <trkpt lat="48.24117" lon="-3.6004">
        <ele>176</ele>
        <time>2021-07-08T14:04:00Z</time>
      </trkpt>
      <trkpt lat="48.24114" lon="-3.60038">
        <ele>176</ele>
        <time>2021-07-08T14:04:01Z</time>
      </trkpt>
      <trkpt lat="48.24112" lon="-3.60036">
        <ele>176</ele>
        <time>2021-07-08T14:04:02Z</time>
      </trkpt>
      <trkpt lat="48.2411" lon="-3.60034">
        <ele>176</ele>
        <time>2021-07-08T14:04:03Z</time>
      </trkpt>
      <trkpt lat="48.24107" lon="-3.60033">
        <ele>176</ele>
        <time>2021-07-08T14:04:04Z</time>
      </trkpt>
      <trkpt lat="48.24104" lon="-3.60032">
        <ele>176</ele>
        <time>2021-07-08T14:04:05Z</time>
      </trkpt>
      <trkpt lat="48.24101" lon="-3.60032">
        <ele>176</ele>
        <time>2021-07-08T14:04:06Z</time>
      </trkpt>
      <trkpt lat="48.24099" lon="-3.60035">
        <ele>176</ele>
        <time>2021-07-08T14:04:08Z</time>
      </trkpt>
      <trkpt lat="48.24096" lon="-3.60038">
        <ele>176</ele>
        <time>2021-07-08T14:04:10Z</time>
      </trkpt>
      <trkpt lat="48.24095" lon="-3.60041">
        <ele>176</ele>
        <time>2021-07-08T14:04:11Z</time>
      </trkpt>
      <trkpt lat="48.24094" lon="-3.60046">
        <ele>177</ele>
        <time>2021-07-08T14:04:13Z</time>
      </trkpt>
      <trkpt lat="48.24093" lon="-3.6005">
        <ele>177</ele>
        <time>2021-07-08T14:04:15Z</time>
      </trkpt>
      <trkpt lat="48.24092" lon="-3.60053">
        <ele>176</ele>
        <time>2021-07-08T14:04:16Z</time>
      </trkpt>
      <trkpt lat="48.24091" lon="-3.60056">
        <ele>176</ele>
        <time>2021-07-08T14:04:17Z</time>
      </trkpt>
      <trkpt lat="48.2409" lon="-3.60059">
        <ele>175</ele>
        <time>2021-07-08T14:04:18Z</time>
      </trkpt>
      <trkpt lat="48.2409" lon="-3.60062">
        <ele>175</ele>
        <time>2021-07-08T14:04:19Z</time>
      </trkpt>
      <trkpt lat="48.24089" lon="-3.60065">
        <ele>175</ele>
        <time>2021-07-08T14:04:20Z</time>
      </trkpt>
      <trkpt lat="48.24089" lon="-3.60068">
        <ele>175</ele>
        <time>2021-07-08T14:04:21Z</time>
      </trkpt>
      <trkpt lat="48.24087" lon="-3.60071">
        <ele>175</ele>
        <time>2021-07-08T14:04:22Z</time>
      </trkpt>
      <trkpt lat="48.24086" lon="-3.60073">
        <ele>175</ele>
        <time>2021-07-08T14:04:23Z</time>
      </trkpt>
      <trkpt lat="48.24085" lon="-3.60076">
        <ele>175</ele>
        <time>2021-07-08T14:04:24Z</time>
      </trkpt>
      <trkpt lat="48.24084" lon="-3.60079">
        <ele>175</ele>
        <time>2021-07-08T14:04:25Z</time>
      </trkpt>
      <trkpt lat="48.24084" lon="-3.60082">
        <ele>175</ele>
        <time>2021-07-08T14:04:26Z</time>
      </trkpt>
      <trkpt lat="48.24084" lon="-3.60086">
        <ele>175</ele>
        <time>2021-07-08T14:04:27Z</time>
      </trkpt>
      <trkpt lat="48.24084" lon="-3.6009">
        <ele>175</ele>
        <time>2021-07-08T14:04:28Z</time>
      </trkpt>
      <trkpt lat="48.24084" lon="-3.60093">
        <ele>175</ele>
        <time>2021-07-08T14:04:30Z</time>
      </trkpt>
      <trkpt lat="48.24081" lon="-3.60092">
        <ele>175</ele>
        <time>2021-07-08T14:04:35Z</time>
      </trkpt>
      <trkpt lat="48.24078" lon="-3.6009">
        <ele>175</ele>
        <time>2021-07-08T14:04:38Z</time>
      </trkpt>
      <trkpt lat="48.24076" lon="-3.60093">
        <ele>175</ele>
        <time>2021-07-08T14:04:40Z</time>
      </trkpt>
      <trkpt lat="48.24076" lon="-3.60096">
        <ele>175</ele>
        <time>2021-07-08T14:04:47Z</time>
      </trkpt>
      <trkpt lat="48.24074" lon="-3.601">
        <ele>175</ele>
        <time>2021-07-08T14:04:49Z</time>
      </trkpt>
      <trkpt lat="48.24072" lon="-3.60103">
        <ele>175</ele>
        <time>2021-07-08T14:04:50Z</time>
      </trkpt>
      <trkpt lat="48.2407" lon="-3.60106">
        <ele>175</ele>
        <time>2021-07-08T14:04:51Z</time>
      </trkpt>
      <trkpt lat="48.24068" lon="-3.60109">
        <ele>175</ele>
        <time>2021-07-08T14:04:52Z</time>
      </trkpt>
      <trkpt lat="48.24067" lon="-3.60113">
        <ele>175</ele>
        <time>2021-07-08T14:04:53Z</time>
      </trkpt>
      <trkpt lat="48.24065" lon="-3.60116">
        <ele>175</ele>
        <time>2021-07-08T14:04:54Z</time>
      </trkpt>
      <trkpt lat="48.24064" lon="-3.60119">
        <ele>175</ele>
        <time>2021-07-08T14:04:56Z</time>
      </trkpt>
      <trkpt lat="48.24063" lon="-3.60119">
        <ele>175</ele>
        <time>2021-07-08T14:05:03Z</time>
      </trkpt>
      <trkpt lat="48.24058" lon="-3.60127">
        <ele>175</ele>
        <time>2021-07-08T14:05:32Z</time>
      </trkpt>
      <trkpt lat="48.24056" lon="-3.6013">
        <ele>175</ele>
        <time>2021-07-08T14:05:33Z</time>
      </trkpt>
      <trkpt lat="48.24054" lon="-3.60133">
        <ele>175</ele>
        <time>2021-07-08T14:05:34Z</time>
      </trkpt>
      <trkpt lat="48.24052" lon="-3.60136">
        <ele>175</ele>
        <time>2021-07-08T14:05:35Z</time>
      </trkpt>
      <trkpt lat="48.24049" lon="-3.6014">
        <ele>175</ele>
        <time>2021-07-08T14:05:36Z</time>
      </trkpt>
      <trkpt lat="48.24046" lon="-3.60143">
        <ele>175</ele>
        <time>2021-07-08T14:05:37Z</time>
      </trkpt>
      <trkpt lat="48.24044" lon="-3.60146">
        <ele>175</ele>
        <time>2021-07-08T14:05:38Z</time>
      </trkpt>
      <trkpt lat="48.24041" lon="-3.60149">
        <ele>175</ele>
        <time>2021-07-08T14:05:39Z</time>
      </trkpt>
      <trkpt lat="48.24039" lon="-3.60152">
        <ele>175</ele>
        <time>2021-07-08T14:05:40Z</time>
      </trkpt>
      <trkpt lat="48.24037" lon="-3.60154">
        <ele>175</ele>
        <time>2021-07-08T14:05:41Z</time>
      </trkpt>
      <trkpt lat="48.24034" lon="-3.60156">
        <ele>175</ele>
        <time>2021-07-08T14:05:42Z</time>
      </trkpt>
      <trkpt lat="48.24031" lon="-3.60159">
        <ele>175</ele>
        <time>2021-07-08T14:05:43Z</time>
      </trkpt>
      <trkpt lat="48.24028" lon="-3.60162">
        <ele>175</ele>
        <time>2021-07-08T14:05:44Z</time>
      </trkpt>
      <trkpt lat="48.24024" lon="-3.60165">
        <ele>175</ele>
        <time>2021-07-08T14:05:45Z</time>
      </trkpt>
      <trkpt lat="48.24021" lon="-3.60168">
        <ele>175</ele>
        <time>2021-07-08T14:05:46Z</time>
      </trkpt>
      <trkpt lat="48.24017" lon="-3.6017">
        <ele>175</ele>
        <time>2021-07-08T14:05:47Z</time>
      </trkpt>
      <trkpt lat="48.24014" lon="-3.60173">
        <ele>175</ele>
        <time>2021-07-08T14:05:48Z</time>
      </trkpt>
      <trkpt lat="48.2401" lon="-3.60175">
        <ele>175</ele>
        <time>2021-07-08T14:05:49Z</time>
      </trkpt>
      <trkpt lat="48.24006" lon="-3.60177">
        <ele>175</ele>
        <time>2021-07-08T14:05:50Z</time>
      </trkpt>
      <trkpt lat="48.24003" lon="-3.60179">
        <ele>175</ele>
        <time>2021-07-08T14:05:51Z</time>
      </trkpt>
      <trkpt lat="48.23996" lon="-3.60183">
        <ele>175</ele>
        <time>2021-07-08T14:05:53Z</time>
      </trkpt>
      <trkpt lat="48.23992" lon="-3.60185">
        <ele>175</ele>
        <time>2021-07-08T14:05:54Z</time>
      </trkpt>
      <trkpt lat="48.23988" lon="-3.60186">
        <ele>175</ele>
        <time>2021-07-08T14:05:55Z</time>
      </trkpt>
      <trkpt lat="48.23985" lon="-3.60187">
        <ele>175</ele>
        <time>2021-07-08T14:05:56Z</time>
      </trkpt>
      <trkpt lat="48.2398" lon="-3.60188">
        <ele>175</ele>
        <time>2021-07-08T14:05:57Z</time>
      </trkpt>
      <trkpt lat="48.23977" lon="-3.60189">
        <ele>175</ele>
        <time>2021-07-08T14:05:58Z</time>
      </trkpt>
      <trkpt lat="48.23973" lon="-3.6019">
        <ele>175</ele>
        <time>2021-07-08T14:05:59Z</time>
      </trkpt>
      <trkpt lat="48.23968" lon="-3.60191">
        <ele>175</ele>
        <time>2021-07-08T14:06:00Z</time>
      </trkpt>
      <trkpt lat="48.23964" lon="-3.60191">
        <ele>175</ele>
        <time>2021-07-08T14:06:01Z</time>
      </trkpt>
      <trkpt lat="48.2396" lon="-3.6019">
        <ele>175</ele>
        <time>2021-07-08T14:06:02Z</time>
      </trkpt>
      <trkpt lat="48.23955" lon="-3.6019">
        <ele>176</ele>
        <time>2021-07-08T14:06:03Z</time>
      </trkpt>
      <trkpt lat="48.23952" lon="-3.60189">
        <ele>176</ele>
        <time>2021-07-08T14:06:04Z</time>
      </trkpt>
      <trkpt lat="48.23948" lon="-3.60189">
        <ele>176</ele>
        <time>2021-07-08T14:06:05Z</time>
      </trkpt>
      <trkpt lat="48.23945" lon="-3.60188">
        <ele>176</ele>
        <time>2021-07-08T14:06:06Z</time>
      </trkpt>
      <trkpt lat="48.23941" lon="-3.60187">
        <ele>176</ele>
        <time>2021-07-08T14:06:07Z</time>
      </trkpt>
      <trkpt lat="48.23936" lon="-3.60185">
        <ele>176</ele>
        <time>2021-07-08T14:06:08Z</time>
      </trkpt>
      <trkpt lat="48.23932" lon="-3.60183">
        <ele>176</ele>
        <time>2021-07-08T14:06:09Z</time>
      </trkpt>
      <trkpt lat="48.23928" lon="-3.60181">
        <ele>176</ele>
        <time>2021-07-08T14:06:10Z</time>
      </trkpt>
      <trkpt lat="48.2392" lon="-3.60178">
        <ele>176</ele>
        <time>2021-07-08T14:06:12Z</time>
      </trkpt>
      <trkpt lat="48.23915" lon="-3.60175">
        <ele>176</ele>
        <time>2021-07-08T14:06:13Z</time>
      </trkpt>
      <trkpt lat="48.23911" lon="-3.60173">
        <ele>176</ele>
        <time>2021-07-08T14:06:14Z</time>
      </trkpt>
      <trkpt lat="48.23907" lon="-3.60172">
        <ele>176</ele>
        <time>2021-07-08T14:06:15Z</time>
      </trkpt>
      <trkpt lat="48.23903" lon="-3.6017">
        <ele>176</ele>
        <time>2021-07-08T14:06:16Z</time>
      </trkpt>
      <trkpt lat="48.23899" lon="-3.60168">
        <ele>176</ele>
        <time>2021-07-08T14:06:17Z</time>
      </trkpt>
      <trkpt lat="48.23895" lon="-3.60166">
        <ele>176</ele>
        <time>2021-07-08T14:06:18Z</time>
      </trkpt>
      <trkpt lat="48.23891" lon="-3.60163">
        <ele>177</ele>
        <time>2021-07-08T14:06:19Z</time>
      </trkpt>
      <trkpt lat="48.23887" lon="-3.60161">
        <ele>177</ele>
        <time>2021-07-08T14:06:20Z</time>
      </trkpt>
      <trkpt lat="48.23883" lon="-3.60158">
        <ele>177</ele>
        <time>2021-07-08T14:06:21Z</time>
      </trkpt>
      <trkpt lat="48.2388" lon="-3.60155">
        <ele>177</ele>
        <time>2021-07-08T14:06:22Z</time>
      </trkpt>
      <trkpt lat="48.23876" lon="-3.60153">
        <ele>177</ele>
        <time>2021-07-08T14:06:23Z</time>
      </trkpt>
      <trkpt lat="48.23873" lon="-3.6015">
        <ele>177</ele>
        <time>2021-07-08T14:06:24Z</time>
      </trkpt>
      <trkpt lat="48.23869" lon="-3.60148">
        <ele>177</ele>
        <time>2021-07-08T14:06:25Z</time>
      </trkpt>
      <trkpt lat="48.23865" lon="-3.60146">
        <ele>177</ele>
        <time>2021-07-08T14:06:26Z</time>
      </trkpt>
      <trkpt lat="48.23862" lon="-3.60144">
        <ele>177</ele>
        <time>2021-07-08T14:06:27Z</time>
      </trkpt>
      <trkpt lat="48.23858" lon="-3.60142">
        <ele>177</ele>
        <time>2021-07-08T14:06:28Z</time>
      </trkpt>
      <trkpt lat="48.23854" lon="-3.6014">
        <ele>177</ele>
        <time>2021-07-08T14:06:29Z</time>
      </trkpt>
      <trkpt lat="48.23847" lon="-3.60136">
        <ele>177</ele>
        <time>2021-07-08T14:06:31Z</time>
      </trkpt>
      <trkpt lat="48.23843" lon="-3.60134">
        <ele>177</ele>
        <time>2021-07-08T14:06:32Z</time>
      </trkpt>
      <trkpt lat="48.2384" lon="-3.60133">
        <ele>177</ele>
        <time>2021-07-08T14:06:33Z</time>
      </trkpt>
      <trkpt lat="48.23837" lon="-3.60131">
        <ele>177</ele>
        <time>2021-07-08T14:06:34Z</time>
      </trkpt>
      <trkpt lat="48.23834" lon="-3.6013">
        <ele>177</ele>
        <time>2021-07-08T14:06:35Z</time>
      </trkpt>
      <trkpt lat="48.23831" lon="-3.60129">
        <ele>177</ele>
        <time>2021-07-08T14:06:36Z</time>
      </trkpt>
      <trkpt lat="48.23828" lon="-3.60127">
        <ele>177</ele>
        <time>2021-07-08T14:06:37Z</time>
      </trkpt>
      <trkpt lat="48.23825" lon="-3.60126">
        <ele>177</ele>
        <time>2021-07-08T14:06:38Z</time>
      </trkpt>
      <trkpt lat="48.23822" lon="-3.60124">
        <ele>177</ele>
        <time>2021-07-08T14:06:39Z</time>
      </trkpt>
      <trkpt lat="48.23819" lon="-3.60122">
        <ele>177</ele>
        <time>2021-07-08T14:06:40Z</time>
      </trkpt>
      <trkpt lat="48.23816" lon="-3.60119">
        <ele>177</ele>
        <time>2021-07-08T14:06:41Z</time>
      </trkpt>
      <trkpt lat="48.23812" lon="-3.60116">
        <ele>177</ele>
        <time>2021-07-08T14:06:42Z</time>
      </trkpt>
      <trkpt lat="48.23809" lon="-3.60113">
        <ele>177</ele>
        <time>2021-07-08T14:06:43Z</time>
      </trkpt>
      <trkpt lat="48.23806" lon="-3.60112">
        <ele>177</ele>
        <time>2021-07-08T14:06:44Z</time>
      </trkpt>
      <trkpt lat="48.23803" lon="-3.6011">
        <ele>177</ele>
        <time>2021-07-08T14:06:45Z</time>
      </trkpt>
      <trkpt lat="48.238" lon="-3.60108">
        <ele>176</ele>
        <time>2021-07-08T14:06:46Z</time>
      </trkpt>
      <trkpt lat="48.23798" lon="-3.60107">
        <ele>176</ele>
        <time>2021-07-08T14:06:47Z</time>
      </trkpt>
      <trkpt lat="48.23795" lon="-3.60105">
        <ele>176</ele>
        <time>2021-07-08T14:06:48Z</time>
      </trkpt>
      <trkpt lat="48.23789" lon="-3.60102">
        <ele>176</ele>
        <time>2021-07-08T14:06:50Z</time>
      </trkpt>
      <trkpt lat="48.23786" lon="-3.601">
        <ele>176</ele>
        <time>2021-07-08T14:06:51Z</time>
      </trkpt>
      <trkpt lat="48.23783" lon="-3.60098">
        <ele>176</ele>
        <time>2021-07-08T14:06:52Z</time>
      </trkpt>
      <trkpt lat="48.2378" lon="-3.60096">
        <ele>177</ele>
        <time>2021-07-08T14:06:53Z</time>
      </trkpt>
      <trkpt lat="48.23777" lon="-3.60094">
        <ele>177</ele>
        <time>2021-07-08T14:06:54Z</time>
      </trkpt>
      <trkpt lat="48.23774" lon="-3.60092">
        <ele>177</ele>
        <time>2021-07-08T14:06:55Z</time>
      </trkpt>
      <trkpt lat="48.2377" lon="-3.6009">
        <ele>177</ele>
        <time>2021-07-08T14:06:56Z</time>
      </trkpt>
      <trkpt lat="48.23767" lon="-3.60089">
        <ele>178</ele>
        <time>2021-07-08T14:06:57Z</time>
      </trkpt>
      <trkpt lat="48.23763" lon="-3.60088">
        <ele>178</ele>
        <time>2021-07-08T14:06:58Z</time>
      </trkpt>
      <trkpt lat="48.2376" lon="-3.60087">
        <ele>178</ele>
        <time>2021-07-08T14:06:59Z</time>
      </trkpt>
      <trkpt lat="48.23756" lon="-3.60085">
        <ele>178</ele>
        <time>2021-07-08T14:07:00Z</time>
      </trkpt>
      <trkpt lat="48.23753" lon="-3.60084">
        <ele>178</ele>
        <time>2021-07-08T14:07:01Z</time>
      </trkpt>
      <trkpt lat="48.2375" lon="-3.60081">
        <ele>178</ele>
        <time>2021-07-08T14:07:02Z</time>
      </trkpt>
      <trkpt lat="48.23746" lon="-3.60079">
        <ele>178</ele>
        <time>2021-07-08T14:07:03Z</time>
      </trkpt>
      <trkpt lat="48.23742" lon="-3.60077">
        <ele>178</ele>
        <time>2021-07-08T14:07:04Z</time>
      </trkpt>
      <trkpt lat="48.23739" lon="-3.60075">
        <ele>178</ele>
        <time>2021-07-08T14:07:05Z</time>
      </trkpt>
      <trkpt lat="48.23735" lon="-3.60073">
        <ele>178</ele>
        <time>2021-07-08T14:07:06Z</time>
      </trkpt>
      <trkpt lat="48.23732" lon="-3.60071">
        <ele>178</ele>
        <time>2021-07-08T14:07:07Z</time>
      </trkpt>
      <trkpt lat="48.23729" lon="-3.6007">
        <ele>178</ele>
        <time>2021-07-08T14:07:08Z</time>
      </trkpt>
      <trkpt lat="48.23725" lon="-3.60067">
        <ele>178</ele>
        <time>2021-07-08T14:07:09Z</time>
      </trkpt>
      <trkpt lat="48.23721" lon="-3.60065">
        <ele>178</ele>
        <time>2021-07-08T14:07:10Z</time>
      </trkpt>
      <trkpt lat="48.23718" lon="-3.60063">
        <ele>178</ele>
        <time>2021-07-08T14:07:11Z</time>
      </trkpt>
      <trkpt lat="48.23714" lon="-3.60061">
        <ele>178</ele>
        <time>2021-07-08T14:07:12Z</time>
      </trkpt>
      <trkpt lat="48.2371" lon="-3.60059">
        <ele>178</ele>
        <time>2021-07-08T14:07:13Z</time>
      </trkpt>
      <trkpt lat="48.23706" lon="-3.60057">
        <ele>178</ele>
        <time>2021-07-08T14:07:14Z</time>
      </trkpt>
      <trkpt lat="48.23703" lon="-3.60055">
        <ele>178</ele>
        <time>2021-07-08T14:07:15Z</time>
      </trkpt>
      <trkpt lat="48.23699" lon="-3.60053">
        <ele>178</ele>
        <time>2021-07-08T14:07:16Z</time>
      </trkpt>
      <trkpt lat="48.23696" lon="-3.60051">
        <ele>178</ele>
        <time>2021-07-08T14:07:17Z</time>
      </trkpt>
      <trkpt lat="48.23692" lon="-3.60049">
        <ele>178</ele>
        <time>2021-07-08T14:07:18Z</time>
      </trkpt>
      <trkpt lat="48.23688" lon="-3.60047">
        <ele>178</ele>
        <time>2021-07-08T14:07:19Z</time>
      </trkpt>
      <trkpt lat="48.23684" lon="-3.60045">
        <ele>178</ele>
        <time>2021-07-08T14:07:20Z</time>
      </trkpt>
      <trkpt lat="48.2368" lon="-3.60042">
        <ele>178</ele>
        <time>2021-07-08T14:07:21Z</time>
      </trkpt>
      <trkpt lat="48.23676" lon="-3.6004">
        <ele>179</ele>
        <time>2021-07-08T14:07:22Z</time>
      </trkpt>
      <trkpt lat="48.23672" lon="-3.60037">
        <ele>179</ele>
        <time>2021-07-08T14:07:23Z</time>
      </trkpt>
      <trkpt lat="48.23668" lon="-3.60034">
        <ele>179</ele>
        <time>2021-07-08T14:07:24Z</time>
      </trkpt>
      <trkpt lat="48.23664" lon="-3.60032">
        <ele>179</ele>
        <time>2021-07-08T14:07:25Z</time>
      </trkpt>
      <trkpt lat="48.2366" lon="-3.60029">
        <ele>179</ele>
        <time>2021-07-08T14:07:26Z</time>
      </trkpt>
      <trkpt lat="48.23656" lon="-3.60026">
        <ele>178</ele>
        <time>2021-07-08T14:07:27Z</time>
      </trkpt>
      <trkpt lat="48.23652" lon="-3.60023">
        <ele>178</ele>
        <time>2021-07-08T14:07:28Z</time>
      </trkpt>
      <trkpt lat="48.23649" lon="-3.60021">
        <ele>178</ele>
        <time>2021-07-08T14:07:29Z</time>
      </trkpt>
      <trkpt lat="48.23646" lon="-3.60018">
        <ele>178</ele>
        <time>2021-07-08T14:07:30Z</time>
      </trkpt>
      <trkpt lat="48.23643" lon="-3.60015">
        <ele>178</ele>
        <time>2021-07-08T14:07:31Z</time>
      </trkpt>
      <trkpt lat="48.23639" lon="-3.60012">
        <ele>179</ele>
        <time>2021-07-08T14:07:32Z</time>
      </trkpt>
      <trkpt lat="48.23636" lon="-3.60009">
        <ele>179</ele>
        <time>2021-07-08T14:07:33Z</time>
      </trkpt>
      <trkpt lat="48.23633" lon="-3.60005">
        <ele>179</ele>
        <time>2021-07-08T14:07:34Z</time>
      </trkpt>
      <trkpt lat="48.23625" lon="-3.59996">
        <ele>178</ele>
        <time>2021-07-08T14:07:37Z</time>
      </trkpt>
      <trkpt lat="48.23615" lon="-3.59985">
        <ele>179</ele>
        <time>2021-07-08T14:07:40Z</time>
      </trkpt>
      <trkpt lat="48.23609" lon="-3.59979">
        <ele>179</ele>
        <time>2021-07-08T14:07:42Z</time>
      </trkpt>
      <trkpt lat="48.23606" lon="-3.59975">
        <ele>179</ele>
        <time>2021-07-08T14:07:43Z</time>
      </trkpt>
      <trkpt lat="48.23604" lon="-3.59971">
        <ele>179</ele>
        <time>2021-07-08T14:07:44Z</time>
      </trkpt>
      <trkpt lat="48.23602" lon="-3.59967">
        <ele>178</ele>
        <time>2021-07-08T14:07:45Z</time>
      </trkpt>
      <trkpt lat="48.23595" lon="-3.59953">
        <ele>178</ele>
        <time>2021-07-08T14:07:48Z</time>
      </trkpt>
      <trkpt lat="48.2359" lon="-3.59942">
        <ele>178</ele>
        <time>2021-07-08T14:07:50Z</time>
      </trkpt>
      <trkpt lat="48.23585" lon="-3.59927">
        <ele>178</ele>
        <time>2021-07-08T14:07:53Z</time>
      </trkpt>
      <trkpt lat="48.2358" lon="-3.59912">
        <ele>178</ele>
        <time>2021-07-08T14:07:56Z</time>
      </trkpt>
      <trkpt lat="48.23575" lon="-3.59898">
        <ele>178</ele>
        <time>2021-07-08T14:07:59Z</time>
      </trkpt>
      <trkpt lat="48.2357" lon="-3.59882">
        <ele>179</ele>
        <time>2021-07-08T14:08:03Z</time>
      </trkpt>
      <trkpt lat="48.23567" lon="-3.59868">
        <ele>179</ele>
        <time>2021-07-08T14:08:06Z</time>
      </trkpt>
      <trkpt lat="48.23561" lon="-3.59851">
        <ele>179</ele>
        <time>2021-07-08T14:08:09Z</time>
      </trkpt>
      <trkpt lat="48.23556" lon="-3.59839">
        <ele>179</ele>
        <time>2021-07-08T14:08:11Z</time>
      </trkpt>
      <trkpt lat="48.23554" lon="-3.59834">
        <ele>179</ele>
        <time>2021-07-08T14:08:12Z</time>
      </trkpt>
      <trkpt lat="48.23552" lon="-3.59828">
        <ele>179</ele>
        <time>2021-07-08T14:08:13Z</time>
      </trkpt>
      <trkpt lat="48.2355" lon="-3.59821">
        <ele>179</ele>
        <time>2021-07-08T14:08:14Z</time>
      </trkpt>
      <trkpt lat="48.2355" lon="-3.59815">
        <ele>179</ele>
        <time>2021-07-08T14:08:15Z</time>
      </trkpt>
      <trkpt lat="48.23549" lon="-3.59809">
        <ele>179</ele>
        <time>2021-07-08T14:08:16Z</time>
      </trkpt>
      <trkpt lat="48.23547" lon="-3.59802">
        <ele>179</ele>
        <time>2021-07-08T14:08:17Z</time>
      </trkpt>
      <trkpt lat="48.23546" lon="-3.59796">
        <ele>179</ele>
        <time>2021-07-08T14:08:18Z</time>
      </trkpt>
      <trkpt lat="48.23544" lon="-3.5979">
        <ele>179</ele>
        <time>2021-07-08T14:08:19Z</time>
      </trkpt>
      <trkpt lat="48.23543" lon="-3.59784">
        <ele>179</ele>
        <time>2021-07-08T14:08:20Z</time>
      </trkpt>
      <trkpt lat="48.23541" lon="-3.59779">
        <ele>179</ele>
        <time>2021-07-08T14:08:21Z</time>
      </trkpt>
      <trkpt lat="48.2354" lon="-3.59773">
        <ele>179</ele>
        <time>2021-07-08T14:08:22Z</time>
      </trkpt>
      <trkpt lat="48.23539" lon="-3.59767">
        <ele>179</ele>
        <time>2021-07-08T14:08:23Z</time>
      </trkpt>
      <trkpt lat="48.23536" lon="-3.59757">
        <ele>179</ele>
        <time>2021-07-08T14:08:25Z</time>
      </trkpt>
      <trkpt lat="48.23534" lon="-3.59751">
        <ele>179</ele>
        <time>2021-07-08T14:08:26Z</time>
      </trkpt>
      <trkpt lat="48.23533" lon="-3.59746">
        <ele>179</ele>
        <time>2021-07-08T14:08:27Z</time>
      </trkpt>
      <trkpt lat="48.23531" lon="-3.59741">
        <ele>179</ele>
        <time>2021-07-08T14:08:28Z</time>
      </trkpt>
      <trkpt lat="48.2353" lon="-3.59735">
        <ele>179</ele>
        <time>2021-07-08T14:08:29Z</time>
      </trkpt>
      <trkpt lat="48.23528" lon="-3.5973">
        <ele>179</ele>
        <time>2021-07-08T14:08:30Z</time>
      </trkpt>
      <trkpt lat="48.23527" lon="-3.59725">
        <ele>179</ele>
        <time>2021-07-08T14:08:31Z</time>
      </trkpt>
      <trkpt lat="48.23525" lon="-3.5972">
        <ele>180</ele>
        <time>2021-07-08T14:08:32Z</time>
      </trkpt>
      <trkpt lat="48.23524" lon="-3.59715">
        <ele>180</ele>
        <time>2021-07-08T14:08:33Z</time>
      </trkpt>
      <trkpt lat="48.23523" lon="-3.5971">
        <ele>180</ele>
        <time>2021-07-08T14:08:34Z</time>
      </trkpt>
      <trkpt lat="48.23521" lon="-3.59704">
        <ele>180</ele>
        <time>2021-07-08T14:08:35Z</time>
      </trkpt>
      <trkpt lat="48.2352" lon="-3.59699">
        <ele>180</ele>
        <time>2021-07-08T14:08:36Z</time>
      </trkpt>
      <trkpt lat="48.23518" lon="-3.59695">
        <ele>180</ele>
        <time>2021-07-08T14:08:37Z</time>
      </trkpt>
      <trkpt lat="48.23516" lon="-3.5969">
        <ele>180</ele>
        <time>2021-07-08T14:08:38Z</time>
      </trkpt>
      <trkpt lat="48.23515" lon="-3.59684">
        <ele>180</ele>
        <time>2021-07-08T14:08:39Z</time>
      </trkpt>
      <trkpt lat="48.23513" lon="-3.59679">
        <ele>180</ele>
        <time>2021-07-08T14:08:40Z</time>
      </trkpt>
      <trkpt lat="48.23512" lon="-3.59674">
        <ele>180</ele>
        <time>2021-07-08T14:08:41Z</time>
      </trkpt>
      <trkpt lat="48.23511" lon="-3.59669">
        <ele>180</ele>
        <time>2021-07-08T14:08:42Z</time>
      </trkpt>
      <trkpt lat="48.23508" lon="-3.59659">
        <ele>180</ele>
        <time>2021-07-08T14:08:44Z</time>
      </trkpt>
      <trkpt lat="48.23506" lon="-3.59655">
        <ele>180</ele>
        <time>2021-07-08T14:08:45Z</time>
      </trkpt>
      <trkpt lat="48.23505" lon="-3.5965">
        <ele>179</ele>
        <time>2021-07-08T14:08:46Z</time>
      </trkpt>
      <trkpt lat="48.23505" lon="-3.59646">
        <ele>179</ele>
        <time>2021-07-08T14:08:47Z</time>
      </trkpt>
      <trkpt lat="48.23503" lon="-3.59641">
        <ele>179</ele>
        <time>2021-07-08T14:08:48Z</time>
      </trkpt>
      <trkpt lat="48.23501" lon="-3.59635">
        <ele>179</ele>
        <time>2021-07-08T14:08:49Z</time>
      </trkpt>
      <trkpt lat="48.235" lon="-3.5963">
        <ele>179</ele>
        <time>2021-07-08T14:08:50Z</time>
      </trkpt>
      <trkpt lat="48.23499" lon="-3.59625">
        <ele>179</ele>
        <time>2021-07-08T14:08:51Z</time>
      </trkpt>
      <trkpt lat="48.23497" lon="-3.5962">
        <ele>179</ele>
        <time>2021-07-08T14:08:52Z</time>
      </trkpt>
      <trkpt lat="48.23496" lon="-3.59615">
        <ele>179</ele>
        <time>2021-07-08T14:08:53Z</time>
      </trkpt>
      <trkpt lat="48.23494" lon="-3.5961">
        <ele>179</ele>
        <time>2021-07-08T14:08:54Z</time>
      </trkpt>
      <trkpt lat="48.23492" lon="-3.59605">
        <ele>179</ele>
        <time>2021-07-08T14:08:55Z</time>
      </trkpt>
      <trkpt lat="48.23491" lon="-3.596">
        <ele>179</ele>
        <time>2021-07-08T14:08:56Z</time>
      </trkpt>
      <trkpt lat="48.2349" lon="-3.59594">
        <ele>180</ele>
        <time>2021-07-08T14:08:57Z</time>
      </trkpt>
      <trkpt lat="48.23488" lon="-3.59589">
        <ele>180</ele>
        <time>2021-07-08T14:08:58Z</time>
      </trkpt>
      <trkpt lat="48.23487" lon="-3.59584">
        <ele>180</ele>
        <time>2021-07-08T14:08:59Z</time>
      </trkpt>
      <trkpt lat="48.23486" lon="-3.59578">
        <ele>180</ele>
        <time>2021-07-08T14:09:00Z</time>
      </trkpt>
      <trkpt lat="48.23485" lon="-3.59573">
        <ele>180</ele>
        <time>2021-07-08T14:09:02Z</time>
      </trkpt>
      <trkpt lat="48.23483" lon="-3.59563">
        <ele>180</ele>
        <time>2021-07-08T14:09:03Z</time>
      </trkpt>
      <trkpt lat="48.23483" lon="-3.59559">
        <ele>180</ele>
        <time>2021-07-08T14:09:04Z</time>
      </trkpt>
      <trkpt lat="48.23482" lon="-3.59554">
        <ele>180</ele>
        <time>2021-07-08T14:09:05Z</time>
      </trkpt>
      <trkpt lat="48.23478" lon="-3.59541">
        <ele>180</ele>
        <time>2021-07-08T14:09:08Z</time>
      </trkpt>
      <trkpt lat="48.23475" lon="-3.59527">
        <ele>180</ele>
        <time>2021-07-08T14:09:11Z</time>
      </trkpt>
      <trkpt lat="48.23469" lon="-3.59512">
        <ele>180</ele>
        <time>2021-07-08T14:09:14Z</time>
      </trkpt>
      <trkpt lat="48.23464" lon="-3.59496">
        <ele>180</ele>
        <time>2021-07-08T14:09:17Z</time>
      </trkpt>
      <trkpt lat="48.23463" lon="-3.59491">
        <ele>180</ele>
        <time>2021-07-08T14:09:18Z</time>
      </trkpt>
      <trkpt lat="48.2346" lon="-3.59486">
        <ele>180</ele>
        <time>2021-07-08T14:09:19Z</time>
      </trkpt>
      <trkpt lat="48.23458" lon="-3.59482">
        <ele>180</ele>
        <time>2021-07-08T14:09:20Z</time>
      </trkpt>
      <trkpt lat="48.23457" lon="-3.59478">
        <ele>180</ele>
        <time>2021-07-08T14:09:21Z</time>
      </trkpt>
      <trkpt lat="48.2345" lon="-3.59465">
        <ele>180</ele>
        <time>2021-07-08T14:09:24Z</time>
      </trkpt>
      <trkpt lat="48.23444" lon="-3.59456">
        <ele>180</ele>
        <time>2021-07-08T14:09:26Z</time>
      </trkpt>
      <trkpt lat="48.23436" lon="-3.59446">
        <ele>180</ele>
        <time>2021-07-08T14:09:29Z</time>
      </trkpt>
      <trkpt lat="48.23428" lon="-3.59437">
        <ele>180</ele>
        <time>2021-07-08T14:09:32Z</time>
      </trkpt>
      <trkpt lat="48.23419" lon="-3.59428">
        <ele>180</ele>
        <time>2021-07-08T14:09:36Z</time>
      </trkpt>
      <trkpt lat="48.23415" lon="-3.59422">
        <ele>180</ele>
        <time>2021-07-08T14:09:38Z</time>
      </trkpt>
      <trkpt lat="48.23412" lon="-3.59419">
        <ele>180</ele>
        <time>2021-07-08T14:09:39Z</time>
      </trkpt>
      <trkpt lat="48.23403" lon="-3.59409">
        <ele>180</ele>
        <time>2021-07-08T14:09:42Z</time>
      </trkpt>
      <trkpt lat="48.23394" lon="-3.59396">
        <ele>181</ele>
        <time>2021-07-08T14:09:45Z</time>
      </trkpt>
      <trkpt lat="48.23385" lon="-3.59381">
        <ele>181</ele>
        <time>2021-07-08T14:09:48Z</time>
      </trkpt>
      <trkpt lat="48.23376" lon="-3.59371">
        <ele>180</ele>
        <time>2021-07-08T14:09:50Z</time>
      </trkpt>
      <trkpt lat="48.23367" lon="-3.59358">
        <ele>181</ele>
        <time>2021-07-08T14:09:53Z</time>
      </trkpt>
      <trkpt lat="48.23358" lon="-3.59345">
        <ele>181</ele>
        <time>2021-07-08T14:09:56Z</time>
      </trkpt>
      <trkpt lat="48.23354" lon="-3.5934">
        <ele>181</ele>
        <time>2021-07-08T14:09:57Z</time>
      </trkpt>
      <trkpt lat="48.23351" lon="-3.59336">
        <ele>181</ele>
        <time>2021-07-08T14:09:58Z</time>
      </trkpt>
      <trkpt lat="48.23343" lon="-3.59324">
        <ele>181</ele>
        <time>2021-07-08T14:10:01Z</time>
      </trkpt>
      <trkpt lat="48.23335" lon="-3.59312">
        <ele>181</ele>
        <time>2021-07-08T14:10:04Z</time>
      </trkpt>
      <trkpt lat="48.23331" lon="-3.59308">
        <ele>181</ele>
        <time>2021-07-08T14:10:05Z</time>
      </trkpt>
      <trkpt lat="48.23328" lon="-3.59304">
        <ele>181</ele>
        <time>2021-07-08T14:10:06Z</time>
      </trkpt>
      <trkpt lat="48.23326" lon="-3.593">
        <ele>181</ele>
        <time>2021-07-08T14:10:07Z</time>
      </trkpt>
      <trkpt lat="48.23323" lon="-3.59296">
        <ele>181</ele>
        <time>2021-07-08T14:10:08Z</time>
      </trkpt>
      <trkpt lat="48.2332" lon="-3.59293">
        <ele>181</ele>
        <time>2021-07-08T14:10:09Z</time>
      </trkpt>
      <trkpt lat="48.23317" lon="-3.5929">
        <ele>181</ele>
        <time>2021-07-08T14:10:10Z</time>
      </trkpt>
      <trkpt lat="48.23314" lon="-3.59286">
        <ele>181</ele>
        <time>2021-07-08T14:10:11Z</time>
      </trkpt>
      <trkpt lat="48.23311" lon="-3.59282">
        <ele>181</ele>
        <time>2021-07-08T14:10:12Z</time>
      </trkpt>
      <trkpt lat="48.23309" lon="-3.59278">
        <ele>181</ele>
        <time>2021-07-08T14:10:13Z</time>
      </trkpt>
      <trkpt lat="48.23304" lon="-3.59269">
        <ele>181</ele>
        <time>2021-07-08T14:10:15Z</time>
      </trkpt>
      <trkpt lat="48.23301" lon="-3.59265">
        <ele>181</ele>
        <time>2021-07-08T14:10:16Z</time>
      </trkpt>
      <trkpt lat="48.23296" lon="-3.59256">
        <ele>181</ele>
        <time>2021-07-08T14:10:18Z</time>
      </trkpt>
      <trkpt lat="48.23289" lon="-3.59247">
        <ele>181</ele>
        <time>2021-07-08T14:10:20Z</time>
      </trkpt>
      <trkpt lat="48.23286" lon="-3.59242">
        <ele>181</ele>
        <time>2021-07-08T14:10:21Z</time>
      </trkpt>
      <trkpt lat="48.23283" lon="-3.59238">
        <ele>181</ele>
        <time>2021-07-08T14:10:22Z</time>
      </trkpt>
      <trkpt lat="48.23281" lon="-3.59234">
        <ele>181</ele>
        <time>2021-07-08T14:10:23Z</time>
      </trkpt>
      <trkpt lat="48.23278" lon="-3.5923">
        <ele>181</ele>
        <time>2021-07-08T14:10:24Z</time>
      </trkpt>
      <trkpt lat="48.23275" lon="-3.59226">
        <ele>181</ele>
        <time>2021-07-08T14:10:25Z</time>
      </trkpt>
      <trkpt lat="48.23273" lon="-3.59222">
        <ele>181</ele>
        <time>2021-07-08T14:10:26Z</time>
      </trkpt>
      <trkpt lat="48.2327" lon="-3.59218">
        <ele>181</ele>
        <time>2021-07-08T14:10:27Z</time>
      </trkpt>
      <trkpt lat="48.23268" lon="-3.59214">
        <ele>181</ele>
        <time>2021-07-08T14:10:28Z</time>
      </trkpt>
      <trkpt lat="48.23266" lon="-3.5921">
        <ele>181</ele>
        <time>2021-07-08T14:10:29Z</time>
      </trkpt>
      <trkpt lat="48.23263" lon="-3.59206">
        <ele>181</ele>
        <time>2021-07-08T14:10:30Z</time>
      </trkpt>
      <trkpt lat="48.23258" lon="-3.59194">
        <ele>181</ele>
        <time>2021-07-08T14:10:33Z</time>
      </trkpt>
      <trkpt lat="48.2325" lon="-3.59181">
        <ele>181</ele>
        <time>2021-07-08T14:10:36Z</time>
      </trkpt>
      <trkpt lat="48.23244" lon="-3.59169">
        <ele>181</ele>
        <time>2021-07-08T14:10:39Z</time>
      </trkpt>
      <trkpt lat="48.23235" lon="-3.59156">
        <ele>181</ele>
        <time>2021-07-08T14:10:42Z</time>
      </trkpt>
      <trkpt lat="48.23227" lon="-3.59142">
        <ele>181</ele>
        <time>2021-07-08T14:10:45Z</time>
      </trkpt>
      <trkpt lat="48.2322" lon="-3.59127">
        <ele>181</ele>
        <time>2021-07-08T14:10:48Z</time>
      </trkpt>
      <trkpt lat="48.23212" lon="-3.59115">
        <ele>181</ele>
        <time>2021-07-08T14:10:51Z</time>
      </trkpt>
      <trkpt lat="48.23202" lon="-3.59103">
        <ele>181</ele>
        <time>2021-07-08T14:10:54Z</time>
      </trkpt>
      <trkpt lat="48.23199" lon="-3.59099">
        <ele>181</ele>
        <time>2021-07-08T14:10:55Z</time>
      </trkpt>
      <trkpt lat="48.23197" lon="-3.59095">
        <ele>181</ele>
        <time>2021-07-08T14:10:56Z</time>
      </trkpt>
      <trkpt lat="48.23194" lon="-3.59091">
        <ele>181</ele>
        <time>2021-07-08T14:10:58Z</time>
      </trkpt>
      <trkpt lat="48.23191" lon="-3.59087">
        <ele>181</ele>
        <time>2021-07-08T14:10:58Z</time>
      </trkpt>
      <trkpt lat="48.23183" lon="-3.59077">
        <ele>181</ele>
        <time>2021-07-08T14:11:01Z</time>
      </trkpt>
      <trkpt lat="48.23175" lon="-3.59067">
        <ele>182</ele>
        <time>2021-07-08T14:11:04Z</time>
      </trkpt>
      <trkpt lat="48.23163" lon="-3.59055">
        <ele>182</ele>
        <time>2021-07-08T14:11:07Z</time>
      </trkpt>
      <trkpt lat="48.23153" lon="-3.59044">
        <ele>182</ele>
        <time>2021-07-08T14:11:10Z</time>
      </trkpt>
      <trkpt lat="48.23145" lon="-3.59037">
        <ele>182</ele>
        <time>2021-07-08T14:11:13Z</time>
      </trkpt>
      <trkpt lat="48.23138" lon="-3.59028">
        <ele>182</ele>
        <time>2021-07-08T14:11:16Z</time>
      </trkpt>
      <trkpt lat="48.23128" lon="-3.59019">
        <ele>182</ele>
        <time>2021-07-08T14:11:19Z</time>
      </trkpt>
      <trkpt lat="48.23119" lon="-3.59011">
        <ele>183</ele>
        <time>2021-07-08T14:11:22Z</time>
      </trkpt>
      <trkpt lat="48.23115" lon="-3.59007">
        <ele>183</ele>
        <time>2021-07-08T14:11:23Z</time>
      </trkpt>
      <trkpt lat="48.23112" lon="-3.59003">
        <ele>182</ele>
        <time>2021-07-08T14:11:24Z</time>
      </trkpt>
      <trkpt lat="48.23109" lon="-3.59">
        <ele>182</ele>
        <time>2021-07-08T14:11:25Z</time>
      </trkpt>
      <trkpt lat="48.23105" lon="-3.58996">
        <ele>181</ele>
        <time>2021-07-08T14:11:26Z</time>
      </trkpt>
      <trkpt lat="48.23099" lon="-3.58989">
        <ele>182</ele>
        <time>2021-07-08T14:11:28Z</time>
      </trkpt>
      <trkpt lat="48.23096" lon="-3.58986">
        <ele>182</ele>
        <time>2021-07-08T14:11:29Z</time>
      </trkpt>
      <trkpt lat="48.23093" lon="-3.58982">
        <ele>182</ele>
        <time>2021-07-08T14:11:30Z</time>
      </trkpt>
      <trkpt lat="48.2309" lon="-3.58979">
        <ele>182</ele>
        <time>2021-07-08T14:11:31Z</time>
      </trkpt>
      <trkpt lat="48.23087" lon="-3.58976">
        <ele>182</ele>
        <time>2021-07-08T14:11:32Z</time>
      </trkpt>
      <trkpt lat="48.23084" lon="-3.58973">
        <ele>182</ele>
        <time>2021-07-08T14:11:33Z</time>
      </trkpt>
      <trkpt lat="48.23077" lon="-3.58965">
        <ele>182</ele>
        <time>2021-07-08T14:11:35Z</time>
      </trkpt>
      <trkpt lat="48.23073" lon="-3.58962">
        <ele>182</ele>
        <time>2021-07-08T14:11:36Z</time>
      </trkpt>
      <trkpt lat="48.2307" lon="-3.5896">
        <ele>182</ele>
        <time>2021-07-08T14:11:37Z</time>
      </trkpt>
      <trkpt lat="48.23067" lon="-3.58957">
        <ele>182</ele>
        <time>2021-07-08T14:11:38Z</time>
      </trkpt>
      <trkpt lat="48.23064" lon="-3.58954">
        <ele>182</ele>
        <time>2021-07-08T14:11:39Z</time>
      </trkpt>
      <trkpt lat="48.23061" lon="-3.58951">
        <ele>182</ele>
        <time>2021-07-08T14:11:40Z</time>
      </trkpt>
      <trkpt lat="48.23058" lon="-3.58947">
        <ele>182</ele>
        <time>2021-07-08T14:11:41Z</time>
      </trkpt>
      <trkpt lat="48.23055" lon="-3.58944">
        <ele>182</ele>
        <time>2021-07-08T14:11:42Z</time>
      </trkpt>
      <trkpt lat="48.23051" lon="-3.58941">
        <ele>182</ele>
        <time>2021-07-08T14:11:43Z</time>
      </trkpt>
      <trkpt lat="48.23048" lon="-3.58937">
        <ele>182</ele>
        <time>2021-07-08T14:11:44Z</time>
      </trkpt>
      <trkpt lat="48.23044" lon="-3.58934">
        <ele>182</ele>
        <time>2021-07-08T14:11:45Z</time>
      </trkpt>
      <trkpt lat="48.2304" lon="-3.5893">
        <ele>182</ele>
        <time>2021-07-08T14:11:46Z</time>
      </trkpt>
      <trkpt lat="48.23037" lon="-3.58927">
        <ele>182</ele>
        <time>2021-07-08T14:11:47Z</time>
      </trkpt>
      <trkpt lat="48.23033" lon="-3.58924">
        <ele>182</ele>
        <time>2021-07-08T14:11:48Z</time>
      </trkpt>
      <trkpt lat="48.23029" lon="-3.5892">
        <ele>182</ele>
        <time>2021-07-08T14:11:49Z</time>
      </trkpt>
      <trkpt lat="48.23026" lon="-3.58917">
        <ele>183</ele>
        <time>2021-07-08T14:11:50Z</time>
      </trkpt>
      <trkpt lat="48.23023" lon="-3.58914">
        <ele>183</ele>
        <time>2021-07-08T14:11:51Z</time>
      </trkpt>
      <trkpt lat="48.2302" lon="-3.58911">
        <ele>183</ele>
        <time>2021-07-08T14:11:53Z</time>
      </trkpt>
      <trkpt lat="48.23012" lon="-3.58905">
        <ele>183</ele>
        <time>2021-07-08T14:11:54Z</time>
      </trkpt>
      <trkpt lat="48.23008" lon="-3.58903">
        <ele>183</ele>
        <time>2021-07-08T14:11:55Z</time>
      </trkpt>
      <trkpt lat="48.23004" lon="-3.58901">
        <ele>183</ele>
        <time>2021-07-08T14:11:56Z</time>
      </trkpt>
      <trkpt lat="48.23" lon="-3.58899">
        <ele>183</ele>
        <time>2021-07-08T14:11:57Z</time>
      </trkpt>
      <trkpt lat="48.22996" lon="-3.58897">
        <ele>183</ele>
        <time>2021-07-08T14:11:58Z</time>
      </trkpt>
      <trkpt lat="48.22993" lon="-3.58895">
        <ele>183</ele>
        <time>2021-07-08T14:11:59Z</time>
      </trkpt>
      <trkpt lat="48.22989" lon="-3.58893">
        <ele>182</ele>
        <time>2021-07-08T14:12:00Z</time>
      </trkpt>
      <trkpt lat="48.22985" lon="-3.58891">
        <ele>183</ele>
        <time>2021-07-08T14:12:01Z</time>
      </trkpt>
      <trkpt lat="48.22981" lon="-3.5889">
        <ele>183</ele>
        <time>2021-07-08T14:12:02Z</time>
      </trkpt>
      <trkpt lat="48.22977" lon="-3.58888">
        <ele>183</ele>
        <time>2021-07-08T14:12:03Z</time>
      </trkpt>
      <trkpt lat="48.22973" lon="-3.58886">
        <ele>183</ele>
        <time>2021-07-08T14:12:04Z</time>
      </trkpt>
      <trkpt lat="48.22969" lon="-3.58885">
        <ele>183</ele>
        <time>2021-07-08T14:12:05Z</time>
      </trkpt>
      <trkpt lat="48.22966" lon="-3.58884">
        <ele>183</ele>
        <time>2021-07-08T14:12:06Z</time>
      </trkpt>
      <trkpt lat="48.22962" lon="-3.58884">
        <ele>183</ele>
        <time>2021-07-08T14:12:07Z</time>
      </trkpt>
      <trkpt lat="48.22958" lon="-3.58883">
        <ele>183</ele>
        <time>2021-07-08T14:12:08Z</time>
      </trkpt>
      <trkpt lat="48.22954" lon="-3.58882">
        <ele>183</ele>
        <time>2021-07-08T14:12:09Z</time>
      </trkpt>
      <trkpt lat="48.2295" lon="-3.5888">
        <ele>183</ele>
        <time>2021-07-08T14:12:10Z</time>
      </trkpt>
      <trkpt lat="48.22947" lon="-3.5888">
        <ele>183</ele>
        <time>2021-07-08T14:12:11Z</time>
      </trkpt>
      <trkpt lat="48.22939" lon="-3.58877">
        <ele>183</ele>
        <time>2021-07-08T14:12:13Z</time>
      </trkpt>
      <trkpt lat="48.22935" lon="-3.58877">
        <ele>183</ele>
        <time>2021-07-08T14:12:14Z</time>
      </trkpt>
      <trkpt lat="48.22931" lon="-3.58877">
        <ele>184</ele>
        <time>2021-07-08T14:12:15Z</time>
      </trkpt>
      <trkpt lat="48.22927" lon="-3.58876">
        <ele>184</ele>
        <time>2021-07-08T14:12:16Z</time>
      </trkpt>
      <trkpt lat="48.22923" lon="-3.58876">
        <ele>184</ele>
        <time>2021-07-08T14:12:17Z</time>
      </trkpt>
      <trkpt lat="48.2292" lon="-3.58875">
        <ele>184</ele>
        <time>2021-07-08T14:12:18Z</time>
      </trkpt>
      <trkpt lat="48.22916" lon="-3.58875">
        <ele>184</ele>
        <time>2021-07-08T14:12:19Z</time>
      </trkpt>
      <trkpt lat="48.22912" lon="-3.58875">
        <ele>184</ele>
        <time>2021-07-08T14:12:20Z</time>
      </trkpt>
      <trkpt lat="48.22908" lon="-3.58875">
        <ele>184</ele>
        <time>2021-07-08T14:12:21Z</time>
      </trkpt>
      <trkpt lat="48.22905" lon="-3.58875">
        <ele>184</ele>
        <time>2021-07-08T14:12:22Z</time>
      </trkpt>
      <trkpt lat="48.22901" lon="-3.58875">
        <ele>184</ele>
        <time>2021-07-08T14:12:23Z</time>
      </trkpt>
      <trkpt lat="48.22898" lon="-3.58874">
        <ele>184</ele>
        <time>2021-07-08T14:12:24Z</time>
      </trkpt>
      <trkpt lat="48.22895" lon="-3.58873">
        <ele>184</ele>
        <time>2021-07-08T14:12:25Z</time>
      </trkpt>
      <trkpt lat="48.22887" lon="-3.58871">
        <ele>184</ele>
        <time>2021-07-08T14:12:27Z</time>
      </trkpt>
      <trkpt lat="48.22883" lon="-3.5887">
        <ele>184</ele>
        <time>2021-07-08T14:12:28Z</time>
      </trkpt>
      <trkpt lat="48.22879" lon="-3.58869">
        <ele>184</ele>
        <time>2021-07-08T14:12:29Z</time>
      </trkpt>
      <trkpt lat="48.22876" lon="-3.58869">
        <ele>184</ele>
        <time>2021-07-08T14:12:30Z</time>
      </trkpt>
      <trkpt lat="48.22868" lon="-3.58867">
        <ele>184</ele>
        <time>2021-07-08T14:12:32Z</time>
      </trkpt>
      <trkpt lat="48.22864" lon="-3.58867">
        <ele>184</ele>
        <time>2021-07-08T14:12:33Z</time>
      </trkpt>
      <trkpt lat="48.2286" lon="-3.58866">
        <ele>184</ele>
        <time>2021-07-08T14:12:34Z</time>
      </trkpt>
      <trkpt lat="48.22857" lon="-3.58866">
        <ele>184</ele>
        <time>2021-07-08T14:12:35Z</time>
      </trkpt>
      <trkpt lat="48.22854" lon="-3.58865">
        <ele>184</ele>
        <time>2021-07-08T14:12:36Z</time>
      </trkpt>
      <trkpt lat="48.22844" lon="-3.58863">
        <ele>185</ele>
        <time>2021-07-08T14:12:39Z</time>
      </trkpt>
      <trkpt lat="48.22836" lon="-3.58861">
        <ele>185</ele>
        <time>2021-07-08T14:12:41Z</time>
      </trkpt>
      <trkpt lat="48.22832" lon="-3.58861">
        <ele>185</ele>
        <time>2021-07-08T14:12:42Z</time>
      </trkpt>
      <trkpt lat="48.22828" lon="-3.5886">
        <ele>185</ele>
        <time>2021-07-08T14:12:43Z</time>
      </trkpt>
      <trkpt lat="48.22823" lon="-3.58859">
        <ele>185</ele>
        <time>2021-07-08T14:12:44Z</time>
      </trkpt>
      <trkpt lat="48.22815" lon="-3.58858">
        <ele>185</ele>
        <time>2021-07-08T14:12:46Z</time>
      </trkpt>
      <trkpt lat="48.22811" lon="-3.58858">
        <ele>185</ele>
        <time>2021-07-08T14:12:47Z</time>
      </trkpt>
      <trkpt lat="48.22808" lon="-3.58858">
        <ele>185</ele>
        <time>2021-07-08T14:12:48Z</time>
      </trkpt>
      <trkpt lat="48.22804" lon="-3.58858">
        <ele>185</ele>
        <time>2021-07-08T14:12:49Z</time>
      </trkpt>
      <trkpt lat="48.228" lon="-3.58858">
        <ele>185</ele>
        <time>2021-07-08T14:12:50Z</time>
      </trkpt>
      <trkpt lat="48.22796" lon="-3.58859">
        <ele>185</ele>
        <time>2021-07-08T14:12:51Z</time>
      </trkpt>
      <trkpt lat="48.22793" lon="-3.58859">
        <ele>185</ele>
        <time>2021-07-08T14:12:52Z</time>
      </trkpt>
      <trkpt lat="48.22789" lon="-3.58859">
        <ele>186</ele>
        <time>2021-07-08T14:12:53Z</time>
      </trkpt>
      <trkpt lat="48.22786" lon="-3.58858">
        <ele>186</ele>
        <time>2021-07-08T14:12:54Z</time>
      </trkpt>
      <trkpt lat="48.22782" lon="-3.58858">
        <ele>186</ele>
        <time>2021-07-08T14:12:55Z</time>
      </trkpt>
      <trkpt lat="48.22779" lon="-3.58857">
        <ele>186</ele>
        <time>2021-07-08T14:12:56Z</time>
      </trkpt>
      <trkpt lat="48.22775" lon="-3.58857">
        <ele>186</ele>
        <time>2021-07-08T14:12:57Z</time>
      </trkpt>
      <trkpt lat="48.22771" lon="-3.58857">
        <ele>186</ele>
        <time>2021-07-08T14:12:58Z</time>
      </trkpt>
      <trkpt lat="48.22767" lon="-3.58858">
        <ele>186</ele>
        <time>2021-07-08T14:12:59Z</time>
      </trkpt>
      <trkpt lat="48.22764" lon="-3.58859">
        <ele>186</ele>
        <time>2021-07-08T14:13:00Z</time>
      </trkpt>
      <trkpt lat="48.2276" lon="-3.5886">
        <ele>186</ele>
        <time>2021-07-08T14:13:01Z</time>
      </trkpt>
      <trkpt lat="48.22758" lon="-3.58861">
        <ele>186</ele>
        <time>2021-07-08T14:13:02Z</time>
      </trkpt>
      <trkpt lat="48.22754" lon="-3.58861">
        <ele>186</ele>
        <time>2021-07-08T14:13:03Z</time>
      </trkpt>
      <trkpt lat="48.22752" lon="-3.58862">
        <ele>186</ele>
        <time>2021-07-08T14:13:04Z</time>
      </trkpt>
      <trkpt lat="48.2275" lon="-3.58864">
        <ele>186</ele>
        <time>2021-07-08T14:13:05Z</time>
      </trkpt>
      <trkpt lat="48.22747" lon="-3.58865">
        <ele>187</ele>
        <time>2021-07-08T14:13:06Z</time>
      </trkpt>
      <trkpt lat="48.22743" lon="-3.58867">
        <ele>187</ele>
        <time>2021-07-08T14:13:07Z</time>
      </trkpt>
      <trkpt lat="48.22741" lon="-3.58868">
        <ele>187</ele>
        <time>2021-07-08T14:13:08Z</time>
      </trkpt>
      <trkpt lat="48.22735" lon="-3.58871">
        <ele>187</ele>
        <time>2021-07-08T14:13:10Z</time>
      </trkpt>
      <trkpt lat="48.22732" lon="-3.58873">
        <ele>187</ele>
        <time>2021-07-08T14:13:11Z</time>
      </trkpt>
      <trkpt lat="48.22728" lon="-3.58876">
        <ele>187</ele>
        <time>2021-07-08T14:13:12Z</time>
      </trkpt>
      <trkpt lat="48.22725" lon="-3.58879">
        <ele>187</ele>
        <time>2021-07-08T14:13:13Z</time>
      </trkpt>
      <trkpt lat="48.22722" lon="-3.58881">
        <ele>187</ele>
        <time>2021-07-08T14:13:14Z</time>
      </trkpt>
      <trkpt lat="48.2272" lon="-3.58884">
        <ele>187</ele>
        <time>2021-07-08T14:13:15Z</time>
      </trkpt>
      <trkpt lat="48.22717" lon="-3.58885">
        <ele>187</ele>
        <time>2021-07-08T14:13:16Z</time>
      </trkpt>
      <trkpt lat="48.22707" lon="-3.58894">
        <ele>187</ele>
        <time>2021-07-08T14:13:19Z</time>
      </trkpt>
      <trkpt lat="48.22695" lon="-3.58903">
        <ele>187</ele>
        <time>2021-07-08T14:13:22Z</time>
      </trkpt>
      <trkpt lat="48.22691" lon="-3.58905">
        <ele>187</ele>
        <time>2021-07-08T14:13:23Z</time>
      </trkpt>
      <trkpt lat="48.22687" lon="-3.58908">
        <ele>187</ele>
        <time>2021-07-08T14:13:24Z</time>
      </trkpt>
      <trkpt lat="48.22683" lon="-3.58911">
        <ele>187</ele>
        <time>2021-07-08T14:13:26Z</time>
      </trkpt>
      <trkpt lat="48.2268" lon="-3.58914">
        <ele>187</ele>
        <time>2021-07-08T14:13:26Z</time>
      </trkpt>
      <trkpt lat="48.22676" lon="-3.58917">
        <ele>187</ele>
        <time>2021-07-08T14:13:27Z</time>
      </trkpt>
      <trkpt lat="48.22669" lon="-3.58923">
        <ele>187</ele>
        <time>2021-07-08T14:13:29Z</time>
      </trkpt>
      <trkpt lat="48.22665" lon="-3.58926">
        <ele>187</ele>
        <time>2021-07-08T14:13:30Z</time>
      </trkpt>
      <trkpt lat="48.22662" lon="-3.5893">
        <ele>187</ele>
        <time>2021-07-08T14:13:31Z</time>
      </trkpt>
      <trkpt lat="48.22658" lon="-3.58933">
        <ele>187</ele>
        <time>2021-07-08T14:13:32Z</time>
      </trkpt>
      <trkpt lat="48.22655" lon="-3.58936">
        <ele>187</ele>
        <time>2021-07-08T14:13:33Z</time>
      </trkpt>
      <trkpt lat="48.22652" lon="-3.58939">
        <ele>187</ele>
        <time>2021-07-08T14:13:34Z</time>
      </trkpt>
      <trkpt lat="48.22649" lon="-3.58942">
        <ele>187</ele>
        <time>2021-07-08T14:13:35Z</time>
      </trkpt>
      <trkpt lat="48.22646" lon="-3.58945">
        <ele>188</ele>
        <time>2021-07-08T14:13:36Z</time>
      </trkpt>
      <trkpt lat="48.22643" lon="-3.58948">
        <ele>188</ele>
        <time>2021-07-08T14:13:37Z</time>
      </trkpt>
      <trkpt lat="48.2264" lon="-3.5895">
        <ele>188</ele>
        <time>2021-07-08T14:13:38Z</time>
      </trkpt>
      <trkpt lat="48.22638" lon="-3.58953">
        <ele>188</ele>
        <time>2021-07-08T14:13:39Z</time>
      </trkpt>
      <trkpt lat="48.22635" lon="-3.58956">
        <ele>188</ele>
        <time>2021-07-08T14:13:40Z</time>
      </trkpt>
      <trkpt lat="48.22633" lon="-3.5896">
        <ele>188</ele>
        <time>2021-07-08T14:13:41Z</time>
      </trkpt>
      <trkpt lat="48.2263" lon="-3.58963">
        <ele>188</ele>
        <time>2021-07-08T14:13:42Z</time>
      </trkpt>
      <trkpt lat="48.22628" lon="-3.58967">
        <ele>188</ele>
        <time>2021-07-08T14:13:43Z</time>
      </trkpt>
      <trkpt lat="48.22626" lon="-3.5897">
        <ele>188</ele>
        <time>2021-07-08T14:13:44Z</time>
      </trkpt>
      <trkpt lat="48.22624" lon="-3.58974">
        <ele>188</ele>
        <time>2021-07-08T14:13:45Z</time>
      </trkpt>
      <trkpt lat="48.22622" lon="-3.58978">
        <ele>188</ele>
        <time>2021-07-08T14:13:46Z</time>
      </trkpt>
      <trkpt lat="48.22618" lon="-3.58986">
        <ele>188</ele>
        <time>2021-07-08T14:13:48Z</time>
      </trkpt>
      <trkpt lat="48.22616" lon="-3.58989">
        <ele>188</ele>
        <time>2021-07-08T14:13:49Z</time>
      </trkpt>
      <trkpt lat="48.22615" lon="-3.58993">
        <ele>188</ele>
        <time>2021-07-08T14:13:50Z</time>
      </trkpt>
      <trkpt lat="48.22613" lon="-3.58997">
        <ele>188</ele>
        <time>2021-07-08T14:13:51Z</time>
      </trkpt>
      <trkpt lat="48.22611" lon="-3.59001">
        <ele>189</ele>
        <time>2021-07-08T14:13:52Z</time>
      </trkpt>
      <trkpt lat="48.22609" lon="-3.59004">
        <ele>189</ele>
        <time>2021-07-08T14:13:53Z</time>
      </trkpt>
      <trkpt lat="48.22607" lon="-3.59008">
        <ele>189</ele>
        <time>2021-07-08T14:13:54Z</time>
      </trkpt>
      <trkpt lat="48.22606" lon="-3.59011">
        <ele>189</ele>
        <time>2021-07-08T14:13:55Z</time>
      </trkpt>
      <trkpt lat="48.22604" lon="-3.59015">
        <ele>189</ele>
        <time>2021-07-08T14:13:56Z</time>
      </trkpt>
      <trkpt lat="48.22602" lon="-3.5902">
        <ele>189</ele>
        <time>2021-07-08T14:13:57Z</time>
      </trkpt>
      <trkpt lat="48.226" lon="-3.59024">
        <ele>189</ele>
        <time>2021-07-08T14:13:58Z</time>
      </trkpt>
      <trkpt lat="48.22598" lon="-3.59027">
        <ele>189</ele>
        <time>2021-07-08T14:13:59Z</time>
      </trkpt>
      <trkpt lat="48.22596" lon="-3.5903">
        <ele>188</ele>
        <time>2021-07-08T14:14:00Z</time>
      </trkpt>
      <trkpt lat="48.22594" lon="-3.59034">
        <ele>188</ele>
        <time>2021-07-08T14:14:01Z</time>
      </trkpt>
      <trkpt lat="48.22592" lon="-3.59038">
        <ele>189</ele>
        <time>2021-07-08T14:14:02Z</time>
      </trkpt>
      <trkpt lat="48.22591" lon="-3.59042">
        <ele>189</ele>
        <time>2021-07-08T14:14:03Z</time>
      </trkpt>
      <trkpt lat="48.22589" lon="-3.59046">
        <ele>189</ele>
        <time>2021-07-08T14:14:04Z</time>
      </trkpt>
      <trkpt lat="48.22587" lon="-3.5905">
        <ele>189</ele>
        <time>2021-07-08T14:14:05Z</time>
      </trkpt>
      <trkpt lat="48.22584" lon="-3.59058">
        <ele>189</ele>
        <time>2021-07-08T14:14:07Z</time>
      </trkpt>
      <trkpt lat="48.22582" lon="-3.59061">
        <ele>189</ele>
        <time>2021-07-08T14:14:08Z</time>
      </trkpt>
      <trkpt lat="48.2258" lon="-3.59065">
        <ele>189</ele>
        <time>2021-07-08T14:14:09Z</time>
      </trkpt>
      <trkpt lat="48.22579" lon="-3.5907">
        <ele>189</ele>
        <time>2021-07-08T14:14:10Z</time>
      </trkpt>
      <trkpt lat="48.22577" lon="-3.59074">
        <ele>190</ele>
        <time>2021-07-08T14:14:11Z</time>
      </trkpt>
      <trkpt lat="48.22575" lon="-3.59077">
        <ele>190</ele>
        <time>2021-07-08T14:14:12Z</time>
      </trkpt>
      <trkpt lat="48.22574" lon="-3.5908">
        <ele>190</ele>
        <time>2021-07-08T14:14:13Z</time>
      </trkpt>
      <trkpt lat="48.22573" lon="-3.59083">
        <ele>190</ele>
        <time>2021-07-08T14:14:14Z</time>
      </trkpt>
      <trkpt lat="48.22572" lon="-3.59086">
        <ele>190</ele>
        <time>2021-07-08T14:14:15Z</time>
      </trkpt>
      <trkpt lat="48.22571" lon="-3.59088">
        <ele>190</ele>
        <time>2021-07-08T14:14:16Z</time>
      </trkpt>
      <trkpt lat="48.22569" lon="-3.59092">
        <ele>190</ele>
        <time>2021-07-08T14:14:18Z</time>
      </trkpt>
      <trkpt lat="48.22567" lon="-3.59096">
        <ele>190</ele>
        <time>2021-07-08T14:14:20Z</time>
      </trkpt>
      <trkpt lat="48.22566" lon="-3.59098">
        <ele>190</ele>
        <time>2021-07-08T14:14:21Z</time>
      </trkpt>
      <trkpt lat="48.22565" lon="-3.59102">
        <ele>190</ele>
        <time>2021-07-08T14:14:22Z</time>
      </trkpt>
      <trkpt lat="48.22564" lon="-3.59105">
        <ele>190</ele>
        <time>2021-07-08T14:14:23Z</time>
      </trkpt>
      <trkpt lat="48.22562" lon="-3.59109">
        <ele>190</ele>
        <time>2021-07-08T14:14:24Z</time>
      </trkpt>
      <trkpt lat="48.22557" lon="-3.59115">
        <ele>190</ele>
        <time>2021-07-08T14:14:26Z</time>
      </trkpt>
      <trkpt lat="48.22555" lon="-3.59118">
        <ele>190</ele>
        <time>2021-07-08T14:14:27Z</time>
      </trkpt>
      <trkpt lat="48.22554" lon="-3.59121">
        <ele>190</ele>
        <time>2021-07-08T14:14:28Z</time>
      </trkpt>
      <trkpt lat="48.22552" lon="-3.59125">
        <ele>190</ele>
        <time>2021-07-08T14:14:29Z</time>
      </trkpt>
      <trkpt lat="48.2255" lon="-3.59129">
        <ele>191</ele>
        <time>2021-07-08T14:14:30Z</time>
      </trkpt>
      <trkpt lat="48.22549" lon="-3.59133">
        <ele>191</ele>
        <time>2021-07-08T14:14:31Z</time>
      </trkpt>
      <trkpt lat="48.22547" lon="-3.59137">
        <ele>191</ele>
        <time>2021-07-08T14:14:32Z</time>
      </trkpt>
      <trkpt lat="48.22546" lon="-3.5914">
        <ele>191</ele>
        <time>2021-07-08T14:14:33Z</time>
      </trkpt>
      <trkpt lat="48.22544" lon="-3.59144">
        <ele>191</ele>
        <time>2021-07-08T14:14:34Z</time>
      </trkpt>
      <trkpt lat="48.22542" lon="-3.59148">
        <ele>191</ele>
        <time>2021-07-08T14:14:35Z</time>
      </trkpt>
      <trkpt lat="48.22541" lon="-3.59152">
        <ele>191</ele>
        <time>2021-07-08T14:14:36Z</time>
      </trkpt>
      <trkpt lat="48.22539" lon="-3.59156">
        <ele>191</ele>
        <time>2021-07-08T14:14:37Z</time>
      </trkpt>
      <trkpt lat="48.22537" lon="-3.5916">
        <ele>191</ele>
        <time>2021-07-08T14:14:38Z</time>
      </trkpt>
      <trkpt lat="48.22535" lon="-3.59163">
        <ele>191</ele>
        <time>2021-07-08T14:14:39Z</time>
      </trkpt>
      <trkpt lat="48.22534" lon="-3.59167">
        <ele>191</ele>
        <time>2021-07-08T14:14:40Z</time>
      </trkpt>
      <trkpt lat="48.22532" lon="-3.59171">
        <ele>191</ele>
        <time>2021-07-08T14:14:41Z</time>
      </trkpt>
      <trkpt lat="48.22531" lon="-3.59176">
        <ele>191</ele>
        <time>2021-07-08T14:14:42Z</time>
      </trkpt>
      <trkpt lat="48.22527" lon="-3.59189">
        <ele>191</ele>
        <time>2021-07-08T14:14:45Z</time>
      </trkpt>
      <trkpt lat="48.22525" lon="-3.59193">
        <ele>191</ele>
        <time>2021-07-08T14:14:47Z</time>
      </trkpt>
      <trkpt lat="48.22523" lon="-3.59197">
        <ele>191</ele>
        <time>2021-07-08T14:14:47Z</time>
      </trkpt>
      <trkpt lat="48.22521" lon="-3.59201">
        <ele>191</ele>
        <time>2021-07-08T14:14:48Z</time>
      </trkpt>
      <trkpt lat="48.22519" lon="-3.59205">
        <ele>191</ele>
        <time>2021-07-08T14:14:49Z</time>
      </trkpt>
      <trkpt lat="48.22517" lon="-3.59209">
        <ele>191</ele>
        <time>2021-07-08T14:14:50Z</time>
      </trkpt>
      <trkpt lat="48.22515" lon="-3.59213">
        <ele>191</ele>
        <time>2021-07-08T14:14:51Z</time>
      </trkpt>
      <trkpt lat="48.22513" lon="-3.59218">
        <ele>191</ele>
        <time>2021-07-08T14:14:52Z</time>
      </trkpt>
      <trkpt lat="48.22511" lon="-3.59223">
        <ele>191</ele>
        <time>2021-07-08T14:14:53Z</time>
      </trkpt>
      <trkpt lat="48.22509" lon="-3.59227">
        <ele>191</ele>
        <time>2021-07-08T14:14:54Z</time>
      </trkpt>
      <trkpt lat="48.22507" lon="-3.59231">
        <ele>191</ele>
        <time>2021-07-08T14:14:55Z</time>
      </trkpt>
      <trkpt lat="48.22505" lon="-3.59235">
        <ele>191</ele>
        <time>2021-07-08T14:14:56Z</time>
      </trkpt>
      <trkpt lat="48.22502" lon="-3.59238">
        <ele>192</ele>
        <time>2021-07-08T14:14:57Z</time>
      </trkpt>
      <trkpt lat="48.22499" lon="-3.59242">
        <ele>192</ele>
        <time>2021-07-08T14:14:58Z</time>
      </trkpt>
      <trkpt lat="48.22497" lon="-3.59246">
        <ele>192</ele>
        <time>2021-07-08T14:14:59Z</time>
      </trkpt>
      <trkpt lat="48.22494" lon="-3.5925">
        <ele>192</ele>
        <time>2021-07-08T14:15:00Z</time>
      </trkpt>
      <trkpt lat="48.22492" lon="-3.59253">
        <ele>192</ele>
        <time>2021-07-08T14:15:01Z</time>
      </trkpt>
      <trkpt lat="48.22489" lon="-3.59257">
        <ele>193</ele>
        <time>2021-07-08T14:15:02Z</time>
      </trkpt>
      <trkpt lat="48.22484" lon="-3.59264">
        <ele>193</ele>
        <time>2021-07-08T14:15:04Z</time>
      </trkpt>
      <trkpt lat="48.22481" lon="-3.59267">
        <ele>193</ele>
        <time>2021-07-08T14:15:05Z</time>
      </trkpt>
      <trkpt lat="48.22479" lon="-3.5927">
        <ele>193</ele>
        <time>2021-07-08T14:15:06Z</time>
      </trkpt>
      <trkpt lat="48.22476" lon="-3.59273">
        <ele>193</ele>
        <time>2021-07-08T14:15:07Z</time>
      </trkpt>
      <trkpt lat="48.22474" lon="-3.59276">
        <ele>193</ele>
        <time>2021-07-08T14:15:08Z</time>
      </trkpt>
      <trkpt lat="48.22471" lon="-3.5928">
        <ele>193</ele>
        <time>2021-07-08T14:15:09Z</time>
      </trkpt>
      <trkpt lat="48.22468" lon="-3.59282">
        <ele>193</ele>
        <time>2021-07-08T14:15:10Z</time>
      </trkpt>
      <trkpt lat="48.22466" lon="-3.59285">
        <ele>193</ele>
        <time>2021-07-08T14:15:11Z</time>
      </trkpt>
      <trkpt lat="48.22463" lon="-3.59288">
        <ele>193</ele>
        <time>2021-07-08T14:15:12Z</time>
      </trkpt>
      <trkpt lat="48.2246" lon="-3.5929">
        <ele>193</ele>
        <time>2021-07-08T14:15:13Z</time>
      </trkpt>
      <trkpt lat="48.22457" lon="-3.59293">
        <ele>193</ele>
        <time>2021-07-08T14:15:14Z</time>
      </trkpt>
      <trkpt lat="48.22454" lon="-3.59295">
        <ele>193</ele>
        <time>2021-07-08T14:15:16Z</time>
      </trkpt>
      <trkpt lat="48.22452" lon="-3.59298">
        <ele>193</ele>
        <time>2021-07-08T14:15:17Z</time>
      </trkpt>
      <trkpt lat="48.22449" lon="-3.593">
        <ele>193</ele>
        <time>2021-07-08T14:15:17Z</time>
      </trkpt>
      <trkpt lat="48.22447" lon="-3.59302">
        <ele>193</ele>
        <time>2021-07-08T14:15:18Z</time>
      </trkpt>
      <trkpt lat="48.22445" lon="-3.59304">
        <ele>193</ele>
        <time>2021-07-08T14:15:19Z</time>
      </trkpt>
      <trkpt lat="48.22442" lon="-3.59306">
        <ele>193</ele>
        <time>2021-07-08T14:15:20Z</time>
      </trkpt>
      <trkpt lat="48.22439" lon="-3.59308">
        <ele>193</ele>
        <time>2021-07-08T14:15:21Z</time>
      </trkpt>
      <trkpt lat="48.22429" lon="-3.59315">
        <ele>193</ele>
        <time>2021-07-08T14:15:24Z</time>
      </trkpt>
      <trkpt lat="48.22419" lon="-3.59319">
        <ele>193</ele>
        <time>2021-07-08T14:15:27Z</time>
      </trkpt>
      <trkpt lat="48.22408" lon="-3.59324">
        <ele>193</ele>
        <time>2021-07-08T14:15:30Z</time>
      </trkpt>
      <trkpt lat="48.22396" lon="-3.59329">
        <ele>193</ele>
        <time>2021-07-08T14:15:33Z</time>
      </trkpt>
      <trkpt lat="48.22384" lon="-3.59331">
        <ele>193</ele>
        <time>2021-07-08T14:15:36Z</time>
      </trkpt>
      <trkpt lat="48.22373" lon="-3.59331">
        <ele>193</ele>
        <time>2021-07-08T14:15:39Z</time>
      </trkpt>
      <trkpt lat="48.22361" lon="-3.5933">
        <ele>193</ele>
        <time>2021-07-08T14:15:42Z</time>
      </trkpt>
      <trkpt lat="48.22352" lon="-3.59326">
        <ele>193</ele>
        <time>2021-07-08T14:15:45Z</time>
      </trkpt>
      <trkpt lat="48.2234" lon="-3.59324">
        <ele>193</ele>
        <time>2021-07-08T14:15:48Z</time>
      </trkpt>
      <trkpt lat="48.22328" lon="-3.59322">
        <ele>193</ele>
        <time>2021-07-08T14:15:51Z</time>
      </trkpt>
      <trkpt lat="48.22317" lon="-3.59318">
        <ele>193</ele>
        <time>2021-07-08T14:15:54Z</time>
      </trkpt>
      <trkpt lat="48.22308" lon="-3.59315">
        <ele>194</ele>
        <time>2021-07-08T14:15:57Z</time>
      </trkpt>
      <trkpt lat="48.22296" lon="-3.59308">
        <ele>194</ele>
        <time>2021-07-08T14:16:01Z</time>
      </trkpt>
      <trkpt lat="48.22285" lon="-3.59301">
        <ele>194</ele>
        <time>2021-07-08T14:16:04Z</time>
      </trkpt>
      <trkpt lat="48.22278" lon="-3.59296">
        <ele>194</ele>
        <time>2021-07-08T14:16:07Z</time>
      </trkpt>
      <trkpt lat="48.22275" lon="-3.59293">
        <ele>194</ele>
        <time>2021-07-08T14:16:08Z</time>
      </trkpt>
      <trkpt lat="48.22272" lon="-3.59291">
        <ele>194</ele>
        <time>2021-07-08T14:16:09Z</time>
      </trkpt>
      <trkpt lat="48.22269" lon="-3.59288">
        <ele>194</ele>
        <time>2021-07-08T14:16:10Z</time>
      </trkpt>
      <trkpt lat="48.22266" lon="-3.59286">
        <ele>195</ele>
        <time>2021-07-08T14:16:11Z</time>
      </trkpt>
      <trkpt lat="48.22264" lon="-3.59283">
        <ele>195</ele>
        <time>2021-07-08T14:16:12Z</time>
      </trkpt>
      <trkpt lat="48.22262" lon="-3.59281">
        <ele>195</ele>
        <time>2021-07-08T14:16:13Z</time>
      </trkpt>
      <trkpt lat="48.22259" lon="-3.59278">
        <ele>195</ele>
        <time>2021-07-08T14:16:15Z</time>
      </trkpt>
      <trkpt lat="48.22252" lon="-3.59271">
        <ele>196</ele>
        <time>2021-07-08T14:16:48Z</time>
      </trkpt>
      <trkpt lat="48.22251" lon="-3.5927">
        <ele>196</ele>
        <time>2021-07-08T14:16:49Z</time>
      </trkpt>
      <trkpt lat="48.22248" lon="-3.59268">
        <ele>196</ele>
        <time>2021-07-08T14:16:51Z</time>
      </trkpt>
      <trkpt lat="48.22246" lon="-3.59267">
        <ele>196</ele>
        <time>2021-07-08T14:16:52Z</time>
      </trkpt>
      <trkpt lat="48.22243" lon="-3.59263">
        <ele>196</ele>
        <time>2021-07-08T14:16:54Z</time>
      </trkpt>
      <trkpt lat="48.22241" lon="-3.59261">
        <ele>196</ele>
        <time>2021-07-08T14:16:55Z</time>
      </trkpt>
      <trkpt lat="48.22239" lon="-3.59259">
        <ele>196</ele>
        <time>2021-07-08T14:16:56Z</time>
      </trkpt>
      <trkpt lat="48.22236" lon="-3.59257">
        <ele>196</ele>
        <time>2021-07-08T14:16:57Z</time>
      </trkpt>
      <trkpt lat="48.22234" lon="-3.59255">
        <ele>196</ele>
        <time>2021-07-08T14:16:58Z</time>
      </trkpt>
      <trkpt lat="48.22233" lon="-3.59253">
        <ele>196</ele>
        <time>2021-07-08T14:16:59Z</time>
      </trkpt>
      <trkpt lat="48.2223" lon="-3.59249">
        <ele>196</ele>
        <time>2021-07-08T14:17:00Z</time>
      </trkpt>
      <trkpt lat="48.22228" lon="-3.59246">
        <ele>196</ele>
        <time>2021-07-08T14:17:01Z</time>
      </trkpt>
      <trkpt lat="48.22226" lon="-3.59243">
        <ele>196</ele>
        <time>2021-07-08T14:17:02Z</time>
      </trkpt>
      <trkpt lat="48.22224" lon="-3.5924">
        <ele>196</ele>
        <time>2021-07-08T14:17:03Z</time>
      </trkpt>
      <trkpt lat="48.22222" lon="-3.59237">
        <ele>196</ele>
        <time>2021-07-08T14:17:04Z</time>
      </trkpt>
      <trkpt lat="48.22216" lon="-3.59226">
        <ele>197</ele>
        <time>2021-07-08T14:17:07Z</time>
      </trkpt>
      <trkpt lat="48.22215" lon="-3.59223">
        <ele>197</ele>
        <time>2021-07-08T14:17:09Z</time>
      </trkpt>
      <trkpt lat="48.22212" lon="-3.5922">
        <ele>197</ele>
        <time>2021-07-08T14:17:09Z</time>
      </trkpt>
      <trkpt lat="48.22211" lon="-3.59218">
        <ele>197</ele>
        <time>2021-07-08T14:17:10Z</time>
      </trkpt>
      <trkpt lat="48.22208" lon="-3.59214">
        <ele>197</ele>
        <time>2021-07-08T14:17:11Z</time>
      </trkpt>
      <trkpt lat="48.22206" lon="-3.5921">
        <ele>197</ele>
        <time>2021-07-08T14:17:12Z</time>
      </trkpt>
      <trkpt lat="48.22204" lon="-3.59206">
        <ele>197</ele>
        <time>2021-07-08T14:17:13Z</time>
      </trkpt>
      <trkpt lat="48.22203" lon="-3.59203">
        <ele>198</ele>
        <time>2021-07-08T14:17:14Z</time>
      </trkpt>
      <trkpt lat="48.22201" lon="-3.59199">
        <ele>198</ele>
        <time>2021-07-08T14:17:15Z</time>
      </trkpt>
      <trkpt lat="48.22199" lon="-3.59195">
        <ele>198</ele>
        <time>2021-07-08T14:17:16Z</time>
      </trkpt>
      <trkpt lat="48.22198" lon="-3.59191">
        <ele>198</ele>
        <time>2021-07-08T14:17:17Z</time>
      </trkpt>
      <trkpt lat="48.22196" lon="-3.59187">
        <ele>198</ele>
        <time>2021-07-08T14:17:18Z</time>
      </trkpt>
      <trkpt lat="48.22194" lon="-3.59183">
        <ele>197</ele>
        <time>2021-07-08T14:17:19Z</time>
      </trkpt>
      <trkpt lat="48.22193" lon="-3.59179">
        <ele>197</ele>
        <time>2021-07-08T14:17:20Z</time>
      </trkpt>
      <trkpt lat="48.22192" lon="-3.59174">
        <ele>197</ele>
        <time>2021-07-08T14:17:21Z</time>
      </trkpt>
      <trkpt lat="48.2219" lon="-3.5917">
        <ele>198</ele>
        <time>2021-07-08T14:17:22Z</time>
      </trkpt>
      <trkpt lat="48.22189" lon="-3.59165">
        <ele>198</ele>
        <time>2021-07-08T14:17:23Z</time>
      </trkpt>
      <trkpt lat="48.22188" lon="-3.5916">
        <ele>198</ele>
        <time>2021-07-08T14:17:24Z</time>
      </trkpt>
      <trkpt lat="48.22184" lon="-3.59146">
        <ele>198</ele>
        <time>2021-07-08T14:17:28Z</time>
      </trkpt>
      <trkpt lat="48.22181" lon="-3.59131">
        <ele>198</ele>
        <time>2021-07-08T14:17:30Z</time>
      </trkpt>
      <trkpt lat="48.22178" lon="-3.59115">
        <ele>199</ele>
        <time>2021-07-08T14:17:33Z</time>
      </trkpt>
      <trkpt lat="48.22176" lon="-3.59101">
        <ele>199</ele>
        <time>2021-07-08T14:17:36Z</time>
      </trkpt>
      <trkpt lat="48.22174" lon="-3.59087">
        <ele>199</ele>
        <time>2021-07-08T14:17:39Z</time>
      </trkpt>
      <trkpt lat="48.22172" lon="-3.59074">
        <ele>199</ele>
        <time>2021-07-08T14:17:42Z</time>
      </trkpt>
      <trkpt lat="48.22171" lon="-3.59061">
        <ele>199</ele>
        <time>2021-07-08T14:17:45Z</time>
      </trkpt>
      <trkpt lat="48.22172" lon="-3.59046">
        <ele>200</ele>
        <time>2021-07-08T14:17:48Z</time>
      </trkpt>
      <trkpt lat="48.22172" lon="-3.59032">
        <ele>200</ele>
        <time>2021-07-08T14:17:51Z</time>
      </trkpt>
      <trkpt lat="48.22172" lon="-3.59017">
        <ele>200</ele>
        <time>2021-07-08T14:17:54Z</time>
      </trkpt>
      <trkpt lat="48.22171" lon="-3.59">
        <ele>200</ele>
        <time>2021-07-08T14:17:57Z</time>
      </trkpt>
      <trkpt lat="48.2217" lon="-3.58995">
        <ele>200</ele>
        <time>2021-07-08T14:17:58Z</time>
      </trkpt>
      <trkpt lat="48.2217" lon="-3.5899">
        <ele>200</ele>
        <time>2021-07-08T14:17:59Z</time>
      </trkpt>
      <trkpt lat="48.2217" lon="-3.58975">
        <ele>201</ele>
        <time>2021-07-08T14:18:02Z</time>
      </trkpt>
      <trkpt lat="48.2217" lon="-3.5896">
        <ele>201</ele>
        <time>2021-07-08T14:18:06Z</time>
      </trkpt>
      <trkpt lat="48.2217" lon="-3.58945">
        <ele>201</ele>
        <time>2021-07-08T14:18:08Z</time>
      </trkpt>
      <trkpt lat="48.2217" lon="-3.58939">
        <ele>201</ele>
        <time>2021-07-08T14:18:10Z</time>
      </trkpt>
      <trkpt lat="48.2217" lon="-3.58934">
        <ele>201</ele>
        <time>2021-07-08T14:18:10Z</time>
      </trkpt>
      <trkpt lat="48.2217" lon="-3.58928">
        <ele>201</ele>
        <time>2021-07-08T14:18:11Z</time>
      </trkpt>
      <trkpt lat="48.2217" lon="-3.58922">
        <ele>201</ele>
        <time>2021-07-08T14:18:12Z</time>
      </trkpt>
      <trkpt lat="48.22171" lon="-3.58917">
        <ele>202</ele>
        <time>2021-07-08T14:18:13Z</time>
      </trkpt>
      <trkpt lat="48.22171" lon="-3.58912">
        <ele>202</ele>
        <time>2021-07-08T14:18:14Z</time>
      </trkpt>
      <trkpt lat="48.22172" lon="-3.58907">
        <ele>202</ele>
        <time>2021-07-08T14:18:15Z</time>
      </trkpt>
      <trkpt lat="48.22171" lon="-3.5889">
        <ele>202</ele>
        <time>2021-07-08T14:18:18Z</time>
      </trkpt>
      <trkpt lat="48.22168" lon="-3.58873">
        <ele>202</ele>
        <time>2021-07-08T14:18:21Z</time>
      </trkpt>
      <trkpt lat="48.22161" lon="-3.58853">
        <ele>202</ele>
        <time>2021-07-08T14:18:25Z</time>
      </trkpt>
      <trkpt lat="48.22156" lon="-3.58838">
        <ele>202</ele>
        <time>2021-07-08T14:18:28Z</time>
      </trkpt>
      <trkpt lat="48.22151" lon="-3.58823">
        <ele>202</ele>
        <time>2021-07-08T14:18:31Z</time>
      </trkpt>
      <trkpt lat="48.22145" lon="-3.58812">
        <ele>202</ele>
        <time>2021-07-08T14:18:34Z</time>
      </trkpt>
      <trkpt lat="48.22139" lon="-3.58802">
        <ele>202</ele>
        <time>2021-07-08T14:18:37Z</time>
      </trkpt>
      <trkpt lat="48.22132" lon="-3.58791">
        <ele>202</ele>
        <time>2021-07-08T14:18:40Z</time>
      </trkpt>
      <trkpt lat="48.22122" lon="-3.58777">
        <ele>202</ele>
        <time>2021-07-08T14:18:44Z</time>
      </trkpt>
      <trkpt lat="48.22114" lon="-3.58767">
        <ele>203</ele>
        <time>2021-07-08T14:18:47Z</time>
      </trkpt>
      <trkpt lat="48.22107" lon="-3.58761">
        <ele>203</ele>
        <time>2021-07-08T14:18:49Z</time>
      </trkpt>
      <trkpt lat="48.22104" lon="-3.58759">
        <ele>203</ele>
        <time>2021-07-08T14:18:50Z</time>
      </trkpt>
      <trkpt lat="48.22101" lon="-3.58757">
        <ele>203</ele>
        <time>2021-07-08T14:18:51Z</time>
      </trkpt>
      <trkpt lat="48.22097" lon="-3.58754">
        <ele>203</ele>
        <time>2021-07-08T14:18:52Z</time>
      </trkpt>
      <trkpt lat="48.22094" lon="-3.58752">
        <ele>203</ele>
        <time>2021-07-08T14:18:53Z</time>
      </trkpt>
      <trkpt lat="48.22092" lon="-3.58749">
        <ele>203</ele>
        <time>2021-07-08T14:18:54Z</time>
      </trkpt>
      <trkpt lat="48.22089" lon="-3.58746">
        <ele>203</ele>
        <time>2021-07-08T14:18:55Z</time>
      </trkpt>
      <trkpt lat="48.22086" lon="-3.58743">
        <ele>203</ele>
        <time>2021-07-08T14:18:56Z</time>
      </trkpt>
      <trkpt lat="48.22082" lon="-3.58741">
        <ele>203</ele>
        <time>2021-07-08T14:18:58Z</time>
      </trkpt>
      <trkpt lat="48.22079" lon="-3.58739">
        <ele>203</ele>
        <time>2021-07-08T14:18:58Z</time>
      </trkpt>
      <trkpt lat="48.22075" lon="-3.58737">
        <ele>203</ele>
        <time>2021-07-08T14:18:59Z</time>
      </trkpt>
      <trkpt lat="48.22072" lon="-3.58735">
        <ele>203</ele>
        <time>2021-07-08T14:19:00Z</time>
      </trkpt>
      <trkpt lat="48.22069" lon="-3.58733">
        <ele>203</ele>
        <time>2021-07-08T14:19:01Z</time>
      </trkpt>
      <trkpt lat="48.22066" lon="-3.58732">
        <ele>203</ele>
        <time>2021-07-08T14:19:02Z</time>
      </trkpt>
      <trkpt lat="48.22057" lon="-3.58729">
        <ele>203</ele>
        <time>2021-07-08T14:19:05Z</time>
      </trkpt>
      <trkpt lat="48.22047" lon="-3.58727">
        <ele>203</ele>
        <time>2021-07-08T14:19:08Z</time>
      </trkpt>
      <trkpt lat="48.22037" lon="-3.58724">
        <ele>203</ele>
        <time>2021-07-08T14:19:11Z</time>
      </trkpt>
      <trkpt lat="48.22025" lon="-3.58722">
        <ele>203</ele>
        <time>2021-07-08T14:19:14Z</time>
      </trkpt>
      <trkpt lat="48.22013" lon="-3.58719">
        <ele>203</ele>
        <time>2021-07-08T14:19:17Z</time>
      </trkpt>
      <trkpt lat="48.22" lon="-3.58713">
        <ele>203</ele>
        <time>2021-07-08T14:19:20Z</time>
      </trkpt>
      <trkpt lat="48.21991" lon="-3.58708">
        <ele>203</ele>
        <time>2021-07-08T14:19:22Z</time>
      </trkpt>
      <trkpt lat="48.21979" lon="-3.58703">
        <ele>203</ele>
        <time>2021-07-08T14:19:25Z</time>
      </trkpt>
      <trkpt lat="48.21967" lon="-3.587">
        <ele>203</ele>
        <time>2021-07-08T14:19:28Z</time>
      </trkpt>
      <trkpt lat="48.21957" lon="-3.58697">
        <ele>203</ele>
        <time>2021-07-08T14:19:31Z</time>
      </trkpt>
      <trkpt lat="48.21946" lon="-3.58693">
        <ele>203</ele>
        <time>2021-07-08T14:19:34Z</time>
      </trkpt>
      <trkpt lat="48.21935" lon="-3.58689">
        <ele>203</ele>
        <time>2021-07-08T14:19:37Z</time>
      </trkpt>
      <trkpt lat="48.21925" lon="-3.58681">
        <ele>203</ele>
        <time>2021-07-08T14:19:40Z</time>
      </trkpt>
      <trkpt lat="48.21916" lon="-3.58676">
        <ele>203</ele>
        <time>2021-07-08T14:19:42Z</time>
      </trkpt>
      <trkpt lat="48.21905" lon="-3.58669">
        <ele>203</ele>
        <time>2021-07-08T14:19:45Z</time>
      </trkpt>
      <trkpt lat="48.21896" lon="-3.58665">
        <ele>203</ele>
        <time>2021-07-08T14:19:48Z</time>
      </trkpt>
      <trkpt lat="48.21886" lon="-3.58659">
        <ele>203</ele>
        <time>2021-07-08T14:19:51Z</time>
      </trkpt>
      <trkpt lat="48.21876" lon="-3.58652">
        <ele>203</ele>
        <time>2021-07-08T14:19:54Z</time>
      </trkpt>
      <trkpt lat="48.21866" lon="-3.58647">
        <ele>203</ele>
        <time>2021-07-08T14:19:57Z</time>
      </trkpt>
      <trkpt lat="48.21857" lon="-3.5864">
        <ele>204</ele>
        <time>2021-07-08T14:20:00Z</time>
      </trkpt>
      <trkpt lat="48.2185" lon="-3.58632">
        <ele>204</ele>
        <time>2021-07-08T14:20:03Z</time>
      </trkpt>
      <trkpt lat="48.21841" lon="-3.58622">
        <ele>204</ele>
        <time>2021-07-08T14:20:06Z</time>
      </trkpt>
      <trkpt lat="48.21835" lon="-3.58611">
        <ele>204</ele>
        <time>2021-07-08T14:20:09Z</time>
      </trkpt>
      <trkpt lat="48.21825" lon="-3.586">
        <ele>204</ele>
        <time>2021-07-08T14:20:12Z</time>
      </trkpt>
      <trkpt lat="48.21817" lon="-3.58589">
        <ele>205</ele>
        <time>2021-07-08T14:20:15Z</time>
      </trkpt>
      <trkpt lat="48.21806" lon="-3.58575">
        <ele>205</ele>
        <time>2021-07-08T14:20:19Z</time>
      </trkpt>
      <trkpt lat="48.218" lon="-3.58561">
        <ele>204</ele>
        <time>2021-07-08T14:20:22Z</time>
      </trkpt>
      <trkpt lat="48.21794" lon="-3.58551">
        <ele>204</ele>
        <time>2021-07-08T14:20:24Z</time>
      </trkpt>
      <trkpt lat="48.21784" lon="-3.58536">
        <ele>204</ele>
        <time>2021-07-08T14:20:27Z</time>
      </trkpt>
      <trkpt lat="48.21778" lon="-3.58525">
        <ele>204</ele>
        <time>2021-07-08T14:20:29Z</time>
      </trkpt>
      <trkpt lat="48.21773" lon="-3.58514">
        <ele>204</ele>
        <time>2021-07-08T14:20:31Z</time>
      </trkpt>
      <trkpt lat="48.21767" lon="-3.58501">
        <ele>204</ele>
        <time>2021-07-08T14:20:33Z</time>
      </trkpt>
      <trkpt lat="48.21762" lon="-3.5849">
        <ele>205</ele>
        <time>2021-07-08T14:20:35Z</time>
      </trkpt>
      <trkpt lat="48.21756" lon="-3.5848">
        <ele>205</ele>
        <time>2021-07-08T14:20:37Z</time>
      </trkpt>
      <trkpt lat="48.21748" lon="-3.58467">
        <ele>205</ele>
        <time>2021-07-08T14:20:39Z</time>
      </trkpt>
      <trkpt lat="48.2174" lon="-3.58452">
        <ele>204</ele>
        <time>2021-07-08T14:20:41Z</time>
      </trkpt>
      <trkpt lat="48.21731" lon="-3.58436">
        <ele>204</ele>
        <time>2021-07-08T14:20:43Z</time>
      </trkpt>
      <trkpt lat="48.21722" lon="-3.58421">
        <ele>205</ele>
        <time>2021-07-08T14:20:45Z</time>
      </trkpt>
      <trkpt lat="48.21718" lon="-3.58415">
        <ele>205</ele>
        <time>2021-07-08T14:20:46Z</time>
      </trkpt>
      <trkpt lat="48.21714" lon="-3.58412">
        <ele>205</ele>
        <time>2021-07-08T14:20:47Z</time>
      </trkpt>
      <trkpt lat="48.2171" lon="-3.5841">
        <ele>205</ele>
        <time>2021-07-08T14:20:48Z</time>
      </trkpt>
      <trkpt lat="48.21707" lon="-3.58409">
        <ele>203</ele>
        <time>2021-07-08T14:20:49Z</time>
      </trkpt>
      <trkpt lat="48.21704" lon="-3.58408">
        <ele>203</ele>
        <time>2021-07-08T14:20:50Z</time>
      </trkpt>
      <trkpt lat="48.21701" lon="-3.58406">
        <ele>202</ele>
        <time>2021-07-08T14:20:51Z</time>
      </trkpt>
      <trkpt lat="48.21699" lon="-3.58406">
        <ele>202</ele>
        <time>2021-07-08T14:20:52Z</time>
      </trkpt>
      <trkpt lat="48.21697" lon="-3.58404">
        <ele>201</ele>
        <time>2021-07-08T14:20:53Z</time>
      </trkpt>
      <trkpt lat="48.21695" lon="-3.58402">
        <ele>201</ele>
        <time>2021-07-08T14:20:54Z</time>
      </trkpt>
      <trkpt lat="48.21694" lon="-3.584">
        <ele>201</ele>
        <time>2021-07-08T14:20:55Z</time>
      </trkpt>
      <trkpt lat="48.21691" lon="-3.58395">
        <ele>199</ele>
        <time>2021-07-08T14:20:57Z</time>
      </trkpt>
      <trkpt lat="48.2169" lon="-3.58389">
        <ele>199</ele>
        <time>2021-07-08T14:20:59Z</time>
      </trkpt>
      <trkpt lat="48.21689" lon="-3.58386">
        <ele>199</ele>
        <time>2021-07-08T14:21:00Z</time>
      </trkpt>
      <trkpt lat="48.21689" lon="-3.58382">
        <ele>199</ele>
        <time>2021-07-08T14:21:01Z</time>
      </trkpt>
      <trkpt lat="48.21688" lon="-3.58378">
        <ele>199</ele>
        <time>2021-07-08T14:21:02Z</time>
      </trkpt>
      <trkpt lat="48.21688" lon="-3.58375">
        <ele>199</ele>
        <time>2021-07-08T14:21:03Z</time>
      </trkpt>
      <trkpt lat="48.21687" lon="-3.5837">
        <ele>199</ele>
        <time>2021-07-08T14:21:05Z</time>
      </trkpt>
      <trkpt lat="48.21685" lon="-3.58367">
        <ele>199</ele>
        <time>2021-07-08T14:21:07Z</time>
      </trkpt>
      <trkpt lat="48.21683" lon="-3.58364">
        <ele>199</ele>
        <time>2021-07-08T14:21:09Z</time>
      </trkpt>
      <trkpt lat="48.21681" lon="-3.58361">
        <ele>199</ele>
        <time>2021-07-08T14:21:11Z</time>
      </trkpt>
      <trkpt lat="48.21677" lon="-3.58362">
        <ele>199</ele>
        <time>2021-07-08T14:21:13Z</time>
      </trkpt>
      <trkpt lat="48.21674" lon="-3.58366">
        <ele>200</ele>
        <time>2021-07-08T14:21:16Z</time>
      </trkpt>
      <trkpt lat="48.21672" lon="-3.58369">
        <ele>200</ele>
        <time>2021-07-08T14:21:18Z</time>
      </trkpt>
      <trkpt lat="48.21669" lon="-3.58372">
        <ele>200</ele>
        <time>2021-07-08T14:21:20Z</time>
      </trkpt>
      <trkpt lat="48.21667" lon="-3.58374">
        <ele>201</ele>
        <time>2021-07-08T14:21:22Z</time>
      </trkpt>
      <trkpt lat="48.21665" lon="-3.58374">
        <ele>201</ele>
        <time>2021-07-08T14:21:24Z</time>
      </trkpt>
      <trkpt lat="48.21662" lon="-3.58373">
        <ele>202</ele>
        <time>2021-07-08T14:21:26Z</time>
      </trkpt>
      <trkpt lat="48.21659" lon="-3.58373">
        <ele>203</ele>
        <time>2021-07-08T14:21:28Z</time>
      </trkpt>
      <trkpt lat="48.21657" lon="-3.58374">
        <ele>204</ele>
        <time>2021-07-08T14:21:29Z</time>
      </trkpt>
      <trkpt lat="48.21655" lon="-3.58375">
        <ele>205</ele>
        <time>2021-07-08T14:21:30Z</time>
      </trkpt>
      <trkpt lat="48.21653" lon="-3.58378">
        <ele>205</ele>
        <time>2021-07-08T14:21:32Z</time>
      </trkpt>
      <trkpt lat="48.21649" lon="-3.58379">
        <ele>205</ele>
        <time>2021-07-08T14:21:35Z</time>
      </trkpt>
      <trkpt lat="48.21648" lon="-3.58381">
        <ele>205</ele>
        <time>2021-07-08T14:21:35Z</time>
      </trkpt>
      <trkpt lat="48.21645" lon="-3.58383">
        <ele>205</ele>
        <time>2021-07-08T14:21:37Z</time>
      </trkpt>
      <trkpt lat="48.21641" lon="-3.58384">
        <ele>205</ele>
        <time>2021-07-08T14:21:39Z</time>
      </trkpt>
      <trkpt lat="48.21639" lon="-3.58386">
        <ele>205</ele>
        <time>2021-07-08T14:21:41Z</time>
      </trkpt>
      <trkpt lat="48.21636" lon="-3.58388">
        <ele>205</ele>
        <time>2021-07-08T14:21:43Z</time>
      </trkpt>
      <trkpt lat="48.21633" lon="-3.58389">
        <ele>207</ele>
        <time>2021-07-08T14:21:45Z</time>
      </trkpt>
      <trkpt lat="48.21631" lon="-3.58391">
        <ele>208</ele>
        <time>2021-07-08T14:21:47Z</time>
      </trkpt>
      <trkpt lat="48.21628" lon="-3.58394">
        <ele>209</ele>
        <time>2021-07-08T14:21:49Z</time>
      </trkpt>
      <trkpt lat="48.21625" lon="-3.58396">
        <ele>210</ele>
        <time>2021-07-08T14:21:51Z</time>
      </trkpt>
      <trkpt lat="48.21624" lon="-3.58399">
        <ele>210</ele>
        <time>2021-07-08T14:21:53Z</time>
      </trkpt>
      <trkpt lat="48.21622" lon="-3.58403">
        <ele>210</ele>
        <time>2021-07-08T14:21:55Z</time>
      </trkpt>
      <trkpt lat="48.21621" lon="-3.58406">
        <ele>211</ele>
        <time>2021-07-08T14:21:56Z</time>
      </trkpt>
      <trkpt lat="48.2162" lon="-3.58408">
        <ele>211</ele>
        <time>2021-07-08T14:21:57Z</time>
      </trkpt>
      <trkpt lat="48.21619" lon="-3.5841">
        <ele>211</ele>
        <time>2021-07-08T14:21:58Z</time>
      </trkpt>
      <trkpt lat="48.21618" lon="-3.58413">
        <ele>211</ele>
        <time>2021-07-08T14:21:59Z</time>
      </trkpt>
      <trkpt lat="48.21616" lon="-3.58417">
        <ele>211</ele>
        <time>2021-07-08T14:22:01Z</time>
      </trkpt>
      <trkpt lat="48.21614" lon="-3.58421">
        <ele>212</ele>
        <time>2021-07-08T14:22:03Z</time>
      </trkpt>
      <trkpt lat="48.21613" lon="-3.58424">
        <ele>212</ele>
        <time>2021-07-08T14:22:04Z</time>
      </trkpt>
      <trkpt lat="48.21611" lon="-3.58428">
        <ele>213</ele>
        <time>2021-07-08T14:22:06Z</time>
      </trkpt>
      <trkpt lat="48.21608" lon="-3.5843">
        <ele>213</ele>
        <time>2021-07-08T14:22:08Z</time>
      </trkpt>
      <trkpt lat="48.21606" lon="-3.58429">
        <ele>213</ele>
        <time>2021-07-08T14:22:10Z</time>
      </trkpt>
      <trkpt lat="48.21604" lon="-3.58426">
        <ele>213</ele>
        <time>2021-07-08T14:22:12Z</time>
      </trkpt>
      <trkpt lat="48.21604" lon="-3.58422">
        <ele>215</ele>
        <time>2021-07-08T14:22:14Z</time>
      </trkpt>
      <trkpt lat="48.21605" lon="-3.58417">
        <ele>215</ele>
        <time>2021-07-08T14:22:16Z</time>
      </trkpt>
      <trkpt lat="48.21604" lon="-3.58412">
        <ele>216</ele>
        <time>2021-07-08T14:22:18Z</time>
      </trkpt>
      <trkpt lat="48.21604" lon="-3.58407">
        <ele>216</ele>
        <time>2021-07-08T14:22:20Z</time>
      </trkpt>
      <trkpt lat="48.21605" lon="-3.58401">
        <ele>217</ele>
        <time>2021-07-08T14:22:22Z</time>
      </trkpt>
      <trkpt lat="48.21606" lon="-3.58397">
        <ele>217</ele>
        <time>2021-07-08T14:22:24Z</time>
      </trkpt>
      <trkpt lat="48.21606" lon="-3.58394">
        <ele>217</ele>
        <time>2021-07-08T14:22:25Z</time>
      </trkpt>
      <trkpt lat="48.21607" lon="-3.58392">
        <ele>217</ele>
        <time>2021-07-08T14:22:26Z</time>
      </trkpt>
      <trkpt lat="48.21607" lon="-3.58389">
        <ele>218</ele>
        <time>2021-07-08T14:22:27Z</time>
      </trkpt>
      <trkpt lat="48.21608" lon="-3.58386">
        <ele>218</ele>
        <time>2021-07-08T14:22:28Z</time>
      </trkpt>
      <trkpt lat="48.21608" lon="-3.58381">
        <ele>218</ele>
        <time>2021-07-08T14:22:31Z</time>
      </trkpt>
      <trkpt lat="48.21609" lon="-3.58376">
        <ele>218</ele>
        <time>2021-07-08T14:22:32Z</time>
      </trkpt>
      <trkpt lat="48.2161" lon="-3.58373">
        <ele>218</ele>
        <time>2021-07-08T14:22:33Z</time>
      </trkpt>
      <trkpt lat="48.2161" lon="-3.5837">
        <ele>219</ele>
        <time>2021-07-08T14:22:34Z</time>
      </trkpt>
      <trkpt lat="48.21611" lon="-3.58367">
        <ele>219</ele>
        <time>2021-07-08T14:22:35Z</time>
      </trkpt>
      <trkpt lat="48.21611" lon="-3.58363">
        <ele>219</ele>
        <time>2021-07-08T14:22:36Z</time>
      </trkpt>
      <trkpt lat="48.21612" lon="-3.58361">
        <ele>219</ele>
        <time>2021-07-08T14:22:37Z</time>
      </trkpt>
      <trkpt lat="48.21613" lon="-3.58356">
        <ele>219</ele>
        <time>2021-07-08T14:22:39Z</time>
      </trkpt>
      <trkpt lat="48.21614" lon="-3.58353">
        <ele>219</ele>
        <time>2021-07-08T14:22:40Z</time>
      </trkpt>
      <trkpt lat="48.21614" lon="-3.58351">
        <ele>220</ele>
        <time>2021-07-08T14:22:41Z</time>
      </trkpt>
      <trkpt lat="48.21614" lon="-3.58348">
        <ele>220</ele>
        <time>2021-07-08T14:22:42Z</time>
      </trkpt>
      <trkpt lat="48.21615" lon="-3.58343">
        <ele>221</ele>
        <time>2021-07-08T14:22:44Z</time>
      </trkpt>
      <trkpt lat="48.21614" lon="-3.58345">
        <ele>221</ele>
        <time>2021-07-08T14:22:45Z</time>
      </trkpt>
      <trkpt lat="48.21615" lon="-3.58342">
        <ele>222</ele>
        <time>2021-07-08T14:22:52Z</time>
      </trkpt>
      <trkpt lat="48.21615" lon="-3.58339">
        <ele>222</ele>
        <time>2021-07-08T14:22:54Z</time>
      </trkpt>
      <trkpt lat="48.21616" lon="-3.58333">
        <ele>222</ele>
        <time>2021-07-08T14:22:56Z</time>
      </trkpt>
      <trkpt lat="48.21615" lon="-3.58329">
        <ele>222</ele>
        <time>2021-07-08T14:22:57Z</time>
      </trkpt>
      <trkpt lat="48.21615" lon="-3.58326">
        <ele>221</ele>
        <time>2021-07-08T14:22:58Z</time>
      </trkpt>
      <trkpt lat="48.21615" lon="-3.58323">
        <ele>221</ele>
        <time>2021-07-08T14:22:59Z</time>
      </trkpt>
      <trkpt lat="48.21614" lon="-3.58319">
        <ele>220</ele>
        <time>2021-07-08T14:23:00Z</time>
      </trkpt>
      <trkpt lat="48.21614" lon="-3.58315">
        <ele>220</ele>
        <time>2021-07-08T14:23:01Z</time>
      </trkpt>
      <trkpt lat="48.21613" lon="-3.5831">
        <ele>220</ele>
        <time>2021-07-08T14:23:02Z</time>
      </trkpt>
      <trkpt lat="48.21612" lon="-3.58306">
        <ele>220</ele>
        <time>2021-07-08T14:23:03Z</time>
      </trkpt>
      <trkpt lat="48.2161" lon="-3.58302">
        <ele>220</ele>
        <time>2021-07-08T14:23:04Z</time>
      </trkpt>
      <trkpt lat="48.21609" lon="-3.58297">
        <ele>220</ele>
        <time>2021-07-08T14:23:05Z</time>
      </trkpt>
      <trkpt lat="48.21607" lon="-3.58293">
        <ele>220</ele>
        <time>2021-07-08T14:23:06Z</time>
      </trkpt>
      <trkpt lat="48.21606" lon="-3.58288">
        <ele>220</ele>
        <time>2021-07-08T14:23:07Z</time>
      </trkpt>
      <trkpt lat="48.21604" lon="-3.58285">
        <ele>219</ele>
        <time>2021-07-08T14:23:08Z</time>
      </trkpt>
      <trkpt lat="48.21601" lon="-3.58281">
        <ele>219</ele>
        <time>2021-07-08T14:23:10Z</time>
      </trkpt>
      <trkpt lat="48.21599" lon="-3.58278">
        <ele>219</ele>
        <time>2021-07-08T14:23:10Z</time>
      </trkpt>
      <trkpt lat="48.21597" lon="-3.58274">
        <ele>218</ele>
        <time>2021-07-08T14:23:11Z</time>
      </trkpt>
      <trkpt lat="48.21595" lon="-3.5827">
        <ele>218</ele>
        <time>2021-07-08T14:23:12Z</time>
      </trkpt>
      <trkpt lat="48.21592" lon="-3.58267">
        <ele>218</ele>
        <time>2021-07-08T14:23:13Z</time>
      </trkpt>
      <trkpt lat="48.2159" lon="-3.58263">
        <ele>218</ele>
        <time>2021-07-08T14:23:14Z</time>
      </trkpt>
      <trkpt lat="48.21587" lon="-3.58259">
        <ele>218</ele>
        <time>2021-07-08T14:23:15Z</time>
      </trkpt>
      <trkpt lat="48.21583" lon="-3.58255">
        <ele>218</ele>
        <time>2021-07-08T14:23:16Z</time>
      </trkpt>
      <trkpt lat="48.21579" lon="-3.58251">
        <ele>218</ele>
        <time>2021-07-08T14:23:17Z</time>
      </trkpt>
      <trkpt lat="48.21575" lon="-3.58247">
        <ele>217</ele>
        <time>2021-07-08T14:23:18Z</time>
      </trkpt>
      <trkpt lat="48.2157" lon="-3.58243">
        <ele>217</ele>
        <time>2021-07-08T14:23:19Z</time>
      </trkpt>
      <trkpt lat="48.21566" lon="-3.58239">
        <ele>215</ele>
        <time>2021-07-08T14:23:20Z</time>
      </trkpt>
      <trkpt lat="48.21561" lon="-3.58235">
        <ele>214</ele>
        <time>2021-07-08T14:23:21Z</time>
      </trkpt>
      <trkpt lat="48.21556" lon="-3.58232">
        <ele>214</ele>
        <time>2021-07-08T14:23:22Z</time>
      </trkpt>
      <trkpt lat="48.21551" lon="-3.58228">
        <ele>212</ele>
        <time>2021-07-08T14:23:23Z</time>
      </trkpt>
      <trkpt lat="48.21546" lon="-3.58225">
        <ele>212</ele>
        <time>2021-07-08T14:23:24Z</time>
      </trkpt>
      <trkpt lat="48.21541" lon="-3.58224">
        <ele>211</ele>
        <time>2021-07-08T14:23:25Z</time>
      </trkpt>
      <trkpt lat="48.21536" lon="-3.58222">
        <ele>211</ele>
        <time>2021-07-08T14:23:26Z</time>
      </trkpt>
      <trkpt lat="48.21532" lon="-3.58222">
        <ele>210</ele>
        <time>2021-07-08T14:23:27Z</time>
      </trkpt>
      <trkpt lat="48.21522" lon="-3.58222">
        <ele>210</ele>
        <time>2021-07-08T14:23:29Z</time>
      </trkpt>
      <trkpt lat="48.21518" lon="-3.58222">
        <ele>208</ele>
        <time>2021-07-08T14:23:30Z</time>
      </trkpt>
      <trkpt lat="48.21513" lon="-3.58221">
        <ele>208</ele>
        <time>2021-07-08T14:23:31Z</time>
      </trkpt>
      <trkpt lat="48.21508" lon="-3.58222">
        <ele>207</ele>
        <time>2021-07-08T14:23:32Z</time>
      </trkpt>
      <trkpt lat="48.21503" lon="-3.58221">
        <ele>207</ele>
        <time>2021-07-08T14:23:33Z</time>
      </trkpt>
      <trkpt lat="48.21497" lon="-3.58221">
        <ele>206</ele>
        <time>2021-07-08T14:23:34Z</time>
      </trkpt>
      <trkpt lat="48.21492" lon="-3.58221">
        <ele>206</ele>
        <time>2021-07-08T14:23:35Z</time>
      </trkpt>
      <trkpt lat="48.21487" lon="-3.58221">
        <ele>205</ele>
        <time>2021-07-08T14:23:36Z</time>
      </trkpt>
      <trkpt lat="48.21481" lon="-3.58222">
        <ele>205</ele>
        <time>2021-07-08T14:23:37Z</time>
      </trkpt>
      <trkpt lat="48.21476" lon="-3.58224">
        <ele>205</ele>
        <time>2021-07-08T14:23:38Z</time>
      </trkpt>
      <trkpt lat="48.2147" lon="-3.58226">
        <ele>205</ele>
        <time>2021-07-08T14:23:39Z</time>
      </trkpt>
      <trkpt lat="48.21465" lon="-3.58227">
        <ele>205</ele>
        <time>2021-07-08T14:23:40Z</time>
      </trkpt>
      <trkpt lat="48.21459" lon="-3.58228">
        <ele>205</ele>
        <time>2021-07-08T14:23:41Z</time>
      </trkpt>
      <trkpt lat="48.21454" lon="-3.58229">
        <ele>205</ele>
        <time>2021-07-08T14:23:42Z</time>
      </trkpt>
      <trkpt lat="48.21448" lon="-3.5823">
        <ele>205</ele>
        <time>2021-07-08T14:23:43Z</time>
      </trkpt>
      <trkpt lat="48.21443" lon="-3.58231">
        <ele>205</ele>
        <time>2021-07-08T14:23:44Z</time>
      </trkpt>
      <trkpt lat="48.21439" lon="-3.58232">
        <ele>205</ele>
        <time>2021-07-08T14:23:46Z</time>
      </trkpt>
      <trkpt lat="48.21434" lon="-3.58232">
        <ele>205</ele>
        <time>2021-07-08T14:23:46Z</time>
      </trkpt>
      <trkpt lat="48.2143" lon="-3.58232">
        <ele>205</ele>
        <time>2021-07-08T14:23:47Z</time>
      </trkpt>
      <trkpt lat="48.21426" lon="-3.58231">
        <ele>205</ele>
        <time>2021-07-08T14:23:48Z</time>
      </trkpt>
      <trkpt lat="48.21422" lon="-3.5823">
        <ele>205</ele>
        <time>2021-07-08T14:23:49Z</time>
      </trkpt>
      <trkpt lat="48.21418" lon="-3.5823">
        <ele>205</ele>
        <time>2021-07-08T14:23:50Z</time>
      </trkpt>
      <trkpt lat="48.21414" lon="-3.5823">
        <ele>205</ele>
        <time>2021-07-08T14:23:51Z</time>
      </trkpt>
      <trkpt lat="48.2141" lon="-3.5823">
        <ele>205</ele>
        <time>2021-07-08T14:23:52Z</time>
      </trkpt>
      <trkpt lat="48.21407" lon="-3.5823">
        <ele>205</ele>
        <time>2021-07-08T14:23:53Z</time>
      </trkpt>
      <trkpt lat="48.21403" lon="-3.58229">
        <ele>205</ele>
        <time>2021-07-08T14:23:54Z</time>
      </trkpt>
      <trkpt lat="48.21399" lon="-3.58229">
        <ele>205</ele>
        <time>2021-07-08T14:23:55Z</time>
      </trkpt>
      <trkpt lat="48.21395" lon="-3.58228">
        <ele>205</ele>
        <time>2021-07-08T14:23:56Z</time>
      </trkpt>
      <trkpt lat="48.21391" lon="-3.58228">
        <ele>205</ele>
        <time>2021-07-08T14:23:57Z</time>
      </trkpt>
      <trkpt lat="48.21388" lon="-3.58227">
        <ele>205</ele>
        <time>2021-07-08T14:23:58Z</time>
      </trkpt>
      <trkpt lat="48.21384" lon="-3.58227">
        <ele>205</ele>
        <time>2021-07-08T14:23:59Z</time>
      </trkpt>
      <trkpt lat="48.2138" lon="-3.58226">
        <ele>205</ele>
        <time>2021-07-08T14:24:00Z</time>
      </trkpt>
      <trkpt lat="48.21376" lon="-3.58226">
        <ele>205</ele>
        <time>2021-07-08T14:24:02Z</time>
      </trkpt>
      <trkpt lat="48.21372" lon="-3.58226">
        <ele>205</ele>
        <time>2021-07-08T14:24:02Z</time>
      </trkpt>
      <trkpt lat="48.21368" lon="-3.58226">
        <ele>205</ele>
        <time>2021-07-08T14:24:03Z</time>
      </trkpt>
      <trkpt lat="48.21364" lon="-3.58225">
        <ele>205</ele>
        <time>2021-07-08T14:24:04Z</time>
      </trkpt>
      <trkpt lat="48.21359" lon="-3.58226">
        <ele>205</ele>
        <time>2021-07-08T14:24:05Z</time>
      </trkpt>
      <trkpt lat="48.21355" lon="-3.58225">
        <ele>205</ele>
        <time>2021-07-08T14:24:07Z</time>
      </trkpt>
      <trkpt lat="48.21351" lon="-3.58225">
        <ele>205</ele>
        <time>2021-07-08T14:24:07Z</time>
      </trkpt>
      <trkpt lat="48.21346" lon="-3.58226">
        <ele>205</ele>
        <time>2021-07-08T14:24:08Z</time>
      </trkpt>
      <trkpt lat="48.21342" lon="-3.58226">
        <ele>205</ele>
        <time>2021-07-08T14:24:09Z</time>
      </trkpt>
      <trkpt lat="48.21338" lon="-3.58226">
        <ele>205</ele>
        <time>2021-07-08T14:24:10Z</time>
      </trkpt>
      <trkpt lat="48.21334" lon="-3.58225">
        <ele>205</ele>
        <time>2021-07-08T14:24:11Z</time>
      </trkpt>
      <trkpt lat="48.21329" lon="-3.58225">
        <ele>205</ele>
        <time>2021-07-08T14:24:12Z</time>
      </trkpt>
      <trkpt lat="48.21325" lon="-3.58225">
        <ele>205</ele>
        <time>2021-07-08T14:24:13Z</time>
      </trkpt>
      <trkpt lat="48.21321" lon="-3.58225">
        <ele>205</ele>
        <time>2021-07-08T14:24:14Z</time>
      </trkpt>
      <trkpt lat="48.21316" lon="-3.58225">
        <ele>205</ele>
        <time>2021-07-08T14:24:15Z</time>
      </trkpt>
      <trkpt lat="48.21312" lon="-3.58225">
        <ele>205</ele>
        <time>2021-07-08T14:24:16Z</time>
      </trkpt>
      <trkpt lat="48.21307" lon="-3.58225">
        <ele>205</ele>
        <time>2021-07-08T14:24:17Z</time>
      </trkpt>
      <trkpt lat="48.21303" lon="-3.58225">
        <ele>205</ele>
        <time>2021-07-08T14:24:18Z</time>
      </trkpt>
      <trkpt lat="48.21299" lon="-3.58225">
        <ele>205</ele>
        <time>2021-07-08T14:24:19Z</time>
      </trkpt>
      <trkpt lat="48.21295" lon="-3.58225">
        <ele>205</ele>
        <time>2021-07-08T14:24:20Z</time>
      </trkpt>
      <trkpt lat="48.21291" lon="-3.58224">
        <ele>205</ele>
        <time>2021-07-08T14:24:21Z</time>
      </trkpt>
      <trkpt lat="48.21287" lon="-3.58225">
        <ele>205</ele>
        <time>2021-07-08T14:24:22Z</time>
      </trkpt>
      <trkpt lat="48.21283" lon="-3.58225">
        <ele>205</ele>
        <time>2021-07-08T14:24:23Z</time>
      </trkpt>
      <trkpt lat="48.2128" lon="-3.58225">
        <ele>205</ele>
        <time>2021-07-08T14:24:24Z</time>
      </trkpt>
      <trkpt lat="48.21275" lon="-3.58226">
        <ele>205</ele>
        <time>2021-07-08T14:24:25Z</time>
      </trkpt>
      <trkpt lat="48.21271" lon="-3.58226">
        <ele>205</ele>
        <time>2021-07-08T14:24:26Z</time>
      </trkpt>
      <trkpt lat="48.21267" lon="-3.58226">
        <ele>205</ele>
        <time>2021-07-08T14:24:27Z</time>
      </trkpt>
      <trkpt lat="48.21262" lon="-3.58226">
        <ele>205</ele>
        <time>2021-07-08T14:24:28Z</time>
      </trkpt>
      <trkpt lat="48.21258" lon="-3.58226">
        <ele>205</ele>
        <time>2021-07-08T14:24:29Z</time>
      </trkpt>
      <trkpt lat="48.21254" lon="-3.58226">
        <ele>205</ele>
        <time>2021-07-08T14:24:30Z</time>
      </trkpt>
      <trkpt lat="48.2125" lon="-3.58226">
        <ele>205</ele>
        <time>2021-07-08T14:24:31Z</time>
      </trkpt>
      <trkpt lat="48.21246" lon="-3.58225">
        <ele>205</ele>
        <time>2021-07-08T14:24:32Z</time>
      </trkpt>
      <trkpt lat="48.21241" lon="-3.58224">
        <ele>205</ele>
        <time>2021-07-08T14:24:33Z</time>
      </trkpt>
      <trkpt lat="48.21237" lon="-3.58224">
        <ele>205</ele>
        <time>2021-07-08T14:24:34Z</time>
      </trkpt>
      <trkpt lat="48.21234" lon="-3.58223">
        <ele>206</ele>
        <time>2021-07-08T14:24:35Z</time>
      </trkpt>
      <trkpt lat="48.2123" lon="-3.58223">
        <ele>206</ele>
        <time>2021-07-08T14:24:36Z</time>
      </trkpt>
      <trkpt lat="48.21226" lon="-3.58223">
        <ele>206</ele>
        <time>2021-07-08T14:24:37Z</time>
      </trkpt>
      <trkpt lat="48.21223" lon="-3.58222">
        <ele>206</ele>
        <time>2021-07-08T14:24:38Z</time>
      </trkpt>
      <trkpt lat="48.2122" lon="-3.58222">
        <ele>206</ele>
        <time>2021-07-08T14:24:39Z</time>
      </trkpt>
      <trkpt lat="48.21217" lon="-3.58221">
        <ele>206</ele>
        <time>2021-07-08T14:24:40Z</time>
      </trkpt>
      <trkpt lat="48.21213" lon="-3.58221">
        <ele>205</ele>
        <time>2021-07-08T14:24:41Z</time>
      </trkpt>
      <trkpt lat="48.21209" lon="-3.5822">
        <ele>205</ele>
        <time>2021-07-08T14:24:42Z</time>
      </trkpt>
      <trkpt lat="48.21205" lon="-3.58219">
        <ele>206</ele>
        <time>2021-07-08T14:24:43Z</time>
      </trkpt>
      <trkpt lat="48.21198" lon="-3.5822">
        <ele>206</ele>
        <time>2021-07-08T14:24:45Z</time>
      </trkpt>
      <trkpt lat="48.21194" lon="-3.58219">
        <ele>206</ele>
        <time>2021-07-08T14:24:46Z</time>
      </trkpt>
      <trkpt lat="48.2119" lon="-3.5822">
        <ele>206</ele>
        <time>2021-07-08T14:24:47Z</time>
      </trkpt>
      <trkpt lat="48.21186" lon="-3.5822">
        <ele>206</ele>
        <time>2021-07-08T14:24:48Z</time>
      </trkpt>
      <trkpt lat="48.21182" lon="-3.5822">
        <ele>206</ele>
        <time>2021-07-08T14:24:49Z</time>
      </trkpt>
      <trkpt lat="48.21178" lon="-3.58221">
        <ele>206</ele>
        <time>2021-07-08T14:24:50Z</time>
      </trkpt>
      <trkpt lat="48.21175" lon="-3.58221">
        <ele>206</ele>
        <time>2021-07-08T14:24:51Z</time>
      </trkpt>
      <trkpt lat="48.21171" lon="-3.58222">
        <ele>206</ele>
        <time>2021-07-08T14:24:52Z</time>
      </trkpt>
      <trkpt lat="48.21168" lon="-3.58223">
        <ele>206</ele>
        <time>2021-07-08T14:24:53Z</time>
      </trkpt>
      <trkpt lat="48.21164" lon="-3.58225">
        <ele>206</ele>
        <time>2021-07-08T14:24:54Z</time>
      </trkpt>
      <trkpt lat="48.21161" lon="-3.58226">
        <ele>206</ele>
        <time>2021-07-08T14:24:55Z</time>
      </trkpt>
      <trkpt lat="48.21158" lon="-3.58226">
        <ele>206</ele>
        <time>2021-07-08T14:24:56Z</time>
      </trkpt>
      <trkpt lat="48.21156" lon="-3.58227">
        <ele>206</ele>
        <time>2021-07-08T14:24:57Z</time>
      </trkpt>
      <trkpt lat="48.21153" lon="-3.58228">
        <ele>206</ele>
        <time>2021-07-08T14:24:58Z</time>
      </trkpt>
      <trkpt lat="48.2115" lon="-3.58229">
        <ele>206</ele>
        <time>2021-07-08T14:24:59Z</time>
      </trkpt>
      <trkpt lat="48.21148" lon="-3.5823">
        <ele>206</ele>
        <time>2021-07-08T14:25:00Z</time>
      </trkpt>
      <trkpt lat="48.21145" lon="-3.58231">
        <ele>206</ele>
        <time>2021-07-08T14:25:02Z</time>
      </trkpt>
      <trkpt lat="48.21136" lon="-3.58233">
        <ele>206</ele>
        <time>2021-07-08T14:25:04Z</time>
      </trkpt>
      <trkpt lat="48.21132" lon="-3.58234">
        <ele>206</ele>
        <time>2021-07-08T14:25:05Z</time>
      </trkpt>
      <trkpt lat="48.21128" lon="-3.58236">
        <ele>207</ele>
        <time>2021-07-08T14:25:06Z</time>
      </trkpt>
      <trkpt lat="48.21125" lon="-3.58237">
        <ele>207</ele>
        <time>2021-07-08T14:25:07Z</time>
      </trkpt>
      <trkpt lat="48.21121" lon="-3.58238">
        <ele>207</ele>
        <time>2021-07-08T14:25:08Z</time>
      </trkpt>
      <trkpt lat="48.21117" lon="-3.58239">
        <ele>207</ele>
        <time>2021-07-08T14:25:09Z</time>
      </trkpt>
      <trkpt lat="48.21113" lon="-3.58239">
        <ele>207</ele>
        <time>2021-07-08T14:25:10Z</time>
      </trkpt>
      <trkpt lat="48.21109" lon="-3.5824">
        <ele>207</ele>
        <time>2021-07-08T14:25:11Z</time>
      </trkpt>
      <trkpt lat="48.21106" lon="-3.58241">
        <ele>207</ele>
        <time>2021-07-08T14:25:12Z</time>
      </trkpt>
      <trkpt lat="48.21102" lon="-3.58242">
        <ele>207</ele>
        <time>2021-07-08T14:25:14Z</time>
      </trkpt>
      <trkpt lat="48.21098" lon="-3.58243">
        <ele>207</ele>
        <time>2021-07-08T14:25:14Z</time>
      </trkpt>
      <trkpt lat="48.21095" lon="-3.58244">
        <ele>207</ele>
        <time>2021-07-08T14:25:15Z</time>
      </trkpt>
      <trkpt lat="48.21091" lon="-3.58245">
        <ele>207</ele>
        <time>2021-07-08T14:25:16Z</time>
      </trkpt>
      <trkpt lat="48.21087" lon="-3.58246">
        <ele>207</ele>
        <time>2021-07-08T14:25:17Z</time>
      </trkpt>
      <trkpt lat="48.21084" lon="-3.58247">
        <ele>207</ele>
        <time>2021-07-08T14:25:18Z</time>
      </trkpt>
      <trkpt lat="48.2108" lon="-3.58248">
        <ele>207</ele>
        <time>2021-07-08T14:25:19Z</time>
      </trkpt>
      <trkpt lat="48.21077" lon="-3.5825">
        <ele>207</ele>
        <time>2021-07-08T14:25:20Z</time>
      </trkpt>
      <trkpt lat="48.21073" lon="-3.58251">
        <ele>207</ele>
        <time>2021-07-08T14:25:21Z</time>
      </trkpt>
      <trkpt lat="48.21069" lon="-3.58253">
        <ele>207</ele>
        <time>2021-07-08T14:25:22Z</time>
      </trkpt>
      <trkpt lat="48.21065" lon="-3.58254">
        <ele>207</ele>
        <time>2021-07-08T14:25:23Z</time>
      </trkpt>
      <trkpt lat="48.21061" lon="-3.58255">
        <ele>207</ele>
        <time>2021-07-08T14:25:24Z</time>
      </trkpt>
      <trkpt lat="48.21058" lon="-3.58256">
        <ele>207</ele>
        <time>2021-07-08T14:25:25Z</time>
      </trkpt>
      <trkpt lat="48.21054" lon="-3.58257">
        <ele>207</ele>
        <time>2021-07-08T14:25:26Z</time>
      </trkpt>
      <trkpt lat="48.2105" lon="-3.58258">
        <ele>208</ele>
        <time>2021-07-08T14:25:27Z</time>
      </trkpt>
      <trkpt lat="48.21046" lon="-3.58259">
        <ele>208</ele>
        <time>2021-07-08T14:25:28Z</time>
      </trkpt>
      <trkpt lat="48.21042" lon="-3.5826">
        <ele>208</ele>
        <time>2021-07-08T14:25:29Z</time>
      </trkpt>
      <trkpt lat="48.21038" lon="-3.58261">
        <ele>208</ele>
        <time>2021-07-08T14:25:30Z</time>
      </trkpt>
      <trkpt lat="48.21034" lon="-3.58262">
        <ele>208</ele>
        <time>2021-07-08T14:25:31Z</time>
      </trkpt>
      <trkpt lat="48.21031" lon="-3.58264">
        <ele>208</ele>
        <time>2021-07-08T14:25:33Z</time>
      </trkpt>
      <trkpt lat="48.21027" lon="-3.58265">
        <ele>208</ele>
        <time>2021-07-08T14:25:33Z</time>
      </trkpt>
      <trkpt lat="48.21024" lon="-3.58267">
        <ele>208</ele>
        <time>2021-07-08T14:25:34Z</time>
      </trkpt>
      <trkpt lat="48.2102" lon="-3.58269">
        <ele>208</ele>
        <time>2021-07-08T14:25:35Z</time>
      </trkpt>
      <trkpt lat="48.21017" lon="-3.5827">
        <ele>208</ele>
        <time>2021-07-08T14:25:36Z</time>
      </trkpt>
      <trkpt lat="48.21013" lon="-3.58272">
        <ele>208</ele>
        <time>2021-07-08T14:25:37Z</time>
      </trkpt>
      <trkpt lat="48.21009" lon="-3.58274">
        <ele>208</ele>
        <time>2021-07-08T14:25:38Z</time>
      </trkpt>
      <trkpt lat="48.21005" lon="-3.58276">
        <ele>208</ele>
        <time>2021-07-08T14:25:39Z</time>
      </trkpt>
      <trkpt lat="48.21001" lon="-3.58278">
        <ele>208</ele>
        <time>2021-07-08T14:25:40Z</time>
      </trkpt>
      <trkpt lat="48.20998" lon="-3.58279">
        <ele>208</ele>
        <time>2021-07-08T14:25:41Z</time>
      </trkpt>
      <trkpt lat="48.20994" lon="-3.58281">
        <ele>208</ele>
        <time>2021-07-08T14:25:42Z</time>
      </trkpt>
      <trkpt lat="48.2099" lon="-3.58282">
        <ele>208</ele>
        <time>2021-07-08T14:25:43Z</time>
      </trkpt>
      <trkpt lat="48.20986" lon="-3.58284">
        <ele>208</ele>
        <time>2021-07-08T14:25:44Z</time>
      </trkpt>
      <trkpt lat="48.20983" lon="-3.58285">
        <ele>209</ele>
        <time>2021-07-08T14:25:45Z</time>
      </trkpt>
      <trkpt lat="48.2098" lon="-3.58287">
        <ele>209</ele>
        <time>2021-07-08T14:25:46Z</time>
      </trkpt>
      <trkpt lat="48.20977" lon="-3.58288">
        <ele>209</ele>
        <time>2021-07-08T14:25:47Z</time>
      </trkpt>
      <trkpt lat="48.20975" lon="-3.5829">
        <ele>209</ele>
        <time>2021-07-08T14:25:48Z</time>
      </trkpt>
      <trkpt lat="48.20973" lon="-3.58291">
        <ele>209</ele>
        <time>2021-07-08T14:25:49Z</time>
      </trkpt>
      <trkpt lat="48.2097" lon="-3.58294">
        <ele>209</ele>
        <time>2021-07-08T14:25:51Z</time>
      </trkpt>
      <trkpt lat="48.20969" lon="-3.58295">
        <ele>209</ele>
        <time>2021-07-08T14:25:52Z</time>
      </trkpt>
      <trkpt lat="48.20966" lon="-3.58297">
        <ele>209</ele>
        <time>2021-07-08T14:25:53Z</time>
      </trkpt>
      <trkpt lat="48.20963" lon="-3.58298">
        <ele>209</ele>
        <time>2021-07-08T14:25:54Z</time>
      </trkpt>
      <trkpt lat="48.2096" lon="-3.58299">
        <ele>209</ele>
        <time>2021-07-08T14:25:55Z</time>
      </trkpt>
      <trkpt lat="48.20957" lon="-3.583">
        <ele>209</ele>
        <time>2021-07-08T14:25:56Z</time>
      </trkpt>
      <trkpt lat="48.20953" lon="-3.58301">
        <ele>209</ele>
        <time>2021-07-08T14:25:57Z</time>
      </trkpt>
      <trkpt lat="48.2095" lon="-3.58302">
        <ele>209</ele>
        <time>2021-07-08T14:25:58Z</time>
      </trkpt>
      <trkpt lat="48.20946" lon="-3.58304">
        <ele>209</ele>
        <time>2021-07-08T14:25:59Z</time>
      </trkpt>
      <trkpt lat="48.20943" lon="-3.58305">
        <ele>209</ele>
        <time>2021-07-08T14:26:01Z</time>
      </trkpt>
      <trkpt lat="48.20939" lon="-3.58307">
        <ele>209</ele>
        <time>2021-07-08T14:26:01Z</time>
      </trkpt>
      <trkpt lat="48.20936" lon="-3.58309">
        <ele>209</ele>
        <time>2021-07-08T14:26:02Z</time>
      </trkpt>
      <trkpt lat="48.20932" lon="-3.58311">
        <ele>209</ele>
        <time>2021-07-08T14:26:03Z</time>
      </trkpt>
      <trkpt lat="48.20929" lon="-3.58312">
        <ele>209</ele>
        <time>2021-07-08T14:26:04Z</time>
      </trkpt>
      <trkpt lat="48.20926" lon="-3.58314">
        <ele>209</ele>
        <time>2021-07-08T14:26:05Z</time>
      </trkpt>
      <trkpt lat="48.20922" lon="-3.58316">
        <ele>209</ele>
        <time>2021-07-08T14:26:06Z</time>
      </trkpt>
      <trkpt lat="48.20919" lon="-3.58318">
        <ele>209</ele>
        <time>2021-07-08T14:26:07Z</time>
      </trkpt>
      <trkpt lat="48.20916" lon="-3.58319">
        <ele>209</ele>
        <time>2021-07-08T14:26:08Z</time>
      </trkpt>
      <trkpt lat="48.20913" lon="-3.58321">
        <ele>209</ele>
        <time>2021-07-08T14:26:09Z</time>
      </trkpt>
      <trkpt lat="48.2091" lon="-3.58323">
        <ele>209</ele>
        <time>2021-07-08T14:26:10Z</time>
      </trkpt>
      <trkpt lat="48.20906" lon="-3.58325">
        <ele>209</ele>
        <time>2021-07-08T14:26:11Z</time>
      </trkpt>
      <trkpt lat="48.20903" lon="-3.58327">
        <ele>209</ele>
        <time>2021-07-08T14:26:12Z</time>
      </trkpt>
      <trkpt lat="48.209" lon="-3.5833">
        <ele>209</ele>
        <time>2021-07-08T14:26:13Z</time>
      </trkpt>
      <trkpt lat="48.20897" lon="-3.58332">
        <ele>209</ele>
        <time>2021-07-08T14:26:14Z</time>
      </trkpt>
      <trkpt lat="48.20894" lon="-3.58334">
        <ele>209</ele>
        <time>2021-07-08T14:26:15Z</time>
      </trkpt>
      <trkpt lat="48.20892" lon="-3.58336">
        <ele>209</ele>
        <time>2021-07-08T14:26:16Z</time>
      </trkpt>
      <trkpt lat="48.2089" lon="-3.58339">
        <ele>209</ele>
        <time>2021-07-08T14:26:17Z</time>
      </trkpt>
      <trkpt lat="48.20888" lon="-3.58341">
        <ele>209</ele>
        <time>2021-07-08T14:26:18Z</time>
      </trkpt>
      <trkpt lat="48.20883" lon="-3.58345">
        <ele>209</ele>
        <time>2021-07-08T14:26:20Z</time>
      </trkpt>
      <trkpt lat="48.20871" lon="-3.58351">
        <ele>209</ele>
        <time>2021-07-08T14:26:23Z</time>
      </trkpt>
      <trkpt lat="48.20862" lon="-3.58356">
        <ele>209</ele>
        <time>2021-07-08T14:26:25Z</time>
      </trkpt>
      <trkpt lat="48.20858" lon="-3.58359">
        <ele>209</ele>
        <time>2021-07-08T14:26:27Z</time>
      </trkpt>
      <trkpt lat="48.20855" lon="-3.58362">
        <ele>209</ele>
        <time>2021-07-08T14:26:27Z</time>
      </trkpt>
      <trkpt lat="48.2085" lon="-3.58365">
        <ele>209</ele>
        <time>2021-07-08T14:26:28Z</time>
      </trkpt>
      <trkpt lat="48.20846" lon="-3.58367">
        <ele>209</ele>
        <time>2021-07-08T14:26:29Z</time>
      </trkpt>
      <trkpt lat="48.20842" lon="-3.5837">
        <ele>209</ele>
        <time>2021-07-08T14:26:30Z</time>
      </trkpt>
      <trkpt lat="48.20837" lon="-3.58373">
        <ele>209</ele>
        <time>2021-07-08T14:26:32Z</time>
      </trkpt>
      <trkpt lat="48.20833" lon="-3.58374">
        <ele>209</ele>
        <time>2021-07-08T14:26:32Z</time>
      </trkpt>
      <trkpt lat="48.20828" lon="-3.58376">
        <ele>209</ele>
        <time>2021-07-08T14:26:33Z</time>
      </trkpt>
      <trkpt lat="48.20824" lon="-3.58378">
        <ele>209</ele>
        <time>2021-07-08T14:26:34Z</time>
      </trkpt>
      <trkpt lat="48.20821" lon="-3.5838">
        <ele>209</ele>
        <time>2021-07-08T14:26:35Z</time>
      </trkpt>
      <trkpt lat="48.20817" lon="-3.58382">
        <ele>209</ele>
        <time>2021-07-08T14:26:36Z</time>
      </trkpt>
      <trkpt lat="48.20814" lon="-3.58384">
        <ele>209</ele>
        <time>2021-07-08T14:26:37Z</time>
      </trkpt>
      <trkpt lat="48.2081" lon="-3.58385">
        <ele>209</ele>
        <time>2021-07-08T14:26:39Z</time>
      </trkpt>
      <trkpt lat="48.20799" lon="-3.58389">
        <ele>210</ele>
        <time>2021-07-08T14:26:41Z</time>
      </trkpt>
      <trkpt lat="48.20796" lon="-3.5839">
        <ele>210</ele>
        <time>2021-07-08T14:26:42Z</time>
      </trkpt>
      <trkpt lat="48.20785" lon="-3.58395">
        <ele>210</ele>
        <time>2021-07-08T14:26:45Z</time>
      </trkpt>
      <trkpt lat="48.20782" lon="-3.58397">
        <ele>210</ele>
        <time>2021-07-08T14:26:46Z</time>
      </trkpt>
      <trkpt lat="48.20771" lon="-3.58404">
        <ele>210</ele>
        <time>2021-07-08T14:26:49Z</time>
      </trkpt>
      <trkpt lat="48.2076" lon="-3.58408">
        <ele>210</ele>
        <time>2021-07-08T14:26:52Z</time>
      </trkpt>
      <trkpt lat="48.20751" lon="-3.58414">
        <ele>210</ele>
        <time>2021-07-08T14:26:54Z</time>
      </trkpt>
      <trkpt lat="48.20739" lon="-3.58421">
        <ele>210</ele>
        <time>2021-07-08T14:26:58Z</time>
      </trkpt>
      <trkpt lat="48.20728" lon="-3.58426">
        <ele>210</ele>
        <time>2021-07-08T14:27:00Z</time>
      </trkpt>
      <trkpt lat="48.20717" lon="-3.58432">
        <ele>210</ele>
        <time>2021-07-08T14:27:03Z</time>
      </trkpt>
      <trkpt lat="48.20709" lon="-3.58437">
        <ele>210</ele>
        <time>2021-07-08T14:27:05Z</time>
      </trkpt>
      <trkpt lat="48.207" lon="-3.58442">
        <ele>209</ele>
        <time>2021-07-08T14:27:07Z</time>
      </trkpt>
      <trkpt lat="48.2069" lon="-3.58447">
        <ele>209</ele>
        <time>2021-07-08T14:27:09Z</time>
      </trkpt>
      <trkpt lat="48.20686" lon="-3.58449">
        <ele>209</ele>
        <time>2021-07-08T14:27:10Z</time>
      </trkpt>
      <trkpt lat="48.20682" lon="-3.58451">
        <ele>210</ele>
        <time>2021-07-08T14:27:11Z</time>
      </trkpt>
      <trkpt lat="48.20678" lon="-3.58453">
        <ele>210</ele>
        <time>2021-07-08T14:27:12Z</time>
      </trkpt>
      <trkpt lat="48.20674" lon="-3.58454">
        <ele>210</ele>
        <time>2021-07-08T14:27:13Z</time>
      </trkpt>
      <trkpt lat="48.2067" lon="-3.58456">
        <ele>210</ele>
        <time>2021-07-08T14:27:14Z</time>
      </trkpt>
      <trkpt lat="48.20666" lon="-3.58458">
        <ele>210</ele>
        <time>2021-07-08T14:27:15Z</time>
      </trkpt>
      <trkpt lat="48.20662" lon="-3.58459">
        <ele>210</ele>
        <time>2021-07-08T14:27:16Z</time>
      </trkpt>
      <trkpt lat="48.20658" lon="-3.58459">
        <ele>210</ele>
        <time>2021-07-08T14:27:17Z</time>
      </trkpt>
      <trkpt lat="48.20654" lon="-3.5846">
        <ele>209</ele>
        <time>2021-07-08T14:27:18Z</time>
      </trkpt>
      <trkpt lat="48.2065" lon="-3.58461">
        <ele>210</ele>
        <time>2021-07-08T14:27:19Z</time>
      </trkpt>
      <trkpt lat="48.20646" lon="-3.58463">
        <ele>210</ele>
        <time>2021-07-08T14:27:20Z</time>
      </trkpt>
      <trkpt lat="48.20642" lon="-3.58464">
        <ele>210</ele>
        <time>2021-07-08T14:27:21Z</time>
      </trkpt>
      <trkpt lat="48.20638" lon="-3.58466">
        <ele>210</ele>
        <time>2021-07-08T14:27:22Z</time>
      </trkpt>
      <trkpt lat="48.20634" lon="-3.58467">
        <ele>210</ele>
        <time>2021-07-08T14:27:23Z</time>
      </trkpt>
      <trkpt lat="48.2063" lon="-3.58469">
        <ele>210</ele>
        <time>2021-07-08T14:27:24Z</time>
      </trkpt>
      <trkpt lat="48.20626" lon="-3.5847">
        <ele>210</ele>
        <time>2021-07-08T14:27:25Z</time>
      </trkpt>
      <trkpt lat="48.20619" lon="-3.58473">
        <ele>210</ele>
        <time>2021-07-08T14:27:27Z</time>
      </trkpt>
      <trkpt lat="48.20615" lon="-3.58474">
        <ele>210</ele>
        <time>2021-07-08T14:27:28Z</time>
      </trkpt>
      <trkpt lat="48.20612" lon="-3.58474">
        <ele>210</ele>
        <time>2021-07-08T14:27:29Z</time>
      </trkpt>
      <trkpt lat="48.20608" lon="-3.58475">
        <ele>210</ele>
        <time>2021-07-08T14:27:30Z</time>
      </trkpt>
      <trkpt lat="48.20603" lon="-3.58476">
        <ele>210</ele>
        <time>2021-07-08T14:27:31Z</time>
      </trkpt>
      <trkpt lat="48.20599" lon="-3.58477">
        <ele>210</ele>
        <time>2021-07-08T14:27:32Z</time>
      </trkpt>
      <trkpt lat="48.20595" lon="-3.58478">
        <ele>210</ele>
        <time>2021-07-08T14:27:33Z</time>
      </trkpt>
      <trkpt lat="48.20592" lon="-3.58478">
        <ele>210</ele>
        <time>2021-07-08T14:27:34Z</time>
      </trkpt>
      <trkpt lat="48.20585" lon="-3.5848">
        <ele>210</ele>
        <time>2021-07-08T14:27:36Z</time>
      </trkpt>
      <trkpt lat="48.20583" lon="-3.58481">
        <ele>210</ele>
        <time>2021-07-08T14:27:37Z</time>
      </trkpt>
      <trkpt lat="48.2058" lon="-3.58482">
        <ele>210</ele>
        <time>2021-07-08T14:27:38Z</time>
      </trkpt>
      <trkpt lat="48.20575" lon="-3.58485">
        <ele>210</ele>
        <time>2021-07-08T14:27:39Z</time>
      </trkpt>
      <trkpt lat="48.20571" lon="-3.58487">
        <ele>210</ele>
        <time>2021-07-08T14:27:40Z</time>
      </trkpt>
      <trkpt lat="48.20566" lon="-3.58489">
        <ele>210</ele>
        <time>2021-07-08T14:27:41Z</time>
      </trkpt>
      <trkpt lat="48.20562" lon="-3.5849">
        <ele>210</ele>
        <time>2021-07-08T14:27:42Z</time>
      </trkpt>
      <trkpt lat="48.20558" lon="-3.5849">
        <ele>210</ele>
        <time>2021-07-08T14:27:43Z</time>
      </trkpt>
      <trkpt lat="48.20553" lon="-3.58489">
        <ele>210</ele>
        <time>2021-07-08T14:27:44Z</time>
      </trkpt>
      <trkpt lat="48.20549" lon="-3.58489">
        <ele>210</ele>
        <time>2021-07-08T14:27:45Z</time>
      </trkpt>
      <trkpt lat="48.20545" lon="-3.5849">
        <ele>210</ele>
        <time>2021-07-08T14:27:46Z</time>
      </trkpt>
      <trkpt lat="48.20541" lon="-3.5849">
        <ele>211</ele>
        <time>2021-07-08T14:27:47Z</time>
      </trkpt>
      <trkpt lat="48.20537" lon="-3.5849">
        <ele>211</ele>
        <time>2021-07-08T14:27:48Z</time>
      </trkpt>
      <trkpt lat="48.20527" lon="-3.58491">
        <ele>211</ele>
        <time>2021-07-08T14:27:50Z</time>
      </trkpt>
      <trkpt lat="48.20523" lon="-3.58491">
        <ele>211</ele>
        <time>2021-07-08T14:27:52Z</time>
      </trkpt>
      <trkpt lat="48.20519" lon="-3.58491">
        <ele>211</ele>
        <time>2021-07-08T14:27:52Z</time>
      </trkpt>
      <trkpt lat="48.20514" lon="-3.58492">
        <ele>211</ele>
        <time>2021-07-08T14:27:53Z</time>
      </trkpt>
      <trkpt lat="48.2051" lon="-3.58492">
        <ele>211</ele>
        <time>2021-07-08T14:27:54Z</time>
      </trkpt>
      <trkpt lat="48.20506" lon="-3.58493">
        <ele>211</ele>
        <time>2021-07-08T14:27:55Z</time>
      </trkpt>
      <trkpt lat="48.20501" lon="-3.58493">
        <ele>211</ele>
        <time>2021-07-08T14:27:56Z</time>
      </trkpt>
      <trkpt lat="48.20497" lon="-3.58494">
        <ele>211</ele>
        <time>2021-07-08T14:27:57Z</time>
      </trkpt>
      <trkpt lat="48.20493" lon="-3.58494">
        <ele>211</ele>
        <time>2021-07-08T14:27:58Z</time>
      </trkpt>
      <trkpt lat="48.20488" lon="-3.58494">
        <ele>211</ele>
        <time>2021-07-08T14:27:59Z</time>
      </trkpt>
      <trkpt lat="48.20484" lon="-3.58495">
        <ele>210</ele>
        <time>2021-07-08T14:28:00Z</time>
      </trkpt>
      <trkpt lat="48.2048" lon="-3.58495">
        <ele>210</ele>
        <time>2021-07-08T14:28:01Z</time>
      </trkpt>
      <trkpt lat="48.20476" lon="-3.58495">
        <ele>210</ele>
        <time>2021-07-08T14:28:02Z</time>
      </trkpt>
      <trkpt lat="48.20472" lon="-3.58496">
        <ele>210</ele>
        <time>2021-07-08T14:28:03Z</time>
      </trkpt>
      <trkpt lat="48.20468" lon="-3.58495">
        <ele>210</ele>
        <time>2021-07-08T14:28:04Z</time>
      </trkpt>
      <trkpt lat="48.20464" lon="-3.58495">
        <ele>210</ele>
        <time>2021-07-08T14:28:05Z</time>
      </trkpt>
      <trkpt lat="48.2046" lon="-3.58495">
        <ele>210</ele>
        <time>2021-07-08T14:28:06Z</time>
      </trkpt>
      <trkpt lat="48.20456" lon="-3.58494">
        <ele>211</ele>
        <time>2021-07-08T14:28:07Z</time>
      </trkpt>
      <trkpt lat="48.20452" lon="-3.58494">
        <ele>211</ele>
        <time>2021-07-08T14:28:08Z</time>
      </trkpt>
      <trkpt lat="48.20448" lon="-3.58494">
        <ele>211</ele>
        <time>2021-07-08T14:28:09Z</time>
      </trkpt>
      <trkpt lat="48.20443" lon="-3.58493">
        <ele>211</ele>
        <time>2021-07-08T14:28:10Z</time>
      </trkpt>
      <trkpt lat="48.20439" lon="-3.58493">
        <ele>210</ele>
        <time>2021-07-08T14:28:11Z</time>
      </trkpt>
      <trkpt lat="48.20435" lon="-3.58492">
        <ele>210</ele>
        <time>2021-07-08T14:28:12Z</time>
      </trkpt>
      <trkpt lat="48.20431" lon="-3.58492">
        <ele>210</ele>
        <time>2021-07-08T14:28:14Z</time>
      </trkpt>
      <trkpt lat="48.20427" lon="-3.58491">
        <ele>210</ele>
        <time>2021-07-08T14:28:14Z</time>
      </trkpt>
      <trkpt lat="48.20423" lon="-3.58491">
        <ele>210</ele>
        <time>2021-07-08T14:28:15Z</time>
      </trkpt>
      <trkpt lat="48.20419" lon="-3.58491">
        <ele>211</ele>
        <time>2021-07-08T14:28:16Z</time>
      </trkpt>
      <trkpt lat="48.20415" lon="-3.5849">
        <ele>211</ele>
        <time>2021-07-08T14:28:17Z</time>
      </trkpt>
      <trkpt lat="48.20411" lon="-3.5849">
        <ele>211</ele>
        <time>2021-07-08T14:28:18Z</time>
      </trkpt>
      <trkpt lat="48.20407" lon="-3.5849">
        <ele>211</ele>
        <time>2021-07-08T14:28:19Z</time>
      </trkpt>
      <trkpt lat="48.20403" lon="-3.5849">
        <ele>211</ele>
        <time>2021-07-08T14:28:20Z</time>
      </trkpt>
      <trkpt lat="48.20399" lon="-3.5849">
        <ele>211</ele>
        <time>2021-07-08T14:28:21Z</time>
      </trkpt>
      <trkpt lat="48.20395" lon="-3.5849">
        <ele>211</ele>
        <time>2021-07-08T14:28:22Z</time>
      </trkpt>
      <trkpt lat="48.20391" lon="-3.5849">
        <ele>211</ele>
        <time>2021-07-08T14:28:23Z</time>
      </trkpt>
      <trkpt lat="48.20388" lon="-3.5849">
        <ele>211</ele>
        <time>2021-07-08T14:28:24Z</time>
      </trkpt>
      <trkpt lat="48.20384" lon="-3.5849">
        <ele>211</ele>
        <time>2021-07-08T14:28:25Z</time>
      </trkpt>
      <trkpt lat="48.2038" lon="-3.5849">
        <ele>211</ele>
        <time>2021-07-08T14:28:26Z</time>
      </trkpt>
      <trkpt lat="48.20376" lon="-3.58489">
        <ele>211</ele>
        <time>2021-07-08T14:28:27Z</time>
      </trkpt>
      <trkpt lat="48.20372" lon="-3.58489">
        <ele>211</ele>
        <time>2021-07-08T14:28:29Z</time>
      </trkpt>
      <trkpt lat="48.20368" lon="-3.58488">
        <ele>211</ele>
        <time>2021-07-08T14:28:29Z</time>
      </trkpt>
      <trkpt lat="48.20364" lon="-3.58488">
        <ele>211</ele>
        <time>2021-07-08T14:28:30Z</time>
      </trkpt>
      <trkpt lat="48.2036" lon="-3.58487">
        <ele>211</ele>
        <time>2021-07-08T14:28:31Z</time>
      </trkpt>
      <trkpt lat="48.20352" lon="-3.58486">
        <ele>211</ele>
        <time>2021-07-08T14:28:33Z</time>
      </trkpt>
      <trkpt lat="48.20349" lon="-3.58485">
        <ele>211</ele>
        <time>2021-07-08T14:28:34Z</time>
      </trkpt>
      <trkpt lat="48.20342" lon="-3.58485">
        <ele>211</ele>
        <time>2021-07-08T14:28:36Z</time>
      </trkpt>
      <trkpt lat="48.20331" lon="-3.58486">
        <ele>211</ele>
        <time>2021-07-08T14:28:39Z</time>
      </trkpt>
      <trkpt lat="48.20324" lon="-3.58486">
        <ele>211</ele>
        <time>2021-07-08T14:28:41Z</time>
      </trkpt>
      <trkpt lat="48.2032" lon="-3.58486">
        <ele>211</ele>
        <time>2021-07-08T14:28:42Z</time>
      </trkpt>
      <trkpt lat="48.20316" lon="-3.58485">
        <ele>211</ele>
        <time>2021-07-08T14:28:43Z</time>
      </trkpt>
      <trkpt lat="48.20313" lon="-3.58485">
        <ele>211</ele>
        <time>2021-07-08T14:28:44Z</time>
      </trkpt>
      <trkpt lat="48.20309" lon="-3.58484">
        <ele>211</ele>
        <time>2021-07-08T14:28:45Z</time>
      </trkpt>
      <trkpt lat="48.20306" lon="-3.58483">
        <ele>211</ele>
        <time>2021-07-08T14:28:46Z</time>
      </trkpt>
      <trkpt lat="48.20302" lon="-3.58482">
        <ele>211</ele>
        <time>2021-07-08T14:28:47Z</time>
      </trkpt>
      <trkpt lat="48.20299" lon="-3.58482">
        <ele>212</ele>
        <time>2021-07-08T14:28:48Z</time>
      </trkpt>
      <trkpt lat="48.20296" lon="-3.58482">
        <ele>212</ele>
        <time>2021-07-08T14:28:49Z</time>
      </trkpt>
      <trkpt lat="48.20292" lon="-3.58482">
        <ele>212</ele>
        <time>2021-07-08T14:28:50Z</time>
      </trkpt>
      <trkpt lat="48.20289" lon="-3.58482">
        <ele>212</ele>
        <time>2021-07-08T14:28:52Z</time>
      </trkpt>
      <trkpt lat="48.20286" lon="-3.58481">
        <ele>212</ele>
        <time>2021-07-08T14:28:52Z</time>
      </trkpt>
      <trkpt lat="48.20282" lon="-3.58481">
        <ele>212</ele>
        <time>2021-07-08T14:28:53Z</time>
      </trkpt>
      <trkpt lat="48.20279" lon="-3.5848">
        <ele>212</ele>
        <time>2021-07-08T14:28:54Z</time>
      </trkpt>
      <trkpt lat="48.20276" lon="-3.5848">
        <ele>212</ele>
        <time>2021-07-08T14:28:55Z</time>
      </trkpt>
      <trkpt lat="48.20273" lon="-3.58479">
        <ele>212</ele>
        <time>2021-07-08T14:28:56Z</time>
      </trkpt>
      <trkpt lat="48.20271" lon="-3.58479">
        <ele>212</ele>
        <time>2021-07-08T14:28:57Z</time>
      </trkpt>
      <trkpt lat="48.20268" lon="-3.58479">
        <ele>213</ele>
        <time>2021-07-08T14:28:58Z</time>
      </trkpt>
      <trkpt lat="48.20265" lon="-3.58478">
        <ele>213</ele>
        <time>2021-07-08T14:28:59Z</time>
      </trkpt>
      <trkpt lat="48.20263" lon="-3.58477">
        <ele>213</ele>
        <time>2021-07-08T14:29:00Z</time>
      </trkpt>
      <trkpt lat="48.2026" lon="-3.58476">
        <ele>213</ele>
        <time>2021-07-08T14:29:01Z</time>
      </trkpt>
      <trkpt lat="48.20257" lon="-3.58475">
        <ele>213</ele>
        <time>2021-07-08T14:29:02Z</time>
      </trkpt>
      <trkpt lat="48.20255" lon="-3.58475">
        <ele>213</ele>
        <time>2021-07-08T14:29:03Z</time>
      </trkpt>
      <trkpt lat="48.20252" lon="-3.58474">
        <ele>213</ele>
        <time>2021-07-08T14:29:04Z</time>
      </trkpt>
      <trkpt lat="48.20249" lon="-3.58474">
        <ele>213</ele>
        <time>2021-07-08T14:29:05Z</time>
      </trkpt>
      <trkpt lat="48.20246" lon="-3.58474">
        <ele>213</ele>
        <time>2021-07-08T14:29:06Z</time>
      </trkpt>
      <trkpt lat="48.20243" lon="-3.58474">
        <ele>213</ele>
        <time>2021-07-08T14:29:07Z</time>
      </trkpt>
      <trkpt lat="48.20241" lon="-3.58475">
        <ele>213</ele>
        <time>2021-07-08T14:29:08Z</time>
      </trkpt>
      <trkpt lat="48.20239" lon="-3.58475">
        <ele>213</ele>
        <time>2021-07-08T14:29:09Z</time>
      </trkpt>
      <trkpt lat="48.20235" lon="-3.58475">
        <ele>213</ele>
        <time>2021-07-08T14:29:11Z</time>
      </trkpt>
      <trkpt lat="48.20233" lon="-3.58474">
        <ele>214</ele>
        <time>2021-07-08T14:29:12Z</time>
      </trkpt>
      <trkpt lat="48.20231" lon="-3.58474">
        <ele>214</ele>
        <time>2021-07-08T14:29:13Z</time>
      </trkpt>
      <trkpt lat="48.20228" lon="-3.58474">
        <ele>214</ele>
        <time>2021-07-08T14:29:14Z</time>
      </trkpt>
      <trkpt lat="48.20226" lon="-3.58473">
        <ele>214</ele>
        <time>2021-07-08T14:29:15Z</time>
      </trkpt>
      <trkpt lat="48.20224" lon="-3.58474">
        <ele>214</ele>
        <time>2021-07-08T14:29:16Z</time>
      </trkpt>
      <trkpt lat="48.20222" lon="-3.58472">
        <ele>214</ele>
        <time>2021-07-08T14:29:25Z</time>
      </trkpt>
      <trkpt lat="48.20224" lon="-3.58476">
        <ele>214</ele>
        <time>2021-07-08T14:30:16Z</time>
      </trkpt>
      <trkpt lat="48.20221" lon="-3.58471">
        <ele>214</ele>
        <time>2021-07-08T14:30:37Z</time>
      </trkpt>
      <trkpt lat="48.20221" lon="-3.58472">
        <ele>214</ele>
        <time>2021-07-08T14:30:44Z</time>
      </trkpt>
      <trkpt lat="48.20221" lon="-3.58474">
        <ele>214</ele>
        <time>2021-07-08T14:31:26Z</time>
      </trkpt>
      <trkpt lat="48.20218" lon="-3.58472">
        <ele>214</ele>
        <time>2021-07-08T14:31:29Z</time>
      </trkpt>
      <trkpt lat="48.20214" lon="-3.58472">
        <ele>214</ele>
        <time>2021-07-08T14:31:31Z</time>
      </trkpt>
      <trkpt lat="48.20212" lon="-3.58473">
        <ele>214</ele>
        <time>2021-07-08T14:31:32Z</time>
      </trkpt>
      <trkpt lat="48.20209" lon="-3.58473">
        <ele>214</ele>
        <time>2021-07-08T14:31:33Z</time>
      </trkpt>
      <trkpt lat="48.20205" lon="-3.58473">
        <ele>214</ele>
        <time>2021-07-08T14:31:34Z</time>
      </trkpt>
      <trkpt lat="48.20202" lon="-3.58473">
        <ele>214</ele>
        <time>2021-07-08T14:31:35Z</time>
      </trkpt>
      <trkpt lat="48.20199" lon="-3.58473">
        <ele>213</ele>
        <time>2021-07-08T14:31:36Z</time>
      </trkpt>
      <trkpt lat="48.20196" lon="-3.58474">
        <ele>213</ele>
        <time>2021-07-08T14:31:37Z</time>
      </trkpt>
      <trkpt lat="48.20193" lon="-3.58474">
        <ele>213</ele>
        <time>2021-07-08T14:31:38Z</time>
      </trkpt>
      <trkpt lat="48.20189" lon="-3.58474">
        <ele>213</ele>
        <time>2021-07-08T14:31:39Z</time>
      </trkpt>
      <trkpt lat="48.20186" lon="-3.58474">
        <ele>213</ele>
        <time>2021-07-08T14:31:40Z</time>
      </trkpt>
      <trkpt lat="48.20182" lon="-3.58475">
        <ele>213</ele>
        <time>2021-07-08T14:31:42Z</time>
      </trkpt>
      <trkpt lat="48.20179" lon="-3.58475">
        <ele>213</ele>
        <time>2021-07-08T14:31:42Z</time>
      </trkpt>
      <trkpt lat="48.20175" lon="-3.58475">
        <ele>213</ele>
        <time>2021-07-08T14:31:43Z</time>
      </trkpt>
      <trkpt lat="48.20172" lon="-3.58475">
        <ele>214</ele>
        <time>2021-07-08T14:31:44Z</time>
      </trkpt>
      <trkpt lat="48.20168" lon="-3.58475">
        <ele>214</ele>
        <time>2021-07-08T14:31:45Z</time>
      </trkpt>
      <trkpt lat="48.20165" lon="-3.58474">
        <ele>214</ele>
        <time>2021-07-08T14:31:46Z</time>
      </trkpt>
      <trkpt lat="48.20161" lon="-3.58474">
        <ele>214</ele>
        <time>2021-07-08T14:31:47Z</time>
      </trkpt>
      <trkpt lat="48.20158" lon="-3.58473">
        <ele>214</ele>
        <time>2021-07-08T14:31:48Z</time>
      </trkpt>
      <trkpt lat="48.20154" lon="-3.58473">
        <ele>214</ele>
        <time>2021-07-08T14:31:49Z</time>
      </trkpt>
      <trkpt lat="48.20151" lon="-3.58473">
        <ele>214</ele>
        <time>2021-07-08T14:31:50Z</time>
      </trkpt>
      <trkpt lat="48.20147" lon="-3.58472">
        <ele>214</ele>
        <time>2021-07-08T14:31:51Z</time>
      </trkpt>
      <trkpt lat="48.20144" lon="-3.58471">
        <ele>214</ele>
        <time>2021-07-08T14:31:52Z</time>
      </trkpt>
      <trkpt lat="48.20141" lon="-3.58471">
        <ele>214</ele>
        <time>2021-07-08T14:31:53Z</time>
      </trkpt>
      <trkpt lat="48.20137" lon="-3.5847">
        <ele>214</ele>
        <time>2021-07-08T14:31:54Z</time>
      </trkpt>
      <trkpt lat="48.20134" lon="-3.58469">
        <ele>214</ele>
        <time>2021-07-08T14:31:55Z</time>
      </trkpt>
      <trkpt lat="48.2013" lon="-3.58469">
        <ele>214</ele>
        <time>2021-07-08T14:31:56Z</time>
      </trkpt>
      <trkpt lat="48.20127" lon="-3.58468">
        <ele>214</ele>
        <time>2021-07-08T14:31:58Z</time>
      </trkpt>
      <trkpt lat="48.20123" lon="-3.58468">
        <ele>214</ele>
        <time>2021-07-08T14:31:58Z</time>
      </trkpt>
      <trkpt lat="48.2012" lon="-3.58468">
        <ele>214</ele>
        <time>2021-07-08T14:31:59Z</time>
      </trkpt>
      <trkpt lat="48.20116" lon="-3.58467">
        <ele>214</ele>
        <time>2021-07-08T14:32:01Z</time>
      </trkpt>
      <trkpt lat="48.20113" lon="-3.58467">
        <ele>214</ele>
        <time>2021-07-08T14:32:01Z</time>
      </trkpt>
      <trkpt lat="48.20109" lon="-3.58467">
        <ele>214</ele>
        <time>2021-07-08T14:32:02Z</time>
      </trkpt>
      <trkpt lat="48.20106" lon="-3.58467">
        <ele>214</ele>
        <time>2021-07-08T14:32:03Z</time>
      </trkpt>
      <trkpt lat="48.20103" lon="-3.58467">
        <ele>214</ele>
        <time>2021-07-08T14:32:04Z</time>
      </trkpt>
      <trkpt lat="48.20099" lon="-3.58467">
        <ele>215</ele>
        <time>2021-07-08T14:32:05Z</time>
      </trkpt>
      <trkpt lat="48.20096" lon="-3.58467">
        <ele>215</ele>
        <time>2021-07-08T14:32:06Z</time>
      </trkpt>
      <trkpt lat="48.20093" lon="-3.58467">
        <ele>215</ele>
        <time>2021-07-08T14:32:07Z</time>
      </trkpt>
      <trkpt lat="48.20089" lon="-3.58466">
        <ele>215</ele>
        <time>2021-07-08T14:32:08Z</time>
      </trkpt>
      <trkpt lat="48.20086" lon="-3.58466">
        <ele>215</ele>
        <time>2021-07-08T14:32:09Z</time>
      </trkpt>
      <trkpt lat="48.20083" lon="-3.58466">
        <ele>215</ele>
        <time>2021-07-08T14:32:10Z</time>
      </trkpt>
      <trkpt lat="48.20079" lon="-3.58465">
        <ele>215</ele>
        <time>2021-07-08T14:32:11Z</time>
      </trkpt>
      <trkpt lat="48.20076" lon="-3.58465">
        <ele>215</ele>
        <time>2021-07-08T14:32:12Z</time>
      </trkpt>
      <trkpt lat="48.20072" lon="-3.58465">
        <ele>215</ele>
        <time>2021-07-08T14:32:13Z</time>
      </trkpt>
      <trkpt lat="48.20069" lon="-3.58464">
        <ele>215</ele>
        <time>2021-07-08T14:32:14Z</time>
      </trkpt>
      <trkpt lat="48.20066" lon="-3.58464">
        <ele>215</ele>
        <time>2021-07-08T14:32:15Z</time>
      </trkpt>
      <trkpt lat="48.20062" lon="-3.58464">
        <ele>216</ele>
        <time>2021-07-08T14:32:16Z</time>
      </trkpt>
      <trkpt lat="48.20059" lon="-3.58463">
        <ele>216</ele>
        <time>2021-07-08T14:32:17Z</time>
      </trkpt>
      <trkpt lat="48.20056" lon="-3.58463">
        <ele>216</ele>
        <time>2021-07-08T14:32:18Z</time>
      </trkpt>
      <trkpt lat="48.20049" lon="-3.58462">
        <ele>216</ele>
        <time>2021-07-08T14:32:20Z</time>
      </trkpt>
      <trkpt lat="48.20046" lon="-3.58462">
        <ele>215</ele>
        <time>2021-07-08T14:32:21Z</time>
      </trkpt>
      <trkpt lat="48.20042" lon="-3.58461">
        <ele>215</ele>
        <time>2021-07-08T14:32:22Z</time>
      </trkpt>
      <trkpt lat="48.20039" lon="-3.5846">
        <ele>216</ele>
        <time>2021-07-08T14:32:23Z</time>
      </trkpt>
      <trkpt lat="48.20036" lon="-3.58459">
        <ele>216</ele>
        <time>2021-07-08T14:32:24Z</time>
      </trkpt>
      <trkpt lat="48.20032" lon="-3.58458">
        <ele>216</ele>
        <time>2021-07-08T14:32:25Z</time>
      </trkpt>
      <trkpt lat="48.20029" lon="-3.58457">
        <ele>216</ele>
        <time>2021-07-08T14:32:26Z</time>
      </trkpt>
      <trkpt lat="48.20025" lon="-3.58456">
        <ele>216</ele>
        <time>2021-07-08T14:32:27Z</time>
      </trkpt>
      <trkpt lat="48.20022" lon="-3.58455">
        <ele>216</ele>
        <time>2021-07-08T14:32:28Z</time>
      </trkpt>
      <trkpt lat="48.20019" lon="-3.58454">
        <ele>216</ele>
        <time>2021-07-08T14:32:29Z</time>
      </trkpt>
      <trkpt lat="48.20015" lon="-3.58453">
        <ele>216</ele>
        <time>2021-07-08T14:32:30Z</time>
      </trkpt>
      <trkpt lat="48.20012" lon="-3.58452">
        <ele>216</ele>
        <time>2021-07-08T14:32:31Z</time>
      </trkpt>
      <trkpt lat="48.20009" lon="-3.5845">
        <ele>216</ele>
        <time>2021-07-08T14:32:32Z</time>
      </trkpt>
      <trkpt lat="48.20006" lon="-3.58449">
        <ele>216</ele>
        <time>2021-07-08T14:32:33Z</time>
      </trkpt>
      <trkpt lat="48.20003" lon="-3.58448">
        <ele>216</ele>
        <time>2021-07-08T14:32:34Z</time>
      </trkpt>
      <trkpt lat="48.19999" lon="-3.58446">
        <ele>216</ele>
        <time>2021-07-08T14:32:35Z</time>
      </trkpt>
      <trkpt lat="48.19996" lon="-3.58445">
        <ele>216</ele>
        <time>2021-07-08T14:32:36Z</time>
      </trkpt>
      <trkpt lat="48.19993" lon="-3.58443">
        <ele>216</ele>
        <time>2021-07-08T14:32:37Z</time>
      </trkpt>
      <trkpt lat="48.1999" lon="-3.58441">
        <ele>217</ele>
        <time>2021-07-08T14:32:39Z</time>
      </trkpt>
      <trkpt lat="48.19986" lon="-3.5844">
        <ele>217</ele>
        <time>2021-07-08T14:32:39Z</time>
      </trkpt>
      <trkpt lat="48.19983" lon="-3.58438">
        <ele>217</ele>
        <time>2021-07-08T14:32:40Z</time>
      </trkpt>
      <trkpt lat="48.1998" lon="-3.58437">
        <ele>217</ele>
        <time>2021-07-08T14:32:41Z</time>
      </trkpt>
      <trkpt lat="48.19977" lon="-3.58435">
        <ele>217</ele>
        <time>2021-07-08T14:32:42Z</time>
      </trkpt>
      <trkpt lat="48.19973" lon="-3.58433">
        <ele>217</ele>
        <time>2021-07-08T14:32:43Z</time>
      </trkpt>
      <trkpt lat="48.1997" lon="-3.58431">
        <ele>217</ele>
        <time>2021-07-08T14:32:44Z</time>
      </trkpt>
      <trkpt lat="48.19967" lon="-3.58429">
        <ele>217</ele>
        <time>2021-07-08T14:32:45Z</time>
      </trkpt>
      <trkpt lat="48.19964" lon="-3.58428">
        <ele>218</ele>
        <time>2021-07-08T14:32:46Z</time>
      </trkpt>
      <trkpt lat="48.19961" lon="-3.58426">
        <ele>218</ele>
        <time>2021-07-08T14:32:47Z</time>
      </trkpt>
      <trkpt lat="48.19957" lon="-3.58424">
        <ele>218</ele>
        <time>2021-07-08T14:32:48Z</time>
      </trkpt>
      <trkpt lat="48.19954" lon="-3.58421">
        <ele>218</ele>
        <time>2021-07-08T14:32:49Z</time>
      </trkpt>
      <trkpt lat="48.19951" lon="-3.58419">
        <ele>218</ele>
        <time>2021-07-08T14:32:50Z</time>
      </trkpt>
      <trkpt lat="48.19948" lon="-3.58417">
        <ele>218</ele>
        <time>2021-07-08T14:32:51Z</time>
      </trkpt>
      <trkpt lat="48.19945" lon="-3.58415">
        <ele>218</ele>
        <time>2021-07-08T14:32:52Z</time>
      </trkpt>
      <trkpt lat="48.19942" lon="-3.58413">
        <ele>218</ele>
        <time>2021-07-08T14:32:53Z</time>
      </trkpt>
      <trkpt lat="48.19939" lon="-3.58411">
        <ele>218</ele>
        <time>2021-07-08T14:32:54Z</time>
      </trkpt>
      <trkpt lat="48.19936" lon="-3.58409">
        <ele>218</ele>
        <time>2021-07-08T14:32:55Z</time>
      </trkpt>
      <trkpt lat="48.1993" lon="-3.58405">
        <ele>218</ele>
        <time>2021-07-08T14:32:58Z</time>
      </trkpt>
      <trkpt lat="48.19927" lon="-3.58403">
        <ele>218</ele>
        <time>2021-07-08T14:32:58Z</time>
      </trkpt>
      <trkpt lat="48.19924" lon="-3.584">
        <ele>218</ele>
        <time>2021-07-08T14:32:59Z</time>
      </trkpt>
      <trkpt lat="48.19922" lon="-3.58398">
        <ele>218</ele>
        <time>2021-07-08T14:33:00Z</time>
      </trkpt>
      <trkpt lat="48.19919" lon="-3.58396">
        <ele>218</ele>
        <time>2021-07-08T14:33:01Z</time>
      </trkpt>
      <trkpt lat="48.19916" lon="-3.58393">
        <ele>218</ele>
        <time>2021-07-08T14:33:03Z</time>
      </trkpt>
      <trkpt lat="48.19913" lon="-3.58391">
        <ele>218</ele>
        <time>2021-07-08T14:33:03Z</time>
      </trkpt>
      <trkpt lat="48.1991" lon="-3.58388">
        <ele>219</ele>
        <time>2021-07-08T14:33:04Z</time>
      </trkpt>
      <trkpt lat="48.19907" lon="-3.58384">
        <ele>219</ele>
        <time>2021-07-08T14:33:05Z</time>
      </trkpt>
      <trkpt lat="48.19904" lon="-3.58381">
        <ele>219</ele>
        <time>2021-07-08T14:33:06Z</time>
      </trkpt>
      <trkpt lat="48.19901" lon="-3.58377">
        <ele>219</ele>
        <time>2021-07-08T14:33:07Z</time>
      </trkpt>
      <trkpt lat="48.19897" lon="-3.58374">
        <ele>219</ele>
        <time>2021-07-08T14:33:08Z</time>
      </trkpt>
      <trkpt lat="48.19895" lon="-3.5837">
        <ele>219</ele>
        <time>2021-07-08T14:33:09Z</time>
      </trkpt>
      <trkpt lat="48.19892" lon="-3.58367">
        <ele>219</ele>
        <time>2021-07-08T14:33:10Z</time>
      </trkpt>
      <trkpt lat="48.19889" lon="-3.58363">
        <ele>219</ele>
        <time>2021-07-08T14:33:11Z</time>
      </trkpt>
      <trkpt lat="48.19886" lon="-3.5836">
        <ele>219</ele>
        <time>2021-07-08T14:33:12Z</time>
      </trkpt>
      <trkpt lat="48.19883" lon="-3.58356">
        <ele>219</ele>
        <time>2021-07-08T14:33:13Z</time>
      </trkpt>
      <trkpt lat="48.1988" lon="-3.58353">
        <ele>219</ele>
        <time>2021-07-08T14:33:14Z</time>
      </trkpt>
      <trkpt lat="48.19877" lon="-3.5835">
        <ele>219</ele>
        <time>2021-07-08T14:33:15Z</time>
      </trkpt>
      <trkpt lat="48.19874" lon="-3.58347">
        <ele>219</ele>
        <time>2021-07-08T14:33:17Z</time>
      </trkpt>
      <trkpt lat="48.19871" lon="-3.58343">
        <ele>219</ele>
        <time>2021-07-08T14:33:17Z</time>
      </trkpt>
      <trkpt lat="48.19868" lon="-3.5834">
        <ele>219</ele>
        <time>2021-07-08T14:33:18Z</time>
      </trkpt>
      <trkpt lat="48.19865" lon="-3.58336">
        <ele>219</ele>
        <time>2021-07-08T14:33:19Z</time>
      </trkpt>
      <trkpt lat="48.19862" lon="-3.58332">
        <ele>219</ele>
        <time>2021-07-08T14:33:20Z</time>
      </trkpt>
      <trkpt lat="48.19859" lon="-3.58328">
        <ele>219</ele>
        <time>2021-07-08T14:33:21Z</time>
      </trkpt>
      <trkpt lat="48.19855" lon="-3.58323">
        <ele>219</ele>
        <time>2021-07-08T14:33:22Z</time>
      </trkpt>
      <trkpt lat="48.19852" lon="-3.58318">
        <ele>219</ele>
        <time>2021-07-08T14:33:23Z</time>
      </trkpt>
      <trkpt lat="48.19849" lon="-3.58314">
        <ele>219</ele>
        <time>2021-07-08T14:33:24Z</time>
      </trkpt>
      <trkpt lat="48.19846" lon="-3.58309">
        <ele>219</ele>
        <time>2021-07-08T14:33:25Z</time>
      </trkpt>
      <trkpt lat="48.19843" lon="-3.58305">
        <ele>219</ele>
        <time>2021-07-08T14:33:26Z</time>
      </trkpt>
      <trkpt lat="48.1984" lon="-3.583">
        <ele>219</ele>
        <time>2021-07-08T14:33:27Z</time>
      </trkpt>
      <trkpt lat="48.19837" lon="-3.58296">
        <ele>219</ele>
        <time>2021-07-08T14:33:28Z</time>
      </trkpt>
      <trkpt lat="48.19834" lon="-3.58291">
        <ele>219</ele>
        <time>2021-07-08T14:33:29Z</time>
      </trkpt>
      <trkpt lat="48.19831" lon="-3.58286">
        <ele>219</ele>
        <time>2021-07-08T14:33:30Z</time>
      </trkpt>
      <trkpt lat="48.19828" lon="-3.58281">
        <ele>219</ele>
        <time>2021-07-08T14:33:31Z</time>
      </trkpt>
      <trkpt lat="48.19826" lon="-3.58276">
        <ele>219</ele>
        <time>2021-07-08T14:33:32Z</time>
      </trkpt>
      <trkpt lat="48.19823" lon="-3.58271">
        <ele>219</ele>
        <time>2021-07-08T14:33:33Z</time>
      </trkpt>
      <trkpt lat="48.1982" lon="-3.58266">
        <ele>220</ele>
        <time>2021-07-08T14:33:34Z</time>
      </trkpt>
      <trkpt lat="48.19818" lon="-3.58261">
        <ele>220</ele>
        <time>2021-07-08T14:33:36Z</time>
      </trkpt>
      <trkpt lat="48.19815" lon="-3.58257">
        <ele>220</ele>
        <time>2021-07-08T14:33:36Z</time>
      </trkpt>
      <trkpt lat="48.19813" lon="-3.58252">
        <ele>220</ele>
        <time>2021-07-08T14:33:37Z</time>
      </trkpt>
      <trkpt lat="48.19811" lon="-3.58248">
        <ele>220</ele>
        <time>2021-07-08T14:33:38Z</time>
      </trkpt>
      <trkpt lat="48.19809" lon="-3.58243">
        <ele>221</ele>
        <time>2021-07-08T14:33:39Z</time>
      </trkpt>
      <trkpt lat="48.19806" lon="-3.58238">
        <ele>221</ele>
        <time>2021-07-08T14:33:40Z</time>
      </trkpt>
      <trkpt lat="48.19804" lon="-3.58233">
        <ele>220</ele>
        <time>2021-07-08T14:33:41Z</time>
      </trkpt>
      <trkpt lat="48.19802" lon="-3.58228">
        <ele>220</ele>
        <time>2021-07-08T14:33:42Z</time>
      </trkpt>
      <trkpt lat="48.198" lon="-3.58222">
        <ele>220</ele>
        <time>2021-07-08T14:33:43Z</time>
      </trkpt>
      <trkpt lat="48.19797" lon="-3.58217">
        <ele>220</ele>
        <time>2021-07-08T14:33:44Z</time>
      </trkpt>
      <trkpt lat="48.19795" lon="-3.58212">
        <ele>220</ele>
        <time>2021-07-08T14:33:45Z</time>
      </trkpt>
      <trkpt lat="48.19794" lon="-3.58206">
        <ele>220</ele>
        <time>2021-07-08T14:33:46Z</time>
      </trkpt>
      <trkpt lat="48.19792" lon="-3.58201">
        <ele>220</ele>
        <time>2021-07-08T14:33:47Z</time>
      </trkpt>
      <trkpt lat="48.1979" lon="-3.58196">
        <ele>220</ele>
        <time>2021-07-08T14:33:48Z</time>
      </trkpt>
      <trkpt lat="48.19788" lon="-3.5819">
        <ele>220</ele>
        <time>2021-07-08T14:33:49Z</time>
      </trkpt>
      <trkpt lat="48.19785" lon="-3.58186">
        <ele>220</ele>
        <time>2021-07-08T14:33:50Z</time>
      </trkpt>
      <trkpt lat="48.19783" lon="-3.58181">
        <ele>220</ele>
        <time>2021-07-08T14:33:51Z</time>
      </trkpt>
      <trkpt lat="48.19781" lon="-3.58176">
        <ele>220</ele>
        <time>2021-07-08T14:33:52Z</time>
      </trkpt>
      <trkpt lat="48.19779" lon="-3.58171">
        <ele>221</ele>
        <time>2021-07-08T14:33:53Z</time>
      </trkpt>
      <trkpt lat="48.19775" lon="-3.5816">
        <ele>221</ele>
        <time>2021-07-08T14:33:55Z</time>
      </trkpt>
      <trkpt lat="48.19774" lon="-3.58156">
        <ele>221</ele>
        <time>2021-07-08T14:33:56Z</time>
      </trkpt>
      <trkpt lat="48.19772" lon="-3.58151">
        <ele>221</ele>
        <time>2021-07-08T14:33:57Z</time>
      </trkpt>
      <trkpt lat="48.19771" lon="-3.58146">
        <ele>221</ele>
        <time>2021-07-08T14:33:58Z</time>
      </trkpt>
      <trkpt lat="48.19769" lon="-3.58141">
        <ele>221</ele>
        <time>2021-07-08T14:33:59Z</time>
      </trkpt>
      <trkpt lat="48.19768" lon="-3.58136">
        <ele>221</ele>
        <time>2021-07-08T14:34:00Z</time>
      </trkpt>
      <trkpt lat="48.19766" lon="-3.58132">
        <ele>221</ele>
        <time>2021-07-08T14:34:01Z</time>
      </trkpt>
      <trkpt lat="48.19764" lon="-3.58127">
        <ele>222</ele>
        <time>2021-07-08T14:34:02Z</time>
      </trkpt>
      <trkpt lat="48.19762" lon="-3.58122">
        <ele>222</ele>
        <time>2021-07-08T14:34:03Z</time>
      </trkpt>
      <trkpt lat="48.1976" lon="-3.58117">
        <ele>222</ele>
        <time>2021-07-08T14:34:04Z</time>
      </trkpt>
      <trkpt lat="48.19759" lon="-3.58113">
        <ele>222</ele>
        <time>2021-07-08T14:34:05Z</time>
      </trkpt>
      <trkpt lat="48.19757" lon="-3.58108">
        <ele>222</ele>
        <time>2021-07-08T14:34:06Z</time>
      </trkpt>
      <trkpt lat="48.19755" lon="-3.58104">
        <ele>222</ele>
        <time>2021-07-08T14:34:07Z</time>
      </trkpt>
      <trkpt lat="48.19753" lon="-3.58099">
        <ele>222</ele>
        <time>2021-07-08T14:34:08Z</time>
      </trkpt>
      <trkpt lat="48.19751" lon="-3.58095">
        <ele>222</ele>
        <time>2021-07-08T14:34:09Z</time>
      </trkpt>
      <trkpt lat="48.1975" lon="-3.5809">
        <ele>222</ele>
        <time>2021-07-08T14:34:10Z</time>
      </trkpt>
      <trkpt lat="48.19748" lon="-3.58085">
        <ele>222</ele>
        <time>2021-07-08T14:34:11Z</time>
      </trkpt>
      <trkpt lat="48.19746" lon="-3.5808">
        <ele>222</ele>
        <time>2021-07-08T14:34:12Z</time>
      </trkpt>
      <trkpt lat="48.19743" lon="-3.5807">
        <ele>222</ele>
        <time>2021-07-08T14:34:14Z</time>
      </trkpt>
      <trkpt lat="48.19741" lon="-3.58065">
        <ele>222</ele>
        <time>2021-07-08T14:34:16Z</time>
      </trkpt>
      <trkpt lat="48.1974" lon="-3.58061">
        <ele>222</ele>
        <time>2021-07-08T14:34:16Z</time>
      </trkpt>
      <trkpt lat="48.19738" lon="-3.58056">
        <ele>222</ele>
        <time>2021-07-08T14:34:17Z</time>
      </trkpt>
      <trkpt lat="48.19736" lon="-3.58051">
        <ele>222</ele>
        <time>2021-07-08T14:34:18Z</time>
      </trkpt>
      <trkpt lat="48.19735" lon="-3.58047">
        <ele>222</ele>
        <time>2021-07-08T14:34:19Z</time>
      </trkpt>
      <trkpt lat="48.19734" lon="-3.58043">
        <ele>222</ele>
        <time>2021-07-08T14:34:20Z</time>
      </trkpt>
      <trkpt lat="48.19731" lon="-3.58033">
        <ele>223</ele>
        <time>2021-07-08T14:34:22Z</time>
      </trkpt>
      <trkpt lat="48.19729" lon="-3.58028">
        <ele>223</ele>
        <time>2021-07-08T14:34:23Z</time>
      </trkpt>
      <trkpt lat="48.19727" lon="-3.58022">
        <ele>223</ele>
        <time>2021-07-08T14:34:24Z</time>
      </trkpt>
      <trkpt lat="48.19725" lon="-3.58017">
        <ele>223</ele>
        <time>2021-07-08T14:34:25Z</time>
      </trkpt>
      <trkpt lat="48.19724" lon="-3.58012">
        <ele>223</ele>
        <time>2021-07-08T14:34:26Z</time>
      </trkpt>
      <trkpt lat="48.19722" lon="-3.58007">
        <ele>223</ele>
        <time>2021-07-08T14:34:27Z</time>
      </trkpt>
      <trkpt lat="48.19721" lon="-3.58003">
        <ele>223</ele>
        <time>2021-07-08T14:34:28Z</time>
      </trkpt>
      <trkpt lat="48.19719" lon="-3.57998">
        <ele>224</ele>
        <time>2021-07-08T14:34:29Z</time>
      </trkpt>
      <trkpt lat="48.19718" lon="-3.57993">
        <ele>224</ele>
        <time>2021-07-08T14:34:30Z</time>
      </trkpt>
      <trkpt lat="48.19716" lon="-3.57988">
        <ele>224</ele>
        <time>2021-07-08T14:34:31Z</time>
      </trkpt>
      <trkpt lat="48.19714" lon="-3.57979">
        <ele>224</ele>
        <time>2021-07-08T14:34:33Z</time>
      </trkpt>
      <trkpt lat="48.19713" lon="-3.57974">
        <ele>224</ele>
        <time>2021-07-08T14:34:34Z</time>
      </trkpt>
      <trkpt lat="48.19712" lon="-3.57969">
        <ele>224</ele>
        <time>2021-07-08T14:34:35Z</time>
      </trkpt>
      <trkpt lat="48.19711" lon="-3.57965">
        <ele>224</ele>
        <time>2021-07-08T14:34:36Z</time>
      </trkpt>
      <trkpt lat="48.1971" lon="-3.5796">
        <ele>224</ele>
        <time>2021-07-08T14:34:37Z</time>
      </trkpt>
      <trkpt lat="48.19708" lon="-3.57956">
        <ele>224</ele>
        <time>2021-07-08T14:34:38Z</time>
      </trkpt>
      <trkpt lat="48.19707" lon="-3.57952">
        <ele>224</ele>
        <time>2021-07-08T14:34:39Z</time>
      </trkpt>
      <trkpt lat="48.19703" lon="-3.57937">
        <ele>224</ele>
        <time>2021-07-08T14:34:43Z</time>
      </trkpt>
      <trkpt lat="48.19698" lon="-3.57922">
        <ele>224</ele>
        <time>2021-07-08T14:34:46Z</time>
      </trkpt>
      <trkpt lat="48.19693" lon="-3.57908">
        <ele>225</ele>
        <time>2021-07-08T14:34:49Z</time>
      </trkpt>
      <trkpt lat="48.19686" lon="-3.5789">
        <ele>225</ele>
        <time>2021-07-08T14:34:53Z</time>
      </trkpt>
      <trkpt lat="48.19682" lon="-3.57876">
        <ele>225</ele>
        <time>2021-07-08T14:34:56Z</time>
      </trkpt>
      <trkpt lat="48.19678" lon="-3.57861">
        <ele>226</ele>
        <time>2021-07-08T14:35:00Z</time>
      </trkpt>
      <trkpt lat="48.19673" lon="-3.57845">
        <ele>226</ele>
        <time>2021-07-08T14:35:04Z</time>
      </trkpt>
      <trkpt lat="48.19666" lon="-3.57832">
        <ele>226</ele>
        <time>2021-07-08T14:35:07Z</time>
      </trkpt>
      <trkpt lat="48.19661" lon="-3.57815">
        <ele>226</ele>
        <time>2021-07-08T14:35:10Z</time>
      </trkpt>
      <trkpt lat="48.19655" lon="-3.578">
        <ele>226</ele>
        <time>2021-07-08T14:35:13Z</time>
      </trkpt>
      <trkpt lat="48.19649" lon="-3.57785">
        <ele>226</ele>
        <time>2021-07-08T14:35:16Z</time>
      </trkpt>
      <trkpt lat="48.19642" lon="-3.5777">
        <ele>227</ele>
        <time>2021-07-08T14:35:19Z</time>
      </trkpt>
      <trkpt lat="48.19638" lon="-3.57757">
        <ele>227</ele>
        <time>2021-07-08T14:35:22Z</time>
      </trkpt>
      <trkpt lat="48.19632" lon="-3.57743">
        <ele>227</ele>
        <time>2021-07-08T14:35:25Z</time>
      </trkpt>
      <trkpt lat="48.19628" lon="-3.57728">
        <ele>227</ele>
        <time>2021-07-08T14:35:29Z</time>
      </trkpt>
      <trkpt lat="48.19623" lon="-3.57714">
        <ele>228</ele>
        <time>2021-07-08T14:35:31Z</time>
      </trkpt>
      <trkpt lat="48.19621" lon="-3.5771">
        <ele>228</ele>
        <time>2021-07-08T14:35:32Z</time>
      </trkpt>
      <trkpt lat="48.19619" lon="-3.57705">
        <ele>228</ele>
        <time>2021-07-08T14:35:33Z</time>
      </trkpt>
      <trkpt lat="48.19617" lon="-3.577">
        <ele>228</ele>
        <time>2021-07-08T14:35:34Z</time>
      </trkpt>
      <trkpt lat="48.19616" lon="-3.57696">
        <ele>228</ele>
        <time>2021-07-08T14:35:35Z</time>
      </trkpt>
      <trkpt lat="48.19614" lon="-3.57692">
        <ele>228</ele>
        <time>2021-07-08T14:35:36Z</time>
      </trkpt>
      <trkpt lat="48.19612" lon="-3.57688">
        <ele>229</ele>
        <time>2021-07-08T14:35:37Z</time>
      </trkpt>
      <trkpt lat="48.19611" lon="-3.57684">
        <ele>229</ele>
        <time>2021-07-08T14:35:38Z</time>
      </trkpt>
      <trkpt lat="48.1961" lon="-3.57679">
        <ele>229</ele>
        <time>2021-07-08T14:35:39Z</time>
      </trkpt>
      <trkpt lat="48.19609" lon="-3.57675">
        <ele>229</ele>
        <time>2021-07-08T14:35:40Z</time>
      </trkpt>
      <trkpt lat="48.19607" lon="-3.57671">
        <ele>229</ele>
        <time>2021-07-08T14:35:41Z</time>
      </trkpt>
      <trkpt lat="48.19606" lon="-3.57666">
        <ele>229</ele>
        <time>2021-07-08T14:35:42Z</time>
      </trkpt>
      <trkpt lat="48.19605" lon="-3.57661">
        <ele>230</ele>
        <time>2021-07-08T14:35:43Z</time>
      </trkpt>
      <trkpt lat="48.19603" lon="-3.57657">
        <ele>230</ele>
        <time>2021-07-08T14:35:44Z</time>
      </trkpt>
      <trkpt lat="48.19602" lon="-3.57652">
        <ele>230</ele>
        <time>2021-07-08T14:35:45Z</time>
      </trkpt>
      <trkpt lat="48.196" lon="-3.57648">
        <ele>230</ele>
        <time>2021-07-08T14:35:46Z</time>
      </trkpt>
      <trkpt lat="48.19591" lon="-3.5763">
        <ele>230</ele>
        <time>2021-07-08T14:35:50Z</time>
      </trkpt>
      <trkpt lat="48.19586" lon="-3.57615">
        <ele>230</ele>
        <time>2021-07-08T14:35:54Z</time>
      </trkpt>
      <trkpt lat="48.19582" lon="-3.576">
        <ele>230</ele>
        <time>2021-07-08T14:35:58Z</time>
      </trkpt>
      <trkpt lat="48.19578" lon="-3.57585">
        <ele>230</ele>
        <time>2021-07-08T14:36:02Z</time>
      </trkpt>
      <trkpt lat="48.19573" lon="-3.5757">
        <ele>230</ele>
        <time>2021-07-08T14:36:06Z</time>
      </trkpt>
      <trkpt lat="48.19565" lon="-3.57555">
        <ele>230</ele>
        <time>2021-07-08T14:36:09Z</time>
      </trkpt>
      <trkpt lat="48.19559" lon="-3.57543">
        <ele>230</ele>
        <time>2021-07-08T14:36:11Z</time>
      </trkpt>
      <trkpt lat="48.19554" lon="-3.57531">
        <ele>230</ele>
        <time>2021-07-08T14:36:13Z</time>
      </trkpt>
      <trkpt lat="48.19552" lon="-3.57526">
        <ele>230</ele>
        <time>2021-07-08T14:36:14Z</time>
      </trkpt>
      <trkpt lat="48.1955" lon="-3.57521">
        <ele>230</ele>
        <time>2021-07-08T14:36:15Z</time>
      </trkpt>
      <trkpt lat="48.19548" lon="-3.57517">
        <ele>230</ele>
        <time>2021-07-08T14:36:16Z</time>
      </trkpt>
      <trkpt lat="48.19547" lon="-3.57512">
        <ele>230</ele>
        <time>2021-07-08T14:36:17Z</time>
      </trkpt>
      <trkpt lat="48.19545" lon="-3.57506">
        <ele>231</ele>
        <time>2021-07-08T14:36:18Z</time>
      </trkpt>
      <trkpt lat="48.19544" lon="-3.57501">
        <ele>231</ele>
        <time>2021-07-08T14:36:19Z</time>
      </trkpt>
      <trkpt lat="48.19543" lon="-3.57496">
        <ele>231</ele>
        <time>2021-07-08T14:36:20Z</time>
      </trkpt>
      <trkpt lat="48.19541" lon="-3.57491">
        <ele>231</ele>
        <time>2021-07-08T14:36:21Z</time>
      </trkpt>
      <trkpt lat="48.1954" lon="-3.57487">
        <ele>231</ele>
        <time>2021-07-08T14:36:22Z</time>
      </trkpt>
      <trkpt lat="48.19539" lon="-3.57482">
        <ele>231</ele>
        <time>2021-07-08T14:36:23Z</time>
      </trkpt>
      <trkpt lat="48.19537" lon="-3.57477">
        <ele>232</ele>
        <time>2021-07-08T14:36:24Z</time>
      </trkpt>
      <trkpt lat="48.19535" lon="-3.57472">
        <ele>232</ele>
        <time>2021-07-08T14:36:25Z</time>
      </trkpt>
      <trkpt lat="48.19534" lon="-3.57468">
        <ele>232</ele>
        <time>2021-07-08T14:36:26Z</time>
      </trkpt>
      <trkpt lat="48.19532" lon="-3.57463">
        <ele>232</ele>
        <time>2021-07-08T14:36:27Z</time>
      </trkpt>
      <trkpt lat="48.19531" lon="-3.57458">
        <ele>232</ele>
        <time>2021-07-08T14:36:28Z</time>
      </trkpt>
      <trkpt lat="48.19529" lon="-3.57454">
        <ele>232</ele>
        <time>2021-07-08T14:36:30Z</time>
      </trkpt>
      <trkpt lat="48.19527" lon="-3.57449">
        <ele>232</ele>
        <time>2021-07-08T14:36:30Z</time>
      </trkpt>
      <trkpt lat="48.19525" lon="-3.57445">
        <ele>232</ele>
        <time>2021-07-08T14:36:31Z</time>
      </trkpt>
      <trkpt lat="48.19524" lon="-3.5744">
        <ele>232</ele>
        <time>2021-07-08T14:36:32Z</time>
      </trkpt>
      <trkpt lat="48.19522" lon="-3.57435">
        <ele>232</ele>
        <time>2021-07-08T14:36:33Z</time>
      </trkpt>
      <trkpt lat="48.1952" lon="-3.5743">
        <ele>232</ele>
        <time>2021-07-08T14:36:34Z</time>
      </trkpt>
      <trkpt lat="48.19519" lon="-3.57426">
        <ele>232</ele>
        <time>2021-07-08T14:36:35Z</time>
      </trkpt>
      <trkpt lat="48.19517" lon="-3.57421">
        <ele>232</ele>
        <time>2021-07-08T14:36:36Z</time>
      </trkpt>
      <trkpt lat="48.19516" lon="-3.57417">
        <ele>232</ele>
        <time>2021-07-08T14:36:37Z</time>
      </trkpt>
      <trkpt lat="48.19514" lon="-3.57412">
        <ele>232</ele>
        <time>2021-07-08T14:36:38Z</time>
      </trkpt>
      <trkpt lat="48.19513" lon="-3.57408">
        <ele>233</ele>
        <time>2021-07-08T14:36:39Z</time>
      </trkpt>
      <trkpt lat="48.19511" lon="-3.57403">
        <ele>233</ele>
        <time>2021-07-08T14:36:40Z</time>
      </trkpt>
      <trkpt lat="48.19509" lon="-3.57399">
        <ele>233</ele>
        <time>2021-07-08T14:36:41Z</time>
      </trkpt>
      <trkpt lat="48.19508" lon="-3.57394">
        <ele>233</ele>
        <time>2021-07-08T14:36:42Z</time>
      </trkpt>
      <trkpt lat="48.19506" lon="-3.57389">
        <ele>233</ele>
        <time>2021-07-08T14:36:43Z</time>
      </trkpt>
      <trkpt lat="48.19504" lon="-3.57384">
        <ele>233</ele>
        <time>2021-07-08T14:36:44Z</time>
      </trkpt>
      <trkpt lat="48.19502" lon="-3.57379">
        <ele>233</ele>
        <time>2021-07-08T14:36:45Z</time>
      </trkpt>
      <trkpt lat="48.19499" lon="-3.5737">
        <ele>233</ele>
        <time>2021-07-08T14:36:47Z</time>
      </trkpt>
      <trkpt lat="48.19497" lon="-3.57365">
        <ele>233</ele>
        <time>2021-07-08T14:36:48Z</time>
      </trkpt>
      <trkpt lat="48.19495" lon="-3.5736">
        <ele>233</ele>
        <time>2021-07-08T14:36:49Z</time>
      </trkpt>
      <trkpt lat="48.19493" lon="-3.57355">
        <ele>233</ele>
        <time>2021-07-08T14:36:50Z</time>
      </trkpt>
      <trkpt lat="48.19492" lon="-3.5735">
        <ele>233</ele>
        <time>2021-07-08T14:36:51Z</time>
      </trkpt>
      <trkpt lat="48.1949" lon="-3.57345">
        <ele>233</ele>
        <time>2021-07-08T14:36:52Z</time>
      </trkpt>
      <trkpt lat="48.19488" lon="-3.5734">
        <ele>233</ele>
        <time>2021-07-08T14:36:54Z</time>
      </trkpt>
      <trkpt lat="48.19486" lon="-3.57336">
        <ele>233</ele>
        <time>2021-07-08T14:36:55Z</time>
      </trkpt>
      <trkpt lat="48.19485" lon="-3.57331">
        <ele>233</ele>
        <time>2021-07-08T14:36:55Z</time>
      </trkpt>
      <trkpt lat="48.19483" lon="-3.57327">
        <ele>234</ele>
        <time>2021-07-08T14:36:56Z</time>
      </trkpt>
      <trkpt lat="48.19481" lon="-3.57322">
        <ele>234</ele>
        <time>2021-07-08T14:36:57Z</time>
      </trkpt>
      <trkpt lat="48.19479" lon="-3.57318">
        <ele>234</ele>
        <time>2021-07-08T14:36:58Z</time>
      </trkpt>
      <trkpt lat="48.19477" lon="-3.57313">
        <ele>234</ele>
        <time>2021-07-08T14:36:59Z</time>
      </trkpt>
      <trkpt lat="48.19476" lon="-3.57309">
        <ele>234</ele>
        <time>2021-07-08T14:37:00Z</time>
      </trkpt>
      <trkpt lat="48.19474" lon="-3.57305">
        <ele>234</ele>
        <time>2021-07-08T14:37:01Z</time>
      </trkpt>
      <trkpt lat="48.19471" lon="-3.57301">
        <ele>234</ele>
        <time>2021-07-08T14:37:02Z</time>
      </trkpt>
      <trkpt lat="48.19469" lon="-3.57297">
        <ele>234</ele>
        <time>2021-07-08T14:37:03Z</time>
      </trkpt>
      <trkpt lat="48.19466" lon="-3.57293">
        <ele>234</ele>
        <time>2021-07-08T14:37:04Z</time>
      </trkpt>
      <trkpt lat="48.19464" lon="-3.57288">
        <ele>235</ele>
        <time>2021-07-08T14:37:06Z</time>
      </trkpt>
      <trkpt lat="48.19461" lon="-3.57284">
        <ele>235</ele>
        <time>2021-07-08T14:37:06Z</time>
      </trkpt>
      <trkpt lat="48.19459" lon="-3.5728">
        <ele>235</ele>
        <time>2021-07-08T14:37:08Z</time>
      </trkpt>
      <trkpt lat="48.19456" lon="-3.57276">
        <ele>235</ele>
        <time>2021-07-08T14:37:08Z</time>
      </trkpt>
      <trkpt lat="48.19454" lon="-3.57272">
        <ele>235</ele>
        <time>2021-07-08T14:37:09Z</time>
      </trkpt>
      <trkpt lat="48.19451" lon="-3.57268">
        <ele>235</ele>
        <time>2021-07-08T14:37:10Z</time>
      </trkpt>
      <trkpt lat="48.19449" lon="-3.57264">
        <ele>235</ele>
        <time>2021-07-08T14:37:11Z</time>
      </trkpt>
      <trkpt lat="48.19446" lon="-3.5726">
        <ele>235</ele>
        <time>2021-07-08T14:37:12Z</time>
      </trkpt>
      <trkpt lat="48.19443" lon="-3.57256">
        <ele>235</ele>
        <time>2021-07-08T14:37:13Z</time>
      </trkpt>
      <trkpt lat="48.19441" lon="-3.57252">
        <ele>235</ele>
        <time>2021-07-08T14:37:14Z</time>
      </trkpt>
      <trkpt lat="48.19438" lon="-3.57249">
        <ele>235</ele>
        <time>2021-07-08T14:37:15Z</time>
      </trkpt>
      <trkpt lat="48.19435" lon="-3.57245">
        <ele>235</ele>
        <time>2021-07-08T14:37:16Z</time>
      </trkpt>
      <trkpt lat="48.19432" lon="-3.57242">
        <ele>235</ele>
        <time>2021-07-08T14:37:17Z</time>
      </trkpt>
      <trkpt lat="48.1943" lon="-3.57238">
        <ele>235</ele>
        <time>2021-07-08T14:37:18Z</time>
      </trkpt>
      <trkpt lat="48.19427" lon="-3.57235">
        <ele>235</ele>
        <time>2021-07-08T14:37:19Z</time>
      </trkpt>
      <trkpt lat="48.19424" lon="-3.57232">
        <ele>235</ele>
        <time>2021-07-08T14:37:20Z</time>
      </trkpt>
      <trkpt lat="48.19421" lon="-3.57228">
        <ele>235</ele>
        <time>2021-07-08T14:37:21Z</time>
      </trkpt>
      <trkpt lat="48.19418" lon="-3.57225">
        <ele>235</ele>
        <time>2021-07-08T14:37:22Z</time>
      </trkpt>
      <trkpt lat="48.19415" lon="-3.57222">
        <ele>235</ele>
        <time>2021-07-08T14:37:23Z</time>
      </trkpt>
      <trkpt lat="48.19412" lon="-3.57219">
        <ele>235</ele>
        <time>2021-07-08T14:37:24Z</time>
      </trkpt>
      <trkpt lat="48.19409" lon="-3.57216">
        <ele>235</ele>
        <time>2021-07-08T14:37:25Z</time>
      </trkpt>
      <trkpt lat="48.19406" lon="-3.57212">
        <ele>235</ele>
        <time>2021-07-08T14:37:26Z</time>
      </trkpt>
      <trkpt lat="48.19403" lon="-3.57209">
        <ele>235</ele>
        <time>2021-07-08T14:37:27Z</time>
      </trkpt>
      <trkpt lat="48.19399" lon="-3.57206">
        <ele>236</ele>
        <time>2021-07-08T14:37:28Z</time>
      </trkpt>
      <trkpt lat="48.19396" lon="-3.57203">
        <ele>236</ele>
        <time>2021-07-08T14:37:29Z</time>
      </trkpt>
      <trkpt lat="48.19393" lon="-3.572">
        <ele>236</ele>
        <time>2021-07-08T14:37:30Z</time>
      </trkpt>
      <trkpt lat="48.19389" lon="-3.57197">
        <ele>236</ele>
        <time>2021-07-08T14:37:31Z</time>
      </trkpt>
      <trkpt lat="48.19386" lon="-3.57195">
        <ele>236</ele>
        <time>2021-07-08T14:37:32Z</time>
      </trkpt>
      <trkpt lat="48.19383" lon="-3.57192">
        <ele>236</ele>
        <time>2021-07-08T14:37:33Z</time>
      </trkpt>
      <trkpt lat="48.19379" lon="-3.5719">
        <ele>236</ele>
        <time>2021-07-08T14:37:34Z</time>
      </trkpt>
      <trkpt lat="48.19376" lon="-3.57187">
        <ele>236</ele>
        <time>2021-07-08T14:37:35Z</time>
      </trkpt>
      <trkpt lat="48.19372" lon="-3.57185">
        <ele>236</ele>
        <time>2021-07-08T14:37:36Z</time>
      </trkpt>
      <trkpt lat="48.19369" lon="-3.57182">
        <ele>236</ele>
        <time>2021-07-08T14:37:37Z</time>
      </trkpt>
      <trkpt lat="48.19365" lon="-3.57179">
        <ele>236</ele>
        <time>2021-07-08T14:37:38Z</time>
      </trkpt>
      <trkpt lat="48.19361" lon="-3.57177">
        <ele>236</ele>
        <time>2021-07-08T14:37:39Z</time>
      </trkpt>
      <trkpt lat="48.19358" lon="-3.57174">
        <ele>236</ele>
        <time>2021-07-08T14:37:40Z</time>
      </trkpt>
      <trkpt lat="48.19354" lon="-3.57171">
        <ele>236</ele>
        <time>2021-07-08T14:37:41Z</time>
      </trkpt>
      <trkpt lat="48.1935" lon="-3.57168">
        <ele>236</ele>
        <time>2021-07-08T14:37:42Z</time>
      </trkpt>
      <trkpt lat="48.19346" lon="-3.57165">
        <ele>236</ele>
        <time>2021-07-08T14:37:44Z</time>
      </trkpt>
      <trkpt lat="48.19342" lon="-3.57162">
        <ele>236</ele>
        <time>2021-07-08T14:37:45Z</time>
      </trkpt>
      <trkpt lat="48.19339" lon="-3.57159">
        <ele>236</ele>
        <time>2021-07-08T14:37:45Z</time>
      </trkpt>
      <trkpt lat="48.19335" lon="-3.57157">
        <ele>236</ele>
        <time>2021-07-08T14:37:46Z</time>
      </trkpt>
      <trkpt lat="48.19331" lon="-3.57155">
        <ele>237</ele>
        <time>2021-07-08T14:37:47Z</time>
      </trkpt>
      <trkpt lat="48.19327" lon="-3.57152">
        <ele>237</ele>
        <time>2021-07-08T14:37:48Z</time>
      </trkpt>
      <trkpt lat="48.19318" lon="-3.57146">
        <ele>237</ele>
        <time>2021-07-08T14:37:51Z</time>
      </trkpt>
      <trkpt lat="48.19307" lon="-3.57139">
        <ele>237</ele>
        <time>2021-07-08T14:37:54Z</time>
      </trkpt>
      <trkpt lat="48.19295" lon="-3.57128">
        <ele>237</ele>
        <time>2021-07-08T14:37:57Z</time>
      </trkpt>
      <trkpt lat="48.19287" lon="-3.57123">
        <ele>237</ele>
        <time>2021-07-08T14:37:59Z</time>
      </trkpt>
      <trkpt lat="48.19277" lon="-3.57118">
        <ele>237</ele>
        <time>2021-07-08T14:38:01Z</time>
      </trkpt>
      <trkpt lat="48.19269" lon="-3.57114">
        <ele>236</ele>
        <time>2021-07-08T14:38:03Z</time>
      </trkpt>
      <trkpt lat="48.1926" lon="-3.57109">
        <ele>237</ele>
        <time>2021-07-08T14:38:05Z</time>
      </trkpt>
      <trkpt lat="48.19252" lon="-3.57103">
        <ele>237</ele>
        <time>2021-07-08T14:38:07Z</time>
      </trkpt>
      <trkpt lat="48.19244" lon="-3.571">
        <ele>237</ele>
        <time>2021-07-08T14:38:09Z</time>
      </trkpt>
      <trkpt lat="48.19241" lon="-3.57098">
        <ele>237</ele>
        <time>2021-07-08T14:38:10Z</time>
      </trkpt>
      <trkpt lat="48.1924" lon="-3.57095">
        <ele>237</ele>
        <time>2021-07-08T14:38:20Z</time>
      </trkpt>
      <trkpt lat="48.19235" lon="-3.57087">
        <ele>237</ele>
        <time>2021-07-08T14:43:17Z</time>
      </trkpt>
      <trkpt lat="48.19231" lon="-3.57083">
        <ele>237</ele>
        <time>2021-07-08T14:43:18Z</time>
      </trkpt>
      <trkpt lat="48.19229" lon="-3.57082">
        <ele>237</ele>
        <time>2021-07-08T14:43:19Z</time>
      </trkpt>
      <trkpt lat="48.19226" lon="-3.5708">
        <ele>237</ele>
        <time>2021-07-08T14:43:20Z</time>
      </trkpt>
      <trkpt lat="48.19224" lon="-3.57077">
        <ele>237</ele>
        <time>2021-07-08T14:43:21Z</time>
      </trkpt>
      <trkpt lat="48.19222" lon="-3.57075">
        <ele>237</ele>
        <time>2021-07-08T14:43:22Z</time>
      </trkpt>
      <trkpt lat="48.1922" lon="-3.57072">
        <ele>237</ele>
        <time>2021-07-08T14:43:23Z</time>
      </trkpt>
      <trkpt lat="48.19217" lon="-3.57069">
        <ele>237</ele>
        <time>2021-07-08T14:43:24Z</time>
      </trkpt>
      <trkpt lat="48.19214" lon="-3.57067">
        <ele>237</ele>
        <time>2021-07-08T14:43:25Z</time>
      </trkpt>
      <trkpt lat="48.19211" lon="-3.57064">
        <ele>237</ele>
        <time>2021-07-08T14:43:26Z</time>
      </trkpt>
      <trkpt lat="48.19209" lon="-3.57061">
        <ele>237</ele>
        <time>2021-07-08T14:43:27Z</time>
      </trkpt>
      <trkpt lat="48.19206" lon="-3.57058">
        <ele>237</ele>
        <time>2021-07-08T14:43:28Z</time>
      </trkpt>
      <trkpt lat="48.19203" lon="-3.57055">
        <ele>237</ele>
        <time>2021-07-08T14:43:29Z</time>
      </trkpt>
      <trkpt lat="48.192" lon="-3.57052">
        <ele>237</ele>
        <time>2021-07-08T14:43:30Z</time>
      </trkpt>
      <trkpt lat="48.19198" lon="-3.57048">
        <ele>238</ele>
        <time>2021-07-08T14:43:31Z</time>
      </trkpt>
      <trkpt lat="48.19195" lon="-3.57045">
        <ele>238</ele>
        <time>2021-07-08T14:43:32Z</time>
      </trkpt>
      <trkpt lat="48.19192" lon="-3.57041">
        <ele>238</ele>
        <time>2021-07-08T14:43:33Z</time>
      </trkpt>
      <trkpt lat="48.19188" lon="-3.57038">
        <ele>238</ele>
        <time>2021-07-08T14:43:34Z</time>
      </trkpt>
      <trkpt lat="48.19185" lon="-3.57035">
        <ele>238</ele>
        <time>2021-07-08T14:43:35Z</time>
      </trkpt>
      <trkpt lat="48.19182" lon="-3.57032">
        <ele>238</ele>
        <time>2021-07-08T14:43:36Z</time>
      </trkpt>
      <trkpt lat="48.19179" lon="-3.57028">
        <ele>238</ele>
        <time>2021-07-08T14:43:37Z</time>
      </trkpt>
      <trkpt lat="48.19176" lon="-3.57025">
        <ele>238</ele>
        <time>2021-07-08T14:43:38Z</time>
      </trkpt>
      <trkpt lat="48.19173" lon="-3.57022">
        <ele>238</ele>
        <time>2021-07-08T14:43:39Z</time>
      </trkpt>
      <trkpt lat="48.1917" lon="-3.57019">
        <ele>238</ele>
        <time>2021-07-08T14:43:40Z</time>
      </trkpt>
      <trkpt lat="48.19167" lon="-3.57016">
        <ele>238</ele>
        <time>2021-07-08T14:43:41Z</time>
      </trkpt>
      <trkpt lat="48.19164" lon="-3.57012">
        <ele>238</ele>
        <time>2021-07-08T14:43:42Z</time>
      </trkpt>
      <trkpt lat="48.19161" lon="-3.57009">
        <ele>238</ele>
        <time>2021-07-08T14:43:43Z</time>
      </trkpt>
      <trkpt lat="48.19158" lon="-3.57006">
        <ele>238</ele>
        <time>2021-07-08T14:43:45Z</time>
      </trkpt>
      <trkpt lat="48.19155" lon="-3.57003">
        <ele>238</ele>
        <time>2021-07-08T14:43:46Z</time>
      </trkpt>
      <trkpt lat="48.19152" lon="-3.57">
        <ele>238</ele>
        <time>2021-07-08T14:43:46Z</time>
      </trkpt>
      <trkpt lat="48.19149" lon="-3.56996">
        <ele>238</ele>
        <time>2021-07-08T14:43:47Z</time>
      </trkpt>
      <trkpt lat="48.19146" lon="-3.56993">
        <ele>238</ele>
        <time>2021-07-08T14:43:48Z</time>
      </trkpt>
      <trkpt lat="48.19143" lon="-3.56989">
        <ele>238</ele>
        <time>2021-07-08T14:43:49Z</time>
      </trkpt>
      <trkpt lat="48.1914" lon="-3.56985">
        <ele>238</ele>
        <time>2021-07-08T14:43:50Z</time>
      </trkpt>
      <trkpt lat="48.19137" lon="-3.56981">
        <ele>238</ele>
        <time>2021-07-08T14:43:51Z</time>
      </trkpt>
      <trkpt lat="48.19135" lon="-3.56977">
        <ele>238</ele>
        <time>2021-07-08T14:43:52Z</time>
      </trkpt>
      <trkpt lat="48.19132" lon="-3.56974">
        <ele>238</ele>
        <time>2021-07-08T14:43:53Z</time>
      </trkpt>
      <trkpt lat="48.19129" lon="-3.5697">
        <ele>238</ele>
        <time>2021-07-08T14:43:54Z</time>
      </trkpt>
      <trkpt lat="48.19127" lon="-3.56967">
        <ele>238</ele>
        <time>2021-07-08T14:43:55Z</time>
      </trkpt>
      <trkpt lat="48.19124" lon="-3.56963">
        <ele>238</ele>
        <time>2021-07-08T14:43:56Z</time>
      </trkpt>
      <trkpt lat="48.19122" lon="-3.56959">
        <ele>238</ele>
        <time>2021-07-08T14:43:57Z</time>
      </trkpt>
      <trkpt lat="48.19119" lon="-3.56955">
        <ele>238</ele>
        <time>2021-07-08T14:43:58Z</time>
      </trkpt>
      <trkpt lat="48.19116" lon="-3.56951">
        <ele>238</ele>
        <time>2021-07-08T14:43:59Z</time>
      </trkpt>
      <trkpt lat="48.19114" lon="-3.56947">
        <ele>238</ele>
        <time>2021-07-08T14:44:00Z</time>
      </trkpt>
      <trkpt lat="48.19111" lon="-3.56943">
        <ele>238</ele>
        <time>2021-07-08T14:44:01Z</time>
      </trkpt>
      <trkpt lat="48.19108" lon="-3.56939">
        <ele>237</ele>
        <time>2021-07-08T14:44:02Z</time>
      </trkpt>
      <trkpt lat="48.19106" lon="-3.56935">
        <ele>237</ele>
        <time>2021-07-08T14:44:03Z</time>
      </trkpt>
      <trkpt lat="48.19104" lon="-3.56931">
        <ele>237</ele>
        <time>2021-07-08T14:44:04Z</time>
      </trkpt>
      <trkpt lat="48.19101" lon="-3.56927">
        <ele>237</ele>
        <time>2021-07-08T14:44:05Z</time>
      </trkpt>
      <trkpt lat="48.19099" lon="-3.56924">
        <ele>237</ele>
        <time>2021-07-08T14:44:06Z</time>
      </trkpt>
      <trkpt lat="48.19096" lon="-3.56921">
        <ele>237</ele>
        <time>2021-07-08T14:44:07Z</time>
      </trkpt>
      <trkpt lat="48.19094" lon="-3.56917">
        <ele>237</ele>
        <time>2021-07-08T14:44:08Z</time>
      </trkpt>
      <trkpt lat="48.19091" lon="-3.56913">
        <ele>237</ele>
        <time>2021-07-08T14:44:09Z</time>
      </trkpt>
      <trkpt lat="48.19089" lon="-3.5691">
        <ele>238</ele>
        <time>2021-07-08T14:44:10Z</time>
      </trkpt>
      <trkpt lat="48.19086" lon="-3.56906">
        <ele>238</ele>
        <time>2021-07-08T14:44:11Z</time>
      </trkpt>
      <trkpt lat="48.19084" lon="-3.56902">
        <ele>238</ele>
        <time>2021-07-08T14:44:12Z</time>
      </trkpt>
      <trkpt lat="48.19082" lon="-3.56899">
        <ele>238</ele>
        <time>2021-07-08T14:44:13Z</time>
      </trkpt>
      <trkpt lat="48.19077" lon="-3.56892">
        <ele>238</ele>
        <time>2021-07-08T14:44:15Z</time>
      </trkpt>
      <trkpt lat="48.19075" lon="-3.56889">
        <ele>238</ele>
        <time>2021-07-08T14:44:16Z</time>
      </trkpt>
      <trkpt lat="48.19072" lon="-3.56885">
        <ele>238</ele>
        <time>2021-07-08T14:44:17Z</time>
      </trkpt>
      <trkpt lat="48.19069" lon="-3.56882">
        <ele>239</ele>
        <time>2021-07-08T14:44:18Z</time>
      </trkpt>
      <trkpt lat="48.19067" lon="-3.56878">
        <ele>239</ele>
        <time>2021-07-08T14:44:19Z</time>
      </trkpt>
      <trkpt lat="48.19064" lon="-3.56875">
        <ele>239</ele>
        <time>2021-07-08T14:44:20Z</time>
      </trkpt>
      <trkpt lat="48.19061" lon="-3.56871">
        <ele>239</ele>
        <time>2021-07-08T14:44:21Z</time>
      </trkpt>
      <trkpt lat="48.19058" lon="-3.56867">
        <ele>239</ele>
        <time>2021-07-08T14:44:22Z</time>
      </trkpt>
      <trkpt lat="48.19055" lon="-3.56864">
        <ele>239</ele>
        <time>2021-07-08T14:44:23Z</time>
      </trkpt>
      <trkpt lat="48.19052" lon="-3.5686">
        <ele>239</ele>
        <time>2021-07-08T14:44:24Z</time>
      </trkpt>
      <trkpt lat="48.19048" lon="-3.56858">
        <ele>239</ele>
        <time>2021-07-08T14:44:25Z</time>
      </trkpt>
      <trkpt lat="48.19044" lon="-3.56855">
        <ele>239</ele>
        <time>2021-07-08T14:44:27Z</time>
      </trkpt>
      <trkpt lat="48.19041" lon="-3.56852">
        <ele>239</ele>
        <time>2021-07-08T14:44:27Z</time>
      </trkpt>
      <trkpt lat="48.19038" lon="-3.5685">
        <ele>239</ele>
        <time>2021-07-08T14:44:28Z</time>
      </trkpt>
      <trkpt lat="48.19035" lon="-3.56847">
        <ele>239</ele>
        <time>2021-07-08T14:44:29Z</time>
      </trkpt>
      <trkpt lat="48.19031" lon="-3.56845">
        <ele>239</ele>
        <time>2021-07-08T14:44:30Z</time>
      </trkpt>
      <trkpt lat="48.19027" lon="-3.56843">
        <ele>239</ele>
        <time>2021-07-08T14:44:31Z</time>
      </trkpt>
      <trkpt lat="48.19023" lon="-3.56841">
        <ele>239</ele>
        <time>2021-07-08T14:44:32Z</time>
      </trkpt>
      <trkpt lat="48.19019" lon="-3.56838">
        <ele>239</ele>
        <time>2021-07-08T14:44:33Z</time>
      </trkpt>
      <trkpt lat="48.19015" lon="-3.56836">
        <ele>239</ele>
        <time>2021-07-08T14:44:34Z</time>
      </trkpt>
      <trkpt lat="48.19012" lon="-3.56835">
        <ele>239</ele>
        <time>2021-07-08T14:44:35Z</time>
      </trkpt>
      <trkpt lat="48.19008" lon="-3.56833">
        <ele>239</ele>
        <time>2021-07-08T14:44:36Z</time>
      </trkpt>
      <trkpt lat="48.19004" lon="-3.56831">
        <ele>239</ele>
        <time>2021-07-08T14:44:37Z</time>
      </trkpt>
      <trkpt lat="48.19" lon="-3.56829">
        <ele>239</ele>
        <time>2021-07-08T14:44:38Z</time>
      </trkpt>
      <trkpt lat="48.18996" lon="-3.56828">
        <ele>239</ele>
        <time>2021-07-08T14:44:39Z</time>
      </trkpt>
      <trkpt lat="48.18992" lon="-3.56827">
        <ele>239</ele>
        <time>2021-07-08T14:44:40Z</time>
      </trkpt>
      <trkpt lat="48.18989" lon="-3.56826">
        <ele>239</ele>
        <time>2021-07-08T14:44:41Z</time>
      </trkpt>
      <trkpt lat="48.18985" lon="-3.56825">
        <ele>239</ele>
        <time>2021-07-08T14:44:42Z</time>
      </trkpt>
      <trkpt lat="48.18981" lon="-3.56825">
        <ele>239</ele>
        <time>2021-07-08T14:44:43Z</time>
      </trkpt>
      <trkpt lat="48.18977" lon="-3.56824">
        <ele>240</ele>
        <time>2021-07-08T14:44:44Z</time>
      </trkpt>
      <trkpt lat="48.18974" lon="-3.56824">
        <ele>240</ele>
        <time>2021-07-08T14:44:45Z</time>
      </trkpt>
      <trkpt lat="48.1897" lon="-3.56824">
        <ele>240</ele>
        <time>2021-07-08T14:44:46Z</time>
      </trkpt>
      <trkpt lat="48.18967" lon="-3.56824">
        <ele>240</ele>
        <time>2021-07-08T14:44:47Z</time>
      </trkpt>
      <trkpt lat="48.18963" lon="-3.56824">
        <ele>240</ele>
        <time>2021-07-08T14:44:48Z</time>
      </trkpt>
      <trkpt lat="48.1896" lon="-3.56825">
        <ele>240</ele>
        <time>2021-07-08T14:44:49Z</time>
      </trkpt>
      <trkpt lat="48.18956" lon="-3.56824">
        <ele>240</ele>
        <time>2021-07-08T14:44:50Z</time>
      </trkpt>
      <trkpt lat="48.18952" lon="-3.56823">
        <ele>240</ele>
        <time>2021-07-08T14:44:51Z</time>
      </trkpt>
      <trkpt lat="48.18948" lon="-3.56822">
        <ele>240</ele>
        <time>2021-07-08T14:44:53Z</time>
      </trkpt>
      <trkpt lat="48.18944" lon="-3.56823">
        <ele>240</ele>
        <time>2021-07-08T14:44:53Z</time>
      </trkpt>
      <trkpt lat="48.1894" lon="-3.56824">
        <ele>240</ele>
        <time>2021-07-08T14:44:54Z</time>
      </trkpt>
      <trkpt lat="48.18936" lon="-3.56824">
        <ele>240</ele>
        <time>2021-07-08T14:44:55Z</time>
      </trkpt>
      <trkpt lat="48.18932" lon="-3.56825">
        <ele>240</ele>
        <time>2021-07-08T14:44:56Z</time>
      </trkpt>
      <trkpt lat="48.18928" lon="-3.56826">
        <ele>240</ele>
        <time>2021-07-08T14:44:57Z</time>
      </trkpt>
      <trkpt lat="48.18924" lon="-3.56827">
        <ele>240</ele>
        <time>2021-07-08T14:44:58Z</time>
      </trkpt>
      <trkpt lat="48.1892" lon="-3.56829">
        <ele>240</ele>
        <time>2021-07-08T14:44:59Z</time>
      </trkpt>
      <trkpt lat="48.18916" lon="-3.56829">
        <ele>241</ele>
        <time>2021-07-08T14:45:00Z</time>
      </trkpt>
      <trkpt lat="48.18913" lon="-3.5683">
        <ele>241</ele>
        <time>2021-07-08T14:45:01Z</time>
      </trkpt>
      <trkpt lat="48.18909" lon="-3.56832">
        <ele>241</ele>
        <time>2021-07-08T14:45:02Z</time>
      </trkpt>
      <trkpt lat="48.18906" lon="-3.56833">
        <ele>241</ele>
        <time>2021-07-08T14:45:03Z</time>
      </trkpt>
      <trkpt lat="48.18902" lon="-3.56834">
        <ele>241</ele>
        <time>2021-07-08T14:45:04Z</time>
      </trkpt>
      <trkpt lat="48.18899" lon="-3.56836">
        <ele>241</ele>
        <time>2021-07-08T14:45:05Z</time>
      </trkpt>
      <trkpt lat="48.18896" lon="-3.56837">
        <ele>241</ele>
        <time>2021-07-08T14:45:06Z</time>
      </trkpt>
      <trkpt lat="48.18893" lon="-3.56838">
        <ele>241</ele>
        <time>2021-07-08T14:45:07Z</time>
      </trkpt>
      <trkpt lat="48.1889" lon="-3.56839">
        <ele>241</ele>
        <time>2021-07-08T14:45:08Z</time>
      </trkpt>
      <trkpt lat="48.18887" lon="-3.56841">
        <ele>241</ele>
        <time>2021-07-08T14:45:09Z</time>
      </trkpt>
      <trkpt lat="48.18884" lon="-3.56842">
        <ele>242</ele>
        <time>2021-07-08T14:45:10Z</time>
      </trkpt>
      <trkpt lat="48.1888" lon="-3.56842">
        <ele>242</ele>
        <time>2021-07-08T14:45:11Z</time>
      </trkpt>
      <trkpt lat="48.18876" lon="-3.56843">
        <ele>242</ele>
        <time>2021-07-08T14:45:12Z</time>
      </trkpt>
      <trkpt lat="48.18872" lon="-3.56844">
        <ele>242</ele>
        <time>2021-07-08T14:45:13Z</time>
      </trkpt>
      <trkpt lat="48.18868" lon="-3.56845">
        <ele>242</ele>
        <time>2021-07-08T14:45:14Z</time>
      </trkpt>
      <trkpt lat="48.18865" lon="-3.56846">
        <ele>242</ele>
        <time>2021-07-08T14:45:15Z</time>
      </trkpt>
      <trkpt lat="48.18861" lon="-3.56847">
        <ele>242</ele>
        <time>2021-07-08T14:45:16Z</time>
      </trkpt>
      <trkpt lat="48.18858" lon="-3.56847">
        <ele>242</ele>
        <time>2021-07-08T14:45:17Z</time>
      </trkpt>
      <trkpt lat="48.18854" lon="-3.56848">
        <ele>242</ele>
        <time>2021-07-08T14:45:18Z</time>
      </trkpt>
      <trkpt lat="48.18851" lon="-3.56848">
        <ele>242</ele>
        <time>2021-07-08T14:45:19Z</time>
      </trkpt>
      <trkpt lat="48.18847" lon="-3.56849">
        <ele>242</ele>
        <time>2021-07-08T14:45:20Z</time>
      </trkpt>
      <trkpt lat="48.18835" lon="-3.56849">
        <ele>242</ele>
        <time>2021-07-08T14:45:23Z</time>
      </trkpt>
      <trkpt lat="48.18824" lon="-3.56847">
        <ele>242</ele>
        <time>2021-07-08T14:45:26Z</time>
      </trkpt>
      <trkpt lat="48.18813" lon="-3.56844">
        <ele>242</ele>
        <time>2021-07-08T14:45:29Z</time>
      </trkpt>
      <trkpt lat="48.18809" lon="-3.56843">
        <ele>242</ele>
        <time>2021-07-08T14:45:30Z</time>
      </trkpt>
      <trkpt lat="48.18806" lon="-3.56842">
        <ele>242</ele>
        <time>2021-07-08T14:45:31Z</time>
      </trkpt>
      <trkpt lat="48.18796" lon="-3.5684">
        <ele>242</ele>
        <time>2021-07-08T14:45:34Z</time>
      </trkpt>
      <trkpt lat="48.18794" lon="-3.56839">
        <ele>242</ele>
        <time>2021-07-08T14:45:35Z</time>
      </trkpt>
      <trkpt lat="48.18791" lon="-3.56837">
        <ele>242</ele>
        <time>2021-07-08T14:45:36Z</time>
      </trkpt>
      <trkpt lat="48.1878" lon="-3.56831">
        <ele>243</ele>
        <time>2021-07-08T14:45:39Z</time>
      </trkpt>
      <trkpt lat="48.18777" lon="-3.56829">
        <ele>243</ele>
        <time>2021-07-08T14:45:40Z</time>
      </trkpt>
      <trkpt lat="48.18774" lon="-3.56828">
        <ele>243</ele>
        <time>2021-07-08T14:45:41Z</time>
      </trkpt>
      <trkpt lat="48.18771" lon="-3.56826">
        <ele>243</ele>
        <time>2021-07-08T14:45:42Z</time>
      </trkpt>
      <trkpt lat="48.18768" lon="-3.56824">
        <ele>243</ele>
        <time>2021-07-08T14:45:43Z</time>
      </trkpt>
      <trkpt lat="48.18765" lon="-3.56823">
        <ele>243</ele>
        <time>2021-07-08T14:45:44Z</time>
      </trkpt>
      <trkpt lat="48.18761" lon="-3.5682">
        <ele>243</ele>
        <time>2021-07-08T14:45:45Z</time>
      </trkpt>
      <trkpt lat="48.18758" lon="-3.56817">
        <ele>243</ele>
        <time>2021-07-08T14:45:46Z</time>
      </trkpt>
      <trkpt lat="48.18755" lon="-3.56815">
        <ele>243</ele>
        <time>2021-07-08T14:45:47Z</time>
      </trkpt>
      <trkpt lat="48.18752" lon="-3.56812">
        <ele>243</ele>
        <time>2021-07-08T14:45:48Z</time>
      </trkpt>
      <trkpt lat="48.18749" lon="-3.5681">
        <ele>244</ele>
        <time>2021-07-08T14:45:49Z</time>
      </trkpt>
      <trkpt lat="48.18747" lon="-3.56807">
        <ele>244</ele>
        <time>2021-07-08T14:45:50Z</time>
      </trkpt>
      <trkpt lat="48.18744" lon="-3.56804">
        <ele>244</ele>
        <time>2021-07-08T14:45:51Z</time>
      </trkpt>
      <trkpt lat="48.18741" lon="-3.56801">
        <ele>243</ele>
        <time>2021-07-08T14:45:52Z</time>
      </trkpt>
      <trkpt lat="48.18739" lon="-3.56798">
        <ele>244</ele>
        <time>2021-07-08T14:45:53Z</time>
      </trkpt>
      <trkpt lat="48.18737" lon="-3.56796">
        <ele>244</ele>
        <time>2021-07-08T14:45:54Z</time>
      </trkpt>
      <trkpt lat="48.18734" lon="-3.56794">
        <ele>244</ele>
        <time>2021-07-08T14:45:55Z</time>
      </trkpt>
      <trkpt lat="48.18732" lon="-3.56792">
        <ele>244</ele>
        <time>2021-07-08T14:45:56Z</time>
      </trkpt>
      <trkpt lat="48.1873" lon="-3.56789">
        <ele>244</ele>
        <time>2021-07-08T14:45:57Z</time>
      </trkpt>
      <trkpt lat="48.18731" lon="-3.56791">
        <ele>244</ele>
        <time>2021-07-08T14:46:06Z</time>
      </trkpt>
      <trkpt lat="48.18729" lon="-3.56786">
        <ele>245</ele>
        <time>2021-07-08T14:49:29Z</time>
      </trkpt>
      <trkpt lat="48.18727" lon="-3.56784">
        <ele>245</ele>
        <time>2021-07-08T14:49:31Z</time>
      </trkpt>
      <trkpt lat="48.18724" lon="-3.56781">
        <ele>245</ele>
        <time>2021-07-08T14:49:33Z</time>
      </trkpt>
      <trkpt lat="48.18723" lon="-3.56778">
        <ele>244</ele>
        <time>2021-07-08T14:49:34Z</time>
      </trkpt>
      <trkpt lat="48.1872" lon="-3.56775">
        <ele>244</ele>
        <time>2021-07-08T14:49:35Z</time>
      </trkpt>
      <trkpt lat="48.18718" lon="-3.56772">
        <ele>244</ele>
        <time>2021-07-08T14:49:36Z</time>
      </trkpt>
      <trkpt lat="48.18716" lon="-3.56768">
        <ele>244</ele>
        <time>2021-07-08T14:49:37Z</time>
      </trkpt>
      <trkpt lat="48.18713" lon="-3.56765">
        <ele>244</ele>
        <time>2021-07-08T14:49:38Z</time>
      </trkpt>
      <trkpt lat="48.18711" lon="-3.56763">
        <ele>245</ele>
        <time>2021-07-08T14:49:39Z</time>
      </trkpt>
      <trkpt lat="48.18709" lon="-3.56759">
        <ele>245</ele>
        <time>2021-07-08T14:49:40Z</time>
      </trkpt>
      <trkpt lat="48.18707" lon="-3.56757">
        <ele>245</ele>
        <time>2021-07-08T14:49:41Z</time>
      </trkpt>
      <trkpt lat="48.18705" lon="-3.56754">
        <ele>245</ele>
        <time>2021-07-08T14:49:42Z</time>
      </trkpt>
      <trkpt lat="48.18702" lon="-3.56751">
        <ele>245</ele>
        <time>2021-07-08T14:49:43Z</time>
      </trkpt>
      <trkpt lat="48.18699" lon="-3.56748">
        <ele>245</ele>
        <time>2021-07-08T14:49:44Z</time>
      </trkpt>
      <trkpt lat="48.18696" lon="-3.56745">
        <ele>245</ele>
        <time>2021-07-08T14:49:45Z</time>
      </trkpt>
      <trkpt lat="48.18693" lon="-3.56742">
        <ele>245</ele>
        <time>2021-07-08T14:49:46Z</time>
      </trkpt>
      <trkpt lat="48.1869" lon="-3.56739">
        <ele>245</ele>
        <time>2021-07-08T14:49:47Z</time>
      </trkpt>
      <trkpt lat="48.18687" lon="-3.56736">
        <ele>246</ele>
        <time>2021-07-08T14:49:48Z</time>
      </trkpt>
      <trkpt lat="48.18684" lon="-3.56733">
        <ele>246</ele>
        <time>2021-07-08T14:49:49Z</time>
      </trkpt>
      <trkpt lat="48.18682" lon="-3.5673">
        <ele>246</ele>
        <time>2021-07-08T14:49:50Z</time>
      </trkpt>
      <trkpt lat="48.18679" lon="-3.56727">
        <ele>246</ele>
        <time>2021-07-08T14:49:51Z</time>
      </trkpt>
      <trkpt lat="48.18677" lon="-3.56725">
        <ele>246</ele>
        <time>2021-07-08T14:49:52Z</time>
      </trkpt>
      <trkpt lat="48.18674" lon="-3.56722">
        <ele>246</ele>
        <time>2021-07-08T14:49:53Z</time>
      </trkpt>
      <trkpt lat="48.18672" lon="-3.5672">
        <ele>246</ele>
        <time>2021-07-08T14:49:54Z</time>
      </trkpt>
      <trkpt lat="48.18669" lon="-3.56717">
        <ele>246</ele>
        <time>2021-07-08T14:49:55Z</time>
      </trkpt>
      <trkpt lat="48.18666" lon="-3.56714">
        <ele>246</ele>
        <time>2021-07-08T14:49:56Z</time>
      </trkpt>
      <trkpt lat="48.18658" lon="-3.56702">
        <ele>247</ele>
        <time>2021-07-08T14:50:00Z</time>
      </trkpt>
      <trkpt lat="48.1865" lon="-3.56689">
        <ele>247</ele>
        <time>2021-07-08T14:50:04Z</time>
      </trkpt>
      <trkpt lat="48.1864" lon="-3.56678">
        <ele>247</ele>
        <time>2021-07-08T14:50:08Z</time>
      </trkpt>
      <trkpt lat="48.1863" lon="-3.56665">
        <ele>247</ele>
        <time>2021-07-08T14:50:10Z</time>
      </trkpt>
      <trkpt lat="48.18621" lon="-3.56655">
        <ele>247</ele>
        <time>2021-07-08T14:50:12Z</time>
      </trkpt>
      <trkpt lat="48.18612" lon="-3.56646">
        <ele>248</ele>
        <time>2021-07-08T14:50:15Z</time>
      </trkpt>
      <trkpt lat="48.18603" lon="-3.56637">
        <ele>248</ele>
        <time>2021-07-08T14:50:19Z</time>
      </trkpt>
      <trkpt lat="48.18594" lon="-3.56627">
        <ele>248</ele>
        <time>2021-07-08T14:50:22Z</time>
      </trkpt>
      <trkpt lat="48.18591" lon="-3.56621">
        <ele>248</ele>
        <time>2021-07-08T14:50:24Z</time>
      </trkpt>
      <trkpt lat="48.1859" lon="-3.56619">
        <ele>248</ele>
        <time>2021-07-08T14:50:25Z</time>
      </trkpt>
      <trkpt lat="48.18587" lon="-3.56617">
        <ele>248</ele>
        <time>2021-07-08T14:50:27Z</time>
      </trkpt>
      <trkpt lat="48.18585" lon="-3.56616">
        <ele>248</ele>
        <time>2021-07-08T14:50:27Z</time>
      </trkpt>
      <trkpt lat="48.18583" lon="-3.56615">
        <ele>248</ele>
        <time>2021-07-08T14:50:28Z</time>
      </trkpt>
      <trkpt lat="48.1858" lon="-3.56614">
        <ele>247</ele>
        <time>2021-07-08T14:50:29Z</time>
      </trkpt>
      <trkpt lat="48.18578" lon="-3.56613">
        <ele>247</ele>
        <time>2021-07-08T14:50:30Z</time>
      </trkpt>
      <trkpt lat="48.18577" lon="-3.56611">
        <ele>247</ele>
        <time>2021-07-08T14:50:33Z</time>
      </trkpt>
      <trkpt lat="48.18575" lon="-3.56607">
        <ele>247</ele>
        <time>2021-07-08T14:50:35Z</time>
      </trkpt>
      <trkpt lat="48.18574" lon="-3.56604">
        <ele>247</ele>
        <time>2021-07-08T14:50:36Z</time>
      </trkpt>
      <trkpt lat="48.18572" lon="-3.56601">
        <ele>247</ele>
        <time>2021-07-08T14:50:37Z</time>
      </trkpt>
      <trkpt lat="48.1857" lon="-3.56598">
        <ele>247</ele>
        <time>2021-07-08T14:50:38Z</time>
      </trkpt>
      <trkpt lat="48.18568" lon="-3.56595">
        <ele>247</ele>
        <time>2021-07-08T14:50:39Z</time>
      </trkpt>
      <trkpt lat="48.18567" lon="-3.56592">
        <ele>247</ele>
        <time>2021-07-08T14:50:40Z</time>
      </trkpt>
      <trkpt lat="48.18565" lon="-3.56588">
        <ele>247</ele>
        <time>2021-07-08T14:50:41Z</time>
      </trkpt>
      <trkpt lat="48.18563" lon="-3.56585">
        <ele>247</ele>
        <time>2021-07-08T14:50:42Z</time>
      </trkpt>
      <trkpt lat="48.18561" lon="-3.56583">
        <ele>247</ele>
        <time>2021-07-08T14:50:43Z</time>
      </trkpt>
      <trkpt lat="48.18559" lon="-3.56582">
        <ele>248</ele>
        <time>2021-07-08T14:50:44Z</time>
      </trkpt>
      <trkpt lat="48.18557" lon="-3.56582">
        <ele>248</ele>
        <time>2021-07-08T14:50:46Z</time>
      </trkpt>
      <trkpt lat="48.18555" lon="-3.5658">
        <ele>248</ele>
        <time>2021-07-08T14:50:48Z</time>
      </trkpt>
      <trkpt lat="48.18553" lon="-3.56576">
        <ele>248</ele>
        <time>2021-07-08T14:50:51Z</time>
      </trkpt>
      <trkpt lat="48.18552" lon="-3.56574">
        <ele>248</ele>
        <time>2021-07-08T14:50:51Z</time>
      </trkpt>
      <trkpt lat="48.1855" lon="-3.56572">
        <ele>248</ele>
        <time>2021-07-08T14:50:52Z</time>
      </trkpt>
      <trkpt lat="48.18548" lon="-3.5657">
        <ele>248</ele>
        <time>2021-07-08T14:50:53Z</time>
      </trkpt>
      <trkpt lat="48.18546" lon="-3.56568">
        <ele>248</ele>
        <time>2021-07-08T14:50:54Z</time>
      </trkpt>
      <trkpt lat="48.18544" lon="-3.56566">
        <ele>248</ele>
        <time>2021-07-08T14:50:55Z</time>
      </trkpt>
      <trkpt lat="48.18542" lon="-3.56563">
        <ele>248</ele>
        <time>2021-07-08T14:50:56Z</time>
      </trkpt>
      <trkpt lat="48.1854" lon="-3.5656">
        <ele>248</ele>
        <time>2021-07-08T14:50:57Z</time>
      </trkpt>
      <trkpt lat="48.18537" lon="-3.56556">
        <ele>248</ele>
        <time>2021-07-08T14:50:58Z</time>
      </trkpt>
      <trkpt lat="48.18534" lon="-3.56552">
        <ele>248</ele>
        <time>2021-07-08T14:50:59Z</time>
      </trkpt>
      <trkpt lat="48.18532" lon="-3.56548">
        <ele>248</ele>
        <time>2021-07-08T14:51:00Z</time>
      </trkpt>
      <trkpt lat="48.18529" lon="-3.56545">
        <ele>249</ele>
        <time>2021-07-08T14:51:01Z</time>
      </trkpt>
      <trkpt lat="48.18526" lon="-3.56541">
        <ele>249</ele>
        <time>2021-07-08T14:51:02Z</time>
      </trkpt>
      <trkpt lat="48.18523" lon="-3.56537">
        <ele>249</ele>
        <time>2021-07-08T14:51:03Z</time>
      </trkpt>
      <trkpt lat="48.18517" lon="-3.56528">
        <ele>249</ele>
        <time>2021-07-08T14:51:05Z</time>
      </trkpt>
      <trkpt lat="48.18514" lon="-3.56524">
        <ele>249</ele>
        <time>2021-07-08T14:51:06Z</time>
      </trkpt>
      <trkpt lat="48.18511" lon="-3.5652">
        <ele>250</ele>
        <time>2021-07-08T14:51:07Z</time>
      </trkpt>
      <trkpt lat="48.18508" lon="-3.56516">
        <ele>250</ele>
        <time>2021-07-08T14:51:09Z</time>
      </trkpt>
      <trkpt lat="48.18505" lon="-3.56512">
        <ele>250</ele>
        <time>2021-07-08T14:51:10Z</time>
      </trkpt>
      <trkpt lat="48.18502" lon="-3.56508">
        <ele>250</ele>
        <time>2021-07-08T14:51:10Z</time>
      </trkpt>
      <trkpt lat="48.18499" lon="-3.56504">
        <ele>250</ele>
        <time>2021-07-08T14:51:11Z</time>
      </trkpt>
      <trkpt lat="48.18496" lon="-3.565">
        <ele>250</ele>
        <time>2021-07-08T14:51:12Z</time>
      </trkpt>
      <trkpt lat="48.18494" lon="-3.56496">
        <ele>251</ele>
        <time>2021-07-08T14:51:13Z</time>
      </trkpt>
      <trkpt lat="48.18491" lon="-3.56492">
        <ele>251</ele>
        <time>2021-07-08T14:51:14Z</time>
      </trkpt>
      <trkpt lat="48.18489" lon="-3.56489">
        <ele>251</ele>
        <time>2021-07-08T14:51:15Z</time>
      </trkpt>
      <trkpt lat="48.18486" lon="-3.56485">
        <ele>251</ele>
        <time>2021-07-08T14:51:16Z</time>
      </trkpt>
      <trkpt lat="48.18483" lon="-3.56481">
        <ele>251</ele>
        <time>2021-07-08T14:51:17Z</time>
      </trkpt>
      <trkpt lat="48.1848" lon="-3.56477">
        <ele>251</ele>
        <time>2021-07-08T14:51:18Z</time>
      </trkpt>
      <trkpt lat="48.18477" lon="-3.56473">
        <ele>251</ele>
        <time>2021-07-08T14:51:19Z</time>
      </trkpt>
      <trkpt lat="48.18475" lon="-3.56469">
        <ele>251</ele>
        <time>2021-07-08T14:51:20Z</time>
      </trkpt>
      <trkpt lat="48.18472" lon="-3.56465">
        <ele>251</ele>
        <time>2021-07-08T14:51:21Z</time>
      </trkpt>
      <trkpt lat="48.18469" lon="-3.56461">
        <ele>251</ele>
        <time>2021-07-08T14:51:22Z</time>
      </trkpt>
      <trkpt lat="48.18466" lon="-3.56457">
        <ele>251</ele>
        <time>2021-07-08T14:51:24Z</time>
      </trkpt>
      <trkpt lat="48.18463" lon="-3.56453">
        <ele>251</ele>
        <time>2021-07-08T14:51:24Z</time>
      </trkpt>
      <trkpt lat="48.18461" lon="-3.56448">
        <ele>252</ele>
        <time>2021-07-08T14:51:25Z</time>
      </trkpt>
      <trkpt lat="48.18458" lon="-3.56444">
        <ele>252</ele>
        <time>2021-07-08T14:51:26Z</time>
      </trkpt>
      <trkpt lat="48.18455" lon="-3.5644">
        <ele>252</ele>
        <time>2021-07-08T14:51:27Z</time>
      </trkpt>
      <trkpt lat="48.18452" lon="-3.56436">
        <ele>252</ele>
        <time>2021-07-08T14:51:28Z</time>
      </trkpt>
      <trkpt lat="48.18449" lon="-3.56432">
        <ele>252</ele>
        <time>2021-07-08T14:51:29Z</time>
      </trkpt>
      <trkpt lat="48.18447" lon="-3.56428">
        <ele>252</ele>
        <time>2021-07-08T14:51:30Z</time>
      </trkpt>
      <trkpt lat="48.18444" lon="-3.56424">
        <ele>252</ele>
        <time>2021-07-08T14:51:31Z</time>
      </trkpt>
      <trkpt lat="48.18441" lon="-3.5642">
        <ele>252</ele>
        <time>2021-07-08T14:51:32Z</time>
      </trkpt>
      <trkpt lat="48.18438" lon="-3.56416">
        <ele>252</ele>
        <time>2021-07-08T14:51:33Z</time>
      </trkpt>
      <trkpt lat="48.18436" lon="-3.56413">
        <ele>252</ele>
        <time>2021-07-08T14:51:34Z</time>
      </trkpt>
      <trkpt lat="48.18433" lon="-3.56409">
        <ele>252</ele>
        <time>2021-07-08T14:51:35Z</time>
      </trkpt>
      <trkpt lat="48.1843" lon="-3.56405">
        <ele>253</ele>
        <time>2021-07-08T14:51:36Z</time>
      </trkpt>
      <trkpt lat="48.18427" lon="-3.56401">
        <ele>253</ele>
        <time>2021-07-08T14:51:37Z</time>
      </trkpt>
      <trkpt lat="48.18424" lon="-3.56397">
        <ele>253</ele>
        <time>2021-07-08T14:51:39Z</time>
      </trkpt>
      <trkpt lat="48.18421" lon="-3.56393">
        <ele>253</ele>
        <time>2021-07-08T14:51:39Z</time>
      </trkpt>
      <trkpt lat="48.18419" lon="-3.56388">
        <ele>253</ele>
        <time>2021-07-08T14:51:40Z</time>
      </trkpt>
      <trkpt lat="48.18416" lon="-3.56384">
        <ele>253</ele>
        <time>2021-07-08T14:51:41Z</time>
      </trkpt>
      <trkpt lat="48.18413" lon="-3.5638">
        <ele>253</ele>
        <time>2021-07-08T14:51:43Z</time>
      </trkpt>
      <trkpt lat="48.18411" lon="-3.56376">
        <ele>253</ele>
        <time>2021-07-08T14:51:43Z</time>
      </trkpt>
      <trkpt lat="48.18408" lon="-3.56373">
        <ele>253</ele>
        <time>2021-07-08T14:51:44Z</time>
      </trkpt>
      <trkpt lat="48.18405" lon="-3.56369">
        <ele>253</ele>
        <time>2021-07-08T14:51:45Z</time>
      </trkpt>
      <trkpt lat="48.18402" lon="-3.56365">
        <ele>253</ele>
        <time>2021-07-08T14:51:46Z</time>
      </trkpt>
      <trkpt lat="48.184" lon="-3.56361">
        <ele>253</ele>
        <time>2021-07-08T14:51:47Z</time>
      </trkpt>
      <trkpt lat="48.18397" lon="-3.56357">
        <ele>253</ele>
        <time>2021-07-08T14:51:48Z</time>
      </trkpt>
      <trkpt lat="48.18394" lon="-3.56353">
        <ele>253</ele>
        <time>2021-07-08T14:51:49Z</time>
      </trkpt>
      <trkpt lat="48.18391" lon="-3.56349">
        <ele>253</ele>
        <time>2021-07-08T14:51:50Z</time>
      </trkpt>
      <trkpt lat="48.18388" lon="-3.56344">
        <ele>254</ele>
        <time>2021-07-08T14:51:51Z</time>
      </trkpt>
      <trkpt lat="48.18385" lon="-3.5634">
        <ele>254</ele>
        <time>2021-07-08T14:51:52Z</time>
      </trkpt>
      <trkpt lat="48.18382" lon="-3.56336">
        <ele>254</ele>
        <time>2021-07-08T14:51:53Z</time>
      </trkpt>
      <trkpt lat="48.1838" lon="-3.56332">
        <ele>254</ele>
        <time>2021-07-08T14:51:54Z</time>
      </trkpt>
      <trkpt lat="48.18377" lon="-3.56328">
        <ele>253</ele>
        <time>2021-07-08T14:51:55Z</time>
      </trkpt>
      <trkpt lat="48.18374" lon="-3.56324">
        <ele>254</ele>
        <time>2021-07-08T14:51:56Z</time>
      </trkpt>
      <trkpt lat="48.18371" lon="-3.5632">
        <ele>254</ele>
        <time>2021-07-08T14:51:57Z</time>
      </trkpt>
      <trkpt lat="48.18368" lon="-3.56316">
        <ele>254</ele>
        <time>2021-07-08T14:51:58Z</time>
      </trkpt>
      <trkpt lat="48.18365" lon="-3.56312">
        <ele>254</ele>
        <time>2021-07-08T14:51:59Z</time>
      </trkpt>
      <trkpt lat="48.18362" lon="-3.56308">
        <ele>254</ele>
        <time>2021-07-08T14:52:00Z</time>
      </trkpt>
      <trkpt lat="48.18358" lon="-3.56305">
        <ele>254</ele>
        <time>2021-07-08T14:52:01Z</time>
      </trkpt>
      <trkpt lat="48.18355" lon="-3.56301">
        <ele>254</ele>
        <time>2021-07-08T14:52:02Z</time>
      </trkpt>
      <trkpt lat="48.18352" lon="-3.56298">
        <ele>254</ele>
        <time>2021-07-08T14:52:03Z</time>
      </trkpt>
      <trkpt lat="48.18349" lon="-3.56295">
        <ele>254</ele>
        <time>2021-07-08T14:52:04Z</time>
      </trkpt>
      <trkpt lat="48.18346" lon="-3.56293">
        <ele>254</ele>
        <time>2021-07-08T14:52:05Z</time>
      </trkpt>
      <trkpt lat="48.18343" lon="-3.56291">
        <ele>254</ele>
        <time>2021-07-08T14:52:06Z</time>
      </trkpt>
      <trkpt lat="48.1834" lon="-3.56289">
        <ele>254</ele>
        <time>2021-07-08T14:52:07Z</time>
      </trkpt>
      <trkpt lat="48.18338" lon="-3.56288">
        <ele>254</ele>
        <time>2021-07-08T14:52:08Z</time>
      </trkpt>
      <trkpt lat="48.18335" lon="-3.56286">
        <ele>254</ele>
        <time>2021-07-08T14:52:09Z</time>
      </trkpt>
      <trkpt lat="48.18332" lon="-3.56285">
        <ele>254</ele>
        <time>2021-07-08T14:52:10Z</time>
      </trkpt>
      <trkpt lat="48.18329" lon="-3.56284">
        <ele>254</ele>
        <time>2021-07-08T14:52:11Z</time>
      </trkpt>
      <trkpt lat="48.18326" lon="-3.56282">
        <ele>254</ele>
        <time>2021-07-08T14:52:12Z</time>
      </trkpt>
      <trkpt lat="48.18323" lon="-3.5628">
        <ele>255</ele>
        <time>2021-07-08T14:52:13Z</time>
      </trkpt>
      <trkpt lat="48.18321" lon="-3.56279">
        <ele>255</ele>
        <time>2021-07-08T14:52:14Z</time>
      </trkpt>
      <trkpt lat="48.18318" lon="-3.56277">
        <ele>255</ele>
        <time>2021-07-08T14:52:15Z</time>
      </trkpt>
      <trkpt lat="48.18316" lon="-3.56275">
        <ele>255</ele>
        <time>2021-07-08T14:52:16Z</time>
      </trkpt>
      <trkpt lat="48.18314" lon="-3.56274">
        <ele>255</ele>
        <time>2021-07-08T14:52:17Z</time>
      </trkpt>
      <trkpt lat="48.18303" lon="-3.56272">
        <ele>256</ele>
        <time>2021-07-08T14:52:21Z</time>
      </trkpt>
      <trkpt lat="48.183" lon="-3.56271">
        <ele>256</ele>
        <time>2021-07-08T14:52:22Z</time>
      </trkpt>
      <trkpt lat="48.18297" lon="-3.56271">
        <ele>256</ele>
        <time>2021-07-08T14:52:23Z</time>
      </trkpt>
      <trkpt lat="48.18293" lon="-3.5627">
        <ele>255</ele>
        <time>2021-07-08T14:52:24Z</time>
      </trkpt>
      <trkpt lat="48.1829" lon="-3.56269">
        <ele>256</ele>
        <time>2021-07-08T14:52:25Z</time>
      </trkpt>
      <trkpt lat="48.18286" lon="-3.56268">
        <ele>256</ele>
        <time>2021-07-08T14:52:26Z</time>
      </trkpt>
      <trkpt lat="48.18283" lon="-3.56268">
        <ele>256</ele>
        <time>2021-07-08T14:52:27Z</time>
      </trkpt>
      <trkpt lat="48.1828" lon="-3.56267">
        <ele>256</ele>
        <time>2021-07-08T14:52:28Z</time>
      </trkpt>
      <trkpt lat="48.18276" lon="-3.56267">
        <ele>256</ele>
        <time>2021-07-08T14:52:29Z</time>
      </trkpt>
      <trkpt lat="48.18273" lon="-3.56266">
        <ele>256</ele>
        <time>2021-07-08T14:52:30Z</time>
      </trkpt>
      <trkpt lat="48.18271" lon="-3.56265">
        <ele>256</ele>
        <time>2021-07-08T14:52:31Z</time>
      </trkpt>
      <trkpt lat="48.18268" lon="-3.56264">
        <ele>256</ele>
        <time>2021-07-08T14:52:32Z</time>
      </trkpt>
      <trkpt lat="48.18265" lon="-3.56264">
        <ele>256</ele>
        <time>2021-07-08T14:52:33Z</time>
      </trkpt>
      <trkpt lat="48.18262" lon="-3.56264">
        <ele>256</ele>
        <time>2021-07-08T14:52:34Z</time>
      </trkpt>
      <trkpt lat="48.18258" lon="-3.56264">
        <ele>256</ele>
        <time>2021-07-08T14:52:35Z</time>
      </trkpt>
      <trkpt lat="48.18254" lon="-3.56264">
        <ele>256</ele>
        <time>2021-07-08T14:52:36Z</time>
      </trkpt>
      <trkpt lat="48.1825" lon="-3.56264">
        <ele>257</ele>
        <time>2021-07-08T14:52:37Z</time>
      </trkpt>
      <trkpt lat="48.18247" lon="-3.56265">
        <ele>257</ele>
        <time>2021-07-08T14:52:38Z</time>
      </trkpt>
      <trkpt lat="48.1824" lon="-3.56267">
        <ele>257</ele>
        <time>2021-07-08T14:52:40Z</time>
      </trkpt>
      <trkpt lat="48.18236" lon="-3.56268">
        <ele>257</ele>
        <time>2021-07-08T14:52:41Z</time>
      </trkpt>
      <trkpt lat="48.18233" lon="-3.56269">
        <ele>257</ele>
        <time>2021-07-08T14:52:42Z</time>
      </trkpt>
      <trkpt lat="48.18229" lon="-3.56271">
        <ele>257</ele>
        <time>2021-07-08T14:52:43Z</time>
      </trkpt>
      <trkpt lat="48.18226" lon="-3.56272">
        <ele>257</ele>
        <time>2021-07-08T14:52:44Z</time>
      </trkpt>
      <trkpt lat="48.18222" lon="-3.56273">
        <ele>257</ele>
        <time>2021-07-08T14:52:45Z</time>
      </trkpt>
      <trkpt lat="48.18218" lon="-3.56274">
        <ele>257</ele>
        <time>2021-07-08T14:52:47Z</time>
      </trkpt>
      <trkpt lat="48.18214" lon="-3.56275">
        <ele>257</ele>
        <time>2021-07-08T14:52:47Z</time>
      </trkpt>
      <trkpt lat="48.18211" lon="-3.56276">
        <ele>257</ele>
        <time>2021-07-08T14:52:48Z</time>
      </trkpt>
      <trkpt lat="48.18207" lon="-3.56277">
        <ele>258</ele>
        <time>2021-07-08T14:52:49Z</time>
      </trkpt>
      <trkpt lat="48.18203" lon="-3.56278">
        <ele>258</ele>
        <time>2021-07-08T14:52:50Z</time>
      </trkpt>
      <trkpt lat="48.18192" lon="-3.5628">
        <ele>258</ele>
        <time>2021-07-08T14:52:53Z</time>
      </trkpt>
      <trkpt lat="48.18188" lon="-3.56282">
        <ele>258</ele>
        <time>2021-07-08T14:52:54Z</time>
      </trkpt>
      <trkpt lat="48.18181" lon="-3.56286">
        <ele>258</ele>
        <time>2021-07-08T14:52:56Z</time>
      </trkpt>
      <trkpt lat="48.18177" lon="-3.56288">
        <ele>259</ele>
        <time>2021-07-08T14:52:57Z</time>
      </trkpt>
      <trkpt lat="48.18174" lon="-3.5629">
        <ele>259</ele>
        <time>2021-07-08T14:52:59Z</time>
      </trkpt>
      <trkpt lat="48.1817" lon="-3.56292">
        <ele>259</ele>
        <time>2021-07-08T14:52:59Z</time>
      </trkpt>
      <trkpt lat="48.18167" lon="-3.56295">
        <ele>259</ele>
        <time>2021-07-08T14:53:00Z</time>
      </trkpt>
      <trkpt lat="48.18164" lon="-3.56298">
        <ele>259</ele>
        <time>2021-07-08T14:53:01Z</time>
      </trkpt>
      <trkpt lat="48.18162" lon="-3.56301">
        <ele>259</ele>
        <time>2021-07-08T14:53:02Z</time>
      </trkpt>
      <trkpt lat="48.18159" lon="-3.56303">
        <ele>258</ele>
        <time>2021-07-08T14:53:03Z</time>
      </trkpt>
      <trkpt lat="48.18156" lon="-3.56306">
        <ele>258</ele>
        <time>2021-07-08T14:53:04Z</time>
      </trkpt>
      <trkpt lat="48.18153" lon="-3.56309">
        <ele>259</ele>
        <time>2021-07-08T14:53:05Z</time>
      </trkpt>
      <trkpt lat="48.18151" lon="-3.56312">
        <ele>259</ele>
        <time>2021-07-08T14:53:06Z</time>
      </trkpt>
      <trkpt lat="48.18148" lon="-3.56315">
        <ele>259</ele>
        <time>2021-07-08T14:53:07Z</time>
      </trkpt>
      <trkpt lat="48.18145" lon="-3.56317">
        <ele>259</ele>
        <time>2021-07-08T14:53:08Z</time>
      </trkpt>
      <trkpt lat="48.18142" lon="-3.5632">
        <ele>259</ele>
        <time>2021-07-08T14:53:09Z</time>
      </trkpt>
      <trkpt lat="48.1814" lon="-3.56323">
        <ele>259</ele>
        <time>2021-07-08T14:53:10Z</time>
      </trkpt>
      <trkpt lat="48.18137" lon="-3.56326">
        <ele>259</ele>
        <time>2021-07-08T14:53:11Z</time>
      </trkpt>
      <trkpt lat="48.18134" lon="-3.56329">
        <ele>260</ele>
        <time>2021-07-08T14:53:12Z</time>
      </trkpt>
      <trkpt lat="48.18131" lon="-3.56332">
        <ele>260</ele>
        <time>2021-07-08T14:53:13Z</time>
      </trkpt>
      <trkpt lat="48.18128" lon="-3.56335">
        <ele>260</ele>
        <time>2021-07-08T14:53:14Z</time>
      </trkpt>
      <trkpt lat="48.18125" lon="-3.56337">
        <ele>260</ele>
        <time>2021-07-08T14:53:15Z</time>
      </trkpt>
      <trkpt lat="48.18122" lon="-3.5634">
        <ele>260</ele>
        <time>2021-07-08T14:53:16Z</time>
      </trkpt>
      <trkpt lat="48.18117" lon="-3.56346">
        <ele>260</ele>
        <time>2021-07-08T14:53:18Z</time>
      </trkpt>
      <trkpt lat="48.18114" lon="-3.56348">
        <ele>261</ele>
        <time>2021-07-08T14:53:19Z</time>
      </trkpt>
      <trkpt lat="48.18111" lon="-3.56351">
        <ele>261</ele>
        <time>2021-07-08T14:53:20Z</time>
      </trkpt>
      <trkpt lat="48.18108" lon="-3.56354">
        <ele>261</ele>
        <time>2021-07-08T14:53:21Z</time>
      </trkpt>
      <trkpt lat="48.18106" lon="-3.56357">
        <ele>261</ele>
        <time>2021-07-08T14:53:22Z</time>
      </trkpt>
      <trkpt lat="48.18103" lon="-3.5636">
        <ele>261</ele>
        <time>2021-07-08T14:53:23Z</time>
      </trkpt>
      <trkpt lat="48.18101" lon="-3.56363">
        <ele>261</ele>
        <time>2021-07-08T14:53:24Z</time>
      </trkpt>
      <trkpt lat="48.18098" lon="-3.56366">
        <ele>261</ele>
        <time>2021-07-08T14:53:25Z</time>
      </trkpt>
      <trkpt lat="48.18095" lon="-3.56369">
        <ele>261</ele>
        <time>2021-07-08T14:53:26Z</time>
      </trkpt>
      <trkpt lat="48.18093" lon="-3.56373">
        <ele>261</ele>
        <time>2021-07-08T14:53:27Z</time>
      </trkpt>
      <trkpt lat="48.1809" lon="-3.56377">
        <ele>261</ele>
        <time>2021-07-08T14:53:28Z</time>
      </trkpt>
      <trkpt lat="48.18088" lon="-3.5638">
        <ele>261</ele>
        <time>2021-07-08T14:53:29Z</time>
      </trkpt>
      <trkpt lat="48.18086" lon="-3.56383">
        <ele>261</ele>
        <time>2021-07-08T14:53:30Z</time>
      </trkpt>
      <trkpt lat="48.18083" lon="-3.56385">
        <ele>261</ele>
        <time>2021-07-08T14:53:31Z</time>
      </trkpt>
      <trkpt lat="48.18081" lon="-3.56388">
        <ele>261</ele>
        <time>2021-07-08T14:53:32Z</time>
      </trkpt>
      <trkpt lat="48.18078" lon="-3.56392">
        <ele>261</ele>
        <time>2021-07-08T14:53:33Z</time>
      </trkpt>
      <trkpt lat="48.18075" lon="-3.56395">
        <ele>261</ele>
        <time>2021-07-08T14:53:34Z</time>
      </trkpt>
      <trkpt lat="48.18067" lon="-3.56406">
        <ele>261</ele>
        <time>2021-07-08T14:53:37Z</time>
      </trkpt>
      <trkpt lat="48.18064" lon="-3.5641">
        <ele>261</ele>
        <time>2021-07-08T14:53:38Z</time>
      </trkpt>
      <trkpt lat="48.1806" lon="-3.56414">
        <ele>261</ele>
        <time>2021-07-08T14:53:39Z</time>
      </trkpt>
      <trkpt lat="48.18057" lon="-3.56417">
        <ele>261</ele>
        <time>2021-07-08T14:53:40Z</time>
      </trkpt>
      <trkpt lat="48.18054" lon="-3.56422">
        <ele>261</ele>
        <time>2021-07-08T14:53:41Z</time>
      </trkpt>
      <trkpt lat="48.18052" lon="-3.56426">
        <ele>261</ele>
        <time>2021-07-08T14:53:42Z</time>
      </trkpt>
      <trkpt lat="48.18049" lon="-3.5643">
        <ele>261</ele>
        <time>2021-07-08T14:53:43Z</time>
      </trkpt>
      <trkpt lat="48.18045" lon="-3.56434">
        <ele>261</ele>
        <time>2021-07-08T14:53:44Z</time>
      </trkpt>
      <trkpt lat="48.18042" lon="-3.56438">
        <ele>262</ele>
        <time>2021-07-08T14:53:45Z</time>
      </trkpt>
      <trkpt lat="48.18039" lon="-3.56442">
        <ele>262</ele>
        <time>2021-07-08T14:53:46Z</time>
      </trkpt>
      <trkpt lat="48.18036" lon="-3.56446">
        <ele>262</ele>
        <time>2021-07-08T14:53:47Z</time>
      </trkpt>
      <trkpt lat="48.18026" lon="-3.56455">
        <ele>261</ele>
        <time>2021-07-08T14:53:50Z</time>
      </trkpt>
      <trkpt lat="48.1802" lon="-3.56464">
        <ele>262</ele>
        <time>2021-07-08T14:53:52Z</time>
      </trkpt>
      <trkpt lat="48.18017" lon="-3.56467">
        <ele>262</ele>
        <time>2021-07-08T14:53:53Z</time>
      </trkpt>
      <trkpt lat="48.18014" lon="-3.56471">
        <ele>263</ele>
        <time>2021-07-08T14:53:54Z</time>
      </trkpt>
      <trkpt lat="48.18008" lon="-3.56477">
        <ele>263</ele>
        <time>2021-07-08T14:53:56Z</time>
      </trkpt>
      <trkpt lat="48.18005" lon="-3.5648">
        <ele>264</ele>
        <time>2021-07-08T14:53:57Z</time>
      </trkpt>
      <trkpt lat="48.18002" lon="-3.56483">
        <ele>264</ele>
        <time>2021-07-08T14:53:58Z</time>
      </trkpt>
      <trkpt lat="48.17999" lon="-3.56487">
        <ele>264</ele>
        <time>2021-07-08T14:53:59Z</time>
      </trkpt>
      <trkpt lat="48.17996" lon="-3.5649">
        <ele>264</ele>
        <time>2021-07-08T14:54:00Z</time>
      </trkpt>
      <trkpt lat="48.17993" lon="-3.56493">
        <ele>264</ele>
        <time>2021-07-08T14:54:01Z</time>
      </trkpt>
      <trkpt lat="48.1799" lon="-3.56496">
        <ele>264</ele>
        <time>2021-07-08T14:54:02Z</time>
      </trkpt>
      <trkpt lat="48.17987" lon="-3.56499">
        <ele>264</ele>
        <time>2021-07-08T14:54:03Z</time>
      </trkpt>
      <trkpt lat="48.17983" lon="-3.56502">
        <ele>264</ele>
        <time>2021-07-08T14:54:04Z</time>
      </trkpt>
      <trkpt lat="48.1798" lon="-3.56505">
        <ele>264</ele>
        <time>2021-07-08T14:54:05Z</time>
      </trkpt>
      <trkpt lat="48.17977" lon="-3.56508">
        <ele>264</ele>
        <time>2021-07-08T14:54:06Z</time>
      </trkpt>
      <trkpt lat="48.17974" lon="-3.56511">
        <ele>264</ele>
        <time>2021-07-08T14:54:07Z</time>
      </trkpt>
      <trkpt lat="48.17971" lon="-3.56514">
        <ele>264</ele>
        <time>2021-07-08T14:54:08Z</time>
      </trkpt>
      <trkpt lat="48.17968" lon="-3.56516">
        <ele>264</ele>
        <time>2021-07-08T14:54:09Z</time>
      </trkpt>
      <trkpt lat="48.17961" lon="-3.56525">
        <ele>264</ele>
        <time>2021-07-08T14:54:12Z</time>
      </trkpt>
      <trkpt lat="48.17959" lon="-3.56528">
        <ele>265</ele>
        <time>2021-07-08T14:54:13Z</time>
      </trkpt>
      <trkpt lat="48.17956" lon="-3.5653">
        <ele>265</ele>
        <time>2021-07-08T14:54:15Z</time>
      </trkpt>
      <trkpt lat="48.17953" lon="-3.56533">
        <ele>265</ele>
        <time>2021-07-08T14:54:15Z</time>
      </trkpt>
      <trkpt lat="48.17951" lon="-3.56535">
        <ele>265</ele>
        <time>2021-07-08T14:54:16Z</time>
      </trkpt>
      <trkpt lat="48.17949" lon="-3.56537">
        <ele>265</ele>
        <time>2021-07-08T14:54:17Z</time>
      </trkpt>
      <trkpt lat="48.17946" lon="-3.56539">
        <ele>264</ele>
        <time>2021-07-08T14:54:18Z</time>
      </trkpt>
      <trkpt lat="48.17944" lon="-3.56542">
        <ele>264</ele>
        <time>2021-07-08T14:54:19Z</time>
      </trkpt>
      <trkpt lat="48.17941" lon="-3.56544">
        <ele>265</ele>
        <time>2021-07-08T14:54:21Z</time>
      </trkpt>
      <trkpt lat="48.17938" lon="-3.56545">
        <ele>265</ele>
        <time>2021-07-08T14:54:21Z</time>
      </trkpt>
      <trkpt lat="48.17935" lon="-3.56547">
        <ele>266</ele>
        <time>2021-07-08T14:54:22Z</time>
      </trkpt>
      <trkpt lat="48.17932" lon="-3.5655">
        <ele>266</ele>
        <time>2021-07-08T14:54:23Z</time>
      </trkpt>
      <trkpt lat="48.1793" lon="-3.56552">
        <ele>266</ele>
        <time>2021-07-08T14:54:24Z</time>
      </trkpt>
      <trkpt lat="48.17927" lon="-3.56554">
        <ele>266</ele>
        <time>2021-07-08T14:54:25Z</time>
      </trkpt>
      <trkpt lat="48.17918" lon="-3.56562">
        <ele>266</ele>
        <time>2021-07-08T14:54:29Z</time>
      </trkpt>
      <trkpt lat="48.17907" lon="-3.56568">
        <ele>266</ele>
        <time>2021-07-08T14:54:32Z</time>
      </trkpt>
      <trkpt lat="48.17898" lon="-3.56576">
        <ele>266</ele>
        <time>2021-07-08T14:54:35Z</time>
      </trkpt>
      <trkpt lat="48.17894" lon="-3.56578">
        <ele>266</ele>
        <time>2021-07-08T14:54:36Z</time>
      </trkpt>
      <trkpt lat="48.17891" lon="-3.56581">
        <ele>266</ele>
        <time>2021-07-08T14:54:37Z</time>
      </trkpt>
      <trkpt lat="48.17888" lon="-3.56584">
        <ele>266</ele>
        <time>2021-07-08T14:54:38Z</time>
      </trkpt>
      <trkpt lat="48.17885" lon="-3.56586">
        <ele>266</ele>
        <time>2021-07-08T14:54:39Z</time>
      </trkpt>
      <trkpt lat="48.17881" lon="-3.56588">
        <ele>266</ele>
        <time>2021-07-08T14:54:40Z</time>
      </trkpt>
      <trkpt lat="48.17878" lon="-3.5659">
        <ele>266</ele>
        <time>2021-07-08T14:54:41Z</time>
      </trkpt>
      <trkpt lat="48.17874" lon="-3.56592">
        <ele>266</ele>
        <time>2021-07-08T14:54:42Z</time>
      </trkpt>
      <trkpt lat="48.17871" lon="-3.56594">
        <ele>266</ele>
        <time>2021-07-08T14:54:43Z</time>
      </trkpt>
      <trkpt lat="48.17868" lon="-3.56596">
        <ele>266</ele>
        <time>2021-07-08T14:54:44Z</time>
      </trkpt>
      <trkpt lat="48.17857" lon="-3.566">
        <ele>267</ele>
        <time>2021-07-08T14:54:48Z</time>
      </trkpt>
      <trkpt lat="48.17848" lon="-3.56605">
        <ele>267</ele>
        <time>2021-07-08T14:54:53Z</time>
      </trkpt>
      <trkpt lat="48.17845" lon="-3.56606">
        <ele>267</ele>
        <time>2021-07-08T14:54:53Z</time>
      </trkpt>
      <trkpt lat="48.17841" lon="-3.56609">
        <ele>267</ele>
        <time>2021-07-08T14:54:54Z</time>
      </trkpt>
      <trkpt lat="48.17829" lon="-3.56618">
        <ele>268</ele>
        <time>2021-07-08T14:54:57Z</time>
      </trkpt>
      <trkpt lat="48.17825" lon="-3.5662">
        <ele>268</ele>
        <time>2021-07-08T14:54:58Z</time>
      </trkpt>
      <trkpt lat="48.17817" lon="-3.56626">
        <ele>269</ele>
        <time>2021-07-08T14:55:00Z</time>
      </trkpt>
      <trkpt lat="48.17814" lon="-3.5663">
        <ele>269</ele>
        <time>2021-07-08T14:55:01Z</time>
      </trkpt>
      <trkpt lat="48.1781" lon="-3.56633">
        <ele>269</ele>
        <time>2021-07-08T14:55:02Z</time>
      </trkpt>
      <trkpt lat="48.17806" lon="-3.56637">
        <ele>269</ele>
        <time>2021-07-08T14:55:03Z</time>
      </trkpt>
      <trkpt lat="48.17803" lon="-3.5664">
        <ele>269</ele>
        <time>2021-07-08T14:55:04Z</time>
      </trkpt>
      <trkpt lat="48.17799" lon="-3.56643">
        <ele>269</ele>
        <time>2021-07-08T14:55:05Z</time>
      </trkpt>
      <trkpt lat="48.17796" lon="-3.56646">
        <ele>269</ele>
        <time>2021-07-08T14:55:06Z</time>
      </trkpt>
      <trkpt lat="48.17792" lon="-3.56649">
        <ele>269</ele>
        <time>2021-07-08T14:55:07Z</time>
      </trkpt>
      <trkpt lat="48.17789" lon="-3.56652">
        <ele>269</ele>
        <time>2021-07-08T14:55:08Z</time>
      </trkpt>
      <trkpt lat="48.17786" lon="-3.56655">
        <ele>269</ele>
        <time>2021-07-08T14:55:09Z</time>
      </trkpt>
      <trkpt lat="48.17782" lon="-3.56658">
        <ele>269</ele>
        <time>2021-07-08T14:55:10Z</time>
      </trkpt>
      <trkpt lat="48.17776" lon="-3.56664">
        <ele>269</ele>
        <time>2021-07-08T14:55:12Z</time>
      </trkpt>
      <trkpt lat="48.17768" lon="-3.56672">
        <ele>270</ele>
        <time>2021-07-08T14:55:15Z</time>
      </trkpt>
      <trkpt lat="48.17765" lon="-3.56675">
        <ele>270</ele>
        <time>2021-07-08T14:55:17Z</time>
      </trkpt>
      <trkpt lat="48.17762" lon="-3.56678">
        <ele>270</ele>
        <time>2021-07-08T14:55:17Z</time>
      </trkpt>
      <trkpt lat="48.1776" lon="-3.56682">
        <ele>270</ele>
        <time>2021-07-08T14:55:18Z</time>
      </trkpt>
      <trkpt lat="48.17757" lon="-3.56685">
        <ele>270</ele>
        <time>2021-07-08T14:55:19Z</time>
      </trkpt>
      <trkpt lat="48.17754" lon="-3.56687">
        <ele>270</ele>
        <time>2021-07-08T14:55:20Z</time>
      </trkpt>
      <trkpt lat="48.17752" lon="-3.56692">
        <ele>269</ele>
        <time>2021-07-08T14:55:21Z</time>
      </trkpt>
      <trkpt lat="48.17749" lon="-3.56696">
        <ele>269</ele>
        <time>2021-07-08T14:55:22Z</time>
      </trkpt>
      <trkpt lat="48.17747" lon="-3.56699">
        <ele>269</ele>
        <time>2021-07-08T14:55:23Z</time>
      </trkpt>
      <trkpt lat="48.17744" lon="-3.56703">
        <ele>270</ele>
        <time>2021-07-08T14:55:24Z</time>
      </trkpt>
      <trkpt lat="48.17742" lon="-3.56707">
        <ele>270</ele>
        <time>2021-07-08T14:55:25Z</time>
      </trkpt>
      <trkpt lat="48.1774" lon="-3.56711">
        <ele>270</ele>
        <time>2021-07-08T14:55:26Z</time>
      </trkpt>
      <trkpt lat="48.17738" lon="-3.56715">
        <ele>270</ele>
        <time>2021-07-08T14:55:27Z</time>
      </trkpt>
      <trkpt lat="48.17735" lon="-3.56719">
        <ele>270</ele>
        <time>2021-07-08T14:55:28Z</time>
      </trkpt>
      <trkpt lat="48.17733" lon="-3.56722">
        <ele>270</ele>
        <time>2021-07-08T14:55:29Z</time>
      </trkpt>
      <trkpt lat="48.17728" lon="-3.5673">
        <ele>270</ele>
        <time>2021-07-08T14:55:31Z</time>
      </trkpt>
      <trkpt lat="48.17726" lon="-3.56733">
        <ele>270</ele>
        <time>2021-07-08T14:55:32Z</time>
      </trkpt>
      <trkpt lat="48.17723" lon="-3.56735">
        <ele>270</ele>
        <time>2021-07-08T14:55:33Z</time>
      </trkpt>
      <trkpt lat="48.17719" lon="-3.56741">
        <ele>271</ele>
        <time>2021-07-08T14:55:35Z</time>
      </trkpt>
      <trkpt lat="48.17716" lon="-3.56745">
        <ele>271</ele>
        <time>2021-07-08T14:55:36Z</time>
      </trkpt>
      <trkpt lat="48.17714" lon="-3.56749">
        <ele>271</ele>
        <time>2021-07-08T14:55:37Z</time>
      </trkpt>
      <trkpt lat="48.17712" lon="-3.56752">
        <ele>271</ele>
        <time>2021-07-08T14:55:38Z</time>
      </trkpt>
      <trkpt lat="48.1771" lon="-3.56755">
        <ele>271</ele>
        <time>2021-07-08T14:55:39Z</time>
      </trkpt>
      <trkpt lat="48.17706" lon="-3.56758">
        <ele>271</ele>
        <time>2021-07-08T14:55:40Z</time>
      </trkpt>
      <trkpt lat="48.17704" lon="-3.56761">
        <ele>271</ele>
        <time>2021-07-08T14:55:41Z</time>
      </trkpt>
      <trkpt lat="48.17694" lon="-3.56774">
        <ele>272</ele>
        <time>2021-07-08T14:55:45Z</time>
      </trkpt>
      <trkpt lat="48.17685" lon="-3.56785">
        <ele>272</ele>
        <time>2021-07-08T14:55:48Z</time>
      </trkpt>
      <trkpt lat="48.17677" lon="-3.56794">
        <ele>272</ele>
        <time>2021-07-08T14:55:51Z</time>
      </trkpt>
      <trkpt lat="48.17675" lon="-3.56797">
        <ele>272</ele>
        <time>2021-07-08T14:55:52Z</time>
      </trkpt>
      <trkpt lat="48.17667" lon="-3.56809">
        <ele>273</ele>
        <time>2021-07-08T14:55:56Z</time>
      </trkpt>
      <trkpt lat="48.1766" lon="-3.56823">
        <ele>273</ele>
        <time>2021-07-08T14:55:59Z</time>
      </trkpt>
      <trkpt lat="48.17658" lon="-3.56827">
        <ele>273</ele>
        <time>2021-07-08T14:56:01Z</time>
      </trkpt>
      <trkpt lat="48.17655" lon="-3.56832">
        <ele>273</ele>
        <time>2021-07-08T14:56:01Z</time>
      </trkpt>
      <trkpt lat="48.17652" lon="-3.56836">
        <ele>273</ele>
        <time>2021-07-08T14:56:02Z</time>
      </trkpt>
      <trkpt lat="48.17644" lon="-3.56847">
        <ele>273</ele>
        <time>2021-07-08T14:56:05Z</time>
      </trkpt>
      <trkpt lat="48.17634" lon="-3.56863">
        <ele>273</ele>
        <time>2021-07-08T14:56:09Z</time>
      </trkpt>
      <trkpt lat="48.17631" lon="-3.56867">
        <ele>273</ele>
        <time>2021-07-08T14:56:10Z</time>
      </trkpt>
      <trkpt lat="48.17628" lon="-3.5687">
        <ele>273</ele>
        <time>2021-07-08T14:56:11Z</time>
      </trkpt>
      <trkpt lat="48.17621" lon="-3.56881">
        <ele>273</ele>
        <time>2021-07-08T14:56:14Z</time>
      </trkpt>
      <trkpt lat="48.17614" lon="-3.56891">
        <ele>273</ele>
        <time>2021-07-08T14:56:17Z</time>
      </trkpt>
      <trkpt lat="48.17611" lon="-3.56895">
        <ele>273</ele>
        <time>2021-07-08T14:56:18Z</time>
      </trkpt>
      <trkpt lat="48.17609" lon="-3.56897">
        <ele>273</ele>
        <time>2021-07-08T14:56:19Z</time>
      </trkpt>
      <trkpt lat="48.17607" lon="-3.56901">
        <ele>274</ele>
        <time>2021-07-08T14:56:20Z</time>
      </trkpt>
      <trkpt lat="48.17605" lon="-3.56905">
        <ele>274</ele>
        <time>2021-07-08T14:56:21Z</time>
      </trkpt>
      <trkpt lat="48.17603" lon="-3.56909">
        <ele>274</ele>
        <time>2021-07-08T14:56:22Z</time>
      </trkpt>
      <trkpt lat="48.17601" lon="-3.56912">
        <ele>274</ele>
        <time>2021-07-08T14:56:23Z</time>
      </trkpt>
      <trkpt lat="48.17599" lon="-3.56915">
        <ele>274</ele>
        <time>2021-07-08T14:56:24Z</time>
      </trkpt>
      <trkpt lat="48.17597" lon="-3.56919">
        <ele>274</ele>
        <time>2021-07-08T14:56:25Z</time>
      </trkpt>
      <trkpt lat="48.17595" lon="-3.56921">
        <ele>274</ele>
        <time>2021-07-08T14:56:26Z</time>
      </trkpt>
      <trkpt lat="48.17593" lon="-3.56924">
        <ele>274</ele>
        <time>2021-07-08T14:56:27Z</time>
      </trkpt>
      <trkpt lat="48.17589" lon="-3.56931">
        <ele>274</ele>
        <time>2021-07-08T14:56:29Z</time>
      </trkpt>
      <trkpt lat="48.17587" lon="-3.56934">
        <ele>274</ele>
        <time>2021-07-08T14:56:31Z</time>
      </trkpt>
      <trkpt lat="48.17585" lon="-3.56937">
        <ele>274</ele>
        <time>2021-07-08T14:56:31Z</time>
      </trkpt>
      <trkpt lat="48.17583" lon="-3.5694">
        <ele>274</ele>
        <time>2021-07-08T14:56:32Z</time>
      </trkpt>
      <trkpt lat="48.17581" lon="-3.56943">
        <ele>274</ele>
        <time>2021-07-08T14:56:33Z</time>
      </trkpt>
      <trkpt lat="48.17579" lon="-3.56947">
        <ele>274</ele>
        <time>2021-07-08T14:56:34Z</time>
      </trkpt>
      <trkpt lat="48.17576" lon="-3.56951">
        <ele>274</ele>
        <time>2021-07-08T14:56:35Z</time>
      </trkpt>
      <trkpt lat="48.17574" lon="-3.56954">
        <ele>274</ele>
        <time>2021-07-08T14:56:36Z</time>
      </trkpt>
      <trkpt lat="48.17572" lon="-3.56957">
        <ele>274</ele>
        <time>2021-07-08T14:56:37Z</time>
      </trkpt>
      <trkpt lat="48.17569" lon="-3.56961">
        <ele>275</ele>
        <time>2021-07-08T14:56:38Z</time>
      </trkpt>
      <trkpt lat="48.17566" lon="-3.56965">
        <ele>275</ele>
        <time>2021-07-08T14:56:39Z</time>
      </trkpt>
      <trkpt lat="48.17564" lon="-3.56969">
        <ele>275</ele>
        <time>2021-07-08T14:56:40Z</time>
      </trkpt>
      <trkpt lat="48.17561" lon="-3.56972">
        <ele>275</ele>
        <time>2021-07-08T14:56:41Z</time>
      </trkpt>
      <trkpt lat="48.17559" lon="-3.56976">
        <ele>275</ele>
        <time>2021-07-08T14:56:42Z</time>
      </trkpt>
      <trkpt lat="48.17556" lon="-3.56979">
        <ele>275</ele>
        <time>2021-07-08T14:56:43Z</time>
      </trkpt>
      <trkpt lat="48.17554" lon="-3.56983">
        <ele>275</ele>
        <time>2021-07-08T14:56:44Z</time>
      </trkpt>
      <trkpt lat="48.17552" lon="-3.56986">
        <ele>276</ele>
        <time>2021-07-08T14:56:45Z</time>
      </trkpt>
      <trkpt lat="48.17549" lon="-3.56989">
        <ele>276</ele>
        <time>2021-07-08T14:56:46Z</time>
      </trkpt>
      <trkpt lat="48.17547" lon="-3.56993">
        <ele>276</ele>
        <time>2021-07-08T14:56:48Z</time>
      </trkpt>
      <trkpt lat="48.17545" lon="-3.56997">
        <ele>276</ele>
        <time>2021-07-08T14:56:49Z</time>
      </trkpt>
      <trkpt lat="48.17543" lon="-3.57">
        <ele>276</ele>
        <time>2021-07-08T14:56:49Z</time>
      </trkpt>
      <trkpt lat="48.17541" lon="-3.57003">
        <ele>276</ele>
        <time>2021-07-08T14:56:50Z</time>
      </trkpt>
      <trkpt lat="48.17538" lon="-3.57007">
        <ele>276</ele>
        <time>2021-07-08T14:56:51Z</time>
      </trkpt>
      <trkpt lat="48.17536" lon="-3.57011">
        <ele>276</ele>
        <time>2021-07-08T14:56:52Z</time>
      </trkpt>
      <trkpt lat="48.17533" lon="-3.57015">
        <ele>276</ele>
        <time>2021-07-08T14:56:53Z</time>
      </trkpt>
      <trkpt lat="48.17531" lon="-3.57018">
        <ele>276</ele>
        <time>2021-07-08T14:56:54Z</time>
      </trkpt>
      <trkpt lat="48.17528" lon="-3.57022">
        <ele>276</ele>
        <time>2021-07-08T14:56:55Z</time>
      </trkpt>
      <trkpt lat="48.17526" lon="-3.57027">
        <ele>276</ele>
        <time>2021-07-08T14:56:56Z</time>
      </trkpt>
      <trkpt lat="48.17524" lon="-3.57031">
        <ele>276</ele>
        <time>2021-07-08T14:56:57Z</time>
      </trkpt>
      <trkpt lat="48.17522" lon="-3.57036">
        <ele>276</ele>
        <time>2021-07-08T14:56:58Z</time>
      </trkpt>
      <trkpt lat="48.1752" lon="-3.5704">
        <ele>276</ele>
        <time>2021-07-08T14:56:59Z</time>
      </trkpt>
      <trkpt lat="48.17518" lon="-3.57045">
        <ele>276</ele>
        <time>2021-07-08T14:57:00Z</time>
      </trkpt>
      <trkpt lat="48.17516" lon="-3.5705">
        <ele>276</ele>
        <time>2021-07-08T14:57:01Z</time>
      </trkpt>
      <trkpt lat="48.17514" lon="-3.57054">
        <ele>276</ele>
        <time>2021-07-08T14:57:02Z</time>
      </trkpt>
      <trkpt lat="48.17512" lon="-3.57058">
        <ele>276</ele>
        <time>2021-07-08T14:57:03Z</time>
      </trkpt>
      <trkpt lat="48.17511" lon="-3.57063">
        <ele>276</ele>
        <time>2021-07-08T14:57:04Z</time>
      </trkpt>
      <trkpt lat="48.17509" lon="-3.57068">
        <ele>276</ele>
        <time>2021-07-08T14:57:05Z</time>
      </trkpt>
      <trkpt lat="48.17506" lon="-3.57077">
        <ele>277</ele>
        <time>2021-07-08T14:57:07Z</time>
      </trkpt>
      <trkpt lat="48.17504" lon="-3.57081">
        <ele>277</ele>
        <time>2021-07-08T14:57:08Z</time>
      </trkpt>
      <trkpt lat="48.17503" lon="-3.57085">
        <ele>277</ele>
        <time>2021-07-08T14:57:09Z</time>
      </trkpt>
      <trkpt lat="48.17502" lon="-3.57089">
        <ele>277</ele>
        <time>2021-07-08T14:57:10Z</time>
      </trkpt>
      <trkpt lat="48.17501" lon="-3.57093">
        <ele>277</ele>
        <time>2021-07-08T14:57:11Z</time>
      </trkpt>
      <trkpt lat="48.175" lon="-3.57096">
        <ele>277</ele>
        <time>2021-07-08T14:57:12Z</time>
      </trkpt>
      <trkpt lat="48.17493" lon="-3.57112">
        <ele>277</ele>
        <time>2021-07-08T14:57:16Z</time>
      </trkpt>
      <trkpt lat="48.17489" lon="-3.5713">
        <ele>277</ele>
        <time>2021-07-08T14:57:20Z</time>
      </trkpt>
      <trkpt lat="48.17486" lon="-3.5714">
        <ele>277</ele>
        <time>2021-07-08T14:57:22Z</time>
      </trkpt>
      <trkpt lat="48.17482" lon="-3.57162">
        <ele>278</ele>
        <time>2021-07-08T14:57:26Z</time>
      </trkpt>
      <trkpt lat="48.17481" lon="-3.57168">
        <ele>278</ele>
        <time>2021-07-08T14:57:27Z</time>
      </trkpt>
      <trkpt lat="48.17481" lon="-3.57173">
        <ele>278</ele>
        <time>2021-07-08T14:57:28Z</time>
      </trkpt>
      <trkpt lat="48.17479" lon="-3.57183">
        <ele>278</ele>
        <time>2021-07-08T14:57:30Z</time>
      </trkpt>
      <trkpt lat="48.17479" lon="-3.57189">
        <ele>278</ele>
        <time>2021-07-08T14:57:31Z</time>
      </trkpt>
      <trkpt lat="48.17478" lon="-3.57194">
        <ele>278</ele>
        <time>2021-07-08T14:57:32Z</time>
      </trkpt>
      <trkpt lat="48.17477" lon="-3.57199">
        <ele>278</ele>
        <time>2021-07-08T14:57:33Z</time>
      </trkpt>
      <trkpt lat="48.17477" lon="-3.57204">
        <ele>278</ele>
        <time>2021-07-08T14:57:34Z</time>
      </trkpt>
      <trkpt lat="48.17476" lon="-3.57208">
        <ele>278</ele>
        <time>2021-07-08T14:57:35Z</time>
      </trkpt>
      <trkpt lat="48.17475" lon="-3.57213">
        <ele>278</ele>
        <time>2021-07-08T14:57:36Z</time>
      </trkpt>
      <trkpt lat="48.17474" lon="-3.57218">
        <ele>279</ele>
        <time>2021-07-08T14:57:37Z</time>
      </trkpt>
      <trkpt lat="48.17473" lon="-3.57222">
        <ele>279</ele>
        <time>2021-07-08T14:57:38Z</time>
      </trkpt>
      <trkpt lat="48.17471" lon="-3.57227">
        <ele>279</ele>
        <time>2021-07-08T14:57:39Z</time>
      </trkpt>
      <trkpt lat="48.1747" lon="-3.57232">
        <ele>279</ele>
        <time>2021-07-08T14:57:40Z</time>
      </trkpt>
      <trkpt lat="48.17469" lon="-3.57236">
        <ele>279</ele>
        <time>2021-07-08T14:57:41Z</time>
      </trkpt>
      <trkpt lat="48.17467" lon="-3.57241">
        <ele>279</ele>
        <time>2021-07-08T14:57:42Z</time>
      </trkpt>
      <trkpt lat="48.17466" lon="-3.57246">
        <ele>279</ele>
        <time>2021-07-08T14:57:44Z</time>
      </trkpt>
      <trkpt lat="48.17464" lon="-3.57255">
        <ele>279</ele>
        <time>2021-07-08T14:57:45Z</time>
      </trkpt>
      <trkpt lat="48.17464" lon="-3.5726">
        <ele>279</ele>
        <time>2021-07-08T14:57:46Z</time>
      </trkpt>
      <trkpt lat="48.17463" lon="-3.57264">
        <ele>279</ele>
        <time>2021-07-08T14:57:47Z</time>
      </trkpt>
      <trkpt lat="48.17461" lon="-3.57269">
        <ele>279</ele>
        <time>2021-07-08T14:57:48Z</time>
      </trkpt>
      <trkpt lat="48.1746" lon="-3.57274">
        <ele>279</ele>
        <time>2021-07-08T14:57:49Z</time>
      </trkpt>
      <trkpt lat="48.1746" lon="-3.57279">
        <ele>279</ele>
        <time>2021-07-08T14:57:50Z</time>
      </trkpt>
      <trkpt lat="48.17458" lon="-3.57283">
        <ele>279</ele>
        <time>2021-07-08T14:57:51Z</time>
      </trkpt>
      <trkpt lat="48.17457" lon="-3.57288">
        <ele>279</ele>
        <time>2021-07-08T14:57:52Z</time>
      </trkpt>
      <trkpt lat="48.17456" lon="-3.57292">
        <ele>279</ele>
        <time>2021-07-08T14:57:53Z</time>
      </trkpt>
      <trkpt lat="48.17455" lon="-3.57296">
        <ele>279</ele>
        <time>2021-07-08T14:57:54Z</time>
      </trkpt>
      <trkpt lat="48.17454" lon="-3.573">
        <ele>279</ele>
        <time>2021-07-08T14:57:55Z</time>
      </trkpt>
      <trkpt lat="48.17453" lon="-3.57303">
        <ele>279</ele>
        <time>2021-07-08T14:57:56Z</time>
      </trkpt>
      <trkpt lat="48.17453" lon="-3.57307">
        <ele>279</ele>
        <time>2021-07-08T14:57:57Z</time>
      </trkpt>
      <trkpt lat="48.17452" lon="-3.5731">
        <ele>279</ele>
        <time>2021-07-08T14:57:58Z</time>
      </trkpt>
      <trkpt lat="48.1745" lon="-3.57315">
        <ele>279</ele>
        <time>2021-07-08T14:58:00Z</time>
      </trkpt>
      <trkpt lat="48.1745" lon="-3.57319">
        <ele>279</ele>
        <time>2021-07-08T14:58:02Z</time>
      </trkpt>
      <trkpt lat="48.1745" lon="-3.57325">
        <ele>279</ele>
        <time>2021-07-08T14:58:04Z</time>
      </trkpt>
      <trkpt lat="48.1745" lon="-3.57327">
        <ele>279</ele>
        <time>2021-07-08T14:58:05Z</time>
      </trkpt>
      <trkpt lat="48.17449" lon="-3.57332">
        <ele>279</ele>
        <time>2021-07-08T14:58:07Z</time>
      </trkpt>
      <trkpt lat="48.17448" lon="-3.57337">
        <ele>279</ele>
        <time>2021-07-08T14:58:09Z</time>
      </trkpt>
      <trkpt lat="48.17446" lon="-3.5734">
        <ele>279</ele>
        <time>2021-07-08T14:58:11Z</time>
      </trkpt>
      <trkpt lat="48.17443" lon="-3.5734">
        <ele>279</ele>
        <time>2021-07-08T14:58:12Z</time>
      </trkpt>
      <trkpt lat="48.17441" lon="-3.57338">
        <ele>279</ele>
        <time>2021-07-08T14:58:13Z</time>
      </trkpt>
      <trkpt lat="48.17439" lon="-3.57335">
        <ele>279</ele>
        <time>2021-07-08T14:58:14Z</time>
      </trkpt>
      <trkpt lat="48.17437" lon="-3.57332">
        <ele>280</ele>
        <time>2021-07-08T14:58:15Z</time>
      </trkpt>
      <trkpt lat="48.17434" lon="-3.5733">
        <ele>280</ele>
        <time>2021-07-08T14:58:16Z</time>
      </trkpt>
      <trkpt lat="48.17432" lon="-3.57327">
        <ele>281</ele>
        <time>2021-07-08T14:58:17Z</time>
      </trkpt>
      <trkpt lat="48.17429" lon="-3.57325">
        <ele>281</ele>
        <time>2021-07-08T14:58:18Z</time>
      </trkpt>
      <trkpt lat="48.17427" lon="-3.57324">
        <ele>281</ele>
        <time>2021-07-08T14:58:19Z</time>
      </trkpt>
      <trkpt lat="48.17424" lon="-3.57324">
        <ele>281</ele>
        <time>2021-07-08T14:58:20Z</time>
      </trkpt>
      <trkpt lat="48.17421" lon="-3.57324">
        <ele>282</ele>
        <time>2021-07-08T14:58:21Z</time>
      </trkpt>
      <trkpt lat="48.17417" lon="-3.57328">
        <ele>282</ele>
        <time>2021-07-08T14:58:23Z</time>
      </trkpt>
      <trkpt lat="48.17414" lon="-3.57332">
        <ele>282</ele>
        <time>2021-07-08T14:58:24Z</time>
      </trkpt>
      <trkpt lat="48.17412" lon="-3.57335">
        <ele>282</ele>
        <time>2021-07-08T14:58:25Z</time>
      </trkpt>
      <trkpt lat="48.1741" lon="-3.57339">
        <ele>282</ele>
        <time>2021-07-08T14:58:26Z</time>
      </trkpt>
      <trkpt lat="48.17409" lon="-3.57343">
        <ele>282</ele>
        <time>2021-07-08T14:58:27Z</time>
      </trkpt>
      <trkpt lat="48.17407" lon="-3.57347">
        <ele>282</ele>
        <time>2021-07-08T14:58:28Z</time>
      </trkpt>
      <trkpt lat="48.17405" lon="-3.57351">
        <ele>282</ele>
        <time>2021-07-08T14:58:29Z</time>
      </trkpt>
      <trkpt lat="48.17403" lon="-3.57355">
        <ele>282</ele>
        <time>2021-07-08T14:58:30Z</time>
      </trkpt>
      <trkpt lat="48.17401" lon="-3.57359">
        <ele>282</ele>
        <time>2021-07-08T14:58:31Z</time>
      </trkpt>
      <trkpt lat="48.17399" lon="-3.57363">
        <ele>282</ele>
        <time>2021-07-08T14:58:32Z</time>
      </trkpt>
      <trkpt lat="48.17398" lon="-3.57367">
        <ele>282</ele>
        <time>2021-07-08T14:58:33Z</time>
      </trkpt>
      <trkpt lat="48.17396" lon="-3.57371">
        <ele>282</ele>
        <time>2021-07-08T14:58:34Z</time>
      </trkpt>
      <trkpt lat="48.17394" lon="-3.57375">
        <ele>282</ele>
        <time>2021-07-08T14:58:35Z</time>
      </trkpt>
      <trkpt lat="48.17392" lon="-3.5738">
        <ele>282</ele>
        <time>2021-07-08T14:58:36Z</time>
      </trkpt>
      <trkpt lat="48.17391" lon="-3.57384">
        <ele>283</ele>
        <time>2021-07-08T14:58:37Z</time>
      </trkpt>
      <trkpt lat="48.17389" lon="-3.57389">
        <ele>283</ele>
        <time>2021-07-08T14:58:38Z</time>
      </trkpt>
      <trkpt lat="48.17388" lon="-3.57393">
        <ele>283</ele>
        <time>2021-07-08T14:58:39Z</time>
      </trkpt>
      <trkpt lat="48.17386" lon="-3.57398">
        <ele>283</ele>
        <time>2021-07-08T14:58:40Z</time>
      </trkpt>
      <trkpt lat="48.17385" lon="-3.57403">
        <ele>283</ele>
        <time>2021-07-08T14:58:42Z</time>
      </trkpt>
      <trkpt lat="48.17383" lon="-3.57407">
        <ele>283</ele>
        <time>2021-07-08T14:58:42Z</time>
      </trkpt>
      <trkpt lat="48.17381" lon="-3.57412">
        <ele>283</ele>
        <time>2021-07-08T14:58:43Z</time>
      </trkpt>
      <trkpt lat="48.17379" lon="-3.57416">
        <ele>283</ele>
        <time>2021-07-08T14:58:44Z</time>
      </trkpt>
      <trkpt lat="48.17378" lon="-3.57421">
        <ele>283</ele>
        <time>2021-07-08T14:58:45Z</time>
      </trkpt>
      <trkpt lat="48.17376" lon="-3.57426">
        <ele>283</ele>
        <time>2021-07-08T14:58:46Z</time>
      </trkpt>
      <trkpt lat="48.17374" lon="-3.5743">
        <ele>283</ele>
        <time>2021-07-08T14:58:47Z</time>
      </trkpt>
      <trkpt lat="48.17373" lon="-3.57434">
        <ele>283</ele>
        <time>2021-07-08T14:58:48Z</time>
      </trkpt>
      <trkpt lat="48.17371" lon="-3.57438">
        <ele>283</ele>
        <time>2021-07-08T14:58:49Z</time>
      </trkpt>
      <trkpt lat="48.17369" lon="-3.57442">
        <ele>283</ele>
        <time>2021-07-08T14:58:50Z</time>
      </trkpt>
      <trkpt lat="48.17367" lon="-3.57445">
        <ele>283</ele>
        <time>2021-07-08T14:58:51Z</time>
      </trkpt>
      <trkpt lat="48.17365" lon="-3.57448">
        <ele>283</ele>
        <time>2021-07-08T14:58:52Z</time>
      </trkpt>
      <trkpt lat="48.17362" lon="-3.5745">
        <ele>284</ele>
        <time>2021-07-08T14:58:53Z</time>
      </trkpt>
      <trkpt lat="48.1736" lon="-3.57451">
        <ele>284</ele>
        <time>2021-07-08T14:58:54Z</time>
      </trkpt>
      <trkpt lat="48.17357" lon="-3.57451">
        <ele>284</ele>
        <time>2021-07-08T14:58:56Z</time>
      </trkpt>
      <trkpt lat="48.17354" lon="-3.57451">
        <ele>285</ele>
        <time>2021-07-08T14:58:58Z</time>
      </trkpt>
      <trkpt lat="48.17339" lon="-3.57442">
        <ele>285</ele>
        <time>2021-07-08T14:59:06Z</time>
      </trkpt>
      <trkpt lat="48.17332" lon="-3.5743">
        <ele>285</ele>
        <time>2021-07-08T14:59:08Z</time>
      </trkpt>
      <trkpt lat="48.17322" lon="-3.57423">
        <ele>286</ele>
        <time>2021-07-08T14:59:11Z</time>
      </trkpt>
      <trkpt lat="48.17312" lon="-3.57416">
        <ele>287</ele>
        <time>2021-07-08T14:59:15Z</time>
      </trkpt>
      <trkpt lat="48.1731" lon="-3.57414">
        <ele>287</ele>
        <time>2021-07-08T14:59:16Z</time>
      </trkpt>
      <trkpt lat="48.17308" lon="-3.57413">
        <ele>287</ele>
        <time>2021-07-08T14:59:17Z</time>
      </trkpt>
      <trkpt lat="48.17307" lon="-3.57411">
        <ele>287</ele>
        <time>2021-07-08T14:59:18Z</time>
      </trkpt>
      <trkpt lat="48.17305" lon="-3.5741">
        <ele>288</ele>
        <time>2021-07-08T14:59:20Z</time>
      </trkpt>
      <trkpt lat="48.17302" lon="-3.57408">
        <ele>288</ele>
        <time>2021-07-08T14:59:21Z</time>
      </trkpt>
      <trkpt lat="48.17298" lon="-3.57408">
        <ele>288</ele>
        <time>2021-07-08T14:59:23Z</time>
      </trkpt>
      <trkpt lat="48.17294" lon="-3.57409">
        <ele>289</ele>
        <time>2021-07-08T14:59:25Z</time>
      </trkpt>
      <trkpt lat="48.17291" lon="-3.57409">
        <ele>289</ele>
        <time>2021-07-08T14:59:26Z</time>
      </trkpt>
      <trkpt lat="48.17289" lon="-3.5741">
        <ele>289</ele>
        <time>2021-07-08T14:59:27Z</time>
      </trkpt>
      <trkpt lat="48.17287" lon="-3.57411">
        <ele>289</ele>
        <time>2021-07-08T14:59:28Z</time>
      </trkpt>
      <trkpt lat="48.17284" lon="-3.57413">
        <ele>289</ele>
        <time>2021-07-08T14:59:29Z</time>
      </trkpt>
      <trkpt lat="48.17282" lon="-3.57414">
        <ele>290</ele>
        <time>2021-07-08T14:59:30Z</time>
      </trkpt>
      <trkpt lat="48.1728" lon="-3.57416">
        <ele>290</ele>
        <time>2021-07-08T14:59:31Z</time>
      </trkpt>
      <trkpt lat="48.17278" lon="-3.57417">
        <ele>290</ele>
        <time>2021-07-08T14:59:32Z</time>
      </trkpt>
      <trkpt lat="48.17276" lon="-3.57418">
        <ele>290</ele>
        <time>2021-07-08T14:59:33Z</time>
      </trkpt>
      <trkpt lat="48.17274" lon="-3.57421">
        <ele>290</ele>
        <time>2021-07-08T14:59:34Z</time>
      </trkpt>
      <trkpt lat="48.17272" lon="-3.57422">
        <ele>290</ele>
        <time>2021-07-08T14:59:35Z</time>
      </trkpt>
      <trkpt lat="48.1727" lon="-3.57424">
        <ele>290</ele>
        <time>2021-07-08T14:59:36Z</time>
      </trkpt>
      <trkpt lat="48.17268" lon="-3.57428">
        <ele>290</ele>
        <time>2021-07-08T14:59:37Z</time>
      </trkpt>
      <trkpt lat="48.17265" lon="-3.57432">
        <ele>290</ele>
        <time>2021-07-08T14:59:38Z</time>
      </trkpt>
      <trkpt lat="48.17262" lon="-3.57435">
        <ele>290</ele>
        <time>2021-07-08T14:59:39Z</time>
      </trkpt>
      <trkpt lat="48.17259" lon="-3.57439">
        <ele>290</ele>
        <time>2021-07-08T14:59:40Z</time>
      </trkpt>
      <trkpt lat="48.17256" lon="-3.57443">
        <ele>290</ele>
        <time>2021-07-08T14:59:41Z</time>
      </trkpt>
      <trkpt lat="48.17253" lon="-3.57446">
        <ele>290</ele>
        <time>2021-07-08T14:59:42Z</time>
      </trkpt>
      <trkpt lat="48.1725" lon="-3.5745">
        <ele>290</ele>
        <time>2021-07-08T14:59:43Z</time>
      </trkpt>
      <trkpt lat="48.17248" lon="-3.57453">
        <ele>289</ele>
        <time>2021-07-08T14:59:44Z</time>
      </trkpt>
      <trkpt lat="48.17244" lon="-3.57456">
        <ele>289</ele>
        <time>2021-07-08T14:59:45Z</time>
      </trkpt>
      <trkpt lat="48.17241" lon="-3.5746">
        <ele>289</ele>
        <time>2021-07-08T14:59:46Z</time>
      </trkpt>
      <trkpt lat="48.17237" lon="-3.57463">
        <ele>289</ele>
        <time>2021-07-08T14:59:47Z</time>
      </trkpt>
      <trkpt lat="48.17234" lon="-3.57467">
        <ele>290</ele>
        <time>2021-07-08T14:59:48Z</time>
      </trkpt>
      <trkpt lat="48.17231" lon="-3.5747">
        <ele>290</ele>
        <time>2021-07-08T14:59:49Z</time>
      </trkpt>
      <trkpt lat="48.17227" lon="-3.57473">
        <ele>291</ele>
        <time>2021-07-08T14:59:50Z</time>
      </trkpt>
      <trkpt lat="48.17225" lon="-3.57477">
        <ele>291</ele>
        <time>2021-07-08T14:59:51Z</time>
      </trkpt>
      <trkpt lat="48.17222" lon="-3.5748">
        <ele>291</ele>
        <time>2021-07-08T14:59:52Z</time>
      </trkpt>
      <trkpt lat="48.17219" lon="-3.57484">
        <ele>291</ele>
        <time>2021-07-08T14:59:53Z</time>
      </trkpt>
      <trkpt lat="48.17217" lon="-3.57488">
        <ele>291</ele>
        <time>2021-07-08T14:59:54Z</time>
      </trkpt>
      <trkpt lat="48.17214" lon="-3.57491">
        <ele>291</ele>
        <time>2021-07-08T14:59:55Z</time>
      </trkpt>
      <trkpt lat="48.17211" lon="-3.57494">
        <ele>290</ele>
        <time>2021-07-08T14:59:56Z</time>
      </trkpt>
      <trkpt lat="48.17208" lon="-3.57498">
        <ele>290</ele>
        <time>2021-07-08T14:59:57Z</time>
      </trkpt>
      <trkpt lat="48.17199" lon="-3.5751">
        <ele>290</ele>
        <time>2021-07-08T15:00:00Z</time>
      </trkpt>
      <trkpt lat="48.17196" lon="-3.57515">
        <ele>290</ele>
        <time>2021-07-08T15:00:01Z</time>
      </trkpt>
      <trkpt lat="48.17192" lon="-3.57519">
        <ele>290</ele>
        <time>2021-07-08T15:00:02Z</time>
      </trkpt>
      <trkpt lat="48.17188" lon="-3.57523">
        <ele>290</ele>
        <time>2021-07-08T15:00:03Z</time>
      </trkpt>
      <trkpt lat="48.17185" lon="-3.57528">
        <ele>290</ele>
        <time>2021-07-08T15:00:04Z</time>
      </trkpt>
      <trkpt lat="48.17181" lon="-3.57532">
        <ele>290</ele>
        <time>2021-07-08T15:00:05Z</time>
      </trkpt>
      <trkpt lat="48.17177" lon="-3.57537">
        <ele>289</ele>
        <time>2021-07-08T15:00:06Z</time>
      </trkpt>
      <trkpt lat="48.17174" lon="-3.57541">
        <ele>289</ele>
        <time>2021-07-08T15:00:07Z</time>
      </trkpt>
      <trkpt lat="48.1717" lon="-3.57545">
        <ele>289</ele>
        <time>2021-07-08T15:00:08Z</time>
      </trkpt>
      <trkpt lat="48.17167" lon="-3.5755">
        <ele>289</ele>
        <time>2021-07-08T15:00:09Z</time>
      </trkpt>
      <trkpt lat="48.17163" lon="-3.57555">
        <ele>289</ele>
        <time>2021-07-08T15:00:10Z</time>
      </trkpt>
      <trkpt lat="48.1716" lon="-3.57559">
        <ele>289</ele>
        <time>2021-07-08T15:00:11Z</time>
      </trkpt>
      <trkpt lat="48.17156" lon="-3.57564">
        <ele>289</ele>
        <time>2021-07-08T15:00:12Z</time>
      </trkpt>
      <trkpt lat="48.17153" lon="-3.57569">
        <ele>289</ele>
        <time>2021-07-08T15:00:14Z</time>
      </trkpt>
      <trkpt lat="48.1715" lon="-3.57574">
        <ele>288</ele>
        <time>2021-07-08T15:00:14Z</time>
      </trkpt>
      <trkpt lat="48.17146" lon="-3.5758">
        <ele>288</ele>
        <time>2021-07-08T15:00:15Z</time>
      </trkpt>
      <trkpt lat="48.17144" lon="-3.57585">
        <ele>288</ele>
        <time>2021-07-08T15:00:16Z</time>
      </trkpt>
      <trkpt lat="48.1714" lon="-3.5759">
        <ele>288</ele>
        <time>2021-07-08T15:00:17Z</time>
      </trkpt>
      <trkpt lat="48.17133" lon="-3.576">
        <ele>288</ele>
        <time>2021-07-08T15:00:19Z</time>
      </trkpt>
      <trkpt lat="48.17129" lon="-3.57605">
        <ele>288</ele>
        <time>2021-07-08T15:00:20Z</time>
      </trkpt>
      <trkpt lat="48.17124" lon="-3.5761">
        <ele>288</ele>
        <time>2021-07-08T15:00:21Z</time>
      </trkpt>
      <trkpt lat="48.1712" lon="-3.57615">
        <ele>288</ele>
        <time>2021-07-08T15:00:22Z</time>
      </trkpt>
      <trkpt lat="48.17116" lon="-3.5762">
        <ele>288</ele>
        <time>2021-07-08T15:00:23Z</time>
      </trkpt>
      <trkpt lat="48.17113" lon="-3.57625">
        <ele>288</ele>
        <time>2021-07-08T15:00:24Z</time>
      </trkpt>
      <trkpt lat="48.17109" lon="-3.5763">
        <ele>288</ele>
        <time>2021-07-08T15:00:25Z</time>
      </trkpt>
      <trkpt lat="48.17105" lon="-3.57635">
        <ele>288</ele>
        <time>2021-07-08T15:00:26Z</time>
      </trkpt>
      <trkpt lat="48.17101" lon="-3.5764">
        <ele>288</ele>
        <time>2021-07-08T15:00:27Z</time>
      </trkpt>
      <trkpt lat="48.17098" lon="-3.57645">
        <ele>287</ele>
        <time>2021-07-08T15:00:28Z</time>
      </trkpt>
      <trkpt lat="48.17095" lon="-3.5765">
        <ele>287</ele>
        <time>2021-07-08T15:00:29Z</time>
      </trkpt>
      <trkpt lat="48.17092" lon="-3.57656">
        <ele>288</ele>
        <time>2021-07-08T15:00:30Z</time>
      </trkpt>
      <trkpt lat="48.17089" lon="-3.57661">
        <ele>288</ele>
        <time>2021-07-08T15:00:31Z</time>
      </trkpt>
      <trkpt lat="48.17086" lon="-3.57666">
        <ele>288</ele>
        <time>2021-07-08T15:00:32Z</time>
      </trkpt>
      <trkpt lat="48.17083" lon="-3.57671">
        <ele>288</ele>
        <time>2021-07-08T15:00:33Z</time>
      </trkpt>
      <trkpt lat="48.1708" lon="-3.57676">
        <ele>288</ele>
        <time>2021-07-08T15:00:34Z</time>
      </trkpt>
      <trkpt lat="48.17078" lon="-3.57681">
        <ele>288</ele>
        <time>2021-07-08T15:00:35Z</time>
      </trkpt>
      <trkpt lat="48.17076" lon="-3.57686">
        <ele>288</ele>
        <time>2021-07-08T15:00:36Z</time>
      </trkpt>
      <trkpt lat="48.17072" lon="-3.57696">
        <ele>288</ele>
        <time>2021-07-08T15:00:38Z</time>
      </trkpt>
      <trkpt lat="48.1707" lon="-3.57701">
        <ele>288</ele>
        <time>2021-07-08T15:00:39Z</time>
      </trkpt>
      <trkpt lat="48.17068" lon="-3.57705">
        <ele>289</ele>
        <time>2021-07-08T15:00:40Z</time>
      </trkpt>
      <trkpt lat="48.17066" lon="-3.57709">
        <ele>289</ele>
        <time>2021-07-08T15:00:41Z</time>
      </trkpt>
      <trkpt lat="48.17064" lon="-3.57713">
        <ele>289</ele>
        <time>2021-07-08T15:00:42Z</time>
      </trkpt>
      <trkpt lat="48.17063" lon="-3.57718">
        <ele>289</ele>
        <time>2021-07-08T15:00:44Z</time>
      </trkpt>
      <trkpt lat="48.17061" lon="-3.57723">
        <ele>289</ele>
        <time>2021-07-08T15:00:44Z</time>
      </trkpt>
      <trkpt lat="48.17059" lon="-3.57728">
        <ele>289</ele>
        <time>2021-07-08T15:00:45Z</time>
      </trkpt>
      <trkpt lat="48.17057" lon="-3.57733">
        <ele>289</ele>
        <time>2021-07-08T15:00:46Z</time>
      </trkpt>
      <trkpt lat="48.17055" lon="-3.57738">
        <ele>289</ele>
        <time>2021-07-08T15:00:47Z</time>
      </trkpt>
      <trkpt lat="48.17053" lon="-3.57743">
        <ele>289</ele>
        <time>2021-07-08T15:00:48Z</time>
      </trkpt>
      <trkpt lat="48.17051" lon="-3.57749">
        <ele>289</ele>
        <time>2021-07-08T15:00:49Z</time>
      </trkpt>
      <trkpt lat="48.17049" lon="-3.57753">
        <ele>288</ele>
        <time>2021-07-08T15:00:50Z</time>
      </trkpt>
      <trkpt lat="48.17047" lon="-3.57758">
        <ele>288</ele>
        <time>2021-07-08T15:00:51Z</time>
      </trkpt>
      <trkpt lat="48.17045" lon="-3.57762">
        <ele>289</ele>
        <time>2021-07-08T15:00:52Z</time>
      </trkpt>
      <trkpt lat="48.17044" lon="-3.57766">
        <ele>289</ele>
        <time>2021-07-08T15:00:53Z</time>
      </trkpt>
      <trkpt lat="48.17042" lon="-3.5777">
        <ele>290</ele>
        <time>2021-07-08T15:00:55Z</time>
      </trkpt>
      <trkpt lat="48.17039" lon="-3.57773">
        <ele>290</ele>
        <time>2021-07-08T15:00:55Z</time>
      </trkpt>
      <trkpt lat="48.17037" lon="-3.57775">
        <ele>290</ele>
        <time>2021-07-08T15:00:57Z</time>
      </trkpt>
      <trkpt lat="48.17034" lon="-3.57776">
        <ele>290</ele>
        <time>2021-07-08T15:00:57Z</time>
      </trkpt>
      <trkpt lat="48.17032" lon="-3.57777">
        <ele>290</ele>
        <time>2021-07-08T15:00:58Z</time>
      </trkpt>
      <trkpt lat="48.17029" lon="-3.57776">
        <ele>291</ele>
        <time>2021-07-08T15:00:59Z</time>
      </trkpt>
      <trkpt lat="48.17027" lon="-3.57775">
        <ele>291</ele>
        <time>2021-07-08T15:01:00Z</time>
      </trkpt>
      <trkpt lat="48.17025" lon="-3.57774">
        <ele>291</ele>
        <time>2021-07-08T15:01:01Z</time>
      </trkpt>
      <trkpt lat="48.17023" lon="-3.57773">
        <ele>291</ele>
        <time>2021-07-08T15:01:02Z</time>
      </trkpt>
      <trkpt lat="48.1702" lon="-3.57772">
        <ele>291</ele>
        <time>2021-07-08T15:01:03Z</time>
      </trkpt>
      <trkpt lat="48.17018" lon="-3.57772">
        <ele>291</ele>
        <time>2021-07-08T15:01:04Z</time>
      </trkpt>
      <trkpt lat="48.17016" lon="-3.57771">
        <ele>291</ele>
        <time>2021-07-08T15:01:05Z</time>
      </trkpt>
      <trkpt lat="48.17013" lon="-3.5777">
        <ele>291</ele>
        <time>2021-07-08T15:01:06Z</time>
      </trkpt>
      <trkpt lat="48.17011" lon="-3.57769">
        <ele>291</ele>
        <time>2021-07-08T15:01:07Z</time>
      </trkpt>
      <trkpt lat="48.17009" lon="-3.57768">
        <ele>291</ele>
        <time>2021-07-08T15:01:08Z</time>
      </trkpt>
      <trkpt lat="48.17007" lon="-3.57766">
        <ele>292</ele>
        <time>2021-07-08T15:01:09Z</time>
      </trkpt>
      <trkpt lat="48.17005" lon="-3.57764">
        <ele>292</ele>
        <time>2021-07-08T15:01:10Z</time>
      </trkpt>
      <trkpt lat="48.17003" lon="-3.57763">
        <ele>292</ele>
        <time>2021-07-08T15:01:11Z</time>
      </trkpt>
      <trkpt lat="48.17001" lon="-3.57762">
        <ele>292</ele>
        <time>2021-07-08T15:01:12Z</time>
      </trkpt>
      <trkpt lat="48.16999" lon="-3.5776">
        <ele>293</ele>
        <time>2021-07-08T15:01:13Z</time>
      </trkpt>
      <trkpt lat="48.16997" lon="-3.57759">
        <ele>293</ele>
        <time>2021-07-08T15:01:14Z</time>
      </trkpt>
      <trkpt lat="48.16993" lon="-3.57757">
        <ele>293</ele>
        <time>2021-07-08T15:01:16Z</time>
      </trkpt>
      <trkpt lat="48.16991" lon="-3.57756">
        <ele>293</ele>
        <time>2021-07-08T15:01:17Z</time>
      </trkpt>
      <trkpt lat="48.16988" lon="-3.57755">
        <ele>294</ele>
        <time>2021-07-08T15:01:18Z</time>
      </trkpt>
      <trkpt lat="48.16984" lon="-3.57753">
        <ele>295</ele>
        <time>2021-07-08T15:01:20Z</time>
      </trkpt>
      <trkpt lat="48.16977" lon="-3.5775">
        <ele>295</ele>
        <time>2021-07-08T15:01:23Z</time>
      </trkpt>
      <trkpt lat="48.16974" lon="-3.57748">
        <ele>294</ele>
        <time>2021-07-08T15:01:25Z</time>
      </trkpt>
      <trkpt lat="48.16967" lon="-3.57744">
        <ele>296</ele>
        <time>2021-07-08T15:01:29Z</time>
      </trkpt>
      <trkpt lat="48.16957" lon="-3.57741">
        <ele>296</ele>
        <time>2021-07-08T15:01:33Z</time>
      </trkpt>
      <trkpt lat="48.16952" lon="-3.57738">
        <ele>296</ele>
        <time>2021-07-08T15:01:35Z</time>
      </trkpt>
      <trkpt lat="48.16948" lon="-3.57737">
        <ele>296</ele>
        <time>2021-07-08T15:01:36Z</time>
      </trkpt>
      <trkpt lat="48.16943" lon="-3.57734">
        <ele>297</ele>
        <time>2021-07-08T15:01:38Z</time>
      </trkpt>
      <trkpt lat="48.1694" lon="-3.57733">
        <ele>297</ele>
        <time>2021-07-08T15:01:39Z</time>
      </trkpt>
      <trkpt lat="48.16938" lon="-3.57731">
        <ele>297</ele>
        <time>2021-07-08T15:01:40Z</time>
      </trkpt>
      <trkpt lat="48.16936" lon="-3.5773">
        <ele>297</ele>
        <time>2021-07-08T15:01:41Z</time>
      </trkpt>
      <trkpt lat="48.16934" lon="-3.57728">
        <ele>297</ele>
        <time>2021-07-08T15:01:42Z</time>
      </trkpt>
      <trkpt lat="48.16932" lon="-3.57726">
        <ele>297</ele>
        <time>2021-07-08T15:01:43Z</time>
      </trkpt>
      <trkpt lat="48.16921" lon="-3.57723">
        <ele>298</ele>
        <time>2021-07-08T15:01:47Z</time>
      </trkpt>
      <trkpt lat="48.16917" lon="-3.57723">
        <ele>298</ele>
        <time>2021-07-08T15:01:48Z</time>
      </trkpt>
      <trkpt lat="48.16912" lon="-3.57722">
        <ele>298</ele>
        <time>2021-07-08T15:01:49Z</time>
      </trkpt>
      <trkpt lat="48.16908" lon="-3.57723">
        <ele>298</ele>
        <time>2021-07-08T15:01:50Z</time>
      </trkpt>
      <trkpt lat="48.16904" lon="-3.57723">
        <ele>298</ele>
        <time>2021-07-08T15:01:51Z</time>
      </trkpt>
      <trkpt lat="48.16899" lon="-3.57723">
        <ele>298</ele>
        <time>2021-07-08T15:01:52Z</time>
      </trkpt>
      <trkpt lat="48.16891" lon="-3.57723">
        <ele>298</ele>
        <time>2021-07-08T15:01:54Z</time>
      </trkpt>
      <trkpt lat="48.16887" lon="-3.57722">
        <ele>297</ele>
        <time>2021-07-08T15:01:55Z</time>
      </trkpt>
      <trkpt lat="48.16883" lon="-3.57721">
        <ele>297</ele>
        <time>2021-07-08T15:01:56Z</time>
      </trkpt>
      <trkpt lat="48.16876" lon="-3.5772">
        <ele>297</ele>
        <time>2021-07-08T15:01:57Z</time>
      </trkpt>
      <trkpt lat="48.16871" lon="-3.57719">
        <ele>297</ele>
        <time>2021-07-08T15:01:58Z</time>
      </trkpt>
      <trkpt lat="48.16865" lon="-3.57719">
        <ele>297</ele>
        <time>2021-07-08T15:01:59Z</time>
      </trkpt>
      <trkpt lat="48.1686" lon="-3.57719">
        <ele>297</ele>
        <time>2021-07-08T15:02:00Z</time>
      </trkpt>
      <trkpt lat="48.16853" lon="-3.57718">
        <ele>297</ele>
        <time>2021-07-08T15:02:01Z</time>
      </trkpt>
      <trkpt lat="48.16847" lon="-3.57719">
        <ele>297</ele>
        <time>2021-07-08T15:02:02Z</time>
      </trkpt>
      <trkpt lat="48.1684" lon="-3.57719">
        <ele>296</ele>
        <time>2021-07-08T15:02:03Z</time>
      </trkpt>
      <trkpt lat="48.16834" lon="-3.57721">
        <ele>296</ele>
        <time>2021-07-08T15:02:04Z</time>
      </trkpt>
      <trkpt lat="48.16828" lon="-3.57723">
        <ele>296</ele>
        <time>2021-07-08T15:02:05Z</time>
      </trkpt>
      <trkpt lat="48.16822" lon="-3.57726">
        <ele>295</ele>
        <time>2021-07-08T15:02:06Z</time>
      </trkpt>
      <trkpt lat="48.16817" lon="-3.57728">
        <ele>295</ele>
        <time>2021-07-08T15:02:07Z</time>
      </trkpt>
      <trkpt lat="48.16812" lon="-3.5773">
        <ele>295</ele>
        <time>2021-07-08T15:02:08Z</time>
      </trkpt>
      <trkpt lat="48.16806" lon="-3.57733">
        <ele>295</ele>
        <time>2021-07-08T15:02:09Z</time>
      </trkpt>
      <trkpt lat="48.16801" lon="-3.57735">
        <ele>295</ele>
        <time>2021-07-08T15:02:10Z</time>
      </trkpt>
      <trkpt lat="48.16795" lon="-3.57738">
        <ele>295</ele>
        <time>2021-07-08T15:02:11Z</time>
      </trkpt>
      <trkpt lat="48.1679" lon="-3.57741">
        <ele>294</ele>
        <time>2021-07-08T15:02:12Z</time>
      </trkpt>
      <trkpt lat="48.16785" lon="-3.57743">
        <ele>294</ele>
        <time>2021-07-08T15:02:13Z</time>
      </trkpt>
      <trkpt lat="48.1678" lon="-3.57746">
        <ele>294</ele>
        <time>2021-07-08T15:02:14Z</time>
      </trkpt>
      <trkpt lat="48.16775" lon="-3.57749">
        <ele>293</ele>
        <time>2021-07-08T15:02:15Z</time>
      </trkpt>
      <trkpt lat="48.16767" lon="-3.57755">
        <ele>293</ele>
        <time>2021-07-08T15:02:17Z</time>
      </trkpt>
      <trkpt lat="48.16762" lon="-3.5776">
        <ele>293</ele>
        <time>2021-07-08T15:02:18Z</time>
      </trkpt>
      <trkpt lat="48.16757" lon="-3.57765">
        <ele>293</ele>
        <time>2021-07-08T15:02:19Z</time>
      </trkpt>
      <trkpt lat="48.16752" lon="-3.5777">
        <ele>293</ele>
        <time>2021-07-08T15:02:20Z</time>
      </trkpt>
      <trkpt lat="48.16748" lon="-3.57776">
        <ele>293</ele>
        <time>2021-07-08T15:02:21Z</time>
      </trkpt>
      <trkpt lat="48.16743" lon="-3.57782">
        <ele>293</ele>
        <time>2021-07-08T15:02:22Z</time>
      </trkpt>
      <trkpt lat="48.16739" lon="-3.57789">
        <ele>293</ele>
        <time>2021-07-08T15:02:23Z</time>
      </trkpt>
      <trkpt lat="48.16735" lon="-3.57796">
        <ele>292</ele>
        <time>2021-07-08T15:02:24Z</time>
      </trkpt>
      <trkpt lat="48.1673" lon="-3.57803">
        <ele>292</ele>
        <time>2021-07-08T15:02:25Z</time>
      </trkpt>
      <trkpt lat="48.16726" lon="-3.5781">
        <ele>291</ele>
        <time>2021-07-08T15:02:26Z</time>
      </trkpt>
      <trkpt lat="48.16722" lon="-3.57818">
        <ele>291</ele>
        <time>2021-07-08T15:02:27Z</time>
      </trkpt>
      <trkpt lat="48.16718" lon="-3.57825">
        <ele>291</ele>
        <time>2021-07-08T15:02:28Z</time>
      </trkpt>
      <trkpt lat="48.16714" lon="-3.57832">
        <ele>291</ele>
        <time>2021-07-08T15:02:29Z</time>
      </trkpt>
      <trkpt lat="48.1671" lon="-3.57839">
        <ele>291</ele>
        <time>2021-07-08T15:02:30Z</time>
      </trkpt>
      <trkpt lat="48.16703" lon="-3.57852">
        <ele>291</ele>
        <time>2021-07-08T15:02:32Z</time>
      </trkpt>
      <trkpt lat="48.167" lon="-3.57858">
        <ele>291</ele>
        <time>2021-07-08T15:02:33Z</time>
      </trkpt>
      <trkpt lat="48.16696" lon="-3.57865">
        <ele>291</ele>
        <time>2021-07-08T15:02:34Z</time>
      </trkpt>
      <trkpt lat="48.16693" lon="-3.57871">
        <ele>291</ele>
        <time>2021-07-08T15:02:35Z</time>
      </trkpt>
      <trkpt lat="48.1669" lon="-3.57878">
        <ele>291</ele>
        <time>2021-07-08T15:02:36Z</time>
      </trkpt>
      <trkpt lat="48.16687" lon="-3.57884">
        <ele>291</ele>
        <time>2021-07-08T15:02:37Z</time>
      </trkpt>
      <trkpt lat="48.16683" lon="-3.5789">
        <ele>290</ele>
        <time>2021-07-08T15:02:38Z</time>
      </trkpt>
      <trkpt lat="48.1668" lon="-3.57896">
        <ele>290</ele>
        <time>2021-07-08T15:02:39Z</time>
      </trkpt>
      <trkpt lat="48.16677" lon="-3.57901">
        <ele>290</ele>
        <time>2021-07-08T15:02:40Z</time>
      </trkpt>
      <trkpt lat="48.16674" lon="-3.57906">
        <ele>290</ele>
        <time>2021-07-08T15:02:41Z</time>
      </trkpt>
      <trkpt lat="48.1667" lon="-3.57909">
        <ele>290</ele>
        <time>2021-07-08T15:02:42Z</time>
      </trkpt>
      <trkpt lat="48.16665" lon="-3.57913">
        <ele>288</ele>
        <time>2021-07-08T15:02:43Z</time>
      </trkpt>
      <trkpt lat="48.16659" lon="-3.57916">
        <ele>288</ele>
        <time>2021-07-08T15:02:44Z</time>
      </trkpt>
      <trkpt lat="48.16653" lon="-3.57917">
        <ele>287</ele>
        <time>2021-07-08T15:02:45Z</time>
      </trkpt>
      <trkpt lat="48.16647" lon="-3.57917">
        <ele>287</ele>
        <time>2021-07-08T15:02:47Z</time>
      </trkpt>
      <trkpt lat="48.16642" lon="-3.57918">
        <ele>286</ele>
        <time>2021-07-08T15:02:47Z</time>
      </trkpt>
      <trkpt lat="48.16635" lon="-3.5792">
        <ele>286</ele>
        <time>2021-07-08T15:02:48Z</time>
      </trkpt>
      <trkpt lat="48.16629" lon="-3.57921">
        <ele>285</ele>
        <time>2021-07-08T15:02:49Z</time>
      </trkpt>
      <trkpt lat="48.16623" lon="-3.57923">
        <ele>285</ele>
        <time>2021-07-08T15:02:51Z</time>
      </trkpt>
      <trkpt lat="48.16611" lon="-3.57926">
        <ele>285</ele>
        <time>2021-07-08T15:02:53Z</time>
      </trkpt>
      <trkpt lat="48.16599" lon="-3.57928">
        <ele>285</ele>
        <time>2021-07-08T15:02:54Z</time>
      </trkpt>
      <trkpt lat="48.16587" lon="-3.57932">
        <ele>284</ele>
        <time>2021-07-08T15:02:56Z</time>
      </trkpt>
      <trkpt lat="48.16573" lon="-3.57936">
        <ele>283</ele>
        <time>2021-07-08T15:02:58Z</time>
      </trkpt>
      <trkpt lat="48.1656" lon="-3.57937">
        <ele>283</ele>
        <time>2021-07-08T15:03:00Z</time>
      </trkpt>
      <trkpt lat="48.16554" lon="-3.57938">
        <ele>283</ele>
        <time>2021-07-08T15:03:01Z</time>
      </trkpt>
      <trkpt lat="48.16548" lon="-3.57939">
        <ele>282</ele>
        <time>2021-07-08T15:03:02Z</time>
      </trkpt>
      <trkpt lat="48.16543" lon="-3.57939">
        <ele>282</ele>
        <time>2021-07-08T15:03:03Z</time>
      </trkpt>
      <trkpt lat="48.16538" lon="-3.57939">
        <ele>282</ele>
        <time>2021-07-08T15:03:04Z</time>
      </trkpt>
      <trkpt lat="48.16533" lon="-3.57939">
        <ele>282</ele>
        <time>2021-07-08T15:03:05Z</time>
      </trkpt>
      <trkpt lat="48.1653" lon="-3.57939">
        <ele>282</ele>
        <time>2021-07-08T15:03:06Z</time>
      </trkpt>
      <trkpt lat="48.16527" lon="-3.5794">
        <ele>281</ele>
        <time>2021-07-08T15:03:07Z</time>
      </trkpt>
      <trkpt lat="48.16523" lon="-3.5794">
        <ele>281</ele>
        <time>2021-07-08T15:03:08Z</time>
      </trkpt>
      <trkpt lat="48.1652" lon="-3.57939">
        <ele>280</ele>
        <time>2021-07-08T15:03:09Z</time>
      </trkpt>
      <trkpt lat="48.16515" lon="-3.57939">
        <ele>280</ele>
        <time>2021-07-08T15:03:10Z</time>
      </trkpt>
      <trkpt lat="48.1651" lon="-3.57938">
        <ele>280</ele>
        <time>2021-07-08T15:03:12Z</time>
      </trkpt>
      <trkpt lat="48.16506" lon="-3.57938">
        <ele>280</ele>
        <time>2021-07-08T15:03:12Z</time>
      </trkpt>
      <trkpt lat="48.16501" lon="-3.57937">
        <ele>280</ele>
        <time>2021-07-08T15:03:13Z</time>
      </trkpt>
      <trkpt lat="48.16497" lon="-3.57937">
        <ele>280</ele>
        <time>2021-07-08T15:03:14Z</time>
      </trkpt>
      <trkpt lat="48.16494" lon="-3.57939">
        <ele>280</ele>
        <time>2021-07-08T15:03:15Z</time>
      </trkpt>
      <trkpt lat="48.16492" lon="-3.57941">
        <ele>280</ele>
        <time>2021-07-08T15:03:16Z</time>
      </trkpt>
      <trkpt lat="48.16491" lon="-3.57943">
        <ele>280</ele>
        <time>2021-07-08T15:03:17Z</time>
      </trkpt>
      <trkpt lat="48.16489" lon="-3.57941">
        <ele>281</ele>
        <time>2021-07-08T15:03:26Z</time>
      </trkpt>
      <trkpt lat="48.16487" lon="-3.57943">
        <ele>281</ele>
        <time>2021-07-08T15:03:31Z</time>
      </trkpt>
      <trkpt lat="48.16487" lon="-3.57946">
        <ele>281</ele>
        <time>2021-07-08T15:03:32Z</time>
      </trkpt>
      <trkpt lat="48.16488" lon="-3.57951">
        <ele>281</ele>
        <time>2021-07-08T15:03:34Z</time>
      </trkpt>
      <trkpt lat="48.16488" lon="-3.57955">
        <ele>281</ele>
        <time>2021-07-08T15:03:36Z</time>
      </trkpt>
      <trkpt lat="48.16489" lon="-3.57958">
        <ele>281</ele>
        <time>2021-07-08T15:03:38Z</time>
      </trkpt>
      <trkpt lat="48.16489" lon="-3.57962">
        <ele>281</ele>
        <time>2021-07-08T15:03:39Z</time>
      </trkpt>
      <trkpt lat="48.1649" lon="-3.57966">
        <ele>282</ele>
        <time>2021-07-08T15:03:41Z</time>
      </trkpt>
      <trkpt lat="48.16492" lon="-3.57984">
        <ele>282</ele>
        <time>2021-07-08T15:03:48Z</time>
      </trkpt>
      <trkpt lat="48.16489" lon="-3.57998">
        <ele>282</ele>
        <time>2021-07-08T15:03:50Z</time>
      </trkpt>
      <trkpt lat="48.16485" lon="-3.58011">
        <ele>282</ele>
        <time>2021-07-08T15:03:53Z</time>
      </trkpt>
      <trkpt lat="48.16482" lon="-3.58021">
        <ele>282</ele>
        <time>2021-07-08T15:03:56Z</time>
      </trkpt>
      <trkpt lat="48.16481" lon="-3.58024">
        <ele>282</ele>
        <time>2021-07-08T15:03:57Z</time>
      </trkpt>
      <trkpt lat="48.16479" lon="-3.58028">
        <ele>282</ele>
        <time>2021-07-08T15:03:58Z</time>
      </trkpt>
      <trkpt lat="48.16478" lon="-3.58031">
        <ele>282</ele>
        <time>2021-07-08T15:03:59Z</time>
      </trkpt>
      <trkpt lat="48.16477" lon="-3.58035">
        <ele>282</ele>
        <time>2021-07-08T15:04:00Z</time>
      </trkpt>
      <trkpt lat="48.16477" lon="-3.58039">
        <ele>282</ele>
        <time>2021-07-08T15:04:01Z</time>
      </trkpt>
      <trkpt lat="48.16476" lon="-3.58043">
        <ele>282</ele>
        <time>2021-07-08T15:04:02Z</time>
      </trkpt>
      <trkpt lat="48.16475" lon="-3.58046">
        <ele>282</ele>
        <time>2021-07-08T15:04:03Z</time>
      </trkpt>
      <trkpt lat="48.16475" lon="-3.5805">
        <ele>282</ele>
        <time>2021-07-08T15:04:04Z</time>
      </trkpt>
      <trkpt lat="48.16474" lon="-3.58053">
        <ele>282</ele>
        <time>2021-07-08T15:04:05Z</time>
      </trkpt>
      <trkpt lat="48.16473" lon="-3.58056">
        <ele>283</ele>
        <time>2021-07-08T15:04:07Z</time>
      </trkpt>
      <trkpt lat="48.16472" lon="-3.58059">
        <ele>283</ele>
        <time>2021-07-08T15:04:07Z</time>
      </trkpt>
      <trkpt lat="48.16471" lon="-3.58062">
        <ele>283</ele>
        <time>2021-07-08T15:04:08Z</time>
      </trkpt>
      <trkpt lat="48.1647" lon="-3.58065">
        <ele>283</ele>
        <time>2021-07-08T15:04:09Z</time>
      </trkpt>
      <trkpt lat="48.1647" lon="-3.58069">
        <ele>283</ele>
        <time>2021-07-08T15:04:10Z</time>
      </trkpt>
      <trkpt lat="48.16469" lon="-3.58072">
        <ele>283</ele>
        <time>2021-07-08T15:04:11Z</time>
      </trkpt>
      <trkpt lat="48.16468" lon="-3.58076">
        <ele>283</ele>
        <time>2021-07-08T15:04:12Z</time>
      </trkpt>
      <trkpt lat="48.16466" lon="-3.58079">
        <ele>283</ele>
        <time>2021-07-08T15:04:13Z</time>
      </trkpt>
      <trkpt lat="48.16465" lon="-3.58082">
        <ele>283</ele>
        <time>2021-07-08T15:04:15Z</time>
      </trkpt>
      <trkpt lat="48.16464" lon="-3.58085">
        <ele>283</ele>
        <time>2021-07-08T15:04:15Z</time>
      </trkpt>
      <trkpt lat="48.16464" lon="-3.58088">
        <ele>283</ele>
        <time>2021-07-08T15:04:16Z</time>
      </trkpt>
      <trkpt lat="48.16462" lon="-3.58089">
        <ele>284</ele>
        <time>2021-07-08T15:04:17Z</time>
      </trkpt>
      <trkpt lat="48.1646" lon="-3.58092">
        <ele>284</ele>
        <time>2021-07-08T15:04:19Z</time>
      </trkpt>
      <trkpt lat="48.16457" lon="-3.58092">
        <ele>284</ele>
        <time>2021-07-08T15:04:21Z</time>
      </trkpt>
      <trkpt lat="48.16455" lon="-3.58092">
        <ele>283</ele>
        <time>2021-07-08T15:04:23Z</time>
      </trkpt>
      <trkpt lat="48.16453" lon="-3.58092">
        <ele>283</ele>
        <time>2021-07-08T15:04:25Z</time>
      </trkpt>
      <trkpt lat="48.16451" lon="-3.58092">
        <ele>283</ele>
        <time>2021-07-08T15:04:27Z</time>
      </trkpt>
      <trkpt lat="48.16444" lon="-3.58093">
        <ele>283</ele>
        <time>2021-07-08T15:05:05Z</time>
      </trkpt>
      <trkpt lat="48.16442" lon="-3.58094">
        <ele>283</ele>
        <time>2021-07-08T15:05:05Z</time>
      </trkpt>
      <trkpt lat="48.1644" lon="-3.58095">
        <ele>283</ele>
        <time>2021-07-08T15:05:07Z</time>
      </trkpt>
      <trkpt lat="48.16437" lon="-3.58095">
        <ele>283</ele>
        <time>2021-07-08T15:05:07Z</time>
      </trkpt>
      <trkpt lat="48.16434" lon="-3.58095">
        <ele>283</ele>
        <time>2021-07-08T15:05:08Z</time>
      </trkpt>
      <trkpt lat="48.16431" lon="-3.58095">
        <ele>283</ele>
        <time>2021-07-08T15:05:09Z</time>
      </trkpt>
      <trkpt lat="48.16426" lon="-3.58095">
        <ele>282</ele>
        <time>2021-07-08T15:05:10Z</time>
      </trkpt>
      <trkpt lat="48.16423" lon="-3.58095">
        <ele>282</ele>
        <time>2021-07-08T15:05:11Z</time>
      </trkpt>
      <trkpt lat="48.16419" lon="-3.58095">
        <ele>282</ele>
        <time>2021-07-08T15:05:12Z</time>
      </trkpt>
      <trkpt lat="48.16415" lon="-3.58096">
        <ele>282</ele>
        <time>2021-07-08T15:05:13Z</time>
      </trkpt>
      <trkpt lat="48.16412" lon="-3.58096">
        <ele>282</ele>
        <time>2021-07-08T15:05:14Z</time>
      </trkpt>
      <trkpt lat="48.16408" lon="-3.58097">
        <ele>282</ele>
        <time>2021-07-08T15:05:15Z</time>
      </trkpt>
      <trkpt lat="48.16405" lon="-3.58098">
        <ele>282</ele>
        <time>2021-07-08T15:05:16Z</time>
      </trkpt>
      <trkpt lat="48.16402" lon="-3.58099">
        <ele>282</ele>
        <time>2021-07-08T15:05:17Z</time>
      </trkpt>
      <trkpt lat="48.16399" lon="-3.581">
        <ele>282</ele>
        <time>2021-07-08T15:05:18Z</time>
      </trkpt>
      <trkpt lat="48.16396" lon="-3.58101">
        <ele>282</ele>
        <time>2021-07-08T15:05:19Z</time>
      </trkpt>
      <trkpt lat="48.16394" lon="-3.58102">
        <ele>282</ele>
        <time>2021-07-08T15:05:20Z</time>
      </trkpt>
      <trkpt lat="48.1639" lon="-3.58102">
        <ele>282</ele>
        <time>2021-07-08T15:05:21Z</time>
      </trkpt>
      <trkpt lat="48.16387" lon="-3.58103">
        <ele>282</ele>
        <time>2021-07-08T15:05:22Z</time>
      </trkpt>
      <trkpt lat="48.16384" lon="-3.58104">
        <ele>282</ele>
        <time>2021-07-08T15:05:23Z</time>
      </trkpt>
      <trkpt lat="48.16381" lon="-3.58105">
        <ele>282</ele>
        <time>2021-07-08T15:05:25Z</time>
      </trkpt>
      <trkpt lat="48.16378" lon="-3.58106">
        <ele>282</ele>
        <time>2021-07-08T15:05:26Z</time>
      </trkpt>
      <trkpt lat="48.16375" lon="-3.58108">
        <ele>282</ele>
        <time>2021-07-08T15:05:26Z</time>
      </trkpt>
      <trkpt lat="48.16372" lon="-3.58109">
        <ele>282</ele>
        <time>2021-07-08T15:05:27Z</time>
      </trkpt>
      <trkpt lat="48.16369" lon="-3.58111">
        <ele>282</ele>
        <time>2021-07-08T15:05:28Z</time>
      </trkpt>
      <trkpt lat="48.16366" lon="-3.58112">
        <ele>282</ele>
        <time>2021-07-08T15:05:29Z</time>
      </trkpt>
      <trkpt lat="48.16363" lon="-3.58113">
        <ele>281</ele>
        <time>2021-07-08T15:05:30Z</time>
      </trkpt>
      <trkpt lat="48.1636" lon="-3.58115">
        <ele>281</ele>
        <time>2021-07-08T15:05:31Z</time>
      </trkpt>
      <trkpt lat="48.16356" lon="-3.58116">
        <ele>282</ele>
        <time>2021-07-08T15:05:33Z</time>
      </trkpt>
      <trkpt lat="48.16353" lon="-3.58117">
        <ele>282</ele>
        <time>2021-07-08T15:05:33Z</time>
      </trkpt>
      <trkpt lat="48.1635" lon="-3.58118">
        <ele>282</ele>
        <time>2021-07-08T15:05:34Z</time>
      </trkpt>
      <trkpt lat="48.16346" lon="-3.58119">
        <ele>282</ele>
        <time>2021-07-08T15:05:35Z</time>
      </trkpt>
      <trkpt lat="48.16343" lon="-3.5812">
        <ele>282</ele>
        <time>2021-07-08T15:05:36Z</time>
      </trkpt>
      <trkpt lat="48.16339" lon="-3.58121">
        <ele>282</ele>
        <time>2021-07-08T15:05:37Z</time>
      </trkpt>
      <trkpt lat="48.16336" lon="-3.58123">
        <ele>282</ele>
        <time>2021-07-08T15:05:38Z</time>
      </trkpt>
      <trkpt lat="48.16333" lon="-3.58124">
        <ele>281</ele>
        <time>2021-07-08T15:05:39Z</time>
      </trkpt>
      <trkpt lat="48.16329" lon="-3.58126">
        <ele>281</ele>
        <time>2021-07-08T15:05:40Z</time>
      </trkpt>
      <trkpt lat="48.16326" lon="-3.58128">
        <ele>281</ele>
        <time>2021-07-08T15:05:41Z</time>
      </trkpt>
      <trkpt lat="48.16323" lon="-3.5813">
        <ele>281</ele>
        <time>2021-07-08T15:05:42Z</time>
      </trkpt>
      <trkpt lat="48.16315" lon="-3.58134">
        <ele>281</ele>
        <time>2021-07-08T15:05:44Z</time>
      </trkpt>
      <trkpt lat="48.16312" lon="-3.58137">
        <ele>281</ele>
        <time>2021-07-08T15:05:45Z</time>
      </trkpt>
      <trkpt lat="48.16308" lon="-3.58139">
        <ele>280</ele>
        <time>2021-07-08T15:05:46Z</time>
      </trkpt>
      <trkpt lat="48.16305" lon="-3.58142">
        <ele>280</ele>
        <time>2021-07-08T15:05:47Z</time>
      </trkpt>
      <trkpt lat="48.16302" lon="-3.58145">
        <ele>279</ele>
        <time>2021-07-08T15:05:48Z</time>
      </trkpt>
      <trkpt lat="48.16299" lon="-3.58148">
        <ele>279</ele>
        <time>2021-07-08T15:05:49Z</time>
      </trkpt>
      <trkpt lat="48.16296" lon="-3.5815">
        <ele>279</ele>
        <time>2021-07-08T15:05:50Z</time>
      </trkpt>
      <trkpt lat="48.16292" lon="-3.58152">
        <ele>279</ele>
        <time>2021-07-08T15:05:51Z</time>
      </trkpt>
      <trkpt lat="48.16289" lon="-3.58154">
        <ele>279</ele>
        <time>2021-07-08T15:05:52Z</time>
      </trkpt>
      <trkpt lat="48.16287" lon="-3.58157">
        <ele>279</ele>
        <time>2021-07-08T15:05:53Z</time>
      </trkpt>
      <trkpt lat="48.16283" lon="-3.58159">
        <ele>279</ele>
        <time>2021-07-08T15:05:54Z</time>
      </trkpt>
      <trkpt lat="48.1628" lon="-3.58162">
        <ele>279</ele>
        <time>2021-07-08T15:05:55Z</time>
      </trkpt>
      <trkpt lat="48.16277" lon="-3.58165">
        <ele>279</ele>
        <time>2021-07-08T15:05:56Z</time>
      </trkpt>
      <trkpt lat="48.16273" lon="-3.58168">
        <ele>279</ele>
        <time>2021-07-08T15:05:57Z</time>
      </trkpt>
      <trkpt lat="48.1627" lon="-3.58171">
        <ele>279</ele>
        <time>2021-07-08T15:05:58Z</time>
      </trkpt>
      <trkpt lat="48.16262" lon="-3.58177">
        <ele>279</ele>
        <time>2021-07-08T15:06:00Z</time>
      </trkpt>
      <trkpt lat="48.16249" lon="-3.58189">
        <ele>279</ele>
        <time>2021-07-08T15:06:03Z</time>
      </trkpt>
      <trkpt lat="48.16245" lon="-3.58193">
        <ele>278</ele>
        <time>2021-07-08T15:06:04Z</time>
      </trkpt>
      <trkpt lat="48.16242" lon="-3.58196">
        <ele>278</ele>
        <time>2021-07-08T15:06:05Z</time>
      </trkpt>
      <trkpt lat="48.16238" lon="-3.58198">
        <ele>278</ele>
        <time>2021-07-08T15:06:06Z</time>
      </trkpt>
      <trkpt lat="48.16234" lon="-3.58202">
        <ele>278</ele>
        <time>2021-07-08T15:06:07Z</time>
      </trkpt>
      <trkpt lat="48.1623" lon="-3.58205">
        <ele>278</ele>
        <time>2021-07-08T15:06:08Z</time>
      </trkpt>
      <trkpt lat="48.16225" lon="-3.58208">
        <ele>278</ele>
        <time>2021-07-08T15:06:09Z</time>
      </trkpt>
      <trkpt lat="48.16221" lon="-3.58212">
        <ele>278</ele>
        <time>2021-07-08T15:06:10Z</time>
      </trkpt>
      <trkpt lat="48.16216" lon="-3.58215">
        <ele>278</ele>
        <time>2021-07-08T15:06:11Z</time>
      </trkpt>
      <trkpt lat="48.16213" lon="-3.58219">
        <ele>277</ele>
        <time>2021-07-08T15:06:12Z</time>
      </trkpt>
      <trkpt lat="48.16209" lon="-3.58222">
        <ele>277</ele>
        <time>2021-07-08T15:06:14Z</time>
      </trkpt>
      <trkpt lat="48.16205" lon="-3.58225">
        <ele>277</ele>
        <time>2021-07-08T15:06:14Z</time>
      </trkpt>
      <trkpt lat="48.16201" lon="-3.58229">
        <ele>277</ele>
        <time>2021-07-08T15:06:15Z</time>
      </trkpt>
      <trkpt lat="48.16197" lon="-3.58232">
        <ele>276</ele>
        <time>2021-07-08T15:06:16Z</time>
      </trkpt>
      <trkpt lat="48.16193" lon="-3.58236">
        <ele>276</ele>
        <time>2021-07-08T15:06:17Z</time>
      </trkpt>
      <trkpt lat="48.16189" lon="-3.5824">
        <ele>276</ele>
        <time>2021-07-08T15:06:18Z</time>
      </trkpt>
      <trkpt lat="48.16185" lon="-3.58243">
        <ele>276</ele>
        <time>2021-07-08T15:06:19Z</time>
      </trkpt>
      <trkpt lat="48.16181" lon="-3.58247">
        <ele>276</ele>
        <time>2021-07-08T15:06:20Z</time>
      </trkpt>
      <trkpt lat="48.16176" lon="-3.5825">
        <ele>275</ele>
        <time>2021-07-08T15:06:22Z</time>
      </trkpt>
      <trkpt lat="48.16171" lon="-3.58254">
        <ele>275</ele>
        <time>2021-07-08T15:06:22Z</time>
      </trkpt>
      <trkpt lat="48.16166" lon="-3.58258">
        <ele>275</ele>
        <time>2021-07-08T15:06:23Z</time>
      </trkpt>
      <trkpt lat="48.16162" lon="-3.58262">
        <ele>275</ele>
        <time>2021-07-08T15:06:24Z</time>
      </trkpt>
      <trkpt lat="48.16157" lon="-3.58266">
        <ele>275</ele>
        <time>2021-07-08T15:06:25Z</time>
      </trkpt>
      <trkpt lat="48.16153" lon="-3.5827">
        <ele>275</ele>
        <time>2021-07-08T15:06:26Z</time>
      </trkpt>
      <trkpt lat="48.16149" lon="-3.58275">
        <ele>275</ele>
        <time>2021-07-08T15:06:27Z</time>
      </trkpt>
      <trkpt lat="48.16146" lon="-3.58279">
        <ele>275</ele>
        <time>2021-07-08T15:06:28Z</time>
      </trkpt>
      <trkpt lat="48.16144" lon="-3.58284">
        <ele>275</ele>
        <time>2021-07-08T15:06:29Z</time>
      </trkpt>
      <trkpt lat="48.16142" lon="-3.58288">
        <ele>275</ele>
        <time>2021-07-08T15:06:30Z</time>
      </trkpt>
      <trkpt lat="48.1614" lon="-3.58292">
        <ele>275</ele>
        <time>2021-07-08T15:06:32Z</time>
      </trkpt>
      <trkpt lat="48.16139" lon="-3.58296">
        <ele>275</ele>
        <time>2021-07-08T15:06:32Z</time>
      </trkpt>
      <trkpt lat="48.16138" lon="-3.58298">
        <ele>275</ele>
        <time>2021-07-08T15:06:33Z</time>
      </trkpt>
      <trkpt lat="48.16136" lon="-3.583">
        <ele>275</ele>
        <time>2021-07-08T15:06:34Z</time>
      </trkpt>
      <trkpt lat="48.16134" lon="-3.58302">
        <ele>275</ele>
        <time>2021-07-08T15:06:35Z</time>
      </trkpt>
      <trkpt lat="48.16131" lon="-3.58304">
        <ele>275</ele>
        <time>2021-07-08T15:06:36Z</time>
      </trkpt>
      <trkpt lat="48.16129" lon="-3.58307">
        <ele>275</ele>
        <time>2021-07-08T15:06:37Z</time>
      </trkpt>
      <trkpt lat="48.16126" lon="-3.5831">
        <ele>275</ele>
        <time>2021-07-08T15:06:38Z</time>
      </trkpt>
      <trkpt lat="48.16122" lon="-3.58314">
        <ele>275</ele>
        <time>2021-07-08T15:06:39Z</time>
      </trkpt>
      <trkpt lat="48.16118" lon="-3.58318">
        <ele>275</ele>
        <time>2021-07-08T15:06:40Z</time>
      </trkpt>
      <trkpt lat="48.16113" lon="-3.58322">
        <ele>275</ele>
        <time>2021-07-08T15:06:41Z</time>
      </trkpt>
      <trkpt lat="48.16109" lon="-3.58326">
        <ele>275</ele>
        <time>2021-07-08T15:06:42Z</time>
      </trkpt>
      <trkpt lat="48.16103" lon="-3.5833">
        <ele>273</ele>
        <time>2021-07-08T15:06:43Z</time>
      </trkpt>
      <trkpt lat="48.16098" lon="-3.58335">
        <ele>273</ele>
        <time>2021-07-08T15:06:44Z</time>
      </trkpt>
      <trkpt lat="48.16093" lon="-3.58339">
        <ele>272</ele>
        <time>2021-07-08T15:06:45Z</time>
      </trkpt>
      <trkpt lat="48.16088" lon="-3.58344">
        <ele>272</ele>
        <time>2021-07-08T15:06:46Z</time>
      </trkpt>
      <trkpt lat="48.16083" lon="-3.58348">
        <ele>271</ele>
        <time>2021-07-08T15:06:47Z</time>
      </trkpt>
      <trkpt lat="48.16079" lon="-3.58351">
        <ele>271</ele>
        <time>2021-07-08T15:06:48Z</time>
      </trkpt>
      <trkpt lat="48.16076" lon="-3.58355">
        <ele>271</ele>
        <time>2021-07-08T15:06:49Z</time>
      </trkpt>
      <trkpt lat="48.16074" lon="-3.58358">
        <ele>271</ele>
        <time>2021-07-08T15:06:50Z</time>
      </trkpt>
      <trkpt lat="48.16073" lon="-3.58361">
        <ele>271</ele>
        <time>2021-07-08T15:06:51Z</time>
      </trkpt>
      <trkpt lat="48.16073" lon="-3.58366">
        <ele>271</ele>
        <time>2021-07-08T15:06:53Z</time>
      </trkpt>
      <trkpt lat="48.16074" lon="-3.58368">
        <ele>271</ele>
        <time>2021-07-08T15:06:54Z</time>
      </trkpt>
      <trkpt lat="48.16076" lon="-3.5837">
        <ele>271</ele>
        <time>2021-07-08T15:06:55Z</time>
      </trkpt>
      <trkpt lat="48.16077" lon="-3.58371">
        <ele>272</ele>
        <time>2021-07-08T15:06:56Z</time>
      </trkpt>
      <trkpt lat="48.16079" lon="-3.58373">
        <ele>272</ele>
        <time>2021-07-08T15:06:57Z</time>
      </trkpt>
      <trkpt lat="48.1608" lon="-3.58375">
        <ele>272</ele>
        <time>2021-07-08T15:06:58Z</time>
      </trkpt>
      <trkpt lat="48.16083" lon="-3.58378">
        <ele>272</ele>
        <time>2021-07-08T15:07:00Z</time>
      </trkpt>
      <trkpt lat="48.16084" lon="-3.5838">
        <ele>272</ele>
        <time>2021-07-08T15:07:01Z</time>
      </trkpt>
      <trkpt lat="48.16086" lon="-3.58382">
        <ele>272</ele>
        <time>2021-07-08T15:07:02Z</time>
      </trkpt>
      <trkpt lat="48.16088" lon="-3.58383">
        <ele>272</ele>
        <time>2021-07-08T15:07:03Z</time>
      </trkpt>
      <trkpt lat="48.1609" lon="-3.58384">
        <ele>272</ele>
        <time>2021-07-08T15:07:04Z</time>
      </trkpt>
      <trkpt lat="48.16092" lon="-3.58386">
        <ele>273</ele>
        <time>2021-07-08T15:07:05Z</time>
      </trkpt>
      <trkpt lat="48.16093" lon="-3.58387">
        <ele>273</ele>
        <time>2021-07-08T15:07:06Z</time>
      </trkpt>
      <trkpt lat="48.16095" lon="-3.58389">
        <ele>273</ele>
        <time>2021-07-08T15:07:07Z</time>
      </trkpt>
      <trkpt lat="48.16096" lon="-3.58392">
        <ele>273</ele>
        <time>2021-07-08T15:07:08Z</time>
      </trkpt>
      <trkpt lat="48.16098" lon="-3.58394">
        <ele>273</ele>
        <time>2021-07-08T15:07:09Z</time>
      </trkpt>
      <trkpt lat="48.16098" lon="-3.58397">
        <ele>273</ele>
        <time>2021-07-08T15:07:10Z</time>
      </trkpt>
      <trkpt lat="48.16098" lon="-3.58399">
        <ele>273</ele>
        <time>2021-07-08T15:07:11Z</time>
      </trkpt>
      <trkpt lat="48.16098" lon="-3.58402">
        <ele>273</ele>
        <time>2021-07-08T15:07:12Z</time>
      </trkpt>
      <trkpt lat="48.16097" lon="-3.58406">
        <ele>273</ele>
        <time>2021-07-08T15:07:13Z</time>
      </trkpt>
      <trkpt lat="48.16096" lon="-3.58409">
        <ele>273</ele>
        <time>2021-07-08T15:07:14Z</time>
      </trkpt>
      <trkpt lat="48.16095" lon="-3.58412">
        <ele>273</ele>
        <time>2021-07-08T15:07:15Z</time>
      </trkpt>
      <trkpt lat="48.16093" lon="-3.58414">
        <ele>273</ele>
        <time>2021-07-08T15:07:16Z</time>
      </trkpt>
      <trkpt lat="48.16092" lon="-3.58416">
        <ele>273</ele>
        <time>2021-07-08T15:07:17Z</time>
      </trkpt>
      <trkpt lat="48.16091" lon="-3.58422">
        <ele>273</ele>
        <time>2021-07-08T15:07:19Z</time>
      </trkpt>
      <trkpt lat="48.16091" lon="-3.58425">
        <ele>273</ele>
        <time>2021-07-08T15:07:20Z</time>
      </trkpt>
      <trkpt lat="48.1609" lon="-3.58428">
        <ele>273</ele>
        <time>2021-07-08T15:07:21Z</time>
      </trkpt>
      <trkpt lat="48.16088" lon="-3.58432">
        <ele>273</ele>
        <time>2021-07-08T15:07:22Z</time>
      </trkpt>
      <trkpt lat="48.16086" lon="-3.58436">
        <ele>273</ele>
        <time>2021-07-08T15:07:23Z</time>
      </trkpt>
      <trkpt lat="48.16085" lon="-3.58441">
        <ele>273</ele>
        <time>2021-07-08T15:07:24Z</time>
      </trkpt>
      <trkpt lat="48.16083" lon="-3.58445">
        <ele>273</ele>
        <time>2021-07-08T15:07:25Z</time>
      </trkpt>
      <trkpt lat="48.16081" lon="-3.5845">
        <ele>273</ele>
        <time>2021-07-08T15:07:26Z</time>
      </trkpt>
      <trkpt lat="48.16079" lon="-3.58455">
        <ele>273</ele>
        <time>2021-07-08T15:07:27Z</time>
      </trkpt>
      <trkpt lat="48.16078" lon="-3.5846">
        <ele>273</ele>
        <time>2021-07-08T15:07:28Z</time>
      </trkpt>
      <trkpt lat="48.16076" lon="-3.58465">
        <ele>273</ele>
        <time>2021-07-08T15:07:29Z</time>
      </trkpt>
      <trkpt lat="48.16074" lon="-3.5847">
        <ele>273</ele>
        <time>2021-07-08T15:07:30Z</time>
      </trkpt>
      <trkpt lat="48.16072" lon="-3.58476">
        <ele>273</ele>
        <time>2021-07-08T15:07:31Z</time>
      </trkpt>
      <trkpt lat="48.1607" lon="-3.58482">
        <ele>273</ele>
        <time>2021-07-08T15:07:32Z</time>
      </trkpt>
      <trkpt lat="48.16068" lon="-3.58488">
        <ele>273</ele>
        <time>2021-07-08T15:07:33Z</time>
      </trkpt>
      <trkpt lat="48.16066" lon="-3.58494">
        <ele>273</ele>
        <time>2021-07-08T15:07:34Z</time>
      </trkpt>
      <trkpt lat="48.16064" lon="-3.585">
        <ele>273</ele>
        <time>2021-07-08T15:07:35Z</time>
      </trkpt>
      <trkpt lat="48.16063" lon="-3.58506">
        <ele>273</ele>
        <time>2021-07-08T15:07:36Z</time>
      </trkpt>
      <trkpt lat="48.16061" lon="-3.58512">
        <ele>273</ele>
        <time>2021-07-08T15:07:37Z</time>
      </trkpt>
      <trkpt lat="48.1606" lon="-3.58518">
        <ele>273</ele>
        <time>2021-07-08T15:07:39Z</time>
      </trkpt>
      <trkpt lat="48.16058" lon="-3.58525">
        <ele>273</ele>
        <time>2021-07-08T15:07:39Z</time>
      </trkpt>
      <trkpt lat="48.16057" lon="-3.58531">
        <ele>273</ele>
        <time>2021-07-08T15:07:40Z</time>
      </trkpt>
      <trkpt lat="48.16055" lon="-3.58538">
        <ele>273</ele>
        <time>2021-07-08T15:07:41Z</time>
      </trkpt>
      <trkpt lat="48.16054" lon="-3.58544">
        <ele>272</ele>
        <time>2021-07-08T15:07:42Z</time>
      </trkpt>
      <trkpt lat="48.16052" lon="-3.58551">
        <ele>272</ele>
        <time>2021-07-08T15:07:43Z</time>
      </trkpt>
      <trkpt lat="48.1605" lon="-3.58557">
        <ele>272</ele>
        <time>2021-07-08T15:07:44Z</time>
      </trkpt>
      <trkpt lat="48.16048" lon="-3.58564">
        <ele>272</ele>
        <time>2021-07-08T15:07:45Z</time>
      </trkpt>
      <trkpt lat="48.16046" lon="-3.5857">
        <ele>272</ele>
        <time>2021-07-08T15:07:46Z</time>
      </trkpt>
      <trkpt lat="48.16044" lon="-3.58577">
        <ele>272</ele>
        <time>2021-07-08T15:07:47Z</time>
      </trkpt>
      <trkpt lat="48.16042" lon="-3.58583">
        <ele>272</ele>
        <time>2021-07-08T15:07:48Z</time>
      </trkpt>
      <trkpt lat="48.16041" lon="-3.5859">
        <ele>272</ele>
        <time>2021-07-08T15:07:49Z</time>
      </trkpt>
      <trkpt lat="48.16039" lon="-3.58597">
        <ele>272</ele>
        <time>2021-07-08T15:07:50Z</time>
      </trkpt>
      <trkpt lat="48.16038" lon="-3.58604">
        <ele>272</ele>
        <time>2021-07-08T15:07:51Z</time>
      </trkpt>
      <trkpt lat="48.16036" lon="-3.58612">
        <ele>272</ele>
        <time>2021-07-08T15:07:52Z</time>
      </trkpt>
      <trkpt lat="48.16035" lon="-3.58619">
        <ele>272</ele>
        <time>2021-07-08T15:07:53Z</time>
      </trkpt>
      <trkpt lat="48.16034" lon="-3.58627">
        <ele>272</ele>
        <time>2021-07-08T15:07:54Z</time>
      </trkpt>
      <trkpt lat="48.16033" lon="-3.58636">
        <ele>271</ele>
        <time>2021-07-08T15:07:55Z</time>
      </trkpt>
      <trkpt lat="48.16032" lon="-3.58643">
        <ele>271</ele>
        <time>2021-07-08T15:07:56Z</time>
      </trkpt>
      <trkpt lat="48.16031" lon="-3.58651">
        <ele>270</ele>
        <time>2021-07-08T15:07:58Z</time>
      </trkpt>
      <trkpt lat="48.1603" lon="-3.58658">
        <ele>270</ele>
        <time>2021-07-08T15:07:58Z</time>
      </trkpt>
      <trkpt lat="48.16029" lon="-3.58665">
        <ele>269</ele>
        <time>2021-07-08T15:07:59Z</time>
      </trkpt>
      <trkpt lat="48.16028" lon="-3.58672">
        <ele>269</ele>
        <time>2021-07-08T15:08:00Z</time>
      </trkpt>
      <trkpt lat="48.16027" lon="-3.5868">
        <ele>269</ele>
        <time>2021-07-08T15:08:01Z</time>
      </trkpt>
      <trkpt lat="48.16026" lon="-3.58688">
        <ele>269</ele>
        <time>2021-07-08T15:08:02Z</time>
      </trkpt>
      <trkpt lat="48.16026" lon="-3.58695">
        <ele>269</ele>
        <time>2021-07-08T15:08:03Z</time>
      </trkpt>
      <trkpt lat="48.16025" lon="-3.58703">
        <ele>269</ele>
        <time>2021-07-08T15:08:04Z</time>
      </trkpt>
      <trkpt lat="48.16024" lon="-3.5871">
        <ele>269</ele>
        <time>2021-07-08T15:08:05Z</time>
      </trkpt>
      <trkpt lat="48.16023" lon="-3.58717">
        <ele>269</ele>
        <time>2021-07-08T15:08:06Z</time>
      </trkpt>
      <trkpt lat="48.16023" lon="-3.58724">
        <ele>269</ele>
        <time>2021-07-08T15:08:07Z</time>
      </trkpt>
      <trkpt lat="48.16022" lon="-3.58732">
        <ele>269</ele>
        <time>2021-07-08T15:08:08Z</time>
      </trkpt>
      <trkpt lat="48.16021" lon="-3.5874">
        <ele>269</ele>
        <time>2021-07-08T15:08:09Z</time>
      </trkpt>
      <trkpt lat="48.16021" lon="-3.58747">
        <ele>269</ele>
        <time>2021-07-08T15:08:10Z</time>
      </trkpt>
      <trkpt lat="48.1602" lon="-3.58754">
        <ele>269</ele>
        <time>2021-07-08T15:08:11Z</time>
      </trkpt>
      <trkpt lat="48.1602" lon="-3.58762">
        <ele>268</ele>
        <time>2021-07-08T15:08:12Z</time>
      </trkpt>
      <trkpt lat="48.16019" lon="-3.58769">
        <ele>268</ele>
        <time>2021-07-08T15:08:13Z</time>
      </trkpt>
      <trkpt lat="48.16019" lon="-3.58777">
        <ele>268</ele>
        <time>2021-07-08T15:08:14Z</time>
      </trkpt>
      <trkpt lat="48.16018" lon="-3.58784">
        <ele>268</ele>
        <time>2021-07-08T15:08:15Z</time>
      </trkpt>
      <trkpt lat="48.16016" lon="-3.58798">
        <ele>268</ele>
        <time>2021-07-08T15:08:17Z</time>
      </trkpt>
      <trkpt lat="48.16014" lon="-3.58805">
        <ele>267</ele>
        <time>2021-07-08T15:08:18Z</time>
      </trkpt>
      <trkpt lat="48.16013" lon="-3.58812">
        <ele>267</ele>
        <time>2021-07-08T15:08:19Z</time>
      </trkpt>
      <trkpt lat="48.16013" lon="-3.58819">
        <ele>267</ele>
        <time>2021-07-08T15:08:21Z</time>
      </trkpt>
      <trkpt lat="48.16012" lon="-3.58826">
        <ele>267</ele>
        <time>2021-07-08T15:08:21Z</time>
      </trkpt>
      <trkpt lat="48.16012" lon="-3.58833">
        <ele>267</ele>
        <time>2021-07-08T15:08:22Z</time>
      </trkpt>
      <trkpt lat="48.16012" lon="-3.5884">
        <ele>267</ele>
        <time>2021-07-08T15:08:23Z</time>
      </trkpt>
      <trkpt lat="48.16012" lon="-3.58847">
        <ele>267</ele>
        <time>2021-07-08T15:08:24Z</time>
      </trkpt>
      <trkpt lat="48.16011" lon="-3.58853">
        <ele>267</ele>
        <time>2021-07-08T15:08:25Z</time>
      </trkpt>
      <trkpt lat="48.1601" lon="-3.58859">
        <ele>267</ele>
        <time>2021-07-08T15:08:26Z</time>
      </trkpt>
      <trkpt lat="48.16009" lon="-3.58866">
        <ele>267</ele>
        <time>2021-07-08T15:08:27Z</time>
      </trkpt>
      <trkpt lat="48.16008" lon="-3.58873">
        <ele>267</ele>
        <time>2021-07-08T15:08:28Z</time>
      </trkpt>
      <trkpt lat="48.16007" lon="-3.5888">
        <ele>267</ele>
        <time>2021-07-08T15:08:29Z</time>
      </trkpt>
      <trkpt lat="48.16006" lon="-3.58887">
        <ele>267</ele>
        <time>2021-07-08T15:08:30Z</time>
      </trkpt>
      <trkpt lat="48.16005" lon="-3.58895">
        <ele>267</ele>
        <time>2021-07-08T15:08:31Z</time>
      </trkpt>
      <trkpt lat="48.16004" lon="-3.58902">
        <ele>267</ele>
        <time>2021-07-08T15:08:32Z</time>
      </trkpt>
      <trkpt lat="48.16003" lon="-3.58909">
        <ele>267</ele>
        <time>2021-07-08T15:08:33Z</time>
      </trkpt>
      <trkpt lat="48.16001" lon="-3.58916">
        <ele>267</ele>
        <time>2021-07-08T15:08:34Z</time>
      </trkpt>
      <trkpt lat="48.16" lon="-3.58923">
        <ele>267</ele>
        <time>2021-07-08T15:08:36Z</time>
      </trkpt>
      <trkpt lat="48.15998" lon="-3.5893">
        <ele>267</ele>
        <time>2021-07-08T15:08:36Z</time>
      </trkpt>
      <trkpt lat="48.15996" lon="-3.58937">
        <ele>267</ele>
        <time>2021-07-08T15:08:37Z</time>
      </trkpt>
      <trkpt lat="48.15994" lon="-3.58944">
        <ele>266</ele>
        <time>2021-07-08T15:08:38Z</time>
      </trkpt>
      <trkpt lat="48.15992" lon="-3.5895">
        <ele>266</ele>
        <time>2021-07-08T15:08:39Z</time>
      </trkpt>
      <trkpt lat="48.1599" lon="-3.58956">
        <ele>266</ele>
        <time>2021-07-08T15:08:40Z</time>
      </trkpt>
      <trkpt lat="48.15988" lon="-3.58963">
        <ele>266</ele>
        <time>2021-07-08T15:08:41Z</time>
      </trkpt>
      <trkpt lat="48.15987" lon="-3.5897">
        <ele>266</ele>
        <time>2021-07-08T15:08:42Z</time>
      </trkpt>
      <trkpt lat="48.15985" lon="-3.58977">
        <ele>266</ele>
        <time>2021-07-08T15:08:43Z</time>
      </trkpt>
      <trkpt lat="48.15983" lon="-3.58983">
        <ele>266</ele>
        <time>2021-07-08T15:08:44Z</time>
      </trkpt>
      <trkpt lat="48.15981" lon="-3.5899">
        <ele>266</ele>
        <time>2021-07-08T15:08:45Z</time>
      </trkpt>
      <trkpt lat="48.15979" lon="-3.58996">
        <ele>266</ele>
        <time>2021-07-08T15:08:46Z</time>
      </trkpt>
      <trkpt lat="48.15977" lon="-3.59002">
        <ele>266</ele>
        <time>2021-07-08T15:08:47Z</time>
      </trkpt>
      <trkpt lat="48.15975" lon="-3.59008">
        <ele>265</ele>
        <time>2021-07-08T15:08:48Z</time>
      </trkpt>
      <trkpt lat="48.15973" lon="-3.59014">
        <ele>265</ele>
        <time>2021-07-08T15:08:49Z</time>
      </trkpt>
      <trkpt lat="48.15971" lon="-3.59021">
        <ele>265</ele>
        <time>2021-07-08T15:08:50Z</time>
      </trkpt>
      <trkpt lat="48.15969" lon="-3.59027">
        <ele>265</ele>
        <time>2021-07-08T15:08:51Z</time>
      </trkpt>
      <trkpt lat="48.15966" lon="-3.59033">
        <ele>265</ele>
        <time>2021-07-08T15:08:52Z</time>
      </trkpt>
      <trkpt lat="48.15963" lon="-3.59039">
        <ele>265</ele>
        <time>2021-07-08T15:08:53Z</time>
      </trkpt>
      <trkpt lat="48.1596" lon="-3.59045">
        <ele>265</ele>
        <time>2021-07-08T15:08:54Z</time>
      </trkpt>
      <trkpt lat="48.15957" lon="-3.5905">
        <ele>264</ele>
        <time>2021-07-08T15:08:55Z</time>
      </trkpt>
      <trkpt lat="48.15954" lon="-3.59055">
        <ele>264</ele>
        <time>2021-07-08T15:08:56Z</time>
      </trkpt>
      <trkpt lat="48.15951" lon="-3.5906">
        <ele>265</ele>
        <time>2021-07-08T15:08:57Z</time>
      </trkpt>
      <trkpt lat="48.15948" lon="-3.59066">
        <ele>265</ele>
        <time>2021-07-08T15:08:58Z</time>
      </trkpt>
      <trkpt lat="48.15944" lon="-3.59071">
        <ele>265</ele>
        <time>2021-07-08T15:08:59Z</time>
      </trkpt>
      <trkpt lat="48.15941" lon="-3.59075">
        <ele>265</ele>
        <time>2021-07-08T15:09:00Z</time>
      </trkpt>
      <trkpt lat="48.15938" lon="-3.5908">
        <ele>265</ele>
        <time>2021-07-08T15:09:01Z</time>
      </trkpt>
      <trkpt lat="48.15935" lon="-3.59084">
        <ele>265</ele>
        <time>2021-07-08T15:09:02Z</time>
      </trkpt>
      <trkpt lat="48.15932" lon="-3.59089">
        <ele>265</ele>
        <time>2021-07-08T15:09:03Z</time>
      </trkpt>
      <trkpt lat="48.15929" lon="-3.59093">
        <ele>265</ele>
        <time>2021-07-08T15:09:04Z</time>
      </trkpt>
      <trkpt lat="48.15925" lon="-3.59098">
        <ele>265</ele>
        <time>2021-07-08T15:09:05Z</time>
      </trkpt>
      <trkpt lat="48.15922" lon="-3.59103">
        <ele>265</ele>
        <time>2021-07-08T15:09:06Z</time>
      </trkpt>
      <trkpt lat="48.15918" lon="-3.59107">
        <ele>264</ele>
        <time>2021-07-08T15:09:07Z</time>
      </trkpt>
      <trkpt lat="48.15914" lon="-3.59111">
        <ele>264</ele>
        <time>2021-07-08T15:09:08Z</time>
      </trkpt>
      <trkpt lat="48.1591" lon="-3.59115">
        <ele>264</ele>
        <time>2021-07-08T15:09:09Z</time>
      </trkpt>
      <trkpt lat="48.15906" lon="-3.59119">
        <ele>264</ele>
        <time>2021-07-08T15:09:11Z</time>
      </trkpt>
      <trkpt lat="48.15902" lon="-3.59123">
        <ele>264</ele>
        <time>2021-07-08T15:09:11Z</time>
      </trkpt>
      <trkpt lat="48.15899" lon="-3.59127">
        <ele>264</ele>
        <time>2021-07-08T15:09:12Z</time>
      </trkpt>
      <trkpt lat="48.15895" lon="-3.59131">
        <ele>264</ele>
        <time>2021-07-08T15:09:13Z</time>
      </trkpt>
      <trkpt lat="48.15891" lon="-3.59134">
        <ele>263</ele>
        <time>2021-07-08T15:09:15Z</time>
      </trkpt>
      <trkpt lat="48.15887" lon="-3.59138">
        <ele>263</ele>
        <time>2021-07-08T15:09:15Z</time>
      </trkpt>
      <trkpt lat="48.15883" lon="-3.59141">
        <ele>262</ele>
        <time>2021-07-08T15:09:16Z</time>
      </trkpt>
      <trkpt lat="48.15879" lon="-3.59145">
        <ele>262</ele>
        <time>2021-07-08T15:09:17Z</time>
      </trkpt>
      <trkpt lat="48.15875" lon="-3.59149">
        <ele>262</ele>
        <time>2021-07-08T15:09:18Z</time>
      </trkpt>
      <trkpt lat="48.15872" lon="-3.59152">
        <ele>262</ele>
        <time>2021-07-08T15:09:19Z</time>
      </trkpt>
      <trkpt lat="48.15868" lon="-3.59156">
        <ele>262</ele>
        <time>2021-07-08T15:09:20Z</time>
      </trkpt>
      <trkpt lat="48.15864" lon="-3.5916">
        <ele>262</ele>
        <time>2021-07-08T15:09:21Z</time>
      </trkpt>
      <trkpt lat="48.15856" lon="-3.59168">
        <ele>262</ele>
        <time>2021-07-08T15:09:23Z</time>
      </trkpt>
      <trkpt lat="48.15852" lon="-3.59172">
        <ele>261</ele>
        <time>2021-07-08T15:09:24Z</time>
      </trkpt>
      <trkpt lat="48.15848" lon="-3.59176">
        <ele>261</ele>
        <time>2021-07-08T15:09:25Z</time>
      </trkpt>
      <trkpt lat="48.15844" lon="-3.5918">
        <ele>261</ele>
        <time>2021-07-08T15:09:26Z</time>
      </trkpt>
      <trkpt lat="48.1584" lon="-3.59183">
        <ele>261</ele>
        <time>2021-07-08T15:09:27Z</time>
      </trkpt>
      <trkpt lat="48.15836" lon="-3.59187">
        <ele>261</ele>
        <time>2021-07-08T15:09:28Z</time>
      </trkpt>
      <trkpt lat="48.15832" lon="-3.5919">
        <ele>261</ele>
        <time>2021-07-08T15:09:29Z</time>
      </trkpt>
      <trkpt lat="48.15828" lon="-3.59194">
        <ele>261</ele>
        <time>2021-07-08T15:09:30Z</time>
      </trkpt>
      <trkpt lat="48.15825" lon="-3.59198">
        <ele>261</ele>
        <time>2021-07-08T15:09:31Z</time>
      </trkpt>
      <trkpt lat="48.15821" lon="-3.59201">
        <ele>261</ele>
        <time>2021-07-08T15:09:32Z</time>
      </trkpt>
      <trkpt lat="48.15817" lon="-3.59205">
        <ele>261</ele>
        <time>2021-07-08T15:09:33Z</time>
      </trkpt>
      <trkpt lat="48.15813" lon="-3.59209">
        <ele>261</ele>
        <time>2021-07-08T15:09:34Z</time>
      </trkpt>
      <trkpt lat="48.15809" lon="-3.59212">
        <ele>261</ele>
        <time>2021-07-08T15:09:35Z</time>
      </trkpt>
      <trkpt lat="48.15805" lon="-3.59216">
        <ele>261</ele>
        <time>2021-07-08T15:09:36Z</time>
      </trkpt>
      <trkpt lat="48.15801" lon="-3.59219">
        <ele>261</ele>
        <time>2021-07-08T15:09:37Z</time>
      </trkpt>
      <trkpt lat="48.15797" lon="-3.59223">
        <ele>260</ele>
        <time>2021-07-08T15:09:38Z</time>
      </trkpt>
      <trkpt lat="48.15793" lon="-3.59227">
        <ele>260</ele>
        <time>2021-07-08T15:09:39Z</time>
      </trkpt>
      <trkpt lat="48.15789" lon="-3.59231">
        <ele>260</ele>
        <time>2021-07-08T15:09:40Z</time>
      </trkpt>
      <trkpt lat="48.15784" lon="-3.59235">
        <ele>260</ele>
        <time>2021-07-08T15:09:41Z</time>
      </trkpt>
      <trkpt lat="48.1578" lon="-3.59239">
        <ele>260</ele>
        <time>2021-07-08T15:09:43Z</time>
      </trkpt>
      <trkpt lat="48.15776" lon="-3.59243">
        <ele>260</ele>
        <time>2021-07-08T15:09:43Z</time>
      </trkpt>
      <trkpt lat="48.15772" lon="-3.59246">
        <ele>260</ele>
        <time>2021-07-08T15:09:44Z</time>
      </trkpt>
      <trkpt lat="48.15767" lon="-3.5925">
        <ele>260</ele>
        <time>2021-07-08T15:09:45Z</time>
      </trkpt>
      <trkpt lat="48.15763" lon="-3.59254">
        <ele>260</ele>
        <time>2021-07-08T15:09:46Z</time>
      </trkpt>
      <trkpt lat="48.15758" lon="-3.59258">
        <ele>260</ele>
        <time>2021-07-08T15:09:47Z</time>
      </trkpt>
      <trkpt lat="48.15754" lon="-3.59262">
        <ele>260</ele>
        <time>2021-07-08T15:09:48Z</time>
      </trkpt>
      <trkpt lat="48.15749" lon="-3.59266">
        <ele>260</ele>
        <time>2021-07-08T15:09:49Z</time>
      </trkpt>
      <trkpt lat="48.15745" lon="-3.5927">
        <ele>260</ele>
        <time>2021-07-08T15:09:50Z</time>
      </trkpt>
      <trkpt lat="48.15741" lon="-3.59273">
        <ele>260</ele>
        <time>2021-07-08T15:09:51Z</time>
      </trkpt>
      <trkpt lat="48.15731" lon="-3.5928">
        <ele>259</ele>
        <time>2021-07-08T15:09:53Z</time>
      </trkpt>
      <trkpt lat="48.15727" lon="-3.59284">
        <ele>259</ele>
        <time>2021-07-08T15:09:54Z</time>
      </trkpt>
      <trkpt lat="48.15722" lon="-3.59288">
        <ele>259</ele>
        <time>2021-07-08T15:09:55Z</time>
      </trkpt>
      <trkpt lat="48.15718" lon="-3.59291">
        <ele>259</ele>
        <time>2021-07-08T15:09:56Z</time>
      </trkpt>
      <trkpt lat="48.15714" lon="-3.59294">
        <ele>259</ele>
        <time>2021-07-08T15:09:57Z</time>
      </trkpt>
      <trkpt lat="48.1571" lon="-3.59298">
        <ele>259</ele>
        <time>2021-07-08T15:09:58Z</time>
      </trkpt>
      <trkpt lat="48.15706" lon="-3.59301">
        <ele>259</ele>
        <time>2021-07-08T15:09:59Z</time>
      </trkpt>
      <trkpt lat="48.15701" lon="-3.59305">
        <ele>258</ele>
        <time>2021-07-08T15:10:00Z</time>
      </trkpt>
      <trkpt lat="48.15696" lon="-3.59309">
        <ele>258</ele>
        <time>2021-07-08T15:10:01Z</time>
      </trkpt>
      <trkpt lat="48.15692" lon="-3.59312">
        <ele>258</ele>
        <time>2021-07-08T15:10:02Z</time>
      </trkpt>
      <trkpt lat="48.15687" lon="-3.59315">
        <ele>258</ele>
        <time>2021-07-08T15:10:03Z</time>
      </trkpt>
      <trkpt lat="48.15683" lon="-3.59319">
        <ele>257</ele>
        <time>2021-07-08T15:10:04Z</time>
      </trkpt>
      <trkpt lat="48.15678" lon="-3.59322">
        <ele>257</ele>
        <time>2021-07-08T15:10:05Z</time>
      </trkpt>
      <trkpt lat="48.15674" lon="-3.59325">
        <ele>257</ele>
        <time>2021-07-08T15:10:06Z</time>
      </trkpt>
      <trkpt lat="48.15669" lon="-3.59328">
        <ele>257</ele>
        <time>2021-07-08T15:10:07Z</time>
      </trkpt>
      <trkpt lat="48.15665" lon="-3.59332">
        <ele>257</ele>
        <time>2021-07-08T15:10:08Z</time>
      </trkpt>
      <trkpt lat="48.1566" lon="-3.59335">
        <ele>257</ele>
        <time>2021-07-08T15:10:09Z</time>
      </trkpt>
      <trkpt lat="48.15656" lon="-3.59338">
        <ele>257</ele>
        <time>2021-07-08T15:10:10Z</time>
      </trkpt>
      <trkpt lat="48.15651" lon="-3.59342">
        <ele>257</ele>
        <time>2021-07-08T15:10:11Z</time>
      </trkpt>
      <trkpt lat="48.15647" lon="-3.59345">
        <ele>257</ele>
        <time>2021-07-08T15:10:13Z</time>
      </trkpt>
      <trkpt lat="48.15642" lon="-3.59349">
        <ele>257</ele>
        <time>2021-07-08T15:10:13Z</time>
      </trkpt>
      <trkpt lat="48.15638" lon="-3.59352">
        <ele>257</ele>
        <time>2021-07-08T15:10:14Z</time>
      </trkpt>
      <trkpt lat="48.15633" lon="-3.59355">
        <ele>257</ele>
        <time>2021-07-08T15:10:15Z</time>
      </trkpt>
      <trkpt lat="48.15628" lon="-3.59358">
        <ele>256</ele>
        <time>2021-07-08T15:10:17Z</time>
      </trkpt>
      <trkpt lat="48.15624" lon="-3.59361">
        <ele>256</ele>
        <time>2021-07-08T15:10:17Z</time>
      </trkpt>
      <trkpt lat="48.15619" lon="-3.59365">
        <ele>256</ele>
        <time>2021-07-08T15:10:18Z</time>
      </trkpt>
      <trkpt lat="48.15614" lon="-3.59368">
        <ele>256</ele>
        <time>2021-07-08T15:10:19Z</time>
      </trkpt>
      <trkpt lat="48.1561" lon="-3.59372">
        <ele>256</ele>
        <time>2021-07-08T15:10:20Z</time>
      </trkpt>
      <trkpt lat="48.15605" lon="-3.59375">
        <ele>255</ele>
        <time>2021-07-08T15:10:21Z</time>
      </trkpt>
      <trkpt lat="48.156" lon="-3.59377">
        <ele>255</ele>
        <time>2021-07-08T15:10:22Z</time>
      </trkpt>
      <trkpt lat="48.15595" lon="-3.59379">
        <ele>255</ele>
        <time>2021-07-08T15:10:23Z</time>
      </trkpt>
      <trkpt lat="48.15589" lon="-3.5938">
        <ele>255</ele>
        <time>2021-07-08T15:10:24Z</time>
      </trkpt>
      <trkpt lat="48.15584" lon="-3.5938">
        <ele>255</ele>
        <time>2021-07-08T15:10:25Z</time>
      </trkpt>
      <trkpt lat="48.15578" lon="-3.59381">
        <ele>255</ele>
        <time>2021-07-08T15:10:26Z</time>
      </trkpt>
      <trkpt lat="48.15573" lon="-3.59382">
        <ele>255</ele>
        <time>2021-07-08T15:10:27Z</time>
      </trkpt>
      <trkpt lat="48.15568" lon="-3.59382">
        <ele>254</ele>
        <time>2021-07-08T15:10:28Z</time>
      </trkpt>
      <trkpt lat="48.15562" lon="-3.59383">
        <ele>254</ele>
        <time>2021-07-08T15:10:29Z</time>
      </trkpt>
      <trkpt lat="48.15557" lon="-3.59383">
        <ele>254</ele>
        <time>2021-07-08T15:10:30Z</time>
      </trkpt>
      <trkpt lat="48.15552" lon="-3.59382">
        <ele>254</ele>
        <time>2021-07-08T15:10:32Z</time>
      </trkpt>
      <trkpt lat="48.15547" lon="-3.59381">
        <ele>254</ele>
        <time>2021-07-08T15:10:32Z</time>
      </trkpt>
      <trkpt lat="48.15543" lon="-3.59378">
        <ele>254</ele>
        <time>2021-07-08T15:10:33Z</time>
      </trkpt>
      <trkpt lat="48.1554" lon="-3.59375">
        <ele>253</ele>
        <time>2021-07-08T15:10:34Z</time>
      </trkpt>
      <trkpt lat="48.15537" lon="-3.59371">
        <ele>253</ele>
        <time>2021-07-08T15:10:35Z</time>
      </trkpt>
      <trkpt lat="48.15535" lon="-3.59366">
        <ele>252</ele>
        <time>2021-07-08T15:10:36Z</time>
      </trkpt>
      <trkpt lat="48.15535" lon="-3.59361">
        <ele>252</ele>
        <time>2021-07-08T15:10:37Z</time>
      </trkpt>
      <trkpt lat="48.15534" lon="-3.59356">
        <ele>251</ele>
        <time>2021-07-08T15:10:38Z</time>
      </trkpt>
      <trkpt lat="48.15535" lon="-3.59352">
        <ele>251</ele>
        <time>2021-07-08T15:10:39Z</time>
      </trkpt>
      <trkpt lat="48.15535" lon="-3.59347">
        <ele>250</ele>
        <time>2021-07-08T15:10:47Z</time>
      </trkpt>
      <trkpt lat="48.15535" lon="-3.59344">
        <ele>250</ele>
        <time>2021-07-08T15:10:48Z</time>
      </trkpt>
      <trkpt lat="48.15535" lon="-3.59338">
        <ele>250</ele>
        <time>2021-07-08T15:10:51Z</time>
      </trkpt>
      <trkpt lat="48.15536" lon="-3.59333">
        <ele>250</ele>
        <time>2021-07-08T15:10:52Z</time>
      </trkpt>
      <trkpt lat="48.15536" lon="-3.5933">
        <ele>249</ele>
        <time>2021-07-08T15:10:53Z</time>
      </trkpt>
      <trkpt lat="48.15536" lon="-3.59327">
        <ele>249</ele>
        <time>2021-07-08T15:10:54Z</time>
      </trkpt>
      <trkpt lat="48.15536" lon="-3.59324">
        <ele>249</ele>
        <time>2021-07-08T15:10:55Z</time>
      </trkpt>
      <trkpt lat="48.15527" lon="-3.59314">
        <ele>249</ele>
        <time>2021-07-08T15:10:57Z</time>
      </trkpt>
      <trkpt lat="48.15515" lon="-3.59323">
        <ele>249</ele>
        <time>2021-07-08T15:11:00Z</time>
      </trkpt>
      <trkpt lat="48.15505" lon="-3.59331">
        <ele>249</ele>
        <time>2021-07-08T15:11:03Z</time>
      </trkpt>
      <trkpt lat="48.155" lon="-3.59332">
        <ele>249</ele>
        <time>2021-07-08T15:11:05Z</time>
      </trkpt>
      <trkpt lat="48.15497" lon="-3.59333">
        <ele>249</ele>
        <time>2021-07-08T15:11:06Z</time>
      </trkpt>
      <trkpt lat="48.15494" lon="-3.59332">
        <ele>249</ele>
        <time>2021-07-08T15:11:07Z</time>
      </trkpt>
      <trkpt lat="48.15492" lon="-3.5933">
        <ele>249</ele>
        <time>2021-07-08T15:11:09Z</time>
      </trkpt>
      <trkpt lat="48.15489" lon="-3.59327">
        <ele>249</ele>
        <time>2021-07-08T15:11:09Z</time>
      </trkpt>
      <trkpt lat="48.15487" lon="-3.59324">
        <ele>249</ele>
        <time>2021-07-08T15:11:10Z</time>
      </trkpt>
      <trkpt lat="48.15485" lon="-3.59319">
        <ele>249</ele>
        <time>2021-07-08T15:11:11Z</time>
      </trkpt>
      <trkpt lat="48.15483" lon="-3.59315">
        <ele>249</ele>
        <time>2021-07-08T15:11:12Z</time>
      </trkpt>
      <trkpt lat="48.15481" lon="-3.59309">
        <ele>249</ele>
        <time>2021-07-08T15:11:13Z</time>
      </trkpt>
      <trkpt lat="48.15479" lon="-3.59303">
        <ele>249</ele>
        <time>2021-07-08T15:11:14Z</time>
      </trkpt>
      <trkpt lat="48.15479" lon="-3.59297">
        <ele>249</ele>
        <time>2021-07-08T15:11:15Z</time>
      </trkpt>
      <trkpt lat="48.15479" lon="-3.59291">
        <ele>249</ele>
        <time>2021-07-08T15:11:16Z</time>
      </trkpt>
      <trkpt lat="48.15479" lon="-3.59285">
        <ele>248</ele>
        <time>2021-07-08T15:11:17Z</time>
      </trkpt>
      <trkpt lat="48.1548" lon="-3.5928">
        <ele>248</ele>
        <time>2021-07-08T15:11:18Z</time>
      </trkpt>
      <trkpt lat="48.15481" lon="-3.59274">
        <ele>248</ele>
        <time>2021-07-08T15:11:19Z</time>
      </trkpt>
      <trkpt lat="48.15481" lon="-3.5927">
        <ele>248</ele>
        <time>2021-07-08T15:11:20Z</time>
      </trkpt>
      <trkpt lat="48.1548" lon="-3.59266">
        <ele>248</ele>
        <time>2021-07-08T15:11:21Z</time>
      </trkpt>
      <trkpt lat="48.15479" lon="-3.59263">
        <ele>248</ele>
        <time>2021-07-08T15:11:22Z</time>
      </trkpt>
      <trkpt lat="48.15478" lon="-3.59261">
        <ele>247</ele>
        <time>2021-07-08T15:11:23Z</time>
      </trkpt>
      <trkpt lat="48.15465" lon="-3.59255">
        <ele>247</ele>
        <time>2021-07-08T15:11:28Z</time>
      </trkpt>
      <trkpt lat="48.15456" lon="-3.59254">
        <ele>247</ele>
        <time>2021-07-08T15:11:30Z</time>
      </trkpt>
      <trkpt lat="48.15448" lon="-3.59262">
        <ele>246</ele>
        <time>2021-07-08T15:11:32Z</time>
      </trkpt>
      <trkpt lat="48.15447" lon="-3.59266">
        <ele>246</ele>
        <time>2021-07-08T15:11:33Z</time>
      </trkpt>
      <trkpt lat="48.15446" lon="-3.59271">
        <ele>246</ele>
        <time>2021-07-08T15:11:34Z</time>
      </trkpt>
      <trkpt lat="48.15447" lon="-3.59276">
        <ele>246</ele>
        <time>2021-07-08T15:11:35Z</time>
      </trkpt>
      <trkpt lat="48.15447" lon="-3.5928">
        <ele>246</ele>
        <time>2021-07-08T15:11:36Z</time>
      </trkpt>
      <trkpt lat="48.15447" lon="-3.59285">
        <ele>246</ele>
        <time>2021-07-08T15:11:37Z</time>
      </trkpt>
      <trkpt lat="48.15447" lon="-3.59289">
        <ele>246</ele>
        <time>2021-07-08T15:11:38Z</time>
      </trkpt>
      <trkpt lat="48.15447" lon="-3.59293">
        <ele>246</ele>
        <time>2021-07-08T15:11:39Z</time>
      </trkpt>
      <trkpt lat="48.15448" lon="-3.59296">
        <ele>246</ele>
        <time>2021-07-08T15:11:40Z</time>
      </trkpt>
      <trkpt lat="48.15448" lon="-3.59299">
        <ele>246</ele>
        <time>2021-07-08T15:11:41Z</time>
      </trkpt>
      <trkpt lat="48.15449" lon="-3.59303">
        <ele>246</ele>
        <time>2021-07-08T15:11:42Z</time>
      </trkpt>
      <trkpt lat="48.15449" lon="-3.59306">
        <ele>247</ele>
        <time>2021-07-08T15:11:43Z</time>
      </trkpt>
      <trkpt lat="48.1545" lon="-3.59308">
        <ele>247</ele>
        <time>2021-07-08T15:11:44Z</time>
      </trkpt>
      <trkpt lat="48.15451" lon="-3.59311">
        <ele>247</ele>
        <time>2021-07-08T15:11:45Z</time>
      </trkpt>
      <trkpt lat="48.15451" lon="-3.59315">
        <ele>247</ele>
        <time>2021-07-08T15:11:46Z</time>
      </trkpt>
      <trkpt lat="48.15452" lon="-3.59318">
        <ele>247</ele>
        <time>2021-07-08T15:11:47Z</time>
      </trkpt>
      <trkpt lat="48.15452" lon="-3.59321">
        <ele>247</ele>
        <time>2021-07-08T15:11:49Z</time>
      </trkpt>
      <trkpt lat="48.15452" lon="-3.59324">
        <ele>247</ele>
        <time>2021-07-08T15:11:50Z</time>
      </trkpt>
      <trkpt lat="48.15452" lon="-3.59327">
        <ele>247</ele>
        <time>2021-07-08T15:11:50Z</time>
      </trkpt>
      <trkpt lat="48.15453" lon="-3.59331">
        <ele>248</ele>
        <time>2021-07-08T15:11:51Z</time>
      </trkpt>
      <trkpt lat="48.15453" lon="-3.59334">
        <ele>248</ele>
        <time>2021-07-08T15:11:52Z</time>
      </trkpt>
      <trkpt lat="48.15453" lon="-3.59338">
        <ele>248</ele>
        <time>2021-07-08T15:11:53Z</time>
      </trkpt>
      <trkpt lat="48.15453" lon="-3.59341">
        <ele>248</ele>
        <time>2021-07-08T15:11:54Z</time>
      </trkpt>
      <trkpt lat="48.15453" lon="-3.59345">
        <ele>248</ele>
        <time>2021-07-08T15:11:55Z</time>
      </trkpt>
      <trkpt lat="48.15453" lon="-3.59348">
        <ele>248</ele>
        <time>2021-07-08T15:11:56Z</time>
      </trkpt>
      <trkpt lat="48.15453" lon="-3.59352">
        <ele>248</ele>
        <time>2021-07-08T15:11:57Z</time>
      </trkpt>
      <trkpt lat="48.15453" lon="-3.59355">
        <ele>248</ele>
        <time>2021-07-08T15:11:58Z</time>
      </trkpt>
      <trkpt lat="48.15452" lon="-3.59359">
        <ele>248</ele>
        <time>2021-07-08T15:11:59Z</time>
      </trkpt>
      <trkpt lat="48.1545" lon="-3.59361">
        <ele>248</ele>
        <time>2021-07-08T15:12:00Z</time>
      </trkpt>
      <trkpt lat="48.15449" lon="-3.59364">
        <ele>248</ele>
        <time>2021-07-08T15:12:01Z</time>
      </trkpt>
      <trkpt lat="48.15446" lon="-3.59366">
        <ele>248</ele>
        <time>2021-07-08T15:12:02Z</time>
      </trkpt>
      <trkpt lat="48.15444" lon="-3.59368">
        <ele>248</ele>
        <time>2021-07-08T15:12:03Z</time>
      </trkpt>
      <trkpt lat="48.15441" lon="-3.59369">
        <ele>248</ele>
        <time>2021-07-08T15:12:04Z</time>
      </trkpt>
      <trkpt lat="48.15439" lon="-3.59369">
        <ele>248</ele>
        <time>2021-07-08T15:12:05Z</time>
      </trkpt>
      <trkpt lat="48.15436" lon="-3.59369">
        <ele>248</ele>
        <time>2021-07-08T15:12:06Z</time>
      </trkpt>
      <trkpt lat="48.15429" lon="-3.59368">
        <ele>248</ele>
        <time>2021-07-08T15:12:08Z</time>
      </trkpt>
      <trkpt lat="48.15426" lon="-3.59367">
        <ele>248</ele>
        <time>2021-07-08T15:12:09Z</time>
      </trkpt>
      <trkpt lat="48.15422" lon="-3.59366">
        <ele>248</ele>
        <time>2021-07-08T15:12:10Z</time>
      </trkpt>
      <trkpt lat="48.15417" lon="-3.59366">
        <ele>248</ele>
        <time>2021-07-08T15:12:11Z</time>
      </trkpt>
      <trkpt lat="48.15413" lon="-3.59364">
        <ele>248</ele>
        <time>2021-07-08T15:12:12Z</time>
      </trkpt>
      <trkpt lat="48.15409" lon="-3.59363">
        <ele>248</ele>
        <time>2021-07-08T15:12:13Z</time>
      </trkpt>
      <trkpt lat="48.15404" lon="-3.59363">
        <ele>248</ele>
        <time>2021-07-08T15:12:14Z</time>
      </trkpt>
      <trkpt lat="48.15399" lon="-3.59363">
        <ele>248</ele>
        <time>2021-07-08T15:12:15Z</time>
      </trkpt>
      <trkpt lat="48.15395" lon="-3.59363">
        <ele>247</ele>
        <time>2021-07-08T15:12:16Z</time>
      </trkpt>
      <trkpt lat="48.15391" lon="-3.59364">
        <ele>247</ele>
        <time>2021-07-08T15:12:17Z</time>
      </trkpt>
      <trkpt lat="48.15386" lon="-3.59366">
        <ele>247</ele>
        <time>2021-07-08T15:12:18Z</time>
      </trkpt>
      <trkpt lat="48.1538" lon="-3.59367">
        <ele>247</ele>
        <time>2021-07-08T15:12:19Z</time>
      </trkpt>
      <trkpt lat="48.15375" lon="-3.59369">
        <ele>247</ele>
        <time>2021-07-08T15:12:20Z</time>
      </trkpt>
      <trkpt lat="48.15369" lon="-3.59372">
        <ele>245</ele>
        <time>2021-07-08T15:12:21Z</time>
      </trkpt>
      <trkpt lat="48.15363" lon="-3.59374">
        <ele>245</ele>
        <time>2021-07-08T15:12:22Z</time>
      </trkpt>
      <trkpt lat="48.15357" lon="-3.59378">
        <ele>245</ele>
        <time>2021-07-08T15:12:23Z</time>
      </trkpt>
      <trkpt lat="48.15351" lon="-3.59382">
        <ele>245</ele>
        <time>2021-07-08T15:12:24Z</time>
      </trkpt>
      <trkpt lat="48.15346" lon="-3.59386">
        <ele>245</ele>
        <time>2021-07-08T15:12:25Z</time>
      </trkpt>
      <trkpt lat="48.1534" lon="-3.59391">
        <ele>245</ele>
        <time>2021-07-08T15:12:26Z</time>
      </trkpt>
      <trkpt lat="48.15335" lon="-3.59396">
        <ele>245</ele>
        <time>2021-07-08T15:12:27Z</time>
      </trkpt>
      <trkpt lat="48.15329" lon="-3.59402">
        <ele>244</ele>
        <time>2021-07-08T15:12:28Z</time>
      </trkpt>
      <trkpt lat="48.15325" lon="-3.59408">
        <ele>244</ele>
        <time>2021-07-08T15:12:30Z</time>
      </trkpt>
      <trkpt lat="48.1532" lon="-3.59415">
        <ele>243</ele>
        <time>2021-07-08T15:12:30Z</time>
      </trkpt>
      <trkpt lat="48.15316" lon="-3.59422">
        <ele>243</ele>
        <time>2021-07-08T15:12:31Z</time>
      </trkpt>
      <trkpt lat="48.15313" lon="-3.59428">
        <ele>243</ele>
        <time>2021-07-08T15:12:32Z</time>
      </trkpt>
      <trkpt lat="48.15309" lon="-3.59435">
        <ele>243</ele>
        <time>2021-07-08T15:12:33Z</time>
      </trkpt>
      <trkpt lat="48.15303" lon="-3.59448">
        <ele>243</ele>
        <time>2021-07-08T15:12:35Z</time>
      </trkpt>
      <trkpt lat="48.153" lon="-3.59455">
        <ele>243</ele>
        <time>2021-07-08T15:12:36Z</time>
      </trkpt>
      <trkpt lat="48.15298" lon="-3.59461">
        <ele>243</ele>
        <time>2021-07-08T15:12:37Z</time>
      </trkpt>
      <trkpt lat="48.15296" lon="-3.59468">
        <ele>242</ele>
        <time>2021-07-08T15:12:38Z</time>
      </trkpt>
      <trkpt lat="48.15293" lon="-3.59474">
        <ele>242</ele>
        <time>2021-07-08T15:12:39Z</time>
      </trkpt>
      <trkpt lat="48.15291" lon="-3.5948">
        <ele>242</ele>
        <time>2021-07-08T15:12:40Z</time>
      </trkpt>
      <trkpt lat="48.15289" lon="-3.59486">
        <ele>242</ele>
        <time>2021-07-08T15:12:41Z</time>
      </trkpt>
      <trkpt lat="48.15288" lon="-3.59492">
        <ele>242</ele>
        <time>2021-07-08T15:12:42Z</time>
      </trkpt>
      <trkpt lat="48.15286" lon="-3.59497">
        <ele>242</ele>
        <time>2021-07-08T15:12:43Z</time>
      </trkpt>
      <trkpt lat="48.15284" lon="-3.59503">
        <ele>242</ele>
        <time>2021-07-08T15:12:44Z</time>
      </trkpt>
      <trkpt lat="48.15282" lon="-3.59513">
        <ele>242</ele>
        <time>2021-07-08T15:12:46Z</time>
      </trkpt>
      <trkpt lat="48.1528" lon="-3.59517">
        <ele>242</ele>
        <time>2021-07-08T15:12:47Z</time>
      </trkpt>
      <trkpt lat="48.15279" lon="-3.59521">
        <ele>242</ele>
        <time>2021-07-08T15:12:48Z</time>
      </trkpt>
      <trkpt lat="48.15277" lon="-3.59525">
        <ele>242</ele>
        <time>2021-07-08T15:12:49Z</time>
      </trkpt>
      <trkpt lat="48.15276" lon="-3.59528">
        <ele>242</ele>
        <time>2021-07-08T15:12:50Z</time>
      </trkpt>
      <trkpt lat="48.15274" lon="-3.59531">
        <ele>242</ele>
        <time>2021-07-08T15:12:51Z</time>
      </trkpt>
      <trkpt lat="48.15273" lon="-3.59533">
        <ele>242</ele>
        <time>2021-07-08T15:12:52Z</time>
      </trkpt>
      <trkpt lat="48.15273" lon="-3.59537">
        <ele>242</ele>
        <time>2021-07-08T15:12:54Z</time>
      </trkpt>
      <trkpt lat="48.15272" lon="-3.5954">
        <ele>242</ele>
        <time>2021-07-08T15:12:59Z</time>
      </trkpt>
      <trkpt lat="48.15271" lon="-3.59544">
        <ele>242</ele>
        <time>2021-07-08T15:13:02Z</time>
      </trkpt>
      <trkpt lat="48.1527" lon="-3.59547">
        <ele>242</ele>
        <time>2021-07-08T15:13:05Z</time>
      </trkpt>
      <trkpt lat="48.15269" lon="-3.5955">
        <ele>242</ele>
        <time>2021-07-08T15:13:06Z</time>
      </trkpt>
      <trkpt lat="48.15268" lon="-3.59553">
        <ele>242</ele>
        <time>2021-07-08T15:13:09Z</time>
      </trkpt>
      <trkpt lat="48.15265" lon="-3.59557">
        <ele>242</ele>
        <time>2021-07-08T15:13:11Z</time>
      </trkpt>
      <trkpt lat="48.15265" lon="-3.5956">
        <ele>242</ele>
        <time>2021-07-08T15:13:12Z</time>
      </trkpt>
      <trkpt lat="48.15263" lon="-3.59563">
        <ele>242</ele>
        <time>2021-07-08T15:13:13Z</time>
      </trkpt>
      <trkpt lat="48.15263" lon="-3.59566">
        <ele>243</ele>
        <time>2021-07-08T15:13:14Z</time>
      </trkpt>
      <trkpt lat="48.15262" lon="-3.5957">
        <ele>243</ele>
        <time>2021-07-08T15:13:15Z</time>
      </trkpt>
      <trkpt lat="48.1526" lon="-3.59573">
        <ele>243</ele>
        <time>2021-07-08T15:13:16Z</time>
      </trkpt>
      <trkpt lat="48.15259" lon="-3.59577">
        <ele>243</ele>
        <time>2021-07-08T15:13:17Z</time>
      </trkpt>
      <trkpt lat="48.15258" lon="-3.59581">
        <ele>243</ele>
        <time>2021-07-08T15:13:18Z</time>
      </trkpt>
      <trkpt lat="48.15256" lon="-3.59584">
        <ele>243</ele>
        <time>2021-07-08T15:13:19Z</time>
      </trkpt>
      <trkpt lat="48.15255" lon="-3.59588">
        <ele>243</ele>
        <time>2021-07-08T15:13:20Z</time>
      </trkpt>
      <trkpt lat="48.15254" lon="-3.59592">
        <ele>243</ele>
        <time>2021-07-08T15:13:21Z</time>
      </trkpt>
      <trkpt lat="48.15252" lon="-3.59596">
        <ele>243</ele>
        <time>2021-07-08T15:13:22Z</time>
      </trkpt>
      <trkpt lat="48.15251" lon="-3.596">
        <ele>243</ele>
        <time>2021-07-08T15:13:23Z</time>
      </trkpt>
      <trkpt lat="48.15248" lon="-3.59607">
        <ele>242</ele>
        <time>2021-07-08T15:13:25Z</time>
      </trkpt>
      <trkpt lat="48.15246" lon="-3.59612">
        <ele>242</ele>
        <time>2021-07-08T15:13:26Z</time>
      </trkpt>
      <trkpt lat="48.15245" lon="-3.59616">
        <ele>242</ele>
        <time>2021-07-08T15:13:27Z</time>
      </trkpt>
      <trkpt lat="48.15243" lon="-3.5962">
        <ele>242</ele>
        <time>2021-07-08T15:13:29Z</time>
      </trkpt>
      <trkpt lat="48.15242" lon="-3.59625">
        <ele>242</ele>
        <time>2021-07-08T15:13:29Z</time>
      </trkpt>
      <trkpt lat="48.1524" lon="-3.59629">
        <ele>242</ele>
        <time>2021-07-08T15:13:30Z</time>
      </trkpt>
      <trkpt lat="48.15238" lon="-3.59634">
        <ele>242</ele>
        <time>2021-07-08T15:13:31Z</time>
      </trkpt>
      <trkpt lat="48.15237" lon="-3.59639">
        <ele>242</ele>
        <time>2021-07-08T15:13:32Z</time>
      </trkpt>
      <trkpt lat="48.15235" lon="-3.59643">
        <ele>242</ele>
        <time>2021-07-08T15:13:33Z</time>
      </trkpt>
      <trkpt lat="48.15233" lon="-3.59648">
        <ele>242</ele>
        <time>2021-07-08T15:13:34Z</time>
      </trkpt>
      <trkpt lat="48.15232" lon="-3.59653">
        <ele>242</ele>
        <time>2021-07-08T15:13:35Z</time>
      </trkpt>
      <trkpt lat="48.1523" lon="-3.59658">
        <ele>242</ele>
        <time>2021-07-08T15:13:36Z</time>
      </trkpt>
      <trkpt lat="48.15228" lon="-3.59663">
        <ele>242</ele>
        <time>2021-07-08T15:13:37Z</time>
      </trkpt>
      <trkpt lat="48.15227" lon="-3.59667">
        <ele>242</ele>
        <time>2021-07-08T15:13:38Z</time>
      </trkpt>
      <trkpt lat="48.15225" lon="-3.59671">
        <ele>242</ele>
        <time>2021-07-08T15:13:39Z</time>
      </trkpt>
      <trkpt lat="48.15224" lon="-3.59676">
        <ele>242</ele>
        <time>2021-07-08T15:13:40Z</time>
      </trkpt>
      <trkpt lat="48.15222" lon="-3.5968">
        <ele>242</ele>
        <time>2021-07-08T15:13:41Z</time>
      </trkpt>
      <trkpt lat="48.1522" lon="-3.59684">
        <ele>242</ele>
        <time>2021-07-08T15:13:42Z</time>
      </trkpt>
      <trkpt lat="48.15219" lon="-3.59689">
        <ele>242</ele>
        <time>2021-07-08T15:13:43Z</time>
      </trkpt>
      <trkpt lat="48.15215" lon="-3.59697">
        <ele>242</ele>
        <time>2021-07-08T15:13:45Z</time>
      </trkpt>
      <trkpt lat="48.15214" lon="-3.59701">
        <ele>242</ele>
        <time>2021-07-08T15:13:46Z</time>
      </trkpt>
      <trkpt lat="48.15212" lon="-3.59706">
        <ele>242</ele>
        <time>2021-07-08T15:13:47Z</time>
      </trkpt>
      <trkpt lat="48.15211" lon="-3.5971">
        <ele>242</ele>
        <time>2021-07-08T15:13:48Z</time>
      </trkpt>
      <trkpt lat="48.15209" lon="-3.59714">
        <ele>242</ele>
        <time>2021-07-08T15:13:49Z</time>
      </trkpt>
      <trkpt lat="48.15208" lon="-3.59718">
        <ele>242</ele>
        <time>2021-07-08T15:13:50Z</time>
      </trkpt>
      <trkpt lat="48.15206" lon="-3.59721">
        <ele>242</ele>
        <time>2021-07-08T15:13:51Z</time>
      </trkpt>
      <trkpt lat="48.15205" lon="-3.59725">
        <ele>242</ele>
        <time>2021-07-08T15:13:52Z</time>
      </trkpt>
      <trkpt lat="48.15203" lon="-3.59729">
        <ele>242</ele>
        <time>2021-07-08T15:13:53Z</time>
      </trkpt>
      <trkpt lat="48.15202" lon="-3.59733">
        <ele>242</ele>
        <time>2021-07-08T15:13:54Z</time>
      </trkpt>
      <trkpt lat="48.152" lon="-3.59737">
        <ele>242</ele>
        <time>2021-07-08T15:13:55Z</time>
      </trkpt>
      <trkpt lat="48.15199" lon="-3.59741">
        <ele>242</ele>
        <time>2021-07-08T15:13:56Z</time>
      </trkpt>
      <trkpt lat="48.15198" lon="-3.59745">
        <ele>242</ele>
        <time>2021-07-08T15:13:57Z</time>
      </trkpt>
      <trkpt lat="48.15197" lon="-3.59749">
        <ele>242</ele>
        <time>2021-07-08T15:13:58Z</time>
      </trkpt>
      <trkpt lat="48.15195" lon="-3.59753">
        <ele>242</ele>
        <time>2021-07-08T15:13:59Z</time>
      </trkpt>
      <trkpt lat="48.15194" lon="-3.59758">
        <ele>242</ele>
        <time>2021-07-08T15:14:00Z</time>
      </trkpt>
      <trkpt lat="48.15192" lon="-3.59762">
        <ele>242</ele>
        <time>2021-07-08T15:14:01Z</time>
      </trkpt>
      <trkpt lat="48.15191" lon="-3.59766">
        <ele>242</ele>
        <time>2021-07-08T15:14:02Z</time>
      </trkpt>
      <trkpt lat="48.15187" lon="-3.59775">
        <ele>242</ele>
        <time>2021-07-08T15:14:04Z</time>
      </trkpt>
      <trkpt lat="48.15186" lon="-3.59779">
        <ele>242</ele>
        <time>2021-07-08T15:14:05Z</time>
      </trkpt>
      <trkpt lat="48.15184" lon="-3.59783">
        <ele>242</ele>
        <time>2021-07-08T15:14:06Z</time>
      </trkpt>
      <trkpt lat="48.15182" lon="-3.59787">
        <ele>242</ele>
        <time>2021-07-08T15:14:07Z</time>
      </trkpt>
      <trkpt lat="48.15181" lon="-3.59792">
        <ele>242</ele>
        <time>2021-07-08T15:14:08Z</time>
      </trkpt>
      <trkpt lat="48.15179" lon="-3.59796">
        <ele>242</ele>
        <time>2021-07-08T15:14:09Z</time>
      </trkpt>
      <trkpt lat="48.15178" lon="-3.598">
        <ele>242</ele>
        <time>2021-07-08T15:14:10Z</time>
      </trkpt>
      <trkpt lat="48.15176" lon="-3.59805">
        <ele>242</ele>
        <time>2021-07-08T15:14:11Z</time>
      </trkpt>
      <trkpt lat="48.15175" lon="-3.59809">
        <ele>242</ele>
        <time>2021-07-08T15:14:12Z</time>
      </trkpt>
      <trkpt lat="48.15173" lon="-3.59813">
        <ele>242</ele>
        <time>2021-07-08T15:14:13Z</time>
      </trkpt>
      <trkpt lat="48.15171" lon="-3.59817">
        <ele>242</ele>
        <time>2021-07-08T15:14:14Z</time>
      </trkpt>
      <trkpt lat="48.1517" lon="-3.59821">
        <ele>242</ele>
        <time>2021-07-08T15:14:15Z</time>
      </trkpt>
      <trkpt lat="48.15168" lon="-3.59826">
        <ele>242</ele>
        <time>2021-07-08T15:14:16Z</time>
      </trkpt>
      <trkpt lat="48.15166" lon="-3.5983">
        <ele>242</ele>
        <time>2021-07-08T15:14:17Z</time>
      </trkpt>
      <trkpt lat="48.15164" lon="-3.59834">
        <ele>242</ele>
        <time>2021-07-08T15:14:18Z</time>
      </trkpt>
      <trkpt lat="48.15163" lon="-3.59839">
        <ele>242</ele>
        <time>2021-07-08T15:14:19Z</time>
      </trkpt>
      <trkpt lat="48.15161" lon="-3.59843">
        <ele>242</ele>
        <time>2021-07-08T15:14:20Z</time>
      </trkpt>
      <trkpt lat="48.15159" lon="-3.59848">
        <ele>242</ele>
        <time>2021-07-08T15:14:21Z</time>
      </trkpt>
      <trkpt lat="48.15156" lon="-3.59857">
        <ele>242</ele>
        <time>2021-07-08T15:14:23Z</time>
      </trkpt>
      <trkpt lat="48.15154" lon="-3.59861">
        <ele>242</ele>
        <time>2021-07-08T15:14:24Z</time>
      </trkpt>
      <trkpt lat="48.15152" lon="-3.59865">
        <ele>242</ele>
        <time>2021-07-08T15:14:25Z</time>
      </trkpt>
      <trkpt lat="48.1515" lon="-3.5987">
        <ele>242</ele>
        <time>2021-07-08T15:14:26Z</time>
      </trkpt>
      <trkpt lat="48.15148" lon="-3.59874">
        <ele>242</ele>
        <time>2021-07-08T15:14:27Z</time>
      </trkpt>
      <trkpt lat="48.15146" lon="-3.59878">
        <ele>242</ele>
        <time>2021-07-08T15:14:29Z</time>
      </trkpt>
      <trkpt lat="48.15144" lon="-3.59882">
        <ele>242</ele>
        <time>2021-07-08T15:14:29Z</time>
      </trkpt>
      <trkpt lat="48.15142" lon="-3.59886">
        <ele>242</ele>
        <time>2021-07-08T15:14:30Z</time>
      </trkpt>
      <trkpt lat="48.1514" lon="-3.59891">
        <ele>242</ele>
        <time>2021-07-08T15:14:31Z</time>
      </trkpt>
      <trkpt lat="48.15138" lon="-3.59895">
        <ele>242</ele>
        <time>2021-07-08T15:14:32Z</time>
      </trkpt>
      <trkpt lat="48.15136" lon="-3.59899">
        <ele>242</ele>
        <time>2021-07-08T15:14:33Z</time>
      </trkpt>
      <trkpt lat="48.15134" lon="-3.59903">
        <ele>242</ele>
        <time>2021-07-08T15:14:34Z</time>
      </trkpt>
      <trkpt lat="48.15132" lon="-3.59907">
        <ele>242</ele>
        <time>2021-07-08T15:14:35Z</time>
      </trkpt>
      <trkpt lat="48.1513" lon="-3.59911">
        <ele>242</ele>
        <time>2021-07-08T15:14:36Z</time>
      </trkpt>
      <trkpt lat="48.15128" lon="-3.59915">
        <ele>242</ele>
        <time>2021-07-08T15:14:37Z</time>
      </trkpt>
      <trkpt lat="48.15126" lon="-3.59919">
        <ele>242</ele>
        <time>2021-07-08T15:14:38Z</time>
      </trkpt>
      <trkpt lat="48.15124" lon="-3.59923">
        <ele>242</ele>
        <time>2021-07-08T15:14:39Z</time>
      </trkpt>
      <trkpt lat="48.15122" lon="-3.59927">
        <ele>242</ele>
        <time>2021-07-08T15:14:40Z</time>
      </trkpt>
      <trkpt lat="48.15116" lon="-3.59935">
        <ele>242</ele>
        <time>2021-07-08T15:14:42Z</time>
      </trkpt>
      <trkpt lat="48.15114" lon="-3.59939">
        <ele>242</ele>
        <time>2021-07-08T15:14:43Z</time>
      </trkpt>
      <trkpt lat="48.15111" lon="-3.59943">
        <ele>242</ele>
        <time>2021-07-08T15:14:44Z</time>
      </trkpt>
      <trkpt lat="48.15109" lon="-3.59947">
        <ele>242</ele>
        <time>2021-07-08T15:14:45Z</time>
      </trkpt>
      <trkpt lat="48.15106" lon="-3.59952">
        <ele>242</ele>
        <time>2021-07-08T15:14:46Z</time>
      </trkpt>
      <trkpt lat="48.15103" lon="-3.59956">
        <ele>242</ele>
        <time>2021-07-08T15:14:47Z</time>
      </trkpt>
      <trkpt lat="48.151" lon="-3.59961">
        <ele>242</ele>
        <time>2021-07-08T15:14:48Z</time>
      </trkpt>
      <trkpt lat="48.15097" lon="-3.59965">
        <ele>242</ele>
        <time>2021-07-08T15:14:49Z</time>
      </trkpt>
      <trkpt lat="48.15094" lon="-3.5997">
        <ele>242</ele>
        <time>2021-07-08T15:14:50Z</time>
      </trkpt>
      <trkpt lat="48.15092" lon="-3.59974">
        <ele>242</ele>
        <time>2021-07-08T15:14:51Z</time>
      </trkpt>
      <trkpt lat="48.15088" lon="-3.59979">
        <ele>242</ele>
        <time>2021-07-08T15:14:52Z</time>
      </trkpt>
      <trkpt lat="48.15085" lon="-3.59983">
        <ele>241</ele>
        <time>2021-07-08T15:14:53Z</time>
      </trkpt>
      <trkpt lat="48.15082" lon="-3.59988">
        <ele>241</ele>
        <time>2021-07-08T15:14:54Z</time>
      </trkpt>
      <trkpt lat="48.15079" lon="-3.59992">
        <ele>241</ele>
        <time>2021-07-08T15:14:55Z</time>
      </trkpt>
      <trkpt lat="48.15076" lon="-3.59997">
        <ele>241</ele>
        <time>2021-07-08T15:14:56Z</time>
      </trkpt>
      <trkpt lat="48.15072" lon="-3.60001">
        <ele>241</ele>
        <time>2021-07-08T15:14:57Z</time>
      </trkpt>
      <trkpt lat="48.15069" lon="-3.60005">
        <ele>241</ele>
        <time>2021-07-08T15:14:58Z</time>
      </trkpt>
      <trkpt lat="48.15066" lon="-3.6001">
        <ele>241</ele>
        <time>2021-07-08T15:14:59Z</time>
      </trkpt>
      <trkpt lat="48.15063" lon="-3.60014">
        <ele>240</ele>
        <time>2021-07-08T15:15:01Z</time>
      </trkpt>
      <trkpt lat="48.1506" lon="-3.60019">
        <ele>240</ele>
        <time>2021-07-08T15:15:01Z</time>
      </trkpt>
      <trkpt lat="48.15057" lon="-3.60023">
        <ele>240</ele>
        <time>2021-07-08T15:15:02Z</time>
      </trkpt>
      <trkpt lat="48.15054" lon="-3.60028">
        <ele>240</ele>
        <time>2021-07-08T15:15:04Z</time>
      </trkpt>
      <trkpt lat="48.15051" lon="-3.60032">
        <ele>240</ele>
        <time>2021-07-08T15:15:04Z</time>
      </trkpt>
      <trkpt lat="48.15048" lon="-3.60037">
        <ele>240</ele>
        <time>2021-07-08T15:15:05Z</time>
      </trkpt>
      <trkpt lat="48.15047" lon="-3.60041">
        <ele>240</ele>
        <time>2021-07-08T15:15:06Z</time>
      </trkpt>
      <trkpt lat="48.15046" lon="-3.60045">
        <ele>239</ele>
        <time>2021-07-08T15:15:07Z</time>
      </trkpt>
      <trkpt lat="48.15045" lon="-3.60047">
        <ele>239</ele>
        <time>2021-07-08T15:15:08Z</time>
      </trkpt>
      <trkpt lat="48.15042" lon="-3.6005">
        <ele>239</ele>
        <time>2021-07-08T15:15:10Z</time>
      </trkpt>
      <trkpt lat="48.15041" lon="-3.60051">
        <ele>239</ele>
        <time>2021-07-08T15:15:11Z</time>
      </trkpt>
      <trkpt lat="48.15039" lon="-3.60053">
        <ele>239</ele>
        <time>2021-07-08T15:15:12Z</time>
      </trkpt>
      <trkpt lat="48.15037" lon="-3.60056">
        <ele>239</ele>
        <time>2021-07-08T15:15:13Z</time>
      </trkpt>
      <trkpt lat="48.15035" lon="-3.60058">
        <ele>239</ele>
        <time>2021-07-08T15:15:14Z</time>
      </trkpt>
      <trkpt lat="48.15033" lon="-3.60061">
        <ele>239</ele>
        <time>2021-07-08T15:15:15Z</time>
      </trkpt>
      <trkpt lat="48.15031" lon="-3.60064">
        <ele>239</ele>
        <time>2021-07-08T15:15:16Z</time>
      </trkpt>
      <trkpt lat="48.15029" lon="-3.60067">
        <ele>239</ele>
        <time>2021-07-08T15:15:17Z</time>
      </trkpt>
      <trkpt lat="48.15027" lon="-3.60069">
        <ele>239</ele>
        <time>2021-07-08T15:15:18Z</time>
      </trkpt>
      <trkpt lat="48.15025" lon="-3.60072">
        <ele>239</ele>
        <time>2021-07-08T15:15:20Z</time>
      </trkpt>
      <trkpt lat="48.15023" lon="-3.60076">
        <ele>239</ele>
        <time>2021-07-08T15:15:20Z</time>
      </trkpt>
      <trkpt lat="48.15022" lon="-3.60078">
        <ele>239</ele>
        <time>2021-07-08T15:15:21Z</time>
      </trkpt>
      <trkpt lat="48.15019" lon="-3.60081">
        <ele>238</ele>
        <time>2021-07-08T15:15:23Z</time>
      </trkpt>
      <trkpt lat="48.15017" lon="-3.60082">
        <ele>238</ele>
        <time>2021-07-08T15:15:24Z</time>
      </trkpt>
      <trkpt lat="48.15015" lon="-3.60084">
        <ele>238</ele>
        <time>2021-07-08T15:15:25Z</time>
      </trkpt>
      <trkpt lat="48.15012" lon="-3.60086">
        <ele>239</ele>
        <time>2021-07-08T15:15:26Z</time>
      </trkpt>
      <trkpt lat="48.1501" lon="-3.60089">
        <ele>239</ele>
        <time>2021-07-08T15:15:27Z</time>
      </trkpt>
      <trkpt lat="48.15008" lon="-3.60093">
        <ele>239</ele>
        <time>2021-07-08T15:15:28Z</time>
      </trkpt>
      <trkpt lat="48.15005" lon="-3.60096">
        <ele>239</ele>
        <time>2021-07-08T15:15:29Z</time>
      </trkpt>
      <trkpt lat="48.15002" lon="-3.60101">
        <ele>239</ele>
        <time>2021-07-08T15:15:30Z</time>
      </trkpt>
      <trkpt lat="48.15" lon="-3.60105">
        <ele>239</ele>
        <time>2021-07-08T15:15:31Z</time>
      </trkpt>
      <trkpt lat="48.14997" lon="-3.60109">
        <ele>239</ele>
        <time>2021-07-08T15:15:32Z</time>
      </trkpt>
      <trkpt lat="48.14994" lon="-3.60113">
        <ele>239</ele>
        <time>2021-07-08T15:15:33Z</time>
      </trkpt>
      <trkpt lat="48.14992" lon="-3.60118">
        <ele>239</ele>
        <time>2021-07-08T15:15:34Z</time>
      </trkpt>
      <trkpt lat="48.14989" lon="-3.60122">
        <ele>239</ele>
        <time>2021-07-08T15:15:35Z</time>
      </trkpt>
      <trkpt lat="48.14986" lon="-3.60126">
        <ele>239</ele>
        <time>2021-07-08T15:15:36Z</time>
      </trkpt>
      <trkpt lat="48.14983" lon="-3.6013">
        <ele>239</ele>
        <time>2021-07-08T15:15:37Z</time>
      </trkpt>
      <trkpt lat="48.14977" lon="-3.60139">
        <ele>239</ele>
        <time>2021-07-08T15:15:39Z</time>
      </trkpt>
      <trkpt lat="48.14974" lon="-3.60144">
        <ele>239</ele>
        <time>2021-07-08T15:15:40Z</time>
      </trkpt>
      <trkpt lat="48.14971" lon="-3.60148">
        <ele>238</ele>
        <time>2021-07-08T15:15:41Z</time>
      </trkpt>
      <trkpt lat="48.14968" lon="-3.60153">
        <ele>238</ele>
        <time>2021-07-08T15:15:42Z</time>
      </trkpt>
      <trkpt lat="48.14964" lon="-3.60158">
        <ele>237</ele>
        <time>2021-07-08T15:15:43Z</time>
      </trkpt>
      <trkpt lat="48.14961" lon="-3.60163">
        <ele>237</ele>
        <time>2021-07-08T15:15:44Z</time>
      </trkpt>
      <trkpt lat="48.14958" lon="-3.60168">
        <ele>237</ele>
        <time>2021-07-08T15:15:45Z</time>
      </trkpt>
      <trkpt lat="48.14955" lon="-3.60173">
        <ele>237</ele>
        <time>2021-07-08T15:15:46Z</time>
      </trkpt>
      <trkpt lat="48.14951" lon="-3.60178">
        <ele>237</ele>
        <time>2021-07-08T15:15:47Z</time>
      </trkpt>
      <trkpt lat="48.14948" lon="-3.60184">
        <ele>237</ele>
        <time>2021-07-08T15:15:48Z</time>
      </trkpt>
      <trkpt lat="48.14944" lon="-3.60189">
        <ele>236</ele>
        <time>2021-07-08T15:15:49Z</time>
      </trkpt>
      <trkpt lat="48.1494" lon="-3.60194">
        <ele>236</ele>
        <time>2021-07-08T15:15:50Z</time>
      </trkpt>
      <trkpt lat="48.14936" lon="-3.60199">
        <ele>236</ele>
        <time>2021-07-08T15:15:51Z</time>
      </trkpt>
      <trkpt lat="48.14933" lon="-3.60204">
        <ele>236</ele>
        <time>2021-07-08T15:15:52Z</time>
      </trkpt>
      <trkpt lat="48.14929" lon="-3.60209">
        <ele>236</ele>
        <time>2021-07-08T15:15:53Z</time>
      </trkpt>
      <trkpt lat="48.14925" lon="-3.60213">
        <ele>236</ele>
        <time>2021-07-08T15:15:54Z</time>
      </trkpt>
      <trkpt lat="48.14921" lon="-3.60217">
        <ele>236</ele>
        <time>2021-07-08T15:15:55Z</time>
      </trkpt>
      <trkpt lat="48.14917" lon="-3.60222">
        <ele>236</ele>
        <time>2021-07-08T15:15:56Z</time>
      </trkpt>
      <trkpt lat="48.14909" lon="-3.6023">
        <ele>236</ele>
        <time>2021-07-08T15:15:58Z</time>
      </trkpt>
      <trkpt lat="48.14904" lon="-3.60233">
        <ele>236</ele>
        <time>2021-07-08T15:15:59Z</time>
      </trkpt>
      <trkpt lat="48.149" lon="-3.60237">
        <ele>236</ele>
        <time>2021-07-08T15:16:00Z</time>
      </trkpt>
      <trkpt lat="48.14896" lon="-3.60241">
        <ele>236</ele>
        <time>2021-07-08T15:16:01Z</time>
      </trkpt>
      <trkpt lat="48.14892" lon="-3.60244">
        <ele>236</ele>
        <time>2021-07-08T15:16:02Z</time>
      </trkpt>
      <trkpt lat="48.14887" lon="-3.60247">
        <ele>236</ele>
        <time>2021-07-08T15:16:03Z</time>
      </trkpt>
      <trkpt lat="48.14883" lon="-3.6025">
        <ele>236</ele>
        <time>2021-07-08T15:16:04Z</time>
      </trkpt>
      <trkpt lat="48.14879" lon="-3.60253">
        <ele>236</ele>
        <time>2021-07-08T15:16:05Z</time>
      </trkpt>
      <trkpt lat="48.14874" lon="-3.60257">
        <ele>236</ele>
        <time>2021-07-08T15:16:06Z</time>
      </trkpt>
      <trkpt lat="48.1487" lon="-3.60259">
        <ele>236</ele>
        <time>2021-07-08T15:16:07Z</time>
      </trkpt>
      <trkpt lat="48.14865" lon="-3.60262">
        <ele>236</ele>
        <time>2021-07-08T15:16:08Z</time>
      </trkpt>
      <trkpt lat="48.14859" lon="-3.60264">
        <ele>236</ele>
        <time>2021-07-08T15:16:09Z</time>
      </trkpt>
      <trkpt lat="48.14854" lon="-3.60266">
        <ele>236</ele>
        <time>2021-07-08T15:16:10Z</time>
      </trkpt>
      <trkpt lat="48.14849" lon="-3.60268">
        <ele>236</ele>
        <time>2021-07-08T15:16:11Z</time>
      </trkpt>
      <trkpt lat="48.14845" lon="-3.6027">
        <ele>236</ele>
        <time>2021-07-08T15:16:12Z</time>
      </trkpt>
      <trkpt lat="48.1484" lon="-3.60271">
        <ele>236</ele>
        <time>2021-07-08T15:16:13Z</time>
      </trkpt>
      <trkpt lat="48.14826" lon="-3.60276">
        <ele>235</ele>
        <time>2021-07-08T15:16:17Z</time>
      </trkpt>
      <trkpt lat="48.14814" lon="-3.60279">
        <ele>235</ele>
        <time>2021-07-08T15:16:19Z</time>
      </trkpt>
      <trkpt lat="48.14802" lon="-3.60283">
        <ele>235</ele>
        <time>2021-07-08T15:16:22Z</time>
      </trkpt>
      <trkpt lat="48.14793" lon="-3.60285">
        <ele>235</ele>
        <time>2021-07-08T15:16:25Z</time>
      </trkpt>
      <trkpt lat="48.14783" lon="-3.60285">
        <ele>236</ele>
        <time>2021-07-08T15:16:28Z</time>
      </trkpt>
      <trkpt lat="48.14773" lon="-3.60283">
        <ele>236</ele>
        <time>2021-07-08T15:16:31Z</time>
      </trkpt>
      <trkpt lat="48.14762" lon="-3.60282">
        <ele>236</ele>
        <time>2021-07-08T15:16:35Z</time>
      </trkpt>
      <trkpt lat="48.14753" lon="-3.6028">
        <ele>236</ele>
        <time>2021-07-08T15:16:39Z</time>
      </trkpt>
      <trkpt lat="48.14742" lon="-3.60278">
        <ele>236</ele>
        <time>2021-07-08T15:16:43Z</time>
      </trkpt>
      <trkpt lat="48.1473" lon="-3.60276">
        <ele>236</ele>
        <time>2021-07-08T15:16:47Z</time>
      </trkpt>
      <trkpt lat="48.14721" lon="-3.60275">
        <ele>236</ele>
        <time>2021-07-08T15:16:50Z</time>
      </trkpt>
      <trkpt lat="48.1471" lon="-3.60276">
        <ele>236</ele>
        <time>2021-07-08T15:16:53Z</time>
      </trkpt>
      <trkpt lat="48.14699" lon="-3.60275">
        <ele>236</ele>
        <time>2021-07-08T15:16:56Z</time>
      </trkpt>
      <trkpt lat="48.1469" lon="-3.60273">
        <ele>236</ele>
        <time>2021-07-08T15:16:59Z</time>
      </trkpt>
      <trkpt lat="48.14678" lon="-3.60271">
        <ele>236</ele>
        <time>2021-07-08T15:17:03Z</time>
      </trkpt>
      <trkpt lat="48.14669" lon="-3.60269">
        <ele>236</ele>
        <time>2021-07-08T15:17:05Z</time>
      </trkpt>
      <trkpt lat="48.14657" lon="-3.60267">
        <ele>236</ele>
        <time>2021-07-08T15:17:07Z</time>
      </trkpt>
      <trkpt lat="48.14645" lon="-3.60264">
        <ele>236</ele>
        <time>2021-07-08T15:17:09Z</time>
      </trkpt>
      <trkpt lat="48.14636" lon="-3.60262">
        <ele>236</ele>
        <time>2021-07-08T15:17:11Z</time>
      </trkpt>
      <trkpt lat="48.14632" lon="-3.60263">
        <ele>236</ele>
        <time>2021-07-08T15:17:12Z</time>
      </trkpt>
      <trkpt lat="48.14629" lon="-3.60264">
        <ele>236</ele>
        <time>2021-07-08T15:17:13Z</time>
      </trkpt>
      <trkpt lat="48.14626" lon="-3.60264">
        <ele>236</ele>
        <time>2021-07-08T15:17:14Z</time>
      </trkpt>
      <trkpt lat="48.14623" lon="-3.60264">
        <ele>236</ele>
        <time>2021-07-08T15:17:15Z</time>
      </trkpt>
      <trkpt lat="48.1462" lon="-3.60264">
        <ele>236</ele>
        <time>2021-07-08T15:17:16Z</time>
      </trkpt>
      <trkpt lat="48.14617" lon="-3.60263">
        <ele>236</ele>
        <time>2021-07-08T15:17:17Z</time>
      </trkpt>
      <trkpt lat="48.14614" lon="-3.60263">
        <ele>236</ele>
        <time>2021-07-08T15:17:18Z</time>
      </trkpt>
      <trkpt lat="48.14611" lon="-3.60262">
        <ele>236</ele>
        <time>2021-07-08T15:17:19Z</time>
      </trkpt>
      <trkpt lat="48.14608" lon="-3.60261">
        <ele>237</ele>
        <time>2021-07-08T15:17:20Z</time>
      </trkpt>
      <trkpt lat="48.14604" lon="-3.60261">
        <ele>237</ele>
        <time>2021-07-08T15:17:21Z</time>
      </trkpt>
      <trkpt lat="48.14601" lon="-3.60261">
        <ele>237</ele>
        <time>2021-07-08T15:17:22Z</time>
      </trkpt>
      <trkpt lat="48.14597" lon="-3.60261">
        <ele>237</ele>
        <time>2021-07-08T15:17:23Z</time>
      </trkpt>
      <trkpt lat="48.14594" lon="-3.60261">
        <ele>237</ele>
        <time>2021-07-08T15:17:24Z</time>
      </trkpt>
      <trkpt lat="48.1459" lon="-3.60261">
        <ele>237</ele>
        <time>2021-07-08T15:17:25Z</time>
      </trkpt>
      <trkpt lat="48.14587" lon="-3.60261">
        <ele>237</ele>
        <time>2021-07-08T15:17:26Z</time>
      </trkpt>
      <trkpt lat="48.14583" lon="-3.6026">
        <ele>237</ele>
        <time>2021-07-08T15:17:27Z</time>
      </trkpt>
      <trkpt lat="48.1458" lon="-3.6026">
        <ele>237</ele>
        <time>2021-07-08T15:17:28Z</time>
      </trkpt>
      <trkpt lat="48.14576" lon="-3.60259">
        <ele>237</ele>
        <time>2021-07-08T15:17:29Z</time>
      </trkpt>
      <trkpt lat="48.14572" lon="-3.60258">
        <ele>237</ele>
        <time>2021-07-08T15:17:30Z</time>
      </trkpt>
      <trkpt lat="48.14568" lon="-3.60258">
        <ele>237</ele>
        <time>2021-07-08T15:17:31Z</time>
      </trkpt>
      <trkpt lat="48.14564" lon="-3.60258">
        <ele>237</ele>
        <time>2021-07-08T15:17:32Z</time>
      </trkpt>
      <trkpt lat="48.14561" lon="-3.60258">
        <ele>237</ele>
        <time>2021-07-08T15:17:33Z</time>
      </trkpt>
      <trkpt lat="48.14557" lon="-3.60258">
        <ele>237</ele>
        <time>2021-07-08T15:17:34Z</time>
      </trkpt>
      <trkpt lat="48.14554" lon="-3.60258">
        <ele>237</ele>
        <time>2021-07-08T15:17:35Z</time>
      </trkpt>
      <trkpt lat="48.1455" lon="-3.60259">
        <ele>238</ele>
        <time>2021-07-08T15:17:36Z</time>
      </trkpt>
      <trkpt lat="48.14548" lon="-3.60258">
        <ele>238</ele>
        <time>2021-07-08T15:17:37Z</time>
      </trkpt>
      <trkpt lat="48.14545" lon="-3.60259">
        <ele>238</ele>
        <time>2021-07-08T15:17:39Z</time>
      </trkpt>
      <trkpt lat="48.14542" lon="-3.60259">
        <ele>238</ele>
        <time>2021-07-08T15:17:39Z</time>
      </trkpt>
      <trkpt lat="48.14538" lon="-3.60259">
        <ele>237</ele>
        <time>2021-07-08T15:17:40Z</time>
      </trkpt>
      <trkpt lat="48.14535" lon="-3.60259">
        <ele>237</ele>
        <time>2021-07-08T15:17:41Z</time>
      </trkpt>
      <trkpt lat="48.14531" lon="-3.60259">
        <ele>238</ele>
        <time>2021-07-08T15:17:42Z</time>
      </trkpt>
      <trkpt lat="48.14528" lon="-3.60258">
        <ele>238</ele>
        <time>2021-07-08T15:17:43Z</time>
      </trkpt>
      <trkpt lat="48.14524" lon="-3.60258">
        <ele>238</ele>
        <time>2021-07-08T15:17:44Z</time>
      </trkpt>
      <trkpt lat="48.1452" lon="-3.60257">
        <ele>238</ele>
        <time>2021-07-08T15:17:45Z</time>
      </trkpt>
      <trkpt lat="48.14516" lon="-3.60257">
        <ele>238</ele>
        <time>2021-07-08T15:17:46Z</time>
      </trkpt>
      <trkpt lat="48.14513" lon="-3.60256">
        <ele>238</ele>
        <time>2021-07-08T15:17:47Z</time>
      </trkpt>
      <trkpt lat="48.14509" lon="-3.60255">
        <ele>238</ele>
        <time>2021-07-08T15:17:48Z</time>
      </trkpt>
      <trkpt lat="48.14506" lon="-3.60255">
        <ele>238</ele>
        <time>2021-07-08T15:17:49Z</time>
      </trkpt>
      <trkpt lat="48.14502" lon="-3.60254">
        <ele>238</ele>
        <time>2021-07-08T15:17:51Z</time>
      </trkpt>
      <trkpt lat="48.14498" lon="-3.60254">
        <ele>238</ele>
        <time>2021-07-08T15:17:51Z</time>
      </trkpt>
      <trkpt lat="48.14494" lon="-3.60253">
        <ele>238</ele>
        <time>2021-07-08T15:17:52Z</time>
      </trkpt>
      <trkpt lat="48.1449" lon="-3.60253">
        <ele>239</ele>
        <time>2021-07-08T15:17:53Z</time>
      </trkpt>
      <trkpt lat="48.14486" lon="-3.60252">
        <ele>239</ele>
        <time>2021-07-08T15:17:54Z</time>
      </trkpt>
      <trkpt lat="48.14483" lon="-3.60252">
        <ele>239</ele>
        <time>2021-07-08T15:17:55Z</time>
      </trkpt>
      <trkpt lat="48.1448" lon="-3.60251">
        <ele>239</ele>
        <time>2021-07-08T15:17:56Z</time>
      </trkpt>
      <trkpt lat="48.14476" lon="-3.6025">
        <ele>239</ele>
        <time>2021-07-08T15:17:57Z</time>
      </trkpt>
      <trkpt lat="48.14466" lon="-3.60249">
        <ele>238</ele>
        <time>2021-07-08T15:18:00Z</time>
      </trkpt>
      <trkpt lat="48.14457" lon="-3.60249">
        <ele>239</ele>
        <time>2021-07-08T15:18:03Z</time>
      </trkpt>
      <trkpt lat="48.14454" lon="-3.60248">
        <ele>239</ele>
        <time>2021-07-08T15:18:04Z</time>
      </trkpt>
      <trkpt lat="48.1445" lon="-3.60248">
        <ele>239</ele>
        <time>2021-07-08T15:18:05Z</time>
      </trkpt>
      <trkpt lat="48.14446" lon="-3.60248">
        <ele>239</ele>
        <time>2021-07-08T15:18:06Z</time>
      </trkpt>
      <trkpt lat="48.14442" lon="-3.60248">
        <ele>239</ele>
        <time>2021-07-08T15:18:07Z</time>
      </trkpt>
      <trkpt lat="48.14439" lon="-3.60248">
        <ele>239</ele>
        <time>2021-07-08T15:18:08Z</time>
      </trkpt>
      <trkpt lat="48.14427" lon="-3.60247">
        <ele>239</ele>
        <time>2021-07-08T15:18:11Z</time>
      </trkpt>
      <trkpt lat="48.14421" lon="-3.60247">
        <ele>239</ele>
        <time>2021-07-08T15:18:12Z</time>
      </trkpt>
      <trkpt lat="48.14417" lon="-3.60246">
        <ele>239</ele>
        <time>2021-07-08T15:18:13Z</time>
      </trkpt>
      <trkpt lat="48.14413" lon="-3.60246">
        <ele>239</ele>
        <time>2021-07-08T15:18:14Z</time>
      </trkpt>
      <trkpt lat="48.14402" lon="-3.60243">
        <ele>240</ele>
        <time>2021-07-08T15:18:17Z</time>
      </trkpt>
      <trkpt lat="48.14398" lon="-3.60241">
        <ele>240</ele>
        <time>2021-07-08T15:18:18Z</time>
      </trkpt>
      <trkpt lat="48.14393" lon="-3.60239">
        <ele>240</ele>
        <time>2021-07-08T15:18:19Z</time>
      </trkpt>
      <trkpt lat="48.1439" lon="-3.60238">
        <ele>240</ele>
        <time>2021-07-08T15:18:20Z</time>
      </trkpt>
      <trkpt lat="48.14386" lon="-3.60237">
        <ele>240</ele>
        <time>2021-07-08T15:18:21Z</time>
      </trkpt>
      <trkpt lat="48.14382" lon="-3.60236">
        <ele>240</ele>
        <time>2021-07-08T15:18:22Z</time>
      </trkpt>
      <trkpt lat="48.14379" lon="-3.60235">
        <ele>240</ele>
        <time>2021-07-08T15:18:23Z</time>
      </trkpt>
      <trkpt lat="48.14374" lon="-3.60234">
        <ele>240</ele>
        <time>2021-07-08T15:18:24Z</time>
      </trkpt>
      <trkpt lat="48.1437" lon="-3.60233">
        <ele>241</ele>
        <time>2021-07-08T15:18:25Z</time>
      </trkpt>
      <trkpt lat="48.14366" lon="-3.60232">
        <ele>241</ele>
        <time>2021-07-08T15:18:26Z</time>
      </trkpt>
      <trkpt lat="48.14362" lon="-3.60231">
        <ele>241</ele>
        <time>2021-07-08T15:18:27Z</time>
      </trkpt>
      <trkpt lat="48.14357" lon="-3.6023">
        <ele>241</ele>
        <time>2021-07-08T15:18:28Z</time>
      </trkpt>
      <trkpt lat="48.14353" lon="-3.60228">
        <ele>241</ele>
        <time>2021-07-08T15:18:30Z</time>
      </trkpt>
      <trkpt lat="48.14349" lon="-3.60227">
        <ele>241</ele>
        <time>2021-07-08T15:18:30Z</time>
      </trkpt>
      <trkpt lat="48.14345" lon="-3.60226">
        <ele>241</ele>
        <time>2021-07-08T15:18:32Z</time>
      </trkpt>
      <trkpt lat="48.14341" lon="-3.60226">
        <ele>240</ele>
        <time>2021-07-08T15:18:32Z</time>
      </trkpt>
      <trkpt lat="48.14337" lon="-3.60225">
        <ele>240</ele>
        <time>2021-07-08T15:18:33Z</time>
      </trkpt>
      <trkpt lat="48.14333" lon="-3.60224">
        <ele>240</ele>
        <time>2021-07-08T15:18:34Z</time>
      </trkpt>
      <trkpt lat="48.14329" lon="-3.60224">
        <ele>240</ele>
        <time>2021-07-08T15:18:35Z</time>
      </trkpt>
      <trkpt lat="48.14325" lon="-3.60223">
        <ele>240</ele>
        <time>2021-07-08T15:18:36Z</time>
      </trkpt>
      <trkpt lat="48.14321" lon="-3.60222">
        <ele>240</ele>
        <time>2021-07-08T15:18:37Z</time>
      </trkpt>
      <trkpt lat="48.14316" lon="-3.60221">
        <ele>240</ele>
        <time>2021-07-08T15:18:38Z</time>
      </trkpt>
      <trkpt lat="48.14312" lon="-3.6022">
        <ele>240</ele>
        <time>2021-07-08T15:18:39Z</time>
      </trkpt>
      <trkpt lat="48.14308" lon="-3.6022">
        <ele>240</ele>
        <time>2021-07-08T15:18:40Z</time>
      </trkpt>
      <trkpt lat="48.14305" lon="-3.6022">
        <ele>240</ele>
        <time>2021-07-08T15:18:41Z</time>
      </trkpt>
      <trkpt lat="48.14301" lon="-3.6022">
        <ele>240</ele>
        <time>2021-07-08T15:18:42Z</time>
      </trkpt>
      <trkpt lat="48.14297" lon="-3.6022">
        <ele>240</ele>
        <time>2021-07-08T15:18:43Z</time>
      </trkpt>
      <trkpt lat="48.14293" lon="-3.60219">
        <ele>239</ele>
        <time>2021-07-08T15:18:44Z</time>
      </trkpt>
      <trkpt lat="48.14289" lon="-3.6022">
        <ele>239</ele>
        <time>2021-07-08T15:18:45Z</time>
      </trkpt>
      <trkpt lat="48.14286" lon="-3.6022">
        <ele>239</ele>
        <time>2021-07-08T15:18:46Z</time>
      </trkpt>
      <trkpt lat="48.14282" lon="-3.6022">
        <ele>239</ele>
        <time>2021-07-08T15:18:47Z</time>
      </trkpt>
      <trkpt lat="48.14275" lon="-3.60218">
        <ele>239</ele>
        <time>2021-07-08T15:18:49Z</time>
      </trkpt>
      <trkpt lat="48.14272" lon="-3.60218">
        <ele>239</ele>
        <time>2021-07-08T15:18:50Z</time>
      </trkpt>
      <trkpt lat="48.14269" lon="-3.60217">
        <ele>239</ele>
        <time>2021-07-08T15:18:51Z</time>
      </trkpt>
      <trkpt lat="48.14266" lon="-3.60217">
        <ele>239</ele>
        <time>2021-07-08T15:18:52Z</time>
      </trkpt>
      <trkpt lat="48.14263" lon="-3.60216">
        <ele>239</ele>
        <time>2021-07-08T15:18:53Z</time>
      </trkpt>
      <trkpt lat="48.1426" lon="-3.60216">
        <ele>239</ele>
        <time>2021-07-08T15:18:54Z</time>
      </trkpt>
      <trkpt lat="48.14257" lon="-3.60215">
        <ele>239</ele>
        <time>2021-07-08T15:18:55Z</time>
      </trkpt>
      <trkpt lat="48.14254" lon="-3.60215">
        <ele>239</ele>
        <time>2021-07-08T15:18:56Z</time>
      </trkpt>
      <trkpt lat="48.14252" lon="-3.60215">
        <ele>239</ele>
        <time>2021-07-08T15:18:57Z</time>
      </trkpt>
      <trkpt lat="48.14249" lon="-3.60215">
        <ele>239</ele>
        <time>2021-07-08T15:18:58Z</time>
      </trkpt>
      <trkpt lat="48.14247" lon="-3.60216">
        <ele>239</ele>
        <time>2021-07-08T15:18:59Z</time>
      </trkpt>
      <trkpt lat="48.14245" lon="-3.60216">
        <ele>239</ele>
        <time>2021-07-08T15:19:00Z</time>
      </trkpt>
      <trkpt lat="48.14242" lon="-3.60216">
        <ele>239</ele>
        <time>2021-07-08T15:19:01Z</time>
      </trkpt>
      <trkpt lat="48.1424" lon="-3.60216">
        <ele>239</ele>
        <time>2021-07-08T15:19:02Z</time>
      </trkpt>
      <trkpt lat="48.14237" lon="-3.60215">
        <ele>239</ele>
        <time>2021-07-08T15:19:03Z</time>
      </trkpt>
      <trkpt lat="48.14235" lon="-3.60214">
        <ele>239</ele>
        <time>2021-07-08T15:19:04Z</time>
      </trkpt>
      <trkpt lat="48.14233" lon="-3.60213">
        <ele>239</ele>
        <time>2021-07-08T15:19:05Z</time>
      </trkpt>
      <trkpt lat="48.1423" lon="-3.60213">
        <ele>239</ele>
        <time>2021-07-08T15:19:07Z</time>
      </trkpt>
      <trkpt lat="48.14227" lon="-3.60213">
        <ele>239</ele>
        <time>2021-07-08T15:19:08Z</time>
      </trkpt>
      <trkpt lat="48.14225" lon="-3.60212">
        <ele>239</ele>
        <time>2021-07-08T15:19:08Z</time>
      </trkpt>
      <trkpt lat="48.14222" lon="-3.6021">
        <ele>239</ele>
        <time>2021-07-08T15:19:09Z</time>
      </trkpt>
      <trkpt lat="48.1422" lon="-3.60209">
        <ele>240</ele>
        <time>2021-07-08T15:19:10Z</time>
      </trkpt>
      <trkpt lat="48.14217" lon="-3.60207">
        <ele>240</ele>
        <time>2021-07-08T15:19:11Z</time>
      </trkpt>
      <trkpt lat="48.14214" lon="-3.60205">
        <ele>240</ele>
        <time>2021-07-08T15:19:12Z</time>
      </trkpt>
      <trkpt lat="48.14212" lon="-3.60204">
        <ele>240</ele>
        <time>2021-07-08T15:19:13Z</time>
      </trkpt>
      <trkpt lat="48.14209" lon="-3.60203">
        <ele>240</ele>
        <time>2021-07-08T15:19:14Z</time>
      </trkpt>
      <trkpt lat="48.14206" lon="-3.60202">
        <ele>239</ele>
        <time>2021-07-08T15:19:15Z</time>
      </trkpt>
      <trkpt lat="48.14204" lon="-3.60202">
        <ele>239</ele>
        <time>2021-07-08T15:19:16Z</time>
      </trkpt>
      <trkpt lat="48.14201" lon="-3.60201">
        <ele>239</ele>
        <time>2021-07-08T15:19:17Z</time>
      </trkpt>
      <trkpt lat="48.14198" lon="-3.60201">
        <ele>239</ele>
        <time>2021-07-08T15:19:18Z</time>
      </trkpt>
      <trkpt lat="48.14195" lon="-3.60202">
        <ele>239</ele>
        <time>2021-07-08T15:19:19Z</time>
      </trkpt>
      <trkpt lat="48.14192" lon="-3.60202">
        <ele>239</ele>
        <time>2021-07-08T15:19:20Z</time>
      </trkpt>
      <trkpt lat="48.14188" lon="-3.60202">
        <ele>239</ele>
        <time>2021-07-08T15:19:21Z</time>
      </trkpt>
      <trkpt lat="48.14185" lon="-3.60203">
        <ele>239</ele>
        <time>2021-07-08T15:19:22Z</time>
      </trkpt>
      <trkpt lat="48.14182" lon="-3.60203">
        <ele>239</ele>
        <time>2021-07-08T15:19:23Z</time>
      </trkpt>
      <trkpt lat="48.14178" lon="-3.60203">
        <ele>239</ele>
        <time>2021-07-08T15:19:24Z</time>
      </trkpt>
      <trkpt lat="48.14175" lon="-3.60203">
        <ele>239</ele>
        <time>2021-07-08T15:19:25Z</time>
      </trkpt>
      <trkpt lat="48.14172" lon="-3.60203">
        <ele>239</ele>
        <time>2021-07-08T15:19:26Z</time>
      </trkpt>
      <trkpt lat="48.14169" lon="-3.60203">
        <ele>239</ele>
        <time>2021-07-08T15:19:27Z</time>
      </trkpt>
      <trkpt lat="48.14165" lon="-3.60203">
        <ele>239</ele>
        <time>2021-07-08T15:19:28Z</time>
      </trkpt>
      <trkpt lat="48.14162" lon="-3.60202">
        <ele>239</ele>
        <time>2021-07-08T15:19:29Z</time>
      </trkpt>
      <trkpt lat="48.14159" lon="-3.60202">
        <ele>239</ele>
        <time>2021-07-08T15:19:30Z</time>
      </trkpt>
      <trkpt lat="48.14156" lon="-3.60202">
        <ele>239</ele>
        <time>2021-07-08T15:19:31Z</time>
      </trkpt>
      <trkpt lat="48.14153" lon="-3.60202">
        <ele>239</ele>
        <time>2021-07-08T15:19:32Z</time>
      </trkpt>
      <trkpt lat="48.1415" lon="-3.60201">
        <ele>239</ele>
        <time>2021-07-08T15:19:33Z</time>
      </trkpt>
      <trkpt lat="48.14146" lon="-3.60201">
        <ele>239</ele>
        <time>2021-07-08T15:19:34Z</time>
      </trkpt>
      <trkpt lat="48.14143" lon="-3.602">
        <ele>239</ele>
        <time>2021-07-08T15:19:35Z</time>
      </trkpt>
      <trkpt lat="48.1414" lon="-3.60199">
        <ele>239</ele>
        <time>2021-07-08T15:19:36Z</time>
      </trkpt>
      <trkpt lat="48.14136" lon="-3.60199">
        <ele>239</ele>
        <time>2021-07-08T15:19:37Z</time>
      </trkpt>
      <trkpt lat="48.14133" lon="-3.60198">
        <ele>239</ele>
        <time>2021-07-08T15:19:38Z</time>
      </trkpt>
      <trkpt lat="48.14129" lon="-3.60198">
        <ele>240</ele>
        <time>2021-07-08T15:19:39Z</time>
      </trkpt>
      <trkpt lat="48.14126" lon="-3.60197">
        <ele>240</ele>
        <time>2021-07-08T15:19:40Z</time>
      </trkpt>
      <trkpt lat="48.14122" lon="-3.60197">
        <ele>240</ele>
        <time>2021-07-08T15:19:41Z</time>
      </trkpt>
      <trkpt lat="48.14119" lon="-3.60196">
        <ele>240</ele>
        <time>2021-07-08T15:19:42Z</time>
      </trkpt>
      <trkpt lat="48.14116" lon="-3.60196">
        <ele>240</ele>
        <time>2021-07-08T15:19:43Z</time>
      </trkpt>
      <trkpt lat="48.14113" lon="-3.60195">
        <ele>240</ele>
        <time>2021-07-08T15:19:44Z</time>
      </trkpt>
      <trkpt lat="48.14111" lon="-3.60195">
        <ele>240</ele>
        <time>2021-07-08T15:19:45Z</time>
      </trkpt>
      <trkpt lat="48.14109" lon="-3.60195">
        <ele>240</ele>
        <time>2021-07-08T15:19:46Z</time>
      </trkpt>
      <trkpt lat="48.14107" lon="-3.60196">
        <ele>240</ele>
        <time>2021-07-08T15:19:48Z</time>
      </trkpt>
      <trkpt lat="48.14093" lon="-3.60204">
        <ele>239</ele>
        <time>2021-07-08T15:19:51Z</time>
      </trkpt>
      <trkpt lat="48.14105" lon="-3.60196">
        <ele>240</ele>
        <time>2021-07-08T15:19:52Z</time>
      </trkpt>
      <trkpt lat="48.14093" lon="-3.60207">
        <ele>239</ele>
        <time>2021-07-08T15:19:52Z</time>
      </trkpt>
      <trkpt lat="48.14093" lon="-3.60211">
        <ele>239</ele>
        <time>2021-07-08T15:19:53Z</time>
      </trkpt>
      <trkpt lat="48.14093" lon="-3.60215">
        <ele>240</ele>
        <time>2021-07-08T15:19:54Z</time>
      </trkpt>
      <trkpt lat="48.14102" lon="-3.60196">
        <ele>240</ele>
        <time>2021-07-08T15:19:54Z</time>
      </trkpt>
      <trkpt lat="48.14093" lon="-3.6022">
        <ele>240</ele>
        <time>2021-07-08T15:19:55Z</time>
      </trkpt>
      <trkpt lat="48.141" lon="-3.60196">
        <ele>240</ele>
        <time>2021-07-08T15:19:55Z</time>
      </trkpt>
      <trkpt lat="48.14093" lon="-3.60224">
        <ele>240</ele>
        <time>2021-07-08T15:19:56Z</time>
      </trkpt>
      <trkpt lat="48.14093" lon="-3.60229">
        <ele>240</ele>
        <time>2021-07-08T15:19:57Z</time>
      </trkpt>
      <trkpt lat="48.14097" lon="-3.60198">
        <ele>239</ele>
        <time>2021-07-08T15:19:57Z</time>
      </trkpt>
      <trkpt lat="48.14093" lon="-3.60233">
        <ele>240</ele>
        <time>2021-07-08T15:19:58Z</time>
      </trkpt>
      <trkpt lat="48.14092" lon="-3.60237">
        <ele>240</ele>
        <time>2021-07-08T15:19:59Z</time>
      </trkpt>
      <trkpt lat="48.14092" lon="-3.60241">
        <ele>240</ele>
        <time>2021-07-08T15:20:00Z</time>
      </trkpt>
      <trkpt lat="48.14092" lon="-3.60245">
        <ele>240</ele>
        <time>2021-07-08T15:20:01Z</time>
      </trkpt>
      <trkpt lat="48.14092" lon="-3.60249">
        <ele>241</ele>
        <time>2021-07-08T15:20:02Z</time>
      </trkpt>
      <trkpt lat="48.14091" lon="-3.60253">
        <ele>241</ele>
        <time>2021-07-08T15:20:03Z</time>
      </trkpt>
      <trkpt lat="48.14091" lon="-3.60258">
        <ele>241</ele>
        <time>2021-07-08T15:20:04Z</time>
      </trkpt>
      <trkpt lat="48.1409" lon="-3.60262">
        <ele>241</ele>
        <time>2021-07-08T15:20:05Z</time>
      </trkpt>
      <trkpt lat="48.14098" lon="-3.60197">
        <ele>240</ele>
        <time>2021-07-08T15:20:06Z</time>
      </trkpt>
      <trkpt lat="48.1409" lon="-3.60267">
        <ele>242</ele>
        <time>2021-07-08T15:20:06Z</time>
      </trkpt>
      <trkpt lat="48.1409" lon="-3.60272">
        <ele>242</ele>
        <time>2021-07-08T15:20:07Z</time>
      </trkpt>
      <trkpt lat="48.14089" lon="-3.60276">
        <ele>242</ele>
        <time>2021-07-08T15:20:08Z</time>
      </trkpt>
      <trkpt lat="48.14089" lon="-3.60281">
        <ele>242</ele>
        <time>2021-07-08T15:20:09Z</time>
      </trkpt>
      <trkpt lat="48.14089" lon="-3.60285">
        <ele>242</ele>
        <time>2021-07-08T15:20:10Z</time>
      </trkpt>
      <trkpt lat="48.14088" lon="-3.6029">
        <ele>242</ele>
        <time>2021-07-08T15:20:12Z</time>
      </trkpt>
      <trkpt lat="48.14088" lon="-3.60294">
        <ele>242</ele>
        <time>2021-07-08T15:20:12Z</time>
      </trkpt>
      <trkpt lat="48.14087" lon="-3.60299">
        <ele>242</ele>
        <time>2021-07-08T15:20:13Z</time>
      </trkpt>
      <trkpt lat="48.14087" lon="-3.60303">
        <ele>242</ele>
        <time>2021-07-08T15:20:14Z</time>
      </trkpt>
      <trkpt lat="48.14086" lon="-3.60307">
        <ele>242</ele>
        <time>2021-07-08T15:20:15Z</time>
      </trkpt>
      <trkpt lat="48.14086" lon="-3.60311">
        <ele>242</ele>
        <time>2021-07-08T15:20:16Z</time>
      </trkpt>
      <trkpt lat="48.14087" lon="-3.60315">
        <ele>242</ele>
        <time>2021-07-08T15:20:17Z</time>
      </trkpt>
      <trkpt lat="48.14087" lon="-3.60318">
        <ele>242</ele>
        <time>2021-07-08T15:20:18Z</time>
      </trkpt>
      <trkpt lat="48.14089" lon="-3.60321">
        <ele>242</ele>
        <time>2021-07-08T15:20:20Z</time>
      </trkpt>
      <trkpt lat="48.1409" lon="-3.60323">
        <ele>242</ele>
        <time>2021-07-08T15:21:35Z</time>
      </trkpt>
      <trkpt lat="48.14099" lon="-3.60323">
        <ele>242</ele>
        <time>2021-07-08T15:22:01Z</time>
      </trkpt>
      <trkpt lat="48.14104" lon="-3.6032">
        <ele>242</ele>
        <time>2021-07-08T15:22:02Z</time>
      </trkpt>
      <trkpt lat="48.14107" lon="-3.60319">
        <ele>242</ele>
        <time>2021-07-08T15:22:03Z</time>
      </trkpt>
      <trkpt lat="48.1411" lon="-3.60317">
        <ele>242</ele>
        <time>2021-07-08T15:22:04Z</time>
      </trkpt>
      <trkpt lat="48.14113" lon="-3.60315">
        <ele>242</ele>
        <time>2021-07-08T15:22:05Z</time>
      </trkpt>
      <trkpt lat="48.14116" lon="-3.60313">
        <ele>242</ele>
        <time>2021-07-08T15:22:06Z</time>
      </trkpt>
      <trkpt lat="48.1412" lon="-3.60311">
        <ele>242</ele>
        <time>2021-07-08T15:22:07Z</time>
      </trkpt>
      <trkpt lat="48.14124" lon="-3.60309">
        <ele>242</ele>
        <time>2021-07-08T15:22:08Z</time>
      </trkpt>
      <trkpt lat="48.14129" lon="-3.60307">
        <ele>242</ele>
        <time>2021-07-08T15:22:09Z</time>
      </trkpt>
      <trkpt lat="48.14133" lon="-3.60304">
        <ele>242</ele>
        <time>2021-07-08T15:22:10Z</time>
      </trkpt>
      <trkpt lat="48.14137" lon="-3.60302">
        <ele>242</ele>
        <time>2021-07-08T15:22:11Z</time>
      </trkpt>
      <trkpt lat="48.14141" lon="-3.60299">
        <ele>242</ele>
        <time>2021-07-08T15:22:12Z</time>
      </trkpt>
      <trkpt lat="48.14145" lon="-3.60297">
        <ele>242</ele>
        <time>2021-07-08T15:22:13Z</time>
      </trkpt>
      <trkpt lat="48.14149" lon="-3.60295">
        <ele>242</ele>
        <time>2021-07-08T15:22:14Z</time>
      </trkpt>
      <trkpt lat="48.14153" lon="-3.60293">
        <ele>242</ele>
        <time>2021-07-08T15:22:15Z</time>
      </trkpt>
      <trkpt lat="48.14157" lon="-3.60291">
        <ele>241</ele>
        <time>2021-07-08T15:22:16Z</time>
      </trkpt>
      <trkpt lat="48.1416" lon="-3.60289">
        <ele>241</ele>
        <time>2021-07-08T15:22:17Z</time>
      </trkpt>
      <trkpt lat="48.14163" lon="-3.60287">
        <ele>240</ele>
        <time>2021-07-08T15:22:18Z</time>
      </trkpt>
      <trkpt lat="48.14165" lon="-3.60285">
        <ele>240</ele>
        <time>2021-07-08T15:22:19Z</time>
      </trkpt>
      <trkpt lat="48.14168" lon="-3.60283">
        <ele>240</ele>
        <time>2021-07-08T15:22:20Z</time>
      </trkpt>
      <trkpt lat="48.1417" lon="-3.60282">
        <ele>240</ele>
        <time>2021-07-08T15:22:21Z</time>
      </trkpt>
      <trkpt lat="48.14173" lon="-3.60281">
        <ele>240</ele>
        <time>2021-07-08T15:22:22Z</time>
      </trkpt>
      <trkpt lat="48.14176" lon="-3.60279">
        <ele>240</ele>
        <time>2021-07-08T15:22:23Z</time>
      </trkpt>
      <trkpt lat="48.14179" lon="-3.6028">
        <ele>240</ele>
        <time>2021-07-08T15:22:24Z</time>
      </trkpt>
      <trkpt lat="48.14181" lon="-3.60283">
        <ele>240</ele>
        <time>2021-07-08T15:22:25Z</time>
      </trkpt>
      <trkpt lat="48.14183" lon="-3.60286">
        <ele>240</ele>
        <time>2021-07-08T15:22:26Z</time>
      </trkpt>
      <trkpt lat="48.14185" lon="-3.60289">
        <ele>241</ele>
        <time>2021-07-08T15:22:27Z</time>
      </trkpt>
      <trkpt lat="48.14187" lon="-3.60292">
        <ele>241</ele>
        <time>2021-07-08T15:22:28Z</time>
      </trkpt>
      <trkpt lat="48.14189" lon="-3.60296">
        <ele>241</ele>
        <time>2021-07-08T15:22:29Z</time>
      </trkpt>
      <trkpt lat="48.14191" lon="-3.603">
        <ele>241</ele>
        <time>2021-07-08T15:22:30Z</time>
      </trkpt>
      <trkpt lat="48.14192" lon="-3.60304">
        <ele>240</ele>
        <time>2021-07-08T15:22:32Z</time>
      </trkpt>
      <trkpt lat="48.14194" lon="-3.60308">
        <ele>240</ele>
        <time>2021-07-08T15:22:32Z</time>
      </trkpt>
      <trkpt lat="48.14196" lon="-3.60313">
        <ele>240</ele>
        <time>2021-07-08T15:22:33Z</time>
      </trkpt>
      <trkpt lat="48.14198" lon="-3.60317">
        <ele>240</ele>
        <time>2021-07-08T15:22:34Z</time>
      </trkpt>
      <trkpt lat="48.142" lon="-3.60321">
        <ele>240</ele>
        <time>2021-07-08T15:22:35Z</time>
      </trkpt>
      <trkpt lat="48.14203" lon="-3.60325">
        <ele>240</ele>
        <time>2021-07-08T15:22:36Z</time>
      </trkpt>
      <trkpt lat="48.14206" lon="-3.60329">
        <ele>240</ele>
        <time>2021-07-08T15:22:37Z</time>
      </trkpt>
      <trkpt lat="48.14208" lon="-3.60333">
        <ele>240</ele>
        <time>2021-07-08T15:22:38Z</time>
      </trkpt>
      <trkpt lat="48.1421" lon="-3.60337">
        <ele>240</ele>
        <time>2021-07-08T15:22:39Z</time>
      </trkpt>
      <trkpt lat="48.14212" lon="-3.60341">
        <ele>241</ele>
        <time>2021-07-08T15:22:40Z</time>
      </trkpt>
      <trkpt lat="48.14214" lon="-3.60345">
        <ele>241</ele>
        <time>2021-07-08T15:22:41Z</time>
      </trkpt>
      <trkpt lat="48.14216" lon="-3.60349">
        <ele>241</ele>
        <time>2021-07-08T15:22:42Z</time>
      </trkpt>
      <trkpt lat="48.14217" lon="-3.60354">
        <ele>241</ele>
        <time>2021-07-08T15:22:43Z</time>
      </trkpt>
      <trkpt lat="48.14217" lon="-3.60358">
        <ele>241</ele>
        <time>2021-07-08T15:22:44Z</time>
      </trkpt>
      <trkpt lat="48.14218" lon="-3.60364">
        <ele>241</ele>
        <time>2021-07-08T15:22:45Z</time>
      </trkpt>
      <trkpt lat="48.14218" lon="-3.60369">
        <ele>241</ele>
        <time>2021-07-08T15:22:46Z</time>
      </trkpt>
      <trkpt lat="48.14218" lon="-3.60374">
        <ele>240</ele>
        <time>2021-07-08T15:22:47Z</time>
      </trkpt>
      <trkpt lat="48.14217" lon="-3.6038">
        <ele>240</ele>
        <time>2021-07-08T15:22:48Z</time>
      </trkpt>
      <trkpt lat="48.14217" lon="-3.60385">
        <ele>239</ele>
        <time>2021-07-08T15:22:49Z</time>
      </trkpt>
      <trkpt lat="48.14217" lon="-3.6039">
        <ele>239</ele>
        <time>2021-07-08T15:22:50Z</time>
      </trkpt>
      <trkpt lat="48.14217" lon="-3.60394">
        <ele>240</ele>
        <time>2021-07-08T15:22:51Z</time>
      </trkpt>
      <trkpt lat="48.14217" lon="-3.60399">
        <ele>240</ele>
        <time>2021-07-08T15:22:52Z</time>
      </trkpt>
      <trkpt lat="48.14217" lon="-3.60403">
        <ele>240</ele>
        <time>2021-07-08T15:22:53Z</time>
      </trkpt>
      <trkpt lat="48.14217" lon="-3.60407">
        <ele>240</ele>
        <time>2021-07-08T15:22:55Z</time>
      </trkpt>
      <trkpt lat="48.14217" lon="-3.60411">
        <ele>240</ele>
        <time>2021-07-08T15:22:55Z</time>
      </trkpt>
      <trkpt lat="48.14217" lon="-3.60415">
        <ele>240</ele>
        <time>2021-07-08T15:22:56Z</time>
      </trkpt>
      <trkpt lat="48.14217" lon="-3.60418">
        <ele>240</ele>
        <time>2021-07-08T15:22:58Z</time>
      </trkpt>
      <trkpt lat="48.14217" lon="-3.60418">
        <ele>240</ele>
        <time>2021-07-08T15:23:05Z</time>
      </trkpt>
      <trkpt lat="48.14212" lon="-3.60422">
        <ele>240</ele>
        <time>2021-07-08T15:23:26Z</time>
      </trkpt>
      <trkpt lat="48.14211" lon="-3.60422">
        <ele>240</ele>
        <time>2021-07-08T15:23:27Z</time>
      </trkpt>
      <trkpt lat="48.14208" lon="-3.60423">
        <ele>240</ele>
        <time>2021-07-08T15:23:28Z</time>
      </trkpt>
      <trkpt lat="48.14206" lon="-3.60423">
        <ele>240</ele>
        <time>2021-07-08T15:23:30Z</time>
      </trkpt>
      <trkpt lat="48.14204" lon="-3.60421">
        <ele>240</ele>
        <time>2021-07-08T15:23:32Z</time>
      </trkpt>
      <trkpt lat="48.14202" lon="-3.60419">
        <ele>240</ele>
        <time>2021-07-08T15:23:34Z</time>
      </trkpt>
      <trkpt lat="48.14201" lon="-3.60418">
        <ele>240</ele>
        <time>2021-07-08T15:23:36Z</time>
      </trkpt>
      <trkpt lat="48.14198" lon="-3.60418">
        <ele>240</ele>
        <time>2021-07-08T15:23:38Z</time>
      </trkpt>
      <trkpt lat="48.14197" lon="-3.60417">
        <ele>240</ele>
        <time>2021-07-08T15:23:40Z</time>
      </trkpt>
      <trkpt lat="48.14197" lon="-3.60417">
        <ele>241</ele>
        <time>2021-07-08T15:23:47Z</time>
      </trkpt>
    </trkseg>
  </trk>
</gpx>